<?xml version="1.0" encoding="UTF-8" standalone="no" ?>
<gpx xmlns="http://www.topografix.com/GPX/1/1" xmlns:xsi="http://www.w3.org/2001/XMLSchema-instance" xsi:schemaLocation="http://www.topografix.com/GPX/1/1 http://www.topografix.com/GPX/1/1/gpx.xsd" version="1.1" creator="VisuGPX - https://www.visugpx.com">
  <metadata>
    <name>Valbelle tour du Sumiou</name>
    <desc><![CDATA[Faite le 22/09/22]]></desc>
  </metadata>
  <trk>
    <name><![CDATA[Curel Randonnée]]></name>
    <trkseg>
      <trkpt lat="44.14948" lon="5.877">
        <ele>546</ele>
        <time>2022-09-22T07:25:39Z</time>
      </trkpt>
      <trkpt lat="44.14949" lon="5.877">
        <ele>546</ele>
        <time>2022-09-22T07:25:40Z</time>
      </trkpt>
      <trkpt lat="44.14949" lon="5.877">
        <ele>546</ele>
        <time>2022-09-22T07:25:41Z</time>
      </trkpt>
      <trkpt lat="44.14949" lon="5.877">
        <ele>546</ele>
        <time>2022-09-22T07:25:42Z</time>
      </trkpt>
      <trkpt lat="44.1495" lon="5.877">
        <ele>546</ele>
        <time>2022-09-22T07:25:43Z</time>
      </trkpt>
      <trkpt lat="44.1495" lon="5.877">
        <ele>546</ele>
        <time>2022-09-22T07:25:44Z</time>
      </trkpt>
      <trkpt lat="44.14951" lon="5.877">
        <ele>546</ele>
        <time>2022-09-22T07:25:45Z</time>
      </trkpt>
      <trkpt lat="44.14952" lon="5.877">
        <ele>546</ele>
        <time>2022-09-22T07:25:46Z</time>
      </trkpt>
      <trkpt lat="44.14952" lon="5.877">
        <ele>546</ele>
        <time>2022-09-22T07:25:47Z</time>
      </trkpt>
      <trkpt lat="44.14953" lon="5.87701">
        <ele>546</ele>
        <time>2022-09-22T07:25:48Z</time>
      </trkpt>
      <trkpt lat="44.14954" lon="5.87701">
        <ele>546</ele>
        <time>2022-09-22T07:25:49Z</time>
      </trkpt>
      <trkpt lat="44.14955" lon="5.87701">
        <ele>546</ele>
        <time>2022-09-22T07:25:50Z</time>
      </trkpt>
      <trkpt lat="44.14956" lon="5.87701">
        <ele>546</ele>
        <time>2022-09-22T07:25:51Z</time>
      </trkpt>
      <trkpt lat="44.14956" lon="5.87701">
        <ele>546</ele>
        <time>2022-09-22T07:25:52Z</time>
      </trkpt>
      <trkpt lat="44.14957" lon="5.87701">
        <ele>546</ele>
        <time>2022-09-22T07:25:53Z</time>
      </trkpt>
      <trkpt lat="44.14958" lon="5.87701">
        <ele>546</ele>
        <time>2022-09-22T07:25:54Z</time>
      </trkpt>
      <trkpt lat="44.14959" lon="5.87701">
        <ele>546</ele>
        <time>2022-09-22T07:25:55Z</time>
      </trkpt>
      <trkpt lat="44.1496" lon="5.87701">
        <ele>546</ele>
        <time>2022-09-22T07:25:56Z</time>
      </trkpt>
      <trkpt lat="44.14961" lon="5.87701">
        <ele>546</ele>
        <time>2022-09-22T07:25:57Z</time>
      </trkpt>
      <trkpt lat="44.14962" lon="5.87701">
        <ele>546</ele>
        <time>2022-09-22T07:25:58Z</time>
      </trkpt>
      <trkpt lat="44.14963" lon="5.87701">
        <ele>546</ele>
        <time>2022-09-22T07:25:59Z</time>
      </trkpt>
      <trkpt lat="44.14964" lon="5.87701">
        <ele>546</ele>
        <time>2022-09-22T07:26:00Z</time>
      </trkpt>
      <trkpt lat="44.14964" lon="5.87701">
        <ele>546</ele>
        <time>2022-09-22T07:26:01Z</time>
      </trkpt>
      <trkpt lat="44.14965" lon="5.87701">
        <ele>546</ele>
        <time>2022-09-22T07:26:02Z</time>
      </trkpt>
      <trkpt lat="44.14966" lon="5.87701">
        <ele>546</ele>
        <time>2022-09-22T07:26:03Z</time>
      </trkpt>
      <trkpt lat="44.14967" lon="5.87701">
        <ele>546</ele>
        <time>2022-09-22T07:26:04Z</time>
      </trkpt>
      <trkpt lat="44.14968" lon="5.87701">
        <ele>546</ele>
        <time>2022-09-22T07:26:05Z</time>
      </trkpt>
      <trkpt lat="44.14969" lon="5.877">
        <ele>546</ele>
        <time>2022-09-22T07:26:06Z</time>
      </trkpt>
      <trkpt lat="44.1497" lon="5.877">
        <ele>546</ele>
        <time>2022-09-22T07:26:07Z</time>
      </trkpt>
      <trkpt lat="44.1497" lon="5.87699">
        <ele>546</ele>
        <time>2022-09-22T07:26:08Z</time>
      </trkpt>
      <trkpt lat="44.14971" lon="5.87699">
        <ele>546</ele>
        <time>2022-09-22T07:26:09Z</time>
      </trkpt>
      <trkpt lat="44.14972" lon="5.87698">
        <ele>546</ele>
        <time>2022-09-22T07:26:10Z</time>
      </trkpt>
      <trkpt lat="44.14973" lon="5.87698">
        <ele>546</ele>
        <time>2022-09-22T07:26:11Z</time>
      </trkpt>
      <trkpt lat="44.14973" lon="5.87697">
        <ele>546</ele>
        <time>2022-09-22T07:26:12Z</time>
      </trkpt>
      <trkpt lat="44.14974" lon="5.87696">
        <ele>546</ele>
        <time>2022-09-22T07:26:13Z</time>
      </trkpt>
      <trkpt lat="44.14975" lon="5.87695">
        <ele>547</ele>
        <time>2022-09-22T07:26:14Z</time>
      </trkpt>
      <trkpt lat="44.14976" lon="5.87695">
        <ele>546</ele>
        <time>2022-09-22T07:26:15Z</time>
      </trkpt>
      <trkpt lat="44.14976" lon="5.87694">
        <ele>546</ele>
        <time>2022-09-22T07:26:16Z</time>
      </trkpt>
      <trkpt lat="44.14977" lon="5.87693">
        <ele>546</ele>
        <time>2022-09-22T07:26:17Z</time>
      </trkpt>
      <trkpt lat="44.14978" lon="5.87692">
        <ele>546</ele>
        <time>2022-09-22T07:26:18Z</time>
      </trkpt>
      <trkpt lat="44.14979" lon="5.87691">
        <ele>546</ele>
        <time>2022-09-22T07:26:19Z</time>
      </trkpt>
      <trkpt lat="44.14979" lon="5.8769">
        <ele>546</ele>
        <time>2022-09-22T07:26:20Z</time>
      </trkpt>
      <trkpt lat="44.1498" lon="5.87689">
        <ele>546</ele>
        <time>2022-09-22T07:26:21Z</time>
      </trkpt>
      <trkpt lat="44.14981" lon="5.87688">
        <ele>546</ele>
        <time>2022-09-22T07:26:22Z</time>
      </trkpt>
      <trkpt lat="44.14982" lon="5.87688">
        <ele>546</ele>
        <time>2022-09-22T07:26:23Z</time>
      </trkpt>
      <trkpt lat="44.14982" lon="5.87687">
        <ele>546</ele>
        <time>2022-09-22T07:26:24Z</time>
      </trkpt>
      <trkpt lat="44.14983" lon="5.87686">
        <ele>546</ele>
        <time>2022-09-22T07:26:25Z</time>
      </trkpt>
      <trkpt lat="44.14984" lon="5.87684">
        <ele>546</ele>
        <time>2022-09-22T07:26:26Z</time>
      </trkpt>
      <trkpt lat="44.14985" lon="5.87683">
        <ele>546</ele>
        <time>2022-09-22T07:26:27Z</time>
      </trkpt>
      <trkpt lat="44.14985" lon="5.87682">
        <ele>546</ele>
        <time>2022-09-22T07:26:28Z</time>
      </trkpt>
      <trkpt lat="44.14986" lon="5.87681">
        <ele>546</ele>
        <time>2022-09-22T07:26:29Z</time>
      </trkpt>
      <trkpt lat="44.14987" lon="5.8768">
        <ele>545</ele>
        <time>2022-09-22T07:26:30Z</time>
      </trkpt>
      <trkpt lat="44.14988" lon="5.87679">
        <ele>545</ele>
        <time>2022-09-22T07:26:31Z</time>
      </trkpt>
      <trkpt lat="44.14988" lon="5.87677">
        <ele>545</ele>
        <time>2022-09-22T07:26:32Z</time>
      </trkpt>
      <trkpt lat="44.14989" lon="5.87676">
        <ele>545</ele>
        <time>2022-09-22T07:26:33Z</time>
      </trkpt>
      <trkpt lat="44.1499" lon="5.87675">
        <ele>545</ele>
        <time>2022-09-22T07:26:34Z</time>
      </trkpt>
      <trkpt lat="44.1499" lon="5.87674">
        <ele>545</ele>
        <time>2022-09-22T07:26:35Z</time>
      </trkpt>
      <trkpt lat="44.14991" lon="5.87673">
        <ele>545</ele>
        <time>2022-09-22T07:26:36Z</time>
      </trkpt>
      <trkpt lat="44.14991" lon="5.87672">
        <ele>545</ele>
        <time>2022-09-22T07:26:37Z</time>
      </trkpt>
      <trkpt lat="44.14992" lon="5.8767">
        <ele>545</ele>
        <time>2022-09-22T07:26:38Z</time>
      </trkpt>
      <trkpt lat="44.14993" lon="5.87669">
        <ele>545</ele>
        <time>2022-09-22T07:26:39Z</time>
      </trkpt>
      <trkpt lat="44.14993" lon="5.87668">
        <ele>545</ele>
        <time>2022-09-22T07:26:40Z</time>
      </trkpt>
      <trkpt lat="44.14994" lon="5.87667">
        <ele>545</ele>
        <time>2022-09-22T07:26:41Z</time>
      </trkpt>
      <trkpt lat="44.14994" lon="5.87666">
        <ele>545</ele>
        <time>2022-09-22T07:26:42Z</time>
      </trkpt>
      <trkpt lat="44.14995" lon="5.87665">
        <ele>545</ele>
        <time>2022-09-22T07:26:43Z</time>
      </trkpt>
      <trkpt lat="44.14995" lon="5.87664">
        <ele>545</ele>
        <time>2022-09-22T07:26:44Z</time>
      </trkpt>
      <trkpt lat="44.14996" lon="5.87663">
        <ele>544</ele>
        <time>2022-09-22T07:26:45Z</time>
      </trkpt>
      <trkpt lat="44.14996" lon="5.87663">
        <ele>544</ele>
        <time>2022-09-22T07:26:46Z</time>
      </trkpt>
      <trkpt lat="44.14997" lon="5.87662">
        <ele>544</ele>
        <time>2022-09-22T07:26:47Z</time>
      </trkpt>
      <trkpt lat="44.14997" lon="5.87661">
        <ele>544</ele>
        <time>2022-09-22T07:26:48Z</time>
      </trkpt>
      <trkpt lat="44.14998" lon="5.8766">
        <ele>544</ele>
        <time>2022-09-22T07:26:49Z</time>
      </trkpt>
      <trkpt lat="44.14998" lon="5.87659">
        <ele>544</ele>
        <time>2022-09-22T07:26:50Z</time>
      </trkpt>
      <trkpt lat="44.14998" lon="5.87657">
        <ele>544</ele>
        <time>2022-09-22T07:26:51Z</time>
      </trkpt>
      <trkpt lat="44.14999" lon="5.87656">
        <ele>544</ele>
        <time>2022-09-22T07:26:52Z</time>
      </trkpt>
      <trkpt lat="44.14999" lon="5.87655">
        <ele>544</ele>
        <time>2022-09-22T07:26:53Z</time>
      </trkpt>
      <trkpt lat="44.15" lon="5.87654">
        <ele>544</ele>
        <time>2022-09-22T07:26:54Z</time>
      </trkpt>
      <trkpt lat="44.15" lon="5.87652">
        <ele>544</ele>
        <time>2022-09-22T07:26:55Z</time>
      </trkpt>
      <trkpt lat="44.15001" lon="5.87651">
        <ele>544</ele>
        <time>2022-09-22T07:26:56Z</time>
      </trkpt>
      <trkpt lat="44.15001" lon="5.8765">
        <ele>544</ele>
        <time>2022-09-22T07:26:57Z</time>
      </trkpt>
      <trkpt lat="44.15002" lon="5.87648">
        <ele>544</ele>
        <time>2022-09-22T07:26:58Z</time>
      </trkpt>
      <trkpt lat="44.15002" lon="5.87647">
        <ele>544</ele>
        <time>2022-09-22T07:26:59Z</time>
      </trkpt>
      <trkpt lat="44.15003" lon="5.87646">
        <ele>544</ele>
        <time>2022-09-22T07:27:00Z</time>
      </trkpt>
      <trkpt lat="44.15003" lon="5.87644">
        <ele>544</ele>
        <time>2022-09-22T07:27:01Z</time>
      </trkpt>
      <trkpt lat="44.15003" lon="5.87643">
        <ele>544</ele>
        <time>2022-09-22T07:27:02Z</time>
      </trkpt>
      <trkpt lat="44.15004" lon="5.87641">
        <ele>544</ele>
        <time>2022-09-22T07:27:03Z</time>
      </trkpt>
      <trkpt lat="44.15004" lon="5.8764">
        <ele>544</ele>
        <time>2022-09-22T07:27:04Z</time>
      </trkpt>
      <trkpt lat="44.15004" lon="5.87638">
        <ele>544</ele>
        <time>2022-09-22T07:27:05Z</time>
      </trkpt>
      <trkpt lat="44.15004" lon="5.87636">
        <ele>544</ele>
        <time>2022-09-22T07:27:06Z</time>
      </trkpt>
      <trkpt lat="44.15004" lon="5.87635">
        <ele>544</ele>
        <time>2022-09-22T07:27:07Z</time>
      </trkpt>
      <trkpt lat="44.15005" lon="5.87633">
        <ele>544</ele>
        <time>2022-09-22T07:27:08Z</time>
      </trkpt>
      <trkpt lat="44.15005" lon="5.87631">
        <ele>544</ele>
        <time>2022-09-22T07:27:09Z</time>
      </trkpt>
      <trkpt lat="44.15005" lon="5.87629">
        <ele>544</ele>
        <time>2022-09-22T07:27:10Z</time>
      </trkpt>
      <trkpt lat="44.15005" lon="5.87628">
        <ele>544</ele>
        <time>2022-09-22T07:27:11Z</time>
      </trkpt>
      <trkpt lat="44.15005" lon="5.87626">
        <ele>544</ele>
        <time>2022-09-22T07:27:12Z</time>
      </trkpt>
      <trkpt lat="44.15005" lon="5.87624">
        <ele>544</ele>
        <time>2022-09-22T07:27:13Z</time>
      </trkpt>
      <trkpt lat="44.15005" lon="5.87622">
        <ele>544</ele>
        <time>2022-09-22T07:27:14Z</time>
      </trkpt>
      <trkpt lat="44.15005" lon="5.8762">
        <ele>543</ele>
        <time>2022-09-22T07:27:15Z</time>
      </trkpt>
      <trkpt lat="44.15005" lon="5.87619">
        <ele>543</ele>
        <time>2022-09-22T07:27:16Z</time>
      </trkpt>
      <trkpt lat="44.15005" lon="5.87617">
        <ele>543</ele>
        <time>2022-09-22T07:27:17Z</time>
      </trkpt>
      <trkpt lat="44.15005" lon="5.87615">
        <ele>543</ele>
        <time>2022-09-22T07:27:18Z</time>
      </trkpt>
      <trkpt lat="44.15005" lon="5.87614">
        <ele>543</ele>
        <time>2022-09-22T07:27:19Z</time>
      </trkpt>
      <trkpt lat="44.15005" lon="5.87612">
        <ele>543</ele>
        <time>2022-09-22T07:27:20Z</time>
      </trkpt>
      <trkpt lat="44.15005" lon="5.8761">
        <ele>543</ele>
        <time>2022-09-22T07:27:21Z</time>
      </trkpt>
      <trkpt lat="44.15005" lon="5.87609">
        <ele>543</ele>
        <time>2022-09-22T07:27:22Z</time>
      </trkpt>
      <trkpt lat="44.15005" lon="5.87607">
        <ele>543</ele>
        <time>2022-09-22T07:27:23Z</time>
      </trkpt>
      <trkpt lat="44.15006" lon="5.87605">
        <ele>543</ele>
        <time>2022-09-22T07:27:24Z</time>
      </trkpt>
      <trkpt lat="44.15006" lon="5.87604">
        <ele>543</ele>
        <time>2022-09-22T07:27:25Z</time>
      </trkpt>
      <trkpt lat="44.15006" lon="5.87602">
        <ele>543</ele>
        <time>2022-09-22T07:27:26Z</time>
      </trkpt>
      <trkpt lat="44.15006" lon="5.876">
        <ele>543</ele>
        <time>2022-09-22T07:27:27Z</time>
      </trkpt>
      <trkpt lat="44.15006" lon="5.87599">
        <ele>543</ele>
        <time>2022-09-22T07:27:28Z</time>
      </trkpt>
      <trkpt lat="44.15006" lon="5.87597">
        <ele>543</ele>
        <time>2022-09-22T07:27:29Z</time>
      </trkpt>
      <trkpt lat="44.15006" lon="5.87596">
        <ele>543</ele>
        <time>2022-09-22T07:27:30Z</time>
      </trkpt>
      <trkpt lat="44.15007" lon="5.87594">
        <ele>543</ele>
        <time>2022-09-22T07:27:31Z</time>
      </trkpt>
      <trkpt lat="44.15007" lon="5.87593">
        <ele>544</ele>
        <time>2022-09-22T07:27:49Z</time>
      </trkpt>
      <trkpt lat="44.15007" lon="5.87592">
        <ele>544</ele>
        <time>2022-09-22T07:27:50Z</time>
      </trkpt>
      <trkpt lat="44.15007" lon="5.87592">
        <ele>544</ele>
        <time>2022-09-22T07:27:51Z</time>
      </trkpt>
      <trkpt lat="44.15007" lon="5.87591">
        <ele>544</ele>
        <time>2022-09-22T07:27:52Z</time>
      </trkpt>
      <trkpt lat="44.15006" lon="5.87591">
        <ele>544</ele>
        <time>2022-09-22T07:27:53Z</time>
      </trkpt>
      <trkpt lat="44.15005" lon="5.87591">
        <ele>544</ele>
        <time>2022-09-22T07:27:54Z</time>
      </trkpt>
      <trkpt lat="44.15005" lon="5.87591">
        <ele>544</ele>
        <time>2022-09-22T07:27:55Z</time>
      </trkpt>
      <trkpt lat="44.15004" lon="5.8759">
        <ele>544</ele>
        <time>2022-09-22T07:27:56Z</time>
      </trkpt>
      <trkpt lat="44.15002" lon="5.8759">
        <ele>544</ele>
        <time>2022-09-22T07:27:57Z</time>
      </trkpt>
      <trkpt lat="44.15001" lon="5.87589">
        <ele>544</ele>
        <time>2022-09-22T07:27:58Z</time>
      </trkpt>
      <trkpt lat="44.15" lon="5.87589">
        <ele>544</ele>
        <time>2022-09-22T07:27:59Z</time>
      </trkpt>
      <trkpt lat="44.14999" lon="5.87588">
        <ele>544</ele>
        <time>2022-09-22T07:28:00Z</time>
      </trkpt>
      <trkpt lat="44.14998" lon="5.87587">
        <ele>544</ele>
        <time>2022-09-22T07:28:01Z</time>
      </trkpt>
      <trkpt lat="44.14997" lon="5.87586">
        <ele>544</ele>
        <time>2022-09-22T07:28:02Z</time>
      </trkpt>
      <trkpt lat="44.14996" lon="5.87586">
        <ele>544</ele>
        <time>2022-09-22T07:28:03Z</time>
      </trkpt>
      <trkpt lat="44.14995" lon="5.87585">
        <ele>544</ele>
        <time>2022-09-22T07:28:04Z</time>
      </trkpt>
      <trkpt lat="44.14994" lon="5.87584">
        <ele>544</ele>
        <time>2022-09-22T07:28:05Z</time>
      </trkpt>
      <trkpt lat="44.14993" lon="5.87584">
        <ele>544</ele>
        <time>2022-09-22T07:28:06Z</time>
      </trkpt>
      <trkpt lat="44.14992" lon="5.87583">
        <ele>544</ele>
        <time>2022-09-22T07:28:07Z</time>
      </trkpt>
      <trkpt lat="44.14991" lon="5.87582">
        <ele>544</ele>
        <time>2022-09-22T07:28:08Z</time>
      </trkpt>
      <trkpt lat="44.1499" lon="5.87581">
        <ele>545</ele>
        <time>2022-09-22T07:28:09Z</time>
      </trkpt>
      <trkpt lat="44.14989" lon="5.87581">
        <ele>545</ele>
        <time>2022-09-22T07:28:10Z</time>
      </trkpt>
      <trkpt lat="44.14988" lon="5.8758">
        <ele>545</ele>
        <time>2022-09-22T07:28:11Z</time>
      </trkpt>
      <trkpt lat="44.14987" lon="5.87579">
        <ele>545</ele>
        <time>2022-09-22T07:28:12Z</time>
      </trkpt>
      <trkpt lat="44.14986" lon="5.87578">
        <ele>545</ele>
        <time>2022-09-22T07:28:13Z</time>
      </trkpt>
      <trkpt lat="44.14985" lon="5.87578">
        <ele>545</ele>
        <time>2022-09-22T07:28:14Z</time>
      </trkpt>
      <trkpt lat="44.14984" lon="5.87577">
        <ele>545</ele>
        <time>2022-09-22T07:28:15Z</time>
      </trkpt>
      <trkpt lat="44.14983" lon="5.87576">
        <ele>545</ele>
        <time>2022-09-22T07:28:16Z</time>
      </trkpt>
      <trkpt lat="44.14982" lon="5.87576">
        <ele>545</ele>
        <time>2022-09-22T07:28:17Z</time>
      </trkpt>
      <trkpt lat="44.14981" lon="5.87575">
        <ele>545</ele>
        <time>2022-09-22T07:28:18Z</time>
      </trkpt>
      <trkpt lat="44.1498" lon="5.87575">
        <ele>546</ele>
        <time>2022-09-22T07:28:19Z</time>
      </trkpt>
      <trkpt lat="44.14979" lon="5.87575">
        <ele>546</ele>
        <time>2022-09-22T07:28:20Z</time>
      </trkpt>
      <trkpt lat="44.14979" lon="5.87574">
        <ele>546</ele>
        <time>2022-09-22T07:28:21Z</time>
      </trkpt>
      <trkpt lat="44.14978" lon="5.87574">
        <ele>546</ele>
        <time>2022-09-22T07:28:22Z</time>
      </trkpt>
      <trkpt lat="44.14977" lon="5.87574">
        <ele>546</ele>
        <time>2022-09-22T07:28:23Z</time>
      </trkpt>
      <trkpt lat="44.14976" lon="5.87573">
        <ele>547</ele>
        <time>2022-09-22T07:28:24Z</time>
      </trkpt>
      <trkpt lat="44.14975" lon="5.87573">
        <ele>547</ele>
        <time>2022-09-22T07:28:25Z</time>
      </trkpt>
      <trkpt lat="44.14974" lon="5.87573">
        <ele>547</ele>
        <time>2022-09-22T07:28:26Z</time>
      </trkpt>
      <trkpt lat="44.14973" lon="5.87573">
        <ele>547</ele>
        <time>2022-09-22T07:28:27Z</time>
      </trkpt>
      <trkpt lat="44.14972" lon="5.87573">
        <ele>547</ele>
        <time>2022-09-22T07:28:28Z</time>
      </trkpt>
      <trkpt lat="44.14971" lon="5.87573">
        <ele>547</ele>
        <time>2022-09-22T07:28:29Z</time>
      </trkpt>
      <trkpt lat="44.1497" lon="5.87573">
        <ele>547</ele>
        <time>2022-09-22T07:28:30Z</time>
      </trkpt>
      <trkpt lat="44.14968" lon="5.87573">
        <ele>547</ele>
        <time>2022-09-22T07:28:31Z</time>
      </trkpt>
      <trkpt lat="44.14967" lon="5.87574">
        <ele>547</ele>
        <time>2022-09-22T07:28:32Z</time>
      </trkpt>
      <trkpt lat="44.14966" lon="5.87574">
        <ele>547</ele>
        <time>2022-09-22T07:28:33Z</time>
      </trkpt>
      <trkpt lat="44.14965" lon="5.87574">
        <ele>548</ele>
        <time>2022-09-22T07:28:34Z</time>
      </trkpt>
      <trkpt lat="44.14964" lon="5.87575">
        <ele>548</ele>
        <time>2022-09-22T07:28:35Z</time>
      </trkpt>
      <trkpt lat="44.14963" lon="5.87575">
        <ele>548</ele>
        <time>2022-09-22T07:28:36Z</time>
      </trkpt>
      <trkpt lat="44.14963" lon="5.87575">
        <ele>548</ele>
        <time>2022-09-22T07:28:37Z</time>
      </trkpt>
      <trkpt lat="44.14962" lon="5.87575">
        <ele>548</ele>
        <time>2022-09-22T07:28:38Z</time>
      </trkpt>
      <trkpt lat="44.14961" lon="5.87576">
        <ele>548</ele>
        <time>2022-09-22T07:28:39Z</time>
      </trkpt>
      <trkpt lat="44.1496" lon="5.87576">
        <ele>548</ele>
        <time>2022-09-22T07:28:40Z</time>
      </trkpt>
      <trkpt lat="44.14959" lon="5.87576">
        <ele>548</ele>
        <time>2022-09-22T07:28:41Z</time>
      </trkpt>
      <trkpt lat="44.14958" lon="5.87576">
        <ele>548</ele>
        <time>2022-09-22T07:28:42Z</time>
      </trkpt>
      <trkpt lat="44.14957" lon="5.87577">
        <ele>548</ele>
        <time>2022-09-22T07:28:43Z</time>
      </trkpt>
      <trkpt lat="44.14956" lon="5.87577">
        <ele>549</ele>
        <time>2022-09-22T07:28:44Z</time>
      </trkpt>
      <trkpt lat="44.14955" lon="5.87577">
        <ele>549</ele>
        <time>2022-09-22T07:28:45Z</time>
      </trkpt>
      <trkpt lat="44.14954" lon="5.87578">
        <ele>549</ele>
        <time>2022-09-22T07:28:46Z</time>
      </trkpt>
      <trkpt lat="44.14953" lon="5.87578">
        <ele>549</ele>
        <time>2022-09-22T07:28:47Z</time>
      </trkpt>
      <trkpt lat="44.14952" lon="5.87578">
        <ele>549</ele>
        <time>2022-09-22T07:28:48Z</time>
      </trkpt>
      <trkpt lat="44.14951" lon="5.87578">
        <ele>549</ele>
        <time>2022-09-22T07:28:49Z</time>
      </trkpt>
      <trkpt lat="44.1495" lon="5.87579">
        <ele>549</ele>
        <time>2022-09-22T07:28:50Z</time>
      </trkpt>
      <trkpt lat="44.14949" lon="5.87579">
        <ele>549</ele>
        <time>2022-09-22T07:28:51Z</time>
      </trkpt>
      <trkpt lat="44.14948" lon="5.87579">
        <ele>549</ele>
        <time>2022-09-22T07:28:52Z</time>
      </trkpt>
      <trkpt lat="44.14947" lon="5.8758">
        <ele>549</ele>
        <time>2022-09-22T07:28:53Z</time>
      </trkpt>
      <trkpt lat="44.14946" lon="5.8758">
        <ele>550</ele>
        <time>2022-09-22T07:28:54Z</time>
      </trkpt>
      <trkpt lat="44.14945" lon="5.8758">
        <ele>550</ele>
        <time>2022-09-22T07:28:55Z</time>
      </trkpt>
      <trkpt lat="44.14944" lon="5.87581">
        <ele>550</ele>
        <time>2022-09-22T07:28:56Z</time>
      </trkpt>
      <trkpt lat="44.14943" lon="5.87581">
        <ele>550</ele>
        <time>2022-09-22T07:28:57Z</time>
      </trkpt>
      <trkpt lat="44.14942" lon="5.87581">
        <ele>550</ele>
        <time>2022-09-22T07:28:58Z</time>
      </trkpt>
      <trkpt lat="44.14941" lon="5.87581">
        <ele>550</ele>
        <time>2022-09-22T07:28:59Z</time>
      </trkpt>
      <trkpt lat="44.1494" lon="5.87581">
        <ele>550</ele>
        <time>2022-09-22T07:29:00Z</time>
      </trkpt>
      <trkpt lat="44.14939" lon="5.87581">
        <ele>550</ele>
        <time>2022-09-22T07:29:01Z</time>
      </trkpt>
      <trkpt lat="44.14938" lon="5.87581">
        <ele>550</ele>
        <time>2022-09-22T07:29:02Z</time>
      </trkpt>
      <trkpt lat="44.14937" lon="5.87582">
        <ele>550</ele>
        <time>2022-09-22T07:29:03Z</time>
      </trkpt>
      <trkpt lat="44.14936" lon="5.87582">
        <ele>551</ele>
        <time>2022-09-22T07:29:04Z</time>
      </trkpt>
      <trkpt lat="44.14936" lon="5.87582">
        <ele>551</ele>
        <time>2022-09-22T07:29:05Z</time>
      </trkpt>
      <trkpt lat="44.14935" lon="5.87582">
        <ele>551</ele>
        <time>2022-09-22T07:29:06Z</time>
      </trkpt>
      <trkpt lat="44.14934" lon="5.87583">
        <ele>551</ele>
        <time>2022-09-22T07:29:07Z</time>
      </trkpt>
      <trkpt lat="44.14933" lon="5.87583">
        <ele>551</ele>
        <time>2022-09-22T07:29:08Z</time>
      </trkpt>
      <trkpt lat="44.14932" lon="5.87583">
        <ele>551</ele>
        <time>2022-09-22T07:29:09Z</time>
      </trkpt>
      <trkpt lat="44.14931" lon="5.87584">
        <ele>551</ele>
        <time>2022-09-22T07:29:10Z</time>
      </trkpt>
      <trkpt lat="44.1493" lon="5.87584">
        <ele>551</ele>
        <time>2022-09-22T07:29:11Z</time>
      </trkpt>
      <trkpt lat="44.14929" lon="5.87584">
        <ele>551</ele>
        <time>2022-09-22T07:29:12Z</time>
      </trkpt>
      <trkpt lat="44.14928" lon="5.87585">
        <ele>551</ele>
        <time>2022-09-22T07:29:13Z</time>
      </trkpt>
      <trkpt lat="44.14926" lon="5.87585">
        <ele>551</ele>
        <time>2022-09-22T07:29:14Z</time>
      </trkpt>
      <trkpt lat="44.14925" lon="5.87585">
        <ele>551</ele>
        <time>2022-09-22T07:29:15Z</time>
      </trkpt>
      <trkpt lat="44.14924" lon="5.87586">
        <ele>551</ele>
        <time>2022-09-22T07:29:16Z</time>
      </trkpt>
      <trkpt lat="44.14923" lon="5.87586">
        <ele>551</ele>
        <time>2022-09-22T07:29:17Z</time>
      </trkpt>
      <trkpt lat="44.14922" lon="5.87587">
        <ele>551</ele>
        <time>2022-09-22T07:29:18Z</time>
      </trkpt>
      <trkpt lat="44.14921" lon="5.87587">
        <ele>552</ele>
        <time>2022-09-22T07:29:19Z</time>
      </trkpt>
      <trkpt lat="44.1492" lon="5.87588">
        <ele>552</ele>
        <time>2022-09-22T07:29:20Z</time>
      </trkpt>
      <trkpt lat="44.14919" lon="5.87588">
        <ele>552</ele>
        <time>2022-09-22T07:29:21Z</time>
      </trkpt>
      <trkpt lat="44.14918" lon="5.87589">
        <ele>552</ele>
        <time>2022-09-22T07:29:22Z</time>
      </trkpt>
      <trkpt lat="44.14917" lon="5.87589">
        <ele>552</ele>
        <time>2022-09-22T07:29:23Z</time>
      </trkpt>
      <trkpt lat="44.14916" lon="5.8759">
        <ele>552</ele>
        <time>2022-09-22T07:29:24Z</time>
      </trkpt>
      <trkpt lat="44.14915" lon="5.8759">
        <ele>552</ele>
        <time>2022-09-22T07:29:25Z</time>
      </trkpt>
      <trkpt lat="44.14914" lon="5.87591">
        <ele>552</ele>
        <time>2022-09-22T07:29:26Z</time>
      </trkpt>
      <trkpt lat="44.14914" lon="5.87592">
        <ele>552</ele>
        <time>2022-09-22T07:29:27Z</time>
      </trkpt>
      <trkpt lat="44.14913" lon="5.87592">
        <ele>552</ele>
        <time>2022-09-22T07:29:28Z</time>
      </trkpt>
      <trkpt lat="44.14912" lon="5.87593">
        <ele>552</ele>
        <time>2022-09-22T07:29:29Z</time>
      </trkpt>
      <trkpt lat="44.14911" lon="5.87593">
        <ele>552</ele>
        <time>2022-09-22T07:29:30Z</time>
      </trkpt>
      <trkpt lat="44.1491" lon="5.87594">
        <ele>552</ele>
        <time>2022-09-22T07:29:31Z</time>
      </trkpt>
      <trkpt lat="44.14909" lon="5.87594">
        <ele>552</ele>
        <time>2022-09-22T07:29:32Z</time>
      </trkpt>
      <trkpt lat="44.14908" lon="5.87595">
        <ele>552</ele>
        <time>2022-09-22T07:29:33Z</time>
      </trkpt>
      <trkpt lat="44.14908" lon="5.87595">
        <ele>553</ele>
        <time>2022-09-22T07:29:34Z</time>
      </trkpt>
      <trkpt lat="44.14907" lon="5.87596">
        <ele>553</ele>
        <time>2022-09-22T07:29:35Z</time>
      </trkpt>
      <trkpt lat="44.14906" lon="5.87596">
        <ele>553</ele>
        <time>2022-09-22T07:29:36Z</time>
      </trkpt>
      <trkpt lat="44.14905" lon="5.87597">
        <ele>553</ele>
        <time>2022-09-22T07:29:37Z</time>
      </trkpt>
      <trkpt lat="44.14904" lon="5.87597">
        <ele>553</ele>
        <time>2022-09-22T07:29:38Z</time>
      </trkpt>
      <trkpt lat="44.14904" lon="5.87598">
        <ele>553</ele>
        <time>2022-09-22T07:29:39Z</time>
      </trkpt>
      <trkpt lat="44.14903" lon="5.87598">
        <ele>553</ele>
        <time>2022-09-22T07:29:40Z</time>
      </trkpt>
      <trkpt lat="44.14902" lon="5.87599">
        <ele>553</ele>
        <time>2022-09-22T07:29:41Z</time>
      </trkpt>
      <trkpt lat="44.14901" lon="5.87599">
        <ele>553</ele>
        <time>2022-09-22T07:29:42Z</time>
      </trkpt>
      <trkpt lat="44.149" lon="5.876">
        <ele>553</ele>
        <time>2022-09-22T07:29:43Z</time>
      </trkpt>
      <trkpt lat="44.14899" lon="5.87601">
        <ele>554</ele>
        <time>2022-09-22T07:29:44Z</time>
      </trkpt>
      <trkpt lat="44.14899" lon="5.87601">
        <ele>554</ele>
        <time>2022-09-22T07:29:45Z</time>
      </trkpt>
      <trkpt lat="44.14898" lon="5.87602">
        <ele>554</ele>
        <time>2022-09-22T07:29:46Z</time>
      </trkpt>
      <trkpt lat="44.14897" lon="5.87603">
        <ele>554</ele>
        <time>2022-09-22T07:29:47Z</time>
      </trkpt>
      <trkpt lat="44.14896" lon="5.87603">
        <ele>554</ele>
        <time>2022-09-22T07:29:48Z</time>
      </trkpt>
      <trkpt lat="44.14896" lon="5.87604">
        <ele>554</ele>
        <time>2022-09-22T07:29:49Z</time>
      </trkpt>
      <trkpt lat="44.14895" lon="5.87604">
        <ele>554</ele>
        <time>2022-09-22T07:29:50Z</time>
      </trkpt>
      <trkpt lat="44.14894" lon="5.87605">
        <ele>554</ele>
        <time>2022-09-22T07:29:51Z</time>
      </trkpt>
      <trkpt lat="44.14893" lon="5.87606">
        <ele>554</ele>
        <time>2022-09-22T07:29:52Z</time>
      </trkpt>
      <trkpt lat="44.14892" lon="5.87606">
        <ele>554</ele>
        <time>2022-09-22T07:29:53Z</time>
      </trkpt>
      <trkpt lat="44.14891" lon="5.87606">
        <ele>554</ele>
        <time>2022-09-22T07:29:54Z</time>
      </trkpt>
      <trkpt lat="44.1489" lon="5.87607">
        <ele>554</ele>
        <time>2022-09-22T07:29:55Z</time>
      </trkpt>
      <trkpt lat="44.14889" lon="5.87608">
        <ele>554</ele>
        <time>2022-09-22T07:29:56Z</time>
      </trkpt>
      <trkpt lat="44.14888" lon="5.87608">
        <ele>554</ele>
        <time>2022-09-22T07:29:57Z</time>
      </trkpt>
      <trkpt lat="44.14887" lon="5.87609">
        <ele>554</ele>
        <time>2022-09-22T07:29:58Z</time>
      </trkpt>
      <trkpt lat="44.14886" lon="5.8761">
        <ele>554</ele>
        <time>2022-09-22T07:29:59Z</time>
      </trkpt>
      <trkpt lat="44.14885" lon="5.8761">
        <ele>554</ele>
        <time>2022-09-22T07:30:00Z</time>
      </trkpt>
      <trkpt lat="44.14884" lon="5.87611">
        <ele>554</ele>
        <time>2022-09-22T07:30:01Z</time>
      </trkpt>
      <trkpt lat="44.14883" lon="5.87611">
        <ele>554</ele>
        <time>2022-09-22T07:30:02Z</time>
      </trkpt>
      <trkpt lat="44.14882" lon="5.87612">
        <ele>554</ele>
        <time>2022-09-22T07:30:03Z</time>
      </trkpt>
      <trkpt lat="44.14881" lon="5.87612">
        <ele>555</ele>
        <time>2022-09-22T07:30:04Z</time>
      </trkpt>
      <trkpt lat="44.1488" lon="5.87612">
        <ele>555</ele>
        <time>2022-09-22T07:30:05Z</time>
      </trkpt>
      <trkpt lat="44.14879" lon="5.87612">
        <ele>555</ele>
        <time>2022-09-22T07:30:06Z</time>
      </trkpt>
      <trkpt lat="44.14878" lon="5.87612">
        <ele>555</ele>
        <time>2022-09-22T07:30:07Z</time>
      </trkpt>
      <trkpt lat="44.14877" lon="5.87612">
        <ele>555</ele>
        <time>2022-09-22T07:30:08Z</time>
      </trkpt>
      <trkpt lat="44.14876" lon="5.87612">
        <ele>555</ele>
        <time>2022-09-22T07:30:09Z</time>
      </trkpt>
      <trkpt lat="44.14875" lon="5.87613">
        <ele>555</ele>
        <time>2022-09-22T07:30:10Z</time>
      </trkpt>
      <trkpt lat="44.14874" lon="5.87613">
        <ele>555</ele>
        <time>2022-09-22T07:30:11Z</time>
      </trkpt>
      <trkpt lat="44.14873" lon="5.87613">
        <ele>555</ele>
        <time>2022-09-22T07:30:12Z</time>
      </trkpt>
      <trkpt lat="44.14872" lon="5.87613">
        <ele>555</ele>
        <time>2022-09-22T07:30:13Z</time>
      </trkpt>
      <trkpt lat="44.1487" lon="5.87614">
        <ele>555</ele>
        <time>2022-09-22T07:30:14Z</time>
      </trkpt>
      <trkpt lat="44.14869" lon="5.87614">
        <ele>555</ele>
        <time>2022-09-22T07:30:15Z</time>
      </trkpt>
      <trkpt lat="44.14868" lon="5.87614">
        <ele>555</ele>
        <time>2022-09-22T07:30:16Z</time>
      </trkpt>
      <trkpt lat="44.14867" lon="5.87615">
        <ele>555</ele>
        <time>2022-09-22T07:30:17Z</time>
      </trkpt>
      <trkpt lat="44.14866" lon="5.87615">
        <ele>555</ele>
        <time>2022-09-22T07:30:18Z</time>
      </trkpt>
      <trkpt lat="44.14865" lon="5.87616">
        <ele>555</ele>
        <time>2022-09-22T07:30:19Z</time>
      </trkpt>
      <trkpt lat="44.14864" lon="5.87616">
        <ele>555</ele>
        <time>2022-09-22T07:30:20Z</time>
      </trkpt>
      <trkpt lat="44.14863" lon="5.87616">
        <ele>555</ele>
        <time>2022-09-22T07:30:21Z</time>
      </trkpt>
      <trkpt lat="44.14862" lon="5.87617">
        <ele>555</ele>
        <time>2022-09-22T07:30:22Z</time>
      </trkpt>
      <trkpt lat="44.14861" lon="5.87617">
        <ele>555</ele>
        <time>2022-09-22T07:30:23Z</time>
      </trkpt>
      <trkpt lat="44.1486" lon="5.87617">
        <ele>556</ele>
        <time>2022-09-22T07:30:24Z</time>
      </trkpt>
      <trkpt lat="44.14859" lon="5.87617">
        <ele>556</ele>
        <time>2022-09-22T07:30:25Z</time>
      </trkpt>
      <trkpt lat="44.14858" lon="5.87618">
        <ele>556</ele>
        <time>2022-09-22T07:30:26Z</time>
      </trkpt>
      <trkpt lat="44.14857" lon="5.87618">
        <ele>556</ele>
        <time>2022-09-22T07:30:27Z</time>
      </trkpt>
      <trkpt lat="44.14857" lon="5.87618">
        <ele>556</ele>
        <time>2022-09-22T07:30:28Z</time>
      </trkpt>
      <trkpt lat="44.14856" lon="5.87619">
        <ele>556</ele>
        <time>2022-09-22T07:30:29Z</time>
      </trkpt>
      <trkpt lat="44.14855" lon="5.87619">
        <ele>556</ele>
        <time>2022-09-22T07:30:35Z</time>
      </trkpt>
      <trkpt lat="44.14854" lon="5.87619">
        <ele>556</ele>
        <time>2022-09-22T07:30:36Z</time>
      </trkpt>
      <trkpt lat="44.14854" lon="5.8762">
        <ele>556</ele>
        <time>2022-09-22T07:30:37Z</time>
      </trkpt>
      <trkpt lat="44.14853" lon="5.8762">
        <ele>556</ele>
        <time>2022-09-22T07:30:38Z</time>
      </trkpt>
      <trkpt lat="44.14852" lon="5.8762">
        <ele>557</ele>
        <time>2022-09-22T07:30:39Z</time>
      </trkpt>
      <trkpt lat="44.14851" lon="5.87621">
        <ele>557</ele>
        <time>2022-09-22T07:30:40Z</time>
      </trkpt>
      <trkpt lat="44.14851" lon="5.87621">
        <ele>557</ele>
        <time>2022-09-22T07:30:41Z</time>
      </trkpt>
      <trkpt lat="44.1485" lon="5.87622">
        <ele>557</ele>
        <time>2022-09-22T07:30:42Z</time>
      </trkpt>
      <trkpt lat="44.14849" lon="5.87622">
        <ele>557</ele>
        <time>2022-09-22T07:30:43Z</time>
      </trkpt>
      <trkpt lat="44.14848" lon="5.87622">
        <ele>557</ele>
        <time>2022-09-22T07:30:44Z</time>
      </trkpt>
      <trkpt lat="44.14847" lon="5.87623">
        <ele>557</ele>
        <time>2022-09-22T07:30:45Z</time>
      </trkpt>
      <trkpt lat="44.14846" lon="5.87623">
        <ele>557</ele>
        <time>2022-09-22T07:30:46Z</time>
      </trkpt>
      <trkpt lat="44.14845" lon="5.87623">
        <ele>557</ele>
        <time>2022-09-22T07:30:47Z</time>
      </trkpt>
      <trkpt lat="44.14844" lon="5.87623">
        <ele>557</ele>
        <time>2022-09-22T07:30:48Z</time>
      </trkpt>
      <trkpt lat="44.14843" lon="5.87623">
        <ele>557</ele>
        <time>2022-09-22T07:30:49Z</time>
      </trkpt>
      <trkpt lat="44.14842" lon="5.87624">
        <ele>557</ele>
        <time>2022-09-22T07:30:50Z</time>
      </trkpt>
      <trkpt lat="44.14841" lon="5.87624">
        <ele>557</ele>
        <time>2022-09-22T07:30:51Z</time>
      </trkpt>
      <trkpt lat="44.1484" lon="5.87624">
        <ele>557</ele>
        <time>2022-09-22T07:30:52Z</time>
      </trkpt>
      <trkpt lat="44.14839" lon="5.87625">
        <ele>557</ele>
        <time>2022-09-22T07:30:53Z</time>
      </trkpt>
      <trkpt lat="44.14838" lon="5.87625">
        <ele>557</ele>
        <time>2022-09-22T07:30:54Z</time>
      </trkpt>
      <trkpt lat="44.14837" lon="5.87625">
        <ele>557</ele>
        <time>2022-09-22T07:30:55Z</time>
      </trkpt>
      <trkpt lat="44.14836" lon="5.87625">
        <ele>557</ele>
        <time>2022-09-22T07:30:56Z</time>
      </trkpt>
      <trkpt lat="44.14835" lon="5.87625">
        <ele>557</ele>
        <time>2022-09-22T07:30:57Z</time>
      </trkpt>
      <trkpt lat="44.14834" lon="5.87625">
        <ele>557</ele>
        <time>2022-09-22T07:30:58Z</time>
      </trkpt>
      <trkpt lat="44.14833" lon="5.87625">
        <ele>558</ele>
        <time>2022-09-22T07:30:59Z</time>
      </trkpt>
      <trkpt lat="44.14832" lon="5.87625">
        <ele>558</ele>
        <time>2022-09-22T07:31:00Z</time>
      </trkpt>
      <trkpt lat="44.14831" lon="5.87625">
        <ele>558</ele>
        <time>2022-09-22T07:31:01Z</time>
      </trkpt>
      <trkpt lat="44.1483" lon="5.87625">
        <ele>558</ele>
        <time>2022-09-22T07:31:02Z</time>
      </trkpt>
      <trkpt lat="44.14829" lon="5.87625">
        <ele>558</ele>
        <time>2022-09-22T07:31:03Z</time>
      </trkpt>
      <trkpt lat="44.14828" lon="5.87625">
        <ele>558</ele>
        <time>2022-09-22T07:31:04Z</time>
      </trkpt>
      <trkpt lat="44.14826" lon="5.87625">
        <ele>558</ele>
        <time>2022-09-22T07:31:05Z</time>
      </trkpt>
      <trkpt lat="44.14825" lon="5.87624">
        <ele>558</ele>
        <time>2022-09-22T07:31:06Z</time>
      </trkpt>
      <trkpt lat="44.14824" lon="5.87624">
        <ele>558</ele>
        <time>2022-09-22T07:31:07Z</time>
      </trkpt>
      <trkpt lat="44.14823" lon="5.87623">
        <ele>558</ele>
        <time>2022-09-22T07:31:08Z</time>
      </trkpt>
      <trkpt lat="44.14822" lon="5.87622">
        <ele>559</ele>
        <time>2022-09-22T07:31:09Z</time>
      </trkpt>
      <trkpt lat="44.14821" lon="5.87621">
        <ele>559</ele>
        <time>2022-09-22T07:31:10Z</time>
      </trkpt>
      <trkpt lat="44.1482" lon="5.8762">
        <ele>559</ele>
        <time>2022-09-22T07:31:11Z</time>
      </trkpt>
      <trkpt lat="44.1482" lon="5.87619">
        <ele>559</ele>
        <time>2022-09-22T07:31:12Z</time>
      </trkpt>
      <trkpt lat="44.1482" lon="5.87618">
        <ele>559</ele>
        <time>2022-09-22T07:31:13Z</time>
      </trkpt>
      <trkpt lat="44.14819" lon="5.87617">
        <ele>559</ele>
        <time>2022-09-22T07:31:14Z</time>
      </trkpt>
      <trkpt lat="44.14819" lon="5.87616">
        <ele>559</ele>
        <time>2022-09-22T07:31:15Z</time>
      </trkpt>
      <trkpt lat="44.14819" lon="5.87614">
        <ele>559</ele>
        <time>2022-09-22T07:31:16Z</time>
      </trkpt>
      <trkpt lat="44.14819" lon="5.87613">
        <ele>559</ele>
        <time>2022-09-22T07:31:17Z</time>
      </trkpt>
      <trkpt lat="44.1482" lon="5.87611">
        <ele>559</ele>
        <time>2022-09-22T07:31:18Z</time>
      </trkpt>
      <trkpt lat="44.1482" lon="5.8761">
        <ele>560</ele>
        <time>2022-09-22T07:31:19Z</time>
      </trkpt>
      <trkpt lat="44.14821" lon="5.87609">
        <ele>560</ele>
        <time>2022-09-22T07:31:20Z</time>
      </trkpt>
      <trkpt lat="44.14821" lon="5.87607">
        <ele>560</ele>
        <time>2022-09-22T07:31:21Z</time>
      </trkpt>
      <trkpt lat="44.14822" lon="5.87606">
        <ele>560</ele>
        <time>2022-09-22T07:31:22Z</time>
      </trkpt>
      <trkpt lat="44.14823" lon="5.87605">
        <ele>560</ele>
        <time>2022-09-22T07:31:23Z</time>
      </trkpt>
      <trkpt lat="44.14824" lon="5.87605">
        <ele>561</ele>
        <time>2022-09-22T07:31:24Z</time>
      </trkpt>
      <trkpt lat="44.14825" lon="5.87604">
        <ele>561</ele>
        <time>2022-09-22T07:31:25Z</time>
      </trkpt>
      <trkpt lat="44.14826" lon="5.87604">
        <ele>561</ele>
        <time>2022-09-22T07:31:26Z</time>
      </trkpt>
      <trkpt lat="44.14827" lon="5.87603">
        <ele>561</ele>
        <time>2022-09-22T07:31:27Z</time>
      </trkpt>
      <trkpt lat="44.14828" lon="5.87603">
        <ele>561</ele>
        <time>2022-09-22T07:31:28Z</time>
      </trkpt>
      <trkpt lat="44.14829" lon="5.87602">
        <ele>561</ele>
        <time>2022-09-22T07:31:29Z</time>
      </trkpt>
      <trkpt lat="44.1483" lon="5.87602">
        <ele>561</ele>
        <time>2022-09-22T07:31:30Z</time>
      </trkpt>
      <trkpt lat="44.14831" lon="5.87601">
        <ele>561</ele>
        <time>2022-09-22T07:31:31Z</time>
      </trkpt>
      <trkpt lat="44.14832" lon="5.87601">
        <ele>561</ele>
        <time>2022-09-22T07:31:32Z</time>
      </trkpt>
      <trkpt lat="44.14833" lon="5.87601">
        <ele>561</ele>
        <time>2022-09-22T07:31:33Z</time>
      </trkpt>
      <trkpt lat="44.14834" lon="5.87601">
        <ele>562</ele>
        <time>2022-09-22T07:31:34Z</time>
      </trkpt>
      <trkpt lat="44.14835" lon="5.87601">
        <ele>562</ele>
        <time>2022-09-22T07:31:35Z</time>
      </trkpt>
      <trkpt lat="44.14836" lon="5.87601">
        <ele>562</ele>
        <time>2022-09-22T07:31:36Z</time>
      </trkpt>
      <trkpt lat="44.14837" lon="5.87601">
        <ele>562</ele>
        <time>2022-09-22T07:31:37Z</time>
      </trkpt>
      <trkpt lat="44.14838" lon="5.87601">
        <ele>562</ele>
        <time>2022-09-22T07:31:38Z</time>
      </trkpt>
      <trkpt lat="44.14839" lon="5.87601">
        <ele>562</ele>
        <time>2022-09-22T07:31:39Z</time>
      </trkpt>
      <trkpt lat="44.1484" lon="5.87601">
        <ele>562</ele>
        <time>2022-09-22T07:31:40Z</time>
      </trkpt>
      <trkpt lat="44.14841" lon="5.87602">
        <ele>562</ele>
        <time>2022-09-22T07:31:41Z</time>
      </trkpt>
      <trkpt lat="44.14841" lon="5.87602">
        <ele>562</ele>
        <time>2022-09-22T07:31:42Z</time>
      </trkpt>
      <trkpt lat="44.14842" lon="5.87602">
        <ele>562</ele>
        <time>2022-09-22T07:31:43Z</time>
      </trkpt>
      <trkpt lat="44.14843" lon="5.87602">
        <ele>563</ele>
        <time>2022-09-22T07:31:44Z</time>
      </trkpt>
      <trkpt lat="44.14844" lon="5.87601">
        <ele>563</ele>
        <time>2022-09-22T07:31:45Z</time>
      </trkpt>
      <trkpt lat="44.14845" lon="5.87601">
        <ele>563</ele>
        <time>2022-09-22T07:31:46Z</time>
      </trkpt>
      <trkpt lat="44.14846" lon="5.87601">
        <ele>563</ele>
        <time>2022-09-22T07:31:47Z</time>
      </trkpt>
      <trkpt lat="44.14847" lon="5.876">
        <ele>563</ele>
        <time>2022-09-22T07:31:48Z</time>
      </trkpt>
      <trkpt lat="44.14848" lon="5.876">
        <ele>563</ele>
        <time>2022-09-22T07:31:49Z</time>
      </trkpt>
      <trkpt lat="44.14849" lon="5.876">
        <ele>563</ele>
        <time>2022-09-22T07:31:50Z</time>
      </trkpt>
      <trkpt lat="44.1485" lon="5.87599">
        <ele>563</ele>
        <time>2022-09-22T07:31:51Z</time>
      </trkpt>
      <trkpt lat="44.14851" lon="5.87599">
        <ele>563</ele>
        <time>2022-09-22T07:31:52Z</time>
      </trkpt>
      <trkpt lat="44.14852" lon="5.87598">
        <ele>563</ele>
        <time>2022-09-22T07:31:53Z</time>
      </trkpt>
      <trkpt lat="44.14853" lon="5.87598">
        <ele>564</ele>
        <time>2022-09-22T07:31:54Z</time>
      </trkpt>
      <trkpt lat="44.14854" lon="5.87597">
        <ele>564</ele>
        <time>2022-09-22T07:31:55Z</time>
      </trkpt>
      <trkpt lat="44.14855" lon="5.87596">
        <ele>564</ele>
        <time>2022-09-22T07:31:56Z</time>
      </trkpt>
      <trkpt lat="44.14856" lon="5.87596">
        <ele>564</ele>
        <time>2022-09-22T07:31:57Z</time>
      </trkpt>
      <trkpt lat="44.14857" lon="5.87595">
        <ele>564</ele>
        <time>2022-09-22T07:31:58Z</time>
      </trkpt>
      <trkpt lat="44.14858" lon="5.87594">
        <ele>564</ele>
        <time>2022-09-22T07:31:59Z</time>
      </trkpt>
      <trkpt lat="44.14859" lon="5.87594">
        <ele>564</ele>
        <time>2022-09-22T07:32:00Z</time>
      </trkpt>
      <trkpt lat="44.1486" lon="5.87593">
        <ele>564</ele>
        <time>2022-09-22T07:32:01Z</time>
      </trkpt>
      <trkpt lat="44.14861" lon="5.87592">
        <ele>564</ele>
        <time>2022-09-22T07:32:02Z</time>
      </trkpt>
      <trkpt lat="44.14862" lon="5.87592">
        <ele>564</ele>
        <time>2022-09-22T07:32:03Z</time>
      </trkpt>
      <trkpt lat="44.14862" lon="5.87591">
        <ele>564</ele>
        <time>2022-09-22T07:32:04Z</time>
      </trkpt>
      <trkpt lat="44.14863" lon="5.8759">
        <ele>564</ele>
        <time>2022-09-22T07:32:05Z</time>
      </trkpt>
      <trkpt lat="44.14864" lon="5.8759">
        <ele>564</ele>
        <time>2022-09-22T07:32:06Z</time>
      </trkpt>
      <trkpt lat="44.14865" lon="5.87589">
        <ele>564</ele>
        <time>2022-09-22T07:32:07Z</time>
      </trkpt>
      <trkpt lat="44.14866" lon="5.87588">
        <ele>564</ele>
        <time>2022-09-22T07:32:08Z</time>
      </trkpt>
      <trkpt lat="44.14868" lon="5.87588">
        <ele>564</ele>
        <time>2022-09-22T07:32:09Z</time>
      </trkpt>
      <trkpt lat="44.14869" lon="5.87587">
        <ele>564</ele>
        <time>2022-09-22T07:32:10Z</time>
      </trkpt>
      <trkpt lat="44.1487" lon="5.87586">
        <ele>564</ele>
        <time>2022-09-22T07:32:11Z</time>
      </trkpt>
      <trkpt lat="44.14871" lon="5.87585">
        <ele>564</ele>
        <time>2022-09-22T07:32:12Z</time>
      </trkpt>
      <trkpt lat="44.14872" lon="5.87585">
        <ele>564</ele>
        <time>2022-09-22T07:32:13Z</time>
      </trkpt>
      <trkpt lat="44.14873" lon="5.87584">
        <ele>565</ele>
        <time>2022-09-22T07:32:14Z</time>
      </trkpt>
      <trkpt lat="44.14874" lon="5.87583">
        <ele>565</ele>
        <time>2022-09-22T07:32:15Z</time>
      </trkpt>
      <trkpt lat="44.14875" lon="5.87582">
        <ele>565</ele>
        <time>2022-09-22T07:32:16Z</time>
      </trkpt>
      <trkpt lat="44.14875" lon="5.87581">
        <ele>565</ele>
        <time>2022-09-22T07:32:17Z</time>
      </trkpt>
      <trkpt lat="44.14876" lon="5.87581">
        <ele>565</ele>
        <time>2022-09-22T07:32:18Z</time>
      </trkpt>
      <trkpt lat="44.14877" lon="5.8758">
        <ele>565</ele>
        <time>2022-09-22T07:32:19Z</time>
      </trkpt>
      <trkpt lat="44.14878" lon="5.87579">
        <ele>565</ele>
        <time>2022-09-22T07:32:20Z</time>
      </trkpt>
      <trkpt lat="44.14879" lon="5.87579">
        <ele>565</ele>
        <time>2022-09-22T07:32:21Z</time>
      </trkpt>
      <trkpt lat="44.1488" lon="5.87578">
        <ele>565</ele>
        <time>2022-09-22T07:32:22Z</time>
      </trkpt>
      <trkpt lat="44.1488" lon="5.87578">
        <ele>565</ele>
        <time>2022-09-22T07:32:23Z</time>
      </trkpt>
      <trkpt lat="44.14881" lon="5.87577">
        <ele>565</ele>
        <time>2022-09-22T07:32:24Z</time>
      </trkpt>
      <trkpt lat="44.14882" lon="5.87577">
        <ele>565</ele>
        <time>2022-09-22T07:32:25Z</time>
      </trkpt>
      <trkpt lat="44.14883" lon="5.87576">
        <ele>565</ele>
        <time>2022-09-22T07:32:26Z</time>
      </trkpt>
      <trkpt lat="44.14884" lon="5.87576">
        <ele>565</ele>
        <time>2022-09-22T07:32:27Z</time>
      </trkpt>
      <trkpt lat="44.14884" lon="5.87575">
        <ele>565</ele>
        <time>2022-09-22T07:32:28Z</time>
      </trkpt>
      <trkpt lat="44.14885" lon="5.87574">
        <ele>566</ele>
        <time>2022-09-22T07:32:29Z</time>
      </trkpt>
      <trkpt lat="44.14886" lon="5.87573">
        <ele>566</ele>
        <time>2022-09-22T07:32:30Z</time>
      </trkpt>
      <trkpt lat="44.14887" lon="5.87572">
        <ele>566</ele>
        <time>2022-09-22T07:32:31Z</time>
      </trkpt>
      <trkpt lat="44.14888" lon="5.87571">
        <ele>566</ele>
        <time>2022-09-22T07:32:32Z</time>
      </trkpt>
      <trkpt lat="44.14888" lon="5.8757">
        <ele>566</ele>
        <time>2022-09-22T07:32:33Z</time>
      </trkpt>
      <trkpt lat="44.14889" lon="5.87569">
        <ele>566</ele>
        <time>2022-09-22T07:32:34Z</time>
      </trkpt>
      <trkpt lat="44.1489" lon="5.87568">
        <ele>566</ele>
        <time>2022-09-22T07:32:35Z</time>
      </trkpt>
      <trkpt lat="44.14891" lon="5.87567">
        <ele>566</ele>
        <time>2022-09-22T07:32:36Z</time>
      </trkpt>
      <trkpt lat="44.14892" lon="5.87566">
        <ele>566</ele>
        <time>2022-09-22T07:32:37Z</time>
      </trkpt>
      <trkpt lat="44.14893" lon="5.87566">
        <ele>566</ele>
        <time>2022-09-22T07:32:38Z</time>
      </trkpt>
      <trkpt lat="44.14894" lon="5.87565">
        <ele>566</ele>
        <time>2022-09-22T07:32:39Z</time>
      </trkpt>
      <trkpt lat="44.14894" lon="5.87564">
        <ele>566</ele>
        <time>2022-09-22T07:32:40Z</time>
      </trkpt>
      <trkpt lat="44.14895" lon="5.87563">
        <ele>566</ele>
        <time>2022-09-22T07:32:41Z</time>
      </trkpt>
      <trkpt lat="44.14896" lon="5.87562">
        <ele>566</ele>
        <time>2022-09-22T07:32:42Z</time>
      </trkpt>
      <trkpt lat="44.14896" lon="5.87561">
        <ele>566</ele>
        <time>2022-09-22T07:32:43Z</time>
      </trkpt>
      <trkpt lat="44.14897" lon="5.8756">
        <ele>567</ele>
        <time>2022-09-22T07:32:44Z</time>
      </trkpt>
      <trkpt lat="44.14898" lon="5.87559">
        <ele>567</ele>
        <time>2022-09-22T07:32:45Z</time>
      </trkpt>
      <trkpt lat="44.14898" lon="5.87558">
        <ele>567</ele>
        <time>2022-09-22T07:32:46Z</time>
      </trkpt>
      <trkpt lat="44.14899" lon="5.87557">
        <ele>567</ele>
        <time>2022-09-22T07:32:47Z</time>
      </trkpt>
      <trkpt lat="44.149" lon="5.87556">
        <ele>567</ele>
        <time>2022-09-22T07:32:48Z</time>
      </trkpt>
      <trkpt lat="44.149" lon="5.87555">
        <ele>567</ele>
        <time>2022-09-22T07:32:49Z</time>
      </trkpt>
      <trkpt lat="44.14901" lon="5.87554">
        <ele>567</ele>
        <time>2022-09-22T07:32:50Z</time>
      </trkpt>
      <trkpt lat="44.14901" lon="5.87552">
        <ele>567</ele>
        <time>2022-09-22T07:32:51Z</time>
      </trkpt>
      <trkpt lat="44.14902" lon="5.87551">
        <ele>567</ele>
        <time>2022-09-22T07:32:52Z</time>
      </trkpt>
      <trkpt lat="44.14902" lon="5.8755">
        <ele>567</ele>
        <time>2022-09-22T07:32:53Z</time>
      </trkpt>
      <trkpt lat="44.14903" lon="5.87549">
        <ele>568</ele>
        <time>2022-09-22T07:32:54Z</time>
      </trkpt>
      <trkpt lat="44.14903" lon="5.87547">
        <ele>568</ele>
        <time>2022-09-22T07:32:55Z</time>
      </trkpt>
      <trkpt lat="44.14904" lon="5.87546">
        <ele>568</ele>
        <time>2022-09-22T07:32:56Z</time>
      </trkpt>
      <trkpt lat="44.14905" lon="5.87545">
        <ele>568</ele>
        <time>2022-09-22T07:32:57Z</time>
      </trkpt>
      <trkpt lat="44.14906" lon="5.87543">
        <ele>568</ele>
        <time>2022-09-22T07:32:58Z</time>
      </trkpt>
      <trkpt lat="44.14906" lon="5.87542">
        <ele>568</ele>
        <time>2022-09-22T07:32:59Z</time>
      </trkpt>
      <trkpt lat="44.14907" lon="5.87541">
        <ele>568</ele>
        <time>2022-09-22T07:33:00Z</time>
      </trkpt>
      <trkpt lat="44.14908" lon="5.8754">
        <ele>568</ele>
        <time>2022-09-22T07:33:01Z</time>
      </trkpt>
      <trkpt lat="44.14908" lon="5.87538">
        <ele>568</ele>
        <time>2022-09-22T07:33:02Z</time>
      </trkpt>
      <trkpt lat="44.14909" lon="5.87537">
        <ele>568</ele>
        <time>2022-09-22T07:33:03Z</time>
      </trkpt>
      <trkpt lat="44.1491" lon="5.87536">
        <ele>569</ele>
        <time>2022-09-22T07:33:04Z</time>
      </trkpt>
      <trkpt lat="44.1491" lon="5.87535">
        <ele>569</ele>
        <time>2022-09-22T07:33:05Z</time>
      </trkpt>
      <trkpt lat="44.14911" lon="5.87534">
        <ele>569</ele>
        <time>2022-09-22T07:33:06Z</time>
      </trkpt>
      <trkpt lat="44.14912" lon="5.87533">
        <ele>569</ele>
        <time>2022-09-22T07:33:07Z</time>
      </trkpt>
      <trkpt lat="44.14913" lon="5.87531">
        <ele>569</ele>
        <time>2022-09-22T07:33:08Z</time>
      </trkpt>
      <trkpt lat="44.14913" lon="5.8753">
        <ele>569</ele>
        <time>2022-09-22T07:33:09Z</time>
      </trkpt>
      <trkpt lat="44.14914" lon="5.87528">
        <ele>569</ele>
        <time>2022-09-22T07:33:10Z</time>
      </trkpt>
      <trkpt lat="44.14914" lon="5.87527">
        <ele>569</ele>
        <time>2022-09-22T07:33:11Z</time>
      </trkpt>
      <trkpt lat="44.14915" lon="5.87525">
        <ele>569</ele>
        <time>2022-09-22T07:33:12Z</time>
      </trkpt>
      <trkpt lat="44.14915" lon="5.87524">
        <ele>569</ele>
        <time>2022-09-22T07:33:13Z</time>
      </trkpt>
      <trkpt lat="44.14916" lon="5.87522">
        <ele>569</ele>
        <time>2022-09-22T07:33:14Z</time>
      </trkpt>
      <trkpt lat="44.14917" lon="5.87521">
        <ele>569</ele>
        <time>2022-09-22T07:33:15Z</time>
      </trkpt>
      <trkpt lat="44.14917" lon="5.87519">
        <ele>569</ele>
        <time>2022-09-22T07:33:16Z</time>
      </trkpt>
      <trkpt lat="44.14918" lon="5.87517">
        <ele>569</ele>
        <time>2022-09-22T07:33:17Z</time>
      </trkpt>
      <trkpt lat="44.14918" lon="5.87516">
        <ele>569</ele>
        <time>2022-09-22T07:33:18Z</time>
      </trkpt>
      <trkpt lat="44.14919" lon="5.87514">
        <ele>570</ele>
        <time>2022-09-22T07:33:19Z</time>
      </trkpt>
      <trkpt lat="44.14919" lon="5.87513">
        <ele>570</ele>
        <time>2022-09-22T07:33:20Z</time>
      </trkpt>
      <trkpt lat="44.14919" lon="5.87511">
        <ele>570</ele>
        <time>2022-09-22T07:33:21Z</time>
      </trkpt>
      <trkpt lat="44.1492" lon="5.8751">
        <ele>570</ele>
        <time>2022-09-22T07:33:22Z</time>
      </trkpt>
      <trkpt lat="44.1492" lon="5.87508">
        <ele>570</ele>
        <time>2022-09-22T07:33:23Z</time>
      </trkpt>
      <trkpt lat="44.14921" lon="5.87507">
        <ele>570</ele>
        <time>2022-09-22T07:33:24Z</time>
      </trkpt>
      <trkpt lat="44.14921" lon="5.87505">
        <ele>570</ele>
        <time>2022-09-22T07:33:25Z</time>
      </trkpt>
      <trkpt lat="44.14922" lon="5.87504">
        <ele>570</ele>
        <time>2022-09-22T07:33:26Z</time>
      </trkpt>
      <trkpt lat="44.14922" lon="5.87502">
        <ele>570</ele>
        <time>2022-09-22T07:33:27Z</time>
      </trkpt>
      <trkpt lat="44.14923" lon="5.87501">
        <ele>570</ele>
        <time>2022-09-22T07:33:28Z</time>
      </trkpt>
      <trkpt lat="44.14923" lon="5.87499">
        <ele>571</ele>
        <time>2022-09-22T07:33:29Z</time>
      </trkpt>
      <trkpt lat="44.14924" lon="5.87497">
        <ele>571</ele>
        <time>2022-09-22T07:33:30Z</time>
      </trkpt>
      <trkpt lat="44.14924" lon="5.87496">
        <ele>571</ele>
        <time>2022-09-22T07:33:31Z</time>
      </trkpt>
      <trkpt lat="44.14925" lon="5.87494">
        <ele>571</ele>
        <time>2022-09-22T07:33:32Z</time>
      </trkpt>
      <trkpt lat="44.14925" lon="5.87493">
        <ele>571</ele>
        <time>2022-09-22T07:33:33Z</time>
      </trkpt>
      <trkpt lat="44.14926" lon="5.87491">
        <ele>571</ele>
        <time>2022-09-22T07:33:34Z</time>
      </trkpt>
      <trkpt lat="44.14926" lon="5.87489">
        <ele>571</ele>
        <time>2022-09-22T07:33:35Z</time>
      </trkpt>
      <trkpt lat="44.14927" lon="5.87488">
        <ele>571</ele>
        <time>2022-09-22T07:33:36Z</time>
      </trkpt>
      <trkpt lat="44.14927" lon="5.87486">
        <ele>571</ele>
        <time>2022-09-22T07:33:37Z</time>
      </trkpt>
      <trkpt lat="44.14928" lon="5.87485">
        <ele>571</ele>
        <time>2022-09-22T07:33:38Z</time>
      </trkpt>
      <trkpt lat="44.14929" lon="5.87483">
        <ele>571</ele>
        <time>2022-09-22T07:33:39Z</time>
      </trkpt>
      <trkpt lat="44.14929" lon="5.87482">
        <ele>571</ele>
        <time>2022-09-22T07:33:40Z</time>
      </trkpt>
      <trkpt lat="44.1493" lon="5.8748">
        <ele>571</ele>
        <time>2022-09-22T07:33:41Z</time>
      </trkpt>
      <trkpt lat="44.1493" lon="5.87479">
        <ele>571</ele>
        <time>2022-09-22T07:33:42Z</time>
      </trkpt>
      <trkpt lat="44.14931" lon="5.87477">
        <ele>571</ele>
        <time>2022-09-22T07:33:43Z</time>
      </trkpt>
      <trkpt lat="44.14932" lon="5.87476">
        <ele>572</ele>
        <time>2022-09-22T07:33:44Z</time>
      </trkpt>
      <trkpt lat="44.14932" lon="5.87475">
        <ele>572</ele>
        <time>2022-09-22T07:33:45Z</time>
      </trkpt>
      <trkpt lat="44.14933" lon="5.87474">
        <ele>572</ele>
        <time>2022-09-22T07:33:46Z</time>
      </trkpt>
      <trkpt lat="44.14934" lon="5.87472">
        <ele>572</ele>
        <time>2022-09-22T07:33:47Z</time>
      </trkpt>
      <trkpt lat="44.14935" lon="5.87471">
        <ele>572</ele>
        <time>2022-09-22T07:33:48Z</time>
      </trkpt>
      <trkpt lat="44.14935" lon="5.8747">
        <ele>572</ele>
        <time>2022-09-22T07:33:49Z</time>
      </trkpt>
      <trkpt lat="44.14936" lon="5.87469">
        <ele>572</ele>
        <time>2022-09-22T07:33:50Z</time>
      </trkpt>
      <trkpt lat="44.14937" lon="5.87468">
        <ele>572</ele>
        <time>2022-09-22T07:33:51Z</time>
      </trkpt>
      <trkpt lat="44.14938" lon="5.87467">
        <ele>572</ele>
        <time>2022-09-22T07:33:52Z</time>
      </trkpt>
      <trkpt lat="44.14939" lon="5.87465">
        <ele>572</ele>
        <time>2022-09-22T07:33:53Z</time>
      </trkpt>
      <trkpt lat="44.1494" lon="5.87464">
        <ele>572</ele>
        <time>2022-09-22T07:33:54Z</time>
      </trkpt>
      <trkpt lat="44.14941" lon="5.87463">
        <ele>572</ele>
        <time>2022-09-22T07:33:55Z</time>
      </trkpt>
      <trkpt lat="44.14942" lon="5.87462">
        <ele>572</ele>
        <time>2022-09-22T07:33:56Z</time>
      </trkpt>
      <trkpt lat="44.14942" lon="5.87461">
        <ele>572</ele>
        <time>2022-09-22T07:33:57Z</time>
      </trkpt>
      <trkpt lat="44.14943" lon="5.8746">
        <ele>572</ele>
        <time>2022-09-22T07:33:58Z</time>
      </trkpt>
      <trkpt lat="44.14944" lon="5.87459">
        <ele>572</ele>
        <time>2022-09-22T07:33:59Z</time>
      </trkpt>
      <trkpt lat="44.14945" lon="5.87458">
        <ele>572</ele>
        <time>2022-09-22T07:34:00Z</time>
      </trkpt>
      <trkpt lat="44.14946" lon="5.87457">
        <ele>572</ele>
        <time>2022-09-22T07:34:01Z</time>
      </trkpt>
      <trkpt lat="44.14947" lon="5.87456">
        <ele>572</ele>
        <time>2022-09-22T07:34:02Z</time>
      </trkpt>
      <trkpt lat="44.14948" lon="5.87455">
        <ele>572</ele>
        <time>2022-09-22T07:34:03Z</time>
      </trkpt>
      <trkpt lat="44.14949" lon="5.87454">
        <ele>573</ele>
        <time>2022-09-22T07:34:04Z</time>
      </trkpt>
      <trkpt lat="44.1495" lon="5.87454">
        <ele>573</ele>
        <time>2022-09-22T07:34:05Z</time>
      </trkpt>
      <trkpt lat="44.14951" lon="5.87453">
        <ele>573</ele>
        <time>2022-09-22T07:34:06Z</time>
      </trkpt>
      <trkpt lat="44.14952" lon="5.87452">
        <ele>573</ele>
        <time>2022-09-22T07:34:07Z</time>
      </trkpt>
      <trkpt lat="44.14953" lon="5.87451">
        <ele>573</ele>
        <time>2022-09-22T07:34:08Z</time>
      </trkpt>
      <trkpt lat="44.14954" lon="5.8745">
        <ele>573</ele>
        <time>2022-09-22T07:34:09Z</time>
      </trkpt>
      <trkpt lat="44.14954" lon="5.87449">
        <ele>573</ele>
        <time>2022-09-22T07:34:10Z</time>
      </trkpt>
      <trkpt lat="44.14955" lon="5.87448">
        <ele>573</ele>
        <time>2022-09-22T07:34:11Z</time>
      </trkpt>
      <trkpt lat="44.14956" lon="5.87447">
        <ele>573</ele>
        <time>2022-09-22T07:34:12Z</time>
      </trkpt>
      <trkpt lat="44.14957" lon="5.87446">
        <ele>573</ele>
        <time>2022-09-22T07:34:13Z</time>
      </trkpt>
      <trkpt lat="44.14958" lon="5.87445">
        <ele>574</ele>
        <time>2022-09-22T07:34:14Z</time>
      </trkpt>
      <trkpt lat="44.14959" lon="5.87444">
        <ele>574</ele>
        <time>2022-09-22T07:34:15Z</time>
      </trkpt>
      <trkpt lat="44.1496" lon="5.87443">
        <ele>574</ele>
        <time>2022-09-22T07:34:16Z</time>
      </trkpt>
      <trkpt lat="44.14961" lon="5.87442">
        <ele>574</ele>
        <time>2022-09-22T07:34:17Z</time>
      </trkpt>
      <trkpt lat="44.14962" lon="5.87441">
        <ele>574</ele>
        <time>2022-09-22T07:34:18Z</time>
      </trkpt>
      <trkpt lat="44.14963" lon="5.87441">
        <ele>574</ele>
        <time>2022-09-22T07:34:19Z</time>
      </trkpt>
      <trkpt lat="44.14963" lon="5.8744">
        <ele>574</ele>
        <time>2022-09-22T07:34:20Z</time>
      </trkpt>
      <trkpt lat="44.14964" lon="5.87439">
        <ele>574</ele>
        <time>2022-09-22T07:34:21Z</time>
      </trkpt>
      <trkpt lat="44.14965" lon="5.87438">
        <ele>574</ele>
        <time>2022-09-22T07:34:22Z</time>
      </trkpt>
      <trkpt lat="44.14966" lon="5.87437">
        <ele>574</ele>
        <time>2022-09-22T07:34:23Z</time>
      </trkpt>
      <trkpt lat="44.14966" lon="5.87436">
        <ele>574</ele>
        <time>2022-09-22T07:34:24Z</time>
      </trkpt>
      <trkpt lat="44.14967" lon="5.87435">
        <ele>574</ele>
        <time>2022-09-22T07:34:25Z</time>
      </trkpt>
      <trkpt lat="44.14968" lon="5.87434">
        <ele>574</ele>
        <time>2022-09-22T07:34:26Z</time>
      </trkpt>
      <trkpt lat="44.14968" lon="5.87434">
        <ele>574</ele>
        <time>2022-09-22T07:34:27Z</time>
      </trkpt>
      <trkpt lat="44.14969" lon="5.87433">
        <ele>574</ele>
        <time>2022-09-22T07:34:28Z</time>
      </trkpt>
      <trkpt lat="44.1497" lon="5.87432">
        <ele>575</ele>
        <time>2022-09-22T07:34:29Z</time>
      </trkpt>
      <trkpt lat="44.1497" lon="5.87431">
        <ele>575</ele>
        <time>2022-09-22T07:34:30Z</time>
      </trkpt>
      <trkpt lat="44.14971" lon="5.8743">
        <ele>575</ele>
        <time>2022-09-22T07:34:31Z</time>
      </trkpt>
      <trkpt lat="44.14972" lon="5.87429">
        <ele>575</ele>
        <time>2022-09-22T07:34:32Z</time>
      </trkpt>
      <trkpt lat="44.14973" lon="5.87428">
        <ele>575</ele>
        <time>2022-09-22T07:34:33Z</time>
      </trkpt>
      <trkpt lat="44.14973" lon="5.87427">
        <ele>575</ele>
        <time>2022-09-22T07:34:34Z</time>
      </trkpt>
      <trkpt lat="44.14974" lon="5.87426">
        <ele>575</ele>
        <time>2022-09-22T07:34:35Z</time>
      </trkpt>
      <trkpt lat="44.14975" lon="5.87425">
        <ele>575</ele>
        <time>2022-09-22T07:34:36Z</time>
      </trkpt>
      <trkpt lat="44.14975" lon="5.87424">
        <ele>575</ele>
        <time>2022-09-22T07:34:37Z</time>
      </trkpt>
      <trkpt lat="44.14976" lon="5.87422">
        <ele>575</ele>
        <time>2022-09-22T07:34:38Z</time>
      </trkpt>
      <trkpt lat="44.14977" lon="5.87421">
        <ele>576</ele>
        <time>2022-09-22T07:34:39Z</time>
      </trkpt>
      <trkpt lat="44.14977" lon="5.8742">
        <ele>576</ele>
        <time>2022-09-22T07:34:40Z</time>
      </trkpt>
      <trkpt lat="44.14978" lon="5.87419">
        <ele>576</ele>
        <time>2022-09-22T07:34:41Z</time>
      </trkpt>
      <trkpt lat="44.14979" lon="5.87418">
        <ele>576</ele>
        <time>2022-09-22T07:34:42Z</time>
      </trkpt>
      <trkpt lat="44.14979" lon="5.87417">
        <ele>576</ele>
        <time>2022-09-22T07:34:43Z</time>
      </trkpt>
      <trkpt lat="44.1498" lon="5.87416">
        <ele>576</ele>
        <time>2022-09-22T07:34:44Z</time>
      </trkpt>
      <trkpt lat="44.14981" lon="5.87415">
        <ele>576</ele>
        <time>2022-09-22T07:34:45Z</time>
      </trkpt>
      <trkpt lat="44.14981" lon="5.87414">
        <ele>576</ele>
        <time>2022-09-22T07:34:46Z</time>
      </trkpt>
      <trkpt lat="44.14982" lon="5.87413">
        <ele>576</ele>
        <time>2022-09-22T07:34:47Z</time>
      </trkpt>
      <trkpt lat="44.14982" lon="5.87412">
        <ele>576</ele>
        <time>2022-09-22T07:34:48Z</time>
      </trkpt>
      <trkpt lat="44.14983" lon="5.8741">
        <ele>576</ele>
        <time>2022-09-22T07:34:49Z</time>
      </trkpt>
      <trkpt lat="44.14983" lon="5.87409">
        <ele>576</ele>
        <time>2022-09-22T07:34:50Z</time>
      </trkpt>
      <trkpt lat="44.14984" lon="5.87408">
        <ele>576</ele>
        <time>2022-09-22T07:34:51Z</time>
      </trkpt>
      <trkpt lat="44.14984" lon="5.87407">
        <ele>576</ele>
        <time>2022-09-22T07:34:52Z</time>
      </trkpt>
      <trkpt lat="44.14984" lon="5.87405">
        <ele>576</ele>
        <time>2022-09-22T07:34:53Z</time>
      </trkpt>
      <trkpt lat="44.14985" lon="5.87404">
        <ele>577</ele>
        <time>2022-09-22T07:34:54Z</time>
      </trkpt>
      <trkpt lat="44.14985" lon="5.87403">
        <ele>577</ele>
        <time>2022-09-22T07:34:55Z</time>
      </trkpt>
      <trkpt lat="44.14986" lon="5.87402">
        <ele>577</ele>
        <time>2022-09-22T07:34:56Z</time>
      </trkpt>
      <trkpt lat="44.14986" lon="5.87401">
        <ele>577</ele>
        <time>2022-09-22T07:34:57Z</time>
      </trkpt>
      <trkpt lat="44.14987" lon="5.87399">
        <ele>577</ele>
        <time>2022-09-22T07:34:58Z</time>
      </trkpt>
      <trkpt lat="44.14987" lon="5.87398">
        <ele>577</ele>
        <time>2022-09-22T07:34:59Z</time>
      </trkpt>
      <trkpt lat="44.14987" lon="5.87397">
        <ele>577</ele>
        <time>2022-09-22T07:35:00Z</time>
      </trkpt>
      <trkpt lat="44.14988" lon="5.87396">
        <ele>577</ele>
        <time>2022-09-22T07:35:01Z</time>
      </trkpt>
      <trkpt lat="44.14988" lon="5.87395">
        <ele>577</ele>
        <time>2022-09-22T07:35:02Z</time>
      </trkpt>
      <trkpt lat="44.14988" lon="5.87394">
        <ele>577</ele>
        <time>2022-09-22T07:35:03Z</time>
      </trkpt>
      <trkpt lat="44.14988" lon="5.87392">
        <ele>578</ele>
        <time>2022-09-22T07:35:04Z</time>
      </trkpt>
      <trkpt lat="44.14989" lon="5.87391">
        <ele>578</ele>
        <time>2022-09-22T07:35:05Z</time>
      </trkpt>
      <trkpt lat="44.14989" lon="5.8739">
        <ele>578</ele>
        <time>2022-09-22T07:35:06Z</time>
      </trkpt>
      <trkpt lat="44.14989" lon="5.87389">
        <ele>578</ele>
        <time>2022-09-22T07:35:07Z</time>
      </trkpt>
      <trkpt lat="44.1499" lon="5.87387">
        <ele>578</ele>
        <time>2022-09-22T07:35:08Z</time>
      </trkpt>
      <trkpt lat="44.1499" lon="5.87386">
        <ele>578</ele>
        <time>2022-09-22T07:35:09Z</time>
      </trkpt>
      <trkpt lat="44.1499" lon="5.87384">
        <ele>578</ele>
        <time>2022-09-22T07:35:10Z</time>
      </trkpt>
      <trkpt lat="44.14991" lon="5.87383">
        <ele>578</ele>
        <time>2022-09-22T07:35:11Z</time>
      </trkpt>
      <trkpt lat="44.14991" lon="5.87382">
        <ele>578</ele>
        <time>2022-09-22T07:35:12Z</time>
      </trkpt>
      <trkpt lat="44.14991" lon="5.87381">
        <ele>578</ele>
        <time>2022-09-22T07:35:13Z</time>
      </trkpt>
      <trkpt lat="44.14992" lon="5.87379">
        <ele>578</ele>
        <time>2022-09-22T07:35:14Z</time>
      </trkpt>
      <trkpt lat="44.14992" lon="5.87378">
        <ele>578</ele>
        <time>2022-09-22T07:35:15Z</time>
      </trkpt>
      <trkpt lat="44.14993" lon="5.87377">
        <ele>578</ele>
        <time>2022-09-22T07:35:16Z</time>
      </trkpt>
      <trkpt lat="44.14993" lon="5.87376">
        <ele>578</ele>
        <time>2022-09-22T07:35:17Z</time>
      </trkpt>
      <trkpt lat="44.14994" lon="5.87374">
        <ele>578</ele>
        <time>2022-09-22T07:35:18Z</time>
      </trkpt>
      <trkpt lat="44.14994" lon="5.87373">
        <ele>579</ele>
        <time>2022-09-22T07:35:19Z</time>
      </trkpt>
      <trkpt lat="44.14995" lon="5.87372">
        <ele>579</ele>
        <time>2022-09-22T07:35:20Z</time>
      </trkpt>
      <trkpt lat="44.14995" lon="5.8737">
        <ele>579</ele>
        <time>2022-09-22T07:35:21Z</time>
      </trkpt>
      <trkpt lat="44.14996" lon="5.87369">
        <ele>579</ele>
        <time>2022-09-22T07:35:22Z</time>
      </trkpt>
      <trkpt lat="44.14997" lon="5.87368">
        <ele>579</ele>
        <time>2022-09-22T07:35:23Z</time>
      </trkpt>
      <trkpt lat="44.14997" lon="5.87366">
        <ele>579</ele>
        <time>2022-09-22T07:35:24Z</time>
      </trkpt>
      <trkpt lat="44.14997" lon="5.87365">
        <ele>579</ele>
        <time>2022-09-22T07:35:25Z</time>
      </trkpt>
      <trkpt lat="44.14998" lon="5.87364">
        <ele>579</ele>
        <time>2022-09-22T07:35:26Z</time>
      </trkpt>
      <trkpt lat="44.14998" lon="5.87362">
        <ele>579</ele>
        <time>2022-09-22T07:35:27Z</time>
      </trkpt>
      <trkpt lat="44.14999" lon="5.87361">
        <ele>579</ele>
        <time>2022-09-22T07:35:28Z</time>
      </trkpt>
      <trkpt lat="44.14999" lon="5.87359">
        <ele>579</ele>
        <time>2022-09-22T07:35:29Z</time>
      </trkpt>
      <trkpt lat="44.15" lon="5.87358">
        <ele>579</ele>
        <time>2022-09-22T07:35:30Z</time>
      </trkpt>
      <trkpt lat="44.15" lon="5.87356">
        <ele>579</ele>
        <time>2022-09-22T07:35:31Z</time>
      </trkpt>
      <trkpt lat="44.15001" lon="5.87355">
        <ele>579</ele>
        <time>2022-09-22T07:35:32Z</time>
      </trkpt>
      <trkpt lat="44.15001" lon="5.87354">
        <ele>579</ele>
        <time>2022-09-22T07:35:33Z</time>
      </trkpt>
      <trkpt lat="44.15002" lon="5.87352">
        <ele>579</ele>
        <time>2022-09-22T07:35:34Z</time>
      </trkpt>
      <trkpt lat="44.15003" lon="5.87351">
        <ele>579</ele>
        <time>2022-09-22T07:35:35Z</time>
      </trkpt>
      <trkpt lat="44.15003" lon="5.87349">
        <ele>579</ele>
        <time>2022-09-22T07:35:36Z</time>
      </trkpt>
      <trkpt lat="44.15004" lon="5.87348">
        <ele>579</ele>
        <time>2022-09-22T07:35:37Z</time>
      </trkpt>
      <trkpt lat="44.15004" lon="5.87346">
        <ele>579</ele>
        <time>2022-09-22T07:35:38Z</time>
      </trkpt>
      <trkpt lat="44.15005" lon="5.87345">
        <ele>579</ele>
        <time>2022-09-22T07:35:39Z</time>
      </trkpt>
      <trkpt lat="44.15006" lon="5.87344">
        <ele>579</ele>
        <time>2022-09-22T07:35:40Z</time>
      </trkpt>
      <trkpt lat="44.15006" lon="5.87342">
        <ele>579</ele>
        <time>2022-09-22T07:35:41Z</time>
      </trkpt>
      <trkpt lat="44.15007" lon="5.87341">
        <ele>579</ele>
        <time>2022-09-22T07:35:42Z</time>
      </trkpt>
      <trkpt lat="44.15007" lon="5.8734">
        <ele>579</ele>
        <time>2022-09-22T07:35:43Z</time>
      </trkpt>
      <trkpt lat="44.15008" lon="5.87339">
        <ele>579</ele>
        <time>2022-09-22T07:35:44Z</time>
      </trkpt>
      <trkpt lat="44.15009" lon="5.87337">
        <ele>579</ele>
        <time>2022-09-22T07:35:45Z</time>
      </trkpt>
      <trkpt lat="44.15009" lon="5.87337">
        <ele>579</ele>
        <time>2022-09-22T07:35:46Z</time>
      </trkpt>
      <trkpt lat="44.1501" lon="5.87336">
        <ele>579</ele>
        <time>2022-09-22T07:35:47Z</time>
      </trkpt>
      <trkpt lat="44.15011" lon="5.87335">
        <ele>579</ele>
        <time>2022-09-22T07:35:48Z</time>
      </trkpt>
      <trkpt lat="44.15011" lon="5.87334">
        <ele>580</ele>
        <time>2022-09-22T07:35:49Z</time>
      </trkpt>
      <trkpt lat="44.15012" lon="5.87333">
        <ele>580</ele>
        <time>2022-09-22T07:35:50Z</time>
      </trkpt>
      <trkpt lat="44.15013" lon="5.87332">
        <ele>580</ele>
        <time>2022-09-22T07:35:51Z</time>
      </trkpt>
      <trkpt lat="44.15013" lon="5.87331">
        <ele>580</ele>
        <time>2022-09-22T07:35:52Z</time>
      </trkpt>
      <trkpt lat="44.15014" lon="5.87329">
        <ele>580</ele>
        <time>2022-09-22T07:35:53Z</time>
      </trkpt>
      <trkpt lat="44.15014" lon="5.87328">
        <ele>580</ele>
        <time>2022-09-22T07:35:54Z</time>
      </trkpt>
      <trkpt lat="44.15015" lon="5.87327">
        <ele>580</ele>
        <time>2022-09-22T07:35:55Z</time>
      </trkpt>
      <trkpt lat="44.15016" lon="5.87326">
        <ele>580</ele>
        <time>2022-09-22T07:35:56Z</time>
      </trkpt>
      <trkpt lat="44.15016" lon="5.87325">
        <ele>580</ele>
        <time>2022-09-22T07:35:57Z</time>
      </trkpt>
      <trkpt lat="44.15017" lon="5.87323">
        <ele>580</ele>
        <time>2022-09-22T07:35:58Z</time>
      </trkpt>
      <trkpt lat="44.15017" lon="5.87322">
        <ele>580</ele>
        <time>2022-09-22T07:35:59Z</time>
      </trkpt>
      <trkpt lat="44.15018" lon="5.87321">
        <ele>580</ele>
        <time>2022-09-22T07:36:00Z</time>
      </trkpt>
      <trkpt lat="44.15018" lon="5.8732">
        <ele>580</ele>
        <time>2022-09-22T07:36:01Z</time>
      </trkpt>
      <trkpt lat="44.15019" lon="5.87319">
        <ele>580</ele>
        <time>2022-09-22T07:36:02Z</time>
      </trkpt>
      <trkpt lat="44.15019" lon="5.87317">
        <ele>580</ele>
        <time>2022-09-22T07:36:03Z</time>
      </trkpt>
      <trkpt lat="44.1502" lon="5.87316">
        <ele>580</ele>
        <time>2022-09-22T07:36:04Z</time>
      </trkpt>
      <trkpt lat="44.1502" lon="5.87314">
        <ele>580</ele>
        <time>2022-09-22T07:36:05Z</time>
      </trkpt>
      <trkpt lat="44.15021" lon="5.87313">
        <ele>580</ele>
        <time>2022-09-22T07:36:06Z</time>
      </trkpt>
      <trkpt lat="44.15022" lon="5.87312">
        <ele>580</ele>
        <time>2022-09-22T07:36:07Z</time>
      </trkpt>
      <trkpt lat="44.15022" lon="5.8731">
        <ele>580</ele>
        <time>2022-09-22T07:36:08Z</time>
      </trkpt>
      <trkpt lat="44.15023" lon="5.87309">
        <ele>580</ele>
        <time>2022-09-22T07:36:09Z</time>
      </trkpt>
      <trkpt lat="44.15024" lon="5.87308">
        <ele>580</ele>
        <time>2022-09-22T07:36:10Z</time>
      </trkpt>
      <trkpt lat="44.15025" lon="5.87307">
        <ele>580</ele>
        <time>2022-09-22T07:36:11Z</time>
      </trkpt>
      <trkpt lat="44.15026" lon="5.87306">
        <ele>580</ele>
        <time>2022-09-22T07:36:12Z</time>
      </trkpt>
      <trkpt lat="44.15027" lon="5.87305">
        <ele>580</ele>
        <time>2022-09-22T07:36:13Z</time>
      </trkpt>
      <trkpt lat="44.15028" lon="5.87304">
        <ele>581</ele>
        <time>2022-09-22T07:36:14Z</time>
      </trkpt>
      <trkpt lat="44.15029" lon="5.87303">
        <ele>581</ele>
        <time>2022-09-22T07:36:15Z</time>
      </trkpt>
      <trkpt lat="44.1503" lon="5.87302">
        <ele>581</ele>
        <time>2022-09-22T07:36:16Z</time>
      </trkpt>
      <trkpt lat="44.15031" lon="5.87302">
        <ele>581</ele>
        <time>2022-09-22T07:36:17Z</time>
      </trkpt>
      <trkpt lat="44.15032" lon="5.87301">
        <ele>581</ele>
        <time>2022-09-22T07:36:18Z</time>
      </trkpt>
      <trkpt lat="44.15033" lon="5.873">
        <ele>582</ele>
        <time>2022-09-22T07:36:19Z</time>
      </trkpt>
      <trkpt lat="44.15033" lon="5.873">
        <ele>582</ele>
        <time>2022-09-22T07:36:20Z</time>
      </trkpt>
      <trkpt lat="44.15034" lon="5.87299">
        <ele>582</ele>
        <time>2022-09-22T07:36:21Z</time>
      </trkpt>
      <trkpt lat="44.15035" lon="5.87298">
        <ele>582</ele>
        <time>2022-09-22T07:36:22Z</time>
      </trkpt>
      <trkpt lat="44.15035" lon="5.87297">
        <ele>582</ele>
        <time>2022-09-22T07:36:23Z</time>
      </trkpt>
      <trkpt lat="44.15035" lon="5.87297">
        <ele>583</ele>
        <time>2022-09-22T07:36:24Z</time>
      </trkpt>
      <trkpt lat="44.15036" lon="5.87296">
        <ele>583</ele>
        <time>2022-09-22T07:36:25Z</time>
      </trkpt>
      <trkpt lat="44.15036" lon="5.87295">
        <ele>583</ele>
        <time>2022-09-22T07:36:26Z</time>
      </trkpt>
      <trkpt lat="44.15036" lon="5.87294">
        <ele>583</ele>
        <time>2022-09-22T07:36:27Z</time>
      </trkpt>
      <trkpt lat="44.15036" lon="5.87293">
        <ele>583</ele>
        <time>2022-09-22T07:36:28Z</time>
      </trkpt>
      <trkpt lat="44.15035" lon="5.87293">
        <ele>583</ele>
        <time>2022-09-22T07:36:29Z</time>
      </trkpt>
      <trkpt lat="44.15035" lon="5.87292">
        <ele>583</ele>
        <time>2022-09-22T07:36:30Z</time>
      </trkpt>
      <trkpt lat="44.15035" lon="5.87291">
        <ele>583</ele>
        <time>2022-09-22T07:36:31Z</time>
      </trkpt>
      <trkpt lat="44.15035" lon="5.87289">
        <ele>583</ele>
        <time>2022-09-22T07:36:32Z</time>
      </trkpt>
      <trkpt lat="44.15035" lon="5.87288">
        <ele>583</ele>
        <time>2022-09-22T07:36:33Z</time>
      </trkpt>
      <trkpt lat="44.15035" lon="5.87287">
        <ele>584</ele>
        <time>2022-09-22T07:36:34Z</time>
      </trkpt>
      <trkpt lat="44.15036" lon="5.87286">
        <ele>584</ele>
        <time>2022-09-22T07:36:35Z</time>
      </trkpt>
      <trkpt lat="44.15036" lon="5.87284">
        <ele>584</ele>
        <time>2022-09-22T07:36:36Z</time>
      </trkpt>
      <trkpt lat="44.15036" lon="5.87283">
        <ele>584</ele>
        <time>2022-09-22T07:36:37Z</time>
      </trkpt>
      <trkpt lat="44.15035" lon="5.87282">
        <ele>584</ele>
        <time>2022-09-22T07:36:38Z</time>
      </trkpt>
      <trkpt lat="44.15035" lon="5.87281">
        <ele>584</ele>
        <time>2022-09-22T07:36:39Z</time>
      </trkpt>
      <trkpt lat="44.15035" lon="5.87279">
        <ele>584</ele>
        <time>2022-09-22T07:36:40Z</time>
      </trkpt>
      <trkpt lat="44.15035" lon="5.87278">
        <ele>584</ele>
        <time>2022-09-22T07:36:41Z</time>
      </trkpt>
      <trkpt lat="44.15034" lon="5.87277">
        <ele>584</ele>
        <time>2022-09-22T07:36:42Z</time>
      </trkpt>
      <trkpt lat="44.15034" lon="5.87275">
        <ele>584</ele>
        <time>2022-09-22T07:36:43Z</time>
      </trkpt>
      <trkpt lat="44.15033" lon="5.87274">
        <ele>584</ele>
        <time>2022-09-22T07:36:44Z</time>
      </trkpt>
      <trkpt lat="44.15033" lon="5.87273">
        <ele>584</ele>
        <time>2022-09-22T07:36:45Z</time>
      </trkpt>
      <trkpt lat="44.15032" lon="5.87271">
        <ele>584</ele>
        <time>2022-09-22T07:36:46Z</time>
      </trkpt>
      <trkpt lat="44.15032" lon="5.8727">
        <ele>584</ele>
        <time>2022-09-22T07:36:47Z</time>
      </trkpt>
      <trkpt lat="44.15032" lon="5.87269">
        <ele>584</ele>
        <time>2022-09-22T07:36:48Z</time>
      </trkpt>
      <trkpt lat="44.15031" lon="5.87267">
        <ele>584</ele>
        <time>2022-09-22T07:36:49Z</time>
      </trkpt>
      <trkpt lat="44.15031" lon="5.87266">
        <ele>584</ele>
        <time>2022-09-22T07:36:50Z</time>
      </trkpt>
      <trkpt lat="44.15031" lon="5.87265">
        <ele>584</ele>
        <time>2022-09-22T07:36:51Z</time>
      </trkpt>
      <trkpt lat="44.15031" lon="5.87263">
        <ele>584</ele>
        <time>2022-09-22T07:36:52Z</time>
      </trkpt>
      <trkpt lat="44.15031" lon="5.87262">
        <ele>584</ele>
        <time>2022-09-22T07:36:53Z</time>
      </trkpt>
      <trkpt lat="44.15031" lon="5.87261">
        <ele>584</ele>
        <time>2022-09-22T07:36:54Z</time>
      </trkpt>
      <trkpt lat="44.15031" lon="5.8726">
        <ele>584</ele>
        <time>2022-09-22T07:36:55Z</time>
      </trkpt>
      <trkpt lat="44.15031" lon="5.87259">
        <ele>584</ele>
        <time>2022-09-22T07:36:56Z</time>
      </trkpt>
      <trkpt lat="44.15031" lon="5.87258">
        <ele>585</ele>
        <time>2022-09-22T07:36:57Z</time>
      </trkpt>
      <trkpt lat="44.1503" lon="5.87256">
        <ele>585</ele>
        <time>2022-09-22T07:36:58Z</time>
      </trkpt>
      <trkpt lat="44.1503" lon="5.87255">
        <ele>586</ele>
        <time>2022-09-22T07:36:59Z</time>
      </trkpt>
      <trkpt lat="44.1503" lon="5.87254">
        <ele>586</ele>
        <time>2022-09-22T07:37:00Z</time>
      </trkpt>
      <trkpt lat="44.1503" lon="5.87252">
        <ele>586</ele>
        <time>2022-09-22T07:37:01Z</time>
      </trkpt>
      <trkpt lat="44.1503" lon="5.87251">
        <ele>586</ele>
        <time>2022-09-22T07:37:02Z</time>
      </trkpt>
      <trkpt lat="44.1503" lon="5.87249">
        <ele>586</ele>
        <time>2022-09-22T07:37:03Z</time>
      </trkpt>
      <trkpt lat="44.1503" lon="5.87248">
        <ele>586</ele>
        <time>2022-09-22T07:37:04Z</time>
      </trkpt>
      <trkpt lat="44.1503" lon="5.87246">
        <ele>586</ele>
        <time>2022-09-22T07:37:05Z</time>
      </trkpt>
      <trkpt lat="44.1503" lon="5.87244">
        <ele>586</ele>
        <time>2022-09-22T07:37:06Z</time>
      </trkpt>
      <trkpt lat="44.1503" lon="5.87243">
        <ele>586</ele>
        <time>2022-09-22T07:37:07Z</time>
      </trkpt>
      <trkpt lat="44.15029" lon="5.87241">
        <ele>586</ele>
        <time>2022-09-22T07:37:08Z</time>
      </trkpt>
      <trkpt lat="44.15029" lon="5.8724">
        <ele>587</ele>
        <time>2022-09-22T07:37:09Z</time>
      </trkpt>
      <trkpt lat="44.15029" lon="5.87238">
        <ele>587</ele>
        <time>2022-09-22T07:37:10Z</time>
      </trkpt>
      <trkpt lat="44.15029" lon="5.87237">
        <ele>587</ele>
        <time>2022-09-22T07:37:11Z</time>
      </trkpt>
      <trkpt lat="44.15029" lon="5.87235">
        <ele>587</ele>
        <time>2022-09-22T07:37:12Z</time>
      </trkpt>
      <trkpt lat="44.15029" lon="5.87234">
        <ele>587</ele>
        <time>2022-09-22T07:37:13Z</time>
      </trkpt>
      <trkpt lat="44.15029" lon="5.87232">
        <ele>587</ele>
        <time>2022-09-22T07:37:14Z</time>
      </trkpt>
      <trkpt lat="44.15029" lon="5.87231">
        <ele>587</ele>
        <time>2022-09-22T07:37:15Z</time>
      </trkpt>
      <trkpt lat="44.15029" lon="5.87229">
        <ele>587</ele>
        <time>2022-09-22T07:37:16Z</time>
      </trkpt>
      <trkpt lat="44.15029" lon="5.87227">
        <ele>587</ele>
        <time>2022-09-22T07:37:17Z</time>
      </trkpt>
      <trkpt lat="44.15029" lon="5.87226">
        <ele>587</ele>
        <time>2022-09-22T07:37:18Z</time>
      </trkpt>
      <trkpt lat="44.15029" lon="5.87224">
        <ele>588</ele>
        <time>2022-09-22T07:37:19Z</time>
      </trkpt>
      <trkpt lat="44.15029" lon="5.87223">
        <ele>588</ele>
        <time>2022-09-22T07:37:20Z</time>
      </trkpt>
      <trkpt lat="44.15028" lon="5.87221">
        <ele>588</ele>
        <time>2022-09-22T07:37:21Z</time>
      </trkpt>
      <trkpt lat="44.15028" lon="5.8722">
        <ele>588</ele>
        <time>2022-09-22T07:37:22Z</time>
      </trkpt>
      <trkpt lat="44.15028" lon="5.87218">
        <ele>588</ele>
        <time>2022-09-22T07:37:23Z</time>
      </trkpt>
      <trkpt lat="44.15028" lon="5.87217">
        <ele>588</ele>
        <time>2022-09-22T07:37:24Z</time>
      </trkpt>
      <trkpt lat="44.15028" lon="5.87215">
        <ele>588</ele>
        <time>2022-09-22T07:37:25Z</time>
      </trkpt>
      <trkpt lat="44.15028" lon="5.87214">
        <ele>588</ele>
        <time>2022-09-22T07:37:26Z</time>
      </trkpt>
      <trkpt lat="44.15028" lon="5.87212">
        <ele>588</ele>
        <time>2022-09-22T07:37:27Z</time>
      </trkpt>
      <trkpt lat="44.15027" lon="5.87211">
        <ele>588</ele>
        <time>2022-09-22T07:37:28Z</time>
      </trkpt>
      <trkpt lat="44.15027" lon="5.8721">
        <ele>589</ele>
        <time>2022-09-22T07:37:29Z</time>
      </trkpt>
      <trkpt lat="44.15027" lon="5.87208">
        <ele>589</ele>
        <time>2022-09-22T07:37:30Z</time>
      </trkpt>
      <trkpt lat="44.15026" lon="5.87207">
        <ele>589</ele>
        <time>2022-09-22T07:37:31Z</time>
      </trkpt>
      <trkpt lat="44.15026" lon="5.87206">
        <ele>589</ele>
        <time>2022-09-22T07:37:32Z</time>
      </trkpt>
      <trkpt lat="44.15025" lon="5.87204">
        <ele>589</ele>
        <time>2022-09-22T07:37:33Z</time>
      </trkpt>
      <trkpt lat="44.15025" lon="5.87203">
        <ele>589</ele>
        <time>2022-09-22T07:37:34Z</time>
      </trkpt>
      <trkpt lat="44.15025" lon="5.87202">
        <ele>589</ele>
        <time>2022-09-22T07:37:35Z</time>
      </trkpt>
      <trkpt lat="44.15025" lon="5.87201">
        <ele>589</ele>
        <time>2022-09-22T07:37:36Z</time>
      </trkpt>
      <trkpt lat="44.15024" lon="5.872">
        <ele>589</ele>
        <time>2022-09-22T07:37:37Z</time>
      </trkpt>
      <trkpt lat="44.15024" lon="5.87197">
        <ele>590</ele>
        <time>2022-09-22T07:37:44Z</time>
      </trkpt>
      <trkpt lat="44.15023" lon="5.87197">
        <ele>590</ele>
        <time>2022-09-22T07:37:45Z</time>
      </trkpt>
      <trkpt lat="44.15023" lon="5.87196">
        <ele>590</ele>
        <time>2022-09-22T07:37:46Z</time>
      </trkpt>
      <trkpt lat="44.15023" lon="5.87195">
        <ele>590</ele>
        <time>2022-09-22T07:37:47Z</time>
      </trkpt>
      <trkpt lat="44.15022" lon="5.87194">
        <ele>590</ele>
        <time>2022-09-22T07:37:48Z</time>
      </trkpt>
      <trkpt lat="44.15022" lon="5.87194">
        <ele>591</ele>
        <time>2022-09-22T07:37:49Z</time>
      </trkpt>
      <trkpt lat="44.15021" lon="5.87193">
        <ele>591</ele>
        <time>2022-09-22T07:37:50Z</time>
      </trkpt>
      <trkpt lat="44.15021" lon="5.87192">
        <ele>591</ele>
        <time>2022-09-22T07:37:51Z</time>
      </trkpt>
      <trkpt lat="44.1502" lon="5.87192">
        <ele>591</ele>
        <time>2022-09-22T07:37:52Z</time>
      </trkpt>
      <trkpt lat="44.1502" lon="5.87191">
        <ele>591</ele>
        <time>2022-09-22T07:37:53Z</time>
      </trkpt>
      <trkpt lat="44.15019" lon="5.8719">
        <ele>591</ele>
        <time>2022-09-22T07:37:54Z</time>
      </trkpt>
      <trkpt lat="44.15019" lon="5.87189">
        <ele>591</ele>
        <time>2022-09-22T07:37:55Z</time>
      </trkpt>
      <trkpt lat="44.15018" lon="5.87188">
        <ele>591</ele>
        <time>2022-09-22T07:37:56Z</time>
      </trkpt>
      <trkpt lat="44.15018" lon="5.87187">
        <ele>591</ele>
        <time>2022-09-22T07:37:57Z</time>
      </trkpt>
      <trkpt lat="44.15017" lon="5.87186">
        <ele>591</ele>
        <time>2022-09-22T07:37:58Z</time>
      </trkpt>
      <trkpt lat="44.15017" lon="5.87185">
        <ele>592</ele>
        <time>2022-09-22T07:37:59Z</time>
      </trkpt>
      <trkpt lat="44.15016" lon="5.87184">
        <ele>592</ele>
        <time>2022-09-22T07:38:00Z</time>
      </trkpt>
      <trkpt lat="44.15015" lon="5.87183">
        <ele>592</ele>
        <time>2022-09-22T07:38:01Z</time>
      </trkpt>
      <trkpt lat="44.15015" lon="5.87183">
        <ele>592</ele>
        <time>2022-09-22T07:38:02Z</time>
      </trkpt>
      <trkpt lat="44.15014" lon="5.87182">
        <ele>592</ele>
        <time>2022-09-22T07:38:03Z</time>
      </trkpt>
      <trkpt lat="44.15014" lon="5.87181">
        <ele>592</ele>
        <time>2022-09-22T07:38:04Z</time>
      </trkpt>
      <trkpt lat="44.15013" lon="5.8718">
        <ele>592</ele>
        <time>2022-09-22T07:38:05Z</time>
      </trkpt>
      <trkpt lat="44.15013" lon="5.87179">
        <ele>592</ele>
        <time>2022-09-22T07:38:06Z</time>
      </trkpt>
      <trkpt lat="44.15012" lon="5.87178">
        <ele>592</ele>
        <time>2022-09-22T07:38:07Z</time>
      </trkpt>
      <trkpt lat="44.15012" lon="5.87177">
        <ele>592</ele>
        <time>2022-09-22T07:38:08Z</time>
      </trkpt>
      <trkpt lat="44.15011" lon="5.87176">
        <ele>592</ele>
        <time>2022-09-22T07:38:09Z</time>
      </trkpt>
      <trkpt lat="44.15011" lon="5.87175">
        <ele>592</ele>
        <time>2022-09-22T07:38:10Z</time>
      </trkpt>
      <trkpt lat="44.1501" lon="5.87174">
        <ele>592</ele>
        <time>2022-09-22T07:38:11Z</time>
      </trkpt>
      <trkpt lat="44.15009" lon="5.87173">
        <ele>592</ele>
        <time>2022-09-22T07:38:12Z</time>
      </trkpt>
      <trkpt lat="44.15009" lon="5.87172">
        <ele>592</ele>
        <time>2022-09-22T07:38:13Z</time>
      </trkpt>
      <trkpt lat="44.15008" lon="5.87171">
        <ele>593</ele>
        <time>2022-09-22T07:38:14Z</time>
      </trkpt>
      <trkpt lat="44.15008" lon="5.87171">
        <ele>593</ele>
        <time>2022-09-22T07:38:15Z</time>
      </trkpt>
      <trkpt lat="44.15007" lon="5.8717">
        <ele>593</ele>
        <time>2022-09-22T07:38:16Z</time>
      </trkpt>
      <trkpt lat="44.15006" lon="5.87169">
        <ele>593</ele>
        <time>2022-09-22T07:38:17Z</time>
      </trkpt>
      <trkpt lat="44.15006" lon="5.87168">
        <ele>593</ele>
        <time>2022-09-22T07:38:18Z</time>
      </trkpt>
      <trkpt lat="44.15006" lon="5.87167">
        <ele>593</ele>
        <time>2022-09-22T07:38:19Z</time>
      </trkpt>
      <trkpt lat="44.15005" lon="5.87166">
        <ele>593</ele>
        <time>2022-09-22T07:38:20Z</time>
      </trkpt>
      <trkpt lat="44.15005" lon="5.87165">
        <ele>593</ele>
        <time>2022-09-22T07:38:21Z</time>
      </trkpt>
      <trkpt lat="44.15005" lon="5.87164">
        <ele>593</ele>
        <time>2022-09-22T07:38:22Z</time>
      </trkpt>
      <trkpt lat="44.15004" lon="5.87163">
        <ele>593</ele>
        <time>2022-09-22T07:38:23Z</time>
      </trkpt>
      <trkpt lat="44.15004" lon="5.87162">
        <ele>593</ele>
        <time>2022-09-22T07:38:24Z</time>
      </trkpt>
      <trkpt lat="44.15004" lon="5.87161">
        <ele>593</ele>
        <time>2022-09-22T07:38:25Z</time>
      </trkpt>
      <trkpt lat="44.15004" lon="5.8716">
        <ele>593</ele>
        <time>2022-09-22T07:38:26Z</time>
      </trkpt>
      <trkpt lat="44.15003" lon="5.87159">
        <ele>593</ele>
        <time>2022-09-22T07:38:27Z</time>
      </trkpt>
      <trkpt lat="44.15003" lon="5.87158">
        <ele>593</ele>
        <time>2022-09-22T07:38:28Z</time>
      </trkpt>
      <trkpt lat="44.15003" lon="5.87157">
        <ele>594</ele>
        <time>2022-09-22T07:38:29Z</time>
      </trkpt>
      <trkpt lat="44.15003" lon="5.87156">
        <ele>594</ele>
        <time>2022-09-22T07:38:30Z</time>
      </trkpt>
      <trkpt lat="44.15002" lon="5.87155">
        <ele>594</ele>
        <time>2022-09-22T07:38:31Z</time>
      </trkpt>
      <trkpt lat="44.15002" lon="5.87154">
        <ele>594</ele>
        <time>2022-09-22T07:38:32Z</time>
      </trkpt>
      <trkpt lat="44.15001" lon="5.87153">
        <ele>594</ele>
        <time>2022-09-22T07:38:33Z</time>
      </trkpt>
      <trkpt lat="44.15" lon="5.87152">
        <ele>594</ele>
        <time>2022-09-22T07:38:34Z</time>
      </trkpt>
      <trkpt lat="44.15" lon="5.87151">
        <ele>594</ele>
        <time>2022-09-22T07:38:35Z</time>
      </trkpt>
      <trkpt lat="44.14999" lon="5.8715">
        <ele>594</ele>
        <time>2022-09-22T07:38:36Z</time>
      </trkpt>
      <trkpt lat="44.14998" lon="5.87149">
        <ele>594</ele>
        <time>2022-09-22T07:38:37Z</time>
      </trkpt>
      <trkpt lat="44.14997" lon="5.87148">
        <ele>594</ele>
        <time>2022-09-22T07:38:38Z</time>
      </trkpt>
      <trkpt lat="44.14997" lon="5.87146">
        <ele>595</ele>
        <time>2022-09-22T07:38:39Z</time>
      </trkpt>
      <trkpt lat="44.14996" lon="5.87145">
        <ele>595</ele>
        <time>2022-09-22T07:38:40Z</time>
      </trkpt>
      <trkpt lat="44.14996" lon="5.87143">
        <ele>595</ele>
        <time>2022-09-22T07:38:41Z</time>
      </trkpt>
      <trkpt lat="44.14995" lon="5.87142">
        <ele>595</ele>
        <time>2022-09-22T07:38:42Z</time>
      </trkpt>
      <trkpt lat="44.14995" lon="5.87141">
        <ele>595</ele>
        <time>2022-09-22T07:38:43Z</time>
      </trkpt>
      <trkpt lat="44.14994" lon="5.8714">
        <ele>596</ele>
        <time>2022-09-22T07:38:44Z</time>
      </trkpt>
      <trkpt lat="44.14994" lon="5.87139">
        <ele>596</ele>
        <time>2022-09-22T07:38:45Z</time>
      </trkpt>
      <trkpt lat="44.14993" lon="5.87138">
        <ele>596</ele>
        <time>2022-09-22T07:38:46Z</time>
      </trkpt>
      <trkpt lat="44.14992" lon="5.87138">
        <ele>596</ele>
        <time>2022-09-22T07:38:47Z</time>
      </trkpt>
      <trkpt lat="44.14992" lon="5.87137">
        <ele>596</ele>
        <time>2022-09-22T07:38:48Z</time>
      </trkpt>
      <trkpt lat="44.14991" lon="5.87136">
        <ele>596</ele>
        <time>2022-09-22T07:38:49Z</time>
      </trkpt>
      <trkpt lat="44.14991" lon="5.87136">
        <ele>596</ele>
        <time>2022-09-22T07:38:50Z</time>
      </trkpt>
      <trkpt lat="44.14989" lon="5.87133">
        <ele>597</ele>
        <time>2022-09-22T07:39:11Z</time>
      </trkpt>
      <trkpt lat="44.14989" lon="5.87133">
        <ele>597</ele>
        <time>2022-09-22T07:39:12Z</time>
      </trkpt>
      <trkpt lat="44.14988" lon="5.87132">
        <ele>597</ele>
        <time>2022-09-22T07:39:13Z</time>
      </trkpt>
      <trkpt lat="44.14987" lon="5.87129">
        <ele>598</ele>
        <time>2022-09-22T07:40:17Z</time>
      </trkpt>
      <trkpt lat="44.14987" lon="5.87128">
        <ele>598</ele>
        <time>2022-09-22T07:40:18Z</time>
      </trkpt>
      <trkpt lat="44.14986" lon="5.87127">
        <ele>598</ele>
        <time>2022-09-22T07:40:19Z</time>
      </trkpt>
      <trkpt lat="44.14985" lon="5.87126">
        <ele>598</ele>
        <time>2022-09-22T07:40:20Z</time>
      </trkpt>
      <trkpt lat="44.14985" lon="5.87125">
        <ele>598</ele>
        <time>2022-09-22T07:40:21Z</time>
      </trkpt>
      <trkpt lat="44.14985" lon="5.87124">
        <ele>598</ele>
        <time>2022-09-22T07:40:22Z</time>
      </trkpt>
      <trkpt lat="44.14984" lon="5.87123">
        <ele>598</ele>
        <time>2022-09-22T07:40:23Z</time>
      </trkpt>
      <trkpt lat="44.14984" lon="5.87122">
        <ele>598</ele>
        <time>2022-09-22T07:40:24Z</time>
      </trkpt>
      <trkpt lat="44.14983" lon="5.87121">
        <ele>598</ele>
        <time>2022-09-22T07:40:25Z</time>
      </trkpt>
      <trkpt lat="44.14983" lon="5.8712">
        <ele>598</ele>
        <time>2022-09-22T07:40:26Z</time>
      </trkpt>
      <trkpt lat="44.14982" lon="5.87119">
        <ele>598</ele>
        <time>2022-09-22T07:40:27Z</time>
      </trkpt>
      <trkpt lat="44.14982" lon="5.87118">
        <ele>598</ele>
        <time>2022-09-22T07:40:28Z</time>
      </trkpt>
      <trkpt lat="44.14981" lon="5.87118">
        <ele>598</ele>
        <time>2022-09-22T07:40:29Z</time>
      </trkpt>
      <trkpt lat="44.1498" lon="5.87117">
        <ele>597</ele>
        <time>2022-09-22T07:40:30Z</time>
      </trkpt>
      <trkpt lat="44.14979" lon="5.87116">
        <ele>597</ele>
        <time>2022-09-22T07:40:31Z</time>
      </trkpt>
      <trkpt lat="44.14979" lon="5.87115">
        <ele>597</ele>
        <time>2022-09-22T07:40:32Z</time>
      </trkpt>
      <trkpt lat="44.14978" lon="5.87115">
        <ele>597</ele>
        <time>2022-09-22T07:40:33Z</time>
      </trkpt>
      <trkpt lat="44.14977" lon="5.87114">
        <ele>597</ele>
        <time>2022-09-22T07:40:34Z</time>
      </trkpt>
      <trkpt lat="44.14977" lon="5.87113">
        <ele>597</ele>
        <time>2022-09-22T07:40:35Z</time>
      </trkpt>
      <trkpt lat="44.14976" lon="5.87112">
        <ele>597</ele>
        <time>2022-09-22T07:40:36Z</time>
      </trkpt>
      <trkpt lat="44.14975" lon="5.87111">
        <ele>597</ele>
        <time>2022-09-22T07:40:37Z</time>
      </trkpt>
      <trkpt lat="44.14975" lon="5.8711">
        <ele>597</ele>
        <time>2022-09-22T07:40:38Z</time>
      </trkpt>
      <trkpt lat="44.14974" lon="5.87109">
        <ele>597</ele>
        <time>2022-09-22T07:40:39Z</time>
      </trkpt>
      <trkpt lat="44.14973" lon="5.87108">
        <ele>597</ele>
        <time>2022-09-22T07:40:40Z</time>
      </trkpt>
      <trkpt lat="44.14973" lon="5.87107">
        <ele>597</ele>
        <time>2022-09-22T07:40:41Z</time>
      </trkpt>
      <trkpt lat="44.14972" lon="5.87105">
        <ele>597</ele>
        <time>2022-09-22T07:40:42Z</time>
      </trkpt>
      <trkpt lat="44.14972" lon="5.87104">
        <ele>597</ele>
        <time>2022-09-22T07:40:43Z</time>
      </trkpt>
      <trkpt lat="44.14971" lon="5.87102">
        <ele>597</ele>
        <time>2022-09-22T07:40:44Z</time>
      </trkpt>
      <trkpt lat="44.1497" lon="5.87101">
        <ele>597</ele>
        <time>2022-09-22T07:40:45Z</time>
      </trkpt>
      <trkpt lat="44.1497" lon="5.87099">
        <ele>597</ele>
        <time>2022-09-22T07:40:46Z</time>
      </trkpt>
      <trkpt lat="44.14969" lon="5.87097">
        <ele>597</ele>
        <time>2022-09-22T07:40:47Z</time>
      </trkpt>
      <trkpt lat="44.14969" lon="5.87096">
        <ele>597</ele>
        <time>2022-09-22T07:40:48Z</time>
      </trkpt>
      <trkpt lat="44.14969" lon="5.87094">
        <ele>597</ele>
        <time>2022-09-22T07:40:49Z</time>
      </trkpt>
      <trkpt lat="44.14969" lon="5.87093">
        <ele>597</ele>
        <time>2022-09-22T07:40:50Z</time>
      </trkpt>
      <trkpt lat="44.14969" lon="5.87091">
        <ele>597</ele>
        <time>2022-09-22T07:40:51Z</time>
      </trkpt>
      <trkpt lat="44.14968" lon="5.8709">
        <ele>597</ele>
        <time>2022-09-22T07:40:52Z</time>
      </trkpt>
      <trkpt lat="44.14968" lon="5.87089">
        <ele>597</ele>
        <time>2022-09-22T07:40:53Z</time>
      </trkpt>
      <trkpt lat="44.14968" lon="5.87087">
        <ele>597</ele>
        <time>2022-09-22T07:40:54Z</time>
      </trkpt>
      <trkpt lat="44.14968" lon="5.87086">
        <ele>597</ele>
        <time>2022-09-22T07:40:55Z</time>
      </trkpt>
      <trkpt lat="44.14968" lon="5.87084">
        <ele>597</ele>
        <time>2022-09-22T07:40:56Z</time>
      </trkpt>
      <trkpt lat="44.14968" lon="5.87083">
        <ele>597</ele>
        <time>2022-09-22T07:40:57Z</time>
      </trkpt>
      <trkpt lat="44.14968" lon="5.87082">
        <ele>597</ele>
        <time>2022-09-22T07:40:58Z</time>
      </trkpt>
      <trkpt lat="44.14968" lon="5.8708">
        <ele>597</ele>
        <time>2022-09-22T07:40:59Z</time>
      </trkpt>
      <trkpt lat="44.14968" lon="5.87079">
        <ele>597</ele>
        <time>2022-09-22T07:41:00Z</time>
      </trkpt>
      <trkpt lat="44.14968" lon="5.87078">
        <ele>597</ele>
        <time>2022-09-22T07:41:01Z</time>
      </trkpt>
      <trkpt lat="44.14968" lon="5.87076">
        <ele>597</ele>
        <time>2022-09-22T07:41:02Z</time>
      </trkpt>
      <trkpt lat="44.14968" lon="5.87075">
        <ele>597</ele>
        <time>2022-09-22T07:41:03Z</time>
      </trkpt>
      <trkpt lat="44.14968" lon="5.87073">
        <ele>597</ele>
        <time>2022-09-22T07:41:04Z</time>
      </trkpt>
      <trkpt lat="44.14967" lon="5.87072">
        <ele>597</ele>
        <time>2022-09-22T07:41:05Z</time>
      </trkpt>
      <trkpt lat="44.14967" lon="5.8707">
        <ele>597</ele>
        <time>2022-09-22T07:41:06Z</time>
      </trkpt>
      <trkpt lat="44.14967" lon="5.87069">
        <ele>597</ele>
        <time>2022-09-22T07:41:07Z</time>
      </trkpt>
      <trkpt lat="44.14967" lon="5.87067">
        <ele>597</ele>
        <time>2022-09-22T07:41:08Z</time>
      </trkpt>
      <trkpt lat="44.14967" lon="5.87066">
        <ele>597</ele>
        <time>2022-09-22T07:41:09Z</time>
      </trkpt>
      <trkpt lat="44.14967" lon="5.87064">
        <ele>597</ele>
        <time>2022-09-22T07:41:10Z</time>
      </trkpt>
      <trkpt lat="44.14967" lon="5.87062">
        <ele>597</ele>
        <time>2022-09-22T07:41:11Z</time>
      </trkpt>
      <trkpt lat="44.14966" lon="5.87061">
        <ele>597</ele>
        <time>2022-09-22T07:41:12Z</time>
      </trkpt>
      <trkpt lat="44.14966" lon="5.87059">
        <ele>597</ele>
        <time>2022-09-22T07:41:13Z</time>
      </trkpt>
      <trkpt lat="44.14966" lon="5.87058">
        <ele>597</ele>
        <time>2022-09-22T07:41:14Z</time>
      </trkpt>
      <trkpt lat="44.14965" lon="5.87056">
        <ele>597</ele>
        <time>2022-09-22T07:41:15Z</time>
      </trkpt>
      <trkpt lat="44.14965" lon="5.87055">
        <ele>597</ele>
        <time>2022-09-22T07:41:16Z</time>
      </trkpt>
      <trkpt lat="44.14965" lon="5.87053">
        <ele>597</ele>
        <time>2022-09-22T07:41:17Z</time>
      </trkpt>
      <trkpt lat="44.14964" lon="5.87052">
        <ele>597</ele>
        <time>2022-09-22T07:41:18Z</time>
      </trkpt>
      <trkpt lat="44.14964" lon="5.8705">
        <ele>597</ele>
        <time>2022-09-22T07:41:19Z</time>
      </trkpt>
      <trkpt lat="44.14964" lon="5.87049">
        <ele>597</ele>
        <time>2022-09-22T07:41:20Z</time>
      </trkpt>
      <trkpt lat="44.14963" lon="5.87047">
        <ele>597</ele>
        <time>2022-09-22T07:41:21Z</time>
      </trkpt>
      <trkpt lat="44.14963" lon="5.87046">
        <ele>597</ele>
        <time>2022-09-22T07:41:22Z</time>
      </trkpt>
      <trkpt lat="44.14963" lon="5.87045">
        <ele>597</ele>
        <time>2022-09-22T07:41:23Z</time>
      </trkpt>
      <trkpt lat="44.14963" lon="5.87044">
        <ele>597</ele>
        <time>2022-09-22T07:41:24Z</time>
      </trkpt>
      <trkpt lat="44.14962" lon="5.87043">
        <ele>597</ele>
        <time>2022-09-22T07:41:25Z</time>
      </trkpt>
      <trkpt lat="44.14962" lon="5.87042">
        <ele>597</ele>
        <time>2022-09-22T07:41:26Z</time>
      </trkpt>
      <trkpt lat="44.14962" lon="5.87041">
        <ele>597</ele>
        <time>2022-09-22T07:41:27Z</time>
      </trkpt>
      <trkpt lat="44.14961" lon="5.87039">
        <ele>597</ele>
        <time>2022-09-22T07:41:28Z</time>
      </trkpt>
      <trkpt lat="44.14961" lon="5.87038">
        <ele>597</ele>
        <time>2022-09-22T07:41:29Z</time>
      </trkpt>
      <trkpt lat="44.1496" lon="5.87036">
        <ele>597</ele>
        <time>2022-09-22T07:41:30Z</time>
      </trkpt>
      <trkpt lat="44.1496" lon="5.87035">
        <ele>597</ele>
        <time>2022-09-22T07:41:31Z</time>
      </trkpt>
      <trkpt lat="44.14959" lon="5.87033">
        <ele>597</ele>
        <time>2022-09-22T07:41:32Z</time>
      </trkpt>
      <trkpt lat="44.14959" lon="5.87031">
        <ele>597</ele>
        <time>2022-09-22T07:41:33Z</time>
      </trkpt>
      <trkpt lat="44.14959" lon="5.8703">
        <ele>597</ele>
        <time>2022-09-22T07:41:34Z</time>
      </trkpt>
      <trkpt lat="44.14959" lon="5.87028">
        <ele>597</ele>
        <time>2022-09-22T07:41:35Z</time>
      </trkpt>
      <trkpt lat="44.14959" lon="5.87026">
        <ele>597</ele>
        <time>2022-09-22T07:41:36Z</time>
      </trkpt>
      <trkpt lat="44.14959" lon="5.87025">
        <ele>597</ele>
        <time>2022-09-22T07:41:37Z</time>
      </trkpt>
      <trkpt lat="44.1496" lon="5.87023">
        <ele>597</ele>
        <time>2022-09-22T07:41:38Z</time>
      </trkpt>
      <trkpt lat="44.1496" lon="5.87022">
        <ele>598</ele>
        <time>2022-09-22T07:41:39Z</time>
      </trkpt>
      <trkpt lat="44.14961" lon="5.87021">
        <ele>598</ele>
        <time>2022-09-22T07:41:40Z</time>
      </trkpt>
      <trkpt lat="44.14961" lon="5.87019">
        <ele>598</ele>
        <time>2022-09-22T07:41:41Z</time>
      </trkpt>
      <trkpt lat="44.14962" lon="5.87018">
        <ele>598</ele>
        <time>2022-09-22T07:41:42Z</time>
      </trkpt>
      <trkpt lat="44.14962" lon="5.87017">
        <ele>598</ele>
        <time>2022-09-22T07:41:43Z</time>
      </trkpt>
      <trkpt lat="44.14963" lon="5.87015">
        <ele>598</ele>
        <time>2022-09-22T07:41:44Z</time>
      </trkpt>
      <trkpt lat="44.14964" lon="5.87014">
        <ele>598</ele>
        <time>2022-09-22T07:41:45Z</time>
      </trkpt>
      <trkpt lat="44.14964" lon="5.87013">
        <ele>598</ele>
        <time>2022-09-22T07:41:46Z</time>
      </trkpt>
      <trkpt lat="44.14965" lon="5.87012">
        <ele>598</ele>
        <time>2022-09-22T07:41:47Z</time>
      </trkpt>
      <trkpt lat="44.14965" lon="5.8701">
        <ele>598</ele>
        <time>2022-09-22T07:41:48Z</time>
      </trkpt>
      <trkpt lat="44.14966" lon="5.87009">
        <ele>598</ele>
        <time>2022-09-22T07:41:49Z</time>
      </trkpt>
      <trkpt lat="44.14966" lon="5.87008">
        <ele>598</ele>
        <time>2022-09-22T07:41:50Z</time>
      </trkpt>
      <trkpt lat="44.14967" lon="5.87007">
        <ele>598</ele>
        <time>2022-09-22T07:41:51Z</time>
      </trkpt>
      <trkpt lat="44.14967" lon="5.87006">
        <ele>598</ele>
        <time>2022-09-22T07:41:52Z</time>
      </trkpt>
      <trkpt lat="44.14968" lon="5.87005">
        <ele>598</ele>
        <time>2022-09-22T07:41:53Z</time>
      </trkpt>
      <trkpt lat="44.14968" lon="5.87004">
        <ele>598</ele>
        <time>2022-09-22T07:41:54Z</time>
      </trkpt>
      <trkpt lat="44.14969" lon="5.87003">
        <ele>598</ele>
        <time>2022-09-22T07:41:55Z</time>
      </trkpt>
      <trkpt lat="44.1497" lon="5.87002">
        <ele>598</ele>
        <time>2022-09-22T07:41:56Z</time>
      </trkpt>
      <trkpt lat="44.1497" lon="5.87001">
        <ele>598</ele>
        <time>2022-09-22T07:41:57Z</time>
      </trkpt>
      <trkpt lat="44.14971" lon="5.87">
        <ele>598</ele>
        <time>2022-09-22T07:41:58Z</time>
      </trkpt>
      <trkpt lat="44.14972" lon="5.86999">
        <ele>599</ele>
        <time>2022-09-22T07:41:59Z</time>
      </trkpt>
      <trkpt lat="44.14973" lon="5.86998">
        <ele>599</ele>
        <time>2022-09-22T07:42:00Z</time>
      </trkpt>
      <trkpt lat="44.14973" lon="5.86997">
        <ele>599</ele>
        <time>2022-09-22T07:42:01Z</time>
      </trkpt>
      <trkpt lat="44.14974" lon="5.86996">
        <ele>599</ele>
        <time>2022-09-22T07:42:02Z</time>
      </trkpt>
      <trkpt lat="44.14975" lon="5.86994">
        <ele>599</ele>
        <time>2022-09-22T07:42:03Z</time>
      </trkpt>
      <trkpt lat="44.14975" lon="5.86993">
        <ele>599</ele>
        <time>2022-09-22T07:42:04Z</time>
      </trkpt>
      <trkpt lat="44.14976" lon="5.86992">
        <ele>599</ele>
        <time>2022-09-22T07:42:05Z</time>
      </trkpt>
      <trkpt lat="44.14977" lon="5.86991">
        <ele>599</ele>
        <time>2022-09-22T07:42:06Z</time>
      </trkpt>
      <trkpt lat="44.14977" lon="5.8699">
        <ele>599</ele>
        <time>2022-09-22T07:42:07Z</time>
      </trkpt>
      <trkpt lat="44.14977" lon="5.86988">
        <ele>599</ele>
        <time>2022-09-22T07:42:08Z</time>
      </trkpt>
      <trkpt lat="44.14978" lon="5.86987">
        <ele>599</ele>
        <time>2022-09-22T07:42:09Z</time>
      </trkpt>
      <trkpt lat="44.14978" lon="5.86986">
        <ele>599</ele>
        <time>2022-09-22T07:42:10Z</time>
      </trkpt>
      <trkpt lat="44.14978" lon="5.86984">
        <ele>599</ele>
        <time>2022-09-22T07:42:11Z</time>
      </trkpt>
      <trkpt lat="44.14979" lon="5.86983">
        <ele>599</ele>
        <time>2022-09-22T07:42:12Z</time>
      </trkpt>
      <trkpt lat="44.14979" lon="5.86982">
        <ele>599</ele>
        <time>2022-09-22T07:42:13Z</time>
      </trkpt>
      <trkpt lat="44.1498" lon="5.86981">
        <ele>599</ele>
        <time>2022-09-22T07:42:14Z</time>
      </trkpt>
      <trkpt lat="44.1498" lon="5.86981">
        <ele>599</ele>
        <time>2022-09-22T07:42:15Z</time>
      </trkpt>
      <trkpt lat="44.14981" lon="5.8698">
        <ele>599</ele>
        <time>2022-09-22T07:42:16Z</time>
      </trkpt>
      <trkpt lat="44.14981" lon="5.8698">
        <ele>599</ele>
        <time>2022-09-22T07:42:17Z</time>
      </trkpt>
      <trkpt lat="44.14982" lon="5.86979">
        <ele>599</ele>
        <time>2022-09-22T07:42:18Z</time>
      </trkpt>
      <trkpt lat="44.14982" lon="5.86979">
        <ele>599</ele>
        <time>2022-09-22T07:42:19Z</time>
      </trkpt>
      <trkpt lat="44.14984" lon="5.86979">
        <ele>599</ele>
        <time>2022-09-22T07:42:27Z</time>
      </trkpt>
      <trkpt lat="44.14985" lon="5.86979">
        <ele>599</ele>
        <time>2022-09-22T07:42:28Z</time>
      </trkpt>
      <trkpt lat="44.14986" lon="5.86979">
        <ele>599</ele>
        <time>2022-09-22T07:42:29Z</time>
      </trkpt>
      <trkpt lat="44.14987" lon="5.86979">
        <ele>599</ele>
        <time>2022-09-22T07:42:30Z</time>
      </trkpt>
      <trkpt lat="44.14987" lon="5.86978">
        <ele>599</ele>
        <time>2022-09-22T07:42:31Z</time>
      </trkpt>
      <trkpt lat="44.14988" lon="5.86978">
        <ele>599</ele>
        <time>2022-09-22T07:42:32Z</time>
      </trkpt>
      <trkpt lat="44.14989" lon="5.86978">
        <ele>599</ele>
        <time>2022-09-22T07:42:33Z</time>
      </trkpt>
      <trkpt lat="44.14989" lon="5.86977">
        <ele>599</ele>
        <time>2022-09-22T07:42:34Z</time>
      </trkpt>
      <trkpt lat="44.1499" lon="5.86976">
        <ele>599</ele>
        <time>2022-09-22T07:42:35Z</time>
      </trkpt>
      <trkpt lat="44.1499" lon="5.86976">
        <ele>599</ele>
        <time>2022-09-22T07:42:36Z</time>
      </trkpt>
      <trkpt lat="44.1499" lon="5.86975">
        <ele>599</ele>
        <time>2022-09-22T07:42:37Z</time>
      </trkpt>
      <trkpt lat="44.14991" lon="5.86974">
        <ele>599</ele>
        <time>2022-09-22T07:42:38Z</time>
      </trkpt>
      <trkpt lat="44.14991" lon="5.86974">
        <ele>599</ele>
        <time>2022-09-22T07:42:39Z</time>
      </trkpt>
      <trkpt lat="44.14992" lon="5.86973">
        <ele>599</ele>
        <time>2022-09-22T07:42:40Z</time>
      </trkpt>
      <trkpt lat="44.14992" lon="5.86972">
        <ele>599</ele>
        <time>2022-09-22T07:42:41Z</time>
      </trkpt>
      <trkpt lat="44.14993" lon="5.86971">
        <ele>599</ele>
        <time>2022-09-22T07:42:42Z</time>
      </trkpt>
      <trkpt lat="44.14993" lon="5.86971">
        <ele>599</ele>
        <time>2022-09-22T07:42:43Z</time>
      </trkpt>
      <trkpt lat="44.14994" lon="5.8697">
        <ele>600</ele>
        <time>2022-09-22T07:42:44Z</time>
      </trkpt>
      <trkpt lat="44.14994" lon="5.86969">
        <ele>600</ele>
        <time>2022-09-22T07:42:45Z</time>
      </trkpt>
      <trkpt lat="44.14995" lon="5.86969">
        <ele>600</ele>
        <time>2022-09-22T07:42:46Z</time>
      </trkpt>
      <trkpt lat="44.14995" lon="5.86968">
        <ele>600</ele>
        <time>2022-09-22T07:42:47Z</time>
      </trkpt>
      <trkpt lat="44.14996" lon="5.86967">
        <ele>600</ele>
        <time>2022-09-22T07:42:48Z</time>
      </trkpt>
      <trkpt lat="44.14997" lon="5.86966">
        <ele>600</ele>
        <time>2022-09-22T07:42:49Z</time>
      </trkpt>
      <trkpt lat="44.14998" lon="5.86965">
        <ele>600</ele>
        <time>2022-09-22T07:42:50Z</time>
      </trkpt>
      <trkpt lat="44.14998" lon="5.86964">
        <ele>600</ele>
        <time>2022-09-22T07:42:51Z</time>
      </trkpt>
      <trkpt lat="44.14999" lon="5.86964">
        <ele>600</ele>
        <time>2022-09-22T07:42:52Z</time>
      </trkpt>
      <trkpt lat="44.14999" lon="5.86963">
        <ele>600</ele>
        <time>2022-09-22T07:42:53Z</time>
      </trkpt>
      <trkpt lat="44.15" lon="5.86963">
        <ele>600</ele>
        <time>2022-09-22T07:42:54Z</time>
      </trkpt>
      <trkpt lat="44.15" lon="5.86962">
        <ele>600</ele>
        <time>2022-09-22T07:42:55Z</time>
      </trkpt>
      <trkpt lat="44.15001" lon="5.86962">
        <ele>600</ele>
        <time>2022-09-22T07:42:56Z</time>
      </trkpt>
      <trkpt lat="44.15001" lon="5.86961">
        <ele>600</ele>
        <time>2022-09-22T07:42:57Z</time>
      </trkpt>
      <trkpt lat="44.15002" lon="5.86961">
        <ele>600</ele>
        <time>2022-09-22T07:42:58Z</time>
      </trkpt>
      <trkpt lat="44.15002" lon="5.8696">
        <ele>601</ele>
        <time>2022-09-22T07:42:59Z</time>
      </trkpt>
      <trkpt lat="44.15003" lon="5.8696">
        <ele>601</ele>
        <time>2022-09-22T07:43:00Z</time>
      </trkpt>
      <trkpt lat="44.15003" lon="5.86959">
        <ele>601</ele>
        <time>2022-09-22T07:43:01Z</time>
      </trkpt>
      <trkpt lat="44.15003" lon="5.86958">
        <ele>601</ele>
        <time>2022-09-22T07:43:02Z</time>
      </trkpt>
      <trkpt lat="44.15004" lon="5.86957">
        <ele>601</ele>
        <time>2022-09-22T07:43:03Z</time>
      </trkpt>
      <trkpt lat="44.15004" lon="5.86956">
        <ele>601</ele>
        <time>2022-09-22T07:43:04Z</time>
      </trkpt>
      <trkpt lat="44.15005" lon="5.86955">
        <ele>601</ele>
        <time>2022-09-22T07:43:05Z</time>
      </trkpt>
      <trkpt lat="44.15005" lon="5.86955">
        <ele>601</ele>
        <time>2022-09-22T07:43:06Z</time>
      </trkpt>
      <trkpt lat="44.15006" lon="5.86954">
        <ele>601</ele>
        <time>2022-09-22T07:43:07Z</time>
      </trkpt>
      <trkpt lat="44.15006" lon="5.86953">
        <ele>601</ele>
        <time>2022-09-22T07:43:08Z</time>
      </trkpt>
      <trkpt lat="44.15007" lon="5.86952">
        <ele>601</ele>
        <time>2022-09-22T07:43:09Z</time>
      </trkpt>
      <trkpt lat="44.15008" lon="5.86951">
        <ele>601</ele>
        <time>2022-09-22T07:43:10Z</time>
      </trkpt>
      <trkpt lat="44.15008" lon="5.86951">
        <ele>601</ele>
        <time>2022-09-22T07:43:11Z</time>
      </trkpt>
      <trkpt lat="44.15009" lon="5.8695">
        <ele>601</ele>
        <time>2022-09-22T07:43:12Z</time>
      </trkpt>
      <trkpt lat="44.15009" lon="5.86949">
        <ele>601</ele>
        <time>2022-09-22T07:43:13Z</time>
      </trkpt>
      <trkpt lat="44.1501" lon="5.86948">
        <ele>602</ele>
        <time>2022-09-22T07:43:14Z</time>
      </trkpt>
      <trkpt lat="44.1501" lon="5.86947">
        <ele>602</ele>
        <time>2022-09-22T07:43:15Z</time>
      </trkpt>
      <trkpt lat="44.15011" lon="5.86947">
        <ele>602</ele>
        <time>2022-09-22T07:43:16Z</time>
      </trkpt>
      <trkpt lat="44.15011" lon="5.86946">
        <ele>602</ele>
        <time>2022-09-22T07:43:17Z</time>
      </trkpt>
      <trkpt lat="44.15011" lon="5.86945">
        <ele>602</ele>
        <time>2022-09-22T07:43:18Z</time>
      </trkpt>
      <trkpt lat="44.15012" lon="5.86944">
        <ele>602</ele>
        <time>2022-09-22T07:43:19Z</time>
      </trkpt>
      <trkpt lat="44.15012" lon="5.86943">
        <ele>602</ele>
        <time>2022-09-22T07:43:20Z</time>
      </trkpt>
      <trkpt lat="44.15012" lon="5.86942">
        <ele>602</ele>
        <time>2022-09-22T07:43:21Z</time>
      </trkpt>
      <trkpt lat="44.15013" lon="5.86941">
        <ele>602</ele>
        <time>2022-09-22T07:43:22Z</time>
      </trkpt>
      <trkpt lat="44.15013" lon="5.86941">
        <ele>602</ele>
        <time>2022-09-22T07:43:23Z</time>
      </trkpt>
      <trkpt lat="44.15014" lon="5.8694">
        <ele>602</ele>
        <time>2022-09-22T07:43:24Z</time>
      </trkpt>
      <trkpt lat="44.15014" lon="5.8694">
        <ele>602</ele>
        <time>2022-09-22T07:43:25Z</time>
      </trkpt>
      <trkpt lat="44.15014" lon="5.86939">
        <ele>602</ele>
        <time>2022-09-22T07:43:26Z</time>
      </trkpt>
      <trkpt lat="44.15014" lon="5.86939">
        <ele>602</ele>
        <time>2022-09-22T07:43:27Z</time>
      </trkpt>
      <trkpt lat="44.15015" lon="5.86938">
        <ele>602</ele>
        <time>2022-09-22T07:43:28Z</time>
      </trkpt>
      <trkpt lat="44.15015" lon="5.86938">
        <ele>602</ele>
        <time>2022-09-22T07:43:29Z</time>
      </trkpt>
      <trkpt lat="44.15016" lon="5.86937">
        <ele>602</ele>
        <time>2022-09-22T07:43:30Z</time>
      </trkpt>
      <trkpt lat="44.15016" lon="5.86936">
        <ele>602</ele>
        <time>2022-09-22T07:43:31Z</time>
      </trkpt>
      <trkpt lat="44.15017" lon="5.86935">
        <ele>602</ele>
        <time>2022-09-22T07:43:32Z</time>
      </trkpt>
      <trkpt lat="44.15017" lon="5.86934">
        <ele>602</ele>
        <time>2022-09-22T07:43:33Z</time>
      </trkpt>
      <trkpt lat="44.15017" lon="5.86933">
        <ele>602</ele>
        <time>2022-09-22T07:43:34Z</time>
      </trkpt>
      <trkpt lat="44.15018" lon="5.86932">
        <ele>602</ele>
        <time>2022-09-22T07:43:35Z</time>
      </trkpt>
      <trkpt lat="44.15018" lon="5.86931">
        <ele>602</ele>
        <time>2022-09-22T07:43:36Z</time>
      </trkpt>
      <trkpt lat="44.15019" lon="5.8693">
        <ele>602</ele>
        <time>2022-09-22T07:43:37Z</time>
      </trkpt>
      <trkpt lat="44.15019" lon="5.86929">
        <ele>602</ele>
        <time>2022-09-22T07:43:38Z</time>
      </trkpt>
      <trkpt lat="44.1502" lon="5.86928">
        <ele>602</ele>
        <time>2022-09-22T07:43:39Z</time>
      </trkpt>
      <trkpt lat="44.1502" lon="5.86927">
        <ele>602</ele>
        <time>2022-09-22T07:43:40Z</time>
      </trkpt>
      <trkpt lat="44.15021" lon="5.86927">
        <ele>602</ele>
        <time>2022-09-22T07:43:41Z</time>
      </trkpt>
      <trkpt lat="44.15021" lon="5.86926">
        <ele>602</ele>
        <time>2022-09-22T07:43:42Z</time>
      </trkpt>
      <trkpt lat="44.15021" lon="5.86925">
        <ele>602</ele>
        <time>2022-09-22T07:43:43Z</time>
      </trkpt>
      <trkpt lat="44.15022" lon="5.86925">
        <ele>602</ele>
        <time>2022-09-22T07:43:44Z</time>
      </trkpt>
      <trkpt lat="44.15022" lon="5.86924">
        <ele>602</ele>
        <time>2022-09-22T07:43:45Z</time>
      </trkpt>
      <trkpt lat="44.15023" lon="5.86923">
        <ele>602</ele>
        <time>2022-09-22T07:43:46Z</time>
      </trkpt>
      <trkpt lat="44.15023" lon="5.86923">
        <ele>602</ele>
        <time>2022-09-22T07:43:47Z</time>
      </trkpt>
      <trkpt lat="44.15023" lon="5.86922">
        <ele>602</ele>
        <time>2022-09-22T07:43:48Z</time>
      </trkpt>
      <trkpt lat="44.15024" lon="5.86922">
        <ele>602</ele>
        <time>2022-09-22T07:43:49Z</time>
      </trkpt>
      <trkpt lat="44.15024" lon="5.86921">
        <ele>602</ele>
        <time>2022-09-22T07:43:50Z</time>
      </trkpt>
      <trkpt lat="44.15024" lon="5.8692">
        <ele>602</ele>
        <time>2022-09-22T07:43:51Z</time>
      </trkpt>
      <trkpt lat="44.15025" lon="5.8692">
        <ele>602</ele>
        <time>2022-09-22T07:43:52Z</time>
      </trkpt>
      <trkpt lat="44.15025" lon="5.86919">
        <ele>602</ele>
        <time>2022-09-22T07:43:53Z</time>
      </trkpt>
      <trkpt lat="44.15026" lon="5.86918">
        <ele>602</ele>
        <time>2022-09-22T07:43:54Z</time>
      </trkpt>
      <trkpt lat="44.15027" lon="5.86917">
        <ele>602</ele>
        <time>2022-09-22T07:43:55Z</time>
      </trkpt>
      <trkpt lat="44.15027" lon="5.86917">
        <ele>602</ele>
        <time>2022-09-22T07:43:56Z</time>
      </trkpt>
      <trkpt lat="44.15028" lon="5.86916">
        <ele>602</ele>
        <time>2022-09-22T07:43:57Z</time>
      </trkpt>
      <trkpt lat="44.15028" lon="5.86915">
        <ele>602</ele>
        <time>2022-09-22T07:43:58Z</time>
      </trkpt>
      <trkpt lat="44.15029" lon="5.86914">
        <ele>603</ele>
        <time>2022-09-22T07:43:59Z</time>
      </trkpt>
      <trkpt lat="44.1503" lon="5.86913">
        <ele>602</ele>
        <time>2022-09-22T07:44:00Z</time>
      </trkpt>
      <trkpt lat="44.1503" lon="5.86912">
        <ele>602</ele>
        <time>2022-09-22T07:44:01Z</time>
      </trkpt>
      <trkpt lat="44.15031" lon="5.86911">
        <ele>602</ele>
        <time>2022-09-22T07:44:02Z</time>
      </trkpt>
      <trkpt lat="44.15032" lon="5.8691">
        <ele>602</ele>
        <time>2022-09-22T07:44:03Z</time>
      </trkpt>
      <trkpt lat="44.15032" lon="5.86909">
        <ele>602</ele>
        <time>2022-09-22T07:44:04Z</time>
      </trkpt>
      <trkpt lat="44.15033" lon="5.86909">
        <ele>602</ele>
        <time>2022-09-22T07:44:05Z</time>
      </trkpt>
      <trkpt lat="44.15034" lon="5.86908">
        <ele>602</ele>
        <time>2022-09-22T07:44:06Z</time>
      </trkpt>
      <trkpt lat="44.15035" lon="5.86907">
        <ele>602</ele>
        <time>2022-09-22T07:44:07Z</time>
      </trkpt>
      <trkpt lat="44.15036" lon="5.86906">
        <ele>602</ele>
        <time>2022-09-22T07:44:08Z</time>
      </trkpt>
      <trkpt lat="44.15036" lon="5.86906">
        <ele>603</ele>
        <time>2022-09-22T07:44:09Z</time>
      </trkpt>
      <trkpt lat="44.15037" lon="5.86905">
        <ele>603</ele>
        <time>2022-09-22T07:44:10Z</time>
      </trkpt>
      <trkpt lat="44.15037" lon="5.86905">
        <ele>603</ele>
        <time>2022-09-22T07:44:11Z</time>
      </trkpt>
      <trkpt lat="44.15037" lon="5.86904">
        <ele>603</ele>
        <time>2022-09-22T07:44:12Z</time>
      </trkpt>
      <trkpt lat="44.15038" lon="5.86903">
        <ele>603</ele>
        <time>2022-09-22T07:44:13Z</time>
      </trkpt>
      <trkpt lat="44.15039" lon="5.86903">
        <ele>603</ele>
        <time>2022-09-22T07:44:14Z</time>
      </trkpt>
      <trkpt lat="44.15039" lon="5.86902">
        <ele>603</ele>
        <time>2022-09-22T07:44:15Z</time>
      </trkpt>
      <trkpt lat="44.1504" lon="5.86902">
        <ele>603</ele>
        <time>2022-09-22T07:44:16Z</time>
      </trkpt>
      <trkpt lat="44.1504" lon="5.86901">
        <ele>603</ele>
        <time>2022-09-22T07:44:17Z</time>
      </trkpt>
      <trkpt lat="44.1504" lon="5.86901">
        <ele>603</ele>
        <time>2022-09-22T07:44:18Z</time>
      </trkpt>
      <trkpt lat="44.1504" lon="5.86901">
        <ele>603</ele>
        <time>2022-09-22T07:44:19Z</time>
      </trkpt>
      <trkpt lat="44.15041" lon="5.86901">
        <ele>603</ele>
        <time>2022-09-22T07:44:20Z</time>
      </trkpt>
      <trkpt lat="44.15041" lon="5.869">
        <ele>603</ele>
        <time>2022-09-22T07:44:21Z</time>
      </trkpt>
      <trkpt lat="44.15042" lon="5.869">
        <ele>603</ele>
        <time>2022-09-22T07:44:22Z</time>
      </trkpt>
      <trkpt lat="44.15042" lon="5.869">
        <ele>603</ele>
        <time>2022-09-22T07:44:23Z</time>
      </trkpt>
      <trkpt lat="44.15043" lon="5.86899">
        <ele>603</ele>
        <time>2022-09-22T07:44:24Z</time>
      </trkpt>
      <trkpt lat="44.15044" lon="5.86899">
        <ele>603</ele>
        <time>2022-09-22T07:44:25Z</time>
      </trkpt>
      <trkpt lat="44.15044" lon="5.86898">
        <ele>603</ele>
        <time>2022-09-22T07:44:26Z</time>
      </trkpt>
      <trkpt lat="44.15045" lon="5.86898">
        <ele>603</ele>
        <time>2022-09-22T07:44:27Z</time>
      </trkpt>
      <trkpt lat="44.15046" lon="5.86897">
        <ele>603</ele>
        <time>2022-09-22T07:44:28Z</time>
      </trkpt>
      <trkpt lat="44.15046" lon="5.86897">
        <ele>603</ele>
        <time>2022-09-22T07:44:29Z</time>
      </trkpt>
      <trkpt lat="44.15047" lon="5.86896">
        <ele>603</ele>
        <time>2022-09-22T07:44:30Z</time>
      </trkpt>
      <trkpt lat="44.15048" lon="5.86896">
        <ele>603</ele>
        <time>2022-09-22T07:44:31Z</time>
      </trkpt>
      <trkpt lat="44.15049" lon="5.86896">
        <ele>603</ele>
        <time>2022-09-22T07:44:32Z</time>
      </trkpt>
      <trkpt lat="44.1505" lon="5.86896">
        <ele>603</ele>
        <time>2022-09-22T07:44:33Z</time>
      </trkpt>
      <trkpt lat="44.1505" lon="5.86895">
        <ele>603</ele>
        <time>2022-09-22T07:44:34Z</time>
      </trkpt>
      <trkpt lat="44.15051" lon="5.86895">
        <ele>603</ele>
        <time>2022-09-22T07:44:35Z</time>
      </trkpt>
      <trkpt lat="44.15052" lon="5.86895">
        <ele>603</ele>
        <time>2022-09-22T07:44:36Z</time>
      </trkpt>
      <trkpt lat="44.15052" lon="5.86894">
        <ele>603</ele>
        <time>2022-09-22T07:44:37Z</time>
      </trkpt>
      <trkpt lat="44.15053" lon="5.86893">
        <ele>603</ele>
        <time>2022-09-22T07:44:38Z</time>
      </trkpt>
      <trkpt lat="44.15054" lon="5.86893">
        <ele>604</ele>
        <time>2022-09-22T07:44:39Z</time>
      </trkpt>
      <trkpt lat="44.15054" lon="5.86892">
        <ele>604</ele>
        <time>2022-09-22T07:44:40Z</time>
      </trkpt>
      <trkpt lat="44.15055" lon="5.86892">
        <ele>604</ele>
        <time>2022-09-22T07:44:41Z</time>
      </trkpt>
      <trkpt lat="44.15056" lon="5.86891">
        <ele>604</ele>
        <time>2022-09-22T07:44:42Z</time>
      </trkpt>
      <trkpt lat="44.15056" lon="5.86891">
        <ele>604</ele>
        <time>2022-09-22T07:44:43Z</time>
      </trkpt>
      <trkpt lat="44.15057" lon="5.8689">
        <ele>604</ele>
        <time>2022-09-22T07:44:44Z</time>
      </trkpt>
      <trkpt lat="44.15058" lon="5.8689">
        <ele>604</ele>
        <time>2022-09-22T07:44:45Z</time>
      </trkpt>
      <trkpt lat="44.15058" lon="5.8689">
        <ele>604</ele>
        <time>2022-09-22T07:44:46Z</time>
      </trkpt>
      <trkpt lat="44.15058" lon="5.86889">
        <ele>604</ele>
        <time>2022-09-22T07:44:47Z</time>
      </trkpt>
      <trkpt lat="44.15059" lon="5.86889">
        <ele>604</ele>
        <time>2022-09-22T07:44:48Z</time>
      </trkpt>
      <trkpt lat="44.15059" lon="5.86889">
        <ele>605</ele>
        <time>2022-09-22T07:44:49Z</time>
      </trkpt>
      <trkpt lat="44.15059" lon="5.86889">
        <ele>605</ele>
        <time>2022-09-22T07:44:50Z</time>
      </trkpt>
      <trkpt lat="44.1506" lon="5.86888">
        <ele>605</ele>
        <time>2022-09-22T07:44:51Z</time>
      </trkpt>
      <trkpt lat="44.15061" lon="5.86887">
        <ele>605</ele>
        <time>2022-09-22T07:44:52Z</time>
      </trkpt>
      <trkpt lat="44.15061" lon="5.86887">
        <ele>605</ele>
        <time>2022-09-22T07:44:53Z</time>
      </trkpt>
      <trkpt lat="44.15062" lon="5.86886">
        <ele>605</ele>
        <time>2022-09-22T07:44:54Z</time>
      </trkpt>
      <trkpt lat="44.15062" lon="5.86886">
        <ele>605</ele>
        <time>2022-09-22T07:44:55Z</time>
      </trkpt>
      <trkpt lat="44.15063" lon="5.86885">
        <ele>605</ele>
        <time>2022-09-22T07:44:56Z</time>
      </trkpt>
      <trkpt lat="44.15064" lon="5.86884">
        <ele>605</ele>
        <time>2022-09-22T07:44:57Z</time>
      </trkpt>
      <trkpt lat="44.15064" lon="5.86884">
        <ele>605</ele>
        <time>2022-09-22T07:44:58Z</time>
      </trkpt>
      <trkpt lat="44.15065" lon="5.86883">
        <ele>606</ele>
        <time>2022-09-22T07:44:59Z</time>
      </trkpt>
      <trkpt lat="44.15065" lon="5.86883">
        <ele>606</ele>
        <time>2022-09-22T07:45:00Z</time>
      </trkpt>
      <trkpt lat="44.15066" lon="5.86882">
        <ele>606</ele>
        <time>2022-09-22T07:45:01Z</time>
      </trkpt>
      <trkpt lat="44.15067" lon="5.86882">
        <ele>606</ele>
        <time>2022-09-22T07:45:02Z</time>
      </trkpt>
      <trkpt lat="44.15067" lon="5.86881">
        <ele>606</ele>
        <time>2022-09-22T07:45:03Z</time>
      </trkpt>
      <trkpt lat="44.15068" lon="5.86881">
        <ele>606</ele>
        <time>2022-09-22T07:45:04Z</time>
      </trkpt>
      <trkpt lat="44.15069" lon="5.8688">
        <ele>606</ele>
        <time>2022-09-22T07:45:05Z</time>
      </trkpt>
      <trkpt lat="44.15069" lon="5.8688">
        <ele>606</ele>
        <time>2022-09-22T07:45:06Z</time>
      </trkpt>
      <trkpt lat="44.1507" lon="5.86879">
        <ele>606</ele>
        <time>2022-09-22T07:45:07Z</time>
      </trkpt>
      <trkpt lat="44.1507" lon="5.86879">
        <ele>606</ele>
        <time>2022-09-22T07:45:08Z</time>
      </trkpt>
      <trkpt lat="44.15071" lon="5.86878">
        <ele>607</ele>
        <time>2022-09-22T07:45:09Z</time>
      </trkpt>
      <trkpt lat="44.15072" lon="5.86878">
        <ele>607</ele>
        <time>2022-09-22T07:45:10Z</time>
      </trkpt>
      <trkpt lat="44.15073" lon="5.86877">
        <ele>607</ele>
        <time>2022-09-22T07:45:11Z</time>
      </trkpt>
      <trkpt lat="44.15073" lon="5.86877">
        <ele>607</ele>
        <time>2022-09-22T07:45:12Z</time>
      </trkpt>
      <trkpt lat="44.15074" lon="5.86876">
        <ele>607</ele>
        <time>2022-09-22T07:45:13Z</time>
      </trkpt>
      <trkpt lat="44.15075" lon="5.86876">
        <ele>607</ele>
        <time>2022-09-22T07:45:14Z</time>
      </trkpt>
      <trkpt lat="44.15076" lon="5.86875">
        <ele>607</ele>
        <time>2022-09-22T07:45:15Z</time>
      </trkpt>
      <trkpt lat="44.15077" lon="5.86875">
        <ele>607</ele>
        <time>2022-09-22T07:45:16Z</time>
      </trkpt>
      <trkpt lat="44.15077" lon="5.86874">
        <ele>607</ele>
        <time>2022-09-22T07:45:17Z</time>
      </trkpt>
      <trkpt lat="44.15078" lon="5.86874">
        <ele>607</ele>
        <time>2022-09-22T07:45:18Z</time>
      </trkpt>
      <trkpt lat="44.15079" lon="5.86874">
        <ele>607</ele>
        <time>2022-09-22T07:45:19Z</time>
      </trkpt>
      <trkpt lat="44.1508" lon="5.86873">
        <ele>607</ele>
        <time>2022-09-22T07:45:20Z</time>
      </trkpt>
      <trkpt lat="44.1508" lon="5.86873">
        <ele>607</ele>
        <time>2022-09-22T07:45:21Z</time>
      </trkpt>
      <trkpt lat="44.15081" lon="5.86873">
        <ele>607</ele>
        <time>2022-09-22T07:45:22Z</time>
      </trkpt>
      <trkpt lat="44.15082" lon="5.86872">
        <ele>607</ele>
        <time>2022-09-22T07:45:23Z</time>
      </trkpt>
      <trkpt lat="44.15083" lon="5.86872">
        <ele>608</ele>
        <time>2022-09-22T07:45:24Z</time>
      </trkpt>
      <trkpt lat="44.15083" lon="5.86872">
        <ele>608</ele>
        <time>2022-09-22T07:45:25Z</time>
      </trkpt>
      <trkpt lat="44.15084" lon="5.86871">
        <ele>608</ele>
        <time>2022-09-22T07:45:26Z</time>
      </trkpt>
      <trkpt lat="44.15085" lon="5.86871">
        <ele>608</ele>
        <time>2022-09-22T07:45:27Z</time>
      </trkpt>
      <trkpt lat="44.15085" lon="5.86871">
        <ele>608</ele>
        <time>2022-09-22T07:45:28Z</time>
      </trkpt>
      <trkpt lat="44.15085" lon="5.8687">
        <ele>608</ele>
        <time>2022-09-22T07:45:29Z</time>
      </trkpt>
      <trkpt lat="44.15086" lon="5.8687">
        <ele>608</ele>
        <time>2022-09-22T07:45:30Z</time>
      </trkpt>
      <trkpt lat="44.15086" lon="5.86869">
        <ele>608</ele>
        <time>2022-09-22T07:45:31Z</time>
      </trkpt>
      <trkpt lat="44.15087" lon="5.86869">
        <ele>608</ele>
        <time>2022-09-22T07:45:32Z</time>
      </trkpt>
      <trkpt lat="44.15088" lon="5.86868">
        <ele>608</ele>
        <time>2022-09-22T07:45:33Z</time>
      </trkpt>
      <trkpt lat="44.15089" lon="5.86868">
        <ele>608</ele>
        <time>2022-09-22T07:45:34Z</time>
      </trkpt>
      <trkpt lat="44.15089" lon="5.86867">
        <ele>608</ele>
        <time>2022-09-22T07:45:35Z</time>
      </trkpt>
      <trkpt lat="44.1509" lon="5.86867">
        <ele>608</ele>
        <time>2022-09-22T07:45:36Z</time>
      </trkpt>
      <trkpt lat="44.15091" lon="5.86866">
        <ele>608</ele>
        <time>2022-09-22T07:45:37Z</time>
      </trkpt>
      <trkpt lat="44.15091" lon="5.86866">
        <ele>608</ele>
        <time>2022-09-22T07:45:38Z</time>
      </trkpt>
      <trkpt lat="44.15092" lon="5.86865">
        <ele>609</ele>
        <time>2022-09-22T07:45:39Z</time>
      </trkpt>
      <trkpt lat="44.15093" lon="5.86865">
        <ele>609</ele>
        <time>2022-09-22T07:45:40Z</time>
      </trkpt>
      <trkpt lat="44.15094" lon="5.86865">
        <ele>609</ele>
        <time>2022-09-22T07:45:41Z</time>
      </trkpt>
      <trkpt lat="44.15094" lon="5.86864">
        <ele>609</ele>
        <time>2022-09-22T07:45:42Z</time>
      </trkpt>
      <trkpt lat="44.15095" lon="5.86864">
        <ele>609</ele>
        <time>2022-09-22T07:45:43Z</time>
      </trkpt>
      <trkpt lat="44.15096" lon="5.86864">
        <ele>610</ele>
        <time>2022-09-22T07:45:44Z</time>
      </trkpt>
      <trkpt lat="44.15097" lon="5.86864">
        <ele>610</ele>
        <time>2022-09-22T07:45:45Z</time>
      </trkpt>
      <trkpt lat="44.15097" lon="5.86864">
        <ele>610</ele>
        <time>2022-09-22T07:45:46Z</time>
      </trkpt>
      <trkpt lat="44.15098" lon="5.86864">
        <ele>610</ele>
        <time>2022-09-22T07:45:47Z</time>
      </trkpt>
      <trkpt lat="44.15099" lon="5.86864">
        <ele>610</ele>
        <time>2022-09-22T07:45:48Z</time>
      </trkpt>
      <trkpt lat="44.151" lon="5.86863">
        <ele>610</ele>
        <time>2022-09-22T07:45:49Z</time>
      </trkpt>
      <trkpt lat="44.15101" lon="5.86863">
        <ele>610</ele>
        <time>2022-09-22T07:45:50Z</time>
      </trkpt>
      <trkpt lat="44.15101" lon="5.86863">
        <ele>610</ele>
        <time>2022-09-22T07:45:51Z</time>
      </trkpt>
      <trkpt lat="44.15102" lon="5.86863">
        <ele>610</ele>
        <time>2022-09-22T07:45:52Z</time>
      </trkpt>
      <trkpt lat="44.15102" lon="5.86862">
        <ele>610</ele>
        <time>2022-09-22T07:45:53Z</time>
      </trkpt>
      <trkpt lat="44.15103" lon="5.86862">
        <ele>611</ele>
        <time>2022-09-22T07:45:54Z</time>
      </trkpt>
      <trkpt lat="44.15104" lon="5.86862">
        <ele>611</ele>
        <time>2022-09-22T07:45:55Z</time>
      </trkpt>
      <trkpt lat="44.15104" lon="5.86862">
        <ele>611</ele>
        <time>2022-09-22T07:45:56Z</time>
      </trkpt>
      <trkpt lat="44.15105" lon="5.86862">
        <ele>611</ele>
        <time>2022-09-22T07:45:57Z</time>
      </trkpt>
      <trkpt lat="44.15105" lon="5.86861">
        <ele>611</ele>
        <time>2022-09-22T07:45:58Z</time>
      </trkpt>
      <trkpt lat="44.15106" lon="5.86861">
        <ele>611</ele>
        <time>2022-09-22T07:45:59Z</time>
      </trkpt>
      <trkpt lat="44.15107" lon="5.86861">
        <ele>611</ele>
        <time>2022-09-22T07:46:00Z</time>
      </trkpt>
      <trkpt lat="44.15107" lon="5.8686">
        <ele>611</ele>
        <time>2022-09-22T07:46:01Z</time>
      </trkpt>
      <trkpt lat="44.15108" lon="5.8686">
        <ele>611</ele>
        <time>2022-09-22T07:46:02Z</time>
      </trkpt>
      <trkpt lat="44.15109" lon="5.8686">
        <ele>611</ele>
        <time>2022-09-22T07:46:03Z</time>
      </trkpt>
      <trkpt lat="44.1511" lon="5.86859">
        <ele>611</ele>
        <time>2022-09-22T07:46:04Z</time>
      </trkpt>
      <trkpt lat="44.1511" lon="5.86859">
        <ele>611</ele>
        <time>2022-09-22T07:46:05Z</time>
      </trkpt>
      <trkpt lat="44.15111" lon="5.86859">
        <ele>611</ele>
        <time>2022-09-22T07:46:06Z</time>
      </trkpt>
      <trkpt lat="44.15112" lon="5.86859">
        <ele>611</ele>
        <time>2022-09-22T07:46:07Z</time>
      </trkpt>
      <trkpt lat="44.15113" lon="5.86859">
        <ele>611</ele>
        <time>2022-09-22T07:46:08Z</time>
      </trkpt>
      <trkpt lat="44.15113" lon="5.86859">
        <ele>612</ele>
        <time>2022-09-22T07:46:09Z</time>
      </trkpt>
      <trkpt lat="44.15114" lon="5.86859">
        <ele>612</ele>
        <time>2022-09-22T07:46:10Z</time>
      </trkpt>
      <trkpt lat="44.15114" lon="5.86859">
        <ele>612</ele>
        <time>2022-09-22T07:46:11Z</time>
      </trkpt>
      <trkpt lat="44.15115" lon="5.86859">
        <ele>612</ele>
        <time>2022-09-22T07:46:12Z</time>
      </trkpt>
      <trkpt lat="44.15116" lon="5.86859">
        <ele>612</ele>
        <time>2022-09-22T07:46:13Z</time>
      </trkpt>
      <trkpt lat="44.15116" lon="5.86859">
        <ele>612</ele>
        <time>2022-09-22T07:46:14Z</time>
      </trkpt>
      <trkpt lat="44.15117" lon="5.86859">
        <ele>612</ele>
        <time>2022-09-22T07:46:15Z</time>
      </trkpt>
      <trkpt lat="44.15118" lon="5.86859">
        <ele>612</ele>
        <time>2022-09-22T07:46:16Z</time>
      </trkpt>
      <trkpt lat="44.15119" lon="5.86859">
        <ele>612</ele>
        <time>2022-09-22T07:46:17Z</time>
      </trkpt>
      <trkpt lat="44.1512" lon="5.86859">
        <ele>612</ele>
        <time>2022-09-22T07:46:18Z</time>
      </trkpt>
      <trkpt lat="44.15121" lon="5.86859">
        <ele>613</ele>
        <time>2022-09-22T07:46:19Z</time>
      </trkpt>
      <trkpt lat="44.15121" lon="5.86859">
        <ele>613</ele>
        <time>2022-09-22T07:46:20Z</time>
      </trkpt>
      <trkpt lat="44.15122" lon="5.86859">
        <ele>613</ele>
        <time>2022-09-22T07:46:21Z</time>
      </trkpt>
      <trkpt lat="44.15123" lon="5.86859">
        <ele>613</ele>
        <time>2022-09-22T07:46:22Z</time>
      </trkpt>
      <trkpt lat="44.15124" lon="5.86858">
        <ele>613</ele>
        <time>2022-09-22T07:46:23Z</time>
      </trkpt>
      <trkpt lat="44.15125" lon="5.86858">
        <ele>613</ele>
        <time>2022-09-22T07:46:24Z</time>
      </trkpt>
      <trkpt lat="44.15126" lon="5.86858">
        <ele>613</ele>
        <time>2022-09-22T07:46:25Z</time>
      </trkpt>
      <trkpt lat="44.15127" lon="5.86857">
        <ele>613</ele>
        <time>2022-09-22T07:46:26Z</time>
      </trkpt>
      <trkpt lat="44.15127" lon="5.86857">
        <ele>613</ele>
        <time>2022-09-22T07:46:27Z</time>
      </trkpt>
      <trkpt lat="44.15128" lon="5.86856">
        <ele>613</ele>
        <time>2022-09-22T07:46:28Z</time>
      </trkpt>
      <trkpt lat="44.15129" lon="5.86856">
        <ele>614</ele>
        <time>2022-09-22T07:46:29Z</time>
      </trkpt>
      <trkpt lat="44.1513" lon="5.86855">
        <ele>614</ele>
        <time>2022-09-22T07:46:30Z</time>
      </trkpt>
      <trkpt lat="44.1513" lon="5.86855">
        <ele>614</ele>
        <time>2022-09-22T07:46:31Z</time>
      </trkpt>
      <trkpt lat="44.15131" lon="5.86855">
        <ele>614</ele>
        <time>2022-09-22T07:46:32Z</time>
      </trkpt>
      <trkpt lat="44.15132" lon="5.86855">
        <ele>614</ele>
        <time>2022-09-22T07:46:33Z</time>
      </trkpt>
      <trkpt lat="44.15132" lon="5.86855">
        <ele>614</ele>
        <time>2022-09-22T07:46:34Z</time>
      </trkpt>
      <trkpt lat="44.15133" lon="5.86854">
        <ele>614</ele>
        <time>2022-09-22T07:46:35Z</time>
      </trkpt>
      <trkpt lat="44.15134" lon="5.86854">
        <ele>614</ele>
        <time>2022-09-22T07:46:36Z</time>
      </trkpt>
      <trkpt lat="44.15134" lon="5.86853">
        <ele>614</ele>
        <time>2022-09-22T07:46:37Z</time>
      </trkpt>
      <trkpt lat="44.15135" lon="5.86853">
        <ele>614</ele>
        <time>2022-09-22T07:46:38Z</time>
      </trkpt>
      <trkpt lat="44.15136" lon="5.86852">
        <ele>614</ele>
        <time>2022-09-22T07:46:39Z</time>
      </trkpt>
      <trkpt lat="44.15136" lon="5.86851">
        <ele>614</ele>
        <time>2022-09-22T07:46:40Z</time>
      </trkpt>
      <trkpt lat="44.15136" lon="5.86851">
        <ele>614</ele>
        <time>2022-09-22T07:46:41Z</time>
      </trkpt>
      <trkpt lat="44.15137" lon="5.8685">
        <ele>614</ele>
        <time>2022-09-22T07:46:42Z</time>
      </trkpt>
      <trkpt lat="44.15137" lon="5.8685">
        <ele>614</ele>
        <time>2022-09-22T07:46:43Z</time>
      </trkpt>
      <trkpt lat="44.15137" lon="5.86849">
        <ele>615</ele>
        <time>2022-09-22T07:46:44Z</time>
      </trkpt>
      <trkpt lat="44.15137" lon="5.86849">
        <ele>615</ele>
        <time>2022-09-22T07:46:45Z</time>
      </trkpt>
      <trkpt lat="44.15138" lon="5.86848">
        <ele>615</ele>
        <time>2022-09-22T07:46:46Z</time>
      </trkpt>
      <trkpt lat="44.15138" lon="5.86847">
        <ele>615</ele>
        <time>2022-09-22T07:46:47Z</time>
      </trkpt>
      <trkpt lat="44.15138" lon="5.86847">
        <ele>615</ele>
        <time>2022-09-22T07:46:48Z</time>
      </trkpt>
      <trkpt lat="44.15139" lon="5.86846">
        <ele>615</ele>
        <time>2022-09-22T07:46:49Z</time>
      </trkpt>
      <trkpt lat="44.15139" lon="5.86845">
        <ele>615</ele>
        <time>2022-09-22T07:46:50Z</time>
      </trkpt>
      <trkpt lat="44.1514" lon="5.86845">
        <ele>615</ele>
        <time>2022-09-22T07:46:51Z</time>
      </trkpt>
      <trkpt lat="44.1514" lon="5.86844">
        <ele>615</ele>
        <time>2022-09-22T07:46:52Z</time>
      </trkpt>
      <trkpt lat="44.15141" lon="5.86843">
        <ele>615</ele>
        <time>2022-09-22T07:46:53Z</time>
      </trkpt>
      <trkpt lat="44.15141" lon="5.86843">
        <ele>616</ele>
        <time>2022-09-22T07:46:54Z</time>
      </trkpt>
      <trkpt lat="44.15142" lon="5.86842">
        <ele>616</ele>
        <time>2022-09-22T07:46:55Z</time>
      </trkpt>
      <trkpt lat="44.15142" lon="5.86841">
        <ele>616</ele>
        <time>2022-09-22T07:46:56Z</time>
      </trkpt>
      <trkpt lat="44.15143" lon="5.86841">
        <ele>616</ele>
        <time>2022-09-22T07:46:57Z</time>
      </trkpt>
      <trkpt lat="44.15143" lon="5.8684">
        <ele>616</ele>
        <time>2022-09-22T07:46:58Z</time>
      </trkpt>
      <trkpt lat="44.15144" lon="5.86839">
        <ele>616</ele>
        <time>2022-09-22T07:46:59Z</time>
      </trkpt>
      <trkpt lat="44.15144" lon="5.86838">
        <ele>616</ele>
        <time>2022-09-22T07:47:00Z</time>
      </trkpt>
      <trkpt lat="44.15144" lon="5.86837">
        <ele>616</ele>
        <time>2022-09-22T07:47:01Z</time>
      </trkpt>
      <trkpt lat="44.15145" lon="5.86837">
        <ele>616</ele>
        <time>2022-09-22T07:47:02Z</time>
      </trkpt>
      <trkpt lat="44.15145" lon="5.86836">
        <ele>616</ele>
        <time>2022-09-22T07:47:03Z</time>
      </trkpt>
      <trkpt lat="44.15145" lon="5.86835">
        <ele>617</ele>
        <time>2022-09-22T07:47:04Z</time>
      </trkpt>
      <trkpt lat="44.15145" lon="5.86834">
        <ele>617</ele>
        <time>2022-09-22T07:47:05Z</time>
      </trkpt>
      <trkpt lat="44.15146" lon="5.86833">
        <ele>617</ele>
        <time>2022-09-22T07:47:06Z</time>
      </trkpt>
      <trkpt lat="44.15146" lon="5.86833">
        <ele>617</ele>
        <time>2022-09-22T07:47:07Z</time>
      </trkpt>
      <trkpt lat="44.15146" lon="5.86832">
        <ele>617</ele>
        <time>2022-09-22T07:47:08Z</time>
      </trkpt>
      <trkpt lat="44.15147" lon="5.86831">
        <ele>617</ele>
        <time>2022-09-22T07:47:09Z</time>
      </trkpt>
      <trkpt lat="44.15147" lon="5.8683">
        <ele>617</ele>
        <time>2022-09-22T07:47:10Z</time>
      </trkpt>
      <trkpt lat="44.15148" lon="5.86829">
        <ele>617</ele>
        <time>2022-09-22T07:47:11Z</time>
      </trkpt>
      <trkpt lat="44.15148" lon="5.86829">
        <ele>617</ele>
        <time>2022-09-22T07:47:12Z</time>
      </trkpt>
      <trkpt lat="44.15149" lon="5.86828">
        <ele>617</ele>
        <time>2022-09-22T07:47:13Z</time>
      </trkpt>
      <trkpt lat="44.15149" lon="5.86827">
        <ele>618</ele>
        <time>2022-09-22T07:47:14Z</time>
      </trkpt>
      <trkpt lat="44.15149" lon="5.86826">
        <ele>618</ele>
        <time>2022-09-22T07:47:15Z</time>
      </trkpt>
      <trkpt lat="44.1515" lon="5.86825">
        <ele>618</ele>
        <time>2022-09-22T07:47:16Z</time>
      </trkpt>
      <trkpt lat="44.1515" lon="5.86824">
        <ele>618</ele>
        <time>2022-09-22T07:47:17Z</time>
      </trkpt>
      <trkpt lat="44.1515" lon="5.86824">
        <ele>618</ele>
        <time>2022-09-22T07:47:18Z</time>
      </trkpt>
      <trkpt lat="44.1515" lon="5.86823">
        <ele>619</ele>
        <time>2022-09-22T07:47:19Z</time>
      </trkpt>
      <trkpt lat="44.1515" lon="5.86822">
        <ele>619</ele>
        <time>2022-09-22T07:47:20Z</time>
      </trkpt>
      <trkpt lat="44.1515" lon="5.86822">
        <ele>619</ele>
        <time>2022-09-22T07:47:21Z</time>
      </trkpt>
      <trkpt lat="44.1515" lon="5.86822">
        <ele>619</ele>
        <time>2022-09-22T07:47:22Z</time>
      </trkpt>
      <trkpt lat="44.1515" lon="5.86821">
        <ele>619</ele>
        <time>2022-09-22T07:47:23Z</time>
      </trkpt>
      <trkpt lat="44.1515" lon="5.86821">
        <ele>619</ele>
        <time>2022-09-22T07:47:24Z</time>
      </trkpt>
      <trkpt lat="44.1515" lon="5.8682">
        <ele>619</ele>
        <time>2022-09-22T07:47:25Z</time>
      </trkpt>
      <trkpt lat="44.1515" lon="5.86818">
        <ele>619</ele>
        <time>2022-09-22T07:47:26Z</time>
      </trkpt>
      <trkpt lat="44.1515" lon="5.86817">
        <ele>619</ele>
        <time>2022-09-22T07:47:27Z</time>
      </trkpt>
      <trkpt lat="44.1515" lon="5.86816">
        <ele>619</ele>
        <time>2022-09-22T07:47:28Z</time>
      </trkpt>
      <trkpt lat="44.15151" lon="5.86815">
        <ele>620</ele>
        <time>2022-09-22T07:47:29Z</time>
      </trkpt>
      <trkpt lat="44.15151" lon="5.86814">
        <ele>620</ele>
        <time>2022-09-22T07:47:30Z</time>
      </trkpt>
      <trkpt lat="44.15151" lon="5.86813">
        <ele>620</ele>
        <time>2022-09-22T07:47:31Z</time>
      </trkpt>
      <trkpt lat="44.15151" lon="5.86812">
        <ele>620</ele>
        <time>2022-09-22T07:47:32Z</time>
      </trkpt>
      <trkpt lat="44.15151" lon="5.86811">
        <ele>620</ele>
        <time>2022-09-22T07:47:33Z</time>
      </trkpt>
      <trkpt lat="44.15151" lon="5.86811">
        <ele>620</ele>
        <time>2022-09-22T07:47:34Z</time>
      </trkpt>
      <trkpt lat="44.1515" lon="5.8681">
        <ele>620</ele>
        <time>2022-09-22T07:47:35Z</time>
      </trkpt>
      <trkpt lat="44.1515" lon="5.86809">
        <ele>620</ele>
        <time>2022-09-22T07:47:36Z</time>
      </trkpt>
      <trkpt lat="44.1515" lon="5.86809">
        <ele>620</ele>
        <time>2022-09-22T07:47:37Z</time>
      </trkpt>
      <trkpt lat="44.1515" lon="5.86808">
        <ele>620</ele>
        <time>2022-09-22T07:47:38Z</time>
      </trkpt>
      <trkpt lat="44.15149" lon="5.86807">
        <ele>621</ele>
        <time>2022-09-22T07:47:39Z</time>
      </trkpt>
      <trkpt lat="44.15149" lon="5.86806">
        <ele>621</ele>
        <time>2022-09-22T07:47:40Z</time>
      </trkpt>
      <trkpt lat="44.15148" lon="5.86805">
        <ele>621</ele>
        <time>2022-09-22T07:47:41Z</time>
      </trkpt>
      <trkpt lat="44.15148" lon="5.86803">
        <ele>621</ele>
        <time>2022-09-22T07:47:42Z</time>
      </trkpt>
      <trkpt lat="44.15147" lon="5.86803">
        <ele>621</ele>
        <time>2022-09-22T07:47:43Z</time>
      </trkpt>
      <trkpt lat="44.15147" lon="5.86802">
        <ele>621</ele>
        <time>2022-09-22T07:47:44Z</time>
      </trkpt>
      <trkpt lat="44.15147" lon="5.86801">
        <ele>621</ele>
        <time>2022-09-22T07:47:45Z</time>
      </trkpt>
      <trkpt lat="44.15146" lon="5.868">
        <ele>621</ele>
        <time>2022-09-22T07:47:46Z</time>
      </trkpt>
      <trkpt lat="44.15146" lon="5.86799">
        <ele>621</ele>
        <time>2022-09-22T07:47:47Z</time>
      </trkpt>
      <trkpt lat="44.15145" lon="5.86798">
        <ele>621</ele>
        <time>2022-09-22T07:47:48Z</time>
      </trkpt>
      <trkpt lat="44.15145" lon="5.86797">
        <ele>622</ele>
        <time>2022-09-22T07:47:49Z</time>
      </trkpt>
      <trkpt lat="44.15145" lon="5.86796">
        <ele>622</ele>
        <time>2022-09-22T07:47:50Z</time>
      </trkpt>
      <trkpt lat="44.15144" lon="5.86796">
        <ele>622</ele>
        <time>2022-09-22T07:47:51Z</time>
      </trkpt>
      <trkpt lat="44.15144" lon="5.86795">
        <ele>622</ele>
        <time>2022-09-22T07:47:52Z</time>
      </trkpt>
      <trkpt lat="44.15144" lon="5.86794">
        <ele>622</ele>
        <time>2022-09-22T07:47:53Z</time>
      </trkpt>
      <trkpt lat="44.15144" lon="5.86793">
        <ele>622</ele>
        <time>2022-09-22T07:47:54Z</time>
      </trkpt>
      <trkpt lat="44.15144" lon="5.86792">
        <ele>622</ele>
        <time>2022-09-22T07:47:55Z</time>
      </trkpt>
      <trkpt lat="44.15143" lon="5.8679">
        <ele>622</ele>
        <time>2022-09-22T07:47:56Z</time>
      </trkpt>
      <trkpt lat="44.15143" lon="5.86789">
        <ele>622</ele>
        <time>2022-09-22T07:47:57Z</time>
      </trkpt>
      <trkpt lat="44.15143" lon="5.86788">
        <ele>622</ele>
        <time>2022-09-22T07:47:58Z</time>
      </trkpt>
      <trkpt lat="44.15143" lon="5.86786">
        <ele>623</ele>
        <time>2022-09-22T07:47:59Z</time>
      </trkpt>
      <trkpt lat="44.15143" lon="5.86785">
        <ele>623</ele>
        <time>2022-09-22T07:48:00Z</time>
      </trkpt>
      <trkpt lat="44.15143" lon="5.86784">
        <ele>623</ele>
        <time>2022-09-22T07:48:01Z</time>
      </trkpt>
      <trkpt lat="44.15143" lon="5.86782">
        <ele>623</ele>
        <time>2022-09-22T07:48:02Z</time>
      </trkpt>
      <trkpt lat="44.15142" lon="5.86781">
        <ele>623</ele>
        <time>2022-09-22T07:48:03Z</time>
      </trkpt>
      <trkpt lat="44.15142" lon="5.8678">
        <ele>623</ele>
        <time>2022-09-22T07:48:04Z</time>
      </trkpt>
      <trkpt lat="44.15142" lon="5.86779">
        <ele>623</ele>
        <time>2022-09-22T07:48:05Z</time>
      </trkpt>
      <trkpt lat="44.15142" lon="5.86778">
        <ele>623</ele>
        <time>2022-09-22T07:48:06Z</time>
      </trkpt>
      <trkpt lat="44.15141" lon="5.86777">
        <ele>623</ele>
        <time>2022-09-22T07:48:07Z</time>
      </trkpt>
      <trkpt lat="44.15141" lon="5.86776">
        <ele>623</ele>
        <time>2022-09-22T07:48:08Z</time>
      </trkpt>
      <trkpt lat="44.15141" lon="5.86775">
        <ele>624</ele>
        <time>2022-09-22T07:48:09Z</time>
      </trkpt>
      <trkpt lat="44.1514" lon="5.86774">
        <ele>624</ele>
        <time>2022-09-22T07:48:10Z</time>
      </trkpt>
      <trkpt lat="44.1514" lon="5.86773">
        <ele>624</ele>
        <time>2022-09-22T07:48:11Z</time>
      </trkpt>
      <trkpt lat="44.1514" lon="5.86772">
        <ele>624</ele>
        <time>2022-09-22T07:48:12Z</time>
      </trkpt>
      <trkpt lat="44.15139" lon="5.86772">
        <ele>624</ele>
        <time>2022-09-22T07:48:13Z</time>
      </trkpt>
      <trkpt lat="44.15139" lon="5.86771">
        <ele>624</ele>
        <time>2022-09-22T07:48:14Z</time>
      </trkpt>
      <trkpt lat="44.15139" lon="5.8677">
        <ele>624</ele>
        <time>2022-09-22T07:48:15Z</time>
      </trkpt>
      <trkpt lat="44.15139" lon="5.8677">
        <ele>624</ele>
        <time>2022-09-22T07:48:16Z</time>
      </trkpt>
      <trkpt lat="44.15138" lon="5.86769">
        <ele>624</ele>
        <time>2022-09-22T07:48:17Z</time>
      </trkpt>
      <trkpt lat="44.15138" lon="5.86768">
        <ele>624</ele>
        <time>2022-09-22T07:48:18Z</time>
      </trkpt>
      <trkpt lat="44.15138" lon="5.86767">
        <ele>625</ele>
        <time>2022-09-22T07:48:19Z</time>
      </trkpt>
      <trkpt lat="44.15138" lon="5.86766">
        <ele>625</ele>
        <time>2022-09-22T07:48:20Z</time>
      </trkpt>
      <trkpt lat="44.15138" lon="5.86765">
        <ele>625</ele>
        <time>2022-09-22T07:48:21Z</time>
      </trkpt>
      <trkpt lat="44.15138" lon="5.86765">
        <ele>625</ele>
        <time>2022-09-22T07:48:22Z</time>
      </trkpt>
      <trkpt lat="44.15138" lon="5.86764">
        <ele>625</ele>
        <time>2022-09-22T07:48:23Z</time>
      </trkpt>
      <trkpt lat="44.15137" lon="5.86763">
        <ele>625</ele>
        <time>2022-09-22T07:48:24Z</time>
      </trkpt>
      <trkpt lat="44.15137" lon="5.86763">
        <ele>625</ele>
        <time>2022-09-22T07:48:25Z</time>
      </trkpt>
      <trkpt lat="44.15137" lon="5.86762">
        <ele>625</ele>
        <time>2022-09-22T07:48:26Z</time>
      </trkpt>
      <trkpt lat="44.15137" lon="5.86761">
        <ele>625</ele>
        <time>2022-09-22T07:48:27Z</time>
      </trkpt>
      <trkpt lat="44.15137" lon="5.86761">
        <ele>625</ele>
        <time>2022-09-22T07:48:28Z</time>
      </trkpt>
      <trkpt lat="44.15137" lon="5.8676">
        <ele>625</ele>
        <time>2022-09-22T07:48:29Z</time>
      </trkpt>
      <trkpt lat="44.15137" lon="5.8676">
        <ele>625</ele>
        <time>2022-09-22T07:48:30Z</time>
      </trkpt>
      <trkpt lat="44.15137" lon="5.86759">
        <ele>625</ele>
        <time>2022-09-22T07:48:31Z</time>
      </trkpt>
      <trkpt lat="44.15137" lon="5.86758">
        <ele>625</ele>
        <time>2022-09-22T07:48:32Z</time>
      </trkpt>
      <trkpt lat="44.15137" lon="5.86757">
        <ele>625</ele>
        <time>2022-09-22T07:48:33Z</time>
      </trkpt>
      <trkpt lat="44.15137" lon="5.86756">
        <ele>626</ele>
        <time>2022-09-22T07:48:34Z</time>
      </trkpt>
      <trkpt lat="44.15137" lon="5.86755">
        <ele>626</ele>
        <time>2022-09-22T07:48:35Z</time>
      </trkpt>
      <trkpt lat="44.15137" lon="5.86755">
        <ele>626</ele>
        <time>2022-09-22T07:48:36Z</time>
      </trkpt>
      <trkpt lat="44.15137" lon="5.86754">
        <ele>626</ele>
        <time>2022-09-22T07:48:37Z</time>
      </trkpt>
      <trkpt lat="44.15138" lon="5.86754">
        <ele>626</ele>
        <time>2022-09-22T07:48:38Z</time>
      </trkpt>
      <trkpt lat="44.15138" lon="5.86753">
        <ele>626</ele>
        <time>2022-09-22T07:48:39Z</time>
      </trkpt>
      <trkpt lat="44.15138" lon="5.86753">
        <ele>626</ele>
        <time>2022-09-22T07:48:40Z</time>
      </trkpt>
      <trkpt lat="44.15139" lon="5.86752">
        <ele>626</ele>
        <time>2022-09-22T07:48:41Z</time>
      </trkpt>
      <trkpt lat="44.15139" lon="5.86752">
        <ele>626</ele>
        <time>2022-09-22T07:48:42Z</time>
      </trkpt>
      <trkpt lat="44.1514" lon="5.86751">
        <ele>626</ele>
        <time>2022-09-22T07:48:43Z</time>
      </trkpt>
      <trkpt lat="44.15141" lon="5.86751">
        <ele>626</ele>
        <time>2022-09-22T07:48:44Z</time>
      </trkpt>
      <trkpt lat="44.15141" lon="5.8675">
        <ele>626</ele>
        <time>2022-09-22T07:48:45Z</time>
      </trkpt>
      <trkpt lat="44.15142" lon="5.86749">
        <ele>626</ele>
        <time>2022-09-22T07:48:46Z</time>
      </trkpt>
      <trkpt lat="44.15143" lon="5.86748">
        <ele>626</ele>
        <time>2022-09-22T07:48:47Z</time>
      </trkpt>
      <trkpt lat="44.15143" lon="5.86747">
        <ele>626</ele>
        <time>2022-09-22T07:48:48Z</time>
      </trkpt>
      <trkpt lat="44.15144" lon="5.86746">
        <ele>626</ele>
        <time>2022-09-22T07:48:49Z</time>
      </trkpt>
      <trkpt lat="44.15144" lon="5.86745">
        <ele>626</ele>
        <time>2022-09-22T07:48:50Z</time>
      </trkpt>
      <trkpt lat="44.15144" lon="5.86743">
        <ele>626</ele>
        <time>2022-09-22T07:48:51Z</time>
      </trkpt>
      <trkpt lat="44.15144" lon="5.86742">
        <ele>626</ele>
        <time>2022-09-22T07:48:52Z</time>
      </trkpt>
      <trkpt lat="44.15145" lon="5.86741">
        <ele>626</ele>
        <time>2022-09-22T07:48:53Z</time>
      </trkpt>
      <trkpt lat="44.15145" lon="5.86739">
        <ele>626</ele>
        <time>2022-09-22T07:49:02Z</time>
      </trkpt>
      <trkpt lat="44.15146" lon="5.86738">
        <ele>626</ele>
        <time>2022-09-22T07:49:03Z</time>
      </trkpt>
      <trkpt lat="44.15146" lon="5.86737">
        <ele>626</ele>
        <time>2022-09-22T07:49:04Z</time>
      </trkpt>
      <trkpt lat="44.15146" lon="5.86736">
        <ele>626</ele>
        <time>2022-09-22T07:49:05Z</time>
      </trkpt>
      <trkpt lat="44.15147" lon="5.86735">
        <ele>626</ele>
        <time>2022-09-22T07:49:06Z</time>
      </trkpt>
      <trkpt lat="44.15148" lon="5.86734">
        <ele>626</ele>
        <time>2022-09-22T07:49:07Z</time>
      </trkpt>
      <trkpt lat="44.15148" lon="5.86733">
        <ele>626</ele>
        <time>2022-09-22T07:49:08Z</time>
      </trkpt>
      <trkpt lat="44.15149" lon="5.86732">
        <ele>626</ele>
        <time>2022-09-22T07:49:09Z</time>
      </trkpt>
      <trkpt lat="44.15149" lon="5.86731">
        <ele>626</ele>
        <time>2022-09-22T07:49:10Z</time>
      </trkpt>
      <trkpt lat="44.1515" lon="5.8673">
        <ele>626</ele>
        <time>2022-09-22T07:49:11Z</time>
      </trkpt>
      <trkpt lat="44.15151" lon="5.86728">
        <ele>626</ele>
        <time>2022-09-22T07:49:12Z</time>
      </trkpt>
      <trkpt lat="44.15151" lon="5.86727">
        <ele>626</ele>
        <time>2022-09-22T07:49:13Z</time>
      </trkpt>
      <trkpt lat="44.15152" lon="5.86725">
        <ele>626</ele>
        <time>2022-09-22T07:49:14Z</time>
      </trkpt>
      <trkpt lat="44.15153" lon="5.86723">
        <ele>626</ele>
        <time>2022-09-22T07:49:15Z</time>
      </trkpt>
      <trkpt lat="44.15153" lon="5.86722">
        <ele>626</ele>
        <time>2022-09-22T07:49:16Z</time>
      </trkpt>
      <trkpt lat="44.15154" lon="5.8672">
        <ele>626</ele>
        <time>2022-09-22T07:49:17Z</time>
      </trkpt>
      <trkpt lat="44.15154" lon="5.86719">
        <ele>626</ele>
        <time>2022-09-22T07:49:18Z</time>
      </trkpt>
      <trkpt lat="44.15155" lon="5.86717">
        <ele>626</ele>
        <time>2022-09-22T07:49:19Z</time>
      </trkpt>
      <trkpt lat="44.15155" lon="5.86716">
        <ele>626</ele>
        <time>2022-09-22T07:49:20Z</time>
      </trkpt>
      <trkpt lat="44.15156" lon="5.86715">
        <ele>626</ele>
        <time>2022-09-22T07:49:21Z</time>
      </trkpt>
      <trkpt lat="44.15157" lon="5.86714">
        <ele>626</ele>
        <time>2022-09-22T07:49:22Z</time>
      </trkpt>
      <trkpt lat="44.15157" lon="5.86713">
        <ele>626</ele>
        <time>2022-09-22T07:49:23Z</time>
      </trkpt>
      <trkpt lat="44.15158" lon="5.86712">
        <ele>626</ele>
        <time>2022-09-22T07:49:24Z</time>
      </trkpt>
      <trkpt lat="44.15158" lon="5.86711">
        <ele>626</ele>
        <time>2022-09-22T07:49:25Z</time>
      </trkpt>
      <trkpt lat="44.15159" lon="5.8671">
        <ele>626</ele>
        <time>2022-09-22T07:49:26Z</time>
      </trkpt>
      <trkpt lat="44.15159" lon="5.86709">
        <ele>626</ele>
        <time>2022-09-22T07:49:27Z</time>
      </trkpt>
      <trkpt lat="44.1516" lon="5.86708">
        <ele>626</ele>
        <time>2022-09-22T07:49:28Z</time>
      </trkpt>
      <trkpt lat="44.15161" lon="5.86707">
        <ele>626</ele>
        <time>2022-09-22T07:49:29Z</time>
      </trkpt>
      <trkpt lat="44.15161" lon="5.86706">
        <ele>626</ele>
        <time>2022-09-22T07:49:30Z</time>
      </trkpt>
      <trkpt lat="44.15161" lon="5.86704">
        <ele>626</ele>
        <time>2022-09-22T07:49:31Z</time>
      </trkpt>
      <trkpt lat="44.15162" lon="5.86702">
        <ele>626</ele>
        <time>2022-09-22T07:49:32Z</time>
      </trkpt>
      <trkpt lat="44.15162" lon="5.86701">
        <ele>626</ele>
        <time>2022-09-22T07:49:33Z</time>
      </trkpt>
      <trkpt lat="44.15162" lon="5.86699">
        <ele>626</ele>
        <time>2022-09-22T07:49:34Z</time>
      </trkpt>
      <trkpt lat="44.15162" lon="5.86698">
        <ele>626</ele>
        <time>2022-09-22T07:49:35Z</time>
      </trkpt>
      <trkpt lat="44.15162" lon="5.86696">
        <ele>626</ele>
        <time>2022-09-22T07:49:36Z</time>
      </trkpt>
      <trkpt lat="44.15162" lon="5.86695">
        <ele>626</ele>
        <time>2022-09-22T07:49:37Z</time>
      </trkpt>
      <trkpt lat="44.15162" lon="5.86693">
        <ele>626</ele>
        <time>2022-09-22T07:49:38Z</time>
      </trkpt>
      <trkpt lat="44.15162" lon="5.86692">
        <ele>626</ele>
        <time>2022-09-22T07:49:39Z</time>
      </trkpt>
      <trkpt lat="44.15162" lon="5.8669">
        <ele>626</ele>
        <time>2022-09-22T07:49:40Z</time>
      </trkpt>
      <trkpt lat="44.15162" lon="5.86688">
        <ele>626</ele>
        <time>2022-09-22T07:49:41Z</time>
      </trkpt>
      <trkpt lat="44.15162" lon="5.86687">
        <ele>626</ele>
        <time>2022-09-22T07:49:42Z</time>
      </trkpt>
      <trkpt lat="44.15162" lon="5.86685">
        <ele>626</ele>
        <time>2022-09-22T07:49:43Z</time>
      </trkpt>
      <trkpt lat="44.15163" lon="5.86684">
        <ele>626</ele>
        <time>2022-09-22T07:49:44Z</time>
      </trkpt>
      <trkpt lat="44.15163" lon="5.86682">
        <ele>626</ele>
        <time>2022-09-22T07:49:45Z</time>
      </trkpt>
      <trkpt lat="44.15163" lon="5.86681">
        <ele>626</ele>
        <time>2022-09-22T07:49:46Z</time>
      </trkpt>
      <trkpt lat="44.15162" lon="5.86679">
        <ele>626</ele>
        <time>2022-09-22T07:49:47Z</time>
      </trkpt>
      <trkpt lat="44.15162" lon="5.86678">
        <ele>626</ele>
        <time>2022-09-22T07:49:48Z</time>
      </trkpt>
      <trkpt lat="44.15162" lon="5.86676">
        <ele>626</ele>
        <time>2022-09-22T07:49:49Z</time>
      </trkpt>
      <trkpt lat="44.15162" lon="5.86675">
        <ele>626</ele>
        <time>2022-09-22T07:49:50Z</time>
      </trkpt>
      <trkpt lat="44.15162" lon="5.86673">
        <ele>626</ele>
        <time>2022-09-22T07:49:51Z</time>
      </trkpt>
      <trkpt lat="44.15162" lon="5.86672">
        <ele>626</ele>
        <time>2022-09-22T07:49:52Z</time>
      </trkpt>
      <trkpt lat="44.15162" lon="5.86671">
        <ele>626</ele>
        <time>2022-09-22T07:49:53Z</time>
      </trkpt>
      <trkpt lat="44.15162" lon="5.8667">
        <ele>626</ele>
        <time>2022-09-22T07:49:54Z</time>
      </trkpt>
      <trkpt lat="44.15162" lon="5.86668">
        <ele>626</ele>
        <time>2022-09-22T07:49:55Z</time>
      </trkpt>
      <trkpt lat="44.15162" lon="5.86667">
        <ele>626</ele>
        <time>2022-09-22T07:49:56Z</time>
      </trkpt>
      <trkpt lat="44.15162" lon="5.86666">
        <ele>626</ele>
        <time>2022-09-22T07:49:57Z</time>
      </trkpt>
      <trkpt lat="44.15163" lon="5.86665">
        <ele>626</ele>
        <time>2022-09-22T07:49:58Z</time>
      </trkpt>
      <trkpt lat="44.15163" lon="5.86663">
        <ele>626</ele>
        <time>2022-09-22T07:49:59Z</time>
      </trkpt>
      <trkpt lat="44.15163" lon="5.86662">
        <ele>626</ele>
        <time>2022-09-22T07:50:00Z</time>
      </trkpt>
      <trkpt lat="44.15163" lon="5.8666">
        <ele>626</ele>
        <time>2022-09-22T07:50:01Z</time>
      </trkpt>
      <trkpt lat="44.15164" lon="5.86659">
        <ele>626</ele>
        <time>2022-09-22T07:50:02Z</time>
      </trkpt>
      <trkpt lat="44.15164" lon="5.86657">
        <ele>626</ele>
        <time>2022-09-22T07:50:03Z</time>
      </trkpt>
      <trkpt lat="44.15164" lon="5.86655">
        <ele>626</ele>
        <time>2022-09-22T07:50:04Z</time>
      </trkpt>
      <trkpt lat="44.15164" lon="5.86653">
        <ele>626</ele>
        <time>2022-09-22T07:50:05Z</time>
      </trkpt>
      <trkpt lat="44.15165" lon="5.86652">
        <ele>626</ele>
        <time>2022-09-22T07:50:06Z</time>
      </trkpt>
      <trkpt lat="44.15165" lon="5.8665">
        <ele>626</ele>
        <time>2022-09-22T07:50:07Z</time>
      </trkpt>
      <trkpt lat="44.15164" lon="5.86649">
        <ele>626</ele>
        <time>2022-09-22T07:50:08Z</time>
      </trkpt>
      <trkpt lat="44.15164" lon="5.86647">
        <ele>627</ele>
        <time>2022-09-22T07:50:09Z</time>
      </trkpt>
      <trkpt lat="44.15164" lon="5.86646">
        <ele>627</ele>
        <time>2022-09-22T07:50:10Z</time>
      </trkpt>
      <trkpt lat="44.15164" lon="5.86644">
        <ele>627</ele>
        <time>2022-09-22T07:50:11Z</time>
      </trkpt>
      <trkpt lat="44.15164" lon="5.86643">
        <ele>627</ele>
        <time>2022-09-22T07:50:12Z</time>
      </trkpt>
      <trkpt lat="44.15164" lon="5.86642">
        <ele>627</ele>
        <time>2022-09-22T07:50:13Z</time>
      </trkpt>
      <trkpt lat="44.15164" lon="5.8664">
        <ele>627</ele>
        <time>2022-09-22T07:50:14Z</time>
      </trkpt>
      <trkpt lat="44.15164" lon="5.86639">
        <ele>627</ele>
        <time>2022-09-22T07:50:15Z</time>
      </trkpt>
      <trkpt lat="44.15165" lon="5.86638">
        <ele>627</ele>
        <time>2022-09-22T07:50:16Z</time>
      </trkpt>
      <trkpt lat="44.15165" lon="5.86637">
        <ele>627</ele>
        <time>2022-09-22T07:50:17Z</time>
      </trkpt>
      <trkpt lat="44.15166" lon="5.86635">
        <ele>627</ele>
        <time>2022-09-22T07:50:18Z</time>
      </trkpt>
      <trkpt lat="44.15166" lon="5.86634">
        <ele>627</ele>
        <time>2022-09-22T07:50:19Z</time>
      </trkpt>
      <trkpt lat="44.15166" lon="5.86633">
        <ele>627</ele>
        <time>2022-09-22T07:50:20Z</time>
      </trkpt>
      <trkpt lat="44.15167" lon="5.86632">
        <ele>627</ele>
        <time>2022-09-22T07:50:21Z</time>
      </trkpt>
      <trkpt lat="44.15167" lon="5.86631">
        <ele>627</ele>
        <time>2022-09-22T07:50:22Z</time>
      </trkpt>
      <trkpt lat="44.15167" lon="5.8663">
        <ele>627</ele>
        <time>2022-09-22T07:50:23Z</time>
      </trkpt>
      <trkpt lat="44.15167" lon="5.86629">
        <ele>627</ele>
        <time>2022-09-22T07:50:24Z</time>
      </trkpt>
      <trkpt lat="44.15167" lon="5.86628">
        <ele>627</ele>
        <time>2022-09-22T07:50:25Z</time>
      </trkpt>
      <trkpt lat="44.15166" lon="5.86627">
        <ele>627</ele>
        <time>2022-09-22T07:50:26Z</time>
      </trkpt>
      <trkpt lat="44.15166" lon="5.86625">
        <ele>627</ele>
        <time>2022-09-22T07:50:27Z</time>
      </trkpt>
      <trkpt lat="44.15166" lon="5.86624">
        <ele>627</ele>
        <time>2022-09-22T07:50:28Z</time>
      </trkpt>
      <trkpt lat="44.15166" lon="5.86622">
        <ele>627</ele>
        <time>2022-09-22T07:50:29Z</time>
      </trkpt>
      <trkpt lat="44.15166" lon="5.86621">
        <ele>627</ele>
        <time>2022-09-22T07:50:30Z</time>
      </trkpt>
      <trkpt lat="44.15167" lon="5.86619">
        <ele>627</ele>
        <time>2022-09-22T07:50:31Z</time>
      </trkpt>
      <trkpt lat="44.15167" lon="5.86618">
        <ele>627</ele>
        <time>2022-09-22T07:50:32Z</time>
      </trkpt>
      <trkpt lat="44.15168" lon="5.86616">
        <ele>627</ele>
        <time>2022-09-22T07:50:33Z</time>
      </trkpt>
      <trkpt lat="44.15168" lon="5.86615">
        <ele>627</ele>
        <time>2022-09-22T07:50:34Z</time>
      </trkpt>
      <trkpt lat="44.15169" lon="5.86613">
        <ele>627</ele>
        <time>2022-09-22T07:50:35Z</time>
      </trkpt>
      <trkpt lat="44.15169" lon="5.86612">
        <ele>627</ele>
        <time>2022-09-22T07:50:36Z</time>
      </trkpt>
      <trkpt lat="44.15169" lon="5.86611">
        <ele>627</ele>
        <time>2022-09-22T07:50:37Z</time>
      </trkpt>
      <trkpt lat="44.1517" lon="5.86609">
        <ele>627</ele>
        <time>2022-09-22T07:50:38Z</time>
      </trkpt>
      <trkpt lat="44.1517" lon="5.86608">
        <ele>627</ele>
        <time>2022-09-22T07:50:39Z</time>
      </trkpt>
      <trkpt lat="44.15171" lon="5.86607">
        <ele>627</ele>
        <time>2022-09-22T07:50:40Z</time>
      </trkpt>
      <trkpt lat="44.15172" lon="5.86606">
        <ele>627</ele>
        <time>2022-09-22T07:50:41Z</time>
      </trkpt>
      <trkpt lat="44.15172" lon="5.86605">
        <ele>627</ele>
        <time>2022-09-22T07:50:42Z</time>
      </trkpt>
      <trkpt lat="44.15173" lon="5.86604">
        <ele>627</ele>
        <time>2022-09-22T07:50:43Z</time>
      </trkpt>
      <trkpt lat="44.15173" lon="5.86603">
        <ele>627</ele>
        <time>2022-09-22T07:50:44Z</time>
      </trkpt>
      <trkpt lat="44.15174" lon="5.86601">
        <ele>626</ele>
        <time>2022-09-22T07:50:45Z</time>
      </trkpt>
      <trkpt lat="44.15174" lon="5.866">
        <ele>626</ele>
        <time>2022-09-22T07:50:46Z</time>
      </trkpt>
      <trkpt lat="44.15174" lon="5.86599">
        <ele>626</ele>
        <time>2022-09-22T07:50:47Z</time>
      </trkpt>
      <trkpt lat="44.15175" lon="5.86598">
        <ele>626</ele>
        <time>2022-09-22T07:50:48Z</time>
      </trkpt>
      <trkpt lat="44.15175" lon="5.86596">
        <ele>626</ele>
        <time>2022-09-22T07:50:49Z</time>
      </trkpt>
      <trkpt lat="44.15175" lon="5.86595">
        <ele>626</ele>
        <time>2022-09-22T07:50:50Z</time>
      </trkpt>
      <trkpt lat="44.15175" lon="5.86594">
        <ele>626</ele>
        <time>2022-09-22T07:50:51Z</time>
      </trkpt>
      <trkpt lat="44.15175" lon="5.86592">
        <ele>626</ele>
        <time>2022-09-22T07:50:52Z</time>
      </trkpt>
      <trkpt lat="44.15175" lon="5.86591">
        <ele>626</ele>
        <time>2022-09-22T07:50:53Z</time>
      </trkpt>
      <trkpt lat="44.15176" lon="5.8659">
        <ele>626</ele>
        <time>2022-09-22T07:50:54Z</time>
      </trkpt>
      <trkpt lat="44.15176" lon="5.86588">
        <ele>625</ele>
        <time>2022-09-22T07:50:55Z</time>
      </trkpt>
      <trkpt lat="44.15176" lon="5.86587">
        <ele>625</ele>
        <time>2022-09-22T07:50:56Z</time>
      </trkpt>
      <trkpt lat="44.15176" lon="5.86586">
        <ele>625</ele>
        <time>2022-09-22T07:50:57Z</time>
      </trkpt>
      <trkpt lat="44.15176" lon="5.86585">
        <ele>625</ele>
        <time>2022-09-22T07:50:58Z</time>
      </trkpt>
      <trkpt lat="44.15176" lon="5.86583">
        <ele>625</ele>
        <time>2022-09-22T07:50:59Z</time>
      </trkpt>
      <trkpt lat="44.15176" lon="5.86582">
        <ele>625</ele>
        <time>2022-09-22T07:51:00Z</time>
      </trkpt>
      <trkpt lat="44.15177" lon="5.86581">
        <ele>625</ele>
        <time>2022-09-22T07:51:01Z</time>
      </trkpt>
      <trkpt lat="44.15177" lon="5.8658">
        <ele>625</ele>
        <time>2022-09-22T07:51:02Z</time>
      </trkpt>
      <trkpt lat="44.15177" lon="5.86578">
        <ele>625</ele>
        <time>2022-09-22T07:51:03Z</time>
      </trkpt>
      <trkpt lat="44.15177" lon="5.86577">
        <ele>625</ele>
        <time>2022-09-22T07:51:04Z</time>
      </trkpt>
      <trkpt lat="44.15178" lon="5.86576">
        <ele>625</ele>
        <time>2022-09-22T07:51:05Z</time>
      </trkpt>
      <trkpt lat="44.15178" lon="5.86575">
        <ele>625</ele>
        <time>2022-09-22T07:51:06Z</time>
      </trkpt>
      <trkpt lat="44.15178" lon="5.86573">
        <ele>625</ele>
        <time>2022-09-22T07:51:07Z</time>
      </trkpt>
      <trkpt lat="44.15178" lon="5.86572">
        <ele>625</ele>
        <time>2022-09-22T07:51:08Z</time>
      </trkpt>
      <trkpt lat="44.15177" lon="5.86571">
        <ele>625</ele>
        <time>2022-09-22T07:51:09Z</time>
      </trkpt>
      <trkpt lat="44.15177" lon="5.86569">
        <ele>625</ele>
        <time>2022-09-22T07:51:10Z</time>
      </trkpt>
      <trkpt lat="44.15177" lon="5.86568">
        <ele>625</ele>
        <time>2022-09-22T07:51:11Z</time>
      </trkpt>
      <trkpt lat="44.15177" lon="5.86567">
        <ele>625</ele>
        <time>2022-09-22T07:51:12Z</time>
      </trkpt>
      <trkpt lat="44.15177" lon="5.86566">
        <ele>625</ele>
        <time>2022-09-22T07:51:13Z</time>
      </trkpt>
      <trkpt lat="44.15177" lon="5.86565">
        <ele>625</ele>
        <time>2022-09-22T07:51:14Z</time>
      </trkpt>
      <trkpt lat="44.15177" lon="5.86563">
        <ele>625</ele>
        <time>2022-09-22T07:51:15Z</time>
      </trkpt>
      <trkpt lat="44.15177" lon="5.86562">
        <ele>625</ele>
        <time>2022-09-22T07:51:16Z</time>
      </trkpt>
      <trkpt lat="44.15177" lon="5.86561">
        <ele>625</ele>
        <time>2022-09-22T07:51:17Z</time>
      </trkpt>
      <trkpt lat="44.15177" lon="5.86559">
        <ele>625</ele>
        <time>2022-09-22T07:51:18Z</time>
      </trkpt>
      <trkpt lat="44.15177" lon="5.86558">
        <ele>625</ele>
        <time>2022-09-22T07:51:19Z</time>
      </trkpt>
      <trkpt lat="44.15177" lon="5.86557">
        <ele>624</ele>
        <time>2022-09-22T07:51:20Z</time>
      </trkpt>
      <trkpt lat="44.15177" lon="5.86556">
        <ele>624</ele>
        <time>2022-09-22T07:51:21Z</time>
      </trkpt>
      <trkpt lat="44.15177" lon="5.86555">
        <ele>624</ele>
        <time>2022-09-22T07:51:22Z</time>
      </trkpt>
      <trkpt lat="44.15177" lon="5.86554">
        <ele>624</ele>
        <time>2022-09-22T07:51:23Z</time>
      </trkpt>
      <trkpt lat="44.15177" lon="5.86552">
        <ele>624</ele>
        <time>2022-09-22T07:51:24Z</time>
      </trkpt>
      <trkpt lat="44.15177" lon="5.86551">
        <ele>624</ele>
        <time>2022-09-22T07:51:25Z</time>
      </trkpt>
      <trkpt lat="44.15177" lon="5.8655">
        <ele>624</ele>
        <time>2022-09-22T07:51:26Z</time>
      </trkpt>
      <trkpt lat="44.15177" lon="5.86549">
        <ele>624</ele>
        <time>2022-09-22T07:51:27Z</time>
      </trkpt>
      <trkpt lat="44.15176" lon="5.86547">
        <ele>624</ele>
        <time>2022-09-22T07:51:28Z</time>
      </trkpt>
      <trkpt lat="44.15176" lon="5.86546">
        <ele>624</ele>
        <time>2022-09-22T07:51:29Z</time>
      </trkpt>
      <trkpt lat="44.15176" lon="5.86544">
        <ele>624</ele>
        <time>2022-09-22T07:51:30Z</time>
      </trkpt>
      <trkpt lat="44.15176" lon="5.86543">
        <ele>624</ele>
        <time>2022-09-22T07:51:31Z</time>
      </trkpt>
      <trkpt lat="44.15176" lon="5.86541">
        <ele>624</ele>
        <time>2022-09-22T07:51:32Z</time>
      </trkpt>
      <trkpt lat="44.15176" lon="5.8654">
        <ele>624</ele>
        <time>2022-09-22T07:51:33Z</time>
      </trkpt>
      <trkpt lat="44.15176" lon="5.86539">
        <ele>624</ele>
        <time>2022-09-22T07:51:34Z</time>
      </trkpt>
      <trkpt lat="44.15176" lon="5.86539">
        <ele>624</ele>
        <time>2022-09-22T07:51:35Z</time>
      </trkpt>
      <trkpt lat="44.15176" lon="5.86538">
        <ele>624</ele>
        <time>2022-09-22T07:51:36Z</time>
      </trkpt>
      <trkpt lat="44.15176" lon="5.86537">
        <ele>624</ele>
        <time>2022-09-22T07:51:37Z</time>
      </trkpt>
      <trkpt lat="44.15175" lon="5.86536">
        <ele>624</ele>
        <time>2022-09-22T07:51:38Z</time>
      </trkpt>
      <trkpt lat="44.15175" lon="5.86535">
        <ele>624</ele>
        <time>2022-09-22T07:51:39Z</time>
      </trkpt>
      <trkpt lat="44.15175" lon="5.86534">
        <ele>624</ele>
        <time>2022-09-22T07:51:40Z</time>
      </trkpt>
      <trkpt lat="44.15174" lon="5.86533">
        <ele>624</ele>
        <time>2022-09-22T07:51:41Z</time>
      </trkpt>
      <trkpt lat="44.15174" lon="5.86532">
        <ele>624</ele>
        <time>2022-09-22T07:51:42Z</time>
      </trkpt>
      <trkpt lat="44.15174" lon="5.86531">
        <ele>624</ele>
        <time>2022-09-22T07:51:43Z</time>
      </trkpt>
      <trkpt lat="44.15173" lon="5.86531">
        <ele>625</ele>
        <time>2022-09-22T07:51:44Z</time>
      </trkpt>
      <trkpt lat="44.15173" lon="5.8653">
        <ele>625</ele>
        <time>2022-09-22T07:51:45Z</time>
      </trkpt>
      <trkpt lat="44.15173" lon="5.86529">
        <ele>625</ele>
        <time>2022-09-22T07:51:46Z</time>
      </trkpt>
      <trkpt lat="44.15173" lon="5.86529">
        <ele>625</ele>
        <time>2022-09-22T07:51:47Z</time>
      </trkpt>
      <trkpt lat="44.15173" lon="5.86528">
        <ele>625</ele>
        <time>2022-09-22T07:51:48Z</time>
      </trkpt>
      <trkpt lat="44.15172" lon="5.86527">
        <ele>625</ele>
        <time>2022-09-22T07:51:49Z</time>
      </trkpt>
      <trkpt lat="44.15172" lon="5.86526">
        <ele>625</ele>
        <time>2022-09-22T07:51:50Z</time>
      </trkpt>
      <trkpt lat="44.15172" lon="5.86525">
        <ele>625</ele>
        <time>2022-09-22T07:51:51Z</time>
      </trkpt>
      <trkpt lat="44.15172" lon="5.86524">
        <ele>625</ele>
        <time>2022-09-22T07:51:52Z</time>
      </trkpt>
      <trkpt lat="44.15172" lon="5.86523">
        <ele>625</ele>
        <time>2022-09-22T07:51:53Z</time>
      </trkpt>
      <trkpt lat="44.15172" lon="5.86522">
        <ele>626</ele>
        <time>2022-09-22T07:51:54Z</time>
      </trkpt>
      <trkpt lat="44.15172" lon="5.86522">
        <ele>626</ele>
        <time>2022-09-22T07:51:55Z</time>
      </trkpt>
      <trkpt lat="44.15172" lon="5.86521">
        <ele>626</ele>
        <time>2022-09-22T07:51:56Z</time>
      </trkpt>
      <trkpt lat="44.15172" lon="5.8652">
        <ele>626</ele>
        <time>2022-09-22T07:51:57Z</time>
      </trkpt>
      <trkpt lat="44.15172" lon="5.86519">
        <ele>626</ele>
        <time>2022-09-22T07:51:58Z</time>
      </trkpt>
      <trkpt lat="44.15172" lon="5.86517">
        <ele>626</ele>
        <time>2022-09-22T07:51:59Z</time>
      </trkpt>
      <trkpt lat="44.15172" lon="5.86517">
        <ele>626</ele>
        <time>2022-09-22T07:52:00Z</time>
      </trkpt>
      <trkpt lat="44.15173" lon="5.86516">
        <ele>626</ele>
        <time>2022-09-22T07:52:01Z</time>
      </trkpt>
      <trkpt lat="44.15173" lon="5.86515">
        <ele>626</ele>
        <time>2022-09-22T07:52:02Z</time>
      </trkpt>
      <trkpt lat="44.15173" lon="5.86514">
        <ele>626</ele>
        <time>2022-09-22T07:52:03Z</time>
      </trkpt>
      <trkpt lat="44.15172" lon="5.86513">
        <ele>627</ele>
        <time>2022-09-22T07:52:04Z</time>
      </trkpt>
      <trkpt lat="44.15172" lon="5.86512">
        <ele>627</ele>
        <time>2022-09-22T07:52:05Z</time>
      </trkpt>
      <trkpt lat="44.15172" lon="5.86511">
        <ele>627</ele>
        <time>2022-09-22T07:52:06Z</time>
      </trkpt>
      <trkpt lat="44.15172" lon="5.8651">
        <ele>627</ele>
        <time>2022-09-22T07:52:07Z</time>
      </trkpt>
      <trkpt lat="44.15172" lon="5.8651">
        <ele>627</ele>
        <time>2022-09-22T07:52:08Z</time>
      </trkpt>
      <trkpt lat="44.15172" lon="5.86509">
        <ele>627</ele>
        <time>2022-09-22T07:52:09Z</time>
      </trkpt>
      <trkpt lat="44.15172" lon="5.86508">
        <ele>627</ele>
        <time>2022-09-22T07:52:10Z</time>
      </trkpt>
      <trkpt lat="44.15172" lon="5.86508">
        <ele>627</ele>
        <time>2022-09-22T07:52:11Z</time>
      </trkpt>
      <trkpt lat="44.15171" lon="5.86507">
        <ele>628</ele>
        <time>2022-09-22T07:52:12Z</time>
      </trkpt>
      <trkpt lat="44.15171" lon="5.86506">
        <ele>628</ele>
        <time>2022-09-22T07:52:13Z</time>
      </trkpt>
      <trkpt lat="44.15171" lon="5.86506">
        <ele>629</ele>
        <time>2022-09-22T07:52:14Z</time>
      </trkpt>
      <trkpt lat="44.1517" lon="5.86505">
        <ele>629</ele>
        <time>2022-09-22T07:52:15Z</time>
      </trkpt>
      <trkpt lat="44.1517" lon="5.86505">
        <ele>629</ele>
        <time>2022-09-22T07:52:16Z</time>
      </trkpt>
      <trkpt lat="44.1517" lon="5.86504">
        <ele>629</ele>
        <time>2022-09-22T07:52:17Z</time>
      </trkpt>
      <trkpt lat="44.15169" lon="5.86503">
        <ele>629</ele>
        <time>2022-09-22T07:52:18Z</time>
      </trkpt>
      <trkpt lat="44.15169" lon="5.86502">
        <ele>629</ele>
        <time>2022-09-22T07:52:19Z</time>
      </trkpt>
      <trkpt lat="44.15169" lon="5.86502">
        <ele>629</ele>
        <time>2022-09-22T07:52:20Z</time>
      </trkpt>
      <trkpt lat="44.15169" lon="5.86501">
        <ele>629</ele>
        <time>2022-09-22T07:52:21Z</time>
      </trkpt>
      <trkpt lat="44.15169" lon="5.86501">
        <ele>629</ele>
        <time>2022-09-22T07:52:22Z</time>
      </trkpt>
      <trkpt lat="44.15169" lon="5.865">
        <ele>629</ele>
        <time>2022-09-22T07:52:23Z</time>
      </trkpt>
      <trkpt lat="44.15169" lon="5.86499">
        <ele>630</ele>
        <time>2022-09-22T07:52:24Z</time>
      </trkpt>
      <trkpt lat="44.15169" lon="5.86498">
        <ele>630</ele>
        <time>2022-09-22T07:52:25Z</time>
      </trkpt>
      <trkpt lat="44.15169" lon="5.86498">
        <ele>630</ele>
        <time>2022-09-22T07:52:26Z</time>
      </trkpt>
      <trkpt lat="44.15169" lon="5.86497">
        <ele>630</ele>
        <time>2022-09-22T07:52:27Z</time>
      </trkpt>
      <trkpt lat="44.15169" lon="5.86497">
        <ele>630</ele>
        <time>2022-09-22T07:52:28Z</time>
      </trkpt>
      <trkpt lat="44.15169" lon="5.86496">
        <ele>631</ele>
        <time>2022-09-22T07:52:29Z</time>
      </trkpt>
      <trkpt lat="44.15169" lon="5.86495">
        <ele>631</ele>
        <time>2022-09-22T07:52:30Z</time>
      </trkpt>
      <trkpt lat="44.15168" lon="5.86495">
        <ele>631</ele>
        <time>2022-09-22T07:52:31Z</time>
      </trkpt>
      <trkpt lat="44.15168" lon="5.86494">
        <ele>631</ele>
        <time>2022-09-22T07:52:32Z</time>
      </trkpt>
      <trkpt lat="44.15168" lon="5.86494">
        <ele>631</ele>
        <time>2022-09-22T07:52:33Z</time>
      </trkpt>
      <trkpt lat="44.15168" lon="5.86494">
        <ele>631</ele>
        <time>2022-09-22T07:52:34Z</time>
      </trkpt>
      <trkpt lat="44.15168" lon="5.86493">
        <ele>631</ele>
        <time>2022-09-22T07:52:35Z</time>
      </trkpt>
      <trkpt lat="44.15168" lon="5.86493">
        <ele>631</ele>
        <time>2022-09-22T07:52:36Z</time>
      </trkpt>
      <trkpt lat="44.15168" lon="5.86492">
        <ele>631</ele>
        <time>2022-09-22T07:52:37Z</time>
      </trkpt>
      <trkpt lat="44.15169" lon="5.86491">
        <ele>631</ele>
        <time>2022-09-22T07:52:38Z</time>
      </trkpt>
      <trkpt lat="44.15169" lon="5.8649">
        <ele>632</ele>
        <time>2022-09-22T07:52:39Z</time>
      </trkpt>
      <trkpt lat="44.15169" lon="5.8649">
        <ele>632</ele>
        <time>2022-09-22T07:52:40Z</time>
      </trkpt>
      <trkpt lat="44.15169" lon="5.86489">
        <ele>632</ele>
        <time>2022-09-22T07:52:41Z</time>
      </trkpt>
      <trkpt lat="44.15169" lon="5.86488">
        <ele>632</ele>
        <time>2022-09-22T07:52:42Z</time>
      </trkpt>
      <trkpt lat="44.15169" lon="5.86488">
        <ele>632</ele>
        <time>2022-09-22T07:52:43Z</time>
      </trkpt>
      <trkpt lat="44.15168" lon="5.86486">
        <ele>633</ele>
        <time>2022-09-22T07:52:44Z</time>
      </trkpt>
      <trkpt lat="44.15168" lon="5.86485">
        <ele>633</ele>
        <time>2022-09-22T07:52:45Z</time>
      </trkpt>
      <trkpt lat="44.15168" lon="5.86484">
        <ele>633</ele>
        <time>2022-09-22T07:52:46Z</time>
      </trkpt>
      <trkpt lat="44.15168" lon="5.86483">
        <ele>633</ele>
        <time>2022-09-22T07:52:47Z</time>
      </trkpt>
      <trkpt lat="44.15169" lon="5.86482">
        <ele>633</ele>
        <time>2022-09-22T07:52:48Z</time>
      </trkpt>
      <trkpt lat="44.15169" lon="5.86481">
        <ele>633</ele>
        <time>2022-09-22T07:52:49Z</time>
      </trkpt>
      <trkpt lat="44.15168" lon="5.8648">
        <ele>633</ele>
        <time>2022-09-22T07:52:50Z</time>
      </trkpt>
      <trkpt lat="44.15168" lon="5.86479">
        <ele>633</ele>
        <time>2022-09-22T07:52:51Z</time>
      </trkpt>
      <trkpt lat="44.15168" lon="5.86477">
        <ele>633</ele>
        <time>2022-09-22T07:52:52Z</time>
      </trkpt>
      <trkpt lat="44.15168" lon="5.86476">
        <ele>633</ele>
        <time>2022-09-22T07:52:53Z</time>
      </trkpt>
      <trkpt lat="44.15169" lon="5.86474">
        <ele>634</ele>
        <time>2022-09-22T07:52:54Z</time>
      </trkpt>
      <trkpt lat="44.15169" lon="5.86473">
        <ele>634</ele>
        <time>2022-09-22T07:52:55Z</time>
      </trkpt>
      <trkpt lat="44.15169" lon="5.86471">
        <ele>634</ele>
        <time>2022-09-22T07:52:56Z</time>
      </trkpt>
      <trkpt lat="44.15169" lon="5.8647">
        <ele>634</ele>
        <time>2022-09-22T07:52:57Z</time>
      </trkpt>
      <trkpt lat="44.15169" lon="5.86469">
        <ele>634</ele>
        <time>2022-09-22T07:52:58Z</time>
      </trkpt>
      <trkpt lat="44.15169" lon="5.86467">
        <ele>634</ele>
        <time>2022-09-22T07:52:59Z</time>
      </trkpt>
      <trkpt lat="44.15169" lon="5.86466">
        <ele>634</ele>
        <time>2022-09-22T07:53:00Z</time>
      </trkpt>
      <trkpt lat="44.15169" lon="5.86466">
        <ele>634</ele>
        <time>2022-09-22T07:53:01Z</time>
      </trkpt>
      <trkpt lat="44.15169" lon="5.86465">
        <ele>634</ele>
        <time>2022-09-22T07:53:02Z</time>
      </trkpt>
      <trkpt lat="44.15169" lon="5.86464">
        <ele>634</ele>
        <time>2022-09-22T07:53:03Z</time>
      </trkpt>
      <trkpt lat="44.15169" lon="5.86463">
        <ele>634</ele>
        <time>2022-09-22T07:53:04Z</time>
      </trkpt>
      <trkpt lat="44.15169" lon="5.86463">
        <ele>634</ele>
        <time>2022-09-22T07:53:05Z</time>
      </trkpt>
      <trkpt lat="44.15169" lon="5.86462">
        <ele>634</ele>
        <time>2022-09-22T07:53:06Z</time>
      </trkpt>
      <trkpt lat="44.15169" lon="5.86461">
        <ele>634</ele>
        <time>2022-09-22T07:53:07Z</time>
      </trkpt>
      <trkpt lat="44.15169" lon="5.8646">
        <ele>634</ele>
        <time>2022-09-22T07:53:08Z</time>
      </trkpt>
      <trkpt lat="44.15169" lon="5.86459">
        <ele>635</ele>
        <time>2022-09-22T07:53:09Z</time>
      </trkpt>
      <trkpt lat="44.1517" lon="5.86458">
        <ele>635</ele>
        <time>2022-09-22T07:53:10Z</time>
      </trkpt>
      <trkpt lat="44.1517" lon="5.86457">
        <ele>635</ele>
        <time>2022-09-22T07:53:11Z</time>
      </trkpt>
      <trkpt lat="44.1517" lon="5.86456">
        <ele>635</ele>
        <time>2022-09-22T07:53:12Z</time>
      </trkpt>
      <trkpt lat="44.1517" lon="5.86455">
        <ele>635</ele>
        <time>2022-09-22T07:53:13Z</time>
      </trkpt>
      <trkpt lat="44.1517" lon="5.86455">
        <ele>635</ele>
        <time>2022-09-22T07:53:14Z</time>
      </trkpt>
      <trkpt lat="44.1517" lon="5.86454">
        <ele>635</ele>
        <time>2022-09-22T07:53:15Z</time>
      </trkpt>
      <trkpt lat="44.1517" lon="5.86453">
        <ele>635</ele>
        <time>2022-09-22T07:53:16Z</time>
      </trkpt>
      <trkpt lat="44.1517" lon="5.86452">
        <ele>635</ele>
        <time>2022-09-22T07:53:17Z</time>
      </trkpt>
      <trkpt lat="44.1517" lon="5.8645">
        <ele>637</ele>
        <time>2022-09-22T07:53:27Z</time>
      </trkpt>
      <trkpt lat="44.15171" lon="5.86448">
        <ele>637</ele>
        <time>2022-09-22T07:53:28Z</time>
      </trkpt>
      <trkpt lat="44.15171" lon="5.86447">
        <ele>637</ele>
        <time>2022-09-22T07:53:29Z</time>
      </trkpt>
      <trkpt lat="44.15171" lon="5.86446">
        <ele>637</ele>
        <time>2022-09-22T07:53:30Z</time>
      </trkpt>
      <trkpt lat="44.15171" lon="5.86445">
        <ele>637</ele>
        <time>2022-09-22T07:53:31Z</time>
      </trkpt>
      <trkpt lat="44.15171" lon="5.86444">
        <ele>638</ele>
        <time>2022-09-22T07:53:32Z</time>
      </trkpt>
      <trkpt lat="44.15171" lon="5.86443">
        <ele>638</ele>
        <time>2022-09-22T07:53:33Z</time>
      </trkpt>
      <trkpt lat="44.15171" lon="5.86442">
        <ele>639</ele>
        <time>2022-09-22T07:53:34Z</time>
      </trkpt>
      <trkpt lat="44.15171" lon="5.86441">
        <ele>639</ele>
        <time>2022-09-22T07:53:35Z</time>
      </trkpt>
      <trkpt lat="44.15171" lon="5.8644">
        <ele>639</ele>
        <time>2022-09-22T07:53:36Z</time>
      </trkpt>
      <trkpt lat="44.15171" lon="5.86439">
        <ele>639</ele>
        <time>2022-09-22T07:53:37Z</time>
      </trkpt>
      <trkpt lat="44.15171" lon="5.86438">
        <ele>639</ele>
        <time>2022-09-22T07:53:38Z</time>
      </trkpt>
      <trkpt lat="44.15171" lon="5.86438">
        <ele>639</ele>
        <time>2022-09-22T07:53:39Z</time>
      </trkpt>
      <trkpt lat="44.1517" lon="5.86437">
        <ele>639</ele>
        <time>2022-09-22T07:53:40Z</time>
      </trkpt>
      <trkpt lat="44.1517" lon="5.86437">
        <ele>639</ele>
        <time>2022-09-22T07:53:41Z</time>
      </trkpt>
      <trkpt lat="44.1517" lon="5.86436">
        <ele>639</ele>
        <time>2022-09-22T07:53:42Z</time>
      </trkpt>
      <trkpt lat="44.1517" lon="5.86436">
        <ele>639</ele>
        <time>2022-09-22T07:53:43Z</time>
      </trkpt>
      <trkpt lat="44.1517" lon="5.86435">
        <ele>639</ele>
        <time>2022-09-22T07:53:44Z</time>
      </trkpt>
      <trkpt lat="44.1517" lon="5.86434">
        <ele>639</ele>
        <time>2022-09-22T07:53:45Z</time>
      </trkpt>
      <trkpt lat="44.1517" lon="5.86433">
        <ele>639</ele>
        <time>2022-09-22T07:53:46Z</time>
      </trkpt>
      <trkpt lat="44.1517" lon="5.86432">
        <ele>639</ele>
        <time>2022-09-22T07:53:47Z</time>
      </trkpt>
      <trkpt lat="44.1517" lon="5.8643">
        <ele>639</ele>
        <time>2022-09-22T07:53:48Z</time>
      </trkpt>
      <trkpt lat="44.1517" lon="5.86429">
        <ele>640</ele>
        <time>2022-09-22T07:53:49Z</time>
      </trkpt>
      <trkpt lat="44.1517" lon="5.86428">
        <ele>640</ele>
        <time>2022-09-22T07:53:50Z</time>
      </trkpt>
      <trkpt lat="44.1517" lon="5.86427">
        <ele>640</ele>
        <time>2022-09-22T07:53:51Z</time>
      </trkpt>
      <trkpt lat="44.1517" lon="5.86426">
        <ele>640</ele>
        <time>2022-09-22T07:53:52Z</time>
      </trkpt>
      <trkpt lat="44.1517" lon="5.86425">
        <ele>640</ele>
        <time>2022-09-22T07:53:53Z</time>
      </trkpt>
      <trkpt lat="44.1517" lon="5.86424">
        <ele>640</ele>
        <time>2022-09-22T07:53:54Z</time>
      </trkpt>
      <trkpt lat="44.15171" lon="5.86423">
        <ele>640</ele>
        <time>2022-09-22T07:53:55Z</time>
      </trkpt>
      <trkpt lat="44.15171" lon="5.86423">
        <ele>640</ele>
        <time>2022-09-22T07:53:56Z</time>
      </trkpt>
      <trkpt lat="44.15171" lon="5.86423">
        <ele>640</ele>
        <time>2022-09-22T07:53:57Z</time>
      </trkpt>
      <trkpt lat="44.15171" lon="5.86422">
        <ele>640</ele>
        <time>2022-09-22T07:53:58Z</time>
      </trkpt>
      <trkpt lat="44.15171" lon="5.86421">
        <ele>641</ele>
        <time>2022-09-22T07:53:59Z</time>
      </trkpt>
      <trkpt lat="44.15171" lon="5.86421">
        <ele>641</ele>
        <time>2022-09-22T07:54:00Z</time>
      </trkpt>
      <trkpt lat="44.15171" lon="5.8642">
        <ele>641</ele>
        <time>2022-09-22T07:54:01Z</time>
      </trkpt>
      <trkpt lat="44.15171" lon="5.86419">
        <ele>641</ele>
        <time>2022-09-22T07:54:02Z</time>
      </trkpt>
      <trkpt lat="44.15171" lon="5.86418">
        <ele>641</ele>
        <time>2022-09-22T07:54:03Z</time>
      </trkpt>
      <trkpt lat="44.15171" lon="5.86417">
        <ele>641</ele>
        <time>2022-09-22T07:54:04Z</time>
      </trkpt>
      <trkpt lat="44.1517" lon="5.86416">
        <ele>641</ele>
        <time>2022-09-22T07:54:05Z</time>
      </trkpt>
      <trkpt lat="44.1517" lon="5.86415">
        <ele>641</ele>
        <time>2022-09-22T07:54:06Z</time>
      </trkpt>
      <trkpt lat="44.1517" lon="5.86414">
        <ele>641</ele>
        <time>2022-09-22T07:54:07Z</time>
      </trkpt>
      <trkpt lat="44.1517" lon="5.86413">
        <ele>641</ele>
        <time>2022-09-22T07:54:08Z</time>
      </trkpt>
      <trkpt lat="44.1517" lon="5.86412">
        <ele>642</ele>
        <time>2022-09-22T07:54:09Z</time>
      </trkpt>
      <trkpt lat="44.1517" lon="5.86411">
        <ele>642</ele>
        <time>2022-09-22T07:54:10Z</time>
      </trkpt>
      <trkpt lat="44.1517" lon="5.8641">
        <ele>642</ele>
        <time>2022-09-22T07:54:11Z</time>
      </trkpt>
      <trkpt lat="44.1517" lon="5.86409">
        <ele>642</ele>
        <time>2022-09-22T07:54:12Z</time>
      </trkpt>
      <trkpt lat="44.1517" lon="5.86409">
        <ele>642</ele>
        <time>2022-09-22T07:54:13Z</time>
      </trkpt>
      <trkpt lat="44.1517" lon="5.86408">
        <ele>642</ele>
        <time>2022-09-22T07:54:14Z</time>
      </trkpt>
      <trkpt lat="44.1517" lon="5.86408">
        <ele>642</ele>
        <time>2022-09-22T07:54:15Z</time>
      </trkpt>
      <trkpt lat="44.1517" lon="5.86407">
        <ele>642</ele>
        <time>2022-09-22T07:54:16Z</time>
      </trkpt>
      <trkpt lat="44.1517" lon="5.86406">
        <ele>642</ele>
        <time>2022-09-22T07:54:17Z</time>
      </trkpt>
      <trkpt lat="44.15169" lon="5.86405">
        <ele>642</ele>
        <time>2022-09-22T07:54:18Z</time>
      </trkpt>
      <trkpt lat="44.15169" lon="5.86404">
        <ele>643</ele>
        <time>2022-09-22T07:54:19Z</time>
      </trkpt>
      <trkpt lat="44.15169" lon="5.86403">
        <ele>643</ele>
        <time>2022-09-22T07:54:20Z</time>
      </trkpt>
      <trkpt lat="44.15169" lon="5.86402">
        <ele>643</ele>
        <time>2022-09-22T07:54:21Z</time>
      </trkpt>
      <trkpt lat="44.15169" lon="5.86401">
        <ele>643</ele>
        <time>2022-09-22T07:54:22Z</time>
      </trkpt>
      <trkpt lat="44.15168" lon="5.864">
        <ele>643</ele>
        <time>2022-09-22T07:54:23Z</time>
      </trkpt>
      <trkpt lat="44.15168" lon="5.86399">
        <ele>644</ele>
        <time>2022-09-22T07:54:24Z</time>
      </trkpt>
      <trkpt lat="44.15168" lon="5.86397">
        <ele>644</ele>
        <time>2022-09-22T07:54:25Z</time>
      </trkpt>
      <trkpt lat="44.15168" lon="5.86396">
        <ele>644</ele>
        <time>2022-09-22T07:54:26Z</time>
      </trkpt>
      <trkpt lat="44.15168" lon="5.86395">
        <ele>644</ele>
        <time>2022-09-22T07:54:27Z</time>
      </trkpt>
      <trkpt lat="44.15168" lon="5.86394">
        <ele>644</ele>
        <time>2022-09-22T07:54:28Z</time>
      </trkpt>
      <trkpt lat="44.15168" lon="5.86392">
        <ele>644</ele>
        <time>2022-09-22T07:54:29Z</time>
      </trkpt>
      <trkpt lat="44.15168" lon="5.86391">
        <ele>644</ele>
        <time>2022-09-22T07:54:30Z</time>
      </trkpt>
      <trkpt lat="44.15168" lon="5.8639">
        <ele>644</ele>
        <time>2022-09-22T07:54:31Z</time>
      </trkpt>
      <trkpt lat="44.15168" lon="5.86389">
        <ele>644</ele>
        <time>2022-09-22T07:54:32Z</time>
      </trkpt>
      <trkpt lat="44.15168" lon="5.86389">
        <ele>644</ele>
        <time>2022-09-22T07:54:33Z</time>
      </trkpt>
      <trkpt lat="44.15168" lon="5.86388">
        <ele>645</ele>
        <time>2022-09-22T07:54:34Z</time>
      </trkpt>
      <trkpt lat="44.15168" lon="5.86387">
        <ele>645</ele>
        <time>2022-09-22T07:54:35Z</time>
      </trkpt>
      <trkpt lat="44.15168" lon="5.86385">
        <ele>645</ele>
        <time>2022-09-22T07:54:36Z</time>
      </trkpt>
      <trkpt lat="44.15169" lon="5.86384">
        <ele>645</ele>
        <time>2022-09-22T07:54:37Z</time>
      </trkpt>
      <trkpt lat="44.15169" lon="5.86383">
        <ele>645</ele>
        <time>2022-09-22T07:54:38Z</time>
      </trkpt>
      <trkpt lat="44.15169" lon="5.86382">
        <ele>646</ele>
        <time>2022-09-22T07:54:39Z</time>
      </trkpt>
      <trkpt lat="44.15169" lon="5.8638">
        <ele>646</ele>
        <time>2022-09-22T07:54:40Z</time>
      </trkpt>
      <trkpt lat="44.1517" lon="5.86379">
        <ele>646</ele>
        <time>2022-09-22T07:54:41Z</time>
      </trkpt>
      <trkpt lat="44.1517" lon="5.86378">
        <ele>646</ele>
        <time>2022-09-22T07:54:42Z</time>
      </trkpt>
      <trkpt lat="44.1517" lon="5.86377">
        <ele>646</ele>
        <time>2022-09-22T07:54:43Z</time>
      </trkpt>
      <trkpt lat="44.1517" lon="5.86376">
        <ele>646</ele>
        <time>2022-09-22T07:54:44Z</time>
      </trkpt>
      <trkpt lat="44.1517" lon="5.86375">
        <ele>646</ele>
        <time>2022-09-22T07:54:45Z</time>
      </trkpt>
      <trkpt lat="44.1517" lon="5.86374">
        <ele>646</ele>
        <time>2022-09-22T07:54:46Z</time>
      </trkpt>
      <trkpt lat="44.1517" lon="5.86373">
        <ele>646</ele>
        <time>2022-09-22T07:54:47Z</time>
      </trkpt>
      <trkpt lat="44.1517" lon="5.86372">
        <ele>646</ele>
        <time>2022-09-22T07:54:48Z</time>
      </trkpt>
      <trkpt lat="44.1517" lon="5.86371">
        <ele>647</ele>
        <time>2022-09-22T07:54:49Z</time>
      </trkpt>
      <trkpt lat="44.1517" lon="5.8637">
        <ele>647</ele>
        <time>2022-09-22T07:54:50Z</time>
      </trkpt>
      <trkpt lat="44.15171" lon="5.86368">
        <ele>647</ele>
        <time>2022-09-22T07:54:51Z</time>
      </trkpt>
      <trkpt lat="44.15171" lon="5.86367">
        <ele>647</ele>
        <time>2022-09-22T07:54:52Z</time>
      </trkpt>
      <trkpt lat="44.15171" lon="5.86366">
        <ele>647</ele>
        <time>2022-09-22T07:54:53Z</time>
      </trkpt>
      <trkpt lat="44.15171" lon="5.86365">
        <ele>647</ele>
        <time>2022-09-22T07:54:54Z</time>
      </trkpt>
      <trkpt lat="44.15171" lon="5.86364">
        <ele>647</ele>
        <time>2022-09-22T07:54:55Z</time>
      </trkpt>
      <trkpt lat="44.15171" lon="5.86363">
        <ele>647</ele>
        <time>2022-09-22T07:54:56Z</time>
      </trkpt>
      <trkpt lat="44.15171" lon="5.86362">
        <ele>647</ele>
        <time>2022-09-22T07:54:57Z</time>
      </trkpt>
      <trkpt lat="44.15171" lon="5.8636">
        <ele>647</ele>
        <time>2022-09-22T07:54:58Z</time>
      </trkpt>
      <trkpt lat="44.15171" lon="5.86359">
        <ele>648</ele>
        <time>2022-09-22T07:54:59Z</time>
      </trkpt>
      <trkpt lat="44.15171" lon="5.86358">
        <ele>648</ele>
        <time>2022-09-22T07:55:00Z</time>
      </trkpt>
      <trkpt lat="44.15171" lon="5.86357">
        <ele>648</ele>
        <time>2022-09-22T07:55:01Z</time>
      </trkpt>
      <trkpt lat="44.15171" lon="5.86357">
        <ele>648</ele>
        <time>2022-09-22T07:55:02Z</time>
      </trkpt>
      <trkpt lat="44.15171" lon="5.86355">
        <ele>648</ele>
        <time>2022-09-22T07:55:03Z</time>
      </trkpt>
      <trkpt lat="44.15171" lon="5.86354">
        <ele>648</ele>
        <time>2022-09-22T07:55:04Z</time>
      </trkpt>
      <trkpt lat="44.15171" lon="5.86353">
        <ele>648</ele>
        <time>2022-09-22T07:55:05Z</time>
      </trkpt>
      <trkpt lat="44.1517" lon="5.86352">
        <ele>648</ele>
        <time>2022-09-22T07:55:06Z</time>
      </trkpt>
      <trkpt lat="44.1517" lon="5.86352">
        <ele>648</ele>
        <time>2022-09-22T07:55:07Z</time>
      </trkpt>
      <trkpt lat="44.1517" lon="5.86351">
        <ele>648</ele>
        <time>2022-09-22T07:55:08Z</time>
      </trkpt>
      <trkpt lat="44.1517" lon="5.8635">
        <ele>649</ele>
        <time>2022-09-22T07:55:09Z</time>
      </trkpt>
      <trkpt lat="44.1517" lon="5.86349">
        <ele>649</ele>
        <time>2022-09-22T07:55:10Z</time>
      </trkpt>
      <trkpt lat="44.1517" lon="5.86348">
        <ele>649</ele>
        <time>2022-09-22T07:55:11Z</time>
      </trkpt>
      <trkpt lat="44.1517" lon="5.86347">
        <ele>649</ele>
        <time>2022-09-22T07:55:12Z</time>
      </trkpt>
      <trkpt lat="44.1517" lon="5.86346">
        <ele>649</ele>
        <time>2022-09-22T07:55:13Z</time>
      </trkpt>
      <trkpt lat="44.1517" lon="5.86345">
        <ele>649</ele>
        <time>2022-09-22T07:55:14Z</time>
      </trkpt>
      <trkpt lat="44.15169" lon="5.86344">
        <ele>649</ele>
        <time>2022-09-22T07:55:15Z</time>
      </trkpt>
      <trkpt lat="44.15169" lon="5.86343">
        <ele>649</ele>
        <time>2022-09-22T07:55:16Z</time>
      </trkpt>
      <trkpt lat="44.15169" lon="5.86342">
        <ele>649</ele>
        <time>2022-09-22T07:55:17Z</time>
      </trkpt>
      <trkpt lat="44.15169" lon="5.86342">
        <ele>649</ele>
        <time>2022-09-22T07:55:18Z</time>
      </trkpt>
      <trkpt lat="44.15169" lon="5.86341">
        <ele>650</ele>
        <time>2022-09-22T07:55:19Z</time>
      </trkpt>
      <trkpt lat="44.15169" lon="5.86341">
        <ele>650</ele>
        <time>2022-09-22T07:55:20Z</time>
      </trkpt>
      <trkpt lat="44.15169" lon="5.86339">
        <ele>650</ele>
        <time>2022-09-22T07:55:21Z</time>
      </trkpt>
      <trkpt lat="44.15169" lon="5.86338">
        <ele>650</ele>
        <time>2022-09-22T07:55:22Z</time>
      </trkpt>
      <trkpt lat="44.15169" lon="5.86335">
        <ele>650</ele>
        <time>2022-09-22T07:55:28Z</time>
      </trkpt>
      <trkpt lat="44.15169" lon="5.86334">
        <ele>651</ele>
        <time>2022-09-22T07:55:29Z</time>
      </trkpt>
      <trkpt lat="44.15169" lon="5.86333">
        <ele>651</ele>
        <time>2022-09-22T07:55:30Z</time>
      </trkpt>
      <trkpt lat="44.15169" lon="5.86332">
        <ele>651</ele>
        <time>2022-09-22T07:55:31Z</time>
      </trkpt>
      <trkpt lat="44.15169" lon="5.86332">
        <ele>651</ele>
        <time>2022-09-22T07:55:32Z</time>
      </trkpt>
      <trkpt lat="44.15169" lon="5.86331">
        <ele>651</ele>
        <time>2022-09-22T07:55:33Z</time>
      </trkpt>
      <trkpt lat="44.15169" lon="5.86331">
        <ele>651</ele>
        <time>2022-09-22T07:55:34Z</time>
      </trkpt>
      <trkpt lat="44.15169" lon="5.86331">
        <ele>651</ele>
        <time>2022-09-22T07:55:35Z</time>
      </trkpt>
      <trkpt lat="44.15169" lon="5.8633">
        <ele>651</ele>
        <time>2022-09-22T07:55:36Z</time>
      </trkpt>
      <trkpt lat="44.15168" lon="5.8633">
        <ele>651</ele>
        <time>2022-09-22T07:55:37Z</time>
      </trkpt>
      <trkpt lat="44.15168" lon="5.8633">
        <ele>651</ele>
        <time>2022-09-22T07:55:38Z</time>
      </trkpt>
      <trkpt lat="44.15168" lon="5.86329">
        <ele>652</ele>
        <time>2022-09-22T07:55:39Z</time>
      </trkpt>
      <trkpt lat="44.15167" lon="5.86328">
        <ele>652</ele>
        <time>2022-09-22T07:55:40Z</time>
      </trkpt>
      <trkpt lat="44.15167" lon="5.86327">
        <ele>652</ele>
        <time>2022-09-22T07:55:41Z</time>
      </trkpt>
      <trkpt lat="44.15167" lon="5.86326">
        <ele>652</ele>
        <time>2022-09-22T07:55:42Z</time>
      </trkpt>
      <trkpt lat="44.15167" lon="5.86325">
        <ele>652</ele>
        <time>2022-09-22T07:55:43Z</time>
      </trkpt>
      <trkpt lat="44.15167" lon="5.86325">
        <ele>653</ele>
        <time>2022-09-22T07:55:44Z</time>
      </trkpt>
      <trkpt lat="44.15167" lon="5.86325">
        <ele>653</ele>
        <time>2022-09-22T07:55:45Z</time>
      </trkpt>
      <trkpt lat="44.15166" lon="5.86324">
        <ele>653</ele>
        <time>2022-09-22T07:55:46Z</time>
      </trkpt>
      <trkpt lat="44.15166" lon="5.86324">
        <ele>653</ele>
        <time>2022-09-22T07:55:47Z</time>
      </trkpt>
      <trkpt lat="44.15166" lon="5.86323">
        <ele>653</ele>
        <time>2022-09-22T07:55:48Z</time>
      </trkpt>
      <trkpt lat="44.15166" lon="5.86322">
        <ele>653</ele>
        <time>2022-09-22T07:55:49Z</time>
      </trkpt>
      <trkpt lat="44.15165" lon="5.86322">
        <ele>653</ele>
        <time>2022-09-22T07:55:50Z</time>
      </trkpt>
      <trkpt lat="44.15165" lon="5.86321">
        <ele>653</ele>
        <time>2022-09-22T07:55:51Z</time>
      </trkpt>
      <trkpt lat="44.15164" lon="5.8632">
        <ele>654</ele>
        <time>2022-09-22T07:55:57Z</time>
      </trkpt>
      <trkpt lat="44.15164" lon="5.86319">
        <ele>654</ele>
        <time>2022-09-22T07:55:58Z</time>
      </trkpt>
      <trkpt lat="44.15164" lon="5.86317">
        <ele>655</ele>
        <time>2022-09-22T07:55:59Z</time>
      </trkpt>
      <trkpt lat="44.15164" lon="5.86317">
        <ele>655</ele>
        <time>2022-09-22T07:56:00Z</time>
      </trkpt>
      <trkpt lat="44.15164" lon="5.86316">
        <ele>655</ele>
        <time>2022-09-22T07:56:01Z</time>
      </trkpt>
      <trkpt lat="44.15164" lon="5.86315">
        <ele>655</ele>
        <time>2022-09-22T07:56:02Z</time>
      </trkpt>
      <trkpt lat="44.15163" lon="5.86314">
        <ele>655</ele>
        <time>2022-09-22T07:56:03Z</time>
      </trkpt>
      <trkpt lat="44.15163" lon="5.86313">
        <ele>656</ele>
        <time>2022-09-22T07:56:04Z</time>
      </trkpt>
      <trkpt lat="44.15163" lon="5.86312">
        <ele>656</ele>
        <time>2022-09-22T07:56:05Z</time>
      </trkpt>
      <trkpt lat="44.15163" lon="5.86311">
        <ele>656</ele>
        <time>2022-09-22T07:56:06Z</time>
      </trkpt>
      <trkpt lat="44.15163" lon="5.8631">
        <ele>656</ele>
        <time>2022-09-22T07:56:07Z</time>
      </trkpt>
      <trkpt lat="44.15163" lon="5.86309">
        <ele>656</ele>
        <time>2022-09-22T07:56:08Z</time>
      </trkpt>
      <trkpt lat="44.15163" lon="5.86308">
        <ele>656</ele>
        <time>2022-09-22T07:56:09Z</time>
      </trkpt>
      <trkpt lat="44.15163" lon="5.86308">
        <ele>656</ele>
        <time>2022-09-22T07:56:10Z</time>
      </trkpt>
      <trkpt lat="44.15163" lon="5.86307">
        <ele>656</ele>
        <time>2022-09-22T07:56:11Z</time>
      </trkpt>
      <trkpt lat="44.15163" lon="5.86306">
        <ele>656</ele>
        <time>2022-09-22T07:56:12Z</time>
      </trkpt>
      <trkpt lat="44.15162" lon="5.86306">
        <ele>656</ele>
        <time>2022-09-22T07:56:13Z</time>
      </trkpt>
      <trkpt lat="44.15162" lon="5.86305">
        <ele>657</ele>
        <time>2022-09-22T07:56:14Z</time>
      </trkpt>
      <trkpt lat="44.1516" lon="5.86294">
        <ele>665</ele>
        <time>2022-09-22T08:03:28Z</time>
      </trkpt>
      <trkpt lat="44.15159" lon="5.86289">
        <ele>665</ele>
        <time>2022-09-22T08:03:29Z</time>
      </trkpt>
      <trkpt lat="44.15158" lon="5.86283">
        <ele>665</ele>
        <time>2022-09-22T08:03:30Z</time>
      </trkpt>
      <trkpt lat="44.15158" lon="5.86281">
        <ele>665</ele>
        <time>2022-09-22T08:03:31Z</time>
      </trkpt>
      <trkpt lat="44.15158" lon="5.86279">
        <ele>665</ele>
        <time>2022-09-22T08:03:32Z</time>
      </trkpt>
      <trkpt lat="44.15158" lon="5.86278">
        <ele>665</ele>
        <time>2022-09-22T08:03:33Z</time>
      </trkpt>
      <trkpt lat="44.15158" lon="5.86277">
        <ele>665</ele>
        <time>2022-09-22T08:03:34Z</time>
      </trkpt>
      <trkpt lat="44.15158" lon="5.86276">
        <ele>665</ele>
        <time>2022-09-22T08:03:35Z</time>
      </trkpt>
      <trkpt lat="44.15158" lon="5.86274">
        <ele>665</ele>
        <time>2022-09-22T08:03:36Z</time>
      </trkpt>
      <trkpt lat="44.15158" lon="5.86273">
        <ele>665</ele>
        <time>2022-09-22T08:03:37Z</time>
      </trkpt>
      <trkpt lat="44.15158" lon="5.86272">
        <ele>665</ele>
        <time>2022-09-22T08:03:38Z</time>
      </trkpt>
      <trkpt lat="44.15158" lon="5.86271">
        <ele>665</ele>
        <time>2022-09-22T08:03:39Z</time>
      </trkpt>
      <trkpt lat="44.15158" lon="5.8627">
        <ele>665</ele>
        <time>2022-09-22T08:03:40Z</time>
      </trkpt>
      <trkpt lat="44.15158" lon="5.86269">
        <ele>665</ele>
        <time>2022-09-22T08:03:41Z</time>
      </trkpt>
      <trkpt lat="44.15158" lon="5.86268">
        <ele>665</ele>
        <time>2022-09-22T08:03:42Z</time>
      </trkpt>
      <trkpt lat="44.15158" lon="5.86267">
        <ele>665</ele>
        <time>2022-09-22T08:03:43Z</time>
      </trkpt>
      <trkpt lat="44.15158" lon="5.86266">
        <ele>666</ele>
        <time>2022-09-22T08:03:44Z</time>
      </trkpt>
      <trkpt lat="44.15158" lon="5.86265">
        <ele>666</ele>
        <time>2022-09-22T08:03:45Z</time>
      </trkpt>
      <trkpt lat="44.15158" lon="5.86264">
        <ele>666</ele>
        <time>2022-09-22T08:03:46Z</time>
      </trkpt>
      <trkpt lat="44.15158" lon="5.86263">
        <ele>666</ele>
        <time>2022-09-22T08:03:47Z</time>
      </trkpt>
      <trkpt lat="44.15158" lon="5.86262">
        <ele>666</ele>
        <time>2022-09-22T08:03:48Z</time>
      </trkpt>
      <trkpt lat="44.15159" lon="5.86261">
        <ele>666</ele>
        <time>2022-09-22T08:03:49Z</time>
      </trkpt>
      <trkpt lat="44.15159" lon="5.8626">
        <ele>666</ele>
        <time>2022-09-22T08:03:50Z</time>
      </trkpt>
      <trkpt lat="44.15159" lon="5.86259">
        <ele>666</ele>
        <time>2022-09-22T08:03:51Z</time>
      </trkpt>
      <trkpt lat="44.15158" lon="5.86258">
        <ele>666</ele>
        <time>2022-09-22T08:03:52Z</time>
      </trkpt>
      <trkpt lat="44.15158" lon="5.86257">
        <ele>666</ele>
        <time>2022-09-22T08:03:53Z</time>
      </trkpt>
      <trkpt lat="44.15158" lon="5.86256">
        <ele>666</ele>
        <time>2022-09-22T08:03:54Z</time>
      </trkpt>
      <trkpt lat="44.15158" lon="5.86254">
        <ele>666</ele>
        <time>2022-09-22T08:03:55Z</time>
      </trkpt>
      <trkpt lat="44.15158" lon="5.86253">
        <ele>666</ele>
        <time>2022-09-22T08:03:56Z</time>
      </trkpt>
      <trkpt lat="44.15158" lon="5.86252">
        <ele>666</ele>
        <time>2022-09-22T08:03:57Z</time>
      </trkpt>
      <trkpt lat="44.15158" lon="5.86251">
        <ele>666</ele>
        <time>2022-09-22T08:03:58Z</time>
      </trkpt>
      <trkpt lat="44.15158" lon="5.8625">
        <ele>667</ele>
        <time>2022-09-22T08:03:59Z</time>
      </trkpt>
      <trkpt lat="44.15158" lon="5.8625">
        <ele>667</ele>
        <time>2022-09-22T08:04:00Z</time>
      </trkpt>
      <trkpt lat="44.15158" lon="5.86249">
        <ele>667</ele>
        <time>2022-09-22T08:04:01Z</time>
      </trkpt>
      <trkpt lat="44.15158" lon="5.86248">
        <ele>667</ele>
        <time>2022-09-22T08:04:02Z</time>
      </trkpt>
      <trkpt lat="44.15158" lon="5.86247">
        <ele>667</ele>
        <time>2022-09-22T08:04:03Z</time>
      </trkpt>
      <trkpt lat="44.15158" lon="5.86246">
        <ele>668</ele>
        <time>2022-09-22T08:04:04Z</time>
      </trkpt>
      <trkpt lat="44.15158" lon="5.86245">
        <ele>668</ele>
        <time>2022-09-22T08:04:05Z</time>
      </trkpt>
      <trkpt lat="44.15158" lon="5.86243">
        <ele>668</ele>
        <time>2022-09-22T08:04:06Z</time>
      </trkpt>
      <trkpt lat="44.15158" lon="5.86242">
        <ele>668</ele>
        <time>2022-09-22T08:04:07Z</time>
      </trkpt>
      <trkpt lat="44.15158" lon="5.8624">
        <ele>668</ele>
        <time>2022-09-22T08:04:08Z</time>
      </trkpt>
      <trkpt lat="44.15158" lon="5.86239">
        <ele>669</ele>
        <time>2022-09-22T08:04:09Z</time>
      </trkpt>
      <trkpt lat="44.15158" lon="5.86238">
        <ele>669</ele>
        <time>2022-09-22T08:04:10Z</time>
      </trkpt>
      <trkpt lat="44.15158" lon="5.86237">
        <ele>669</ele>
        <time>2022-09-22T08:04:11Z</time>
      </trkpt>
      <trkpt lat="44.15158" lon="5.86236">
        <ele>669</ele>
        <time>2022-09-22T08:04:12Z</time>
      </trkpt>
      <trkpt lat="44.15158" lon="5.86235">
        <ele>669</ele>
        <time>2022-09-22T08:04:13Z</time>
      </trkpt>
      <trkpt lat="44.15159" lon="5.86234">
        <ele>669</ele>
        <time>2022-09-22T08:04:14Z</time>
      </trkpt>
      <trkpt lat="44.15159" lon="5.86233">
        <ele>669</ele>
        <time>2022-09-22T08:04:15Z</time>
      </trkpt>
      <trkpt lat="44.15159" lon="5.86233">
        <ele>669</ele>
        <time>2022-09-22T08:04:16Z</time>
      </trkpt>
      <trkpt lat="44.15159" lon="5.86232">
        <ele>669</ele>
        <time>2022-09-22T08:04:17Z</time>
      </trkpt>
      <trkpt lat="44.15159" lon="5.86231">
        <ele>669</ele>
        <time>2022-09-22T08:04:18Z</time>
      </trkpt>
      <trkpt lat="44.15159" lon="5.8623">
        <ele>670</ele>
        <time>2022-09-22T08:04:19Z</time>
      </trkpt>
      <trkpt lat="44.15159" lon="5.86229">
        <ele>670</ele>
        <time>2022-09-22T08:04:20Z</time>
      </trkpt>
      <trkpt lat="44.15159" lon="5.86228">
        <ele>670</ele>
        <time>2022-09-22T08:04:21Z</time>
      </trkpt>
      <trkpt lat="44.15159" lon="5.86227">
        <ele>671</ele>
        <time>2022-09-22T08:04:22Z</time>
      </trkpt>
      <trkpt lat="44.1516" lon="5.86227">
        <ele>671</ele>
        <time>2022-09-22T08:04:23Z</time>
      </trkpt>
      <trkpt lat="44.1516" lon="5.86225">
        <ele>672</ele>
        <time>2022-09-22T08:04:24Z</time>
      </trkpt>
      <trkpt lat="44.1516" lon="5.86224">
        <ele>672</ele>
        <time>2022-09-22T08:04:25Z</time>
      </trkpt>
      <trkpt lat="44.1516" lon="5.86223">
        <ele>672</ele>
        <time>2022-09-22T08:04:26Z</time>
      </trkpt>
      <trkpt lat="44.1516" lon="5.86222">
        <ele>672</ele>
        <time>2022-09-22T08:04:27Z</time>
      </trkpt>
      <trkpt lat="44.1516" lon="5.86221">
        <ele>672</ele>
        <time>2022-09-22T08:04:28Z</time>
      </trkpt>
      <trkpt lat="44.1516" lon="5.8622">
        <ele>673</ele>
        <time>2022-09-22T08:04:29Z</time>
      </trkpt>
      <trkpt lat="44.1516" lon="5.86219">
        <ele>673</ele>
        <time>2022-09-22T08:04:30Z</time>
      </trkpt>
      <trkpt lat="44.1516" lon="5.86217">
        <ele>673</ele>
        <time>2022-09-22T08:04:31Z</time>
      </trkpt>
      <trkpt lat="44.1516" lon="5.86217">
        <ele>673</ele>
        <time>2022-09-22T08:04:32Z</time>
      </trkpt>
      <trkpt lat="44.1516" lon="5.86216">
        <ele>673</ele>
        <time>2022-09-22T08:04:33Z</time>
      </trkpt>
      <trkpt lat="44.1516" lon="5.86215">
        <ele>673</ele>
        <time>2022-09-22T08:04:34Z</time>
      </trkpt>
      <trkpt lat="44.1516" lon="5.86214">
        <ele>673</ele>
        <time>2022-09-22T08:04:35Z</time>
      </trkpt>
      <trkpt lat="44.1516" lon="5.86213">
        <ele>673</ele>
        <time>2022-09-22T08:04:36Z</time>
      </trkpt>
      <trkpt lat="44.1516" lon="5.86212">
        <ele>673</ele>
        <time>2022-09-22T08:04:37Z</time>
      </trkpt>
      <trkpt lat="44.1516" lon="5.86211">
        <ele>673</ele>
        <time>2022-09-22T08:04:38Z</time>
      </trkpt>
      <trkpt lat="44.1516" lon="5.8621">
        <ele>674</ele>
        <time>2022-09-22T08:04:39Z</time>
      </trkpt>
      <trkpt lat="44.1516" lon="5.8621">
        <ele>674</ele>
        <time>2022-09-22T08:04:40Z</time>
      </trkpt>
      <trkpt lat="44.15161" lon="5.86209">
        <ele>674</ele>
        <time>2022-09-22T08:04:41Z</time>
      </trkpt>
      <trkpt lat="44.15161" lon="5.86208">
        <ele>674</ele>
        <time>2022-09-22T08:04:42Z</time>
      </trkpt>
      <trkpt lat="44.15161" lon="5.86208">
        <ele>674</ele>
        <time>2022-09-22T08:04:43Z</time>
      </trkpt>
      <trkpt lat="44.15161" lon="5.86207">
        <ele>675</ele>
        <time>2022-09-22T08:04:44Z</time>
      </trkpt>
      <trkpt lat="44.15161" lon="5.86206">
        <ele>675</ele>
        <time>2022-09-22T08:04:45Z</time>
      </trkpt>
      <trkpt lat="44.15161" lon="5.86205">
        <ele>675</ele>
        <time>2022-09-22T08:04:46Z</time>
      </trkpt>
      <trkpt lat="44.15161" lon="5.86204">
        <ele>675</ele>
        <time>2022-09-22T08:04:47Z</time>
      </trkpt>
      <trkpt lat="44.15161" lon="5.86203">
        <ele>675</ele>
        <time>2022-09-22T08:04:48Z</time>
      </trkpt>
      <trkpt lat="44.1516" lon="5.86201">
        <ele>676</ele>
        <time>2022-09-22T08:04:49Z</time>
      </trkpt>
      <trkpt lat="44.1516" lon="5.862">
        <ele>676</ele>
        <time>2022-09-22T08:04:50Z</time>
      </trkpt>
      <trkpt lat="44.1516" lon="5.86199">
        <ele>676</ele>
        <time>2022-09-22T08:04:51Z</time>
      </trkpt>
      <trkpt lat="44.1516" lon="5.86198">
        <ele>676</ele>
        <time>2022-09-22T08:04:52Z</time>
      </trkpt>
      <trkpt lat="44.15159" lon="5.86197">
        <ele>676</ele>
        <time>2022-09-22T08:04:53Z</time>
      </trkpt>
      <trkpt lat="44.15159" lon="5.86193">
        <ele>676</ele>
        <time>2022-09-22T08:05:08Z</time>
      </trkpt>
      <trkpt lat="44.15159" lon="5.86191">
        <ele>677</ele>
        <time>2022-09-22T08:05:09Z</time>
      </trkpt>
      <trkpt lat="44.15159" lon="5.86189">
        <ele>677</ele>
        <time>2022-09-22T08:05:10Z</time>
      </trkpt>
      <trkpt lat="44.15159" lon="5.86188">
        <ele>677</ele>
        <time>2022-09-22T08:05:11Z</time>
      </trkpt>
      <trkpt lat="44.15159" lon="5.86187">
        <ele>678</ele>
        <time>2022-09-22T08:05:12Z</time>
      </trkpt>
      <trkpt lat="44.15159" lon="5.86186">
        <ele>678</ele>
        <time>2022-09-22T08:05:13Z</time>
      </trkpt>
      <trkpt lat="44.15159" lon="5.86185">
        <ele>679</ele>
        <time>2022-09-22T08:05:14Z</time>
      </trkpt>
      <trkpt lat="44.15159" lon="5.86184">
        <ele>679</ele>
        <time>2022-09-22T08:05:15Z</time>
      </trkpt>
      <trkpt lat="44.15159" lon="5.86182">
        <ele>679</ele>
        <time>2022-09-22T08:05:16Z</time>
      </trkpt>
      <trkpt lat="44.15159" lon="5.86181">
        <ele>679</ele>
        <time>2022-09-22T08:05:17Z</time>
      </trkpt>
      <trkpt lat="44.15159" lon="5.86176">
        <ele>683</ele>
        <time>2022-09-22T08:05:34Z</time>
      </trkpt>
      <trkpt lat="44.15159" lon="5.86173">
        <ele>683</ele>
        <time>2022-09-22T08:05:35Z</time>
      </trkpt>
      <trkpt lat="44.15159" lon="5.8617">
        <ele>683</ele>
        <time>2022-09-22T08:05:36Z</time>
      </trkpt>
      <trkpt lat="44.15159" lon="5.86168">
        <ele>683</ele>
        <time>2022-09-22T08:05:37Z</time>
      </trkpt>
      <trkpt lat="44.15159" lon="5.86166">
        <ele>683</ele>
        <time>2022-09-22T08:05:38Z</time>
      </trkpt>
      <trkpt lat="44.15157" lon="5.8616">
        <ele>685</ele>
        <time>2022-09-22T08:05:52Z</time>
      </trkpt>
      <trkpt lat="44.15157" lon="5.86158">
        <ele>685</ele>
        <time>2022-09-22T08:05:53Z</time>
      </trkpt>
      <trkpt lat="44.15156" lon="5.86156">
        <ele>686</ele>
        <time>2022-09-22T08:05:54Z</time>
      </trkpt>
      <trkpt lat="44.15156" lon="5.86154">
        <ele>686</ele>
        <time>2022-09-22T08:05:55Z</time>
      </trkpt>
      <trkpt lat="44.15156" lon="5.86153">
        <ele>686</ele>
        <time>2022-09-22T08:05:56Z</time>
      </trkpt>
      <trkpt lat="44.15156" lon="5.86152">
        <ele>686</ele>
        <time>2022-09-22T08:05:57Z</time>
      </trkpt>
      <trkpt lat="44.15156" lon="5.8615">
        <ele>686</ele>
        <time>2022-09-22T08:05:58Z</time>
      </trkpt>
      <trkpt lat="44.15156" lon="5.8615">
        <ele>686</ele>
        <time>2022-09-22T08:05:59Z</time>
      </trkpt>
      <trkpt lat="44.15155" lon="5.86149">
        <ele>686</ele>
        <time>2022-09-22T08:06:00Z</time>
      </trkpt>
      <trkpt lat="44.15155" lon="5.86148">
        <ele>686</ele>
        <time>2022-09-22T08:06:01Z</time>
      </trkpt>
      <trkpt lat="44.15155" lon="5.86147">
        <ele>686</ele>
        <time>2022-09-22T08:06:02Z</time>
      </trkpt>
      <trkpt lat="44.15155" lon="5.86146">
        <ele>686</ele>
        <time>2022-09-22T08:06:03Z</time>
      </trkpt>
      <trkpt lat="44.15155" lon="5.86145">
        <ele>687</ele>
        <time>2022-09-22T08:06:04Z</time>
      </trkpt>
      <trkpt lat="44.15155" lon="5.86144">
        <ele>687</ele>
        <time>2022-09-22T08:06:05Z</time>
      </trkpt>
      <trkpt lat="44.15155" lon="5.86144">
        <ele>687</ele>
        <time>2022-09-22T08:06:06Z</time>
      </trkpt>
      <trkpt lat="44.15155" lon="5.86143">
        <ele>687</ele>
        <time>2022-09-22T08:06:07Z</time>
      </trkpt>
      <trkpt lat="44.15155" lon="5.86142">
        <ele>687</ele>
        <time>2022-09-22T08:06:08Z</time>
      </trkpt>
      <trkpt lat="44.15155" lon="5.86142">
        <ele>688</ele>
        <time>2022-09-22T08:06:09Z</time>
      </trkpt>
      <trkpt lat="44.15155" lon="5.86141">
        <ele>688</ele>
        <time>2022-09-22T08:06:10Z</time>
      </trkpt>
      <trkpt lat="44.15154" lon="5.8614">
        <ele>688</ele>
        <time>2022-09-22T08:06:11Z</time>
      </trkpt>
      <trkpt lat="44.15154" lon="5.86139">
        <ele>688</ele>
        <time>2022-09-22T08:06:12Z</time>
      </trkpt>
      <trkpt lat="44.15154" lon="5.86138">
        <ele>688</ele>
        <time>2022-09-22T08:06:13Z</time>
      </trkpt>
      <trkpt lat="44.15153" lon="5.86137">
        <ele>689</ele>
        <time>2022-09-22T08:06:14Z</time>
      </trkpt>
      <trkpt lat="44.15153" lon="5.86136">
        <ele>689</ele>
        <time>2022-09-22T08:06:15Z</time>
      </trkpt>
      <trkpt lat="44.15153" lon="5.86135">
        <ele>689</ele>
        <time>2022-09-22T08:06:16Z</time>
      </trkpt>
      <trkpt lat="44.15153" lon="5.86134">
        <ele>689</ele>
        <time>2022-09-22T08:06:17Z</time>
      </trkpt>
      <trkpt lat="44.15153" lon="5.86133">
        <ele>689</ele>
        <time>2022-09-22T08:06:18Z</time>
      </trkpt>
      <trkpt lat="44.15152" lon="5.86132">
        <ele>690</ele>
        <time>2022-09-22T08:06:19Z</time>
      </trkpt>
      <trkpt lat="44.15152" lon="5.86132">
        <ele>690</ele>
        <time>2022-09-22T08:06:20Z</time>
      </trkpt>
      <trkpt lat="44.15152" lon="5.86131">
        <ele>690</ele>
        <time>2022-09-22T08:06:21Z</time>
      </trkpt>
      <trkpt lat="44.15152" lon="5.8613">
        <ele>690</ele>
        <time>2022-09-22T08:06:22Z</time>
      </trkpt>
      <trkpt lat="44.15152" lon="5.86129">
        <ele>690</ele>
        <time>2022-09-22T08:06:23Z</time>
      </trkpt>
      <trkpt lat="44.15152" lon="5.86129">
        <ele>690</ele>
        <time>2022-09-22T08:06:24Z</time>
      </trkpt>
      <trkpt lat="44.15152" lon="5.86129">
        <ele>690</ele>
        <time>2022-09-22T08:06:25Z</time>
      </trkpt>
      <trkpt lat="44.15152" lon="5.86128">
        <ele>690</ele>
        <time>2022-09-22T08:06:26Z</time>
      </trkpt>
      <trkpt lat="44.15152" lon="5.86128">
        <ele>690</ele>
        <time>2022-09-22T08:06:27Z</time>
      </trkpt>
      <trkpt lat="44.15152" lon="5.86126">
        <ele>690</ele>
        <time>2022-09-22T08:06:28Z</time>
      </trkpt>
      <trkpt lat="44.15152" lon="5.86125">
        <ele>691</ele>
        <time>2022-09-22T08:06:29Z</time>
      </trkpt>
      <trkpt lat="44.15152" lon="5.86124">
        <ele>691</ele>
        <time>2022-09-22T08:06:30Z</time>
      </trkpt>
      <trkpt lat="44.15152" lon="5.86123">
        <ele>691</ele>
        <time>2022-09-22T08:06:31Z</time>
      </trkpt>
      <trkpt lat="44.15152" lon="5.86122">
        <ele>691</ele>
        <time>2022-09-22T08:06:32Z</time>
      </trkpt>
      <trkpt lat="44.15152" lon="5.8612">
        <ele>691</ele>
        <time>2022-09-22T08:06:33Z</time>
      </trkpt>
      <trkpt lat="44.15152" lon="5.8612">
        <ele>692</ele>
        <time>2022-09-22T08:06:34Z</time>
      </trkpt>
      <trkpt lat="44.15152" lon="5.86119">
        <ele>692</ele>
        <time>2022-09-22T08:06:35Z</time>
      </trkpt>
      <trkpt lat="44.15152" lon="5.86119">
        <ele>692</ele>
        <time>2022-09-22T08:06:36Z</time>
      </trkpt>
      <trkpt lat="44.15151" lon="5.86118">
        <ele>692</ele>
        <time>2022-09-22T08:06:37Z</time>
      </trkpt>
      <trkpt lat="44.15151" lon="5.86117">
        <ele>692</ele>
        <time>2022-09-22T08:06:38Z</time>
      </trkpt>
      <trkpt lat="44.15151" lon="5.86117">
        <ele>692</ele>
        <time>2022-09-22T08:06:39Z</time>
      </trkpt>
      <trkpt lat="44.15151" lon="5.86116">
        <ele>692</ele>
        <time>2022-09-22T08:06:40Z</time>
      </trkpt>
      <trkpt lat="44.15151" lon="5.86115">
        <ele>692</ele>
        <time>2022-09-22T08:06:41Z</time>
      </trkpt>
      <trkpt lat="44.15151" lon="5.86114">
        <ele>692</ele>
        <time>2022-09-22T08:06:42Z</time>
      </trkpt>
      <trkpt lat="44.1515" lon="5.86114">
        <ele>692</ele>
        <time>2022-09-22T08:06:43Z</time>
      </trkpt>
      <trkpt lat="44.1515" lon="5.86113">
        <ele>693</ele>
        <time>2022-09-22T08:06:44Z</time>
      </trkpt>
      <trkpt lat="44.1515" lon="5.86113">
        <ele>693</ele>
        <time>2022-09-22T08:06:45Z</time>
      </trkpt>
      <trkpt lat="44.1515" lon="5.86112">
        <ele>693</ele>
        <time>2022-09-22T08:06:46Z</time>
      </trkpt>
      <trkpt lat="44.15149" lon="5.86111">
        <ele>693</ele>
        <time>2022-09-22T08:06:47Z</time>
      </trkpt>
      <trkpt lat="44.15149" lon="5.8611">
        <ele>693</ele>
        <time>2022-09-22T08:06:48Z</time>
      </trkpt>
      <trkpt lat="44.15149" lon="5.8611">
        <ele>694</ele>
        <time>2022-09-22T08:06:49Z</time>
      </trkpt>
      <trkpt lat="44.15148" lon="5.86109">
        <ele>694</ele>
        <time>2022-09-22T08:06:50Z</time>
      </trkpt>
      <trkpt lat="44.15148" lon="5.86108">
        <ele>694</ele>
        <time>2022-09-22T08:06:51Z</time>
      </trkpt>
      <trkpt lat="44.15147" lon="5.86107">
        <ele>694</ele>
        <time>2022-09-22T08:06:52Z</time>
      </trkpt>
      <trkpt lat="44.15147" lon="5.86107">
        <ele>694</ele>
        <time>2022-09-22T08:06:53Z</time>
      </trkpt>
      <trkpt lat="44.15147" lon="5.86106">
        <ele>694</ele>
        <time>2022-09-22T08:06:54Z</time>
      </trkpt>
      <trkpt lat="44.15146" lon="5.86105">
        <ele>694</ele>
        <time>2022-09-22T08:06:55Z</time>
      </trkpt>
      <trkpt lat="44.15146" lon="5.86105">
        <ele>694</ele>
        <time>2022-09-22T08:06:56Z</time>
      </trkpt>
      <trkpt lat="44.15146" lon="5.86104">
        <ele>694</ele>
        <time>2022-09-22T08:06:57Z</time>
      </trkpt>
      <trkpt lat="44.15146" lon="5.86104">
        <ele>694</ele>
        <time>2022-09-22T08:06:58Z</time>
      </trkpt>
      <trkpt lat="44.15145" lon="5.86104">
        <ele>695</ele>
        <time>2022-09-22T08:06:59Z</time>
      </trkpt>
      <trkpt lat="44.15145" lon="5.86103">
        <ele>695</ele>
        <time>2022-09-22T08:07:00Z</time>
      </trkpt>
      <trkpt lat="44.15145" lon="5.86102">
        <ele>695</ele>
        <time>2022-09-22T08:07:01Z</time>
      </trkpt>
      <trkpt lat="44.15145" lon="5.86101">
        <ele>695</ele>
        <time>2022-09-22T08:07:02Z</time>
      </trkpt>
      <trkpt lat="44.15145" lon="5.861">
        <ele>695</ele>
        <time>2022-09-22T08:07:03Z</time>
      </trkpt>
      <trkpt lat="44.15145" lon="5.86099">
        <ele>696</ele>
        <time>2022-09-22T08:07:04Z</time>
      </trkpt>
      <trkpt lat="44.15145" lon="5.86098">
        <ele>696</ele>
        <time>2022-09-22T08:07:05Z</time>
      </trkpt>
      <trkpt lat="44.15145" lon="5.86095">
        <ele>698</ele>
        <time>2022-09-22T08:07:19Z</time>
      </trkpt>
      <trkpt lat="44.15145" lon="5.86092">
        <ele>698</ele>
        <time>2022-09-22T08:07:20Z</time>
      </trkpt>
      <trkpt lat="44.15145" lon="5.8609">
        <ele>698</ele>
        <time>2022-09-22T08:07:21Z</time>
      </trkpt>
      <trkpt lat="44.15145" lon="5.86088">
        <ele>698</ele>
        <time>2022-09-22T08:07:22Z</time>
      </trkpt>
      <trkpt lat="44.15145" lon="5.86086">
        <ele>698</ele>
        <time>2022-09-22T08:07:23Z</time>
      </trkpt>
      <trkpt lat="44.15145" lon="5.86085">
        <ele>698</ele>
        <time>2022-09-22T08:07:24Z</time>
      </trkpt>
      <trkpt lat="44.15145" lon="5.86084">
        <ele>698</ele>
        <time>2022-09-22T08:07:25Z</time>
      </trkpt>
      <trkpt lat="44.15145" lon="5.86083">
        <ele>698</ele>
        <time>2022-09-22T08:07:26Z</time>
      </trkpt>
      <trkpt lat="44.15145" lon="5.86082">
        <ele>698</ele>
        <time>2022-09-22T08:07:27Z</time>
      </trkpt>
      <trkpt lat="44.15145" lon="5.86082">
        <ele>698</ele>
        <time>2022-09-22T08:07:28Z</time>
      </trkpt>
      <trkpt lat="44.15145" lon="5.8608">
        <ele>699</ele>
        <time>2022-09-22T08:07:29Z</time>
      </trkpt>
      <trkpt lat="44.15145" lon="5.86079">
        <ele>699</ele>
        <time>2022-09-22T08:07:30Z</time>
      </trkpt>
      <trkpt lat="44.15145" lon="5.86078">
        <ele>699</ele>
        <time>2022-09-22T08:07:31Z</time>
      </trkpt>
      <trkpt lat="44.15145" lon="5.86077">
        <ele>699</ele>
        <time>2022-09-22T08:07:32Z</time>
      </trkpt>
      <trkpt lat="44.15144" lon="5.86076">
        <ele>699</ele>
        <time>2022-09-22T08:07:33Z</time>
      </trkpt>
      <trkpt lat="44.15144" lon="5.86075">
        <ele>700</ele>
        <time>2022-09-22T08:07:34Z</time>
      </trkpt>
      <trkpt lat="44.15143" lon="5.86074">
        <ele>700</ele>
        <time>2022-09-22T08:07:35Z</time>
      </trkpt>
      <trkpt lat="44.15143" lon="5.86073">
        <ele>700</ele>
        <time>2022-09-22T08:07:36Z</time>
      </trkpt>
      <trkpt lat="44.15143" lon="5.86072">
        <ele>700</ele>
        <time>2022-09-22T08:07:37Z</time>
      </trkpt>
      <trkpt lat="44.15143" lon="5.86071">
        <ele>700</ele>
        <time>2022-09-22T08:07:38Z</time>
      </trkpt>
      <trkpt lat="44.15142" lon="5.8607">
        <ele>700</ele>
        <time>2022-09-22T08:07:39Z</time>
      </trkpt>
      <trkpt lat="44.15142" lon="5.86069">
        <ele>700</ele>
        <time>2022-09-22T08:07:40Z</time>
      </trkpt>
      <trkpt lat="44.15142" lon="5.86068">
        <ele>700</ele>
        <time>2022-09-22T08:07:41Z</time>
      </trkpt>
      <trkpt lat="44.15141" lon="5.86067">
        <ele>700</ele>
        <time>2022-09-22T08:07:42Z</time>
      </trkpt>
      <trkpt lat="44.15141" lon="5.86066">
        <ele>700</ele>
        <time>2022-09-22T08:07:43Z</time>
      </trkpt>
      <trkpt lat="44.15141" lon="5.86065">
        <ele>701</ele>
        <time>2022-09-22T08:07:44Z</time>
      </trkpt>
      <trkpt lat="44.1514" lon="5.86064">
        <ele>701</ele>
        <time>2022-09-22T08:07:45Z</time>
      </trkpt>
      <trkpt lat="44.1514" lon="5.86063">
        <ele>701</ele>
        <time>2022-09-22T08:07:46Z</time>
      </trkpt>
      <trkpt lat="44.15139" lon="5.86062">
        <ele>701</ele>
        <time>2022-09-22T08:07:47Z</time>
      </trkpt>
      <trkpt lat="44.15139" lon="5.8606">
        <ele>701</ele>
        <time>2022-09-22T08:07:48Z</time>
      </trkpt>
      <trkpt lat="44.15138" lon="5.86058">
        <ele>703</ele>
        <time>2022-09-22T08:07:55Z</time>
      </trkpt>
      <trkpt lat="44.15137" lon="5.86057">
        <ele>703</ele>
        <time>2022-09-22T08:07:56Z</time>
      </trkpt>
      <trkpt lat="44.15137" lon="5.86056">
        <ele>703</ele>
        <time>2022-09-22T08:07:57Z</time>
      </trkpt>
      <trkpt lat="44.15136" lon="5.86055">
        <ele>703</ele>
        <time>2022-09-22T08:07:58Z</time>
      </trkpt>
      <trkpt lat="44.15134" lon="5.86052">
        <ele>704</ele>
        <time>2022-09-22T08:08:04Z</time>
      </trkpt>
      <trkpt lat="44.15134" lon="5.86052">
        <ele>704</ele>
        <time>2022-09-22T08:08:05Z</time>
      </trkpt>
      <trkpt lat="44.15133" lon="5.86051">
        <ele>704</ele>
        <time>2022-09-22T08:08:06Z</time>
      </trkpt>
      <trkpt lat="44.15133" lon="5.8605">
        <ele>704</ele>
        <time>2022-09-22T08:08:07Z</time>
      </trkpt>
      <trkpt lat="44.15131" lon="5.86046">
        <ele>708</ele>
        <time>2022-09-22T08:08:33Z</time>
      </trkpt>
      <trkpt lat="44.15129" lon="5.86044">
        <ele>708</ele>
        <time>2022-09-22T08:08:34Z</time>
      </trkpt>
      <trkpt lat="44.15128" lon="5.86042">
        <ele>708</ele>
        <time>2022-09-22T08:08:35Z</time>
      </trkpt>
      <trkpt lat="44.15128" lon="5.8604">
        <ele>708</ele>
        <time>2022-09-22T08:08:36Z</time>
      </trkpt>
      <trkpt lat="44.15127" lon="5.86039">
        <ele>708</ele>
        <time>2022-09-22T08:08:37Z</time>
      </trkpt>
      <trkpt lat="44.15126" lon="5.86038">
        <ele>708</ele>
        <time>2022-09-22T08:08:38Z</time>
      </trkpt>
      <trkpt lat="44.15126" lon="5.86037">
        <ele>709</ele>
        <time>2022-09-22T08:08:39Z</time>
      </trkpt>
      <trkpt lat="44.15125" lon="5.86036">
        <ele>709</ele>
        <time>2022-09-22T08:08:40Z</time>
      </trkpt>
      <trkpt lat="44.15125" lon="5.86036">
        <ele>709</ele>
        <time>2022-09-22T08:08:41Z</time>
      </trkpt>
      <trkpt lat="44.15125" lon="5.86035">
        <ele>709</ele>
        <time>2022-09-22T08:08:42Z</time>
      </trkpt>
      <trkpt lat="44.15124" lon="5.86034">
        <ele>709</ele>
        <time>2022-09-22T08:08:43Z</time>
      </trkpt>
      <trkpt lat="44.15124" lon="5.86033">
        <ele>710</ele>
        <time>2022-09-22T08:08:44Z</time>
      </trkpt>
      <trkpt lat="44.15123" lon="5.86032">
        <ele>710</ele>
        <time>2022-09-22T08:08:45Z</time>
      </trkpt>
      <trkpt lat="44.15122" lon="5.86032">
        <ele>710</ele>
        <time>2022-09-22T08:08:46Z</time>
      </trkpt>
      <trkpt lat="44.15122" lon="5.86031">
        <ele>710</ele>
        <time>2022-09-22T08:08:47Z</time>
      </trkpt>
      <trkpt lat="44.15121" lon="5.8603">
        <ele>710</ele>
        <time>2022-09-22T08:08:48Z</time>
      </trkpt>
      <trkpt lat="44.15121" lon="5.8603">
        <ele>711</ele>
        <time>2022-09-22T08:08:49Z</time>
      </trkpt>
      <trkpt lat="44.15121" lon="5.86029">
        <ele>711</ele>
        <time>2022-09-22T08:08:50Z</time>
      </trkpt>
      <trkpt lat="44.1512" lon="5.86029">
        <ele>711</ele>
        <time>2022-09-22T08:08:51Z</time>
      </trkpt>
      <trkpt lat="44.1512" lon="5.86028">
        <ele>711</ele>
        <time>2022-09-22T08:08:52Z</time>
      </trkpt>
      <trkpt lat="44.1512" lon="5.86028">
        <ele>711</ele>
        <time>2022-09-22T08:08:53Z</time>
      </trkpt>
      <trkpt lat="44.15119" lon="5.86027">
        <ele>711</ele>
        <time>2022-09-22T08:08:54Z</time>
      </trkpt>
      <trkpt lat="44.15119" lon="5.86026">
        <ele>711</ele>
        <time>2022-09-22T08:08:55Z</time>
      </trkpt>
      <trkpt lat="44.15119" lon="5.86026">
        <ele>711</ele>
        <time>2022-09-22T08:08:56Z</time>
      </trkpt>
      <trkpt lat="44.15118" lon="5.86022">
        <ele>714</ele>
        <time>2022-09-22T08:09:12Z</time>
      </trkpt>
      <trkpt lat="44.15117" lon="5.86021">
        <ele>714</ele>
        <time>2022-09-22T08:09:13Z</time>
      </trkpt>
      <trkpt lat="44.15116" lon="5.86019">
        <ele>715</ele>
        <time>2022-09-22T08:09:14Z</time>
      </trkpt>
      <trkpt lat="44.15116" lon="5.86018">
        <ele>715</ele>
        <time>2022-09-22T08:09:15Z</time>
      </trkpt>
      <trkpt lat="44.15115" lon="5.86018">
        <ele>715</ele>
        <time>2022-09-22T08:09:16Z</time>
      </trkpt>
      <trkpt lat="44.15115" lon="5.86017">
        <ele>715</ele>
        <time>2022-09-22T08:09:17Z</time>
      </trkpt>
      <trkpt lat="44.15115" lon="5.86017">
        <ele>715</ele>
        <time>2022-09-22T08:09:18Z</time>
      </trkpt>
      <trkpt lat="44.15115" lon="5.86017">
        <ele>716</ele>
        <time>2022-09-22T08:09:19Z</time>
      </trkpt>
      <trkpt lat="44.15114" lon="5.86016">
        <ele>716</ele>
        <time>2022-09-22T08:09:20Z</time>
      </trkpt>
      <trkpt lat="44.15114" lon="5.86016">
        <ele>716</ele>
        <time>2022-09-22T08:09:21Z</time>
      </trkpt>
      <trkpt lat="44.15114" lon="5.86015">
        <ele>716</ele>
        <time>2022-09-22T08:09:22Z</time>
      </trkpt>
      <trkpt lat="44.15113" lon="5.86015">
        <ele>716</ele>
        <time>2022-09-22T08:09:23Z</time>
      </trkpt>
      <trkpt lat="44.15112" lon="5.86014">
        <ele>716</ele>
        <time>2022-09-22T08:09:24Z</time>
      </trkpt>
      <trkpt lat="44.15112" lon="5.86013">
        <ele>716</ele>
        <time>2022-09-22T08:09:25Z</time>
      </trkpt>
      <trkpt lat="44.15112" lon="5.86012">
        <ele>716</ele>
        <time>2022-09-22T08:09:26Z</time>
      </trkpt>
      <trkpt lat="44.15111" lon="5.8601">
        <ele>719</ele>
        <time>2022-09-22T08:09:40Z</time>
      </trkpt>
      <trkpt lat="44.1511" lon="5.86009">
        <ele>719</ele>
        <time>2022-09-22T08:09:41Z</time>
      </trkpt>
      <trkpt lat="44.15109" lon="5.86008">
        <ele>719</ele>
        <time>2022-09-22T08:09:42Z</time>
      </trkpt>
      <trkpt lat="44.15109" lon="5.86007">
        <ele>719</ele>
        <time>2022-09-22T08:09:43Z</time>
      </trkpt>
      <trkpt lat="44.15108" lon="5.86006">
        <ele>719</ele>
        <time>2022-09-22T08:09:44Z</time>
      </trkpt>
      <trkpt lat="44.15107" lon="5.86004">
        <ele>720</ele>
        <time>2022-09-22T08:09:53Z</time>
      </trkpt>
      <trkpt lat="44.15106" lon="5.86002">
        <ele>721</ele>
        <time>2022-09-22T08:09:54Z</time>
      </trkpt>
      <trkpt lat="44.15105" lon="5.86">
        <ele>721</ele>
        <time>2022-09-22T08:09:55Z</time>
      </trkpt>
      <trkpt lat="44.15105" lon="5.85999">
        <ele>721</ele>
        <time>2022-09-22T08:09:56Z</time>
      </trkpt>
      <trkpt lat="44.15104" lon="5.85998">
        <ele>721</ele>
        <time>2022-09-22T08:09:57Z</time>
      </trkpt>
      <trkpt lat="44.15104" lon="5.85997">
        <ele>721</ele>
        <time>2022-09-22T08:09:58Z</time>
      </trkpt>
      <trkpt lat="44.15103" lon="5.85996">
        <ele>722</ele>
        <time>2022-09-22T08:09:59Z</time>
      </trkpt>
      <trkpt lat="44.15103" lon="5.85995">
        <ele>722</ele>
        <time>2022-09-22T08:10:00Z</time>
      </trkpt>
      <trkpt lat="44.15103" lon="5.85995">
        <ele>722</ele>
        <time>2022-09-22T08:10:01Z</time>
      </trkpt>
      <trkpt lat="44.15103" lon="5.85995">
        <ele>722</ele>
        <time>2022-09-22T08:10:02Z</time>
      </trkpt>
      <trkpt lat="44.15102" lon="5.85995">
        <ele>722</ele>
        <time>2022-09-22T08:10:03Z</time>
      </trkpt>
      <trkpt lat="44.15102" lon="5.85994">
        <ele>723</ele>
        <time>2022-09-22T08:10:04Z</time>
      </trkpt>
      <trkpt lat="44.15102" lon="5.85994">
        <ele>723</ele>
        <time>2022-09-22T08:10:05Z</time>
      </trkpt>
      <trkpt lat="44.15102" lon="5.85993">
        <ele>723</ele>
        <time>2022-09-22T08:10:06Z</time>
      </trkpt>
      <trkpt lat="44.15101" lon="5.85992">
        <ele>723</ele>
        <time>2022-09-22T08:10:07Z</time>
      </trkpt>
      <trkpt lat="44.15101" lon="5.85992">
        <ele>723</ele>
        <time>2022-09-22T08:10:08Z</time>
      </trkpt>
      <trkpt lat="44.151" lon="5.85991">
        <ele>723</ele>
        <time>2022-09-22T08:10:09Z</time>
      </trkpt>
      <trkpt lat="44.151" lon="5.85991">
        <ele>723</ele>
        <time>2022-09-22T08:10:10Z</time>
      </trkpt>
      <trkpt lat="44.151" lon="5.8599">
        <ele>723</ele>
        <time>2022-09-22T08:10:11Z</time>
      </trkpt>
      <trkpt lat="44.15099" lon="5.8599">
        <ele>723</ele>
        <time>2022-09-22T08:10:12Z</time>
      </trkpt>
      <trkpt lat="44.15099" lon="5.8599">
        <ele>723</ele>
        <time>2022-09-22T08:10:13Z</time>
      </trkpt>
      <trkpt lat="44.15099" lon="5.85989">
        <ele>724</ele>
        <time>2022-09-22T08:10:14Z</time>
      </trkpt>
      <trkpt lat="44.15098" lon="5.85988">
        <ele>724</ele>
        <time>2022-09-22T08:10:15Z</time>
      </trkpt>
      <trkpt lat="44.15098" lon="5.85988">
        <ele>724</ele>
        <time>2022-09-22T08:10:16Z</time>
      </trkpt>
      <trkpt lat="44.15097" lon="5.85987">
        <ele>724</ele>
        <time>2022-09-22T08:10:17Z</time>
      </trkpt>
      <trkpt lat="44.15097" lon="5.85986">
        <ele>724</ele>
        <time>2022-09-22T08:10:18Z</time>
      </trkpt>
      <trkpt lat="44.15096" lon="5.85986">
        <ele>725</ele>
        <time>2022-09-22T08:10:19Z</time>
      </trkpt>
      <trkpt lat="44.15096" lon="5.85985">
        <ele>725</ele>
        <time>2022-09-22T08:10:20Z</time>
      </trkpt>
      <trkpt lat="44.15095" lon="5.85984">
        <ele>725</ele>
        <time>2022-09-22T08:10:21Z</time>
      </trkpt>
      <trkpt lat="44.15095" lon="5.85984">
        <ele>725</ele>
        <time>2022-09-22T08:10:22Z</time>
      </trkpt>
      <trkpt lat="44.15094" lon="5.85983">
        <ele>725</ele>
        <time>2022-09-22T08:10:23Z</time>
      </trkpt>
      <trkpt lat="44.15094" lon="5.85983">
        <ele>725</ele>
        <time>2022-09-22T08:10:24Z</time>
      </trkpt>
      <trkpt lat="44.15093" lon="5.85982">
        <ele>725</ele>
        <time>2022-09-22T08:10:25Z</time>
      </trkpt>
      <trkpt lat="44.15093" lon="5.85982">
        <ele>725</ele>
        <time>2022-09-22T08:10:26Z</time>
      </trkpt>
      <trkpt lat="44.15093" lon="5.85982">
        <ele>725</ele>
        <time>2022-09-22T08:10:27Z</time>
      </trkpt>
      <trkpt lat="44.15092" lon="5.85981">
        <ele>725</ele>
        <time>2022-09-22T08:10:28Z</time>
      </trkpt>
      <trkpt lat="44.15092" lon="5.8598">
        <ele>726</ele>
        <time>2022-09-22T08:10:29Z</time>
      </trkpt>
      <trkpt lat="44.15091" lon="5.85979">
        <ele>726</ele>
        <time>2022-09-22T08:10:38Z</time>
      </trkpt>
      <trkpt lat="44.1509" lon="5.85977">
        <ele>727</ele>
        <time>2022-09-22T08:10:39Z</time>
      </trkpt>
      <trkpt lat="44.15089" lon="5.85976">
        <ele>727</ele>
        <time>2022-09-22T08:10:40Z</time>
      </trkpt>
      <trkpt lat="44.15088" lon="5.85975">
        <ele>727</ele>
        <time>2022-09-22T08:10:41Z</time>
      </trkpt>
      <trkpt lat="44.15088" lon="5.85974">
        <ele>727</ele>
        <time>2022-09-22T08:10:42Z</time>
      </trkpt>
      <trkpt lat="44.15087" lon="5.85974">
        <ele>727</ele>
        <time>2022-09-22T08:10:43Z</time>
      </trkpt>
      <trkpt lat="44.15087" lon="5.85973">
        <ele>728</ele>
        <time>2022-09-22T08:10:44Z</time>
      </trkpt>
      <trkpt lat="44.15086" lon="5.85972">
        <ele>728</ele>
        <time>2022-09-22T08:10:45Z</time>
      </trkpt>
      <trkpt lat="44.15085" lon="5.85972">
        <ele>728</ele>
        <time>2022-09-22T08:10:46Z</time>
      </trkpt>
      <trkpt lat="44.15085" lon="5.85972">
        <ele>728</ele>
        <time>2022-09-22T08:10:47Z</time>
      </trkpt>
      <trkpt lat="44.15085" lon="5.85971">
        <ele>728</ele>
        <time>2022-09-22T08:10:48Z</time>
      </trkpt>
      <trkpt lat="44.15084" lon="5.85971">
        <ele>728</ele>
        <time>2022-09-22T08:10:49Z</time>
      </trkpt>
      <trkpt lat="44.15084" lon="5.85971">
        <ele>728</ele>
        <time>2022-09-22T08:10:50Z</time>
      </trkpt>
      <trkpt lat="44.15084" lon="5.85971">
        <ele>728</ele>
        <time>2022-09-22T08:10:51Z</time>
      </trkpt>
      <trkpt lat="44.15083" lon="5.8597">
        <ele>728</ele>
        <time>2022-09-22T08:10:52Z</time>
      </trkpt>
      <trkpt lat="44.15082" lon="5.85969">
        <ele>728</ele>
        <time>2022-09-22T08:10:53Z</time>
      </trkpt>
      <trkpt lat="44.15082" lon="5.85969">
        <ele>728</ele>
        <time>2022-09-22T08:10:54Z</time>
      </trkpt>
      <trkpt lat="44.15082" lon="5.85969">
        <ele>728</ele>
        <time>2022-09-22T08:10:55Z</time>
      </trkpt>
      <trkpt lat="44.15081" lon="5.85968">
        <ele>728</ele>
        <time>2022-09-22T08:10:56Z</time>
      </trkpt>
      <trkpt lat="44.15081" lon="5.85968">
        <ele>728</ele>
        <time>2022-09-22T08:10:57Z</time>
      </trkpt>
      <trkpt lat="44.15081" lon="5.85967">
        <ele>728</ele>
        <time>2022-09-22T08:10:58Z</time>
      </trkpt>
      <trkpt lat="44.1508" lon="5.85966">
        <ele>729</ele>
        <time>2022-09-22T08:10:59Z</time>
      </trkpt>
      <trkpt lat="44.15079" lon="5.85965">
        <ele>729</ele>
        <time>2022-09-22T08:11:00Z</time>
      </trkpt>
      <trkpt lat="44.15079" lon="5.85964">
        <ele>729</ele>
        <time>2022-09-22T08:11:01Z</time>
      </trkpt>
      <trkpt lat="44.15078" lon="5.85963">
        <ele>729</ele>
        <time>2022-09-22T08:11:02Z</time>
      </trkpt>
      <trkpt lat="44.15078" lon="5.85963">
        <ele>729</ele>
        <time>2022-09-22T08:11:03Z</time>
      </trkpt>
      <trkpt lat="44.15077" lon="5.85962">
        <ele>729</ele>
        <time>2022-09-22T08:11:04Z</time>
      </trkpt>
      <trkpt lat="44.15077" lon="5.85961">
        <ele>729</ele>
        <time>2022-09-22T08:11:05Z</time>
      </trkpt>
      <trkpt lat="44.15076" lon="5.85961">
        <ele>729</ele>
        <time>2022-09-22T08:11:06Z</time>
      </trkpt>
      <trkpt lat="44.15076" lon="5.8596">
        <ele>729</ele>
        <time>2022-09-22T08:11:07Z</time>
      </trkpt>
      <trkpt lat="44.15076" lon="5.8596">
        <ele>729</ele>
        <time>2022-09-22T08:11:08Z</time>
      </trkpt>
      <trkpt lat="44.15075" lon="5.85959">
        <ele>729</ele>
        <time>2022-09-22T08:11:09Z</time>
      </trkpt>
      <trkpt lat="44.15075" lon="5.85959">
        <ele>729</ele>
        <time>2022-09-22T08:11:10Z</time>
      </trkpt>
      <trkpt lat="44.15072" lon="5.85956">
        <ele>730</ele>
        <time>2022-09-22T08:11:24Z</time>
      </trkpt>
      <trkpt lat="44.15071" lon="5.85955">
        <ele>730</ele>
        <time>2022-09-22T08:11:25Z</time>
      </trkpt>
      <trkpt lat="44.1507" lon="5.85954">
        <ele>730</ele>
        <time>2022-09-22T08:11:26Z</time>
      </trkpt>
      <trkpt lat="44.15069" lon="5.85953">
        <ele>730</ele>
        <time>2022-09-22T08:11:27Z</time>
      </trkpt>
      <trkpt lat="44.15069" lon="5.85951">
        <ele>730</ele>
        <time>2022-09-22T08:11:28Z</time>
      </trkpt>
      <trkpt lat="44.15068" lon="5.8595">
        <ele>731</ele>
        <time>2022-09-22T08:11:29Z</time>
      </trkpt>
      <trkpt lat="44.15068" lon="5.85949">
        <ele>731</ele>
        <time>2022-09-22T08:11:30Z</time>
      </trkpt>
      <trkpt lat="44.15068" lon="5.85948">
        <ele>731</ele>
        <time>2022-09-22T08:11:31Z</time>
      </trkpt>
      <trkpt lat="44.15067" lon="5.85947">
        <ele>731</ele>
        <time>2022-09-22T08:11:32Z</time>
      </trkpt>
      <trkpt lat="44.15067" lon="5.85947">
        <ele>731</ele>
        <time>2022-09-22T08:11:33Z</time>
      </trkpt>
      <trkpt lat="44.15067" lon="5.85946">
        <ele>731</ele>
        <time>2022-09-22T08:11:34Z</time>
      </trkpt>
      <trkpt lat="44.15066" lon="5.85945">
        <ele>731</ele>
        <time>2022-09-22T08:11:35Z</time>
      </trkpt>
      <trkpt lat="44.15066" lon="5.85945">
        <ele>731</ele>
        <time>2022-09-22T08:11:36Z</time>
      </trkpt>
      <trkpt lat="44.15066" lon="5.85944">
        <ele>731</ele>
        <time>2022-09-22T08:11:37Z</time>
      </trkpt>
      <trkpt lat="44.15065" lon="5.85943">
        <ele>731</ele>
        <time>2022-09-22T08:11:38Z</time>
      </trkpt>
      <trkpt lat="44.15065" lon="5.85943">
        <ele>731</ele>
        <time>2022-09-22T08:11:39Z</time>
      </trkpt>
      <trkpt lat="44.15064" lon="5.85942">
        <ele>731</ele>
        <time>2022-09-22T08:11:40Z</time>
      </trkpt>
      <trkpt lat="44.15064" lon="5.85941">
        <ele>731</ele>
        <time>2022-09-22T08:11:41Z</time>
      </trkpt>
      <trkpt lat="44.15063" lon="5.8594">
        <ele>731</ele>
        <time>2022-09-22T08:11:42Z</time>
      </trkpt>
      <trkpt lat="44.15063" lon="5.8594">
        <ele>731</ele>
        <time>2022-09-22T08:11:43Z</time>
      </trkpt>
      <trkpt lat="44.15062" lon="5.85939">
        <ele>732</ele>
        <time>2022-09-22T08:11:44Z</time>
      </trkpt>
      <trkpt lat="44.15062" lon="5.85938">
        <ele>732</ele>
        <time>2022-09-22T08:11:45Z</time>
      </trkpt>
      <trkpt lat="44.15062" lon="5.85937">
        <ele>732</ele>
        <time>2022-09-22T08:11:46Z</time>
      </trkpt>
      <trkpt lat="44.15061" lon="5.85935">
        <ele>732</ele>
        <time>2022-09-22T08:11:47Z</time>
      </trkpt>
      <trkpt lat="44.15061" lon="5.85934">
        <ele>732</ele>
        <time>2022-09-22T08:11:48Z</time>
      </trkpt>
      <trkpt lat="44.15061" lon="5.85933">
        <ele>732</ele>
        <time>2022-09-22T08:11:49Z</time>
      </trkpt>
      <trkpt lat="44.1506" lon="5.85932">
        <ele>732</ele>
        <time>2022-09-22T08:11:50Z</time>
      </trkpt>
      <trkpt lat="44.1506" lon="5.85931">
        <ele>732</ele>
        <time>2022-09-22T08:11:51Z</time>
      </trkpt>
      <trkpt lat="44.1506" lon="5.85929">
        <ele>732</ele>
        <time>2022-09-22T08:11:52Z</time>
      </trkpt>
      <trkpt lat="44.1506" lon="5.85929">
        <ele>732</ele>
        <time>2022-09-22T08:11:53Z</time>
      </trkpt>
      <trkpt lat="44.1506" lon="5.85928">
        <ele>733</ele>
        <time>2022-09-22T08:11:54Z</time>
      </trkpt>
      <trkpt lat="44.1506" lon="5.85927">
        <ele>733</ele>
        <time>2022-09-22T08:11:55Z</time>
      </trkpt>
      <trkpt lat="44.1506" lon="5.85926">
        <ele>733</ele>
        <time>2022-09-22T08:11:56Z</time>
      </trkpt>
      <trkpt lat="44.1506" lon="5.85925">
        <ele>733</ele>
        <time>2022-09-22T08:11:57Z</time>
      </trkpt>
      <trkpt lat="44.1506" lon="5.85924">
        <ele>733</ele>
        <time>2022-09-22T08:11:58Z</time>
      </trkpt>
      <trkpt lat="44.15059" lon="5.85923">
        <ele>733</ele>
        <time>2022-09-22T08:11:59Z</time>
      </trkpt>
      <trkpt lat="44.15059" lon="5.85922">
        <ele>733</ele>
        <time>2022-09-22T08:12:00Z</time>
      </trkpt>
      <trkpt lat="44.15059" lon="5.85922">
        <ele>733</ele>
        <time>2022-09-22T08:12:01Z</time>
      </trkpt>
      <trkpt lat="44.15059" lon="5.85921">
        <ele>733</ele>
        <time>2022-09-22T08:12:02Z</time>
      </trkpt>
      <trkpt lat="44.15059" lon="5.8592">
        <ele>733</ele>
        <time>2022-09-22T08:12:03Z</time>
      </trkpt>
      <trkpt lat="44.15059" lon="5.85916">
        <ele>735</ele>
        <time>2022-09-22T08:12:18Z</time>
      </trkpt>
      <trkpt lat="44.1506" lon="5.85914">
        <ele>735</ele>
        <time>2022-09-22T08:12:19Z</time>
      </trkpt>
      <trkpt lat="44.1506" lon="5.85912">
        <ele>735</ele>
        <time>2022-09-22T08:12:20Z</time>
      </trkpt>
      <trkpt lat="44.1506" lon="5.8591">
        <ele>735</ele>
        <time>2022-09-22T08:12:21Z</time>
      </trkpt>
      <trkpt lat="44.15061" lon="5.85909">
        <ele>735</ele>
        <time>2022-09-22T08:12:22Z</time>
      </trkpt>
      <trkpt lat="44.15061" lon="5.85909">
        <ele>735</ele>
        <time>2022-09-22T08:12:23Z</time>
      </trkpt>
      <trkpt lat="44.15061" lon="5.85908">
        <ele>736</ele>
        <time>2022-09-22T08:12:24Z</time>
      </trkpt>
      <trkpt lat="44.15061" lon="5.85908">
        <ele>736</ele>
        <time>2022-09-22T08:12:25Z</time>
      </trkpt>
      <trkpt lat="44.15062" lon="5.85907">
        <ele>736</ele>
        <time>2022-09-22T08:12:26Z</time>
      </trkpt>
      <trkpt lat="44.15062" lon="5.85906">
        <ele>736</ele>
        <time>2022-09-22T08:12:27Z</time>
      </trkpt>
      <trkpt lat="44.15063" lon="5.85898">
        <ele>742</ele>
        <time>2022-09-22T08:14:20Z</time>
      </trkpt>
      <trkpt lat="44.15063" lon="5.85894">
        <ele>742</ele>
        <time>2022-09-22T08:14:21Z</time>
      </trkpt>
      <trkpt lat="44.15063" lon="5.8589">
        <ele>742</ele>
        <time>2022-09-22T08:14:22Z</time>
      </trkpt>
      <trkpt lat="44.15063" lon="5.85888">
        <ele>742</ele>
        <time>2022-09-22T08:14:23Z</time>
      </trkpt>
      <trkpt lat="44.15063" lon="5.85886">
        <ele>742</ele>
        <time>2022-09-22T08:14:24Z</time>
      </trkpt>
      <trkpt lat="44.15064" lon="5.85883">
        <ele>742</ele>
        <time>2022-09-22T08:14:25Z</time>
      </trkpt>
      <trkpt lat="44.15065" lon="5.85881">
        <ele>742</ele>
        <time>2022-09-22T08:14:26Z</time>
      </trkpt>
      <trkpt lat="44.15065" lon="5.85879">
        <ele>742</ele>
        <time>2022-09-22T08:14:27Z</time>
      </trkpt>
      <trkpt lat="44.15066" lon="5.85877">
        <ele>742</ele>
        <time>2022-09-22T08:14:28Z</time>
      </trkpt>
      <trkpt lat="44.15067" lon="5.85876">
        <ele>742</ele>
        <time>2022-09-22T08:14:29Z</time>
      </trkpt>
      <trkpt lat="44.15067" lon="5.85874">
        <ele>742</ele>
        <time>2022-09-22T08:14:30Z</time>
      </trkpt>
      <trkpt lat="44.15068" lon="5.85873">
        <ele>742</ele>
        <time>2022-09-22T08:14:31Z</time>
      </trkpt>
      <trkpt lat="44.15068" lon="5.85872">
        <ele>742</ele>
        <time>2022-09-22T08:14:32Z</time>
      </trkpt>
      <trkpt lat="44.15069" lon="5.85871">
        <ele>742</ele>
        <time>2022-09-22T08:14:33Z</time>
      </trkpt>
      <trkpt lat="44.1507" lon="5.8587">
        <ele>742</ele>
        <time>2022-09-22T08:14:34Z</time>
      </trkpt>
      <trkpt lat="44.1507" lon="5.85869">
        <ele>742</ele>
        <time>2022-09-22T08:14:35Z</time>
      </trkpt>
      <trkpt lat="44.15071" lon="5.85868">
        <ele>742</ele>
        <time>2022-09-22T08:14:36Z</time>
      </trkpt>
      <trkpt lat="44.15071" lon="5.85867">
        <ele>742</ele>
        <time>2022-09-22T08:14:37Z</time>
      </trkpt>
      <trkpt lat="44.15072" lon="5.85866">
        <ele>742</ele>
        <time>2022-09-22T08:14:38Z</time>
      </trkpt>
      <trkpt lat="44.15072" lon="5.85865">
        <ele>743</ele>
        <time>2022-09-22T08:14:39Z</time>
      </trkpt>
      <trkpt lat="44.15073" lon="5.85863">
        <ele>743</ele>
        <time>2022-09-22T08:14:40Z</time>
      </trkpt>
      <trkpt lat="44.15073" lon="5.85862">
        <ele>743</ele>
        <time>2022-09-22T08:14:41Z</time>
      </trkpt>
      <trkpt lat="44.15073" lon="5.85861">
        <ele>743</ele>
        <time>2022-09-22T08:14:42Z</time>
      </trkpt>
      <trkpt lat="44.15073" lon="5.8586">
        <ele>743</ele>
        <time>2022-09-22T08:14:43Z</time>
      </trkpt>
      <trkpt lat="44.15074" lon="5.85859">
        <ele>743</ele>
        <time>2022-09-22T08:14:44Z</time>
      </trkpt>
      <trkpt lat="44.15074" lon="5.85857">
        <ele>743</ele>
        <time>2022-09-22T08:14:45Z</time>
      </trkpt>
      <trkpt lat="44.15074" lon="5.85856">
        <ele>743</ele>
        <time>2022-09-22T08:14:46Z</time>
      </trkpt>
      <trkpt lat="44.15074" lon="5.85854">
        <ele>743</ele>
        <time>2022-09-22T08:14:47Z</time>
      </trkpt>
      <trkpt lat="44.15074" lon="5.85852">
        <ele>743</ele>
        <time>2022-09-22T08:14:48Z</time>
      </trkpt>
      <trkpt lat="44.15074" lon="5.85851">
        <ele>744</ele>
        <time>2022-09-22T08:14:49Z</time>
      </trkpt>
      <trkpt lat="44.15075" lon="5.85849">
        <ele>744</ele>
        <time>2022-09-22T08:14:50Z</time>
      </trkpt>
      <trkpt lat="44.15075" lon="5.85848">
        <ele>744</ele>
        <time>2022-09-22T08:14:51Z</time>
      </trkpt>
      <trkpt lat="44.15075" lon="5.85847">
        <ele>744</ele>
        <time>2022-09-22T08:14:52Z</time>
      </trkpt>
      <trkpt lat="44.15075" lon="5.85845">
        <ele>744</ele>
        <time>2022-09-22T08:14:53Z</time>
      </trkpt>
      <trkpt lat="44.15075" lon="5.85844">
        <ele>744</ele>
        <time>2022-09-22T08:14:54Z</time>
      </trkpt>
      <trkpt lat="44.15075" lon="5.85842">
        <ele>744</ele>
        <time>2022-09-22T08:14:55Z</time>
      </trkpt>
      <trkpt lat="44.15075" lon="5.85841">
        <ele>744</ele>
        <time>2022-09-22T08:14:56Z</time>
      </trkpt>
      <trkpt lat="44.15075" lon="5.8584">
        <ele>744</ele>
        <time>2022-09-22T08:14:57Z</time>
      </trkpt>
      <trkpt lat="44.15075" lon="5.85839">
        <ele>744</ele>
        <time>2022-09-22T08:14:58Z</time>
      </trkpt>
      <trkpt lat="44.15074" lon="5.85838">
        <ele>745</ele>
        <time>2022-09-22T08:14:59Z</time>
      </trkpt>
      <trkpt lat="44.15074" lon="5.85836">
        <ele>745</ele>
        <time>2022-09-22T08:15:00Z</time>
      </trkpt>
      <trkpt lat="44.15074" lon="5.85836">
        <ele>745</ele>
        <time>2022-09-22T08:15:01Z</time>
      </trkpt>
      <trkpt lat="44.15074" lon="5.85835">
        <ele>745</ele>
        <time>2022-09-22T08:15:02Z</time>
      </trkpt>
      <trkpt lat="44.15074" lon="5.85834">
        <ele>745</ele>
        <time>2022-09-22T08:15:03Z</time>
      </trkpt>
      <trkpt lat="44.15074" lon="5.85833">
        <ele>745</ele>
        <time>2022-09-22T08:15:04Z</time>
      </trkpt>
      <trkpt lat="44.15074" lon="5.85833">
        <ele>745</ele>
        <time>2022-09-22T08:15:05Z</time>
      </trkpt>
      <trkpt lat="44.15074" lon="5.85832">
        <ele>745</ele>
        <time>2022-09-22T08:15:06Z</time>
      </trkpt>
      <trkpt lat="44.15074" lon="5.85831">
        <ele>745</ele>
        <time>2022-09-22T08:15:07Z</time>
      </trkpt>
      <trkpt lat="44.15074" lon="5.8583">
        <ele>745</ele>
        <time>2022-09-22T08:15:08Z</time>
      </trkpt>
      <trkpt lat="44.15074" lon="5.85829">
        <ele>746</ele>
        <time>2022-09-22T08:15:09Z</time>
      </trkpt>
      <trkpt lat="44.15074" lon="5.85828">
        <ele>746</ele>
        <time>2022-09-22T08:15:10Z</time>
      </trkpt>
      <trkpt lat="44.15074" lon="5.85827">
        <ele>746</ele>
        <time>2022-09-22T08:15:11Z</time>
      </trkpt>
      <trkpt lat="44.15074" lon="5.85826">
        <ele>746</ele>
        <time>2022-09-22T08:15:12Z</time>
      </trkpt>
      <trkpt lat="44.15074" lon="5.85825">
        <ele>746</ele>
        <time>2022-09-22T08:15:13Z</time>
      </trkpt>
      <trkpt lat="44.15074" lon="5.85824">
        <ele>747</ele>
        <time>2022-09-22T08:15:14Z</time>
      </trkpt>
      <trkpt lat="44.15074" lon="5.85823">
        <ele>747</ele>
        <time>2022-09-22T08:15:15Z</time>
      </trkpt>
      <trkpt lat="44.15074" lon="5.85822">
        <ele>747</ele>
        <time>2022-09-22T08:15:16Z</time>
      </trkpt>
      <trkpt lat="44.15074" lon="5.85821">
        <ele>747</ele>
        <time>2022-09-22T08:15:17Z</time>
      </trkpt>
      <trkpt lat="44.15074" lon="5.8582">
        <ele>747</ele>
        <time>2022-09-22T08:15:18Z</time>
      </trkpt>
      <trkpt lat="44.15074" lon="5.85819">
        <ele>748</ele>
        <time>2022-09-22T08:15:19Z</time>
      </trkpt>
      <trkpt lat="44.15074" lon="5.85818">
        <ele>748</ele>
        <time>2022-09-22T08:15:20Z</time>
      </trkpt>
      <trkpt lat="44.15074" lon="5.85818">
        <ele>748</ele>
        <time>2022-09-22T08:15:21Z</time>
      </trkpt>
      <trkpt lat="44.15074" lon="5.85817">
        <ele>748</ele>
        <time>2022-09-22T08:15:22Z</time>
      </trkpt>
      <trkpt lat="44.15074" lon="5.85817">
        <ele>748</ele>
        <time>2022-09-22T08:15:23Z</time>
      </trkpt>
      <trkpt lat="44.15073" lon="5.85816">
        <ele>749</ele>
        <time>2022-09-22T08:15:24Z</time>
      </trkpt>
      <trkpt lat="44.15073" lon="5.85815">
        <ele>749</ele>
        <time>2022-09-22T08:15:25Z</time>
      </trkpt>
      <trkpt lat="44.15073" lon="5.85814">
        <ele>749</ele>
        <time>2022-09-22T08:15:26Z</time>
      </trkpt>
      <trkpt lat="44.15073" lon="5.85814">
        <ele>749</ele>
        <time>2022-09-22T08:15:27Z</time>
      </trkpt>
      <trkpt lat="44.15073" lon="5.85813">
        <ele>749</ele>
        <time>2022-09-22T08:15:28Z</time>
      </trkpt>
      <trkpt lat="44.15073" lon="5.85813">
        <ele>749</ele>
        <time>2022-09-22T08:15:29Z</time>
      </trkpt>
      <trkpt lat="44.15072" lon="5.85812">
        <ele>749</ele>
        <time>2022-09-22T08:15:30Z</time>
      </trkpt>
      <trkpt lat="44.15072" lon="5.85812">
        <ele>749</ele>
        <time>2022-09-22T08:15:31Z</time>
      </trkpt>
      <trkpt lat="44.15072" lon="5.85811">
        <ele>749</ele>
        <time>2022-09-22T08:15:32Z</time>
      </trkpt>
      <trkpt lat="44.15072" lon="5.8581">
        <ele>749</ele>
        <time>2022-09-22T08:15:33Z</time>
      </trkpt>
      <trkpt lat="44.15072" lon="5.85809">
        <ele>750</ele>
        <time>2022-09-22T08:15:34Z</time>
      </trkpt>
      <trkpt lat="44.15072" lon="5.85808">
        <ele>750</ele>
        <time>2022-09-22T08:15:35Z</time>
      </trkpt>
      <trkpt lat="44.15072" lon="5.85808">
        <ele>750</ele>
        <time>2022-09-22T08:15:36Z</time>
      </trkpt>
      <trkpt lat="44.15072" lon="5.85807">
        <ele>750</ele>
        <time>2022-09-22T08:15:37Z</time>
      </trkpt>
      <trkpt lat="44.15072" lon="5.85806">
        <ele>750</ele>
        <time>2022-09-22T08:15:38Z</time>
      </trkpt>
      <trkpt lat="44.15072" lon="5.85805">
        <ele>751</ele>
        <time>2022-09-22T08:15:39Z</time>
      </trkpt>
      <trkpt lat="44.15072" lon="5.85804">
        <ele>751</ele>
        <time>2022-09-22T08:15:40Z</time>
      </trkpt>
      <trkpt lat="44.15072" lon="5.85804">
        <ele>751</ele>
        <time>2022-09-22T08:15:41Z</time>
      </trkpt>
      <trkpt lat="44.15072" lon="5.85803">
        <ele>751</ele>
        <time>2022-09-22T08:15:42Z</time>
      </trkpt>
      <trkpt lat="44.15072" lon="5.85802">
        <ele>751</ele>
        <time>2022-09-22T08:15:43Z</time>
      </trkpt>
      <trkpt lat="44.15072" lon="5.85801">
        <ele>752</ele>
        <time>2022-09-22T08:15:44Z</time>
      </trkpt>
      <trkpt lat="44.15072" lon="5.858">
        <ele>752</ele>
        <time>2022-09-22T08:15:45Z</time>
      </trkpt>
      <trkpt lat="44.15071" lon="5.85799">
        <ele>752</ele>
        <time>2022-09-22T08:15:46Z</time>
      </trkpt>
      <trkpt lat="44.15071" lon="5.85797">
        <ele>752</ele>
        <time>2022-09-22T08:15:47Z</time>
      </trkpt>
      <trkpt lat="44.15071" lon="5.85796">
        <ele>752</ele>
        <time>2022-09-22T08:15:48Z</time>
      </trkpt>
      <trkpt lat="44.15071" lon="5.85795">
        <ele>753</ele>
        <time>2022-09-22T08:15:49Z</time>
      </trkpt>
      <trkpt lat="44.1507" lon="5.85793">
        <ele>753</ele>
        <time>2022-09-22T08:15:50Z</time>
      </trkpt>
      <trkpt lat="44.1507" lon="5.85792">
        <ele>753</ele>
        <time>2022-09-22T08:15:51Z</time>
      </trkpt>
      <trkpt lat="44.15069" lon="5.85791">
        <ele>753</ele>
        <time>2022-09-22T08:15:52Z</time>
      </trkpt>
      <trkpt lat="44.15069" lon="5.8579">
        <ele>753</ele>
        <time>2022-09-22T08:15:53Z</time>
      </trkpt>
      <trkpt lat="44.15069" lon="5.85788">
        <ele>753</ele>
        <time>2022-09-22T08:15:54Z</time>
      </trkpt>
      <trkpt lat="44.15069" lon="5.85787">
        <ele>753</ele>
        <time>2022-09-22T08:15:55Z</time>
      </trkpt>
      <trkpt lat="44.15068" lon="5.85786">
        <ele>753</ele>
        <time>2022-09-22T08:15:56Z</time>
      </trkpt>
      <trkpt lat="44.15068" lon="5.85785">
        <ele>753</ele>
        <time>2022-09-22T08:15:57Z</time>
      </trkpt>
      <trkpt lat="44.15068" lon="5.85785">
        <ele>753</ele>
        <time>2022-09-22T08:15:58Z</time>
      </trkpt>
      <trkpt lat="44.15068" lon="5.85784">
        <ele>754</ele>
        <time>2022-09-22T08:15:59Z</time>
      </trkpt>
      <trkpt lat="44.15067" lon="5.85783">
        <ele>754</ele>
        <time>2022-09-22T08:16:00Z</time>
      </trkpt>
      <trkpt lat="44.15067" lon="5.85782">
        <ele>754</ele>
        <time>2022-09-22T08:16:01Z</time>
      </trkpt>
      <trkpt lat="44.15067" lon="5.85781">
        <ele>754</ele>
        <time>2022-09-22T08:16:02Z</time>
      </trkpt>
      <trkpt lat="44.15067" lon="5.8578">
        <ele>754</ele>
        <time>2022-09-22T08:16:03Z</time>
      </trkpt>
      <trkpt lat="44.15067" lon="5.85779">
        <ele>755</ele>
        <time>2022-09-22T08:16:04Z</time>
      </trkpt>
      <trkpt lat="44.15068" lon="5.85778">
        <ele>755</ele>
        <time>2022-09-22T08:16:05Z</time>
      </trkpt>
      <trkpt lat="44.15068" lon="5.85777">
        <ele>755</ele>
        <time>2022-09-22T08:16:15Z</time>
      </trkpt>
      <trkpt lat="44.15067" lon="5.85777">
        <ele>755</ele>
        <time>2022-09-22T08:16:16Z</time>
      </trkpt>
      <trkpt lat="44.15067" lon="5.85776">
        <ele>755</ele>
        <time>2022-09-22T08:16:17Z</time>
      </trkpt>
      <trkpt lat="44.15067" lon="5.85773">
        <ele>756</ele>
        <time>2022-09-22T08:16:26Z</time>
      </trkpt>
      <trkpt lat="44.15067" lon="5.85771">
        <ele>757</ele>
        <time>2022-09-22T08:16:27Z</time>
      </trkpt>
      <trkpt lat="44.15067" lon="5.8577">
        <ele>757</ele>
        <time>2022-09-22T08:16:28Z</time>
      </trkpt>
      <trkpt lat="44.15067" lon="5.85769">
        <ele>758</ele>
        <time>2022-09-22T08:16:29Z</time>
      </trkpt>
      <trkpt lat="44.15067" lon="5.85767">
        <ele>758</ele>
        <time>2022-09-22T08:16:30Z</time>
      </trkpt>
      <trkpt lat="44.15067" lon="5.85766">
        <ele>758</ele>
        <time>2022-09-22T08:16:31Z</time>
      </trkpt>
      <trkpt lat="44.15067" lon="5.85765">
        <ele>758</ele>
        <time>2022-09-22T08:16:32Z</time>
      </trkpt>
      <trkpt lat="44.15067" lon="5.85764">
        <ele>758</ele>
        <time>2022-09-22T08:16:33Z</time>
      </trkpt>
      <trkpt lat="44.15067" lon="5.85763">
        <ele>758</ele>
        <time>2022-09-22T08:16:34Z</time>
      </trkpt>
      <trkpt lat="44.15067" lon="5.85761">
        <ele>758</ele>
        <time>2022-09-22T08:16:35Z</time>
      </trkpt>
      <trkpt lat="44.15068" lon="5.85759">
        <ele>758</ele>
        <time>2022-09-22T08:16:36Z</time>
      </trkpt>
      <trkpt lat="44.15068" lon="5.85758">
        <ele>758</ele>
        <time>2022-09-22T08:16:37Z</time>
      </trkpt>
      <trkpt lat="44.15068" lon="5.85757">
        <ele>758</ele>
        <time>2022-09-22T08:16:38Z</time>
      </trkpt>
      <trkpt lat="44.15068" lon="5.85756">
        <ele>758</ele>
        <time>2022-09-22T08:16:39Z</time>
      </trkpt>
      <trkpt lat="44.15068" lon="5.85755">
        <ele>758</ele>
        <time>2022-09-22T08:16:40Z</time>
      </trkpt>
      <trkpt lat="44.15068" lon="5.85755">
        <ele>758</ele>
        <time>2022-09-22T08:16:41Z</time>
      </trkpt>
      <trkpt lat="44.15069" lon="5.85754">
        <ele>758</ele>
        <time>2022-09-22T08:16:42Z</time>
      </trkpt>
      <trkpt lat="44.15069" lon="5.85753">
        <ele>758</ele>
        <time>2022-09-22T08:16:43Z</time>
      </trkpt>
      <trkpt lat="44.15069" lon="5.85752">
        <ele>759</ele>
        <time>2022-09-22T08:16:44Z</time>
      </trkpt>
      <trkpt lat="44.15069" lon="5.85752">
        <ele>759</ele>
        <time>2022-09-22T08:16:45Z</time>
      </trkpt>
      <trkpt lat="44.15069" lon="5.85751">
        <ele>759</ele>
        <time>2022-09-22T08:16:46Z</time>
      </trkpt>
      <trkpt lat="44.15069" lon="5.8575">
        <ele>759</ele>
        <time>2022-09-22T08:16:47Z</time>
      </trkpt>
      <trkpt lat="44.1507" lon="5.8575">
        <ele>759</ele>
        <time>2022-09-22T08:16:48Z</time>
      </trkpt>
      <trkpt lat="44.1507" lon="5.85748">
        <ele>760</ele>
        <time>2022-09-22T08:16:49Z</time>
      </trkpt>
      <trkpt lat="44.1507" lon="5.85747">
        <ele>760</ele>
        <time>2022-09-22T08:16:50Z</time>
      </trkpt>
      <trkpt lat="44.1507" lon="5.85746">
        <ele>760</ele>
        <time>2022-09-22T08:16:51Z</time>
      </trkpt>
      <trkpt lat="44.1507" lon="5.85745">
        <ele>760</ele>
        <time>2022-09-22T08:16:52Z</time>
      </trkpt>
      <trkpt lat="44.1507" lon="5.85744">
        <ele>760</ele>
        <time>2022-09-22T08:16:53Z</time>
      </trkpt>
      <trkpt lat="44.1507" lon="5.85742">
        <ele>760</ele>
        <time>2022-09-22T08:16:54Z</time>
      </trkpt>
      <trkpt lat="44.1507" lon="5.85741">
        <ele>760</ele>
        <time>2022-09-22T08:16:55Z</time>
      </trkpt>
      <trkpt lat="44.15071" lon="5.8574">
        <ele>760</ele>
        <time>2022-09-22T08:16:56Z</time>
      </trkpt>
      <trkpt lat="44.15071" lon="5.85738">
        <ele>760</ele>
        <time>2022-09-22T08:16:57Z</time>
      </trkpt>
      <trkpt lat="44.15071" lon="5.85737">
        <ele>760</ele>
        <time>2022-09-22T08:16:58Z</time>
      </trkpt>
      <trkpt lat="44.15071" lon="5.85736">
        <ele>761</ele>
        <time>2022-09-22T08:16:59Z</time>
      </trkpt>
      <trkpt lat="44.15071" lon="5.85734">
        <ele>761</ele>
        <time>2022-09-22T08:17:00Z</time>
      </trkpt>
      <trkpt lat="44.15071" lon="5.85733">
        <ele>761</ele>
        <time>2022-09-22T08:17:01Z</time>
      </trkpt>
      <trkpt lat="44.15072" lon="5.85731">
        <ele>761</ele>
        <time>2022-09-22T08:17:02Z</time>
      </trkpt>
      <trkpt lat="44.15072" lon="5.8573">
        <ele>761</ele>
        <time>2022-09-22T08:17:03Z</time>
      </trkpt>
      <trkpt lat="44.15072" lon="5.85728">
        <ele>761</ele>
        <time>2022-09-22T08:17:04Z</time>
      </trkpt>
      <trkpt lat="44.15072" lon="5.85726">
        <ele>761</ele>
        <time>2022-09-22T08:17:05Z</time>
      </trkpt>
      <trkpt lat="44.15072" lon="5.85725">
        <ele>761</ele>
        <time>2022-09-22T08:17:06Z</time>
      </trkpt>
      <trkpt lat="44.15072" lon="5.85724">
        <ele>761</ele>
        <time>2022-09-22T08:17:07Z</time>
      </trkpt>
      <trkpt lat="44.15072" lon="5.85723">
        <ele>761</ele>
        <time>2022-09-22T08:17:08Z</time>
      </trkpt>
      <trkpt lat="44.15072" lon="5.85722">
        <ele>762</ele>
        <time>2022-09-22T08:17:09Z</time>
      </trkpt>
      <trkpt lat="44.15072" lon="5.85721">
        <ele>762</ele>
        <time>2022-09-22T08:17:10Z</time>
      </trkpt>
      <trkpt lat="44.15072" lon="5.85721">
        <ele>762</ele>
        <time>2022-09-22T08:17:11Z</time>
      </trkpt>
      <trkpt lat="44.15072" lon="5.85721">
        <ele>762</ele>
        <time>2022-09-22T08:17:12Z</time>
      </trkpt>
      <trkpt lat="44.15072" lon="5.8572">
        <ele>762</ele>
        <time>2022-09-22T08:17:13Z</time>
      </trkpt>
      <trkpt lat="44.15072" lon="5.8572">
        <ele>763</ele>
        <time>2022-09-22T08:17:14Z</time>
      </trkpt>
      <trkpt lat="44.15072" lon="5.85719">
        <ele>763</ele>
        <time>2022-09-22T08:17:15Z</time>
      </trkpt>
      <trkpt lat="44.15072" lon="5.85718">
        <ele>763</ele>
        <time>2022-09-22T08:17:16Z</time>
      </trkpt>
      <trkpt lat="44.15072" lon="5.85717">
        <ele>763</ele>
        <time>2022-09-22T08:17:17Z</time>
      </trkpt>
      <trkpt lat="44.15072" lon="5.85716">
        <ele>763</ele>
        <time>2022-09-22T08:17:18Z</time>
      </trkpt>
      <trkpt lat="44.15072" lon="5.85715">
        <ele>763</ele>
        <time>2022-09-22T08:17:19Z</time>
      </trkpt>
      <trkpt lat="44.15072" lon="5.85714">
        <ele>763</ele>
        <time>2022-09-22T08:17:20Z</time>
      </trkpt>
      <trkpt lat="44.15072" lon="5.85713">
        <ele>763</ele>
        <time>2022-09-22T08:17:21Z</time>
      </trkpt>
      <trkpt lat="44.15072" lon="5.85713">
        <ele>763</ele>
        <time>2022-09-22T08:17:22Z</time>
      </trkpt>
      <trkpt lat="44.15069" lon="5.85705">
        <ele>773</ele>
        <time>2022-09-22T08:18:29Z</time>
      </trkpt>
      <trkpt lat="44.15068" lon="5.857">
        <ele>773</ele>
        <time>2022-09-22T08:18:30Z</time>
      </trkpt>
      <trkpt lat="44.15066" lon="5.85696">
        <ele>773</ele>
        <time>2022-09-22T08:18:31Z</time>
      </trkpt>
      <trkpt lat="44.15065" lon="5.85694">
        <ele>773</ele>
        <time>2022-09-22T08:18:32Z</time>
      </trkpt>
      <trkpt lat="44.15064" lon="5.85691">
        <ele>773</ele>
        <time>2022-09-22T08:18:33Z</time>
      </trkpt>
      <trkpt lat="44.15063" lon="5.8569">
        <ele>773</ele>
        <time>2022-09-22T08:18:34Z</time>
      </trkpt>
      <trkpt lat="44.15063" lon="5.85688">
        <ele>773</ele>
        <time>2022-09-22T08:18:35Z</time>
      </trkpt>
      <trkpt lat="44.15062" lon="5.85687">
        <ele>773</ele>
        <time>2022-09-22T08:18:36Z</time>
      </trkpt>
      <trkpt lat="44.15062" lon="5.85686">
        <ele>773</ele>
        <time>2022-09-22T08:18:37Z</time>
      </trkpt>
      <trkpt lat="44.15062" lon="5.85684">
        <ele>773</ele>
        <time>2022-09-22T08:18:38Z</time>
      </trkpt>
      <trkpt lat="44.15061" lon="5.85683">
        <ele>774</ele>
        <time>2022-09-22T08:18:39Z</time>
      </trkpt>
      <trkpt lat="44.15061" lon="5.85682">
        <ele>774</ele>
        <time>2022-09-22T08:18:40Z</time>
      </trkpt>
      <trkpt lat="44.15061" lon="5.85681">
        <ele>774</ele>
        <time>2022-09-22T08:18:41Z</time>
      </trkpt>
      <trkpt lat="44.15061" lon="5.8568">
        <ele>774</ele>
        <time>2022-09-22T08:18:42Z</time>
      </trkpt>
      <trkpt lat="44.15061" lon="5.8568">
        <ele>774</ele>
        <time>2022-09-22T08:18:43Z</time>
      </trkpt>
      <trkpt lat="44.1506" lon="5.85679">
        <ele>775</ele>
        <time>2022-09-22T08:18:44Z</time>
      </trkpt>
      <trkpt lat="44.1506" lon="5.85678">
        <ele>775</ele>
        <time>2022-09-22T08:18:45Z</time>
      </trkpt>
      <trkpt lat="44.1506" lon="5.85677">
        <ele>775</ele>
        <time>2022-09-22T08:18:46Z</time>
      </trkpt>
      <trkpt lat="44.1506" lon="5.85676">
        <ele>775</ele>
        <time>2022-09-22T08:18:47Z</time>
      </trkpt>
      <trkpt lat="44.1506" lon="5.85675">
        <ele>775</ele>
        <time>2022-09-22T08:18:48Z</time>
      </trkpt>
      <trkpt lat="44.1506" lon="5.85674">
        <ele>775</ele>
        <time>2022-09-22T08:18:49Z</time>
      </trkpt>
      <trkpt lat="44.15059" lon="5.85674">
        <ele>775</ele>
        <time>2022-09-22T08:18:50Z</time>
      </trkpt>
      <trkpt lat="44.15059" lon="5.85673">
        <ele>775</ele>
        <time>2022-09-22T08:18:51Z</time>
      </trkpt>
      <trkpt lat="44.15059" lon="5.85672">
        <ele>775</ele>
        <time>2022-09-22T08:18:52Z</time>
      </trkpt>
      <trkpt lat="44.15059" lon="5.85671">
        <ele>775</ele>
        <time>2022-09-22T08:18:53Z</time>
      </trkpt>
      <trkpt lat="44.15059" lon="5.85671">
        <ele>776</ele>
        <time>2022-09-22T08:18:54Z</time>
      </trkpt>
      <trkpt lat="44.15058" lon="5.8567">
        <ele>776</ele>
        <time>2022-09-22T08:18:55Z</time>
      </trkpt>
      <trkpt lat="44.15058" lon="5.85669">
        <ele>776</ele>
        <time>2022-09-22T08:18:56Z</time>
      </trkpt>
      <trkpt lat="44.15058" lon="5.85668">
        <ele>776</ele>
        <time>2022-09-22T08:18:57Z</time>
      </trkpt>
      <trkpt lat="44.15058" lon="5.85668">
        <ele>776</ele>
        <time>2022-09-22T08:18:58Z</time>
      </trkpt>
      <trkpt lat="44.15058" lon="5.85667">
        <ele>777</ele>
        <time>2022-09-22T08:18:59Z</time>
      </trkpt>
      <trkpt lat="44.15058" lon="5.85667">
        <ele>777</ele>
        <time>2022-09-22T08:19:00Z</time>
      </trkpt>
      <trkpt lat="44.15058" lon="5.85666">
        <ele>777</ele>
        <time>2022-09-22T08:19:01Z</time>
      </trkpt>
      <trkpt lat="44.15058" lon="5.85665">
        <ele>777</ele>
        <time>2022-09-22T08:19:02Z</time>
      </trkpt>
      <trkpt lat="44.15058" lon="5.85664">
        <ele>777</ele>
        <time>2022-09-22T08:19:03Z</time>
      </trkpt>
      <trkpt lat="44.15058" lon="5.85663">
        <ele>777</ele>
        <time>2022-09-22T08:19:04Z</time>
      </trkpt>
      <trkpt lat="44.15058" lon="5.85662">
        <ele>777</ele>
        <time>2022-09-22T08:19:05Z</time>
      </trkpt>
      <trkpt lat="44.15057" lon="5.85662">
        <ele>777</ele>
        <time>2022-09-22T08:19:06Z</time>
      </trkpt>
      <trkpt lat="44.15057" lon="5.85661">
        <ele>777</ele>
        <time>2022-09-22T08:19:07Z</time>
      </trkpt>
      <trkpt lat="44.15057" lon="5.8566">
        <ele>777</ele>
        <time>2022-09-22T08:19:08Z</time>
      </trkpt>
      <trkpt lat="44.15056" lon="5.85659">
        <ele>778</ele>
        <time>2022-09-22T08:19:09Z</time>
      </trkpt>
      <trkpt lat="44.15056" lon="5.85658">
        <ele>778</ele>
        <time>2022-09-22T08:19:10Z</time>
      </trkpt>
      <trkpt lat="44.15056" lon="5.85657">
        <ele>778</ele>
        <time>2022-09-22T08:19:11Z</time>
      </trkpt>
      <trkpt lat="44.15055" lon="5.85656">
        <ele>778</ele>
        <time>2022-09-22T08:19:12Z</time>
      </trkpt>
      <trkpt lat="44.15055" lon="5.85655">
        <ele>778</ele>
        <time>2022-09-22T08:19:13Z</time>
      </trkpt>
      <trkpt lat="44.15055" lon="5.85654">
        <ele>779</ele>
        <time>2022-09-22T08:19:14Z</time>
      </trkpt>
      <trkpt lat="44.15055" lon="5.85654">
        <ele>779</ele>
        <time>2022-09-22T08:19:15Z</time>
      </trkpt>
      <trkpt lat="44.15055" lon="5.85653">
        <ele>779</ele>
        <time>2022-09-22T08:19:16Z</time>
      </trkpt>
      <trkpt lat="44.15055" lon="5.85652">
        <ele>779</ele>
        <time>2022-09-22T08:19:17Z</time>
      </trkpt>
      <trkpt lat="44.15055" lon="5.85651">
        <ele>779</ele>
        <time>2022-09-22T08:19:18Z</time>
      </trkpt>
      <trkpt lat="44.15055" lon="5.8565">
        <ele>779</ele>
        <time>2022-09-22T08:19:19Z</time>
      </trkpt>
      <trkpt lat="44.15055" lon="5.85649">
        <ele>779</ele>
        <time>2022-09-22T08:19:20Z</time>
      </trkpt>
      <trkpt lat="44.15055" lon="5.85648">
        <ele>779</ele>
        <time>2022-09-22T08:19:21Z</time>
      </trkpt>
      <trkpt lat="44.15055" lon="5.85648">
        <ele>779</ele>
        <time>2022-09-22T08:19:22Z</time>
      </trkpt>
      <trkpt lat="44.15055" lon="5.85647">
        <ele>779</ele>
        <time>2022-09-22T08:19:23Z</time>
      </trkpt>
      <trkpt lat="44.15054" lon="5.85646">
        <ele>780</ele>
        <time>2022-09-22T08:19:24Z</time>
      </trkpt>
      <trkpt lat="44.15054" lon="5.85645">
        <ele>780</ele>
        <time>2022-09-22T08:19:25Z</time>
      </trkpt>
      <trkpt lat="44.15054" lon="5.85645">
        <ele>780</ele>
        <time>2022-09-22T08:19:26Z</time>
      </trkpt>
      <trkpt lat="44.15054" lon="5.85644">
        <ele>780</ele>
        <time>2022-09-22T08:19:27Z</time>
      </trkpt>
      <trkpt lat="44.15054" lon="5.85643">
        <ele>780</ele>
        <time>2022-09-22T08:19:28Z</time>
      </trkpt>
      <trkpt lat="44.15054" lon="5.85642">
        <ele>781</ele>
        <time>2022-09-22T08:19:29Z</time>
      </trkpt>
      <trkpt lat="44.15053" lon="5.85639">
        <ele>782</ele>
        <time>2022-09-22T08:19:40Z</time>
      </trkpt>
      <trkpt lat="44.15053" lon="5.85638">
        <ele>782</ele>
        <time>2022-09-22T08:19:41Z</time>
      </trkpt>
      <trkpt lat="44.15052" lon="5.85637">
        <ele>782</ele>
        <time>2022-09-22T08:19:42Z</time>
      </trkpt>
      <trkpt lat="44.15052" lon="5.85636">
        <ele>782</ele>
        <time>2022-09-22T08:19:43Z</time>
      </trkpt>
      <trkpt lat="44.15051" lon="5.85635">
        <ele>783</ele>
        <time>2022-09-22T08:19:44Z</time>
      </trkpt>
      <trkpt lat="44.15051" lon="5.85633">
        <ele>783</ele>
        <time>2022-09-22T08:19:45Z</time>
      </trkpt>
      <trkpt lat="44.15051" lon="5.85632">
        <ele>783</ele>
        <time>2022-09-22T08:19:46Z</time>
      </trkpt>
      <trkpt lat="44.15051" lon="5.85631">
        <ele>783</ele>
        <time>2022-09-22T08:19:47Z</time>
      </trkpt>
      <trkpt lat="44.15051" lon="5.8563">
        <ele>783</ele>
        <time>2022-09-22T08:19:48Z</time>
      </trkpt>
      <trkpt lat="44.15051" lon="5.85629">
        <ele>784</ele>
        <time>2022-09-22T08:19:49Z</time>
      </trkpt>
      <trkpt lat="44.15051" lon="5.85628">
        <ele>784</ele>
        <time>2022-09-22T08:19:50Z</time>
      </trkpt>
      <trkpt lat="44.1505" lon="5.85628">
        <ele>784</ele>
        <time>2022-09-22T08:19:51Z</time>
      </trkpt>
      <trkpt lat="44.1505" lon="5.85627">
        <ele>784</ele>
        <time>2022-09-22T08:19:52Z</time>
      </trkpt>
      <trkpt lat="44.1505" lon="5.85627">
        <ele>784</ele>
        <time>2022-09-22T08:19:53Z</time>
      </trkpt>
      <trkpt lat="44.1505" lon="5.85626">
        <ele>785</ele>
        <time>2022-09-22T08:19:54Z</time>
      </trkpt>
      <trkpt lat="44.1505" lon="5.85625">
        <ele>785</ele>
        <time>2022-09-22T08:19:55Z</time>
      </trkpt>
      <trkpt lat="44.1505" lon="5.85624">
        <ele>785</ele>
        <time>2022-09-22T08:19:56Z</time>
      </trkpt>
      <trkpt lat="44.1505" lon="5.85624">
        <ele>785</ele>
        <time>2022-09-22T08:19:57Z</time>
      </trkpt>
      <trkpt lat="44.1505" lon="5.85623">
        <ele>785</ele>
        <time>2022-09-22T08:19:58Z</time>
      </trkpt>
      <trkpt lat="44.1505" lon="5.85622">
        <ele>785</ele>
        <time>2022-09-22T08:19:59Z</time>
      </trkpt>
      <trkpt lat="44.1505" lon="5.85621">
        <ele>785</ele>
        <time>2022-09-22T08:20:00Z</time>
      </trkpt>
      <trkpt lat="44.1505" lon="5.8562">
        <ele>785</ele>
        <time>2022-09-22T08:20:01Z</time>
      </trkpt>
      <trkpt lat="44.1505" lon="5.85619">
        <ele>785</ele>
        <time>2022-09-22T08:20:02Z</time>
      </trkpt>
      <trkpt lat="44.1505" lon="5.85617">
        <ele>785</ele>
        <time>2022-09-22T08:20:03Z</time>
      </trkpt>
      <trkpt lat="44.15051" lon="5.85616">
        <ele>786</ele>
        <time>2022-09-22T08:20:04Z</time>
      </trkpt>
      <trkpt lat="44.15051" lon="5.85615">
        <ele>786</ele>
        <time>2022-09-22T08:20:05Z</time>
      </trkpt>
      <trkpt lat="44.15051" lon="5.85613">
        <ele>786</ele>
        <time>2022-09-22T08:20:06Z</time>
      </trkpt>
      <trkpt lat="44.15052" lon="5.85612">
        <ele>786</ele>
        <time>2022-09-22T08:20:07Z</time>
      </trkpt>
      <trkpt lat="44.15052" lon="5.8561">
        <ele>786</ele>
        <time>2022-09-22T08:20:08Z</time>
      </trkpt>
      <trkpt lat="44.15052" lon="5.85609">
        <ele>787</ele>
        <time>2022-09-22T08:20:09Z</time>
      </trkpt>
      <trkpt lat="44.15052" lon="5.85608">
        <ele>787</ele>
        <time>2022-09-22T08:20:10Z</time>
      </trkpt>
      <trkpt lat="44.15053" lon="5.85607">
        <ele>787</ele>
        <time>2022-09-22T08:20:11Z</time>
      </trkpt>
      <trkpt lat="44.15053" lon="5.85605">
        <ele>787</ele>
        <time>2022-09-22T08:20:12Z</time>
      </trkpt>
      <trkpt lat="44.15054" lon="5.85604">
        <ele>787</ele>
        <time>2022-09-22T08:20:13Z</time>
      </trkpt>
      <trkpt lat="44.15055" lon="5.85603">
        <ele>787</ele>
        <time>2022-09-22T08:20:14Z</time>
      </trkpt>
      <trkpt lat="44.15055" lon="5.85602">
        <ele>787</ele>
        <time>2022-09-22T08:20:15Z</time>
      </trkpt>
      <trkpt lat="44.15055" lon="5.856">
        <ele>787</ele>
        <time>2022-09-22T08:20:16Z</time>
      </trkpt>
      <trkpt lat="44.15055" lon="5.85599">
        <ele>787</ele>
        <time>2022-09-22T08:20:17Z</time>
      </trkpt>
      <trkpt lat="44.15054" lon="5.85597">
        <ele>788</ele>
        <time>2022-09-22T08:20:23Z</time>
      </trkpt>
      <trkpt lat="44.15054" lon="5.85595">
        <ele>788</ele>
        <time>2022-09-22T08:20:24Z</time>
      </trkpt>
      <trkpt lat="44.15053" lon="5.85594">
        <ele>788</ele>
        <time>2022-09-22T08:20:25Z</time>
      </trkpt>
      <trkpt lat="44.15053" lon="5.85593">
        <ele>788</ele>
        <time>2022-09-22T08:20:26Z</time>
      </trkpt>
      <trkpt lat="44.15053" lon="5.85592">
        <ele>788</ele>
        <time>2022-09-22T08:20:27Z</time>
      </trkpt>
      <trkpt lat="44.15053" lon="5.8559">
        <ele>788</ele>
        <time>2022-09-22T08:20:28Z</time>
      </trkpt>
      <trkpt lat="44.15054" lon="5.85589">
        <ele>789</ele>
        <time>2022-09-22T08:20:29Z</time>
      </trkpt>
      <trkpt lat="44.15054" lon="5.85588">
        <ele>789</ele>
        <time>2022-09-22T08:20:30Z</time>
      </trkpt>
      <trkpt lat="44.15054" lon="5.85587">
        <ele>789</ele>
        <time>2022-09-22T08:20:31Z</time>
      </trkpt>
      <trkpt lat="44.15054" lon="5.85586">
        <ele>789</ele>
        <time>2022-09-22T08:20:32Z</time>
      </trkpt>
      <trkpt lat="44.15054" lon="5.85584">
        <ele>789</ele>
        <time>2022-09-22T08:20:33Z</time>
      </trkpt>
      <trkpt lat="44.15054" lon="5.85584">
        <ele>789</ele>
        <time>2022-09-22T08:20:34Z</time>
      </trkpt>
      <trkpt lat="44.15054" lon="5.85583">
        <ele>789</ele>
        <time>2022-09-22T08:20:35Z</time>
      </trkpt>
      <trkpt lat="44.15053" lon="5.85582">
        <ele>789</ele>
        <time>2022-09-22T08:20:36Z</time>
      </trkpt>
      <trkpt lat="44.15053" lon="5.85581">
        <ele>789</ele>
        <time>2022-09-22T08:20:37Z</time>
      </trkpt>
      <trkpt lat="44.15053" lon="5.8558">
        <ele>789</ele>
        <time>2022-09-22T08:20:38Z</time>
      </trkpt>
      <trkpt lat="44.15053" lon="5.85579">
        <ele>790</ele>
        <time>2022-09-22T08:20:39Z</time>
      </trkpt>
      <trkpt lat="44.15054" lon="5.85578">
        <ele>790</ele>
        <time>2022-09-22T08:20:40Z</time>
      </trkpt>
      <trkpt lat="44.15054" lon="5.85577">
        <ele>790</ele>
        <time>2022-09-22T08:20:41Z</time>
      </trkpt>
      <trkpt lat="44.15054" lon="5.85576">
        <ele>790</ele>
        <time>2022-09-22T08:20:42Z</time>
      </trkpt>
      <trkpt lat="44.15055" lon="5.85576">
        <ele>790</ele>
        <time>2022-09-22T08:20:43Z</time>
      </trkpt>
      <trkpt lat="44.15055" lon="5.85575">
        <ele>790</ele>
        <time>2022-09-22T08:20:44Z</time>
      </trkpt>
      <trkpt lat="44.15055" lon="5.85574">
        <ele>790</ele>
        <time>2022-09-22T08:20:45Z</time>
      </trkpt>
      <trkpt lat="44.15055" lon="5.85572">
        <ele>790</ele>
        <time>2022-09-22T08:20:46Z</time>
      </trkpt>
      <trkpt lat="44.15056" lon="5.85571">
        <ele>790</ele>
        <time>2022-09-22T08:20:47Z</time>
      </trkpt>
      <trkpt lat="44.15055" lon="5.8557">
        <ele>790</ele>
        <time>2022-09-22T08:20:48Z</time>
      </trkpt>
      <trkpt lat="44.15055" lon="5.85569">
        <ele>791</ele>
        <time>2022-09-22T08:20:49Z</time>
      </trkpt>
      <trkpt lat="44.15055" lon="5.85568">
        <ele>791</ele>
        <time>2022-09-22T08:20:50Z</time>
      </trkpt>
      <trkpt lat="44.15054" lon="5.85567">
        <ele>791</ele>
        <time>2022-09-22T08:20:51Z</time>
      </trkpt>
      <trkpt lat="44.15054" lon="5.85565">
        <ele>791</ele>
        <time>2022-09-22T08:20:52Z</time>
      </trkpt>
      <trkpt lat="44.15053" lon="5.85564">
        <ele>791</ele>
        <time>2022-09-22T08:20:53Z</time>
      </trkpt>
      <trkpt lat="44.15053" lon="5.85562">
        <ele>791</ele>
        <time>2022-09-22T08:20:54Z</time>
      </trkpt>
      <trkpt lat="44.15053" lon="5.85561">
        <ele>791</ele>
        <time>2022-09-22T08:20:55Z</time>
      </trkpt>
      <trkpt lat="44.15053" lon="5.85559">
        <ele>791</ele>
        <time>2022-09-22T08:20:56Z</time>
      </trkpt>
      <trkpt lat="44.15053" lon="5.85558">
        <ele>791</ele>
        <time>2022-09-22T08:20:57Z</time>
      </trkpt>
      <trkpt lat="44.15054" lon="5.85557">
        <ele>791</ele>
        <time>2022-09-22T08:20:58Z</time>
      </trkpt>
      <trkpt lat="44.15054" lon="5.85556">
        <ele>792</ele>
        <time>2022-09-22T08:20:59Z</time>
      </trkpt>
      <trkpt lat="44.15055" lon="5.85555">
        <ele>792</ele>
        <time>2022-09-22T08:21:00Z</time>
      </trkpt>
      <trkpt lat="44.15055" lon="5.85554">
        <ele>792</ele>
        <time>2022-09-22T08:21:01Z</time>
      </trkpt>
      <trkpt lat="44.15056" lon="5.85553">
        <ele>792</ele>
        <time>2022-09-22T08:21:02Z</time>
      </trkpt>
      <trkpt lat="44.15056" lon="5.85552">
        <ele>792</ele>
        <time>2022-09-22T08:21:03Z</time>
      </trkpt>
      <trkpt lat="44.15056" lon="5.85551">
        <ele>792</ele>
        <time>2022-09-22T08:21:04Z</time>
      </trkpt>
      <trkpt lat="44.15057" lon="5.8555">
        <ele>792</ele>
        <time>2022-09-22T08:21:05Z</time>
      </trkpt>
      <trkpt lat="44.15057" lon="5.85549">
        <ele>792</ele>
        <time>2022-09-22T08:21:06Z</time>
      </trkpt>
      <trkpt lat="44.15057" lon="5.85548">
        <ele>792</ele>
        <time>2022-09-22T08:21:07Z</time>
      </trkpt>
      <trkpt lat="44.15057" lon="5.85547">
        <ele>792</ele>
        <time>2022-09-22T08:21:08Z</time>
      </trkpt>
      <trkpt lat="44.15057" lon="5.85546">
        <ele>793</ele>
        <time>2022-09-22T08:21:09Z</time>
      </trkpt>
      <trkpt lat="44.15058" lon="5.85545">
        <ele>793</ele>
        <time>2022-09-22T08:21:10Z</time>
      </trkpt>
      <trkpt lat="44.15058" lon="5.85542">
        <ele>794</ele>
        <time>2022-09-22T08:21:22Z</time>
      </trkpt>
      <trkpt lat="44.15058" lon="5.8554">
        <ele>794</ele>
        <time>2022-09-22T08:21:23Z</time>
      </trkpt>
      <trkpt lat="44.15058" lon="5.85538">
        <ele>795</ele>
        <time>2022-09-22T08:21:24Z</time>
      </trkpt>
      <trkpt lat="44.15058" lon="5.85537">
        <ele>795</ele>
        <time>2022-09-22T08:21:25Z</time>
      </trkpt>
      <trkpt lat="44.15058" lon="5.85536">
        <ele>795</ele>
        <time>2022-09-22T08:21:26Z</time>
      </trkpt>
      <trkpt lat="44.15058" lon="5.85535">
        <ele>795</ele>
        <time>2022-09-22T08:21:27Z</time>
      </trkpt>
      <trkpt lat="44.15058" lon="5.85534">
        <ele>795</ele>
        <time>2022-09-22T08:21:28Z</time>
      </trkpt>
      <trkpt lat="44.15059" lon="5.85533">
        <ele>795</ele>
        <time>2022-09-22T08:21:29Z</time>
      </trkpt>
      <trkpt lat="44.15059" lon="5.85532">
        <ele>795</ele>
        <time>2022-09-22T08:21:30Z</time>
      </trkpt>
      <trkpt lat="44.15059" lon="5.8553">
        <ele>795</ele>
        <time>2022-09-22T08:21:31Z</time>
      </trkpt>
      <trkpt lat="44.1506" lon="5.85529">
        <ele>795</ele>
        <time>2022-09-22T08:21:32Z</time>
      </trkpt>
      <trkpt lat="44.1506" lon="5.85527">
        <ele>795</ele>
        <time>2022-09-22T08:21:33Z</time>
      </trkpt>
      <trkpt lat="44.1506" lon="5.85526">
        <ele>796</ele>
        <time>2022-09-22T08:21:34Z</time>
      </trkpt>
      <trkpt lat="44.15061" lon="5.85524">
        <ele>796</ele>
        <time>2022-09-22T08:21:35Z</time>
      </trkpt>
      <trkpt lat="44.15061" lon="5.85522">
        <ele>796</ele>
        <time>2022-09-22T08:21:36Z</time>
      </trkpt>
      <trkpt lat="44.15061" lon="5.8552">
        <ele>796</ele>
        <time>2022-09-22T08:21:37Z</time>
      </trkpt>
      <trkpt lat="44.15061" lon="5.85519">
        <ele>796</ele>
        <time>2022-09-22T08:21:38Z</time>
      </trkpt>
      <trkpt lat="44.15061" lon="5.85516">
        <ele>798</ele>
        <time>2022-09-22T08:21:51Z</time>
      </trkpt>
      <trkpt lat="44.1506" lon="5.85514">
        <ele>798</ele>
        <time>2022-09-22T08:21:52Z</time>
      </trkpt>
      <trkpt lat="44.1506" lon="5.85512">
        <ele>798</ele>
        <time>2022-09-22T08:21:53Z</time>
      </trkpt>
      <trkpt lat="44.1506" lon="5.85511">
        <ele>799</ele>
        <time>2022-09-22T08:21:54Z</time>
      </trkpt>
      <trkpt lat="44.1506" lon="5.85509">
        <ele>799</ele>
        <time>2022-09-22T08:21:55Z</time>
      </trkpt>
      <trkpt lat="44.1506" lon="5.85508">
        <ele>799</ele>
        <time>2022-09-22T08:21:56Z</time>
      </trkpt>
      <trkpt lat="44.1506" lon="5.85507">
        <ele>800</ele>
        <time>2022-09-22T08:21:57Z</time>
      </trkpt>
      <trkpt lat="44.1506" lon="5.85506">
        <ele>800</ele>
        <time>2022-09-22T08:21:58Z</time>
      </trkpt>
      <trkpt lat="44.1506" lon="5.85505">
        <ele>801</ele>
        <time>2022-09-22T08:21:59Z</time>
      </trkpt>
      <trkpt lat="44.15061" lon="5.85501">
        <ele>804</ele>
        <time>2022-09-22T08:22:23Z</time>
      </trkpt>
      <trkpt lat="44.15062" lon="5.85498">
        <ele>805</ele>
        <time>2022-09-22T08:22:24Z</time>
      </trkpt>
      <trkpt lat="44.15063" lon="5.85494">
        <ele>805</ele>
        <time>2022-09-22T08:22:25Z</time>
      </trkpt>
      <trkpt lat="44.15063" lon="5.85492">
        <ele>805</ele>
        <time>2022-09-22T08:22:26Z</time>
      </trkpt>
      <trkpt lat="44.15064" lon="5.8549">
        <ele>805</ele>
        <time>2022-09-22T08:22:27Z</time>
      </trkpt>
      <trkpt lat="44.15064" lon="5.85488">
        <ele>805</ele>
        <time>2022-09-22T08:22:28Z</time>
      </trkpt>
      <trkpt lat="44.15065" lon="5.85487">
        <ele>806</ele>
        <time>2022-09-22T08:22:29Z</time>
      </trkpt>
      <trkpt lat="44.15066" lon="5.85485">
        <ele>806</ele>
        <time>2022-09-22T08:22:30Z</time>
      </trkpt>
      <trkpt lat="44.15066" lon="5.85483">
        <ele>806</ele>
        <time>2022-09-22T08:22:31Z</time>
      </trkpt>
      <trkpt lat="44.15067" lon="5.85482">
        <ele>806</ele>
        <time>2022-09-22T08:22:32Z</time>
      </trkpt>
      <trkpt lat="44.15067" lon="5.8548">
        <ele>806</ele>
        <time>2022-09-22T08:22:33Z</time>
      </trkpt>
      <trkpt lat="44.15067" lon="5.85479">
        <ele>807</ele>
        <time>2022-09-22T08:22:34Z</time>
      </trkpt>
      <trkpt lat="44.15068" lon="5.85479">
        <ele>807</ele>
        <time>2022-09-22T08:22:35Z</time>
      </trkpt>
      <trkpt lat="44.15068" lon="5.85479">
        <ele>807</ele>
        <time>2022-09-22T08:22:36Z</time>
      </trkpt>
      <trkpt lat="44.15068" lon="5.85478">
        <ele>807</ele>
        <time>2022-09-22T08:22:37Z</time>
      </trkpt>
      <trkpt lat="44.15068" lon="5.85478">
        <ele>807</ele>
        <time>2022-09-22T08:22:38Z</time>
      </trkpt>
      <trkpt lat="44.15069" lon="5.85477">
        <ele>808</ele>
        <time>2022-09-22T08:22:39Z</time>
      </trkpt>
      <trkpt lat="44.15069" lon="5.85476">
        <ele>808</ele>
        <time>2022-09-22T08:22:40Z</time>
      </trkpt>
      <trkpt lat="44.15072" lon="5.85473">
        <ele>811</ele>
        <time>2022-09-22T08:27:02Z</time>
      </trkpt>
      <trkpt lat="44.15073" lon="5.85472">
        <ele>811</ele>
        <time>2022-09-22T08:27:03Z</time>
      </trkpt>
      <trkpt lat="44.15075" lon="5.85471">
        <ele>811</ele>
        <time>2022-09-22T08:27:04Z</time>
      </trkpt>
      <trkpt lat="44.15075" lon="5.8547">
        <ele>811</ele>
        <time>2022-09-22T08:27:05Z</time>
      </trkpt>
      <trkpt lat="44.15076" lon="5.85469">
        <ele>811</ele>
        <time>2022-09-22T08:27:06Z</time>
      </trkpt>
      <trkpt lat="44.15077" lon="5.85467">
        <ele>811</ele>
        <time>2022-09-22T08:29:11Z</time>
      </trkpt>
      <trkpt lat="44.15077" lon="5.85466">
        <ele>811</ele>
        <time>2022-09-22T08:29:12Z</time>
      </trkpt>
      <trkpt lat="44.15077" lon="5.85465">
        <ele>811</ele>
        <time>2022-09-22T08:29:13Z</time>
      </trkpt>
      <trkpt lat="44.15077" lon="5.85465">
        <ele>811</ele>
        <time>2022-09-22T08:29:14Z</time>
      </trkpt>
      <trkpt lat="44.15077" lon="5.85464">
        <ele>811</ele>
        <time>2022-09-22T08:29:15Z</time>
      </trkpt>
      <trkpt lat="44.15077" lon="5.85464">
        <ele>811</ele>
        <time>2022-09-22T08:29:16Z</time>
      </trkpt>
      <trkpt lat="44.15077" lon="5.85463">
        <ele>811</ele>
        <time>2022-09-22T08:29:17Z</time>
      </trkpt>
      <trkpt lat="44.15078" lon="5.85462">
        <ele>811</ele>
        <time>2022-09-22T08:29:18Z</time>
      </trkpt>
      <trkpt lat="44.15078" lon="5.85461">
        <ele>811</ele>
        <time>2022-09-22T08:29:19Z</time>
      </trkpt>
      <trkpt lat="44.15078" lon="5.8546">
        <ele>811</ele>
        <time>2022-09-22T08:29:20Z</time>
      </trkpt>
      <trkpt lat="44.15078" lon="5.85459">
        <ele>811</ele>
        <time>2022-09-22T08:29:21Z</time>
      </trkpt>
      <trkpt lat="44.15078" lon="5.85458">
        <ele>811</ele>
        <time>2022-09-22T08:29:22Z</time>
      </trkpt>
      <trkpt lat="44.15079" lon="5.85457">
        <ele>811</ele>
        <time>2022-09-22T08:29:23Z</time>
      </trkpt>
      <trkpt lat="44.15079" lon="5.85456">
        <ele>811</ele>
        <time>2022-09-22T08:29:24Z</time>
      </trkpt>
      <trkpt lat="44.15079" lon="5.85455">
        <ele>811</ele>
        <time>2022-09-22T08:29:25Z</time>
      </trkpt>
      <trkpt lat="44.1508" lon="5.85453">
        <ele>811</ele>
        <time>2022-09-22T08:29:26Z</time>
      </trkpt>
      <trkpt lat="44.1508" lon="5.85453">
        <ele>811</ele>
        <time>2022-09-22T08:29:27Z</time>
      </trkpt>
      <trkpt lat="44.1508" lon="5.85452">
        <ele>811</ele>
        <time>2022-09-22T08:29:28Z</time>
      </trkpt>
      <trkpt lat="44.15081" lon="5.85451">
        <ele>811</ele>
        <time>2022-09-22T08:29:29Z</time>
      </trkpt>
      <trkpt lat="44.15081" lon="5.8545">
        <ele>810</ele>
        <time>2022-09-22T08:29:30Z</time>
      </trkpt>
      <trkpt lat="44.15081" lon="5.85448">
        <ele>810</ele>
        <time>2022-09-22T08:29:31Z</time>
      </trkpt>
      <trkpt lat="44.15081" lon="5.85447">
        <ele>810</ele>
        <time>2022-09-22T08:29:32Z</time>
      </trkpt>
      <trkpt lat="44.15081" lon="5.85445">
        <ele>810</ele>
        <time>2022-09-22T08:29:33Z</time>
      </trkpt>
      <trkpt lat="44.15081" lon="5.85444">
        <ele>810</ele>
        <time>2022-09-22T08:29:34Z</time>
      </trkpt>
      <trkpt lat="44.15081" lon="5.85442">
        <ele>810</ele>
        <time>2022-09-22T08:29:35Z</time>
      </trkpt>
      <trkpt lat="44.15082" lon="5.8544">
        <ele>810</ele>
        <time>2022-09-22T08:29:36Z</time>
      </trkpt>
      <trkpt lat="44.15082" lon="5.85439">
        <ele>810</ele>
        <time>2022-09-22T08:29:37Z</time>
      </trkpt>
      <trkpt lat="44.15082" lon="5.85437">
        <ele>810</ele>
        <time>2022-09-22T08:29:38Z</time>
      </trkpt>
      <trkpt lat="44.15082" lon="5.85436">
        <ele>810</ele>
        <time>2022-09-22T08:29:39Z</time>
      </trkpt>
      <trkpt lat="44.15082" lon="5.85434">
        <ele>810</ele>
        <time>2022-09-22T08:29:40Z</time>
      </trkpt>
      <trkpt lat="44.15083" lon="5.85432">
        <ele>810</ele>
        <time>2022-09-22T08:29:41Z</time>
      </trkpt>
      <trkpt lat="44.15083" lon="5.85431">
        <ele>810</ele>
        <time>2022-09-22T08:29:42Z</time>
      </trkpt>
      <trkpt lat="44.15082" lon="5.85429">
        <ele>810</ele>
        <time>2022-09-22T08:29:43Z</time>
      </trkpt>
      <trkpt lat="44.15083" lon="5.85428">
        <ele>810</ele>
        <time>2022-09-22T08:29:44Z</time>
      </trkpt>
      <trkpt lat="44.15083" lon="5.85427">
        <ele>810</ele>
        <time>2022-09-22T08:29:45Z</time>
      </trkpt>
      <trkpt lat="44.15083" lon="5.85425">
        <ele>810</ele>
        <time>2022-09-22T08:29:46Z</time>
      </trkpt>
      <trkpt lat="44.15083" lon="5.85424">
        <ele>810</ele>
        <time>2022-09-22T08:29:47Z</time>
      </trkpt>
      <trkpt lat="44.15083" lon="5.85423">
        <ele>810</ele>
        <time>2022-09-22T08:29:48Z</time>
      </trkpt>
      <trkpt lat="44.15084" lon="5.85422">
        <ele>810</ele>
        <time>2022-09-22T08:29:49Z</time>
      </trkpt>
      <trkpt lat="44.15084" lon="5.85421">
        <ele>810</ele>
        <time>2022-09-22T08:29:50Z</time>
      </trkpt>
      <trkpt lat="44.15084" lon="5.8542">
        <ele>810</ele>
        <time>2022-09-22T08:29:51Z</time>
      </trkpt>
      <trkpt lat="44.15084" lon="5.85419">
        <ele>810</ele>
        <time>2022-09-22T08:29:52Z</time>
      </trkpt>
      <trkpt lat="44.15085" lon="5.85418">
        <ele>810</ele>
        <time>2022-09-22T08:29:53Z</time>
      </trkpt>
      <trkpt lat="44.15086" lon="5.85416">
        <ele>810</ele>
        <time>2022-09-22T08:30:00Z</time>
      </trkpt>
      <trkpt lat="44.15086" lon="5.85414">
        <ele>810</ele>
        <time>2022-09-22T08:30:01Z</time>
      </trkpt>
      <trkpt lat="44.15087" lon="5.85413">
        <ele>810</ele>
        <time>2022-09-22T08:30:02Z</time>
      </trkpt>
      <trkpt lat="44.15087" lon="5.85411">
        <ele>810</ele>
        <time>2022-09-22T08:30:12Z</time>
      </trkpt>
      <trkpt lat="44.15087" lon="5.8541">
        <ele>810</ele>
        <time>2022-09-22T08:30:13Z</time>
      </trkpt>
      <trkpt lat="44.15088" lon="5.85409">
        <ele>810</ele>
        <time>2022-09-22T08:30:14Z</time>
      </trkpt>
      <trkpt lat="44.15088" lon="5.85408">
        <ele>810</ele>
        <time>2022-09-22T08:30:15Z</time>
      </trkpt>
      <trkpt lat="44.15089" lon="5.85408">
        <ele>810</ele>
        <time>2022-09-22T08:30:16Z</time>
      </trkpt>
      <trkpt lat="44.15089" lon="5.85407">
        <ele>810</ele>
        <time>2022-09-22T08:30:17Z</time>
      </trkpt>
      <trkpt lat="44.15089" lon="5.85406">
        <ele>810</ele>
        <time>2022-09-22T08:30:18Z</time>
      </trkpt>
      <trkpt lat="44.1509" lon="5.85405">
        <ele>810</ele>
        <time>2022-09-22T08:30:19Z</time>
      </trkpt>
      <trkpt lat="44.1509" lon="5.85404">
        <ele>810</ele>
        <time>2022-09-22T08:30:20Z</time>
      </trkpt>
      <trkpt lat="44.1509" lon="5.85403">
        <ele>810</ele>
        <time>2022-09-22T08:30:21Z</time>
      </trkpt>
      <trkpt lat="44.1509" lon="5.85401">
        <ele>810</ele>
        <time>2022-09-22T08:30:22Z</time>
      </trkpt>
      <trkpt lat="44.15091" lon="5.854">
        <ele>810</ele>
        <time>2022-09-22T08:30:23Z</time>
      </trkpt>
      <trkpt lat="44.15091" lon="5.85399">
        <ele>810</ele>
        <time>2022-09-22T08:30:24Z</time>
      </trkpt>
      <trkpt lat="44.15091" lon="5.85397">
        <ele>810</ele>
        <time>2022-09-22T08:30:25Z</time>
      </trkpt>
      <trkpt lat="44.15092" lon="5.85396">
        <ele>810</ele>
        <time>2022-09-22T08:30:26Z</time>
      </trkpt>
      <trkpt lat="44.15092" lon="5.85395">
        <ele>810</ele>
        <time>2022-09-22T08:30:27Z</time>
      </trkpt>
      <trkpt lat="44.15092" lon="5.85393">
        <ele>810</ele>
        <time>2022-09-22T08:30:28Z</time>
      </trkpt>
      <trkpt lat="44.15093" lon="5.85392">
        <ele>810</ele>
        <time>2022-09-22T08:30:29Z</time>
      </trkpt>
      <trkpt lat="44.15093" lon="5.85391">
        <ele>810</ele>
        <time>2022-09-22T08:30:30Z</time>
      </trkpt>
      <trkpt lat="44.15094" lon="5.85389">
        <ele>810</ele>
        <time>2022-09-22T08:30:31Z</time>
      </trkpt>
      <trkpt lat="44.15094" lon="5.85388">
        <ele>810</ele>
        <time>2022-09-22T08:30:32Z</time>
      </trkpt>
      <trkpt lat="44.15094" lon="5.85386">
        <ele>810</ele>
        <time>2022-09-22T08:30:33Z</time>
      </trkpt>
      <trkpt lat="44.15095" lon="5.85385">
        <ele>810</ele>
        <time>2022-09-22T08:30:34Z</time>
      </trkpt>
      <trkpt lat="44.15095" lon="5.85383">
        <ele>810</ele>
        <time>2022-09-22T08:30:35Z</time>
      </trkpt>
      <trkpt lat="44.15095" lon="5.85382">
        <ele>810</ele>
        <time>2022-09-22T08:30:36Z</time>
      </trkpt>
      <trkpt lat="44.15095" lon="5.85381">
        <ele>810</ele>
        <time>2022-09-22T08:30:37Z</time>
      </trkpt>
      <trkpt lat="44.15095" lon="5.8538">
        <ele>810</ele>
        <time>2022-09-22T08:30:38Z</time>
      </trkpt>
      <trkpt lat="44.15096" lon="5.85379">
        <ele>810</ele>
        <time>2022-09-22T08:30:39Z</time>
      </trkpt>
      <trkpt lat="44.15095" lon="5.85378">
        <ele>810</ele>
        <time>2022-09-22T08:30:40Z</time>
      </trkpt>
      <trkpt lat="44.15095" lon="5.85377">
        <ele>810</ele>
        <time>2022-09-22T08:30:41Z</time>
      </trkpt>
      <trkpt lat="44.15095" lon="5.85376">
        <ele>810</ele>
        <time>2022-09-22T08:30:42Z</time>
      </trkpt>
      <trkpt lat="44.15094" lon="5.85374">
        <ele>810</ele>
        <time>2022-09-22T08:30:43Z</time>
      </trkpt>
      <trkpt lat="44.15094" lon="5.85373">
        <ele>810</ele>
        <time>2022-09-22T08:30:44Z</time>
      </trkpt>
      <trkpt lat="44.15094" lon="5.85372">
        <ele>810</ele>
        <time>2022-09-22T08:30:45Z</time>
      </trkpt>
      <trkpt lat="44.15094" lon="5.85371">
        <ele>810</ele>
        <time>2022-09-22T08:30:46Z</time>
      </trkpt>
      <trkpt lat="44.15094" lon="5.8537">
        <ele>810</ele>
        <time>2022-09-22T08:30:47Z</time>
      </trkpt>
      <trkpt lat="44.15094" lon="5.85368">
        <ele>810</ele>
        <time>2022-09-22T08:30:48Z</time>
      </trkpt>
      <trkpt lat="44.15093" lon="5.85367">
        <ele>810</ele>
        <time>2022-09-22T08:30:49Z</time>
      </trkpt>
      <trkpt lat="44.15093" lon="5.85365">
        <ele>810</ele>
        <time>2022-09-22T08:30:50Z</time>
      </trkpt>
      <trkpt lat="44.15093" lon="5.85363">
        <ele>810</ele>
        <time>2022-09-22T08:30:51Z</time>
      </trkpt>
      <trkpt lat="44.15093" lon="5.85361">
        <ele>810</ele>
        <time>2022-09-22T08:30:52Z</time>
      </trkpt>
      <trkpt lat="44.15093" lon="5.85359">
        <ele>810</ele>
        <time>2022-09-22T08:30:53Z</time>
      </trkpt>
      <trkpt lat="44.15093" lon="5.85358">
        <ele>810</ele>
        <time>2022-09-22T08:30:54Z</time>
      </trkpt>
      <trkpt lat="44.15093" lon="5.85356">
        <ele>810</ele>
        <time>2022-09-22T08:30:55Z</time>
      </trkpt>
      <trkpt lat="44.15093" lon="5.85354">
        <ele>810</ele>
        <time>2022-09-22T08:30:56Z</time>
      </trkpt>
      <trkpt lat="44.15094" lon="5.85353">
        <ele>810</ele>
        <time>2022-09-22T08:30:57Z</time>
      </trkpt>
      <trkpt lat="44.15094" lon="5.85351">
        <ele>810</ele>
        <time>2022-09-22T08:30:58Z</time>
      </trkpt>
      <trkpt lat="44.15094" lon="5.8535">
        <ele>810</ele>
        <time>2022-09-22T08:30:59Z</time>
      </trkpt>
      <trkpt lat="44.15095" lon="5.85349">
        <ele>810</ele>
        <time>2022-09-22T08:31:00Z</time>
      </trkpt>
      <trkpt lat="44.15095" lon="5.85348">
        <ele>810</ele>
        <time>2022-09-22T08:31:01Z</time>
      </trkpt>
      <trkpt lat="44.15095" lon="5.85346">
        <ele>810</ele>
        <time>2022-09-22T08:31:02Z</time>
      </trkpt>
      <trkpt lat="44.15096" lon="5.85345">
        <ele>810</ele>
        <time>2022-09-22T08:31:03Z</time>
      </trkpt>
      <trkpt lat="44.15096" lon="5.85343">
        <ele>810</ele>
        <time>2022-09-22T08:31:04Z</time>
      </trkpt>
      <trkpt lat="44.15097" lon="5.85342">
        <ele>810</ele>
        <time>2022-09-22T08:31:05Z</time>
      </trkpt>
      <trkpt lat="44.15098" lon="5.85341">
        <ele>810</ele>
        <time>2022-09-22T08:31:06Z</time>
      </trkpt>
      <trkpt lat="44.15098" lon="5.85339">
        <ele>810</ele>
        <time>2022-09-22T08:31:07Z</time>
      </trkpt>
      <trkpt lat="44.15099" lon="5.85338">
        <ele>810</ele>
        <time>2022-09-22T08:31:08Z</time>
      </trkpt>
      <trkpt lat="44.15099" lon="5.85337">
        <ele>810</ele>
        <time>2022-09-22T08:31:09Z</time>
      </trkpt>
      <trkpt lat="44.15099" lon="5.85335">
        <ele>810</ele>
        <time>2022-09-22T08:31:10Z</time>
      </trkpt>
      <trkpt lat="44.15099" lon="5.85334">
        <ele>810</ele>
        <time>2022-09-22T08:31:11Z</time>
      </trkpt>
      <trkpt lat="44.15099" lon="5.85333">
        <ele>810</ele>
        <time>2022-09-22T08:31:12Z</time>
      </trkpt>
      <trkpt lat="44.15098" lon="5.85332">
        <ele>810</ele>
        <time>2022-09-22T08:31:13Z</time>
      </trkpt>
      <trkpt lat="44.15098" lon="5.85331">
        <ele>811</ele>
        <time>2022-09-22T08:31:14Z</time>
      </trkpt>
      <trkpt lat="44.15098" lon="5.8533">
        <ele>811</ele>
        <time>2022-09-22T08:31:15Z</time>
      </trkpt>
      <trkpt lat="44.15097" lon="5.85328">
        <ele>811</ele>
        <time>2022-09-22T08:31:16Z</time>
      </trkpt>
      <trkpt lat="44.15097" lon="5.85327">
        <ele>811</ele>
        <time>2022-09-22T08:31:17Z</time>
      </trkpt>
      <trkpt lat="44.15097" lon="5.85325">
        <ele>811</ele>
        <time>2022-09-22T08:31:18Z</time>
      </trkpt>
      <trkpt lat="44.15097" lon="5.85324">
        <ele>811</ele>
        <time>2022-09-22T08:31:19Z</time>
      </trkpt>
      <trkpt lat="44.15097" lon="5.85322">
        <ele>811</ele>
        <time>2022-09-22T08:31:20Z</time>
      </trkpt>
      <trkpt lat="44.15098" lon="5.85321">
        <ele>811</ele>
        <time>2022-09-22T08:31:21Z</time>
      </trkpt>
      <trkpt lat="44.15098" lon="5.8532">
        <ele>811</ele>
        <time>2022-09-22T08:31:22Z</time>
      </trkpt>
      <trkpt lat="44.15098" lon="5.85319">
        <ele>811</ele>
        <time>2022-09-22T08:31:23Z</time>
      </trkpt>
      <trkpt lat="44.15098" lon="5.85318">
        <ele>812</ele>
        <time>2022-09-22T08:31:24Z</time>
      </trkpt>
      <trkpt lat="44.15099" lon="5.85317">
        <ele>812</ele>
        <time>2022-09-22T08:31:25Z</time>
      </trkpt>
      <trkpt lat="44.15099" lon="5.85316">
        <ele>812</ele>
        <time>2022-09-22T08:31:26Z</time>
      </trkpt>
      <trkpt lat="44.15099" lon="5.85315">
        <ele>812</ele>
        <time>2022-09-22T08:31:27Z</time>
      </trkpt>
      <trkpt lat="44.15099" lon="5.85314">
        <ele>812</ele>
        <time>2022-09-22T08:31:28Z</time>
      </trkpt>
      <trkpt lat="44.15099" lon="5.85313">
        <ele>812</ele>
        <time>2022-09-22T08:31:29Z</time>
      </trkpt>
      <trkpt lat="44.15099" lon="5.85312">
        <ele>812</ele>
        <time>2022-09-22T08:31:30Z</time>
      </trkpt>
      <trkpt lat="44.15099" lon="5.8531">
        <ele>812</ele>
        <time>2022-09-22T08:31:31Z</time>
      </trkpt>
      <trkpt lat="44.15099" lon="5.85309">
        <ele>812</ele>
        <time>2022-09-22T08:31:32Z</time>
      </trkpt>
      <trkpt lat="44.15099" lon="5.85308">
        <ele>812</ele>
        <time>2022-09-22T08:31:33Z</time>
      </trkpt>
      <trkpt lat="44.15099" lon="5.85306">
        <ele>813</ele>
        <time>2022-09-22T08:31:34Z</time>
      </trkpt>
      <trkpt lat="44.15099" lon="5.85305">
        <ele>813</ele>
        <time>2022-09-22T08:31:35Z</time>
      </trkpt>
      <trkpt lat="44.15098" lon="5.85304">
        <ele>813</ele>
        <time>2022-09-22T08:31:36Z</time>
      </trkpt>
      <trkpt lat="44.15098" lon="5.85303">
        <ele>813</ele>
        <time>2022-09-22T08:31:37Z</time>
      </trkpt>
      <trkpt lat="44.15098" lon="5.85301">
        <ele>813</ele>
        <time>2022-09-22T08:31:38Z</time>
      </trkpt>
      <trkpt lat="44.15097" lon="5.853">
        <ele>814</ele>
        <time>2022-09-22T08:31:39Z</time>
      </trkpt>
      <trkpt lat="44.15097" lon="5.85298">
        <ele>814</ele>
        <time>2022-09-22T08:31:40Z</time>
      </trkpt>
      <trkpt lat="44.15096" lon="5.85297">
        <ele>814</ele>
        <time>2022-09-22T08:31:41Z</time>
      </trkpt>
      <trkpt lat="44.15096" lon="5.85296">
        <ele>814</ele>
        <time>2022-09-22T08:31:42Z</time>
      </trkpt>
      <trkpt lat="44.15096" lon="5.85295">
        <ele>814</ele>
        <time>2022-09-22T08:31:43Z</time>
      </trkpt>
      <trkpt lat="44.15096" lon="5.85294">
        <ele>814</ele>
        <time>2022-09-22T08:31:44Z</time>
      </trkpt>
      <trkpt lat="44.15096" lon="5.85293">
        <ele>814</ele>
        <time>2022-09-22T08:31:45Z</time>
      </trkpt>
      <trkpt lat="44.15096" lon="5.85291">
        <ele>814</ele>
        <time>2022-09-22T08:31:46Z</time>
      </trkpt>
      <trkpt lat="44.15096" lon="5.8529">
        <ele>814</ele>
        <time>2022-09-22T08:31:47Z</time>
      </trkpt>
      <trkpt lat="44.15096" lon="5.85289">
        <ele>814</ele>
        <time>2022-09-22T08:31:48Z</time>
      </trkpt>
      <trkpt lat="44.15096" lon="5.85288">
        <ele>814</ele>
        <time>2022-09-22T08:31:49Z</time>
      </trkpt>
      <trkpt lat="44.15095" lon="5.85287">
        <ele>814</ele>
        <time>2022-09-22T08:31:50Z</time>
      </trkpt>
      <trkpt lat="44.15095" lon="5.85286">
        <ele>814</ele>
        <time>2022-09-22T08:31:51Z</time>
      </trkpt>
      <trkpt lat="44.15094" lon="5.85286">
        <ele>814</ele>
        <time>2022-09-22T08:31:52Z</time>
      </trkpt>
      <trkpt lat="44.15093" lon="5.85285">
        <ele>814</ele>
        <time>2022-09-22T08:31:53Z</time>
      </trkpt>
      <trkpt lat="44.15092" lon="5.85284">
        <ele>814</ele>
        <time>2022-09-22T08:31:54Z</time>
      </trkpt>
      <trkpt lat="44.15091" lon="5.85284">
        <ele>814</ele>
        <time>2022-09-22T08:31:55Z</time>
      </trkpt>
      <trkpt lat="44.1509" lon="5.85283">
        <ele>814</ele>
        <time>2022-09-22T08:31:56Z</time>
      </trkpt>
      <trkpt lat="44.15089" lon="5.85282">
        <ele>814</ele>
        <time>2022-09-22T08:31:57Z</time>
      </trkpt>
      <trkpt lat="44.15088" lon="5.8528">
        <ele>814</ele>
        <time>2022-09-22T08:31:58Z</time>
      </trkpt>
      <trkpt lat="44.15087" lon="5.85279">
        <ele>815</ele>
        <time>2022-09-22T08:31:59Z</time>
      </trkpt>
      <trkpt lat="44.15086" lon="5.85278">
        <ele>815</ele>
        <time>2022-09-22T08:32:00Z</time>
      </trkpt>
      <trkpt lat="44.15085" lon="5.85276">
        <ele>815</ele>
        <time>2022-09-22T08:32:01Z</time>
      </trkpt>
      <trkpt lat="44.15085" lon="5.85275">
        <ele>815</ele>
        <time>2022-09-22T08:32:02Z</time>
      </trkpt>
      <trkpt lat="44.15084" lon="5.85274">
        <ele>815</ele>
        <time>2022-09-22T08:32:03Z</time>
      </trkpt>
      <trkpt lat="44.15084" lon="5.85274">
        <ele>816</ele>
        <time>2022-09-22T08:32:04Z</time>
      </trkpt>
      <trkpt lat="44.15083" lon="5.85272">
        <ele>816</ele>
        <time>2022-09-22T08:32:05Z</time>
      </trkpt>
      <trkpt lat="44.15083" lon="5.85271">
        <ele>816</ele>
        <time>2022-09-22T08:32:06Z</time>
      </trkpt>
      <trkpt lat="44.15083" lon="5.8527">
        <ele>816</ele>
        <time>2022-09-22T08:32:07Z</time>
      </trkpt>
      <trkpt lat="44.15083" lon="5.85268">
        <ele>816</ele>
        <time>2022-09-22T08:32:08Z</time>
      </trkpt>
      <trkpt lat="44.15082" lon="5.85267">
        <ele>816</ele>
        <time>2022-09-22T08:32:09Z</time>
      </trkpt>
      <trkpt lat="44.15082" lon="5.85266">
        <ele>816</ele>
        <time>2022-09-22T08:32:10Z</time>
      </trkpt>
      <trkpt lat="44.15082" lon="5.85264">
        <ele>816</ele>
        <time>2022-09-22T08:32:11Z</time>
      </trkpt>
      <trkpt lat="44.15081" lon="5.85263">
        <ele>816</ele>
        <time>2022-09-22T08:32:12Z</time>
      </trkpt>
      <trkpt lat="44.15081" lon="5.85262">
        <ele>816</ele>
        <time>2022-09-22T08:32:13Z</time>
      </trkpt>
      <trkpt lat="44.1508" lon="5.85261">
        <ele>816</ele>
        <time>2022-09-22T08:32:14Z</time>
      </trkpt>
      <trkpt lat="44.1508" lon="5.85259">
        <ele>816</ele>
        <time>2022-09-22T08:32:15Z</time>
      </trkpt>
      <trkpt lat="44.15079" lon="5.85258">
        <ele>816</ele>
        <time>2022-09-22T08:32:16Z</time>
      </trkpt>
      <trkpt lat="44.15079" lon="5.85257">
        <ele>816</ele>
        <time>2022-09-22T08:32:17Z</time>
      </trkpt>
      <trkpt lat="44.15078" lon="5.85256">
        <ele>816</ele>
        <time>2022-09-22T08:32:18Z</time>
      </trkpt>
      <trkpt lat="44.15078" lon="5.85254">
        <ele>816</ele>
        <time>2022-09-22T08:32:19Z</time>
      </trkpt>
      <trkpt lat="44.15077" lon="5.85253">
        <ele>816</ele>
        <time>2022-09-22T08:32:20Z</time>
      </trkpt>
      <trkpt lat="44.15077" lon="5.85252">
        <ele>816</ele>
        <time>2022-09-22T08:32:21Z</time>
      </trkpt>
      <trkpt lat="44.15077" lon="5.85251">
        <ele>816</ele>
        <time>2022-09-22T08:32:22Z</time>
      </trkpt>
      <trkpt lat="44.15076" lon="5.8525">
        <ele>816</ele>
        <time>2022-09-22T08:32:23Z</time>
      </trkpt>
      <trkpt lat="44.15076" lon="5.85249">
        <ele>816</ele>
        <time>2022-09-22T08:32:24Z</time>
      </trkpt>
      <trkpt lat="44.15075" lon="5.85248">
        <ele>816</ele>
        <time>2022-09-22T08:32:25Z</time>
      </trkpt>
      <trkpt lat="44.15075" lon="5.85246">
        <ele>816</ele>
        <time>2022-09-22T08:32:26Z</time>
      </trkpt>
      <trkpt lat="44.15074" lon="5.85245">
        <ele>816</ele>
        <time>2022-09-22T08:32:27Z</time>
      </trkpt>
      <trkpt lat="44.15074" lon="5.85244">
        <ele>816</ele>
        <time>2022-09-22T08:32:28Z</time>
      </trkpt>
      <trkpt lat="44.15074" lon="5.85242">
        <ele>816</ele>
        <time>2022-09-22T08:32:29Z</time>
      </trkpt>
      <trkpt lat="44.15073" lon="5.85241">
        <ele>816</ele>
        <time>2022-09-22T08:32:30Z</time>
      </trkpt>
      <trkpt lat="44.15073" lon="5.85239">
        <ele>816</ele>
        <time>2022-09-22T08:32:31Z</time>
      </trkpt>
      <trkpt lat="44.15072" lon="5.85238">
        <ele>816</ele>
        <time>2022-09-22T08:32:32Z</time>
      </trkpt>
      <trkpt lat="44.15072" lon="5.85237">
        <ele>816</ele>
        <time>2022-09-22T08:32:33Z</time>
      </trkpt>
      <trkpt lat="44.15071" lon="5.85235">
        <ele>816</ele>
        <time>2022-09-22T08:32:34Z</time>
      </trkpt>
      <trkpt lat="44.15071" lon="5.85234">
        <ele>816</ele>
        <time>2022-09-22T08:32:35Z</time>
      </trkpt>
      <trkpt lat="44.1507" lon="5.85233">
        <ele>816</ele>
        <time>2022-09-22T08:32:36Z</time>
      </trkpt>
      <trkpt lat="44.1507" lon="5.85231">
        <ele>816</ele>
        <time>2022-09-22T08:32:37Z</time>
      </trkpt>
      <trkpt lat="44.1507" lon="5.8523">
        <ele>816</ele>
        <time>2022-09-22T08:32:38Z</time>
      </trkpt>
      <trkpt lat="44.15068" lon="5.85226">
        <ele>816</ele>
        <time>2022-09-22T08:33:01Z</time>
      </trkpt>
      <trkpt lat="44.15067" lon="5.85224">
        <ele>816</ele>
        <time>2022-09-22T08:33:02Z</time>
      </trkpt>
      <trkpt lat="44.15067" lon="5.85222">
        <ele>816</ele>
        <time>2022-09-22T08:33:03Z</time>
      </trkpt>
      <trkpt lat="44.15066" lon="5.85221">
        <ele>816</ele>
        <time>2022-09-22T08:33:04Z</time>
      </trkpt>
      <trkpt lat="44.15066" lon="5.8522">
        <ele>816</ele>
        <time>2022-09-22T08:33:05Z</time>
      </trkpt>
      <trkpt lat="44.15066" lon="5.85219">
        <ele>816</ele>
        <time>2022-09-22T08:33:06Z</time>
      </trkpt>
      <trkpt lat="44.15065" lon="5.85218">
        <ele>816</ele>
        <time>2022-09-22T08:33:07Z</time>
      </trkpt>
      <trkpt lat="44.15065" lon="5.85217">
        <ele>816</ele>
        <time>2022-09-22T08:33:08Z</time>
      </trkpt>
      <trkpt lat="44.15065" lon="5.85215">
        <ele>816</ele>
        <time>2022-09-22T08:33:09Z</time>
      </trkpt>
      <trkpt lat="44.15064" lon="5.85214">
        <ele>816</ele>
        <time>2022-09-22T08:33:10Z</time>
      </trkpt>
      <trkpt lat="44.15064" lon="5.85213">
        <ele>816</ele>
        <time>2022-09-22T08:33:11Z</time>
      </trkpt>
      <trkpt lat="44.15064" lon="5.85212">
        <ele>816</ele>
        <time>2022-09-22T08:33:12Z</time>
      </trkpt>
      <trkpt lat="44.15063" lon="5.85211">
        <ele>816</ele>
        <time>2022-09-22T08:33:13Z</time>
      </trkpt>
      <trkpt lat="44.15063" lon="5.85209">
        <ele>816</ele>
        <time>2022-09-22T08:33:14Z</time>
      </trkpt>
      <trkpt lat="44.15062" lon="5.85208">
        <ele>816</ele>
        <time>2022-09-22T08:33:15Z</time>
      </trkpt>
      <trkpt lat="44.15062" lon="5.85207">
        <ele>816</ele>
        <time>2022-09-22T08:33:16Z</time>
      </trkpt>
      <trkpt lat="44.15061" lon="5.85206">
        <ele>816</ele>
        <time>2022-09-22T08:33:17Z</time>
      </trkpt>
      <trkpt lat="44.15061" lon="5.85204">
        <ele>816</ele>
        <time>2022-09-22T08:33:18Z</time>
      </trkpt>
      <trkpt lat="44.1506" lon="5.85203">
        <ele>816</ele>
        <time>2022-09-22T08:33:19Z</time>
      </trkpt>
      <trkpt lat="44.1506" lon="5.85202">
        <ele>816</ele>
        <time>2022-09-22T08:33:20Z</time>
      </trkpt>
      <trkpt lat="44.15059" lon="5.85201">
        <ele>816</ele>
        <time>2022-09-22T08:33:21Z</time>
      </trkpt>
      <trkpt lat="44.15059" lon="5.85199">
        <ele>816</ele>
        <time>2022-09-22T08:33:22Z</time>
      </trkpt>
      <trkpt lat="44.15058" lon="5.85198">
        <ele>816</ele>
        <time>2022-09-22T08:33:23Z</time>
      </trkpt>
      <trkpt lat="44.15058" lon="5.85197">
        <ele>816</ele>
        <time>2022-09-22T08:33:24Z</time>
      </trkpt>
      <trkpt lat="44.15058" lon="5.85196">
        <ele>816</ele>
        <time>2022-09-22T08:33:25Z</time>
      </trkpt>
      <trkpt lat="44.15057" lon="5.85194">
        <ele>816</ele>
        <time>2022-09-22T08:33:26Z</time>
      </trkpt>
      <trkpt lat="44.15057" lon="5.85193">
        <ele>816</ele>
        <time>2022-09-22T08:33:27Z</time>
      </trkpt>
      <trkpt lat="44.15057" lon="5.85192">
        <ele>816</ele>
        <time>2022-09-22T08:33:28Z</time>
      </trkpt>
      <trkpt lat="44.15056" lon="5.85191">
        <ele>816</ele>
        <time>2022-09-22T08:33:29Z</time>
      </trkpt>
      <trkpt lat="44.15056" lon="5.85189">
        <ele>816</ele>
        <time>2022-09-22T08:33:30Z</time>
      </trkpt>
      <trkpt lat="44.15056" lon="5.85188">
        <ele>816</ele>
        <time>2022-09-22T08:33:31Z</time>
      </trkpt>
      <trkpt lat="44.15056" lon="5.85187">
        <ele>816</ele>
        <time>2022-09-22T08:33:32Z</time>
      </trkpt>
      <trkpt lat="44.15056" lon="5.85185">
        <ele>816</ele>
        <time>2022-09-22T08:33:33Z</time>
      </trkpt>
      <trkpt lat="44.15056" lon="5.85184">
        <ele>816</ele>
        <time>2022-09-22T08:33:34Z</time>
      </trkpt>
      <trkpt lat="44.15056" lon="5.85182">
        <ele>816</ele>
        <time>2022-09-22T08:33:35Z</time>
      </trkpt>
      <trkpt lat="44.15056" lon="5.85181">
        <ele>816</ele>
        <time>2022-09-22T08:33:36Z</time>
      </trkpt>
      <trkpt lat="44.15056" lon="5.85179">
        <ele>816</ele>
        <time>2022-09-22T08:33:37Z</time>
      </trkpt>
      <trkpt lat="44.15057" lon="5.85178">
        <ele>816</ele>
        <time>2022-09-22T08:33:38Z</time>
      </trkpt>
      <trkpt lat="44.15057" lon="5.85177">
        <ele>817</ele>
        <time>2022-09-22T08:33:39Z</time>
      </trkpt>
      <trkpt lat="44.15057" lon="5.85175">
        <ele>817</ele>
        <time>2022-09-22T08:33:40Z</time>
      </trkpt>
      <trkpt lat="44.15056" lon="5.85174">
        <ele>817</ele>
        <time>2022-09-22T08:33:41Z</time>
      </trkpt>
      <trkpt lat="44.15056" lon="5.85173">
        <ele>817</ele>
        <time>2022-09-22T08:33:42Z</time>
      </trkpt>
      <trkpt lat="44.15056" lon="5.85172">
        <ele>817</ele>
        <time>2022-09-22T08:33:43Z</time>
      </trkpt>
      <trkpt lat="44.15056" lon="5.85171">
        <ele>817</ele>
        <time>2022-09-22T08:33:44Z</time>
      </trkpt>
      <trkpt lat="44.15055" lon="5.8517">
        <ele>817</ele>
        <time>2022-09-22T08:33:45Z</time>
      </trkpt>
      <trkpt lat="44.15055" lon="5.85169">
        <ele>817</ele>
        <time>2022-09-22T08:33:46Z</time>
      </trkpt>
      <trkpt lat="44.15055" lon="5.85168">
        <ele>817</ele>
        <time>2022-09-22T08:33:47Z</time>
      </trkpt>
      <trkpt lat="44.15055" lon="5.85167">
        <ele>817</ele>
        <time>2022-09-22T08:33:48Z</time>
      </trkpt>
      <trkpt lat="44.15055" lon="5.85167">
        <ele>817</ele>
        <time>2022-09-22T08:33:49Z</time>
      </trkpt>
      <trkpt lat="44.15055" lon="5.85166">
        <ele>817</ele>
        <time>2022-09-22T08:33:50Z</time>
      </trkpt>
      <trkpt lat="44.15055" lon="5.85165">
        <ele>817</ele>
        <time>2022-09-22T08:33:51Z</time>
      </trkpt>
      <trkpt lat="44.15055" lon="5.85164">
        <ele>817</ele>
        <time>2022-09-22T08:33:52Z</time>
      </trkpt>
      <trkpt lat="44.15055" lon="5.85163">
        <ele>817</ele>
        <time>2022-09-22T08:33:53Z</time>
      </trkpt>
      <trkpt lat="44.15055" lon="5.85162">
        <ele>817</ele>
        <time>2022-09-22T08:33:54Z</time>
      </trkpt>
      <trkpt lat="44.15055" lon="5.85161">
        <ele>817</ele>
        <time>2022-09-22T08:33:55Z</time>
      </trkpt>
      <trkpt lat="44.15055" lon="5.8516">
        <ele>817</ele>
        <time>2022-09-22T08:33:56Z</time>
      </trkpt>
      <trkpt lat="44.15054" lon="5.85159">
        <ele>817</ele>
        <time>2022-09-22T08:33:57Z</time>
      </trkpt>
      <trkpt lat="44.15054" lon="5.85158">
        <ele>817</ele>
        <time>2022-09-22T08:33:58Z</time>
      </trkpt>
      <trkpt lat="44.15053" lon="5.85158">
        <ele>817</ele>
        <time>2022-09-22T08:33:59Z</time>
      </trkpt>
      <trkpt lat="44.15053" lon="5.85157">
        <ele>817</ele>
        <time>2022-09-22T08:34:00Z</time>
      </trkpt>
      <trkpt lat="44.15053" lon="5.85156">
        <ele>817</ele>
        <time>2022-09-22T08:34:01Z</time>
      </trkpt>
      <trkpt lat="44.15053" lon="5.85155">
        <ele>817</ele>
        <time>2022-09-22T08:34:02Z</time>
      </trkpt>
      <trkpt lat="44.15053" lon="5.85154">
        <ele>817</ele>
        <time>2022-09-22T08:34:03Z</time>
      </trkpt>
      <trkpt lat="44.15053" lon="5.85153">
        <ele>818</ele>
        <time>2022-09-22T08:34:04Z</time>
      </trkpt>
      <trkpt lat="44.15053" lon="5.85152">
        <ele>818</ele>
        <time>2022-09-22T08:34:05Z</time>
      </trkpt>
      <trkpt lat="44.15052" lon="5.85151">
        <ele>818</ele>
        <time>2022-09-22T08:34:06Z</time>
      </trkpt>
      <trkpt lat="44.15052" lon="5.8515">
        <ele>818</ele>
        <time>2022-09-22T08:34:07Z</time>
      </trkpt>
      <trkpt lat="44.15052" lon="5.85149">
        <ele>818</ele>
        <time>2022-09-22T08:34:08Z</time>
      </trkpt>
      <trkpt lat="44.15052" lon="5.85148">
        <ele>818</ele>
        <time>2022-09-22T08:34:09Z</time>
      </trkpt>
      <trkpt lat="44.15052" lon="5.85147">
        <ele>818</ele>
        <time>2022-09-22T08:34:10Z</time>
      </trkpt>
      <trkpt lat="44.15052" lon="5.85146">
        <ele>818</ele>
        <time>2022-09-22T08:34:11Z</time>
      </trkpt>
      <trkpt lat="44.15052" lon="5.85146">
        <ele>818</ele>
        <time>2022-09-22T08:34:12Z</time>
      </trkpt>
      <trkpt lat="44.15051" lon="5.85145">
        <ele>818</ele>
        <time>2022-09-22T08:34:13Z</time>
      </trkpt>
      <trkpt lat="44.15051" lon="5.85144">
        <ele>818</ele>
        <time>2022-09-22T08:34:14Z</time>
      </trkpt>
      <trkpt lat="44.15051" lon="5.85143">
        <ele>818</ele>
        <time>2022-09-22T08:34:15Z</time>
      </trkpt>
      <trkpt lat="44.15051" lon="5.85142">
        <ele>818</ele>
        <time>2022-09-22T08:34:16Z</time>
      </trkpt>
      <trkpt lat="44.15051" lon="5.85141">
        <ele>818</ele>
        <time>2022-09-22T08:34:17Z</time>
      </trkpt>
      <trkpt lat="44.15051" lon="5.8514">
        <ele>818</ele>
        <time>2022-09-22T08:34:18Z</time>
      </trkpt>
      <trkpt lat="44.1505" lon="5.8514">
        <ele>818</ele>
        <time>2022-09-22T08:34:19Z</time>
      </trkpt>
      <trkpt lat="44.1505" lon="5.85139">
        <ele>818</ele>
        <time>2022-09-22T08:34:20Z</time>
      </trkpt>
      <trkpt lat="44.1505" lon="5.85138">
        <ele>818</ele>
        <time>2022-09-22T08:34:21Z</time>
      </trkpt>
      <trkpt lat="44.1505" lon="5.85137">
        <ele>818</ele>
        <time>2022-09-22T08:34:22Z</time>
      </trkpt>
      <trkpt lat="44.15049" lon="5.85136">
        <ele>818</ele>
        <time>2022-09-22T08:34:23Z</time>
      </trkpt>
      <trkpt lat="44.15049" lon="5.85135">
        <ele>819</ele>
        <time>2022-09-22T08:34:24Z</time>
      </trkpt>
      <trkpt lat="44.15049" lon="5.85133">
        <ele>819</ele>
        <time>2022-09-22T08:34:25Z</time>
      </trkpt>
      <trkpt lat="44.15049" lon="5.85132">
        <ele>819</ele>
        <time>2022-09-22T08:34:26Z</time>
      </trkpt>
      <trkpt lat="44.15048" lon="5.85131">
        <ele>819</ele>
        <time>2022-09-22T08:34:27Z</time>
      </trkpt>
      <trkpt lat="44.15048" lon="5.8513">
        <ele>819</ele>
        <time>2022-09-22T08:34:28Z</time>
      </trkpt>
      <trkpt lat="44.15048" lon="5.85128">
        <ele>819</ele>
        <time>2022-09-22T08:34:29Z</time>
      </trkpt>
      <trkpt lat="44.15048" lon="5.85127">
        <ele>819</ele>
        <time>2022-09-22T08:34:30Z</time>
      </trkpt>
      <trkpt lat="44.15048" lon="5.85125">
        <ele>819</ele>
        <time>2022-09-22T08:34:31Z</time>
      </trkpt>
      <trkpt lat="44.15048" lon="5.85124">
        <ele>819</ele>
        <time>2022-09-22T08:34:32Z</time>
      </trkpt>
      <trkpt lat="44.15048" lon="5.85122">
        <ele>819</ele>
        <time>2022-09-22T08:34:33Z</time>
      </trkpt>
      <trkpt lat="44.15048" lon="5.8512">
        <ele>819</ele>
        <time>2022-09-22T08:34:34Z</time>
      </trkpt>
      <trkpt lat="44.15048" lon="5.85118">
        <ele>819</ele>
        <time>2022-09-22T08:34:35Z</time>
      </trkpt>
      <trkpt lat="44.15048" lon="5.85117">
        <ele>819</ele>
        <time>2022-09-22T08:34:36Z</time>
      </trkpt>
      <trkpt lat="44.15048" lon="5.85115">
        <ele>819</ele>
        <time>2022-09-22T08:34:37Z</time>
      </trkpt>
      <trkpt lat="44.15048" lon="5.85113">
        <ele>819</ele>
        <time>2022-09-22T08:34:38Z</time>
      </trkpt>
      <trkpt lat="44.15048" lon="5.85112">
        <ele>819</ele>
        <time>2022-09-22T08:34:39Z</time>
      </trkpt>
      <trkpt lat="44.15048" lon="5.85111">
        <ele>819</ele>
        <time>2022-09-22T08:34:40Z</time>
      </trkpt>
      <trkpt lat="44.15047" lon="5.8511">
        <ele>819</ele>
        <time>2022-09-22T08:34:41Z</time>
      </trkpt>
      <trkpt lat="44.15047" lon="5.85109">
        <ele>819</ele>
        <time>2022-09-22T08:34:42Z</time>
      </trkpt>
      <trkpt lat="44.15047" lon="5.85108">
        <ele>819</ele>
        <time>2022-09-22T08:34:43Z</time>
      </trkpt>
      <trkpt lat="44.15047" lon="5.85107">
        <ele>819</ele>
        <time>2022-09-22T08:34:44Z</time>
      </trkpt>
      <trkpt lat="44.15047" lon="5.85106">
        <ele>819</ele>
        <time>2022-09-22T08:34:45Z</time>
      </trkpt>
      <trkpt lat="44.15047" lon="5.85105">
        <ele>819</ele>
        <time>2022-09-22T08:34:46Z</time>
      </trkpt>
      <trkpt lat="44.15047" lon="5.85104">
        <ele>819</ele>
        <time>2022-09-22T08:34:47Z</time>
      </trkpt>
      <trkpt lat="44.15047" lon="5.85103">
        <ele>819</ele>
        <time>2022-09-22T08:34:48Z</time>
      </trkpt>
      <trkpt lat="44.15047" lon="5.85102">
        <ele>820</ele>
        <time>2022-09-22T08:34:49Z</time>
      </trkpt>
      <trkpt lat="44.15047" lon="5.85101">
        <ele>820</ele>
        <time>2022-09-22T08:34:50Z</time>
      </trkpt>
      <trkpt lat="44.15047" lon="5.85099">
        <ele>820</ele>
        <time>2022-09-22T08:34:51Z</time>
      </trkpt>
      <trkpt lat="44.15046" lon="5.85098">
        <ele>820</ele>
        <time>2022-09-22T08:34:52Z</time>
      </trkpt>
      <trkpt lat="44.15046" lon="5.85097">
        <ele>820</ele>
        <time>2022-09-22T08:34:53Z</time>
      </trkpt>
      <trkpt lat="44.15046" lon="5.85096">
        <ele>820</ele>
        <time>2022-09-22T08:34:54Z</time>
      </trkpt>
      <trkpt lat="44.15046" lon="5.85095">
        <ele>820</ele>
        <time>2022-09-22T08:34:55Z</time>
      </trkpt>
      <trkpt lat="44.15046" lon="5.85094">
        <ele>820</ele>
        <time>2022-09-22T08:34:56Z</time>
      </trkpt>
      <trkpt lat="44.15045" lon="5.85093">
        <ele>820</ele>
        <time>2022-09-22T08:34:57Z</time>
      </trkpt>
      <trkpt lat="44.15045" lon="5.85092">
        <ele>820</ele>
        <time>2022-09-22T08:34:58Z</time>
      </trkpt>
      <trkpt lat="44.15045" lon="5.8509">
        <ele>820</ele>
        <time>2022-09-22T08:34:59Z</time>
      </trkpt>
      <trkpt lat="44.15044" lon="5.85089">
        <ele>820</ele>
        <time>2022-09-22T08:35:00Z</time>
      </trkpt>
      <trkpt lat="44.15044" lon="5.85088">
        <ele>820</ele>
        <time>2022-09-22T08:35:01Z</time>
      </trkpt>
      <trkpt lat="44.15044" lon="5.85086">
        <ele>820</ele>
        <time>2022-09-22T08:35:02Z</time>
      </trkpt>
      <trkpt lat="44.15044" lon="5.85084">
        <ele>820</ele>
        <time>2022-09-22T08:35:03Z</time>
      </trkpt>
      <trkpt lat="44.15043" lon="5.85083">
        <ele>821</ele>
        <time>2022-09-22T08:35:04Z</time>
      </trkpt>
      <trkpt lat="44.15044" lon="5.85081">
        <ele>821</ele>
        <time>2022-09-22T08:35:05Z</time>
      </trkpt>
      <trkpt lat="44.15044" lon="5.85079">
        <ele>821</ele>
        <time>2022-09-22T08:35:06Z</time>
      </trkpt>
      <trkpt lat="44.15044" lon="5.85077">
        <ele>821</ele>
        <time>2022-09-22T08:35:07Z</time>
      </trkpt>
      <trkpt lat="44.15044" lon="5.85075">
        <ele>821</ele>
        <time>2022-09-22T08:35:08Z</time>
      </trkpt>
      <trkpt lat="44.15045" lon="5.85073">
        <ele>821</ele>
        <time>2022-09-22T08:35:09Z</time>
      </trkpt>
      <trkpt lat="44.15045" lon="5.85071">
        <ele>821</ele>
        <time>2022-09-22T08:35:10Z</time>
      </trkpt>
      <trkpt lat="44.15045" lon="5.85069">
        <ele>821</ele>
        <time>2022-09-22T08:35:11Z</time>
      </trkpt>
      <trkpt lat="44.15046" lon="5.85067">
        <ele>821</ele>
        <time>2022-09-22T08:35:12Z</time>
      </trkpt>
      <trkpt lat="44.15046" lon="5.85065">
        <ele>821</ele>
        <time>2022-09-22T08:35:13Z</time>
      </trkpt>
      <trkpt lat="44.15046" lon="5.85064">
        <ele>822</ele>
        <time>2022-09-22T08:35:14Z</time>
      </trkpt>
      <trkpt lat="44.15046" lon="5.85062">
        <ele>822</ele>
        <time>2022-09-22T08:35:15Z</time>
      </trkpt>
      <trkpt lat="44.15046" lon="5.85061">
        <ele>822</ele>
        <time>2022-09-22T08:35:16Z</time>
      </trkpt>
      <trkpt lat="44.15045" lon="5.8506">
        <ele>822</ele>
        <time>2022-09-22T08:35:17Z</time>
      </trkpt>
      <trkpt lat="44.15045" lon="5.85058">
        <ele>822</ele>
        <time>2022-09-22T08:35:18Z</time>
      </trkpt>
      <trkpt lat="44.15045" lon="5.85057">
        <ele>822</ele>
        <time>2022-09-22T08:35:19Z</time>
      </trkpt>
      <trkpt lat="44.15044" lon="5.85055">
        <ele>822</ele>
        <time>2022-09-22T08:35:20Z</time>
      </trkpt>
      <trkpt lat="44.15044" lon="5.85054">
        <ele>822</ele>
        <time>2022-09-22T08:35:21Z</time>
      </trkpt>
      <trkpt lat="44.15044" lon="5.85052">
        <ele>822</ele>
        <time>2022-09-22T08:35:22Z</time>
      </trkpt>
      <trkpt lat="44.15044" lon="5.85051">
        <ele>822</ele>
        <time>2022-09-22T08:35:23Z</time>
      </trkpt>
      <trkpt lat="44.15044" lon="5.85049">
        <ele>823</ele>
        <time>2022-09-22T08:35:24Z</time>
      </trkpt>
      <trkpt lat="44.15044" lon="5.85048">
        <ele>823</ele>
        <time>2022-09-22T08:35:25Z</time>
      </trkpt>
      <trkpt lat="44.15043" lon="5.85046">
        <ele>823</ele>
        <time>2022-09-22T08:35:26Z</time>
      </trkpt>
      <trkpt lat="44.15043" lon="5.85045">
        <ele>823</ele>
        <time>2022-09-22T08:35:27Z</time>
      </trkpt>
      <trkpt lat="44.15043" lon="5.85043">
        <ele>823</ele>
        <time>2022-09-22T08:35:28Z</time>
      </trkpt>
      <trkpt lat="44.15043" lon="5.85042">
        <ele>823</ele>
        <time>2022-09-22T08:35:29Z</time>
      </trkpt>
      <trkpt lat="44.15043" lon="5.8504">
        <ele>823</ele>
        <time>2022-09-22T08:35:30Z</time>
      </trkpt>
      <trkpt lat="44.15043" lon="5.85039">
        <ele>823</ele>
        <time>2022-09-22T08:35:31Z</time>
      </trkpt>
      <trkpt lat="44.15043" lon="5.85038">
        <ele>823</ele>
        <time>2022-09-22T08:35:32Z</time>
      </trkpt>
      <trkpt lat="44.15043" lon="5.85036">
        <ele>823</ele>
        <time>2022-09-22T08:35:33Z</time>
      </trkpt>
      <trkpt lat="44.15043" lon="5.85035">
        <ele>824</ele>
        <time>2022-09-22T08:35:34Z</time>
      </trkpt>
      <trkpt lat="44.15043" lon="5.85034">
        <ele>824</ele>
        <time>2022-09-22T08:35:35Z</time>
      </trkpt>
      <trkpt lat="44.15043" lon="5.85033">
        <ele>824</ele>
        <time>2022-09-22T08:35:36Z</time>
      </trkpt>
      <trkpt lat="44.15043" lon="5.85031">
        <ele>824</ele>
        <time>2022-09-22T08:35:37Z</time>
      </trkpt>
      <trkpt lat="44.15043" lon="5.8503">
        <ele>824</ele>
        <time>2022-09-22T08:35:38Z</time>
      </trkpt>
      <trkpt lat="44.15043" lon="5.85028">
        <ele>824</ele>
        <time>2022-09-22T08:35:39Z</time>
      </trkpt>
      <trkpt lat="44.15043" lon="5.85027">
        <ele>824</ele>
        <time>2022-09-22T08:35:40Z</time>
      </trkpt>
      <trkpt lat="44.15043" lon="5.85026">
        <ele>824</ele>
        <time>2022-09-22T08:35:41Z</time>
      </trkpt>
      <trkpt lat="44.15043" lon="5.85024">
        <ele>824</ele>
        <time>2022-09-22T08:35:42Z</time>
      </trkpt>
      <trkpt lat="44.15043" lon="5.85023">
        <ele>824</ele>
        <time>2022-09-22T08:35:43Z</time>
      </trkpt>
      <trkpt lat="44.15042" lon="5.85021">
        <ele>825</ele>
        <time>2022-09-22T08:35:44Z</time>
      </trkpt>
      <trkpt lat="44.15042" lon="5.8502">
        <ele>825</ele>
        <time>2022-09-22T08:35:45Z</time>
      </trkpt>
      <trkpt lat="44.15042" lon="5.85018">
        <ele>825</ele>
        <time>2022-09-22T08:35:46Z</time>
      </trkpt>
      <trkpt lat="44.15042" lon="5.85017">
        <ele>825</ele>
        <time>2022-09-22T08:35:47Z</time>
      </trkpt>
      <trkpt lat="44.15042" lon="5.85015">
        <ele>825</ele>
        <time>2022-09-22T08:35:48Z</time>
      </trkpt>
      <trkpt lat="44.15042" lon="5.85014">
        <ele>826</ele>
        <time>2022-09-22T08:35:49Z</time>
      </trkpt>
      <trkpt lat="44.15042" lon="5.85013">
        <ele>826</ele>
        <time>2022-09-22T08:35:50Z</time>
      </trkpt>
      <trkpt lat="44.15042" lon="5.85012">
        <ele>826</ele>
        <time>2022-09-22T08:35:51Z</time>
      </trkpt>
      <trkpt lat="44.15042" lon="5.85011">
        <ele>826</ele>
        <time>2022-09-22T08:35:52Z</time>
      </trkpt>
      <trkpt lat="44.15042" lon="5.85009">
        <ele>826</ele>
        <time>2022-09-22T08:35:53Z</time>
      </trkpt>
      <trkpt lat="44.15042" lon="5.85008">
        <ele>826</ele>
        <time>2022-09-22T08:35:54Z</time>
      </trkpt>
      <trkpt lat="44.15043" lon="5.85007">
        <ele>826</ele>
        <time>2022-09-22T08:35:55Z</time>
      </trkpt>
      <trkpt lat="44.15043" lon="5.85005">
        <ele>826</ele>
        <time>2022-09-22T08:35:56Z</time>
      </trkpt>
      <trkpt lat="44.15043" lon="5.85004">
        <ele>826</ele>
        <time>2022-09-22T08:35:57Z</time>
      </trkpt>
      <trkpt lat="44.15043" lon="5.85002">
        <ele>826</ele>
        <time>2022-09-22T08:35:58Z</time>
      </trkpt>
      <trkpt lat="44.15043" lon="5.85001">
        <ele>827</ele>
        <time>2022-09-22T08:35:59Z</time>
      </trkpt>
      <trkpt lat="44.15043" lon="5.84999">
        <ele>827</ele>
        <time>2022-09-22T08:36:00Z</time>
      </trkpt>
      <trkpt lat="44.15043" lon="5.84998">
        <ele>827</ele>
        <time>2022-09-22T08:36:01Z</time>
      </trkpt>
      <trkpt lat="44.15043" lon="5.84997">
        <ele>827</ele>
        <time>2022-09-22T08:36:02Z</time>
      </trkpt>
      <trkpt lat="44.15043" lon="5.84995">
        <ele>827</ele>
        <time>2022-09-22T08:36:03Z</time>
      </trkpt>
      <trkpt lat="44.15043" lon="5.84994">
        <ele>827</ele>
        <time>2022-09-22T08:36:04Z</time>
      </trkpt>
      <trkpt lat="44.15043" lon="5.84993">
        <ele>827</ele>
        <time>2022-09-22T08:36:05Z</time>
      </trkpt>
      <trkpt lat="44.15043" lon="5.84991">
        <ele>827</ele>
        <time>2022-09-22T08:36:06Z</time>
      </trkpt>
      <trkpt lat="44.15043" lon="5.8499">
        <ele>827</ele>
        <time>2022-09-22T08:36:07Z</time>
      </trkpt>
      <trkpt lat="44.15043" lon="5.84989">
        <ele>827</ele>
        <time>2022-09-22T08:36:08Z</time>
      </trkpt>
      <trkpt lat="44.15043" lon="5.84987">
        <ele>828</ele>
        <time>2022-09-22T08:36:09Z</time>
      </trkpt>
      <trkpt lat="44.15043" lon="5.84986">
        <ele>828</ele>
        <time>2022-09-22T08:36:10Z</time>
      </trkpt>
      <trkpt lat="44.15043" lon="5.84985">
        <ele>828</ele>
        <time>2022-09-22T08:36:11Z</time>
      </trkpt>
      <trkpt lat="44.15043" lon="5.84984">
        <ele>828</ele>
        <time>2022-09-22T08:36:12Z</time>
      </trkpt>
      <trkpt lat="44.15043" lon="5.84982">
        <ele>828</ele>
        <time>2022-09-22T08:36:13Z</time>
      </trkpt>
      <trkpt lat="44.15043" lon="5.84981">
        <ele>829</ele>
        <time>2022-09-22T08:36:14Z</time>
      </trkpt>
      <trkpt lat="44.15042" lon="5.8498">
        <ele>829</ele>
        <time>2022-09-22T08:36:15Z</time>
      </trkpt>
      <trkpt lat="44.15042" lon="5.84979">
        <ele>829</ele>
        <time>2022-09-22T08:36:16Z</time>
      </trkpt>
      <trkpt lat="44.15042" lon="5.84978">
        <ele>829</ele>
        <time>2022-09-22T08:36:17Z</time>
      </trkpt>
      <trkpt lat="44.15042" lon="5.84977">
        <ele>829</ele>
        <time>2022-09-22T08:36:18Z</time>
      </trkpt>
      <trkpt lat="44.15041" lon="5.84975">
        <ele>829</ele>
        <time>2022-09-22T08:36:19Z</time>
      </trkpt>
      <trkpt lat="44.15041" lon="5.84974">
        <ele>829</ele>
        <time>2022-09-22T08:36:20Z</time>
      </trkpt>
      <trkpt lat="44.15041" lon="5.84973">
        <ele>829</ele>
        <time>2022-09-22T08:36:21Z</time>
      </trkpt>
      <trkpt lat="44.15041" lon="5.84971">
        <ele>829</ele>
        <time>2022-09-22T08:36:22Z</time>
      </trkpt>
      <trkpt lat="44.15041" lon="5.8497">
        <ele>829</ele>
        <time>2022-09-22T08:36:23Z</time>
      </trkpt>
      <trkpt lat="44.15041" lon="5.84968">
        <ele>829</ele>
        <time>2022-09-22T08:36:24Z</time>
      </trkpt>
      <trkpt lat="44.15041" lon="5.84967">
        <ele>829</ele>
        <time>2022-09-22T08:36:25Z</time>
      </trkpt>
      <trkpt lat="44.15041" lon="5.84965">
        <ele>829</ele>
        <time>2022-09-22T08:36:26Z</time>
      </trkpt>
      <trkpt lat="44.1504" lon="5.84964">
        <ele>829</ele>
        <time>2022-09-22T08:36:27Z</time>
      </trkpt>
      <trkpt lat="44.1504" lon="5.84962">
        <ele>829</ele>
        <time>2022-09-22T08:36:28Z</time>
      </trkpt>
      <trkpt lat="44.1504" lon="5.84961">
        <ele>830</ele>
        <time>2022-09-22T08:36:29Z</time>
      </trkpt>
      <trkpt lat="44.1504" lon="5.8496">
        <ele>830</ele>
        <time>2022-09-22T08:36:30Z</time>
      </trkpt>
      <trkpt lat="44.1504" lon="5.84958">
        <ele>830</ele>
        <time>2022-09-22T08:36:31Z</time>
      </trkpt>
      <trkpt lat="44.15039" lon="5.84957">
        <ele>830</ele>
        <time>2022-09-22T08:36:32Z</time>
      </trkpt>
      <trkpt lat="44.15039" lon="5.84956">
        <ele>830</ele>
        <time>2022-09-22T08:36:33Z</time>
      </trkpt>
      <trkpt lat="44.15038" lon="5.84955">
        <ele>830</ele>
        <time>2022-09-22T08:36:34Z</time>
      </trkpt>
      <trkpt lat="44.15038" lon="5.84953">
        <ele>830</ele>
        <time>2022-09-22T08:36:35Z</time>
      </trkpt>
      <trkpt lat="44.15038" lon="5.84952">
        <ele>830</ele>
        <time>2022-09-22T08:36:36Z</time>
      </trkpt>
      <trkpt lat="44.15038" lon="5.84951">
        <ele>830</ele>
        <time>2022-09-22T08:36:37Z</time>
      </trkpt>
      <trkpt lat="44.15037" lon="5.84949">
        <ele>830</ele>
        <time>2022-09-22T08:36:38Z</time>
      </trkpt>
      <trkpt lat="44.15037" lon="5.84947">
        <ele>830</ele>
        <time>2022-09-22T08:36:39Z</time>
      </trkpt>
      <trkpt lat="44.15037" lon="5.84946">
        <ele>830</ele>
        <time>2022-09-22T08:36:40Z</time>
      </trkpt>
      <trkpt lat="44.15036" lon="5.84944">
        <ele>830</ele>
        <time>2022-09-22T08:36:41Z</time>
      </trkpt>
      <trkpt lat="44.15036" lon="5.84942">
        <ele>830</ele>
        <time>2022-09-22T08:36:42Z</time>
      </trkpt>
      <trkpt lat="44.15035" lon="5.84941">
        <ele>830</ele>
        <time>2022-09-22T08:36:43Z</time>
      </trkpt>
      <trkpt lat="44.15035" lon="5.8494">
        <ele>830</ele>
        <time>2022-09-22T08:36:44Z</time>
      </trkpt>
      <trkpt lat="44.15035" lon="5.84938">
        <ele>830</ele>
        <time>2022-09-22T08:36:45Z</time>
      </trkpt>
      <trkpt lat="44.15034" lon="5.84937">
        <ele>830</ele>
        <time>2022-09-22T08:36:46Z</time>
      </trkpt>
      <trkpt lat="44.15034" lon="5.84936">
        <ele>830</ele>
        <time>2022-09-22T08:36:47Z</time>
      </trkpt>
      <trkpt lat="44.15034" lon="5.84934">
        <ele>830</ele>
        <time>2022-09-22T08:36:48Z</time>
      </trkpt>
      <trkpt lat="44.15034" lon="5.84933">
        <ele>831</ele>
        <time>2022-09-22T08:36:49Z</time>
      </trkpt>
      <trkpt lat="44.15033" lon="5.84932">
        <ele>831</ele>
        <time>2022-09-22T08:36:50Z</time>
      </trkpt>
      <trkpt lat="44.15033" lon="5.84931">
        <ele>831</ele>
        <time>2022-09-22T08:36:51Z</time>
      </trkpt>
      <trkpt lat="44.15033" lon="5.84929">
        <ele>831</ele>
        <time>2022-09-22T08:36:52Z</time>
      </trkpt>
      <trkpt lat="44.15032" lon="5.84928">
        <ele>831</ele>
        <time>2022-09-22T08:36:53Z</time>
      </trkpt>
      <trkpt lat="44.15032" lon="5.84927">
        <ele>831</ele>
        <time>2022-09-22T08:36:54Z</time>
      </trkpt>
      <trkpt lat="44.15032" lon="5.84926">
        <ele>831</ele>
        <time>2022-09-22T08:36:55Z</time>
      </trkpt>
      <trkpt lat="44.15031" lon="5.84924">
        <ele>831</ele>
        <time>2022-09-22T08:36:56Z</time>
      </trkpt>
      <trkpt lat="44.15031" lon="5.84923">
        <ele>831</ele>
        <time>2022-09-22T08:36:57Z</time>
      </trkpt>
      <trkpt lat="44.1503" lon="5.84922">
        <ele>831</ele>
        <time>2022-09-22T08:36:58Z</time>
      </trkpt>
      <trkpt lat="44.1503" lon="5.84921">
        <ele>831</ele>
        <time>2022-09-22T08:36:59Z</time>
      </trkpt>
      <trkpt lat="44.15029" lon="5.84919">
        <ele>831</ele>
        <time>2022-09-22T08:37:00Z</time>
      </trkpt>
      <trkpt lat="44.15029" lon="5.84918">
        <ele>831</ele>
        <time>2022-09-22T08:37:01Z</time>
      </trkpt>
      <trkpt lat="44.15028" lon="5.84917">
        <ele>831</ele>
        <time>2022-09-22T08:37:02Z</time>
      </trkpt>
      <trkpt lat="44.15028" lon="5.84916">
        <ele>831</ele>
        <time>2022-09-22T08:37:03Z</time>
      </trkpt>
      <trkpt lat="44.15028" lon="5.84915">
        <ele>832</ele>
        <time>2022-09-22T08:37:04Z</time>
      </trkpt>
      <trkpt lat="44.15028" lon="5.84913">
        <ele>831</ele>
        <time>2022-09-22T08:37:05Z</time>
      </trkpt>
      <trkpt lat="44.15027" lon="5.84912">
        <ele>831</ele>
        <time>2022-09-22T08:37:06Z</time>
      </trkpt>
      <trkpt lat="44.15027" lon="5.84911">
        <ele>831</ele>
        <time>2022-09-22T08:37:07Z</time>
      </trkpt>
      <trkpt lat="44.15024" lon="5.84908">
        <ele>831</ele>
        <time>2022-09-22T08:41:41Z</time>
      </trkpt>
      <trkpt lat="44.15022" lon="5.84907">
        <ele>831</ele>
        <time>2022-09-22T08:41:42Z</time>
      </trkpt>
      <trkpt lat="44.15021" lon="5.84905">
        <ele>831</ele>
        <time>2022-09-22T08:41:43Z</time>
      </trkpt>
      <trkpt lat="44.15021" lon="5.84904">
        <ele>831</ele>
        <time>2022-09-22T08:41:44Z</time>
      </trkpt>
      <trkpt lat="44.1502" lon="5.84903">
        <ele>831</ele>
        <time>2022-09-22T08:41:45Z</time>
      </trkpt>
      <trkpt lat="44.15021" lon="5.84902">
        <ele>831</ele>
        <time>2022-09-22T08:41:46Z</time>
      </trkpt>
      <trkpt lat="44.15021" lon="5.84901">
        <ele>831</ele>
        <time>2022-09-22T08:41:47Z</time>
      </trkpt>
      <trkpt lat="44.15023" lon="5.84901">
        <ele>831</ele>
        <time>2022-09-22T08:43:24Z</time>
      </trkpt>
      <trkpt lat="44.15023" lon="5.84901">
        <ele>831</ele>
        <time>2022-09-22T08:43:25Z</time>
      </trkpt>
      <trkpt lat="44.15024" lon="5.84901">
        <ele>831</ele>
        <time>2022-09-22T08:43:26Z</time>
      </trkpt>
      <trkpt lat="44.15024" lon="5.84901">
        <ele>831</ele>
        <time>2022-09-22T08:43:27Z</time>
      </trkpt>
      <trkpt lat="44.15025" lon="5.849">
        <ele>831</ele>
        <time>2022-09-22T08:43:28Z</time>
      </trkpt>
      <trkpt lat="44.15024" lon="5.84899">
        <ele>831</ele>
        <time>2022-09-22T08:44:56Z</time>
      </trkpt>
      <trkpt lat="44.15023" lon="5.84898">
        <ele>831</ele>
        <time>2022-09-22T08:44:57Z</time>
      </trkpt>
      <trkpt lat="44.15022" lon="5.84897">
        <ele>831</ele>
        <time>2022-09-22T08:44:58Z</time>
      </trkpt>
      <trkpt lat="44.15021" lon="5.84896">
        <ele>831</ele>
        <time>2022-09-22T08:44:59Z</time>
      </trkpt>
      <trkpt lat="44.15021" lon="5.84896">
        <ele>831</ele>
        <time>2022-09-22T08:45:00Z</time>
      </trkpt>
      <trkpt lat="44.1502" lon="5.84895">
        <ele>831</ele>
        <time>2022-09-22T08:45:01Z</time>
      </trkpt>
      <trkpt lat="44.15019" lon="5.84894">
        <ele>831</ele>
        <time>2022-09-22T08:45:02Z</time>
      </trkpt>
      <trkpt lat="44.15019" lon="5.84894">
        <ele>831</ele>
        <time>2022-09-22T08:45:03Z</time>
      </trkpt>
      <trkpt lat="44.15018" lon="5.84893">
        <ele>831</ele>
        <time>2022-09-22T08:45:04Z</time>
      </trkpt>
      <trkpt lat="44.15018" lon="5.84892">
        <ele>831</ele>
        <time>2022-09-22T08:45:05Z</time>
      </trkpt>
      <trkpt lat="44.15017" lon="5.84892">
        <ele>831</ele>
        <time>2022-09-22T08:45:06Z</time>
      </trkpt>
      <trkpt lat="44.15017" lon="5.84891">
        <ele>831</ele>
        <time>2022-09-22T08:45:07Z</time>
      </trkpt>
      <trkpt lat="44.15016" lon="5.8489">
        <ele>831</ele>
        <time>2022-09-22T08:45:08Z</time>
      </trkpt>
      <trkpt lat="44.15016" lon="5.84888">
        <ele>831</ele>
        <time>2022-09-22T08:45:09Z</time>
      </trkpt>
      <trkpt lat="44.15016" lon="5.84887">
        <ele>831</ele>
        <time>2022-09-22T08:45:10Z</time>
      </trkpt>
      <trkpt lat="44.15015" lon="5.84886">
        <ele>831</ele>
        <time>2022-09-22T08:45:11Z</time>
      </trkpt>
      <trkpt lat="44.15015" lon="5.84885">
        <ele>831</ele>
        <time>2022-09-22T08:45:12Z</time>
      </trkpt>
      <trkpt lat="44.15014" lon="5.84884">
        <ele>831</ele>
        <time>2022-09-22T08:45:13Z</time>
      </trkpt>
      <trkpt lat="44.15014" lon="5.84883">
        <ele>832</ele>
        <time>2022-09-22T08:45:14Z</time>
      </trkpt>
      <trkpt lat="44.15013" lon="5.84882">
        <ele>832</ele>
        <time>2022-09-22T08:45:15Z</time>
      </trkpt>
      <trkpt lat="44.15013" lon="5.84881">
        <ele>832</ele>
        <time>2022-09-22T08:45:16Z</time>
      </trkpt>
      <trkpt lat="44.15013" lon="5.8488">
        <ele>832</ele>
        <time>2022-09-22T08:45:17Z</time>
      </trkpt>
      <trkpt lat="44.15014" lon="5.84878">
        <ele>832</ele>
        <time>2022-09-22T08:45:18Z</time>
      </trkpt>
      <trkpt lat="44.15014" lon="5.84877">
        <ele>832</ele>
        <time>2022-09-22T08:45:19Z</time>
      </trkpt>
      <trkpt lat="44.15014" lon="5.84876">
        <ele>832</ele>
        <time>2022-09-22T08:45:20Z</time>
      </trkpt>
      <trkpt lat="44.15014" lon="5.84875">
        <ele>832</ele>
        <time>2022-09-22T08:45:21Z</time>
      </trkpt>
      <trkpt lat="44.15014" lon="5.84874">
        <ele>832</ele>
        <time>2022-09-22T08:45:22Z</time>
      </trkpt>
      <trkpt lat="44.15014" lon="5.84873">
        <ele>832</ele>
        <time>2022-09-22T08:45:23Z</time>
      </trkpt>
      <trkpt lat="44.15014" lon="5.84871">
        <ele>832</ele>
        <time>2022-09-22T08:45:24Z</time>
      </trkpt>
      <trkpt lat="44.15014" lon="5.8487">
        <ele>832</ele>
        <time>2022-09-22T08:45:25Z</time>
      </trkpt>
      <trkpt lat="44.15014" lon="5.84869">
        <ele>832</ele>
        <time>2022-09-22T08:45:26Z</time>
      </trkpt>
      <trkpt lat="44.15013" lon="5.84868">
        <ele>832</ele>
        <time>2022-09-22T08:45:27Z</time>
      </trkpt>
      <trkpt lat="44.15013" lon="5.84867">
        <ele>832</ele>
        <time>2022-09-22T08:45:28Z</time>
      </trkpt>
      <trkpt lat="44.15013" lon="5.84867">
        <ele>832</ele>
        <time>2022-09-22T08:45:29Z</time>
      </trkpt>
      <trkpt lat="44.15013" lon="5.84866">
        <ele>832</ele>
        <time>2022-09-22T08:45:30Z</time>
      </trkpt>
      <trkpt lat="44.15013" lon="5.84865">
        <ele>832</ele>
        <time>2022-09-22T08:45:31Z</time>
      </trkpt>
      <trkpt lat="44.15013" lon="5.84864">
        <ele>832</ele>
        <time>2022-09-22T08:45:32Z</time>
      </trkpt>
      <trkpt lat="44.15012" lon="5.84864">
        <ele>832</ele>
        <time>2022-09-22T08:45:33Z</time>
      </trkpt>
      <trkpt lat="44.15011" lon="5.84863">
        <ele>832</ele>
        <time>2022-09-22T08:45:34Z</time>
      </trkpt>
      <trkpt lat="44.15011" lon="5.84863">
        <ele>832</ele>
        <time>2022-09-22T08:45:35Z</time>
      </trkpt>
      <trkpt lat="44.1501" lon="5.84862">
        <ele>832</ele>
        <time>2022-09-22T08:45:36Z</time>
      </trkpt>
      <trkpt lat="44.15009" lon="5.84862">
        <ele>832</ele>
        <time>2022-09-22T08:45:37Z</time>
      </trkpt>
      <trkpt lat="44.15008" lon="5.84861">
        <ele>832</ele>
        <time>2022-09-22T08:45:38Z</time>
      </trkpt>
      <trkpt lat="44.15008" lon="5.84861">
        <ele>832</ele>
        <time>2022-09-22T08:45:39Z</time>
      </trkpt>
      <trkpt lat="44.15007" lon="5.8486">
        <ele>832</ele>
        <time>2022-09-22T08:45:40Z</time>
      </trkpt>
      <trkpt lat="44.15007" lon="5.8486">
        <ele>832</ele>
        <time>2022-09-22T08:45:41Z</time>
      </trkpt>
      <trkpt lat="44.15006" lon="5.8486">
        <ele>832</ele>
        <time>2022-09-22T08:45:42Z</time>
      </trkpt>
      <trkpt lat="44.15006" lon="5.8486">
        <ele>832</ele>
        <time>2022-09-22T08:45:43Z</time>
      </trkpt>
      <trkpt lat="44.15005" lon="5.8486">
        <ele>832</ele>
        <time>2022-09-22T08:45:44Z</time>
      </trkpt>
      <trkpt lat="44.15005" lon="5.84859">
        <ele>832</ele>
        <time>2022-09-22T08:45:45Z</time>
      </trkpt>
      <trkpt lat="44.15004" lon="5.84859">
        <ele>832</ele>
        <time>2022-09-22T08:45:46Z</time>
      </trkpt>
      <trkpt lat="44.15004" lon="5.84859">
        <ele>832</ele>
        <time>2022-09-22T08:45:47Z</time>
      </trkpt>
      <trkpt lat="44.15004" lon="5.84858">
        <ele>832</ele>
        <time>2022-09-22T08:45:48Z</time>
      </trkpt>
      <trkpt lat="44.15003" lon="5.84857">
        <ele>832</ele>
        <time>2022-09-22T08:45:49Z</time>
      </trkpt>
      <trkpt lat="44.15003" lon="5.84856">
        <ele>832</ele>
        <time>2022-09-22T08:45:50Z</time>
      </trkpt>
      <trkpt lat="44.15002" lon="5.84856">
        <ele>832</ele>
        <time>2022-09-22T08:45:51Z</time>
      </trkpt>
      <trkpt lat="44.15002" lon="5.84855">
        <ele>832</ele>
        <time>2022-09-22T08:45:52Z</time>
      </trkpt>
      <trkpt lat="44.15002" lon="5.84854">
        <ele>832</ele>
        <time>2022-09-22T08:45:53Z</time>
      </trkpt>
      <trkpt lat="44.15002" lon="5.84853">
        <ele>833</ele>
        <time>2022-09-22T08:45:54Z</time>
      </trkpt>
      <trkpt lat="44.15001" lon="5.84852">
        <ele>833</ele>
        <time>2022-09-22T08:45:55Z</time>
      </trkpt>
      <trkpt lat="44.15001" lon="5.84851">
        <ele>833</ele>
        <time>2022-09-22T08:45:56Z</time>
      </trkpt>
      <trkpt lat="44.15001" lon="5.8485">
        <ele>833</ele>
        <time>2022-09-22T08:45:57Z</time>
      </trkpt>
      <trkpt lat="44.15001" lon="5.84849">
        <ele>833</ele>
        <time>2022-09-22T08:45:58Z</time>
      </trkpt>
      <trkpt lat="44.15" lon="5.84848">
        <ele>833</ele>
        <time>2022-09-22T08:45:59Z</time>
      </trkpt>
      <trkpt lat="44.15" lon="5.84847">
        <ele>833</ele>
        <time>2022-09-22T08:46:00Z</time>
      </trkpt>
      <trkpt lat="44.14999" lon="5.84846">
        <ele>833</ele>
        <time>2022-09-22T08:46:01Z</time>
      </trkpt>
      <trkpt lat="44.14998" lon="5.84845">
        <ele>833</ele>
        <time>2022-09-22T08:46:02Z</time>
      </trkpt>
      <trkpt lat="44.14997" lon="5.84845">
        <ele>833</ele>
        <time>2022-09-22T08:46:03Z</time>
      </trkpt>
      <trkpt lat="44.14997" lon="5.84844">
        <ele>834</ele>
        <time>2022-09-22T08:46:04Z</time>
      </trkpt>
      <trkpt lat="44.14996" lon="5.84844">
        <ele>834</ele>
        <time>2022-09-22T08:46:05Z</time>
      </trkpt>
      <trkpt lat="44.14995" lon="5.84843">
        <ele>834</ele>
        <time>2022-09-22T08:46:06Z</time>
      </trkpt>
      <trkpt lat="44.14994" lon="5.84843">
        <ele>834</ele>
        <time>2022-09-22T08:46:07Z</time>
      </trkpt>
      <trkpt lat="44.14994" lon="5.84843">
        <ele>834</ele>
        <time>2022-09-22T08:46:08Z</time>
      </trkpt>
      <trkpt lat="44.14993" lon="5.84842">
        <ele>834</ele>
        <time>2022-09-22T08:46:09Z</time>
      </trkpt>
      <trkpt lat="44.14992" lon="5.84842">
        <ele>834</ele>
        <time>2022-09-22T08:46:10Z</time>
      </trkpt>
      <trkpt lat="44.14992" lon="5.84841">
        <ele>834</ele>
        <time>2022-09-22T08:46:11Z</time>
      </trkpt>
      <trkpt lat="44.14991" lon="5.84841">
        <ele>834</ele>
        <time>2022-09-22T08:46:12Z</time>
      </trkpt>
      <trkpt lat="44.14991" lon="5.8484">
        <ele>834</ele>
        <time>2022-09-22T08:46:13Z</time>
      </trkpt>
      <trkpt lat="44.1499" lon="5.8484">
        <ele>835</ele>
        <time>2022-09-22T08:46:14Z</time>
      </trkpt>
      <trkpt lat="44.14989" lon="5.8484">
        <ele>835</ele>
        <time>2022-09-22T08:46:15Z</time>
      </trkpt>
      <trkpt lat="44.14989" lon="5.84839">
        <ele>835</ele>
        <time>2022-09-22T08:46:16Z</time>
      </trkpt>
      <trkpt lat="44.14988" lon="5.84839">
        <ele>835</ele>
        <time>2022-09-22T08:46:17Z</time>
      </trkpt>
      <trkpt lat="44.14987" lon="5.84838">
        <ele>835</ele>
        <time>2022-09-22T08:46:18Z</time>
      </trkpt>
      <trkpt lat="44.14987" lon="5.84838">
        <ele>836</ele>
        <time>2022-09-22T08:46:19Z</time>
      </trkpt>
      <trkpt lat="44.14986" lon="5.84838">
        <ele>836</ele>
        <time>2022-09-22T08:46:20Z</time>
      </trkpt>
      <trkpt lat="44.14985" lon="5.84838">
        <ele>836</ele>
        <time>2022-09-22T08:46:21Z</time>
      </trkpt>
      <trkpt lat="44.14985" lon="5.84838">
        <ele>836</ele>
        <time>2022-09-22T08:46:22Z</time>
      </trkpt>
      <trkpt lat="44.14984" lon="5.84837">
        <ele>836</ele>
        <time>2022-09-22T08:46:23Z</time>
      </trkpt>
      <trkpt lat="44.14984" lon="5.84837">
        <ele>836</ele>
        <time>2022-09-22T08:46:24Z</time>
      </trkpt>
      <trkpt lat="44.14983" lon="5.84837">
        <ele>836</ele>
        <time>2022-09-22T08:46:25Z</time>
      </trkpt>
      <trkpt lat="44.14983" lon="5.84837">
        <ele>836</ele>
        <time>2022-09-22T08:46:26Z</time>
      </trkpt>
      <trkpt lat="44.14983" lon="5.84837">
        <ele>836</ele>
        <time>2022-09-22T08:46:27Z</time>
      </trkpt>
      <trkpt lat="44.14982" lon="5.84837">
        <ele>836</ele>
        <time>2022-09-22T08:46:28Z</time>
      </trkpt>
      <trkpt lat="44.14981" lon="5.84837">
        <ele>837</ele>
        <time>2022-09-22T08:46:29Z</time>
      </trkpt>
      <trkpt lat="44.14981" lon="5.84837">
        <ele>837</ele>
        <time>2022-09-22T08:46:30Z</time>
      </trkpt>
      <trkpt lat="44.14981" lon="5.84837">
        <ele>837</ele>
        <time>2022-09-22T08:46:31Z</time>
      </trkpt>
      <trkpt lat="44.1498" lon="5.84836">
        <ele>837</ele>
        <time>2022-09-22T08:46:32Z</time>
      </trkpt>
      <trkpt lat="44.14979" lon="5.84836">
        <ele>837</ele>
        <time>2022-09-22T08:46:33Z</time>
      </trkpt>
      <trkpt lat="44.14979" lon="5.84835">
        <ele>838</ele>
        <time>2022-09-22T08:46:34Z</time>
      </trkpt>
      <trkpt lat="44.14978" lon="5.84835">
        <ele>838</ele>
        <time>2022-09-22T08:46:35Z</time>
      </trkpt>
      <trkpt lat="44.14978" lon="5.84834">
        <ele>838</ele>
        <time>2022-09-22T08:46:36Z</time>
      </trkpt>
      <trkpt lat="44.14977" lon="5.84833">
        <ele>838</ele>
        <time>2022-09-22T08:46:37Z</time>
      </trkpt>
      <trkpt lat="44.14977" lon="5.84833">
        <ele>838</ele>
        <time>2022-09-22T08:46:38Z</time>
      </trkpt>
      <trkpt lat="44.14976" lon="5.84832">
        <ele>838</ele>
        <time>2022-09-22T08:46:39Z</time>
      </trkpt>
      <trkpt lat="44.14975" lon="5.84831">
        <ele>838</ele>
        <time>2022-09-22T08:46:40Z</time>
      </trkpt>
      <trkpt lat="44.14975" lon="5.8483">
        <ele>838</ele>
        <time>2022-09-22T08:46:41Z</time>
      </trkpt>
      <trkpt lat="44.14974" lon="5.8483">
        <ele>838</ele>
        <time>2022-09-22T08:46:42Z</time>
      </trkpt>
      <trkpt lat="44.14973" lon="5.84829">
        <ele>838</ele>
        <time>2022-09-22T08:46:43Z</time>
      </trkpt>
      <trkpt lat="44.14973" lon="5.84828">
        <ele>839</ele>
        <time>2022-09-22T08:46:44Z</time>
      </trkpt>
      <trkpt lat="44.14972" lon="5.84827">
        <ele>839</ele>
        <time>2022-09-22T08:46:45Z</time>
      </trkpt>
      <trkpt lat="44.14972" lon="5.84827">
        <ele>839</ele>
        <time>2022-09-22T08:46:46Z</time>
      </trkpt>
      <trkpt lat="44.14972" lon="5.84826">
        <ele>839</ele>
        <time>2022-09-22T08:46:47Z</time>
      </trkpt>
      <trkpt lat="44.14971" lon="5.84825">
        <ele>839</ele>
        <time>2022-09-22T08:46:48Z</time>
      </trkpt>
      <trkpt lat="44.14971" lon="5.84825">
        <ele>840</ele>
        <time>2022-09-22T08:46:49Z</time>
      </trkpt>
      <trkpt lat="44.14971" lon="5.84824">
        <ele>840</ele>
        <time>2022-09-22T08:46:50Z</time>
      </trkpt>
      <trkpt lat="44.1497" lon="5.84824">
        <ele>840</ele>
        <time>2022-09-22T08:46:51Z</time>
      </trkpt>
      <trkpt lat="44.14969" lon="5.84823">
        <ele>840</ele>
        <time>2022-09-22T08:46:52Z</time>
      </trkpt>
      <trkpt lat="44.14968" lon="5.84823">
        <ele>840</ele>
        <time>2022-09-22T08:46:53Z</time>
      </trkpt>
      <trkpt lat="44.14968" lon="5.84823">
        <ele>840</ele>
        <time>2022-09-22T08:46:54Z</time>
      </trkpt>
      <trkpt lat="44.14967" lon="5.84822">
        <ele>840</ele>
        <time>2022-09-22T08:46:55Z</time>
      </trkpt>
      <trkpt lat="44.14967" lon="5.84822">
        <ele>840</ele>
        <time>2022-09-22T08:46:56Z</time>
      </trkpt>
      <trkpt lat="44.14966" lon="5.84822">
        <ele>840</ele>
        <time>2022-09-22T08:46:57Z</time>
      </trkpt>
      <trkpt lat="44.14965" lon="5.84821">
        <ele>840</ele>
        <time>2022-09-22T08:46:58Z</time>
      </trkpt>
      <trkpt lat="44.14965" lon="5.84821">
        <ele>841</ele>
        <time>2022-09-22T08:46:59Z</time>
      </trkpt>
      <trkpt lat="44.14963" lon="5.84819">
        <ele>842</ele>
        <time>2022-09-22T08:47:05Z</time>
      </trkpt>
      <trkpt lat="44.14962" lon="5.84818">
        <ele>842</ele>
        <time>2022-09-22T08:47:06Z</time>
      </trkpt>
      <trkpt lat="44.14962" lon="5.84817">
        <ele>842</ele>
        <time>2022-09-22T08:47:07Z</time>
      </trkpt>
      <trkpt lat="44.14961" lon="5.84817">
        <ele>842</ele>
        <time>2022-09-22T08:47:08Z</time>
      </trkpt>
      <trkpt lat="44.1496" lon="5.84816">
        <ele>842</ele>
        <time>2022-09-22T08:47:09Z</time>
      </trkpt>
      <trkpt lat="44.1496" lon="5.84815">
        <ele>842</ele>
        <time>2022-09-22T08:47:10Z</time>
      </trkpt>
      <trkpt lat="44.1496" lon="5.84814">
        <ele>842</ele>
        <time>2022-09-22T08:47:11Z</time>
      </trkpt>
      <trkpt lat="44.14959" lon="5.84813">
        <ele>843</ele>
        <time>2022-09-22T08:47:12Z</time>
      </trkpt>
      <trkpt lat="44.14959" lon="5.84812">
        <ele>843</ele>
        <time>2022-09-22T08:47:13Z</time>
      </trkpt>
      <trkpt lat="44.14959" lon="5.84812">
        <ele>844</ele>
        <time>2022-09-22T08:47:14Z</time>
      </trkpt>
      <trkpt lat="44.14958" lon="5.84811">
        <ele>844</ele>
        <time>2022-09-22T08:47:15Z</time>
      </trkpt>
      <trkpt lat="44.14958" lon="5.84811">
        <ele>844</ele>
        <time>2022-09-22T08:47:16Z</time>
      </trkpt>
      <trkpt lat="44.14957" lon="5.8481">
        <ele>844</ele>
        <time>2022-09-22T08:47:17Z</time>
      </trkpt>
      <trkpt lat="44.14956" lon="5.84809">
        <ele>844</ele>
        <time>2022-09-22T08:47:18Z</time>
      </trkpt>
      <trkpt lat="44.14956" lon="5.84809">
        <ele>844</ele>
        <time>2022-09-22T08:47:19Z</time>
      </trkpt>
      <trkpt lat="44.14955" lon="5.84808">
        <ele>844</ele>
        <time>2022-09-22T08:47:20Z</time>
      </trkpt>
      <trkpt lat="44.14954" lon="5.84807">
        <ele>844</ele>
        <time>2022-09-22T08:47:21Z</time>
      </trkpt>
      <trkpt lat="44.14953" lon="5.84806">
        <ele>844</ele>
        <time>2022-09-22T08:47:22Z</time>
      </trkpt>
      <trkpt lat="44.14952" lon="5.84805">
        <ele>844</ele>
        <time>2022-09-22T08:47:23Z</time>
      </trkpt>
      <trkpt lat="44.14951" lon="5.84804">
        <ele>845</ele>
        <time>2022-09-22T08:47:24Z</time>
      </trkpt>
      <trkpt lat="44.1495" lon="5.84803">
        <ele>845</ele>
        <time>2022-09-22T08:47:25Z</time>
      </trkpt>
      <trkpt lat="44.1495" lon="5.84802">
        <ele>845</ele>
        <time>2022-09-22T08:47:26Z</time>
      </trkpt>
      <trkpt lat="44.14949" lon="5.84801">
        <ele>845</ele>
        <time>2022-09-22T08:47:27Z</time>
      </trkpt>
      <trkpt lat="44.14948" lon="5.848">
        <ele>845</ele>
        <time>2022-09-22T08:47:28Z</time>
      </trkpt>
      <trkpt lat="44.14948" lon="5.848">
        <ele>845</ele>
        <time>2022-09-22T08:47:29Z</time>
      </trkpt>
      <trkpt lat="44.14948" lon="5.84799">
        <ele>845</ele>
        <time>2022-09-22T08:47:30Z</time>
      </trkpt>
      <trkpt lat="44.14948" lon="5.84798">
        <ele>845</ele>
        <time>2022-09-22T08:47:31Z</time>
      </trkpt>
      <trkpt lat="44.14947" lon="5.84798">
        <ele>846</ele>
        <time>2022-09-22T08:47:32Z</time>
      </trkpt>
      <trkpt lat="44.14947" lon="5.84797">
        <ele>846</ele>
        <time>2022-09-22T08:47:33Z</time>
      </trkpt>
      <trkpt lat="44.14947" lon="5.84796">
        <ele>847</ele>
        <time>2022-09-22T08:47:34Z</time>
      </trkpt>
      <trkpt lat="44.14946" lon="5.84794">
        <ele>847</ele>
        <time>2022-09-22T08:47:40Z</time>
      </trkpt>
      <trkpt lat="44.14946" lon="5.84793">
        <ele>847</ele>
        <time>2022-09-22T08:47:41Z</time>
      </trkpt>
      <trkpt lat="44.14945" lon="5.84791">
        <ele>847</ele>
        <time>2022-09-22T08:47:42Z</time>
      </trkpt>
      <trkpt lat="44.14945" lon="5.8479">
        <ele>847</ele>
        <time>2022-09-22T08:47:43Z</time>
      </trkpt>
      <trkpt lat="44.14944" lon="5.84789">
        <ele>848</ele>
        <time>2022-09-22T08:47:44Z</time>
      </trkpt>
      <trkpt lat="44.14944" lon="5.84788">
        <ele>848</ele>
        <time>2022-09-22T08:47:45Z</time>
      </trkpt>
      <trkpt lat="44.14944" lon="5.84787">
        <ele>848</ele>
        <time>2022-09-22T08:47:46Z</time>
      </trkpt>
      <trkpt lat="44.14944" lon="5.84786">
        <ele>848</ele>
        <time>2022-09-22T08:47:47Z</time>
      </trkpt>
      <trkpt lat="44.14944" lon="5.84785">
        <ele>848</ele>
        <time>2022-09-22T08:47:48Z</time>
      </trkpt>
      <trkpt lat="44.14943" lon="5.84784">
        <ele>849</ele>
        <time>2022-09-22T08:47:49Z</time>
      </trkpt>
      <trkpt lat="44.14943" lon="5.84783">
        <ele>849</ele>
        <time>2022-09-22T08:47:50Z</time>
      </trkpt>
      <trkpt lat="44.14943" lon="5.84782">
        <ele>849</ele>
        <time>2022-09-22T08:47:51Z</time>
      </trkpt>
      <trkpt lat="44.14942" lon="5.84781">
        <ele>849</ele>
        <time>2022-09-22T08:47:52Z</time>
      </trkpt>
      <trkpt lat="44.14941" lon="5.8478">
        <ele>849</ele>
        <time>2022-09-22T08:47:53Z</time>
      </trkpt>
      <trkpt lat="44.14941" lon="5.84779">
        <ele>849</ele>
        <time>2022-09-22T08:47:54Z</time>
      </trkpt>
      <trkpt lat="44.14941" lon="5.84778">
        <ele>849</ele>
        <time>2022-09-22T08:47:55Z</time>
      </trkpt>
      <trkpt lat="44.14941" lon="5.84777">
        <ele>849</ele>
        <time>2022-09-22T08:47:56Z</time>
      </trkpt>
      <trkpt lat="44.1494" lon="5.84776">
        <ele>849</ele>
        <time>2022-09-22T08:47:57Z</time>
      </trkpt>
      <trkpt lat="44.1494" lon="5.84775">
        <ele>849</ele>
        <time>2022-09-22T08:47:58Z</time>
      </trkpt>
      <trkpt lat="44.1494" lon="5.84774">
        <ele>850</ele>
        <time>2022-09-22T08:47:59Z</time>
      </trkpt>
      <trkpt lat="44.1494" lon="5.84774">
        <ele>850</ele>
        <time>2022-09-22T08:48:00Z</time>
      </trkpt>
      <trkpt lat="44.14939" lon="5.84773">
        <ele>850</ele>
        <time>2022-09-22T08:48:01Z</time>
      </trkpt>
      <trkpt lat="44.14938" lon="5.84772">
        <ele>850</ele>
        <time>2022-09-22T08:48:02Z</time>
      </trkpt>
      <trkpt lat="44.14938" lon="5.84771">
        <ele>850</ele>
        <time>2022-09-22T08:48:03Z</time>
      </trkpt>
      <trkpt lat="44.14937" lon="5.8477">
        <ele>850</ele>
        <time>2022-09-22T08:48:04Z</time>
      </trkpt>
      <trkpt lat="44.14937" lon="5.84769">
        <ele>850</ele>
        <time>2022-09-22T08:48:05Z</time>
      </trkpt>
      <trkpt lat="44.14937" lon="5.84768">
        <ele>850</ele>
        <time>2022-09-22T08:48:06Z</time>
      </trkpt>
      <trkpt lat="44.14937" lon="5.84767">
        <ele>850</ele>
        <time>2022-09-22T08:48:07Z</time>
      </trkpt>
      <trkpt lat="44.14937" lon="5.84766">
        <ele>850</ele>
        <time>2022-09-22T08:48:08Z</time>
      </trkpt>
      <trkpt lat="44.14937" lon="5.84765">
        <ele>851</ele>
        <time>2022-09-22T08:48:09Z</time>
      </trkpt>
      <trkpt lat="44.14936" lon="5.84764">
        <ele>851</ele>
        <time>2022-09-22T08:48:10Z</time>
      </trkpt>
      <trkpt lat="44.14936" lon="5.84763">
        <ele>851</ele>
        <time>2022-09-22T08:48:11Z</time>
      </trkpt>
      <trkpt lat="44.14936" lon="5.84762">
        <ele>851</ele>
        <time>2022-09-22T08:48:12Z</time>
      </trkpt>
      <trkpt lat="44.14935" lon="5.84761">
        <ele>851</ele>
        <time>2022-09-22T08:48:13Z</time>
      </trkpt>
      <trkpt lat="44.14935" lon="5.8476">
        <ele>851</ele>
        <time>2022-09-22T08:48:14Z</time>
      </trkpt>
      <trkpt lat="44.14935" lon="5.84758">
        <ele>851</ele>
        <time>2022-09-22T08:48:15Z</time>
      </trkpt>
      <trkpt lat="44.14935" lon="5.84757">
        <ele>851</ele>
        <time>2022-09-22T08:48:16Z</time>
      </trkpt>
      <trkpt lat="44.14934" lon="5.84755">
        <ele>851</ele>
        <time>2022-09-22T08:48:17Z</time>
      </trkpt>
      <trkpt lat="44.14934" lon="5.84754">
        <ele>851</ele>
        <time>2022-09-22T08:48:18Z</time>
      </trkpt>
      <trkpt lat="44.14934" lon="5.84753">
        <ele>852</ele>
        <time>2022-09-22T08:48:19Z</time>
      </trkpt>
      <trkpt lat="44.14934" lon="5.84752">
        <ele>852</ele>
        <time>2022-09-22T08:48:20Z</time>
      </trkpt>
      <trkpt lat="44.14934" lon="5.84751">
        <ele>852</ele>
        <time>2022-09-22T08:48:21Z</time>
      </trkpt>
      <trkpt lat="44.14935" lon="5.84751">
        <ele>852</ele>
        <time>2022-09-22T08:48:22Z</time>
      </trkpt>
      <trkpt lat="44.14934" lon="5.8475">
        <ele>852</ele>
        <time>2022-09-22T08:48:23Z</time>
      </trkpt>
      <trkpt lat="44.14934" lon="5.84748">
        <ele>853</ele>
        <time>2022-09-22T08:48:24Z</time>
      </trkpt>
      <trkpt lat="44.14934" lon="5.84747">
        <ele>853</ele>
        <time>2022-09-22T08:48:25Z</time>
      </trkpt>
      <trkpt lat="44.14934" lon="5.84746">
        <ele>853</ele>
        <time>2022-09-22T08:48:26Z</time>
      </trkpt>
      <trkpt lat="44.14934" lon="5.84745">
        <ele>853</ele>
        <time>2022-09-22T08:48:27Z</time>
      </trkpt>
      <trkpt lat="44.14933" lon="5.84743">
        <ele>853</ele>
        <time>2022-09-22T08:48:28Z</time>
      </trkpt>
      <trkpt lat="44.14933" lon="5.84743">
        <ele>853</ele>
        <time>2022-09-22T08:48:29Z</time>
      </trkpt>
      <trkpt lat="44.14933" lon="5.84742">
        <ele>853</ele>
        <time>2022-09-22T08:48:30Z</time>
      </trkpt>
      <trkpt lat="44.14933" lon="5.84741">
        <ele>853</ele>
        <time>2022-09-22T08:48:31Z</time>
      </trkpt>
      <trkpt lat="44.14933" lon="5.8474">
        <ele>853</ele>
        <time>2022-09-22T08:48:32Z</time>
      </trkpt>
      <trkpt lat="44.14933" lon="5.8474">
        <ele>853</ele>
        <time>2022-09-22T08:48:33Z</time>
      </trkpt>
      <trkpt lat="44.14933" lon="5.84739">
        <ele>854</ele>
        <time>2022-09-22T08:48:34Z</time>
      </trkpt>
      <trkpt lat="44.14933" lon="5.84738">
        <ele>854</ele>
        <time>2022-09-22T08:48:35Z</time>
      </trkpt>
      <trkpt lat="44.14933" lon="5.84737">
        <ele>854</ele>
        <time>2022-09-22T08:48:36Z</time>
      </trkpt>
      <trkpt lat="44.14933" lon="5.84736">
        <ele>854</ele>
        <time>2022-09-22T08:48:37Z</time>
      </trkpt>
      <trkpt lat="44.14933" lon="5.84735">
        <ele>854</ele>
        <time>2022-09-22T08:48:38Z</time>
      </trkpt>
      <trkpt lat="44.14932" lon="5.84735">
        <ele>854</ele>
        <time>2022-09-22T08:48:39Z</time>
      </trkpt>
      <trkpt lat="44.14932" lon="5.84734">
        <ele>854</ele>
        <time>2022-09-22T08:48:40Z</time>
      </trkpt>
      <trkpt lat="44.14932" lon="5.84732">
        <ele>854</ele>
        <time>2022-09-22T08:48:41Z</time>
      </trkpt>
      <trkpt lat="44.14932" lon="5.84731">
        <ele>854</ele>
        <time>2022-09-22T08:48:42Z</time>
      </trkpt>
      <trkpt lat="44.14932" lon="5.8473">
        <ele>854</ele>
        <time>2022-09-22T08:48:43Z</time>
      </trkpt>
      <trkpt lat="44.14932" lon="5.84729">
        <ele>855</ele>
        <time>2022-09-22T08:48:44Z</time>
      </trkpt>
      <trkpt lat="44.14932" lon="5.84728">
        <ele>855</ele>
        <time>2022-09-22T08:48:45Z</time>
      </trkpt>
      <trkpt lat="44.14932" lon="5.84727">
        <ele>855</ele>
        <time>2022-09-22T08:48:46Z</time>
      </trkpt>
      <trkpt lat="44.14933" lon="5.84726">
        <ele>855</ele>
        <time>2022-09-22T08:48:47Z</time>
      </trkpt>
      <trkpt lat="44.14933" lon="5.84725">
        <ele>855</ele>
        <time>2022-09-22T08:48:48Z</time>
      </trkpt>
      <trkpt lat="44.14934" lon="5.84725">
        <ele>856</ele>
        <time>2022-09-22T08:48:49Z</time>
      </trkpt>
      <trkpt lat="44.14934" lon="5.84724">
        <ele>856</ele>
        <time>2022-09-22T08:48:50Z</time>
      </trkpt>
      <trkpt lat="44.14934" lon="5.84724">
        <ele>856</ele>
        <time>2022-09-22T08:48:51Z</time>
      </trkpt>
      <trkpt lat="44.14935" lon="5.84723">
        <ele>856</ele>
        <time>2022-09-22T08:48:52Z</time>
      </trkpt>
      <trkpt lat="44.14935" lon="5.84722">
        <ele>857</ele>
        <time>2022-09-22T08:48:59Z</time>
      </trkpt>
      <trkpt lat="44.14935" lon="5.8472">
        <ele>857</ele>
        <time>2022-09-22T08:49:00Z</time>
      </trkpt>
      <trkpt lat="44.14935" lon="5.84719">
        <ele>857</ele>
        <time>2022-09-22T08:49:01Z</time>
      </trkpt>
      <trkpt lat="44.14935" lon="5.84718">
        <ele>857</ele>
        <time>2022-09-22T08:49:02Z</time>
      </trkpt>
      <trkpt lat="44.14935" lon="5.84717">
        <ele>857</ele>
        <time>2022-09-22T08:49:03Z</time>
      </trkpt>
      <trkpt lat="44.14934" lon="5.84716">
        <ele>858</ele>
        <time>2022-09-22T08:49:04Z</time>
      </trkpt>
      <trkpt lat="44.14934" lon="5.84715">
        <ele>858</ele>
        <time>2022-09-22T08:49:05Z</time>
      </trkpt>
      <trkpt lat="44.14934" lon="5.84714">
        <ele>858</ele>
        <time>2022-09-22T08:49:06Z</time>
      </trkpt>
      <trkpt lat="44.14933" lon="5.84713">
        <ele>858</ele>
        <time>2022-09-22T08:49:07Z</time>
      </trkpt>
      <trkpt lat="44.14933" lon="5.84712">
        <ele>858</ele>
        <time>2022-09-22T08:49:08Z</time>
      </trkpt>
      <trkpt lat="44.14932" lon="5.84711">
        <ele>858</ele>
        <time>2022-09-22T08:49:09Z</time>
      </trkpt>
      <trkpt lat="44.14931" lon="5.8471">
        <ele>858</ele>
        <time>2022-09-22T08:49:10Z</time>
      </trkpt>
      <trkpt lat="44.14931" lon="5.84709">
        <ele>858</ele>
        <time>2022-09-22T08:49:11Z</time>
      </trkpt>
      <trkpt lat="44.14931" lon="5.84708">
        <ele>858</ele>
        <time>2022-09-22T08:49:12Z</time>
      </trkpt>
      <trkpt lat="44.14931" lon="5.84707">
        <ele>858</ele>
        <time>2022-09-22T08:49:13Z</time>
      </trkpt>
      <trkpt lat="44.14931" lon="5.84706">
        <ele>859</ele>
        <time>2022-09-22T08:49:14Z</time>
      </trkpt>
      <trkpt lat="44.14931" lon="5.84705">
        <ele>859</ele>
        <time>2022-09-22T08:49:15Z</time>
      </trkpt>
      <trkpt lat="44.14931" lon="5.84704">
        <ele>859</ele>
        <time>2022-09-22T08:49:16Z</time>
      </trkpt>
      <trkpt lat="44.14932" lon="5.84703">
        <ele>859</ele>
        <time>2022-09-22T08:49:17Z</time>
      </trkpt>
      <trkpt lat="44.14932" lon="5.84702">
        <ele>859</ele>
        <time>2022-09-22T08:49:18Z</time>
      </trkpt>
      <trkpt lat="44.14933" lon="5.84701">
        <ele>860</ele>
        <time>2022-09-22T08:49:19Z</time>
      </trkpt>
      <trkpt lat="44.14933" lon="5.847">
        <ele>860</ele>
        <time>2022-09-22T08:49:20Z</time>
      </trkpt>
      <trkpt lat="44.14933" lon="5.84699">
        <ele>860</ele>
        <time>2022-09-22T08:49:21Z</time>
      </trkpt>
      <trkpt lat="44.14933" lon="5.84698">
        <ele>860</ele>
        <time>2022-09-22T08:49:22Z</time>
      </trkpt>
      <trkpt lat="44.14933" lon="5.84698">
        <ele>860</ele>
        <time>2022-09-22T08:49:23Z</time>
      </trkpt>
      <trkpt lat="44.14933" lon="5.84697">
        <ele>860</ele>
        <time>2022-09-22T08:49:24Z</time>
      </trkpt>
      <trkpt lat="44.14933" lon="5.84696">
        <ele>860</ele>
        <time>2022-09-22T08:49:25Z</time>
      </trkpt>
      <trkpt lat="44.14933" lon="5.84695">
        <ele>860</ele>
        <time>2022-09-22T08:49:26Z</time>
      </trkpt>
      <trkpt lat="44.14933" lon="5.84694">
        <ele>860</ele>
        <time>2022-09-22T08:49:27Z</time>
      </trkpt>
      <trkpt lat="44.14934" lon="5.84693">
        <ele>860</ele>
        <time>2022-09-22T08:49:28Z</time>
      </trkpt>
      <trkpt lat="44.14934" lon="5.84693">
        <ele>861</ele>
        <time>2022-09-22T08:49:29Z</time>
      </trkpt>
      <trkpt lat="44.14934" lon="5.84692">
        <ele>861</ele>
        <time>2022-09-22T08:49:30Z</time>
      </trkpt>
      <trkpt lat="44.14935" lon="5.84691">
        <ele>861</ele>
        <time>2022-09-22T08:49:31Z</time>
      </trkpt>
      <trkpt lat="44.14935" lon="5.84691">
        <ele>861</ele>
        <time>2022-09-22T08:49:32Z</time>
      </trkpt>
      <trkpt lat="44.14936" lon="5.8469">
        <ele>861</ele>
        <time>2022-09-22T08:49:33Z</time>
      </trkpt>
      <trkpt lat="44.14936" lon="5.84689">
        <ele>862</ele>
        <time>2022-09-22T08:49:34Z</time>
      </trkpt>
      <trkpt lat="44.14937" lon="5.84688">
        <ele>862</ele>
        <time>2022-09-22T08:49:35Z</time>
      </trkpt>
      <trkpt lat="44.14937" lon="5.84687">
        <ele>862</ele>
        <time>2022-09-22T08:49:36Z</time>
      </trkpt>
      <trkpt lat="44.14938" lon="5.84686">
        <ele>862</ele>
        <time>2022-09-22T08:49:37Z</time>
      </trkpt>
      <trkpt lat="44.14938" lon="5.84686">
        <ele>862</ele>
        <time>2022-09-22T08:49:38Z</time>
      </trkpt>
      <trkpt lat="44.14938" lon="5.84685">
        <ele>863</ele>
        <time>2022-09-22T08:49:39Z</time>
      </trkpt>
      <trkpt lat="44.14938" lon="5.84684">
        <ele>863</ele>
        <time>2022-09-22T08:49:40Z</time>
      </trkpt>
      <trkpt lat="44.14938" lon="5.84683">
        <ele>863</ele>
        <time>2022-09-22T08:49:41Z</time>
      </trkpt>
      <trkpt lat="44.14938" lon="5.84682">
        <ele>863</ele>
        <time>2022-09-22T08:49:42Z</time>
      </trkpt>
      <trkpt lat="44.14937" lon="5.84681">
        <ele>863</ele>
        <time>2022-09-22T08:49:43Z</time>
      </trkpt>
      <trkpt lat="44.14937" lon="5.84679">
        <ele>863</ele>
        <time>2022-09-22T08:49:44Z</time>
      </trkpt>
      <trkpt lat="44.14936" lon="5.84678">
        <ele>863</ele>
        <time>2022-09-22T08:49:45Z</time>
      </trkpt>
      <trkpt lat="44.14936" lon="5.84677">
        <ele>863</ele>
        <time>2022-09-22T08:49:46Z</time>
      </trkpt>
      <trkpt lat="44.14935" lon="5.84676">
        <ele>863</ele>
        <time>2022-09-22T08:49:47Z</time>
      </trkpt>
      <trkpt lat="44.14935" lon="5.84675">
        <ele>863</ele>
        <time>2022-09-22T08:49:48Z</time>
      </trkpt>
      <trkpt lat="44.14934" lon="5.84674">
        <ele>864</ele>
        <time>2022-09-22T08:49:49Z</time>
      </trkpt>
      <trkpt lat="44.14934" lon="5.84673">
        <ele>864</ele>
        <time>2022-09-22T08:49:50Z</time>
      </trkpt>
      <trkpt lat="44.14934" lon="5.84673">
        <ele>864</ele>
        <time>2022-09-22T08:49:51Z</time>
      </trkpt>
      <trkpt lat="44.14934" lon="5.84672">
        <ele>864</ele>
        <time>2022-09-22T08:49:52Z</time>
      </trkpt>
      <trkpt lat="44.14934" lon="5.84671">
        <ele>864</ele>
        <time>2022-09-22T08:49:53Z</time>
      </trkpt>
      <trkpt lat="44.14934" lon="5.8467">
        <ele>864</ele>
        <time>2022-09-22T08:49:54Z</time>
      </trkpt>
      <trkpt lat="44.14934" lon="5.8467">
        <ele>864</ele>
        <time>2022-09-22T08:49:55Z</time>
      </trkpt>
      <trkpt lat="44.14934" lon="5.84669">
        <ele>864</ele>
        <time>2022-09-22T08:49:56Z</time>
      </trkpt>
      <trkpt lat="44.14934" lon="5.84669">
        <ele>864</ele>
        <time>2022-09-22T08:49:57Z</time>
      </trkpt>
      <trkpt lat="44.14934" lon="5.84668">
        <ele>864</ele>
        <time>2022-09-22T08:49:58Z</time>
      </trkpt>
      <trkpt lat="44.14935" lon="5.84667">
        <ele>865</ele>
        <time>2022-09-22T08:49:59Z</time>
      </trkpt>
      <trkpt lat="44.14935" lon="5.84666">
        <ele>865</ele>
        <time>2022-09-22T08:50:00Z</time>
      </trkpt>
      <trkpt lat="44.14935" lon="5.84665">
        <ele>865</ele>
        <time>2022-09-22T08:50:01Z</time>
      </trkpt>
      <trkpt lat="44.14935" lon="5.84664">
        <ele>865</ele>
        <time>2022-09-22T08:50:02Z</time>
      </trkpt>
      <trkpt lat="44.14934" lon="5.84662">
        <ele>865</ele>
        <time>2022-09-22T08:50:03Z</time>
      </trkpt>
      <trkpt lat="44.14934" lon="5.84661">
        <ele>866</ele>
        <time>2022-09-22T08:50:04Z</time>
      </trkpt>
      <trkpt lat="44.14934" lon="5.8466">
        <ele>866</ele>
        <time>2022-09-22T08:50:05Z</time>
      </trkpt>
      <trkpt lat="44.14934" lon="5.84658">
        <ele>866</ele>
        <time>2022-09-22T08:50:06Z</time>
      </trkpt>
      <trkpt lat="44.14933" lon="5.84657">
        <ele>866</ele>
        <time>2022-09-22T08:50:07Z</time>
      </trkpt>
      <trkpt lat="44.14933" lon="5.84656">
        <ele>866</ele>
        <time>2022-09-22T08:50:08Z</time>
      </trkpt>
      <trkpt lat="44.14933" lon="5.84655">
        <ele>866</ele>
        <time>2022-09-22T08:50:09Z</time>
      </trkpt>
      <trkpt lat="44.14933" lon="5.84654">
        <ele>866</ele>
        <time>2022-09-22T08:50:10Z</time>
      </trkpt>
      <trkpt lat="44.14932" lon="5.84653">
        <ele>866</ele>
        <time>2022-09-22T08:50:11Z</time>
      </trkpt>
      <trkpt lat="44.14932" lon="5.8465">
        <ele>867</ele>
        <time>2022-09-22T08:50:22Z</time>
      </trkpt>
      <trkpt lat="44.14931" lon="5.84649">
        <ele>867</ele>
        <time>2022-09-22T08:50:23Z</time>
      </trkpt>
      <trkpt lat="44.14931" lon="5.84647">
        <ele>868</ele>
        <time>2022-09-22T08:50:24Z</time>
      </trkpt>
      <trkpt lat="44.1493" lon="5.84646">
        <ele>868</ele>
        <time>2022-09-22T08:50:25Z</time>
      </trkpt>
      <trkpt lat="44.1493" lon="5.84645">
        <ele>868</ele>
        <time>2022-09-22T08:50:26Z</time>
      </trkpt>
      <trkpt lat="44.14929" lon="5.84644">
        <ele>868</ele>
        <time>2022-09-22T08:50:27Z</time>
      </trkpt>
      <trkpt lat="44.14928" lon="5.84643">
        <ele>868</ele>
        <time>2022-09-22T08:50:28Z</time>
      </trkpt>
      <trkpt lat="44.14928" lon="5.84643">
        <ele>868</ele>
        <time>2022-09-22T08:50:29Z</time>
      </trkpt>
      <trkpt lat="44.14927" lon="5.84642">
        <ele>868</ele>
        <time>2022-09-22T08:50:30Z</time>
      </trkpt>
      <trkpt lat="44.14926" lon="5.84641">
        <ele>869</ele>
        <time>2022-09-22T08:50:36Z</time>
      </trkpt>
      <trkpt lat="44.14926" lon="5.8464">
        <ele>869</ele>
        <time>2022-09-22T08:50:37Z</time>
      </trkpt>
      <trkpt lat="44.14925" lon="5.8464">
        <ele>869</ele>
        <time>2022-09-22T08:50:38Z</time>
      </trkpt>
      <trkpt lat="44.14924" lon="5.84639">
        <ele>870</ele>
        <time>2022-09-22T08:50:39Z</time>
      </trkpt>
      <trkpt lat="44.14924" lon="5.84639">
        <ele>870</ele>
        <time>2022-09-22T08:50:40Z</time>
      </trkpt>
      <trkpt lat="44.14923" lon="5.84638">
        <ele>870</ele>
        <time>2022-09-22T08:50:41Z</time>
      </trkpt>
      <trkpt lat="44.14922" lon="5.84638">
        <ele>870</ele>
        <time>2022-09-22T08:50:42Z</time>
      </trkpt>
      <trkpt lat="44.14921" lon="5.84637">
        <ele>870</ele>
        <time>2022-09-22T08:50:43Z</time>
      </trkpt>
      <trkpt lat="44.14919" lon="5.84637">
        <ele>870</ele>
        <time>2022-09-22T08:50:44Z</time>
      </trkpt>
      <trkpt lat="44.14918" lon="5.84636">
        <ele>870</ele>
        <time>2022-09-22T08:50:45Z</time>
      </trkpt>
      <trkpt lat="44.14917" lon="5.84636">
        <ele>870</ele>
        <time>2022-09-22T08:50:46Z</time>
      </trkpt>
      <trkpt lat="44.14916" lon="5.84635">
        <ele>870</ele>
        <time>2022-09-22T08:50:47Z</time>
      </trkpt>
      <trkpt lat="44.14915" lon="5.84635">
        <ele>870</ele>
        <time>2022-09-22T08:50:48Z</time>
      </trkpt>
      <trkpt lat="44.14914" lon="5.84634">
        <ele>870</ele>
        <time>2022-09-22T08:50:49Z</time>
      </trkpt>
      <trkpt lat="44.14913" lon="5.84634">
        <ele>870</ele>
        <time>2022-09-22T08:50:50Z</time>
      </trkpt>
      <trkpt lat="44.14912" lon="5.84633">
        <ele>870</ele>
        <time>2022-09-22T08:50:51Z</time>
      </trkpt>
      <trkpt lat="44.14912" lon="5.84632">
        <ele>870</ele>
        <time>2022-09-22T08:50:52Z</time>
      </trkpt>
      <trkpt lat="44.14911" lon="5.84631">
        <ele>870</ele>
        <time>2022-09-22T08:50:53Z</time>
      </trkpt>
      <trkpt lat="44.1491" lon="5.8463">
        <ele>870</ele>
        <time>2022-09-22T08:50:54Z</time>
      </trkpt>
      <trkpt lat="44.14909" lon="5.8463">
        <ele>870</ele>
        <time>2022-09-22T08:50:55Z</time>
      </trkpt>
      <trkpt lat="44.14909" lon="5.84629">
        <ele>870</ele>
        <time>2022-09-22T08:50:56Z</time>
      </trkpt>
      <trkpt lat="44.14908" lon="5.84628">
        <ele>870</ele>
        <time>2022-09-22T08:50:57Z</time>
      </trkpt>
      <trkpt lat="44.14907" lon="5.84627">
        <ele>870</ele>
        <time>2022-09-22T08:50:58Z</time>
      </trkpt>
      <trkpt lat="44.14907" lon="5.84627">
        <ele>871</ele>
        <time>2022-09-22T08:50:59Z</time>
      </trkpt>
      <trkpt lat="44.14906" lon="5.84626">
        <ele>871</ele>
        <time>2022-09-22T08:51:00Z</time>
      </trkpt>
      <trkpt lat="44.14905" lon="5.84625">
        <ele>871</ele>
        <time>2022-09-22T08:51:01Z</time>
      </trkpt>
      <trkpt lat="44.14905" lon="5.84625">
        <ele>871</ele>
        <time>2022-09-22T08:51:02Z</time>
      </trkpt>
      <trkpt lat="44.14904" lon="5.84625">
        <ele>871</ele>
        <time>2022-09-22T08:51:03Z</time>
      </trkpt>
      <trkpt lat="44.14903" lon="5.84624">
        <ele>871</ele>
        <time>2022-09-22T08:51:04Z</time>
      </trkpt>
      <trkpt lat="44.14902" lon="5.84623">
        <ele>871</ele>
        <time>2022-09-22T08:51:05Z</time>
      </trkpt>
      <trkpt lat="44.14902" lon="5.84623">
        <ele>871</ele>
        <time>2022-09-22T08:51:06Z</time>
      </trkpt>
      <trkpt lat="44.14901" lon="5.84622">
        <ele>871</ele>
        <time>2022-09-22T08:51:07Z</time>
      </trkpt>
      <trkpt lat="44.149" lon="5.84621">
        <ele>871</ele>
        <time>2022-09-22T08:51:08Z</time>
      </trkpt>
      <trkpt lat="44.149" lon="5.84621">
        <ele>872</ele>
        <time>2022-09-22T08:51:09Z</time>
      </trkpt>
      <trkpt lat="44.14899" lon="5.8462">
        <ele>872</ele>
        <time>2022-09-22T08:51:10Z</time>
      </trkpt>
      <trkpt lat="44.14898" lon="5.8462">
        <ele>872</ele>
        <time>2022-09-22T08:51:11Z</time>
      </trkpt>
      <trkpt lat="44.14898" lon="5.84619">
        <ele>872</ele>
        <time>2022-09-22T08:51:12Z</time>
      </trkpt>
      <trkpt lat="44.14897" lon="5.84618">
        <ele>872</ele>
        <time>2022-09-22T08:51:13Z</time>
      </trkpt>
      <trkpt lat="44.14896" lon="5.84618">
        <ele>873</ele>
        <time>2022-09-22T08:51:14Z</time>
      </trkpt>
      <trkpt lat="44.14895" lon="5.84617">
        <ele>873</ele>
        <time>2022-09-22T08:51:15Z</time>
      </trkpt>
      <trkpt lat="44.14895" lon="5.84616">
        <ele>873</ele>
        <time>2022-09-22T08:51:16Z</time>
      </trkpt>
      <trkpt lat="44.14894" lon="5.84615">
        <ele>873</ele>
        <time>2022-09-22T08:51:17Z</time>
      </trkpt>
      <trkpt lat="44.14894" lon="5.84614">
        <ele>873</ele>
        <time>2022-09-22T08:51:18Z</time>
      </trkpt>
      <trkpt lat="44.14893" lon="5.84613">
        <ele>873</ele>
        <time>2022-09-22T08:51:19Z</time>
      </trkpt>
      <trkpt lat="44.14893" lon="5.84612">
        <ele>873</ele>
        <time>2022-09-22T08:51:20Z</time>
      </trkpt>
      <trkpt lat="44.14892" lon="5.84611">
        <ele>873</ele>
        <time>2022-09-22T08:51:21Z</time>
      </trkpt>
      <trkpt lat="44.14892" lon="5.8461">
        <ele>873</ele>
        <time>2022-09-22T08:51:22Z</time>
      </trkpt>
      <trkpt lat="44.14892" lon="5.84609">
        <ele>873</ele>
        <time>2022-09-22T08:51:23Z</time>
      </trkpt>
      <trkpt lat="44.14891" lon="5.84608">
        <ele>874</ele>
        <time>2022-09-22T08:51:24Z</time>
      </trkpt>
      <trkpt lat="44.14891" lon="5.84607">
        <ele>874</ele>
        <time>2022-09-22T08:51:25Z</time>
      </trkpt>
      <trkpt lat="44.14891" lon="5.84605">
        <ele>874</ele>
        <time>2022-09-22T08:51:26Z</time>
      </trkpt>
      <trkpt lat="44.1489" lon="5.84604">
        <ele>874</ele>
        <time>2022-09-22T08:51:27Z</time>
      </trkpt>
      <trkpt lat="44.1489" lon="5.84603">
        <ele>874</ele>
        <time>2022-09-22T08:51:28Z</time>
      </trkpt>
      <trkpt lat="44.14889" lon="5.84602">
        <ele>874</ele>
        <time>2022-09-22T08:51:29Z</time>
      </trkpt>
      <trkpt lat="44.14889" lon="5.84601">
        <ele>874</ele>
        <time>2022-09-22T08:51:30Z</time>
      </trkpt>
      <trkpt lat="44.14888" lon="5.846">
        <ele>874</ele>
        <time>2022-09-22T08:51:31Z</time>
      </trkpt>
      <trkpt lat="44.14888" lon="5.84599">
        <ele>874</ele>
        <time>2022-09-22T08:51:32Z</time>
      </trkpt>
      <trkpt lat="44.14887" lon="5.84597">
        <ele>874</ele>
        <time>2022-09-22T08:51:33Z</time>
      </trkpt>
      <trkpt lat="44.14887" lon="5.84596">
        <ele>875</ele>
        <time>2022-09-22T08:51:34Z</time>
      </trkpt>
      <trkpt lat="44.14886" lon="5.84595">
        <ele>875</ele>
        <time>2022-09-22T08:51:35Z</time>
      </trkpt>
      <trkpt lat="44.14885" lon="5.84594">
        <ele>875</ele>
        <time>2022-09-22T08:51:36Z</time>
      </trkpt>
      <trkpt lat="44.14885" lon="5.84594">
        <ele>875</ele>
        <time>2022-09-22T08:51:37Z</time>
      </trkpt>
      <trkpt lat="44.14884" lon="5.84593">
        <ele>875</ele>
        <time>2022-09-22T08:51:38Z</time>
      </trkpt>
      <trkpt lat="44.14883" lon="5.84592">
        <ele>875</ele>
        <time>2022-09-22T08:51:39Z</time>
      </trkpt>
      <trkpt lat="44.14883" lon="5.84592">
        <ele>875</ele>
        <time>2022-09-22T08:51:40Z</time>
      </trkpt>
      <trkpt lat="44.14882" lon="5.84591">
        <ele>875</ele>
        <time>2022-09-22T08:51:41Z</time>
      </trkpt>
      <trkpt lat="44.14882" lon="5.84591">
        <ele>875</ele>
        <time>2022-09-22T08:51:42Z</time>
      </trkpt>
      <trkpt lat="44.14881" lon="5.8459">
        <ele>875</ele>
        <time>2022-09-22T08:51:43Z</time>
      </trkpt>
      <trkpt lat="44.1488" lon="5.84589">
        <ele>876</ele>
        <time>2022-09-22T08:51:44Z</time>
      </trkpt>
      <trkpt lat="44.1488" lon="5.84588">
        <ele>876</ele>
        <time>2022-09-22T08:51:45Z</time>
      </trkpt>
      <trkpt lat="44.14879" lon="5.84588">
        <ele>876</ele>
        <time>2022-09-22T08:51:46Z</time>
      </trkpt>
      <trkpt lat="44.14879" lon="5.84587">
        <ele>876</ele>
        <time>2022-09-22T08:51:47Z</time>
      </trkpt>
      <trkpt lat="44.14878" lon="5.84586">
        <ele>876</ele>
        <time>2022-09-22T08:51:48Z</time>
      </trkpt>
      <trkpt lat="44.14878" lon="5.84585">
        <ele>876</ele>
        <time>2022-09-22T08:51:49Z</time>
      </trkpt>
      <trkpt lat="44.14878" lon="5.84585">
        <ele>876</ele>
        <time>2022-09-22T08:51:50Z</time>
      </trkpt>
      <trkpt lat="44.14877" lon="5.84584">
        <ele>876</ele>
        <time>2022-09-22T08:51:51Z</time>
      </trkpt>
      <trkpt lat="44.14877" lon="5.84583">
        <ele>876</ele>
        <time>2022-09-22T08:51:52Z</time>
      </trkpt>
      <trkpt lat="44.14876" lon="5.84583">
        <ele>876</ele>
        <time>2022-09-22T08:51:53Z</time>
      </trkpt>
      <trkpt lat="44.14875" lon="5.84582">
        <ele>877</ele>
        <time>2022-09-22T08:51:54Z</time>
      </trkpt>
      <trkpt lat="44.14875" lon="5.84582">
        <ele>877</ele>
        <time>2022-09-22T08:51:55Z</time>
      </trkpt>
      <trkpt lat="44.14874" lon="5.84581">
        <ele>877</ele>
        <time>2022-09-22T08:51:56Z</time>
      </trkpt>
      <trkpt lat="44.14874" lon="5.84581">
        <ele>877</ele>
        <time>2022-09-22T08:51:57Z</time>
      </trkpt>
      <trkpt lat="44.14874" lon="5.8458">
        <ele>877</ele>
        <time>2022-09-22T08:51:58Z</time>
      </trkpt>
      <trkpt lat="44.14873" lon="5.84579">
        <ele>878</ele>
        <time>2022-09-22T08:51:59Z</time>
      </trkpt>
      <trkpt lat="44.14873" lon="5.84578">
        <ele>878</ele>
        <time>2022-09-22T08:52:00Z</time>
      </trkpt>
      <trkpt lat="44.14871" lon="5.84577">
        <ele>879</ele>
        <time>2022-09-22T08:52:07Z</time>
      </trkpt>
      <trkpt lat="44.1487" lon="5.84577">
        <ele>879</ele>
        <time>2022-09-22T08:52:08Z</time>
      </trkpt>
      <trkpt lat="44.14869" lon="5.84576">
        <ele>879</ele>
        <time>2022-09-22T08:52:09Z</time>
      </trkpt>
      <trkpt lat="44.14868" lon="5.84576">
        <ele>879</ele>
        <time>2022-09-22T08:52:10Z</time>
      </trkpt>
      <trkpt lat="44.14868" lon="5.84575">
        <ele>879</ele>
        <time>2022-09-22T08:52:11Z</time>
      </trkpt>
      <trkpt lat="44.14867" lon="5.84575">
        <ele>879</ele>
        <time>2022-09-22T08:52:12Z</time>
      </trkpt>
      <trkpt lat="44.14867" lon="5.84574">
        <ele>879</ele>
        <time>2022-09-22T08:52:13Z</time>
      </trkpt>
      <trkpt lat="44.14867" lon="5.84574">
        <ele>880</ele>
        <time>2022-09-22T08:52:14Z</time>
      </trkpt>
      <trkpt lat="44.14866" lon="5.84573">
        <ele>880</ele>
        <time>2022-09-22T08:52:15Z</time>
      </trkpt>
      <trkpt lat="44.14865" lon="5.84573">
        <ele>880</ele>
        <time>2022-09-22T08:52:16Z</time>
      </trkpt>
      <trkpt lat="44.14865" lon="5.84572">
        <ele>880</ele>
        <time>2022-09-22T08:52:17Z</time>
      </trkpt>
      <trkpt lat="44.14864" lon="5.84571">
        <ele>880</ele>
        <time>2022-09-22T08:52:18Z</time>
      </trkpt>
      <trkpt lat="44.14864" lon="5.84571">
        <ele>881</ele>
        <time>2022-09-22T08:52:19Z</time>
      </trkpt>
      <trkpt lat="44.14864" lon="5.8457">
        <ele>881</ele>
        <time>2022-09-22T08:52:20Z</time>
      </trkpt>
      <trkpt lat="44.14863" lon="5.84569">
        <ele>881</ele>
        <time>2022-09-22T08:52:21Z</time>
      </trkpt>
      <trkpt lat="44.14863" lon="5.84568">
        <ele>881</ele>
        <time>2022-09-22T08:52:22Z</time>
      </trkpt>
      <trkpt lat="44.14862" lon="5.84568">
        <ele>881</ele>
        <time>2022-09-22T08:52:23Z</time>
      </trkpt>
      <trkpt lat="44.14862" lon="5.84567">
        <ele>881</ele>
        <time>2022-09-22T08:52:24Z</time>
      </trkpt>
      <trkpt lat="44.14861" lon="5.84567">
        <ele>881</ele>
        <time>2022-09-22T08:52:25Z</time>
      </trkpt>
      <trkpt lat="44.1486" lon="5.84567">
        <ele>881</ele>
        <time>2022-09-22T08:52:26Z</time>
      </trkpt>
      <trkpt lat="44.14859" lon="5.84566">
        <ele>881</ele>
        <time>2022-09-22T08:52:27Z</time>
      </trkpt>
      <trkpt lat="44.14858" lon="5.84566">
        <ele>881</ele>
        <time>2022-09-22T08:52:28Z</time>
      </trkpt>
      <trkpt lat="44.14858" lon="5.84566">
        <ele>882</ele>
        <time>2022-09-22T08:52:29Z</time>
      </trkpt>
      <trkpt lat="44.14857" lon="5.84565">
        <ele>882</ele>
        <time>2022-09-22T08:52:30Z</time>
      </trkpt>
      <trkpt lat="44.14856" lon="5.84565">
        <ele>882</ele>
        <time>2022-09-22T08:52:31Z</time>
      </trkpt>
      <trkpt lat="44.14855" lon="5.84564">
        <ele>882</ele>
        <time>2022-09-22T08:52:32Z</time>
      </trkpt>
      <trkpt lat="44.14855" lon="5.84564">
        <ele>882</ele>
        <time>2022-09-22T08:52:33Z</time>
      </trkpt>
      <trkpt lat="44.14854" lon="5.84563">
        <ele>883</ele>
        <time>2022-09-22T08:52:34Z</time>
      </trkpt>
      <trkpt lat="44.14853" lon="5.84562">
        <ele>883</ele>
        <time>2022-09-22T08:52:35Z</time>
      </trkpt>
      <trkpt lat="44.14853" lon="5.84562">
        <ele>883</ele>
        <time>2022-09-22T08:52:36Z</time>
      </trkpt>
      <trkpt lat="44.14852" lon="5.84561">
        <ele>884</ele>
        <time>2022-09-22T08:52:37Z</time>
      </trkpt>
      <trkpt lat="44.14851" lon="5.8456">
        <ele>884</ele>
        <time>2022-09-22T08:52:38Z</time>
      </trkpt>
      <trkpt lat="44.14851" lon="5.84559">
        <ele>885</ele>
        <time>2022-09-22T08:52:39Z</time>
      </trkpt>
      <trkpt lat="44.1485" lon="5.84559">
        <ele>885</ele>
        <time>2022-09-22T08:52:40Z</time>
      </trkpt>
      <trkpt lat="44.1485" lon="5.84558">
        <ele>885</ele>
        <time>2022-09-22T08:52:41Z</time>
      </trkpt>
      <trkpt lat="44.14849" lon="5.84557">
        <ele>885</ele>
        <time>2022-09-22T08:52:42Z</time>
      </trkpt>
      <trkpt lat="44.14848" lon="5.84557">
        <ele>885</ele>
        <time>2022-09-22T08:52:43Z</time>
      </trkpt>
      <trkpt lat="44.14848" lon="5.84556">
        <ele>885</ele>
        <time>2022-09-22T08:52:44Z</time>
      </trkpt>
      <trkpt lat="44.14847" lon="5.84556">
        <ele>884</ele>
        <time>2022-09-22T08:52:45Z</time>
      </trkpt>
      <trkpt lat="44.14846" lon="5.84555">
        <ele>884</ele>
        <time>2022-09-22T08:52:46Z</time>
      </trkpt>
      <trkpt lat="44.14846" lon="5.84554">
        <ele>884</ele>
        <time>2022-09-22T08:52:47Z</time>
      </trkpt>
      <trkpt lat="44.14845" lon="5.84554">
        <ele>884</ele>
        <time>2022-09-22T08:52:48Z</time>
      </trkpt>
      <trkpt lat="44.14845" lon="5.84553">
        <ele>884</ele>
        <time>2022-09-22T08:52:49Z</time>
      </trkpt>
      <trkpt lat="44.14844" lon="5.84552">
        <ele>884</ele>
        <time>2022-09-22T08:52:50Z</time>
      </trkpt>
      <trkpt lat="44.14843" lon="5.84551">
        <ele>884</ele>
        <time>2022-09-22T08:52:51Z</time>
      </trkpt>
      <trkpt lat="44.14843" lon="5.8455">
        <ele>884</ele>
        <time>2022-09-22T08:52:52Z</time>
      </trkpt>
      <trkpt lat="44.14842" lon="5.8455">
        <ele>884</ele>
        <time>2022-09-22T08:52:53Z</time>
      </trkpt>
      <trkpt lat="44.14841" lon="5.84549">
        <ele>885</ele>
        <time>2022-09-22T08:52:54Z</time>
      </trkpt>
      <trkpt lat="44.14841" lon="5.84548">
        <ele>885</ele>
        <time>2022-09-22T08:52:55Z</time>
      </trkpt>
      <trkpt lat="44.1484" lon="5.84547">
        <ele>885</ele>
        <time>2022-09-22T08:52:56Z</time>
      </trkpt>
      <trkpt lat="44.14839" lon="5.84547">
        <ele>885</ele>
        <time>2022-09-22T08:52:57Z</time>
      </trkpt>
      <trkpt lat="44.14838" lon="5.84546">
        <ele>885</ele>
        <time>2022-09-22T08:52:58Z</time>
      </trkpt>
      <trkpt lat="44.14837" lon="5.84546">
        <ele>885</ele>
        <time>2022-09-22T08:52:59Z</time>
      </trkpt>
      <trkpt lat="44.14837" lon="5.84545">
        <ele>885</ele>
        <time>2022-09-22T08:53:00Z</time>
      </trkpt>
      <trkpt lat="44.14836" lon="5.84545">
        <ele>885</ele>
        <time>2022-09-22T08:53:01Z</time>
      </trkpt>
      <trkpt lat="44.14835" lon="5.84544">
        <ele>886</ele>
        <time>2022-09-22T08:53:02Z</time>
      </trkpt>
      <trkpt lat="44.14835" lon="5.84544">
        <ele>886</ele>
        <time>2022-09-22T08:53:03Z</time>
      </trkpt>
      <trkpt lat="44.14834" lon="5.84543">
        <ele>887</ele>
        <time>2022-09-22T08:53:04Z</time>
      </trkpt>
      <trkpt lat="44.14833" lon="5.84543">
        <ele>887</ele>
        <time>2022-09-22T08:53:05Z</time>
      </trkpt>
      <trkpt lat="44.14833" lon="5.84542">
        <ele>887</ele>
        <time>2022-09-22T08:53:06Z</time>
      </trkpt>
      <trkpt lat="44.14832" lon="5.84542">
        <ele>887</ele>
        <time>2022-09-22T08:53:07Z</time>
      </trkpt>
      <trkpt lat="44.14831" lon="5.84541">
        <ele>887</ele>
        <time>2022-09-22T08:53:08Z</time>
      </trkpt>
      <trkpt lat="44.14831" lon="5.84541">
        <ele>888</ele>
        <time>2022-09-22T08:53:09Z</time>
      </trkpt>
      <trkpt lat="44.1483" lon="5.8454">
        <ele>888</ele>
        <time>2022-09-22T08:53:10Z</time>
      </trkpt>
      <trkpt lat="44.1483" lon="5.8454">
        <ele>888</ele>
        <time>2022-09-22T08:53:11Z</time>
      </trkpt>
      <trkpt lat="44.14829" lon="5.84539">
        <ele>888</ele>
        <time>2022-09-22T08:53:12Z</time>
      </trkpt>
      <trkpt lat="44.14828" lon="5.84539">
        <ele>888</ele>
        <time>2022-09-22T08:53:13Z</time>
      </trkpt>
      <trkpt lat="44.14828" lon="5.84539">
        <ele>888</ele>
        <time>2022-09-22T08:53:14Z</time>
      </trkpt>
      <trkpt lat="44.14827" lon="5.84539">
        <ele>888</ele>
        <time>2022-09-22T08:53:15Z</time>
      </trkpt>
      <trkpt lat="44.14826" lon="5.84538">
        <ele>888</ele>
        <time>2022-09-22T08:53:16Z</time>
      </trkpt>
      <trkpt lat="44.14825" lon="5.84538">
        <ele>888</ele>
        <time>2022-09-22T08:53:17Z</time>
      </trkpt>
      <trkpt lat="44.14825" lon="5.84538">
        <ele>888</ele>
        <time>2022-09-22T08:53:18Z</time>
      </trkpt>
      <trkpt lat="44.14824" lon="5.84538">
        <ele>889</ele>
        <time>2022-09-22T08:53:19Z</time>
      </trkpt>
      <trkpt lat="44.14823" lon="5.84538">
        <ele>889</ele>
        <time>2022-09-22T08:53:20Z</time>
      </trkpt>
      <trkpt lat="44.14822" lon="5.84538">
        <ele>889</ele>
        <time>2022-09-22T08:53:21Z</time>
      </trkpt>
      <trkpt lat="44.14822" lon="5.84537">
        <ele>889</ele>
        <time>2022-09-22T08:53:22Z</time>
      </trkpt>
      <trkpt lat="44.14821" lon="5.84537">
        <ele>889</ele>
        <time>2022-09-22T08:53:23Z</time>
      </trkpt>
      <trkpt lat="44.1482" lon="5.84537">
        <ele>889</ele>
        <time>2022-09-22T08:53:24Z</time>
      </trkpt>
      <trkpt lat="44.14819" lon="5.84537">
        <ele>889</ele>
        <time>2022-09-22T08:53:25Z</time>
      </trkpt>
      <trkpt lat="44.14818" lon="5.84537">
        <ele>889</ele>
        <time>2022-09-22T08:53:26Z</time>
      </trkpt>
      <trkpt lat="44.14818" lon="5.84536">
        <ele>889</ele>
        <time>2022-09-22T08:53:27Z</time>
      </trkpt>
      <trkpt lat="44.14817" lon="5.84536">
        <ele>889</ele>
        <time>2022-09-22T08:53:28Z</time>
      </trkpt>
      <trkpt lat="44.14816" lon="5.84535">
        <ele>890</ele>
        <time>2022-09-22T08:53:29Z</time>
      </trkpt>
      <trkpt lat="44.14816" lon="5.84535">
        <ele>890</ele>
        <time>2022-09-22T08:53:30Z</time>
      </trkpt>
      <trkpt lat="44.14815" lon="5.84534">
        <ele>890</ele>
        <time>2022-09-22T08:53:31Z</time>
      </trkpt>
      <trkpt lat="44.14814" lon="5.84534">
        <ele>890</ele>
        <time>2022-09-22T08:53:32Z</time>
      </trkpt>
      <trkpt lat="44.14813" lon="5.84533">
        <ele>890</ele>
        <time>2022-09-22T08:53:33Z</time>
      </trkpt>
      <trkpt lat="44.14812" lon="5.84533">
        <ele>890</ele>
        <time>2022-09-22T08:53:34Z</time>
      </trkpt>
      <trkpt lat="44.14812" lon="5.84532">
        <ele>890</ele>
        <time>2022-09-22T08:53:35Z</time>
      </trkpt>
      <trkpt lat="44.14811" lon="5.84532">
        <ele>890</ele>
        <time>2022-09-22T08:53:36Z</time>
      </trkpt>
      <trkpt lat="44.14811" lon="5.84532">
        <ele>890</ele>
        <time>2022-09-22T08:53:37Z</time>
      </trkpt>
      <trkpt lat="44.1481" lon="5.84532">
        <ele>890</ele>
        <time>2022-09-22T08:53:38Z</time>
      </trkpt>
      <trkpt lat="44.1481" lon="5.84531">
        <ele>891</ele>
        <time>2022-09-22T08:53:39Z</time>
      </trkpt>
      <trkpt lat="44.14809" lon="5.84531">
        <ele>891</ele>
        <time>2022-09-22T08:53:40Z</time>
      </trkpt>
      <trkpt lat="44.14808" lon="5.84531">
        <ele>891</ele>
        <time>2022-09-22T08:53:41Z</time>
      </trkpt>
      <trkpt lat="44.14807" lon="5.84531">
        <ele>891</ele>
        <time>2022-09-22T08:53:42Z</time>
      </trkpt>
      <trkpt lat="44.14807" lon="5.8453">
        <ele>891</ele>
        <time>2022-09-22T08:53:43Z</time>
      </trkpt>
      <trkpt lat="44.14806" lon="5.8453">
        <ele>891</ele>
        <time>2022-09-22T08:53:44Z</time>
      </trkpt>
      <trkpt lat="44.14805" lon="5.8453">
        <ele>891</ele>
        <time>2022-09-22T08:53:45Z</time>
      </trkpt>
      <trkpt lat="44.14804" lon="5.8453">
        <ele>891</ele>
        <time>2022-09-22T08:53:46Z</time>
      </trkpt>
      <trkpt lat="44.14803" lon="5.84529">
        <ele>891</ele>
        <time>2022-09-22T08:53:47Z</time>
      </trkpt>
      <trkpt lat="44.14802" lon="5.84529">
        <ele>891</ele>
        <time>2022-09-22T08:53:48Z</time>
      </trkpt>
      <trkpt lat="44.14802" lon="5.84529">
        <ele>892</ele>
        <time>2022-09-22T08:53:49Z</time>
      </trkpt>
      <trkpt lat="44.14801" lon="5.84528">
        <ele>892</ele>
        <time>2022-09-22T08:53:50Z</time>
      </trkpt>
      <trkpt lat="44.148" lon="5.84528">
        <ele>892</ele>
        <time>2022-09-22T08:53:51Z</time>
      </trkpt>
      <trkpt lat="44.148" lon="5.84528">
        <ele>892</ele>
        <time>2022-09-22T08:53:52Z</time>
      </trkpt>
      <trkpt lat="44.14799" lon="5.84527">
        <ele>892</ele>
        <time>2022-09-22T08:53:53Z</time>
      </trkpt>
      <trkpt lat="44.14799" lon="5.84527">
        <ele>892</ele>
        <time>2022-09-22T08:53:54Z</time>
      </trkpt>
      <trkpt lat="44.14798" lon="5.84526">
        <ele>892</ele>
        <time>2022-09-22T08:53:55Z</time>
      </trkpt>
      <trkpt lat="44.14798" lon="5.84526">
        <ele>892</ele>
        <time>2022-09-22T08:53:56Z</time>
      </trkpt>
      <trkpt lat="44.14797" lon="5.84526">
        <ele>892</ele>
        <time>2022-09-22T08:53:57Z</time>
      </trkpt>
      <trkpt lat="44.14796" lon="5.84525">
        <ele>892</ele>
        <time>2022-09-22T08:53:58Z</time>
      </trkpt>
      <trkpt lat="44.14796" lon="5.84525">
        <ele>893</ele>
        <time>2022-09-22T08:53:59Z</time>
      </trkpt>
      <trkpt lat="44.14795" lon="5.84525">
        <ele>893</ele>
        <time>2022-09-22T08:54:00Z</time>
      </trkpt>
      <trkpt lat="44.14795" lon="5.84524">
        <ele>893</ele>
        <time>2022-09-22T08:54:01Z</time>
      </trkpt>
      <trkpt lat="44.14794" lon="5.84524">
        <ele>893</ele>
        <time>2022-09-22T08:54:02Z</time>
      </trkpt>
      <trkpt lat="44.14794" lon="5.84523">
        <ele>893</ele>
        <time>2022-09-22T08:54:03Z</time>
      </trkpt>
      <trkpt lat="44.14793" lon="5.84523">
        <ele>893</ele>
        <time>2022-09-22T08:54:04Z</time>
      </trkpt>
      <trkpt lat="44.14793" lon="5.84522">
        <ele>893</ele>
        <time>2022-09-22T08:54:05Z</time>
      </trkpt>
      <trkpt lat="44.14792" lon="5.84521">
        <ele>893</ele>
        <time>2022-09-22T08:54:06Z</time>
      </trkpt>
      <trkpt lat="44.14791" lon="5.84521">
        <ele>893</ele>
        <time>2022-09-22T08:54:07Z</time>
      </trkpt>
      <trkpt lat="44.14791" lon="5.8452">
        <ele>893</ele>
        <time>2022-09-22T08:54:08Z</time>
      </trkpt>
      <trkpt lat="44.1479" lon="5.8452">
        <ele>894</ele>
        <time>2022-09-22T08:54:09Z</time>
      </trkpt>
      <trkpt lat="44.1479" lon="5.84519">
        <ele>894</ele>
        <time>2022-09-22T08:54:10Z</time>
      </trkpt>
      <trkpt lat="44.14789" lon="5.84518">
        <ele>894</ele>
        <time>2022-09-22T08:54:11Z</time>
      </trkpt>
      <trkpt lat="44.14788" lon="5.84518">
        <ele>894</ele>
        <time>2022-09-22T08:54:12Z</time>
      </trkpt>
      <trkpt lat="44.14788" lon="5.84517">
        <ele>894</ele>
        <time>2022-09-22T08:54:13Z</time>
      </trkpt>
      <trkpt lat="44.14787" lon="5.84517">
        <ele>894</ele>
        <time>2022-09-22T08:54:14Z</time>
      </trkpt>
      <trkpt lat="44.14786" lon="5.84516">
        <ele>894</ele>
        <time>2022-09-22T08:54:15Z</time>
      </trkpt>
      <trkpt lat="44.14786" lon="5.84516">
        <ele>894</ele>
        <time>2022-09-22T08:54:16Z</time>
      </trkpt>
      <trkpt lat="44.14785" lon="5.84515">
        <ele>894</ele>
        <time>2022-09-22T08:54:17Z</time>
      </trkpt>
      <trkpt lat="44.14784" lon="5.84515">
        <ele>894</ele>
        <time>2022-09-22T08:54:18Z</time>
      </trkpt>
      <trkpt lat="44.14784" lon="5.84515">
        <ele>894</ele>
        <time>2022-09-22T08:54:19Z</time>
      </trkpt>
      <trkpt lat="44.14783" lon="5.84514">
        <ele>894</ele>
        <time>2022-09-22T08:54:20Z</time>
      </trkpt>
      <trkpt lat="44.14782" lon="5.84514">
        <ele>894</ele>
        <time>2022-09-22T08:54:21Z</time>
      </trkpt>
      <trkpt lat="44.14781" lon="5.84514">
        <ele>894</ele>
        <time>2022-09-22T08:54:22Z</time>
      </trkpt>
      <trkpt lat="44.14781" lon="5.84513">
        <ele>894</ele>
        <time>2022-09-22T08:54:23Z</time>
      </trkpt>
      <trkpt lat="44.1478" lon="5.84513">
        <ele>895</ele>
        <time>2022-09-22T08:54:24Z</time>
      </trkpt>
      <trkpt lat="44.1478" lon="5.84512">
        <ele>895</ele>
        <time>2022-09-22T08:54:25Z</time>
      </trkpt>
      <trkpt lat="44.14779" lon="5.84512">
        <ele>895</ele>
        <time>2022-09-22T08:54:26Z</time>
      </trkpt>
      <trkpt lat="44.14778" lon="5.84511">
        <ele>895</ele>
        <time>2022-09-22T08:54:27Z</time>
      </trkpt>
      <trkpt lat="44.14777" lon="5.84511">
        <ele>895</ele>
        <time>2022-09-22T08:54:28Z</time>
      </trkpt>
      <trkpt lat="44.14777" lon="5.8451">
        <ele>895</ele>
        <time>2022-09-22T08:54:29Z</time>
      </trkpt>
      <trkpt lat="44.14776" lon="5.8451">
        <ele>895</ele>
        <time>2022-09-22T08:54:30Z</time>
      </trkpt>
      <trkpt lat="44.14775" lon="5.84509">
        <ele>895</ele>
        <time>2022-09-22T08:54:31Z</time>
      </trkpt>
      <trkpt lat="44.14775" lon="5.84509">
        <ele>895</ele>
        <time>2022-09-22T08:54:32Z</time>
      </trkpt>
      <trkpt lat="44.14774" lon="5.84509">
        <ele>895</ele>
        <time>2022-09-22T08:54:33Z</time>
      </trkpt>
      <trkpt lat="44.14773" lon="5.84508">
        <ele>896</ele>
        <time>2022-09-22T08:54:34Z</time>
      </trkpt>
      <trkpt lat="44.14773" lon="5.84508">
        <ele>896</ele>
        <time>2022-09-22T08:54:35Z</time>
      </trkpt>
      <trkpt lat="44.14772" lon="5.84507">
        <ele>896</ele>
        <time>2022-09-22T08:54:36Z</time>
      </trkpt>
      <trkpt lat="44.14771" lon="5.84507">
        <ele>896</ele>
        <time>2022-09-22T08:54:37Z</time>
      </trkpt>
      <trkpt lat="44.14771" lon="5.84506">
        <ele>896</ele>
        <time>2022-09-22T08:54:38Z</time>
      </trkpt>
      <trkpt lat="44.1477" lon="5.84506">
        <ele>896</ele>
        <time>2022-09-22T08:54:39Z</time>
      </trkpt>
      <trkpt lat="44.14769" lon="5.84505">
        <ele>896</ele>
        <time>2022-09-22T08:54:40Z</time>
      </trkpt>
      <trkpt lat="44.14768" lon="5.84505">
        <ele>896</ele>
        <time>2022-09-22T08:54:41Z</time>
      </trkpt>
      <trkpt lat="44.14767" lon="5.84504">
        <ele>896</ele>
        <time>2022-09-22T08:54:42Z</time>
      </trkpt>
      <trkpt lat="44.14766" lon="5.84504">
        <ele>896</ele>
        <time>2022-09-22T08:54:43Z</time>
      </trkpt>
      <trkpt lat="44.14766" lon="5.84503">
        <ele>896</ele>
        <time>2022-09-22T08:54:44Z</time>
      </trkpt>
      <trkpt lat="44.14765" lon="5.84503">
        <ele>896</ele>
        <time>2022-09-22T08:54:45Z</time>
      </trkpt>
      <trkpt lat="44.14764" lon="5.84502">
        <ele>896</ele>
        <time>2022-09-22T08:54:46Z</time>
      </trkpt>
      <trkpt lat="44.14763" lon="5.84501">
        <ele>896</ele>
        <time>2022-09-22T08:54:47Z</time>
      </trkpt>
      <trkpt lat="44.14763" lon="5.845">
        <ele>896</ele>
        <time>2022-09-22T08:54:48Z</time>
      </trkpt>
      <trkpt lat="44.14762" lon="5.845">
        <ele>896</ele>
        <time>2022-09-22T08:54:49Z</time>
      </trkpt>
      <trkpt lat="44.14761" lon="5.84499">
        <ele>896</ele>
        <time>2022-09-22T08:54:50Z</time>
      </trkpt>
      <trkpt lat="44.14761" lon="5.84498">
        <ele>896</ele>
        <time>2022-09-22T08:54:51Z</time>
      </trkpt>
      <trkpt lat="44.1476" lon="5.84497">
        <ele>896</ele>
        <time>2022-09-22T08:54:52Z</time>
      </trkpt>
      <trkpt lat="44.14759" lon="5.84497">
        <ele>896</ele>
        <time>2022-09-22T08:54:53Z</time>
      </trkpt>
      <trkpt lat="44.14758" lon="5.84496">
        <ele>897</ele>
        <time>2022-09-22T08:54:54Z</time>
      </trkpt>
      <trkpt lat="44.14758" lon="5.84496">
        <ele>897</ele>
        <time>2022-09-22T08:54:55Z</time>
      </trkpt>
      <trkpt lat="44.14757" lon="5.84495">
        <ele>897</ele>
        <time>2022-09-22T08:54:56Z</time>
      </trkpt>
      <trkpt lat="44.14757" lon="5.84495">
        <ele>897</ele>
        <time>2022-09-22T08:54:57Z</time>
      </trkpt>
      <trkpt lat="44.14756" lon="5.84495">
        <ele>897</ele>
        <time>2022-09-22T08:54:58Z</time>
      </trkpt>
      <trkpt lat="44.14756" lon="5.84494">
        <ele>897</ele>
        <time>2022-09-22T08:54:59Z</time>
      </trkpt>
      <trkpt lat="44.14755" lon="5.84494">
        <ele>897</ele>
        <time>2022-09-22T08:55:00Z</time>
      </trkpt>
      <trkpt lat="44.14754" lon="5.84494">
        <ele>897</ele>
        <time>2022-09-22T08:55:01Z</time>
      </trkpt>
      <trkpt lat="44.14754" lon="5.84493">
        <ele>897</ele>
        <time>2022-09-22T08:55:02Z</time>
      </trkpt>
      <trkpt lat="44.14753" lon="5.84493">
        <ele>897</ele>
        <time>2022-09-22T08:55:03Z</time>
      </trkpt>
      <trkpt lat="44.14752" lon="5.84493">
        <ele>897</ele>
        <time>2022-09-22T08:55:04Z</time>
      </trkpt>
      <trkpt lat="44.14751" lon="5.84492">
        <ele>897</ele>
        <time>2022-09-22T08:55:05Z</time>
      </trkpt>
      <trkpt lat="44.1475" lon="5.84492">
        <ele>897</ele>
        <time>2022-09-22T08:55:06Z</time>
      </trkpt>
      <trkpt lat="44.14749" lon="5.84492">
        <ele>897</ele>
        <time>2022-09-22T08:55:07Z</time>
      </trkpt>
      <trkpt lat="44.14748" lon="5.84491">
        <ele>897</ele>
        <time>2022-09-22T08:55:08Z</time>
      </trkpt>
      <trkpt lat="44.14748" lon="5.84491">
        <ele>897</ele>
        <time>2022-09-22T08:55:09Z</time>
      </trkpt>
      <trkpt lat="44.14747" lon="5.8449">
        <ele>897</ele>
        <time>2022-09-22T08:55:10Z</time>
      </trkpt>
      <trkpt lat="44.14746" lon="5.8449">
        <ele>897</ele>
        <time>2022-09-22T08:55:11Z</time>
      </trkpt>
      <trkpt lat="44.14745" lon="5.84489">
        <ele>897</ele>
        <time>2022-09-22T08:55:12Z</time>
      </trkpt>
      <trkpt lat="44.14745" lon="5.84489">
        <ele>897</ele>
        <time>2022-09-22T08:55:13Z</time>
      </trkpt>
      <trkpt lat="44.14744" lon="5.84488">
        <ele>898</ele>
        <time>2022-09-22T08:55:14Z</time>
      </trkpt>
      <trkpt lat="44.14743" lon="5.84488">
        <ele>898</ele>
        <time>2022-09-22T08:55:15Z</time>
      </trkpt>
      <trkpt lat="44.14742" lon="5.84487">
        <ele>898</ele>
        <time>2022-09-22T08:55:16Z</time>
      </trkpt>
      <trkpt lat="44.14742" lon="5.84486">
        <ele>898</ele>
        <time>2022-09-22T08:55:17Z</time>
      </trkpt>
      <trkpt lat="44.14741" lon="5.84486">
        <ele>898</ele>
        <time>2022-09-22T08:55:18Z</time>
      </trkpt>
      <trkpt lat="44.1474" lon="5.84485">
        <ele>898</ele>
        <time>2022-09-22T08:55:19Z</time>
      </trkpt>
      <trkpt lat="44.14739" lon="5.84485">
        <ele>898</ele>
        <time>2022-09-22T08:55:20Z</time>
      </trkpt>
      <trkpt lat="44.14738" lon="5.84484">
        <ele>898</ele>
        <time>2022-09-22T08:55:21Z</time>
      </trkpt>
      <trkpt lat="44.14737" lon="5.84483">
        <ele>898</ele>
        <time>2022-09-22T08:55:22Z</time>
      </trkpt>
      <trkpt lat="44.14737" lon="5.84483">
        <ele>898</ele>
        <time>2022-09-22T08:55:23Z</time>
      </trkpt>
      <trkpt lat="44.14736" lon="5.84482">
        <ele>898</ele>
        <time>2022-09-22T08:55:24Z</time>
      </trkpt>
      <trkpt lat="44.14735" lon="5.84481">
        <ele>898</ele>
        <time>2022-09-22T08:55:25Z</time>
      </trkpt>
      <trkpt lat="44.14735" lon="5.84481">
        <ele>898</ele>
        <time>2022-09-22T08:55:26Z</time>
      </trkpt>
      <trkpt lat="44.14734" lon="5.8448">
        <ele>898</ele>
        <time>2022-09-22T08:55:27Z</time>
      </trkpt>
      <trkpt lat="44.14733" lon="5.84478">
        <ele>898</ele>
        <time>2022-09-22T08:55:33Z</time>
      </trkpt>
      <trkpt lat="44.14733" lon="5.84477">
        <ele>898</ele>
        <time>2022-09-22T08:55:34Z</time>
      </trkpt>
      <trkpt lat="44.14732" lon="5.84477">
        <ele>898</ele>
        <time>2022-09-22T08:55:35Z</time>
      </trkpt>
      <trkpt lat="44.14732" lon="5.84476">
        <ele>898</ele>
        <time>2022-09-22T08:55:36Z</time>
      </trkpt>
      <trkpt lat="44.14732" lon="5.84475">
        <ele>898</ele>
        <time>2022-09-22T08:55:37Z</time>
      </trkpt>
      <trkpt lat="44.14732" lon="5.84475">
        <ele>898</ele>
        <time>2022-09-22T08:55:38Z</time>
      </trkpt>
      <trkpt lat="44.14732" lon="5.84474">
        <ele>899</ele>
        <time>2022-09-22T08:55:39Z</time>
      </trkpt>
      <trkpt lat="44.14732" lon="5.84473">
        <ele>899</ele>
        <time>2022-09-22T08:55:40Z</time>
      </trkpt>
      <trkpt lat="44.14731" lon="5.84473">
        <ele>899</ele>
        <time>2022-09-22T08:55:41Z</time>
      </trkpt>
      <trkpt lat="44.14731" lon="5.84472">
        <ele>899</ele>
        <time>2022-09-22T08:55:42Z</time>
      </trkpt>
      <trkpt lat="44.1473" lon="5.84471">
        <ele>899</ele>
        <time>2022-09-22T08:55:43Z</time>
      </trkpt>
      <trkpt lat="44.1473" lon="5.8447">
        <ele>899</ele>
        <time>2022-09-22T08:55:44Z</time>
      </trkpt>
      <trkpt lat="44.14729" lon="5.84469">
        <ele>899</ele>
        <time>2022-09-22T08:55:45Z</time>
      </trkpt>
      <trkpt lat="44.14729" lon="5.84468">
        <ele>899</ele>
        <time>2022-09-22T08:55:46Z</time>
      </trkpt>
      <trkpt lat="44.14728" lon="5.84467">
        <ele>899</ele>
        <time>2022-09-22T08:55:47Z</time>
      </trkpt>
      <trkpt lat="44.14727" lon="5.84467">
        <ele>899</ele>
        <time>2022-09-22T08:55:48Z</time>
      </trkpt>
      <trkpt lat="44.14727" lon="5.84466">
        <ele>899</ele>
        <time>2022-09-22T08:55:49Z</time>
      </trkpt>
      <trkpt lat="44.14726" lon="5.84466">
        <ele>899</ele>
        <time>2022-09-22T08:55:50Z</time>
      </trkpt>
      <trkpt lat="44.14726" lon="5.84465">
        <ele>899</ele>
        <time>2022-09-22T08:55:51Z</time>
      </trkpt>
      <trkpt lat="44.14725" lon="5.84464">
        <ele>899</ele>
        <time>2022-09-22T08:55:52Z</time>
      </trkpt>
      <trkpt lat="44.14725" lon="5.84464">
        <ele>899</ele>
        <time>2022-09-22T08:55:53Z</time>
      </trkpt>
      <trkpt lat="44.14724" lon="5.84463">
        <ele>900</ele>
        <time>2022-09-22T08:55:54Z</time>
      </trkpt>
      <trkpt lat="44.14724" lon="5.84462">
        <ele>900</ele>
        <time>2022-09-22T08:55:55Z</time>
      </trkpt>
      <trkpt lat="44.14724" lon="5.84461">
        <ele>900</ele>
        <time>2022-09-22T08:55:56Z</time>
      </trkpt>
      <trkpt lat="44.14723" lon="5.84461">
        <ele>900</ele>
        <time>2022-09-22T08:55:57Z</time>
      </trkpt>
      <trkpt lat="44.14722" lon="5.8446">
        <ele>900</ele>
        <time>2022-09-22T08:55:58Z</time>
      </trkpt>
      <trkpt lat="44.14722" lon="5.84459">
        <ele>901</ele>
        <time>2022-09-22T08:55:59Z</time>
      </trkpt>
      <trkpt lat="44.14721" lon="5.84458">
        <ele>901</ele>
        <time>2022-09-22T08:56:00Z</time>
      </trkpt>
      <trkpt lat="44.14721" lon="5.84457">
        <ele>901</ele>
        <time>2022-09-22T08:56:01Z</time>
      </trkpt>
      <trkpt lat="44.1472" lon="5.84456">
        <ele>901</ele>
        <time>2022-09-22T08:56:02Z</time>
      </trkpt>
      <trkpt lat="44.14719" lon="5.84455">
        <ele>901</ele>
        <time>2022-09-22T08:56:03Z</time>
      </trkpt>
      <trkpt lat="44.14719" lon="5.84455">
        <ele>901</ele>
        <time>2022-09-22T08:56:04Z</time>
      </trkpt>
      <trkpt lat="44.14718" lon="5.84455">
        <ele>901</ele>
        <time>2022-09-22T08:56:05Z</time>
      </trkpt>
      <trkpt lat="44.14717" lon="5.84454">
        <ele>901</ele>
        <time>2022-09-22T08:56:06Z</time>
      </trkpt>
      <trkpt lat="44.14717" lon="5.84453">
        <ele>901</ele>
        <time>2022-09-22T08:56:07Z</time>
      </trkpt>
      <trkpt lat="44.14716" lon="5.84453">
        <ele>901</ele>
        <time>2022-09-22T08:56:08Z</time>
      </trkpt>
      <trkpt lat="44.14716" lon="5.84452">
        <ele>902</ele>
        <time>2022-09-22T08:56:09Z</time>
      </trkpt>
      <trkpt lat="44.14716" lon="5.84451">
        <ele>902</ele>
        <time>2022-09-22T08:56:10Z</time>
      </trkpt>
      <trkpt lat="44.14715" lon="5.8445">
        <ele>902</ele>
        <time>2022-09-22T08:56:11Z</time>
      </trkpt>
      <trkpt lat="44.14715" lon="5.84449">
        <ele>902</ele>
        <time>2022-09-22T08:56:12Z</time>
      </trkpt>
      <trkpt lat="44.14714" lon="5.84449">
        <ele>902</ele>
        <time>2022-09-22T08:56:13Z</time>
      </trkpt>
      <trkpt lat="44.14714" lon="5.84448">
        <ele>902</ele>
        <time>2022-09-22T08:56:14Z</time>
      </trkpt>
      <trkpt lat="44.14713" lon="5.84447">
        <ele>902</ele>
        <time>2022-09-22T08:56:15Z</time>
      </trkpt>
      <trkpt lat="44.14713" lon="5.84446">
        <ele>902</ele>
        <time>2022-09-22T08:56:16Z</time>
      </trkpt>
      <trkpt lat="44.14712" lon="5.84445">
        <ele>902</ele>
        <time>2022-09-22T08:56:17Z</time>
      </trkpt>
      <trkpt lat="44.14712" lon="5.84444">
        <ele>902</ele>
        <time>2022-09-22T08:56:18Z</time>
      </trkpt>
      <trkpt lat="44.14712" lon="5.84444">
        <ele>903</ele>
        <time>2022-09-22T08:56:19Z</time>
      </trkpt>
      <trkpt lat="44.14711" lon="5.84443">
        <ele>903</ele>
        <time>2022-09-22T08:56:20Z</time>
      </trkpt>
      <trkpt lat="44.14711" lon="5.84443">
        <ele>903</ele>
        <time>2022-09-22T08:56:21Z</time>
      </trkpt>
      <trkpt lat="44.1471" lon="5.84443">
        <ele>903</ele>
        <time>2022-09-22T08:56:22Z</time>
      </trkpt>
      <trkpt lat="44.1471" lon="5.84442">
        <ele>903</ele>
        <time>2022-09-22T08:56:23Z</time>
      </trkpt>
      <trkpt lat="44.14709" lon="5.84442">
        <ele>903</ele>
        <time>2022-09-22T08:56:24Z</time>
      </trkpt>
      <trkpt lat="44.14708" lon="5.84442">
        <ele>903</ele>
        <time>2022-09-22T08:56:25Z</time>
      </trkpt>
      <trkpt lat="44.14708" lon="5.84441">
        <ele>903</ele>
        <time>2022-09-22T08:56:26Z</time>
      </trkpt>
      <trkpt lat="44.14707" lon="5.84441">
        <ele>903</ele>
        <time>2022-09-22T08:56:27Z</time>
      </trkpt>
      <trkpt lat="44.14706" lon="5.84441">
        <ele>903</ele>
        <time>2022-09-22T08:56:28Z</time>
      </trkpt>
      <trkpt lat="44.14705" lon="5.8444">
        <ele>904</ele>
        <time>2022-09-22T08:56:29Z</time>
      </trkpt>
      <trkpt lat="44.14704" lon="5.8444">
        <ele>904</ele>
        <time>2022-09-22T08:56:30Z</time>
      </trkpt>
      <trkpt lat="44.14704" lon="5.84439">
        <ele>904</ele>
        <time>2022-09-22T08:56:31Z</time>
      </trkpt>
      <trkpt lat="44.14703" lon="5.84439">
        <ele>904</ele>
        <time>2022-09-22T08:56:32Z</time>
      </trkpt>
      <trkpt lat="44.14702" lon="5.84438">
        <ele>904</ele>
        <time>2022-09-22T08:56:33Z</time>
      </trkpt>
      <trkpt lat="44.14702" lon="5.84437">
        <ele>904</ele>
        <time>2022-09-22T08:56:34Z</time>
      </trkpt>
      <trkpt lat="44.14701" lon="5.84436">
        <ele>904</ele>
        <time>2022-09-22T08:56:35Z</time>
      </trkpt>
      <trkpt lat="44.14701" lon="5.84435">
        <ele>904</ele>
        <time>2022-09-22T08:56:36Z</time>
      </trkpt>
      <trkpt lat="44.147" lon="5.84434">
        <ele>904</ele>
        <time>2022-09-22T08:56:37Z</time>
      </trkpt>
      <trkpt lat="44.147" lon="5.84433">
        <ele>904</ele>
        <time>2022-09-22T08:56:38Z</time>
      </trkpt>
      <trkpt lat="44.14699" lon="5.84433">
        <ele>905</ele>
        <time>2022-09-22T08:56:39Z</time>
      </trkpt>
      <trkpt lat="44.14699" lon="5.84432">
        <ele>905</ele>
        <time>2022-09-22T08:56:40Z</time>
      </trkpt>
      <trkpt lat="44.14698" lon="5.84432">
        <ele>905</ele>
        <time>2022-09-22T08:56:41Z</time>
      </trkpt>
      <trkpt lat="44.14697" lon="5.84431">
        <ele>905</ele>
        <time>2022-09-22T08:56:42Z</time>
      </trkpt>
      <trkpt lat="44.14697" lon="5.8443">
        <ele>905</ele>
        <time>2022-09-22T08:56:43Z</time>
      </trkpt>
      <trkpt lat="44.14696" lon="5.8443">
        <ele>905</ele>
        <time>2022-09-22T08:56:44Z</time>
      </trkpt>
      <trkpt lat="44.14695" lon="5.84429">
        <ele>905</ele>
        <time>2022-09-22T08:56:45Z</time>
      </trkpt>
      <trkpt lat="44.14695" lon="5.84428">
        <ele>905</ele>
        <time>2022-09-22T08:56:46Z</time>
      </trkpt>
      <trkpt lat="44.14694" lon="5.84428">
        <ele>905</ele>
        <time>2022-09-22T08:56:47Z</time>
      </trkpt>
      <trkpt lat="44.14693" lon="5.84427">
        <ele>905</ele>
        <time>2022-09-22T08:56:48Z</time>
      </trkpt>
      <trkpt lat="44.14693" lon="5.84427">
        <ele>905</ele>
        <time>2022-09-22T08:56:49Z</time>
      </trkpt>
      <trkpt lat="44.14692" lon="5.84426">
        <ele>905</ele>
        <time>2022-09-22T08:56:50Z</time>
      </trkpt>
      <trkpt lat="44.14691" lon="5.84426">
        <ele>905</ele>
        <time>2022-09-22T08:56:51Z</time>
      </trkpt>
      <trkpt lat="44.1469" lon="5.84425">
        <ele>905</ele>
        <time>2022-09-22T08:56:52Z</time>
      </trkpt>
      <trkpt lat="44.1469" lon="5.84425">
        <ele>905</ele>
        <time>2022-09-22T08:56:53Z</time>
      </trkpt>
      <trkpt lat="44.14689" lon="5.84425">
        <ele>906</ele>
        <time>2022-09-22T08:56:54Z</time>
      </trkpt>
      <trkpt lat="44.14688" lon="5.84424">
        <ele>906</ele>
        <time>2022-09-22T08:56:55Z</time>
      </trkpt>
      <trkpt lat="44.14687" lon="5.84424">
        <ele>906</ele>
        <time>2022-09-22T08:56:56Z</time>
      </trkpt>
      <trkpt lat="44.14687" lon="5.84424">
        <ele>906</ele>
        <time>2022-09-22T08:56:57Z</time>
      </trkpt>
      <trkpt lat="44.14686" lon="5.84423">
        <ele>906</ele>
        <time>2022-09-22T08:56:58Z</time>
      </trkpt>
      <trkpt lat="44.14685" lon="5.84423">
        <ele>906</ele>
        <time>2022-09-22T08:56:59Z</time>
      </trkpt>
      <trkpt lat="44.14685" lon="5.84422">
        <ele>906</ele>
        <time>2022-09-22T08:57:00Z</time>
      </trkpt>
      <trkpt lat="44.14684" lon="5.84422">
        <ele>906</ele>
        <time>2022-09-22T08:57:01Z</time>
      </trkpt>
      <trkpt lat="44.14684" lon="5.84422">
        <ele>906</ele>
        <time>2022-09-22T08:57:02Z</time>
      </trkpt>
      <trkpt lat="44.14683" lon="5.84421">
        <ele>906</ele>
        <time>2022-09-22T08:57:03Z</time>
      </trkpt>
      <trkpt lat="44.14682" lon="5.84421">
        <ele>907</ele>
        <time>2022-09-22T08:57:04Z</time>
      </trkpt>
      <trkpt lat="44.14681" lon="5.84421">
        <ele>907</ele>
        <time>2022-09-22T08:57:05Z</time>
      </trkpt>
      <trkpt lat="44.1468" lon="5.84421">
        <ele>907</ele>
        <time>2022-09-22T08:57:06Z</time>
      </trkpt>
      <trkpt lat="44.14679" lon="5.84421">
        <ele>907</ele>
        <time>2022-09-22T08:57:07Z</time>
      </trkpt>
      <trkpt lat="44.14678" lon="5.8442">
        <ele>907</ele>
        <time>2022-09-22T08:57:08Z</time>
      </trkpt>
      <trkpt lat="44.14677" lon="5.8442">
        <ele>907</ele>
        <time>2022-09-22T08:57:09Z</time>
      </trkpt>
      <trkpt lat="44.14676" lon="5.8442">
        <ele>907</ele>
        <time>2022-09-22T08:57:10Z</time>
      </trkpt>
      <trkpt lat="44.14675" lon="5.8442">
        <ele>907</ele>
        <time>2022-09-22T08:57:11Z</time>
      </trkpt>
      <trkpt lat="44.14674" lon="5.8442">
        <ele>907</ele>
        <time>2022-09-22T08:57:12Z</time>
      </trkpt>
      <trkpt lat="44.14673" lon="5.84419">
        <ele>907</ele>
        <time>2022-09-22T08:57:13Z</time>
      </trkpt>
      <trkpt lat="44.14673" lon="5.84419">
        <ele>908</ele>
        <time>2022-09-22T08:57:14Z</time>
      </trkpt>
      <trkpt lat="44.14672" lon="5.84418">
        <ele>908</ele>
        <time>2022-09-22T08:57:15Z</time>
      </trkpt>
      <trkpt lat="44.14671" lon="5.84418">
        <ele>908</ele>
        <time>2022-09-22T08:57:16Z</time>
      </trkpt>
      <trkpt lat="44.1467" lon="5.84417">
        <ele>908</ele>
        <time>2022-09-22T08:57:17Z</time>
      </trkpt>
      <trkpt lat="44.1467" lon="5.84417">
        <ele>908</ele>
        <time>2022-09-22T08:57:18Z</time>
      </trkpt>
      <trkpt lat="44.14669" lon="5.84416">
        <ele>908</ele>
        <time>2022-09-22T08:57:19Z</time>
      </trkpt>
      <trkpt lat="44.14668" lon="5.84416">
        <ele>908</ele>
        <time>2022-09-22T08:57:20Z</time>
      </trkpt>
      <trkpt lat="44.14667" lon="5.84415">
        <ele>908</ele>
        <time>2022-09-22T08:57:21Z</time>
      </trkpt>
      <trkpt lat="44.14667" lon="5.84414">
        <ele>908</ele>
        <time>2022-09-22T08:57:22Z</time>
      </trkpt>
      <trkpt lat="44.14666" lon="5.84414">
        <ele>908</ele>
        <time>2022-09-22T08:57:23Z</time>
      </trkpt>
      <trkpt lat="44.14666" lon="5.84413">
        <ele>908</ele>
        <time>2022-09-22T08:57:24Z</time>
      </trkpt>
      <trkpt lat="44.14665" lon="5.84412">
        <ele>908</ele>
        <time>2022-09-22T08:57:25Z</time>
      </trkpt>
      <trkpt lat="44.14665" lon="5.84412">
        <ele>908</ele>
        <time>2022-09-22T08:57:26Z</time>
      </trkpt>
      <trkpt lat="44.14664" lon="5.84411">
        <ele>908</ele>
        <time>2022-09-22T08:57:27Z</time>
      </trkpt>
      <trkpt lat="44.14664" lon="5.8441">
        <ele>908</ele>
        <time>2022-09-22T08:57:28Z</time>
      </trkpt>
      <trkpt lat="44.14664" lon="5.8441">
        <ele>909</ele>
        <time>2022-09-22T08:57:29Z</time>
      </trkpt>
      <trkpt lat="44.14663" lon="5.84409">
        <ele>909</ele>
        <time>2022-09-22T08:57:30Z</time>
      </trkpt>
      <trkpt lat="44.14663" lon="5.84408">
        <ele>909</ele>
        <time>2022-09-22T08:57:31Z</time>
      </trkpt>
      <trkpt lat="44.14662" lon="5.84407">
        <ele>909</ele>
        <time>2022-09-22T08:57:32Z</time>
      </trkpt>
      <trkpt lat="44.14662" lon="5.84407">
        <ele>909</ele>
        <time>2022-09-22T08:57:33Z</time>
      </trkpt>
      <trkpt lat="44.14661" lon="5.84406">
        <ele>909</ele>
        <time>2022-09-22T08:57:34Z</time>
      </trkpt>
      <trkpt lat="44.1466" lon="5.84406">
        <ele>909</ele>
        <time>2022-09-22T08:57:35Z</time>
      </trkpt>
      <trkpt lat="44.1466" lon="5.84405">
        <ele>909</ele>
        <time>2022-09-22T08:57:36Z</time>
      </trkpt>
      <trkpt lat="44.14659" lon="5.84405">
        <ele>909</ele>
        <time>2022-09-22T08:57:37Z</time>
      </trkpt>
      <trkpt lat="44.14659" lon="5.84404">
        <ele>909</ele>
        <time>2022-09-22T08:57:38Z</time>
      </trkpt>
      <trkpt lat="44.14658" lon="5.84404">
        <ele>910</ele>
        <time>2022-09-22T08:57:39Z</time>
      </trkpt>
      <trkpt lat="44.14658" lon="5.84403">
        <ele>910</ele>
        <time>2022-09-22T08:57:40Z</time>
      </trkpt>
      <trkpt lat="44.14657" lon="5.84402">
        <ele>910</ele>
        <time>2022-09-22T08:57:41Z</time>
      </trkpt>
      <trkpt lat="44.14657" lon="5.84401">
        <ele>910</ele>
        <time>2022-09-22T08:57:42Z</time>
      </trkpt>
      <trkpt lat="44.14656" lon="5.844">
        <ele>910</ele>
        <time>2022-09-22T08:57:43Z</time>
      </trkpt>
      <trkpt lat="44.14656" lon="5.84399">
        <ele>911</ele>
        <time>2022-09-22T08:57:44Z</time>
      </trkpt>
      <trkpt lat="44.14655" lon="5.84398">
        <ele>911</ele>
        <time>2022-09-22T08:57:45Z</time>
      </trkpt>
      <trkpt lat="44.14655" lon="5.84397">
        <ele>911</ele>
        <time>2022-09-22T08:57:46Z</time>
      </trkpt>
      <trkpt lat="44.14654" lon="5.84397">
        <ele>911</ele>
        <time>2022-09-22T08:57:47Z</time>
      </trkpt>
      <trkpt lat="44.14653" lon="5.84396">
        <ele>911</ele>
        <time>2022-09-22T08:57:48Z</time>
      </trkpt>
      <trkpt lat="44.14652" lon="5.84395">
        <ele>911</ele>
        <time>2022-09-22T08:57:49Z</time>
      </trkpt>
      <trkpt lat="44.14652" lon="5.84395">
        <ele>911</ele>
        <time>2022-09-22T08:57:50Z</time>
      </trkpt>
      <trkpt lat="44.14651" lon="5.84394">
        <ele>911</ele>
        <time>2022-09-22T08:57:51Z</time>
      </trkpt>
      <trkpt lat="44.1465" lon="5.84394">
        <ele>911</ele>
        <time>2022-09-22T08:57:52Z</time>
      </trkpt>
      <trkpt lat="44.14649" lon="5.84393">
        <ele>911</ele>
        <time>2022-09-22T08:57:53Z</time>
      </trkpt>
      <trkpt lat="44.14648" lon="5.84392">
        <ele>911</ele>
        <time>2022-09-22T08:57:54Z</time>
      </trkpt>
      <trkpt lat="44.14647" lon="5.84392">
        <ele>911</ele>
        <time>2022-09-22T08:57:55Z</time>
      </trkpt>
      <trkpt lat="44.14647" lon="5.84391">
        <ele>911</ele>
        <time>2022-09-22T08:57:56Z</time>
      </trkpt>
      <trkpt lat="44.14646" lon="5.8439">
        <ele>911</ele>
        <time>2022-09-22T08:57:57Z</time>
      </trkpt>
      <trkpt lat="44.14645" lon="5.8439">
        <ele>911</ele>
        <time>2022-09-22T08:57:58Z</time>
      </trkpt>
      <trkpt lat="44.14644" lon="5.84389">
        <ele>911</ele>
        <time>2022-09-22T08:57:59Z</time>
      </trkpt>
      <trkpt lat="44.14643" lon="5.84388">
        <ele>911</ele>
        <time>2022-09-22T08:58:00Z</time>
      </trkpt>
      <trkpt lat="44.14642" lon="5.84387">
        <ele>911</ele>
        <time>2022-09-22T08:58:01Z</time>
      </trkpt>
      <trkpt lat="44.14642" lon="5.84386">
        <ele>911</ele>
        <time>2022-09-22T08:58:02Z</time>
      </trkpt>
      <trkpt lat="44.14641" lon="5.84385">
        <ele>911</ele>
        <time>2022-09-22T08:58:03Z</time>
      </trkpt>
      <trkpt lat="44.1464" lon="5.84384">
        <ele>911</ele>
        <time>2022-09-22T08:58:04Z</time>
      </trkpt>
      <trkpt lat="44.1464" lon="5.84383">
        <ele>911</ele>
        <time>2022-09-22T08:58:05Z</time>
      </trkpt>
      <trkpt lat="44.14639" lon="5.84382">
        <ele>911</ele>
        <time>2022-09-22T08:58:06Z</time>
      </trkpt>
      <trkpt lat="44.14638" lon="5.84381">
        <ele>911</ele>
        <time>2022-09-22T08:58:07Z</time>
      </trkpt>
      <trkpt lat="44.14637" lon="5.8438">
        <ele>911</ele>
        <time>2022-09-22T08:58:08Z</time>
      </trkpt>
      <trkpt lat="44.14637" lon="5.84379">
        <ele>911</ele>
        <time>2022-09-22T08:58:09Z</time>
      </trkpt>
      <trkpt lat="44.14636" lon="5.84378">
        <ele>911</ele>
        <time>2022-09-22T08:58:10Z</time>
      </trkpt>
      <trkpt lat="44.14636" lon="5.84377">
        <ele>911</ele>
        <time>2022-09-22T08:58:11Z</time>
      </trkpt>
      <trkpt lat="44.14635" lon="5.84376">
        <ele>911</ele>
        <time>2022-09-22T08:58:12Z</time>
      </trkpt>
      <trkpt lat="44.14634" lon="5.84375">
        <ele>911</ele>
        <time>2022-09-22T08:58:13Z</time>
      </trkpt>
      <trkpt lat="44.14634" lon="5.84374">
        <ele>911</ele>
        <time>2022-09-22T08:58:14Z</time>
      </trkpt>
      <trkpt lat="44.14633" lon="5.84373">
        <ele>911</ele>
        <time>2022-09-22T08:58:15Z</time>
      </trkpt>
      <trkpt lat="44.14632" lon="5.84372">
        <ele>911</ele>
        <time>2022-09-22T08:58:16Z</time>
      </trkpt>
      <trkpt lat="44.14631" lon="5.84371">
        <ele>911</ele>
        <time>2022-09-22T08:58:17Z</time>
      </trkpt>
      <trkpt lat="44.14631" lon="5.8437">
        <ele>911</ele>
        <time>2022-09-22T08:58:18Z</time>
      </trkpt>
      <trkpt lat="44.1463" lon="5.84369">
        <ele>911</ele>
        <time>2022-09-22T08:58:19Z</time>
      </trkpt>
      <trkpt lat="44.14629" lon="5.84368">
        <ele>911</ele>
        <time>2022-09-22T08:58:20Z</time>
      </trkpt>
      <trkpt lat="44.14629" lon="5.84368">
        <ele>911</ele>
        <time>2022-09-22T08:58:21Z</time>
      </trkpt>
      <trkpt lat="44.14629" lon="5.84367">
        <ele>911</ele>
        <time>2022-09-22T08:58:22Z</time>
      </trkpt>
      <trkpt lat="44.14629" lon="5.84366">
        <ele>911</ele>
        <time>2022-09-22T08:58:23Z</time>
      </trkpt>
      <trkpt lat="44.14628" lon="5.84366">
        <ele>911</ele>
        <time>2022-09-22T08:58:24Z</time>
      </trkpt>
      <trkpt lat="44.14628" lon="5.84365">
        <ele>911</ele>
        <time>2022-09-22T08:58:25Z</time>
      </trkpt>
      <trkpt lat="44.14627" lon="5.84364">
        <ele>911</ele>
        <time>2022-09-22T08:58:26Z</time>
      </trkpt>
      <trkpt lat="44.14627" lon="5.84363">
        <ele>911</ele>
        <time>2022-09-22T08:58:27Z</time>
      </trkpt>
      <trkpt lat="44.14626" lon="5.84363">
        <ele>911</ele>
        <time>2022-09-22T08:58:28Z</time>
      </trkpt>
      <trkpt lat="44.14626" lon="5.84363">
        <ele>911</ele>
        <time>2022-09-22T08:58:29Z</time>
      </trkpt>
      <trkpt lat="44.14625" lon="5.84362">
        <ele>911</ele>
        <time>2022-09-22T08:58:30Z</time>
      </trkpt>
      <trkpt lat="44.14624" lon="5.84361">
        <ele>911</ele>
        <time>2022-09-22T08:58:31Z</time>
      </trkpt>
      <trkpt lat="44.14624" lon="5.8436">
        <ele>911</ele>
        <time>2022-09-22T08:58:32Z</time>
      </trkpt>
      <trkpt lat="44.14623" lon="5.84359">
        <ele>911</ele>
        <time>2022-09-22T08:58:33Z</time>
      </trkpt>
      <trkpt lat="44.14623" lon="5.84358">
        <ele>911</ele>
        <time>2022-09-22T08:58:34Z</time>
      </trkpt>
      <trkpt lat="44.14622" lon="5.84357">
        <ele>911</ele>
        <time>2022-09-22T08:58:35Z</time>
      </trkpt>
      <trkpt lat="44.14622" lon="5.84356">
        <ele>911</ele>
        <time>2022-09-22T08:58:36Z</time>
      </trkpt>
      <trkpt lat="44.14621" lon="5.84355">
        <ele>911</ele>
        <time>2022-09-22T08:58:37Z</time>
      </trkpt>
      <trkpt lat="44.14621" lon="5.84354">
        <ele>911</ele>
        <time>2022-09-22T08:58:38Z</time>
      </trkpt>
      <trkpt lat="44.14621" lon="5.84353">
        <ele>911</ele>
        <time>2022-09-22T08:58:39Z</time>
      </trkpt>
      <trkpt lat="44.14621" lon="5.84352">
        <ele>911</ele>
        <time>2022-09-22T08:58:40Z</time>
      </trkpt>
      <trkpt lat="44.1462" lon="5.84351">
        <ele>911</ele>
        <time>2022-09-22T08:58:41Z</time>
      </trkpt>
      <trkpt lat="44.1462" lon="5.8435">
        <ele>911</ele>
        <time>2022-09-22T08:58:42Z</time>
      </trkpt>
      <trkpt lat="44.1462" lon="5.84349">
        <ele>911</ele>
        <time>2022-09-22T08:58:43Z</time>
      </trkpt>
      <trkpt lat="44.14619" lon="5.84349">
        <ele>911</ele>
        <time>2022-09-22T08:58:44Z</time>
      </trkpt>
      <trkpt lat="44.14619" lon="5.84348">
        <ele>911</ele>
        <time>2022-09-22T08:58:45Z</time>
      </trkpt>
      <trkpt lat="44.14618" lon="5.84348">
        <ele>911</ele>
        <time>2022-09-22T08:58:46Z</time>
      </trkpt>
      <trkpt lat="44.14617" lon="5.84347">
        <ele>911</ele>
        <time>2022-09-22T08:58:47Z</time>
      </trkpt>
      <trkpt lat="44.14616" lon="5.84347">
        <ele>911</ele>
        <time>2022-09-22T08:58:48Z</time>
      </trkpt>
      <trkpt lat="44.14616" lon="5.84346">
        <ele>911</ele>
        <time>2022-09-22T08:58:49Z</time>
      </trkpt>
      <trkpt lat="44.14615" lon="5.84345">
        <ele>911</ele>
        <time>2022-09-22T08:58:50Z</time>
      </trkpt>
      <trkpt lat="44.14614" lon="5.84345">
        <ele>911</ele>
        <time>2022-09-22T08:58:51Z</time>
      </trkpt>
      <trkpt lat="44.14614" lon="5.84344">
        <ele>911</ele>
        <time>2022-09-22T08:58:52Z</time>
      </trkpt>
      <trkpt lat="44.14613" lon="5.84344">
        <ele>911</ele>
        <time>2022-09-22T08:58:53Z</time>
      </trkpt>
      <trkpt lat="44.14613" lon="5.84343">
        <ele>912</ele>
        <time>2022-09-22T08:58:54Z</time>
      </trkpt>
      <trkpt lat="44.14612" lon="5.84343">
        <ele>912</ele>
        <time>2022-09-22T08:58:55Z</time>
      </trkpt>
      <trkpt lat="44.14611" lon="5.84342">
        <ele>912</ele>
        <time>2022-09-22T08:58:56Z</time>
      </trkpt>
      <trkpt lat="44.14611" lon="5.84342">
        <ele>912</ele>
        <time>2022-09-22T08:58:57Z</time>
      </trkpt>
      <trkpt lat="44.1461" lon="5.84341">
        <ele>912</ele>
        <time>2022-09-22T08:58:58Z</time>
      </trkpt>
      <trkpt lat="44.14609" lon="5.84341">
        <ele>912</ele>
        <time>2022-09-22T08:58:59Z</time>
      </trkpt>
      <trkpt lat="44.14608" lon="5.8434">
        <ele>912</ele>
        <time>2022-09-22T08:59:00Z</time>
      </trkpt>
      <trkpt lat="44.14608" lon="5.8434">
        <ele>912</ele>
        <time>2022-09-22T08:59:01Z</time>
      </trkpt>
      <trkpt lat="44.14607" lon="5.8434">
        <ele>912</ele>
        <time>2022-09-22T08:59:02Z</time>
      </trkpt>
      <trkpt lat="44.14606" lon="5.84339">
        <ele>912</ele>
        <time>2022-09-22T08:59:03Z</time>
      </trkpt>
      <trkpt lat="44.14606" lon="5.84339">
        <ele>913</ele>
        <time>2022-09-22T08:59:04Z</time>
      </trkpt>
      <trkpt lat="44.14605" lon="5.84338">
        <ele>913</ele>
        <time>2022-09-22T08:59:05Z</time>
      </trkpt>
      <trkpt lat="44.14604" lon="5.84338">
        <ele>913</ele>
        <time>2022-09-22T08:59:06Z</time>
      </trkpt>
      <trkpt lat="44.14603" lon="5.84337">
        <ele>913</ele>
        <time>2022-09-22T08:59:07Z</time>
      </trkpt>
      <trkpt lat="44.14602" lon="5.84337">
        <ele>913</ele>
        <time>2022-09-22T08:59:08Z</time>
      </trkpt>
      <trkpt lat="44.14602" lon="5.84336">
        <ele>914</ele>
        <time>2022-09-22T08:59:09Z</time>
      </trkpt>
      <trkpt lat="44.14601" lon="5.84336">
        <ele>914</ele>
        <time>2022-09-22T08:59:10Z</time>
      </trkpt>
      <trkpt lat="44.146" lon="5.84335">
        <ele>914</ele>
        <time>2022-09-22T08:59:11Z</time>
      </trkpt>
      <trkpt lat="44.14599" lon="5.84335">
        <ele>914</ele>
        <time>2022-09-22T08:59:12Z</time>
      </trkpt>
      <trkpt lat="44.14599" lon="5.84335">
        <ele>914</ele>
        <time>2022-09-22T08:59:13Z</time>
      </trkpt>
      <trkpt lat="44.14598" lon="5.84335">
        <ele>914</ele>
        <time>2022-09-22T08:59:14Z</time>
      </trkpt>
      <trkpt lat="44.14597" lon="5.84335">
        <ele>914</ele>
        <time>2022-09-22T08:59:15Z</time>
      </trkpt>
      <trkpt lat="44.14596" lon="5.84335">
        <ele>914</ele>
        <time>2022-09-22T08:59:16Z</time>
      </trkpt>
      <trkpt lat="44.14595" lon="5.84335">
        <ele>914</ele>
        <time>2022-09-22T08:59:17Z</time>
      </trkpt>
      <trkpt lat="44.14594" lon="5.84335">
        <ele>914</ele>
        <time>2022-09-22T08:59:18Z</time>
      </trkpt>
      <trkpt lat="44.14593" lon="5.84335">
        <ele>915</ele>
        <time>2022-09-22T08:59:19Z</time>
      </trkpt>
      <trkpt lat="44.14592" lon="5.84335">
        <ele>915</ele>
        <time>2022-09-22T08:59:20Z</time>
      </trkpt>
      <trkpt lat="44.14591" lon="5.84335">
        <ele>915</ele>
        <time>2022-09-22T08:59:21Z</time>
      </trkpt>
      <trkpt lat="44.14591" lon="5.84334">
        <ele>915</ele>
        <time>2022-09-22T08:59:22Z</time>
      </trkpt>
      <trkpt lat="44.1459" lon="5.84334">
        <ele>915</ele>
        <time>2022-09-22T08:59:23Z</time>
      </trkpt>
      <trkpt lat="44.14589" lon="5.84334">
        <ele>916</ele>
        <time>2022-09-22T08:59:24Z</time>
      </trkpt>
      <trkpt lat="44.14589" lon="5.84334">
        <ele>916</ele>
        <time>2022-09-22T08:59:25Z</time>
      </trkpt>
      <trkpt lat="44.14588" lon="5.84334">
        <ele>916</ele>
        <time>2022-09-22T08:59:26Z</time>
      </trkpt>
      <trkpt lat="44.14588" lon="5.84334">
        <ele>916</ele>
        <time>2022-09-22T08:59:27Z</time>
      </trkpt>
      <trkpt lat="44.14587" lon="5.84333">
        <ele>916</ele>
        <time>2022-09-22T08:59:28Z</time>
      </trkpt>
      <trkpt lat="44.14586" lon="5.84333">
        <ele>917</ele>
        <time>2022-09-22T08:59:29Z</time>
      </trkpt>
      <trkpt lat="44.14585" lon="5.84333">
        <ele>917</ele>
        <time>2022-09-22T08:59:30Z</time>
      </trkpt>
      <trkpt lat="44.14584" lon="5.84333">
        <ele>917</ele>
        <time>2022-09-22T08:59:31Z</time>
      </trkpt>
      <trkpt lat="44.14583" lon="5.84333">
        <ele>917</ele>
        <time>2022-09-22T08:59:32Z</time>
      </trkpt>
      <trkpt lat="44.14582" lon="5.84333">
        <ele>917</ele>
        <time>2022-09-22T08:59:33Z</time>
      </trkpt>
      <trkpt lat="44.14582" lon="5.84333">
        <ele>918</ele>
        <time>2022-09-22T08:59:34Z</time>
      </trkpt>
      <trkpt lat="44.14582" lon="5.84333">
        <ele>918</ele>
        <time>2022-09-22T08:59:35Z</time>
      </trkpt>
      <trkpt lat="44.14581" lon="5.84333">
        <ele>918</ele>
        <time>2022-09-22T08:59:36Z</time>
      </trkpt>
      <trkpt lat="44.14581" lon="5.84333">
        <ele>918</ele>
        <time>2022-09-22T08:59:37Z</time>
      </trkpt>
      <trkpt lat="44.1458" lon="5.84332">
        <ele>918</ele>
        <time>2022-09-22T08:59:38Z</time>
      </trkpt>
      <trkpt lat="44.14579" lon="5.84332">
        <ele>919</ele>
        <time>2022-09-22T08:59:39Z</time>
      </trkpt>
      <trkpt lat="44.14579" lon="5.84332">
        <ele>919</ele>
        <time>2022-09-22T08:59:40Z</time>
      </trkpt>
      <trkpt lat="44.14578" lon="5.84332">
        <ele>919</ele>
        <time>2022-09-22T08:59:41Z</time>
      </trkpt>
      <trkpt lat="44.14577" lon="5.84332">
        <ele>919</ele>
        <time>2022-09-22T08:59:42Z</time>
      </trkpt>
      <trkpt lat="44.14577" lon="5.84333">
        <ele>919</ele>
        <time>2022-09-22T08:59:43Z</time>
      </trkpt>
      <trkpt lat="44.14576" lon="5.84333">
        <ele>919</ele>
        <time>2022-09-22T08:59:44Z</time>
      </trkpt>
      <trkpt lat="44.14576" lon="5.84333">
        <ele>919</ele>
        <time>2022-09-22T08:59:45Z</time>
      </trkpt>
      <trkpt lat="44.14575" lon="5.84333">
        <ele>919</ele>
        <time>2022-09-22T08:59:46Z</time>
      </trkpt>
      <trkpt lat="44.14574" lon="5.84333">
        <ele>919</ele>
        <time>2022-09-22T08:59:47Z</time>
      </trkpt>
      <trkpt lat="44.14574" lon="5.84333">
        <ele>919</ele>
        <time>2022-09-22T08:59:48Z</time>
      </trkpt>
      <trkpt lat="44.14574" lon="5.84333">
        <ele>920</ele>
        <time>2022-09-22T08:59:49Z</time>
      </trkpt>
      <trkpt lat="44.14573" lon="5.84333">
        <ele>920</ele>
        <time>2022-09-22T08:59:50Z</time>
      </trkpt>
      <trkpt lat="44.14572" lon="5.84333">
        <ele>920</ele>
        <time>2022-09-22T08:59:51Z</time>
      </trkpt>
      <trkpt lat="44.14572" lon="5.84333">
        <ele>920</ele>
        <time>2022-09-22T08:59:52Z</time>
      </trkpt>
      <trkpt lat="44.14571" lon="5.84332">
        <ele>920</ele>
        <time>2022-09-22T08:59:53Z</time>
      </trkpt>
      <trkpt lat="44.14571" lon="5.84332">
        <ele>921</ele>
        <time>2022-09-22T08:59:54Z</time>
      </trkpt>
      <trkpt lat="44.1457" lon="5.84332">
        <ele>921</ele>
        <time>2022-09-22T08:59:55Z</time>
      </trkpt>
      <trkpt lat="44.1457" lon="5.84331">
        <ele>921</ele>
        <time>2022-09-22T08:59:56Z</time>
      </trkpt>
      <trkpt lat="44.1457" lon="5.84331">
        <ele>921</ele>
        <time>2022-09-22T08:59:57Z</time>
      </trkpt>
      <trkpt lat="44.14569" lon="5.84331">
        <ele>921</ele>
        <time>2022-09-22T08:59:58Z</time>
      </trkpt>
      <trkpt lat="44.14569" lon="5.84331">
        <ele>922</ele>
        <time>2022-09-22T08:59:59Z</time>
      </trkpt>
      <trkpt lat="44.14569" lon="5.84331">
        <ele>922</ele>
        <time>2022-09-22T09:00:00Z</time>
      </trkpt>
      <trkpt lat="44.14568" lon="5.84331">
        <ele>922</ele>
        <time>2022-09-22T09:00:01Z</time>
      </trkpt>
      <trkpt lat="44.14567" lon="5.8433">
        <ele>922</ele>
        <time>2022-09-22T09:00:02Z</time>
      </trkpt>
      <trkpt lat="44.14566" lon="5.8433">
        <ele>922</ele>
        <time>2022-09-22T09:00:03Z</time>
      </trkpt>
      <trkpt lat="44.14565" lon="5.8433">
        <ele>923</ele>
        <time>2022-09-22T09:00:04Z</time>
      </trkpt>
      <trkpt lat="44.14564" lon="5.84329">
        <ele>923</ele>
        <time>2022-09-22T09:00:05Z</time>
      </trkpt>
      <trkpt lat="44.14563" lon="5.84329">
        <ele>923</ele>
        <time>2022-09-22T09:00:11Z</time>
      </trkpt>
      <trkpt lat="44.14561" lon="5.84329">
        <ele>923</ele>
        <time>2022-09-22T09:00:12Z</time>
      </trkpt>
      <trkpt lat="44.1456" lon="5.84329">
        <ele>923</ele>
        <time>2022-09-22T09:00:13Z</time>
      </trkpt>
      <trkpt lat="44.14559" lon="5.84329">
        <ele>924</ele>
        <time>2022-09-22T09:00:14Z</time>
      </trkpt>
      <trkpt lat="44.14559" lon="5.84329">
        <ele>924</ele>
        <time>2022-09-22T09:00:15Z</time>
      </trkpt>
      <trkpt lat="44.14558" lon="5.84328">
        <ele>924</ele>
        <time>2022-09-22T09:00:16Z</time>
      </trkpt>
      <trkpt lat="44.14557" lon="5.84328">
        <ele>924</ele>
        <time>2022-09-22T09:00:17Z</time>
      </trkpt>
      <trkpt lat="44.14556" lon="5.84328">
        <ele>924</ele>
        <time>2022-09-22T09:00:18Z</time>
      </trkpt>
      <trkpt lat="44.14555" lon="5.84328">
        <ele>925</ele>
        <time>2022-09-22T09:00:19Z</time>
      </trkpt>
      <trkpt lat="44.14554" lon="5.84328">
        <ele>925</ele>
        <time>2022-09-22T09:00:20Z</time>
      </trkpt>
      <trkpt lat="44.14553" lon="5.84328">
        <ele>925</ele>
        <time>2022-09-22T09:00:21Z</time>
      </trkpt>
      <trkpt lat="44.14552" lon="5.84328">
        <ele>925</ele>
        <time>2022-09-22T09:00:22Z</time>
      </trkpt>
      <trkpt lat="44.14551" lon="5.84328">
        <ele>925</ele>
        <time>2022-09-22T09:00:23Z</time>
      </trkpt>
      <trkpt lat="44.14551" lon="5.84328">
        <ele>925</ele>
        <time>2022-09-22T09:00:24Z</time>
      </trkpt>
      <trkpt lat="44.1455" lon="5.84328">
        <ele>925</ele>
        <time>2022-09-22T09:00:25Z</time>
      </trkpt>
      <trkpt lat="44.1455" lon="5.84328">
        <ele>925</ele>
        <time>2022-09-22T09:00:26Z</time>
      </trkpt>
      <trkpt lat="44.1455" lon="5.84328">
        <ele>925</ele>
        <time>2022-09-22T09:00:27Z</time>
      </trkpt>
      <trkpt lat="44.14549" lon="5.84329">
        <ele>925</ele>
        <time>2022-09-22T09:00:28Z</time>
      </trkpt>
      <trkpt lat="44.14549" lon="5.84329">
        <ele>926</ele>
        <time>2022-09-22T09:00:29Z</time>
      </trkpt>
      <trkpt lat="44.14548" lon="5.84329">
        <ele>926</ele>
        <time>2022-09-22T09:00:30Z</time>
      </trkpt>
      <trkpt lat="44.14548" lon="5.84329">
        <ele>926</ele>
        <time>2022-09-22T09:00:31Z</time>
      </trkpt>
      <trkpt lat="44.14548" lon="5.84329">
        <ele>926</ele>
        <time>2022-09-22T09:00:32Z</time>
      </trkpt>
      <trkpt lat="44.14547" lon="5.84329">
        <ele>926</ele>
        <time>2022-09-22T09:00:33Z</time>
      </trkpt>
      <trkpt lat="44.14547" lon="5.84329">
        <ele>926</ele>
        <time>2022-09-22T09:00:34Z</time>
      </trkpt>
      <trkpt lat="44.14546" lon="5.84328">
        <ele>926</ele>
        <time>2022-09-22T09:00:35Z</time>
      </trkpt>
      <trkpt lat="44.14546" lon="5.84328">
        <ele>926</ele>
        <time>2022-09-22T09:00:36Z</time>
      </trkpt>
      <trkpt lat="44.14545" lon="5.84327">
        <ele>926</ele>
        <time>2022-09-22T09:00:37Z</time>
      </trkpt>
      <trkpt lat="44.14545" lon="5.84327">
        <ele>926</ele>
        <time>2022-09-22T09:00:38Z</time>
      </trkpt>
      <trkpt lat="44.14544" lon="5.84326">
        <ele>927</ele>
        <time>2022-09-22T09:00:39Z</time>
      </trkpt>
      <trkpt lat="44.14544" lon="5.84326">
        <ele>927</ele>
        <time>2022-09-22T09:00:40Z</time>
      </trkpt>
      <trkpt lat="44.14543" lon="5.84325">
        <ele>927</ele>
        <time>2022-09-22T09:00:41Z</time>
      </trkpt>
      <trkpt lat="44.14542" lon="5.84325">
        <ele>927</ele>
        <time>2022-09-22T09:00:42Z</time>
      </trkpt>
      <trkpt lat="44.14541" lon="5.84324">
        <ele>927</ele>
        <time>2022-09-22T09:00:43Z</time>
      </trkpt>
      <trkpt lat="44.14541" lon="5.84324">
        <ele>927</ele>
        <time>2022-09-22T09:00:44Z</time>
      </trkpt>
      <trkpt lat="44.1454" lon="5.84323">
        <ele>927</ele>
        <time>2022-09-22T09:00:45Z</time>
      </trkpt>
      <trkpt lat="44.1454" lon="5.84323">
        <ele>927</ele>
        <time>2022-09-22T09:00:46Z</time>
      </trkpt>
      <trkpt lat="44.14539" lon="5.84322">
        <ele>927</ele>
        <time>2022-09-22T09:00:47Z</time>
      </trkpt>
      <trkpt lat="44.14539" lon="5.84322">
        <ele>927</ele>
        <time>2022-09-22T09:00:48Z</time>
      </trkpt>
      <trkpt lat="44.14538" lon="5.84321">
        <ele>927</ele>
        <time>2022-09-22T09:00:49Z</time>
      </trkpt>
      <trkpt lat="44.14537" lon="5.84321">
        <ele>927</ele>
        <time>2022-09-22T09:00:50Z</time>
      </trkpt>
      <trkpt lat="44.14537" lon="5.8432">
        <ele>927</ele>
        <time>2022-09-22T09:00:51Z</time>
      </trkpt>
      <trkpt lat="44.14537" lon="5.8432">
        <ele>927</ele>
        <time>2022-09-22T09:00:52Z</time>
      </trkpt>
      <trkpt lat="44.14536" lon="5.8432">
        <ele>927</ele>
        <time>2022-09-22T09:00:53Z</time>
      </trkpt>
      <trkpt lat="44.14536" lon="5.84319">
        <ele>928</ele>
        <time>2022-09-22T09:00:54Z</time>
      </trkpt>
      <trkpt lat="44.14535" lon="5.84319">
        <ele>928</ele>
        <time>2022-09-22T09:00:55Z</time>
      </trkpt>
      <trkpt lat="44.14535" lon="5.84318">
        <ele>928</ele>
        <time>2022-09-22T09:00:56Z</time>
      </trkpt>
      <trkpt lat="44.14534" lon="5.84317">
        <ele>928</ele>
        <time>2022-09-22T09:00:57Z</time>
      </trkpt>
      <trkpt lat="44.14534" lon="5.84316">
        <ele>928</ele>
        <time>2022-09-22T09:00:58Z</time>
      </trkpt>
      <trkpt lat="44.14534" lon="5.84316">
        <ele>928</ele>
        <time>2022-09-22T09:00:59Z</time>
      </trkpt>
      <trkpt lat="44.14533" lon="5.84315">
        <ele>928</ele>
        <time>2022-09-22T09:01:00Z</time>
      </trkpt>
      <trkpt lat="44.14532" lon="5.84315">
        <ele>928</ele>
        <time>2022-09-22T09:01:01Z</time>
      </trkpt>
      <trkpt lat="44.14531" lon="5.84314">
        <ele>929</ele>
        <time>2022-09-22T09:01:02Z</time>
      </trkpt>
      <trkpt lat="44.14531" lon="5.84314">
        <ele>929</ele>
        <time>2022-09-22T09:01:03Z</time>
      </trkpt>
      <trkpt lat="44.1453" lon="5.84313">
        <ele>930</ele>
        <time>2022-09-22T09:01:04Z</time>
      </trkpt>
      <trkpt lat="44.1453" lon="5.84313">
        <ele>930</ele>
        <time>2022-09-22T09:01:05Z</time>
      </trkpt>
      <trkpt lat="44.1453" lon="5.84312">
        <ele>930</ele>
        <time>2022-09-22T09:01:06Z</time>
      </trkpt>
      <trkpt lat="44.14529" lon="5.84311">
        <ele>930</ele>
        <time>2022-09-22T09:01:07Z</time>
      </trkpt>
      <trkpt lat="44.14529" lon="5.84311">
        <ele>930</ele>
        <time>2022-09-22T09:01:08Z</time>
      </trkpt>
      <trkpt lat="44.14529" lon="5.8431">
        <ele>930</ele>
        <time>2022-09-22T09:01:09Z</time>
      </trkpt>
      <trkpt lat="44.14528" lon="5.8431">
        <ele>930</ele>
        <time>2022-09-22T09:01:10Z</time>
      </trkpt>
      <trkpt lat="44.14528" lon="5.84309">
        <ele>930</ele>
        <time>2022-09-22T09:01:11Z</time>
      </trkpt>
      <trkpt lat="44.14528" lon="5.84308">
        <ele>930</ele>
        <time>2022-09-22T09:01:12Z</time>
      </trkpt>
      <trkpt lat="44.14528" lon="5.84308">
        <ele>930</ele>
        <time>2022-09-22T09:01:13Z</time>
      </trkpt>
      <trkpt lat="44.14528" lon="5.84307">
        <ele>931</ele>
        <time>2022-09-22T09:01:14Z</time>
      </trkpt>
      <trkpt lat="44.14528" lon="5.84307">
        <ele>931</ele>
        <time>2022-09-22T09:01:15Z</time>
      </trkpt>
      <trkpt lat="44.14527" lon="5.84307">
        <ele>931</ele>
        <time>2022-09-22T09:01:16Z</time>
      </trkpt>
      <trkpt lat="44.14527" lon="5.84306">
        <ele>931</ele>
        <time>2022-09-22T09:01:17Z</time>
      </trkpt>
      <trkpt lat="44.14526" lon="5.84305">
        <ele>931</ele>
        <time>2022-09-22T09:01:18Z</time>
      </trkpt>
      <trkpt lat="44.14525" lon="5.84305">
        <ele>932</ele>
        <time>2022-09-22T09:01:19Z</time>
      </trkpt>
      <trkpt lat="44.14525" lon="5.84304">
        <ele>932</ele>
        <time>2022-09-22T09:01:20Z</time>
      </trkpt>
      <trkpt lat="44.14524" lon="5.84303">
        <ele>932</ele>
        <time>2022-09-22T09:01:21Z</time>
      </trkpt>
      <trkpt lat="44.14524" lon="5.84302">
        <ele>932</ele>
        <time>2022-09-22T09:01:22Z</time>
      </trkpt>
      <trkpt lat="44.14523" lon="5.84301">
        <ele>932</ele>
        <time>2022-09-22T09:01:23Z</time>
      </trkpt>
      <trkpt lat="44.14522" lon="5.84301">
        <ele>932</ele>
        <time>2022-09-22T09:01:24Z</time>
      </trkpt>
      <trkpt lat="44.14522" lon="5.843">
        <ele>932</ele>
        <time>2022-09-22T09:01:25Z</time>
      </trkpt>
      <trkpt lat="44.14521" lon="5.84299">
        <ele>932</ele>
        <time>2022-09-22T09:01:26Z</time>
      </trkpt>
      <trkpt lat="44.1452" lon="5.84298">
        <ele>932</ele>
        <time>2022-09-22T09:01:27Z</time>
      </trkpt>
      <trkpt lat="44.1452" lon="5.84298">
        <ele>932</ele>
        <time>2022-09-22T09:01:28Z</time>
      </trkpt>
      <trkpt lat="44.14519" lon="5.84297">
        <ele>933</ele>
        <time>2022-09-22T09:01:29Z</time>
      </trkpt>
      <trkpt lat="44.14518" lon="5.84297">
        <ele>933</ele>
        <time>2022-09-22T09:01:30Z</time>
      </trkpt>
      <trkpt lat="44.14517" lon="5.84296">
        <ele>933</ele>
        <time>2022-09-22T09:01:31Z</time>
      </trkpt>
      <trkpt lat="44.14515" lon="5.84296">
        <ele>933</ele>
        <time>2022-09-22T09:01:32Z</time>
      </trkpt>
      <trkpt lat="44.14515" lon="5.84296">
        <ele>933</ele>
        <time>2022-09-22T09:01:33Z</time>
      </trkpt>
      <trkpt lat="44.14514" lon="5.84296">
        <ele>933</ele>
        <time>2022-09-22T09:01:34Z</time>
      </trkpt>
      <trkpt lat="44.14513" lon="5.84295">
        <ele>933</ele>
        <time>2022-09-22T09:01:35Z</time>
      </trkpt>
      <trkpt lat="44.14512" lon="5.84295">
        <ele>933</ele>
        <time>2022-09-22T09:01:36Z</time>
      </trkpt>
      <trkpt lat="44.14511" lon="5.84294">
        <ele>933</ele>
        <time>2022-09-22T09:01:37Z</time>
      </trkpt>
      <trkpt lat="44.1451" lon="5.84293">
        <ele>933</ele>
        <time>2022-09-22T09:01:38Z</time>
      </trkpt>
      <trkpt lat="44.14509" lon="5.84293">
        <ele>934</ele>
        <time>2022-09-22T09:01:39Z</time>
      </trkpt>
      <trkpt lat="44.14508" lon="5.84293">
        <ele>934</ele>
        <time>2022-09-22T09:01:40Z</time>
      </trkpt>
      <trkpt lat="44.14507" lon="5.84292">
        <ele>934</ele>
        <time>2022-09-22T09:01:41Z</time>
      </trkpt>
      <trkpt lat="44.14507" lon="5.84292">
        <ele>934</ele>
        <time>2022-09-22T09:01:42Z</time>
      </trkpt>
      <trkpt lat="44.14506" lon="5.84291">
        <ele>934</ele>
        <time>2022-09-22T09:01:43Z</time>
      </trkpt>
      <trkpt lat="44.14504" lon="5.84291">
        <ele>935</ele>
        <time>2022-09-22T09:01:44Z</time>
      </trkpt>
      <trkpt lat="44.14504" lon="5.8429">
        <ele>935</ele>
        <time>2022-09-22T09:01:45Z</time>
      </trkpt>
      <trkpt lat="44.14503" lon="5.84289">
        <ele>935</ele>
        <time>2022-09-22T09:01:46Z</time>
      </trkpt>
      <trkpt lat="44.14502" lon="5.84289">
        <ele>935</ele>
        <time>2022-09-22T09:01:47Z</time>
      </trkpt>
      <trkpt lat="44.14502" lon="5.84288">
        <ele>935</ele>
        <time>2022-09-22T09:01:48Z</time>
      </trkpt>
      <trkpt lat="44.14502" lon="5.84288">
        <ele>935</ele>
        <time>2022-09-22T09:01:49Z</time>
      </trkpt>
      <trkpt lat="44.14502" lon="5.84288">
        <ele>935</ele>
        <time>2022-09-22T09:01:50Z</time>
      </trkpt>
      <trkpt lat="44.14501" lon="5.84287">
        <ele>935</ele>
        <time>2022-09-22T09:01:51Z</time>
      </trkpt>
      <trkpt lat="44.14501" lon="5.84286">
        <ele>935</ele>
        <time>2022-09-22T09:01:52Z</time>
      </trkpt>
      <trkpt lat="44.145" lon="5.84285">
        <ele>935</ele>
        <time>2022-09-22T09:01:53Z</time>
      </trkpt>
      <trkpt lat="44.14499" lon="5.84284">
        <ele>935</ele>
        <time>2022-09-22T09:01:54Z</time>
      </trkpt>
      <trkpt lat="44.14498" lon="5.84283">
        <ele>935</ele>
        <time>2022-09-22T09:01:55Z</time>
      </trkpt>
      <trkpt lat="44.14498" lon="5.84283">
        <ele>935</ele>
        <time>2022-09-22T09:01:56Z</time>
      </trkpt>
      <trkpt lat="44.14497" lon="5.84282">
        <ele>935</ele>
        <time>2022-09-22T09:01:57Z</time>
      </trkpt>
      <trkpt lat="44.14496" lon="5.84281">
        <ele>935</ele>
        <time>2022-09-22T09:01:58Z</time>
      </trkpt>
      <trkpt lat="44.14495" lon="5.8428">
        <ele>936</ele>
        <time>2022-09-22T09:01:59Z</time>
      </trkpt>
      <trkpt lat="44.14495" lon="5.8428">
        <ele>936</ele>
        <time>2022-09-22T09:02:00Z</time>
      </trkpt>
      <trkpt lat="44.14494" lon="5.84279">
        <ele>936</ele>
        <time>2022-09-22T09:02:01Z</time>
      </trkpt>
      <trkpt lat="44.1449" lon="5.8428">
        <ele>941</ele>
        <time>2022-09-22T09:02:36Z</time>
      </trkpt>
      <trkpt lat="44.14487" lon="5.8428">
        <ele>941</ele>
        <time>2022-09-22T09:02:37Z</time>
      </trkpt>
      <trkpt lat="44.14485" lon="5.84281">
        <ele>941</ele>
        <time>2022-09-22T09:02:38Z</time>
      </trkpt>
      <trkpt lat="44.14484" lon="5.84281">
        <ele>942</ele>
        <time>2022-09-22T09:02:39Z</time>
      </trkpt>
      <trkpt lat="44.14482" lon="5.84281">
        <ele>942</ele>
        <time>2022-09-22T09:02:40Z</time>
      </trkpt>
      <trkpt lat="44.14482" lon="5.84281">
        <ele>942</ele>
        <time>2022-09-22T09:02:41Z</time>
      </trkpt>
      <trkpt lat="44.14481" lon="5.8428">
        <ele>942</ele>
        <time>2022-09-22T09:02:42Z</time>
      </trkpt>
      <trkpt lat="44.1448" lon="5.8428">
        <ele>942</ele>
        <time>2022-09-22T09:02:43Z</time>
      </trkpt>
      <trkpt lat="44.1448" lon="5.84279">
        <ele>942</ele>
        <time>2022-09-22T09:02:44Z</time>
      </trkpt>
      <trkpt lat="44.1448" lon="5.84279">
        <ele>942</ele>
        <time>2022-09-22T09:02:45Z</time>
      </trkpt>
      <trkpt lat="44.14479" lon="5.84278">
        <ele>942</ele>
        <time>2022-09-22T09:02:46Z</time>
      </trkpt>
      <trkpt lat="44.14479" lon="5.84278">
        <ele>942</ele>
        <time>2022-09-22T09:02:47Z</time>
      </trkpt>
      <trkpt lat="44.14478" lon="5.84277">
        <ele>942</ele>
        <time>2022-09-22T09:02:48Z</time>
      </trkpt>
      <trkpt lat="44.14478" lon="5.84277">
        <ele>943</ele>
        <time>2022-09-22T09:02:49Z</time>
      </trkpt>
      <trkpt lat="44.14477" lon="5.84276">
        <ele>943</ele>
        <time>2022-09-22T09:02:50Z</time>
      </trkpt>
      <trkpt lat="44.14477" lon="5.84276">
        <ele>943</ele>
        <time>2022-09-22T09:02:51Z</time>
      </trkpt>
      <trkpt lat="44.14476" lon="5.84276">
        <ele>943</ele>
        <time>2022-09-22T09:02:52Z</time>
      </trkpt>
      <trkpt lat="44.14474" lon="5.84275">
        <ele>944</ele>
        <time>2022-09-22T09:03:00Z</time>
      </trkpt>
      <trkpt lat="44.14473" lon="5.84274">
        <ele>944</ele>
        <time>2022-09-22T09:03:01Z</time>
      </trkpt>
      <trkpt lat="44.14472" lon="5.84274">
        <ele>944</ele>
        <time>2022-09-22T09:03:02Z</time>
      </trkpt>
      <trkpt lat="44.1447" lon="5.84273">
        <ele>945</ele>
        <time>2022-09-22T09:03:08Z</time>
      </trkpt>
      <trkpt lat="44.14469" lon="5.84272">
        <ele>945</ele>
        <time>2022-09-22T09:03:09Z</time>
      </trkpt>
      <trkpt lat="44.14468" lon="5.84271">
        <ele>945</ele>
        <time>2022-09-22T09:03:10Z</time>
      </trkpt>
      <trkpt lat="44.14467" lon="5.84271">
        <ele>945</ele>
        <time>2022-09-22T09:03:11Z</time>
      </trkpt>
      <trkpt lat="44.14467" lon="5.84271">
        <ele>945</ele>
        <time>2022-09-22T09:03:12Z</time>
      </trkpt>
      <trkpt lat="44.14466" lon="5.84271">
        <ele>945</ele>
        <time>2022-09-22T09:03:13Z</time>
      </trkpt>
      <trkpt lat="44.14465" lon="5.8427">
        <ele>946</ele>
        <time>2022-09-22T09:03:14Z</time>
      </trkpt>
      <trkpt lat="44.14465" lon="5.8427">
        <ele>946</ele>
        <time>2022-09-22T09:03:15Z</time>
      </trkpt>
      <trkpt lat="44.14464" lon="5.8427">
        <ele>946</ele>
        <time>2022-09-22T09:03:16Z</time>
      </trkpt>
      <trkpt lat="44.14463" lon="5.8427">
        <ele>946</ele>
        <time>2022-09-22T09:03:17Z</time>
      </trkpt>
      <trkpt lat="44.14463" lon="5.84269">
        <ele>946</ele>
        <time>2022-09-22T09:03:18Z</time>
      </trkpt>
      <trkpt lat="44.14462" lon="5.84269">
        <ele>947</ele>
        <time>2022-09-22T09:03:19Z</time>
      </trkpt>
      <trkpt lat="44.14462" lon="5.84268">
        <ele>947</ele>
        <time>2022-09-22T09:03:20Z</time>
      </trkpt>
      <trkpt lat="44.14462" lon="5.84268">
        <ele>947</ele>
        <time>2022-09-22T09:03:21Z</time>
      </trkpt>
      <trkpt lat="44.14462" lon="5.84267">
        <ele>947</ele>
        <time>2022-09-22T09:03:22Z</time>
      </trkpt>
      <trkpt lat="44.14461" lon="5.84267">
        <ele>947</ele>
        <time>2022-09-22T09:03:23Z</time>
      </trkpt>
      <trkpt lat="44.14461" lon="5.84266">
        <ele>947</ele>
        <time>2022-09-22T09:03:24Z</time>
      </trkpt>
      <trkpt lat="44.1446" lon="5.84266">
        <ele>947</ele>
        <time>2022-09-22T09:03:25Z</time>
      </trkpt>
      <trkpt lat="44.14459" lon="5.84265">
        <ele>947</ele>
        <time>2022-09-22T09:03:26Z</time>
      </trkpt>
      <trkpt lat="44.14458" lon="5.84264">
        <ele>947</ele>
        <time>2022-09-22T09:03:27Z</time>
      </trkpt>
      <trkpt lat="44.14457" lon="5.84263">
        <ele>947</ele>
        <time>2022-09-22T09:03:28Z</time>
      </trkpt>
      <trkpt lat="44.14456" lon="5.84262">
        <ele>947</ele>
        <time>2022-09-22T09:03:29Z</time>
      </trkpt>
      <trkpt lat="44.14456" lon="5.84262">
        <ele>947</ele>
        <time>2022-09-22T09:03:30Z</time>
      </trkpt>
      <trkpt lat="44.14455" lon="5.84262">
        <ele>947</ele>
        <time>2022-09-22T09:03:31Z</time>
      </trkpt>
      <trkpt lat="44.14455" lon="5.84261">
        <ele>947</ele>
        <time>2022-09-22T09:03:32Z</time>
      </trkpt>
      <trkpt lat="44.14455" lon="5.84261">
        <ele>947</ele>
        <time>2022-09-22T09:03:33Z</time>
      </trkpt>
      <trkpt lat="44.14454" lon="5.8426">
        <ele>948</ele>
        <time>2022-09-22T09:03:34Z</time>
      </trkpt>
      <trkpt lat="44.14453" lon="5.84259">
        <ele>948</ele>
        <time>2022-09-22T09:03:35Z</time>
      </trkpt>
      <trkpt lat="44.14452" lon="5.84259">
        <ele>948</ele>
        <time>2022-09-22T09:03:36Z</time>
      </trkpt>
      <trkpt lat="44.14452" lon="5.84258">
        <ele>948</ele>
        <time>2022-09-22T09:03:37Z</time>
      </trkpt>
      <trkpt lat="44.14449" lon="5.84256">
        <ele>950</ele>
        <time>2022-09-22T09:04:33Z</time>
      </trkpt>
      <trkpt lat="44.14448" lon="5.84256">
        <ele>950</ele>
        <time>2022-09-22T09:04:34Z</time>
      </trkpt>
      <trkpt lat="44.14447" lon="5.84255">
        <ele>950</ele>
        <time>2022-09-22T09:04:35Z</time>
      </trkpt>
      <trkpt lat="44.14447" lon="5.84254">
        <ele>950</ele>
        <time>2022-09-22T09:04:36Z</time>
      </trkpt>
      <trkpt lat="44.14446" lon="5.84253">
        <ele>950</ele>
        <time>2022-09-22T09:04:37Z</time>
      </trkpt>
      <trkpt lat="44.14444" lon="5.84251">
        <ele>950</ele>
        <time>2022-09-22T09:05:01Z</time>
      </trkpt>
      <trkpt lat="44.14443" lon="5.84249">
        <ele>950</ele>
        <time>2022-09-22T09:05:02Z</time>
      </trkpt>
      <trkpt lat="44.14442" lon="5.84247">
        <ele>950</ele>
        <time>2022-09-22T09:05:03Z</time>
      </trkpt>
      <trkpt lat="44.14441" lon="5.84246">
        <ele>951</ele>
        <time>2022-09-22T09:05:04Z</time>
      </trkpt>
      <trkpt lat="44.14441" lon="5.84245">
        <ele>951</ele>
        <time>2022-09-22T09:05:05Z</time>
      </trkpt>
      <trkpt lat="44.14441" lon="5.84244">
        <ele>951</ele>
        <time>2022-09-22T09:05:06Z</time>
      </trkpt>
      <trkpt lat="44.1444" lon="5.84243">
        <ele>951</ele>
        <time>2022-09-22T09:05:07Z</time>
      </trkpt>
      <trkpt lat="44.1444" lon="5.84242">
        <ele>951</ele>
        <time>2022-09-22T09:05:08Z</time>
      </trkpt>
      <trkpt lat="44.1444" lon="5.84241">
        <ele>951</ele>
        <time>2022-09-22T09:05:09Z</time>
      </trkpt>
      <trkpt lat="44.14439" lon="5.8424">
        <ele>951</ele>
        <time>2022-09-22T09:05:10Z</time>
      </trkpt>
      <trkpt lat="44.14439" lon="5.84239">
        <ele>951</ele>
        <time>2022-09-22T09:05:11Z</time>
      </trkpt>
      <trkpt lat="44.14438" lon="5.84239">
        <ele>951</ele>
        <time>2022-09-22T09:05:12Z</time>
      </trkpt>
      <trkpt lat="44.14438" lon="5.84238">
        <ele>951</ele>
        <time>2022-09-22T09:05:13Z</time>
      </trkpt>
      <trkpt lat="44.14438" lon="5.84237">
        <ele>951</ele>
        <time>2022-09-22T09:05:14Z</time>
      </trkpt>
      <trkpt lat="44.14437" lon="5.84237">
        <ele>951</ele>
        <time>2022-09-22T09:05:15Z</time>
      </trkpt>
      <trkpt lat="44.14437" lon="5.84236">
        <ele>951</ele>
        <time>2022-09-22T09:05:16Z</time>
      </trkpt>
      <trkpt lat="44.14437" lon="5.84235">
        <ele>951</ele>
        <time>2022-09-22T09:05:17Z</time>
      </trkpt>
      <trkpt lat="44.14437" lon="5.84234">
        <ele>951</ele>
        <time>2022-09-22T09:05:18Z</time>
      </trkpt>
      <trkpt lat="44.14436" lon="5.84233">
        <ele>952</ele>
        <time>2022-09-22T09:05:19Z</time>
      </trkpt>
      <trkpt lat="44.14436" lon="5.84232">
        <ele>952</ele>
        <time>2022-09-22T09:05:20Z</time>
      </trkpt>
      <trkpt lat="44.14435" lon="5.84232">
        <ele>952</ele>
        <time>2022-09-22T09:05:21Z</time>
      </trkpt>
      <trkpt lat="44.14435" lon="5.84231">
        <ele>952</ele>
        <time>2022-09-22T09:05:22Z</time>
      </trkpt>
      <trkpt lat="44.14434" lon="5.8423">
        <ele>952</ele>
        <time>2022-09-22T09:05:23Z</time>
      </trkpt>
      <trkpt lat="44.14434" lon="5.84229">
        <ele>952</ele>
        <time>2022-09-22T09:05:24Z</time>
      </trkpt>
      <trkpt lat="44.14434" lon="5.84228">
        <ele>952</ele>
        <time>2022-09-22T09:05:25Z</time>
      </trkpt>
      <trkpt lat="44.14433" lon="5.84227">
        <ele>952</ele>
        <time>2022-09-22T09:05:26Z</time>
      </trkpt>
      <trkpt lat="44.14433" lon="5.84226">
        <ele>952</ele>
        <time>2022-09-22T09:05:27Z</time>
      </trkpt>
      <trkpt lat="44.14433" lon="5.84225">
        <ele>952</ele>
        <time>2022-09-22T09:05:28Z</time>
      </trkpt>
      <trkpt lat="44.14432" lon="5.84224">
        <ele>953</ele>
        <time>2022-09-22T09:05:29Z</time>
      </trkpt>
      <trkpt lat="44.14431" lon="5.84223">
        <ele>953</ele>
        <time>2022-09-22T09:05:30Z</time>
      </trkpt>
      <trkpt lat="44.14431" lon="5.84222">
        <ele>953</ele>
        <time>2022-09-22T09:05:31Z</time>
      </trkpt>
      <trkpt lat="44.1443" lon="5.8422">
        <ele>953</ele>
        <time>2022-09-22T09:05:32Z</time>
      </trkpt>
      <trkpt lat="44.14429" lon="5.84219">
        <ele>953</ele>
        <time>2022-09-22T09:05:33Z</time>
      </trkpt>
      <trkpt lat="44.14429" lon="5.84219">
        <ele>953</ele>
        <time>2022-09-22T09:05:34Z</time>
      </trkpt>
      <trkpt lat="44.14428" lon="5.84218">
        <ele>953</ele>
        <time>2022-09-22T09:05:35Z</time>
      </trkpt>
      <trkpt lat="44.14428" lon="5.84217">
        <ele>953</ele>
        <time>2022-09-22T09:05:36Z</time>
      </trkpt>
      <trkpt lat="44.14427" lon="5.84216">
        <ele>953</ele>
        <time>2022-09-22T09:05:37Z</time>
      </trkpt>
      <trkpt lat="44.14427" lon="5.84215">
        <ele>953</ele>
        <time>2022-09-22T09:05:38Z</time>
      </trkpt>
      <trkpt lat="44.14427" lon="5.84214">
        <ele>954</ele>
        <time>2022-09-22T09:05:39Z</time>
      </trkpt>
      <trkpt lat="44.14426" lon="5.84213">
        <ele>954</ele>
        <time>2022-09-22T09:05:46Z</time>
      </trkpt>
      <trkpt lat="44.14425" lon="5.84212">
        <ele>954</ele>
        <time>2022-09-22T09:05:47Z</time>
      </trkpt>
      <trkpt lat="44.14423" lon="5.84211">
        <ele>954</ele>
        <time>2022-09-22T09:05:48Z</time>
      </trkpt>
      <trkpt lat="44.14422" lon="5.8421">
        <ele>955</ele>
        <time>2022-09-22T09:05:49Z</time>
      </trkpt>
      <trkpt lat="44.14421" lon="5.84209">
        <ele>955</ele>
        <time>2022-09-22T09:05:50Z</time>
      </trkpt>
      <trkpt lat="44.1442" lon="5.84208">
        <ele>955</ele>
        <time>2022-09-22T09:05:51Z</time>
      </trkpt>
      <trkpt lat="44.14419" lon="5.84207">
        <ele>955</ele>
        <time>2022-09-22T09:05:52Z</time>
      </trkpt>
      <trkpt lat="44.14419" lon="5.84206">
        <ele>955</ele>
        <time>2022-09-22T09:05:53Z</time>
      </trkpt>
      <trkpt lat="44.14418" lon="5.84205">
        <ele>955</ele>
        <time>2022-09-22T09:05:54Z</time>
      </trkpt>
      <trkpt lat="44.14418" lon="5.84204">
        <ele>955</ele>
        <time>2022-09-22T09:05:55Z</time>
      </trkpt>
      <trkpt lat="44.14417" lon="5.84203">
        <ele>955</ele>
        <time>2022-09-22T09:05:56Z</time>
      </trkpt>
      <trkpt lat="44.14417" lon="5.84202">
        <ele>955</ele>
        <time>2022-09-22T09:05:57Z</time>
      </trkpt>
      <trkpt lat="44.14417" lon="5.84201">
        <ele>955</ele>
        <time>2022-09-22T09:05:58Z</time>
      </trkpt>
      <trkpt lat="44.14416" lon="5.842">
        <ele>955</ele>
        <time>2022-09-22T09:05:59Z</time>
      </trkpt>
      <trkpt lat="44.14416" lon="5.84199">
        <ele>955</ele>
        <time>2022-09-22T09:06:00Z</time>
      </trkpt>
      <trkpt lat="44.14415" lon="5.84198">
        <ele>955</ele>
        <time>2022-09-22T09:06:01Z</time>
      </trkpt>
      <trkpt lat="44.14415" lon="5.84197">
        <ele>955</ele>
        <time>2022-09-22T09:06:02Z</time>
      </trkpt>
      <trkpt lat="44.14414" lon="5.84196">
        <ele>955</ele>
        <time>2022-09-22T09:06:03Z</time>
      </trkpt>
      <trkpt lat="44.14414" lon="5.84195">
        <ele>955</ele>
        <time>2022-09-22T09:06:04Z</time>
      </trkpt>
      <trkpt lat="44.14413" lon="5.84194">
        <ele>955</ele>
        <time>2022-09-22T09:06:05Z</time>
      </trkpt>
      <trkpt lat="44.14412" lon="5.84193">
        <ele>955</ele>
        <time>2022-09-22T09:06:06Z</time>
      </trkpt>
      <trkpt lat="44.14412" lon="5.84192">
        <ele>955</ele>
        <time>2022-09-22T09:06:07Z</time>
      </trkpt>
      <trkpt lat="44.14411" lon="5.84192">
        <ele>955</ele>
        <time>2022-09-22T09:06:08Z</time>
      </trkpt>
      <trkpt lat="44.14411" lon="5.84191">
        <ele>955</ele>
        <time>2022-09-22T09:06:09Z</time>
      </trkpt>
      <trkpt lat="44.1441" lon="5.8419">
        <ele>955</ele>
        <time>2022-09-22T09:06:10Z</time>
      </trkpt>
      <trkpt lat="44.1441" lon="5.8419">
        <ele>955</ele>
        <time>2022-09-22T09:06:11Z</time>
      </trkpt>
      <trkpt lat="44.1441" lon="5.84189">
        <ele>955</ele>
        <time>2022-09-22T09:06:12Z</time>
      </trkpt>
      <trkpt lat="44.14409" lon="5.84189">
        <ele>955</ele>
        <time>2022-09-22T09:06:13Z</time>
      </trkpt>
      <trkpt lat="44.14409" lon="5.84188">
        <ele>955</ele>
        <time>2022-09-22T09:06:14Z</time>
      </trkpt>
      <trkpt lat="44.14409" lon="5.84187">
        <ele>955</ele>
        <time>2022-09-22T09:06:15Z</time>
      </trkpt>
      <trkpt lat="44.14408" lon="5.84186">
        <ele>955</ele>
        <time>2022-09-22T09:06:16Z</time>
      </trkpt>
      <trkpt lat="44.14408" lon="5.84186">
        <ele>955</ele>
        <time>2022-09-22T09:06:17Z</time>
      </trkpt>
      <trkpt lat="44.14407" lon="5.84185">
        <ele>955</ele>
        <time>2022-09-22T09:06:18Z</time>
      </trkpt>
      <trkpt lat="44.14406" lon="5.84184">
        <ele>955</ele>
        <time>2022-09-22T09:06:19Z</time>
      </trkpt>
      <trkpt lat="44.14405" lon="5.84184">
        <ele>955</ele>
        <time>2022-09-22T09:06:20Z</time>
      </trkpt>
      <trkpt lat="44.14404" lon="5.84183">
        <ele>955</ele>
        <time>2022-09-22T09:06:21Z</time>
      </trkpt>
      <trkpt lat="44.14404" lon="5.84182">
        <ele>955</ele>
        <time>2022-09-22T09:06:22Z</time>
      </trkpt>
      <trkpt lat="44.14403" lon="5.84182">
        <ele>955</ele>
        <time>2022-09-22T09:06:23Z</time>
      </trkpt>
      <trkpt lat="44.14402" lon="5.84181">
        <ele>955</ele>
        <time>2022-09-22T09:06:24Z</time>
      </trkpt>
      <trkpt lat="44.14402" lon="5.84181">
        <ele>954</ele>
        <time>2022-09-22T09:06:25Z</time>
      </trkpt>
      <trkpt lat="44.14401" lon="5.8418">
        <ele>954</ele>
        <time>2022-09-22T09:06:26Z</time>
      </trkpt>
      <trkpt lat="44.14401" lon="5.84179">
        <ele>954</ele>
        <time>2022-09-22T09:06:27Z</time>
      </trkpt>
      <trkpt lat="44.14401" lon="5.84178">
        <ele>954</ele>
        <time>2022-09-22T09:06:28Z</time>
      </trkpt>
      <trkpt lat="44.144" lon="5.84178">
        <ele>954</ele>
        <time>2022-09-22T09:06:29Z</time>
      </trkpt>
      <trkpt lat="44.144" lon="5.84177">
        <ele>954</ele>
        <time>2022-09-22T09:06:30Z</time>
      </trkpt>
      <trkpt lat="44.14399" lon="5.84176">
        <ele>954</ele>
        <time>2022-09-22T09:06:31Z</time>
      </trkpt>
      <trkpt lat="44.14399" lon="5.84175">
        <ele>954</ele>
        <time>2022-09-22T09:06:32Z</time>
      </trkpt>
      <trkpt lat="44.14398" lon="5.84174">
        <ele>954</ele>
        <time>2022-09-22T09:06:33Z</time>
      </trkpt>
      <trkpt lat="44.14397" lon="5.84173">
        <ele>954</ele>
        <time>2022-09-22T09:06:34Z</time>
      </trkpt>
      <trkpt lat="44.14397" lon="5.84173">
        <ele>953</ele>
        <time>2022-09-22T09:06:35Z</time>
      </trkpt>
      <trkpt lat="44.14396" lon="5.84172">
        <ele>953</ele>
        <time>2022-09-22T09:06:36Z</time>
      </trkpt>
      <trkpt lat="44.14395" lon="5.84171">
        <ele>953</ele>
        <time>2022-09-22T09:06:37Z</time>
      </trkpt>
      <trkpt lat="44.14394" lon="5.84171">
        <ele>953</ele>
        <time>2022-09-22T09:06:38Z</time>
      </trkpt>
      <trkpt lat="44.14393" lon="5.8417">
        <ele>953</ele>
        <time>2022-09-22T09:06:39Z</time>
      </trkpt>
      <trkpt lat="44.14392" lon="5.84169">
        <ele>953</ele>
        <time>2022-09-22T09:06:40Z</time>
      </trkpt>
      <trkpt lat="44.14391" lon="5.84169">
        <ele>953</ele>
        <time>2022-09-22T09:06:41Z</time>
      </trkpt>
      <trkpt lat="44.1439" lon="5.84168">
        <ele>953</ele>
        <time>2022-09-22T09:06:42Z</time>
      </trkpt>
      <trkpt lat="44.14389" lon="5.84168">
        <ele>953</ele>
        <time>2022-09-22T09:06:43Z</time>
      </trkpt>
      <trkpt lat="44.14389" lon="5.84168">
        <ele>953</ele>
        <time>2022-09-22T09:06:44Z</time>
      </trkpt>
      <trkpt lat="44.14388" lon="5.84167">
        <ele>953</ele>
        <time>2022-09-22T09:06:45Z</time>
      </trkpt>
      <trkpt lat="44.14387" lon="5.84167">
        <ele>953</ele>
        <time>2022-09-22T09:06:46Z</time>
      </trkpt>
      <trkpt lat="44.14387" lon="5.84166">
        <ele>953</ele>
        <time>2022-09-22T09:06:47Z</time>
      </trkpt>
      <trkpt lat="44.14386" lon="5.84165">
        <ele>953</ele>
        <time>2022-09-22T09:06:48Z</time>
      </trkpt>
      <trkpt lat="44.14385" lon="5.84164">
        <ele>954</ele>
        <time>2022-09-22T09:06:49Z</time>
      </trkpt>
      <trkpt lat="44.14384" lon="5.84163">
        <ele>954</ele>
        <time>2022-09-22T09:06:50Z</time>
      </trkpt>
      <trkpt lat="44.14384" lon="5.84163">
        <ele>954</ele>
        <time>2022-09-22T09:06:51Z</time>
      </trkpt>
      <trkpt lat="44.14383" lon="5.84162">
        <ele>954</ele>
        <time>2022-09-22T09:06:52Z</time>
      </trkpt>
      <trkpt lat="44.14382" lon="5.84161">
        <ele>954</ele>
        <time>2022-09-22T09:06:53Z</time>
      </trkpt>
      <trkpt lat="44.14381" lon="5.8416">
        <ele>954</ele>
        <time>2022-09-22T09:06:54Z</time>
      </trkpt>
      <trkpt lat="44.1438" lon="5.8416">
        <ele>954</ele>
        <time>2022-09-22T09:06:55Z</time>
      </trkpt>
      <trkpt lat="44.14379" lon="5.84159">
        <ele>954</ele>
        <time>2022-09-22T09:06:56Z</time>
      </trkpt>
      <trkpt lat="44.14378" lon="5.84158">
        <ele>954</ele>
        <time>2022-09-22T09:06:57Z</time>
      </trkpt>
      <trkpt lat="44.14377" lon="5.84158">
        <ele>954</ele>
        <time>2022-09-22T09:06:58Z</time>
      </trkpt>
      <trkpt lat="44.14376" lon="5.84158">
        <ele>954</ele>
        <time>2022-09-22T09:06:59Z</time>
      </trkpt>
      <trkpt lat="44.14375" lon="5.84157">
        <ele>954</ele>
        <time>2022-09-22T09:07:00Z</time>
      </trkpt>
      <trkpt lat="44.14374" lon="5.84157">
        <ele>954</ele>
        <time>2022-09-22T09:07:01Z</time>
      </trkpt>
      <trkpt lat="44.14373" lon="5.84157">
        <ele>954</ele>
        <time>2022-09-22T09:07:02Z</time>
      </trkpt>
      <trkpt lat="44.14371" lon="5.84157">
        <ele>954</ele>
        <time>2022-09-22T09:07:03Z</time>
      </trkpt>
      <trkpt lat="44.14369" lon="5.84158">
        <ele>955</ele>
        <time>2022-09-22T09:07:10Z</time>
      </trkpt>
      <trkpt lat="44.14368" lon="5.84159">
        <ele>955</ele>
        <time>2022-09-22T09:07:11Z</time>
      </trkpt>
      <trkpt lat="44.14367" lon="5.84159">
        <ele>955</ele>
        <time>2022-09-22T09:07:12Z</time>
      </trkpt>
      <trkpt lat="44.14366" lon="5.84159">
        <ele>955</ele>
        <time>2022-09-22T09:07:13Z</time>
      </trkpt>
      <trkpt lat="44.14365" lon="5.84159">
        <ele>955</ele>
        <time>2022-09-22T09:07:14Z</time>
      </trkpt>
      <trkpt lat="44.14364" lon="5.84159">
        <ele>955</ele>
        <time>2022-09-22T09:07:15Z</time>
      </trkpt>
      <trkpt lat="44.14363" lon="5.84159">
        <ele>955</ele>
        <time>2022-09-22T09:07:16Z</time>
      </trkpt>
      <trkpt lat="44.14362" lon="5.84159">
        <ele>955</ele>
        <time>2022-09-22T09:07:17Z</time>
      </trkpt>
      <trkpt lat="44.14361" lon="5.84158">
        <ele>955</ele>
        <time>2022-09-22T09:07:18Z</time>
      </trkpt>
      <trkpt lat="44.14359" lon="5.84159">
        <ele>955</ele>
        <time>2022-09-22T09:07:19Z</time>
      </trkpt>
      <trkpt lat="44.14357" lon="5.84159">
        <ele>955</ele>
        <time>2022-09-22T09:07:20Z</time>
      </trkpt>
      <trkpt lat="44.14356" lon="5.84159">
        <ele>955</ele>
        <time>2022-09-22T09:07:21Z</time>
      </trkpt>
      <trkpt lat="44.14355" lon="5.84159">
        <ele>955</ele>
        <time>2022-09-22T09:07:22Z</time>
      </trkpt>
      <trkpt lat="44.14354" lon="5.84159">
        <ele>955</ele>
        <time>2022-09-22T09:07:23Z</time>
      </trkpt>
      <trkpt lat="44.14353" lon="5.84159">
        <ele>955</ele>
        <time>2022-09-22T09:07:24Z</time>
      </trkpt>
      <trkpt lat="44.14352" lon="5.84158">
        <ele>955</ele>
        <time>2022-09-22T09:07:25Z</time>
      </trkpt>
      <trkpt lat="44.14352" lon="5.84157">
        <ele>955</ele>
        <time>2022-09-22T09:07:26Z</time>
      </trkpt>
      <trkpt lat="44.14352" lon="5.84156">
        <ele>955</ele>
        <time>2022-09-22T09:07:27Z</time>
      </trkpt>
      <trkpt lat="44.14352" lon="5.84155">
        <ele>955</ele>
        <time>2022-09-22T09:07:28Z</time>
      </trkpt>
      <trkpt lat="44.14352" lon="5.84154">
        <ele>956</ele>
        <time>2022-09-22T09:07:29Z</time>
      </trkpt>
      <trkpt lat="44.14352" lon="5.84154">
        <ele>956</ele>
        <time>2022-09-22T09:07:30Z</time>
      </trkpt>
      <trkpt lat="44.14352" lon="5.84153">
        <ele>956</ele>
        <time>2022-09-22T09:07:31Z</time>
      </trkpt>
      <trkpt lat="44.14352" lon="5.84152">
        <ele>956</ele>
        <time>2022-09-22T09:07:32Z</time>
      </trkpt>
      <trkpt lat="44.14351" lon="5.84151">
        <ele>956</ele>
        <time>2022-09-22T09:07:33Z</time>
      </trkpt>
      <trkpt lat="44.14351" lon="5.8415">
        <ele>956</ele>
        <time>2022-09-22T09:07:34Z</time>
      </trkpt>
      <trkpt lat="44.1435" lon="5.84148">
        <ele>957</ele>
        <time>2022-09-22T09:08:43Z</time>
      </trkpt>
      <trkpt lat="44.14349" lon="5.84147">
        <ele>957</ele>
        <time>2022-09-22T09:08:44Z</time>
      </trkpt>
      <trkpt lat="44.14348" lon="5.84146">
        <ele>957</ele>
        <time>2022-09-22T09:08:45Z</time>
      </trkpt>
      <trkpt lat="44.14348" lon="5.84145">
        <ele>957</ele>
        <time>2022-09-22T09:08:46Z</time>
      </trkpt>
      <trkpt lat="44.14347" lon="5.84145">
        <ele>957</ele>
        <time>2022-09-22T09:08:47Z</time>
      </trkpt>
      <trkpt lat="44.14343" lon="5.84144">
        <ele>959</ele>
        <time>2022-09-22T09:09:10Z</time>
      </trkpt>
      <trkpt lat="44.14341" lon="5.84144">
        <ele>959</ele>
        <time>2022-09-22T09:09:11Z</time>
      </trkpt>
      <trkpt lat="44.14339" lon="5.84144">
        <ele>959</ele>
        <time>2022-09-22T09:09:12Z</time>
      </trkpt>
      <trkpt lat="44.14337" lon="5.84143">
        <ele>959</ele>
        <time>2022-09-22T09:09:13Z</time>
      </trkpt>
      <trkpt lat="44.14336" lon="5.84143">
        <ele>959</ele>
        <time>2022-09-22T09:09:14Z</time>
      </trkpt>
      <trkpt lat="44.14335" lon="5.84143">
        <ele>959</ele>
        <time>2022-09-22T09:09:15Z</time>
      </trkpt>
      <trkpt lat="44.14334" lon="5.84143">
        <ele>959</ele>
        <time>2022-09-22T09:09:16Z</time>
      </trkpt>
      <trkpt lat="44.14333" lon="5.84143">
        <ele>959</ele>
        <time>2022-09-22T09:09:17Z</time>
      </trkpt>
      <trkpt lat="44.14332" lon="5.84143">
        <ele>959</ele>
        <time>2022-09-22T09:09:18Z</time>
      </trkpt>
      <trkpt lat="44.14332" lon="5.84143">
        <ele>960</ele>
        <time>2022-09-22T09:09:19Z</time>
      </trkpt>
      <trkpt lat="44.14332" lon="5.84143">
        <ele>960</ele>
        <time>2022-09-22T09:09:20Z</time>
      </trkpt>
      <trkpt lat="44.14331" lon="5.84142">
        <ele>960</ele>
        <time>2022-09-22T09:09:21Z</time>
      </trkpt>
      <trkpt lat="44.1433" lon="5.84142">
        <ele>960</ele>
        <time>2022-09-22T09:09:22Z</time>
      </trkpt>
      <trkpt lat="44.14329" lon="5.84142">
        <ele>960</ele>
        <time>2022-09-22T09:09:23Z</time>
      </trkpt>
      <trkpt lat="44.14328" lon="5.84141">
        <ele>961</ele>
        <time>2022-09-22T09:09:24Z</time>
      </trkpt>
      <trkpt lat="44.14328" lon="5.84141">
        <ele>961</ele>
        <time>2022-09-22T09:09:25Z</time>
      </trkpt>
      <trkpt lat="44.14328" lon="5.84141">
        <ele>961</ele>
        <time>2022-09-22T09:09:26Z</time>
      </trkpt>
      <trkpt lat="44.14328" lon="5.84141">
        <ele>961</ele>
        <time>2022-09-22T09:09:27Z</time>
      </trkpt>
      <trkpt lat="44.14327" lon="5.8414">
        <ele>961</ele>
        <time>2022-09-22T09:09:28Z</time>
      </trkpt>
      <trkpt lat="44.14327" lon="5.84139">
        <ele>962</ele>
        <time>2022-09-22T09:09:29Z</time>
      </trkpt>
      <trkpt lat="44.14326" lon="5.84139">
        <ele>962</ele>
        <time>2022-09-22T09:09:30Z</time>
      </trkpt>
      <trkpt lat="44.14326" lon="5.84138">
        <ele>962</ele>
        <time>2022-09-22T09:09:31Z</time>
      </trkpt>
      <trkpt lat="44.14326" lon="5.84137">
        <ele>962</ele>
        <time>2022-09-22T09:09:32Z</time>
      </trkpt>
      <trkpt lat="44.14325" lon="5.84136">
        <ele>962</ele>
        <time>2022-09-22T09:09:33Z</time>
      </trkpt>
      <trkpt lat="44.14325" lon="5.84136">
        <ele>962</ele>
        <time>2022-09-22T09:09:34Z</time>
      </trkpt>
      <trkpt lat="44.14325" lon="5.84135">
        <ele>962</ele>
        <time>2022-09-22T09:09:35Z</time>
      </trkpt>
      <trkpt lat="44.14324" lon="5.84135">
        <ele>962</ele>
        <time>2022-09-22T09:09:36Z</time>
      </trkpt>
      <trkpt lat="44.14323" lon="5.84135">
        <ele>962</ele>
        <time>2022-09-22T09:09:37Z</time>
      </trkpt>
      <trkpt lat="44.14323" lon="5.84134">
        <ele>962</ele>
        <time>2022-09-22T09:09:38Z</time>
      </trkpt>
      <trkpt lat="44.14322" lon="5.84134">
        <ele>963</ele>
        <time>2022-09-22T09:09:39Z</time>
      </trkpt>
      <trkpt lat="44.14321" lon="5.84134">
        <ele>963</ele>
        <time>2022-09-22T09:09:40Z</time>
      </trkpt>
      <trkpt lat="44.1432" lon="5.84134">
        <ele>963</ele>
        <time>2022-09-22T09:09:41Z</time>
      </trkpt>
      <trkpt lat="44.1432" lon="5.84134">
        <ele>963</ele>
        <time>2022-09-22T09:09:42Z</time>
      </trkpt>
      <trkpt lat="44.14319" lon="5.84133">
        <ele>963</ele>
        <time>2022-09-22T09:09:43Z</time>
      </trkpt>
      <trkpt lat="44.14318" lon="5.84133">
        <ele>964</ele>
        <time>2022-09-22T09:09:44Z</time>
      </trkpt>
      <trkpt lat="44.14317" lon="5.84133">
        <ele>964</ele>
        <time>2022-09-22T09:09:45Z</time>
      </trkpt>
      <trkpt lat="44.14317" lon="5.84132">
        <ele>964</ele>
        <time>2022-09-22T09:09:46Z</time>
      </trkpt>
      <trkpt lat="44.14316" lon="5.84132">
        <ele>964</ele>
        <time>2022-09-22T09:09:47Z</time>
      </trkpt>
      <trkpt lat="44.14315" lon="5.84131">
        <ele>964</ele>
        <time>2022-09-22T09:09:48Z</time>
      </trkpt>
      <trkpt lat="44.14315" lon="5.84131">
        <ele>964</ele>
        <time>2022-09-22T09:09:49Z</time>
      </trkpt>
      <trkpt lat="44.14314" lon="5.8413">
        <ele>964</ele>
        <time>2022-09-22T09:09:50Z</time>
      </trkpt>
      <trkpt lat="44.14314" lon="5.8413">
        <ele>964</ele>
        <time>2022-09-22T09:09:51Z</time>
      </trkpt>
      <trkpt lat="44.14313" lon="5.8413">
        <ele>964</ele>
        <time>2022-09-22T09:09:52Z</time>
      </trkpt>
      <trkpt lat="44.14312" lon="5.84129">
        <ele>964</ele>
        <time>2022-09-22T09:09:53Z</time>
      </trkpt>
      <trkpt lat="44.14311" lon="5.84129">
        <ele>965</ele>
        <time>2022-09-22T09:09:54Z</time>
      </trkpt>
      <trkpt lat="44.14311" lon="5.84129">
        <ele>965</ele>
        <time>2022-09-22T09:09:55Z</time>
      </trkpt>
      <trkpt lat="44.1431" lon="5.84129">
        <ele>965</ele>
        <time>2022-09-22T09:09:56Z</time>
      </trkpt>
      <trkpt lat="44.14309" lon="5.84129">
        <ele>965</ele>
        <time>2022-09-22T09:09:57Z</time>
      </trkpt>
      <trkpt lat="44.14309" lon="5.84129">
        <ele>965</ele>
        <time>2022-09-22T09:09:58Z</time>
      </trkpt>
      <trkpt lat="44.14308" lon="5.84129">
        <ele>966</ele>
        <time>2022-09-22T09:09:59Z</time>
      </trkpt>
      <trkpt lat="44.14304" lon="5.84126">
        <ele>971</ele>
        <time>2022-09-22T09:10:35Z</time>
      </trkpt>
      <trkpt lat="44.14301" lon="5.84125">
        <ele>971</ele>
        <time>2022-09-22T09:10:36Z</time>
      </trkpt>
      <trkpt lat="44.14298" lon="5.84123">
        <ele>972</ele>
        <time>2022-09-22T09:10:37Z</time>
      </trkpt>
      <trkpt lat="44.14297" lon="5.84122">
        <ele>972</ele>
        <time>2022-09-22T09:10:38Z</time>
      </trkpt>
      <trkpt lat="44.14296" lon="5.8412">
        <ele>973</ele>
        <time>2022-09-22T09:10:39Z</time>
      </trkpt>
      <trkpt lat="44.14295" lon="5.84119">
        <ele>973</ele>
        <time>2022-09-22T09:10:40Z</time>
      </trkpt>
      <trkpt lat="44.14294" lon="5.84119">
        <ele>973</ele>
        <time>2022-09-22T09:10:41Z</time>
      </trkpt>
      <trkpt lat="44.14293" lon="5.84118">
        <ele>973</ele>
        <time>2022-09-22T09:10:42Z</time>
      </trkpt>
      <trkpt lat="44.14293" lon="5.84117">
        <ele>973</ele>
        <time>2022-09-22T09:10:43Z</time>
      </trkpt>
      <trkpt lat="44.14292" lon="5.84116">
        <ele>973</ele>
        <time>2022-09-22T09:10:44Z</time>
      </trkpt>
      <trkpt lat="44.14292" lon="5.84115">
        <ele>973</ele>
        <time>2022-09-22T09:10:45Z</time>
      </trkpt>
      <trkpt lat="44.14291" lon="5.84115">
        <ele>973</ele>
        <time>2022-09-22T09:10:46Z</time>
      </trkpt>
      <trkpt lat="44.14291" lon="5.84114">
        <ele>973</ele>
        <time>2022-09-22T09:10:47Z</time>
      </trkpt>
      <trkpt lat="44.1429" lon="5.84113">
        <ele>973</ele>
        <time>2022-09-22T09:10:48Z</time>
      </trkpt>
      <trkpt lat="44.1429" lon="5.84112">
        <ele>974</ele>
        <time>2022-09-22T09:10:49Z</time>
      </trkpt>
      <trkpt lat="44.1429" lon="5.84112">
        <ele>974</ele>
        <time>2022-09-22T09:10:50Z</time>
      </trkpt>
      <trkpt lat="44.1429" lon="5.84111">
        <ele>974</ele>
        <time>2022-09-22T09:10:51Z</time>
      </trkpt>
      <trkpt lat="44.14289" lon="5.84111">
        <ele>974</ele>
        <time>2022-09-22T09:10:52Z</time>
      </trkpt>
      <trkpt lat="44.14289" lon="5.8411">
        <ele>974</ele>
        <time>2022-09-22T09:10:53Z</time>
      </trkpt>
      <trkpt lat="44.14289" lon="5.84109">
        <ele>974</ele>
        <time>2022-09-22T09:10:54Z</time>
      </trkpt>
      <trkpt lat="44.14288" lon="5.84108">
        <ele>974</ele>
        <time>2022-09-22T09:10:55Z</time>
      </trkpt>
      <trkpt lat="44.14288" lon="5.84108">
        <ele>974</ele>
        <time>2022-09-22T09:10:56Z</time>
      </trkpt>
      <trkpt lat="44.14288" lon="5.84107">
        <ele>974</ele>
        <time>2022-09-22T09:10:57Z</time>
      </trkpt>
      <trkpt lat="44.14287" lon="5.84107">
        <ele>974</ele>
        <time>2022-09-22T09:10:58Z</time>
      </trkpt>
      <trkpt lat="44.14287" lon="5.84106">
        <ele>974</ele>
        <time>2022-09-22T09:10:59Z</time>
      </trkpt>
      <trkpt lat="44.14287" lon="5.84105">
        <ele>974</ele>
        <time>2022-09-22T09:11:00Z</time>
      </trkpt>
      <trkpt lat="44.14287" lon="5.84104">
        <ele>974</ele>
        <time>2022-09-22T09:11:01Z</time>
      </trkpt>
      <trkpt lat="44.14287" lon="5.84103">
        <ele>974</ele>
        <time>2022-09-22T09:11:02Z</time>
      </trkpt>
      <trkpt lat="44.14287" lon="5.84102">
        <ele>974</ele>
        <time>2022-09-22T09:11:03Z</time>
      </trkpt>
      <trkpt lat="44.14287" lon="5.841">
        <ele>975</ele>
        <time>2022-09-22T09:11:04Z</time>
      </trkpt>
      <trkpt lat="44.14286" lon="5.84099">
        <ele>975</ele>
        <time>2022-09-22T09:11:05Z</time>
      </trkpt>
      <trkpt lat="44.14286" lon="5.84098">
        <ele>975</ele>
        <time>2022-09-22T09:11:06Z</time>
      </trkpt>
      <trkpt lat="44.14285" lon="5.84097">
        <ele>975</ele>
        <time>2022-09-22T09:11:07Z</time>
      </trkpt>
      <trkpt lat="44.14284" lon="5.84097">
        <ele>975</ele>
        <time>2022-09-22T09:11:08Z</time>
      </trkpt>
      <trkpt lat="44.14284" lon="5.84096">
        <ele>975</ele>
        <time>2022-09-22T09:11:09Z</time>
      </trkpt>
      <trkpt lat="44.14283" lon="5.84095">
        <ele>975</ele>
        <time>2022-09-22T09:11:10Z</time>
      </trkpt>
      <trkpt lat="44.14282" lon="5.84095">
        <ele>975</ele>
        <time>2022-09-22T09:11:11Z</time>
      </trkpt>
      <trkpt lat="44.14281" lon="5.84094">
        <ele>975</ele>
        <time>2022-09-22T09:11:12Z</time>
      </trkpt>
      <trkpt lat="44.14281" lon="5.84093">
        <ele>975</ele>
        <time>2022-09-22T09:11:13Z</time>
      </trkpt>
      <trkpt lat="44.14278" lon="5.84092">
        <ele>976</ele>
        <time>2022-09-22T09:11:22Z</time>
      </trkpt>
      <trkpt lat="44.14277" lon="5.84091">
        <ele>976</ele>
        <time>2022-09-22T09:11:23Z</time>
      </trkpt>
      <trkpt lat="44.14276" lon="5.84089">
        <ele>977</ele>
        <time>2022-09-22T09:11:24Z</time>
      </trkpt>
      <trkpt lat="44.14275" lon="5.84089">
        <ele>977</ele>
        <time>2022-09-22T09:11:25Z</time>
      </trkpt>
      <trkpt lat="44.14274" lon="5.84088">
        <ele>977</ele>
        <time>2022-09-22T09:11:26Z</time>
      </trkpt>
      <trkpt lat="44.14273" lon="5.84088">
        <ele>977</ele>
        <time>2022-09-22T09:11:27Z</time>
      </trkpt>
      <trkpt lat="44.14273" lon="5.84087">
        <ele>977</ele>
        <time>2022-09-22T09:11:28Z</time>
      </trkpt>
      <trkpt lat="44.14272" lon="5.84087">
        <ele>977</ele>
        <time>2022-09-22T09:11:29Z</time>
      </trkpt>
      <trkpt lat="44.14267" lon="5.84088">
        <ele>980</ele>
        <time>2022-09-22T09:11:55Z</time>
      </trkpt>
      <trkpt lat="44.14264" lon="5.84089">
        <ele>980</ele>
        <time>2022-09-22T09:11:56Z</time>
      </trkpt>
      <trkpt lat="44.14262" lon="5.8409">
        <ele>980</ele>
        <time>2022-09-22T09:11:57Z</time>
      </trkpt>
      <trkpt lat="44.14261" lon="5.8409">
        <ele>980</ele>
        <time>2022-09-22T09:11:58Z</time>
      </trkpt>
      <trkpt lat="44.14259" lon="5.84091">
        <ele>981</ele>
        <time>2022-09-22T09:11:59Z</time>
      </trkpt>
      <trkpt lat="44.14258" lon="5.84092">
        <ele>981</ele>
        <time>2022-09-22T09:12:00Z</time>
      </trkpt>
      <trkpt lat="44.14256" lon="5.84092">
        <ele>981</ele>
        <time>2022-09-22T09:12:01Z</time>
      </trkpt>
      <trkpt lat="44.14255" lon="5.84093">
        <ele>981</ele>
        <time>2022-09-22T09:12:02Z</time>
      </trkpt>
      <trkpt lat="44.14254" lon="5.84093">
        <ele>981</ele>
        <time>2022-09-22T09:12:03Z</time>
      </trkpt>
      <trkpt lat="44.14252" lon="5.84093">
        <ele>981</ele>
        <time>2022-09-22T09:12:04Z</time>
      </trkpt>
      <trkpt lat="44.14251" lon="5.84094">
        <ele>981</ele>
        <time>2022-09-22T09:12:05Z</time>
      </trkpt>
      <trkpt lat="44.14251" lon="5.84094">
        <ele>981</ele>
        <time>2022-09-22T09:12:06Z</time>
      </trkpt>
      <trkpt lat="44.14251" lon="5.84094">
        <ele>981</ele>
        <time>2022-09-22T09:12:07Z</time>
      </trkpt>
      <trkpt lat="44.1425" lon="5.84094">
        <ele>981</ele>
        <time>2022-09-22T09:12:08Z</time>
      </trkpt>
      <trkpt lat="44.1425" lon="5.84094">
        <ele>982</ele>
        <time>2022-09-22T09:12:09Z</time>
      </trkpt>
      <trkpt lat="44.1425" lon="5.84095">
        <ele>982</ele>
        <time>2022-09-22T09:12:10Z</time>
      </trkpt>
      <trkpt lat="44.14249" lon="5.84096">
        <ele>982</ele>
        <time>2022-09-22T09:12:11Z</time>
      </trkpt>
      <trkpt lat="44.14248" lon="5.84096">
        <ele>982</ele>
        <time>2022-09-22T09:12:12Z</time>
      </trkpt>
      <trkpt lat="44.14248" lon="5.84097">
        <ele>982</ele>
        <time>2022-09-22T09:12:13Z</time>
      </trkpt>
      <trkpt lat="44.14247" lon="5.84098">
        <ele>983</ele>
        <time>2022-09-22T09:12:14Z</time>
      </trkpt>
      <trkpt lat="44.14247" lon="5.84101">
        <ele>983</ele>
        <time>2022-09-22T09:12:20Z</time>
      </trkpt>
      <trkpt lat="44.14247" lon="5.84102">
        <ele>983</ele>
        <time>2022-09-22T09:12:21Z</time>
      </trkpt>
      <trkpt lat="44.14246" lon="5.84103">
        <ele>983</ele>
        <time>2022-09-22T09:12:22Z</time>
      </trkpt>
      <trkpt lat="44.14246" lon="5.84104">
        <ele>983</ele>
        <time>2022-09-22T09:12:23Z</time>
      </trkpt>
      <trkpt lat="44.14246" lon="5.84105">
        <ele>984</ele>
        <time>2022-09-22T09:12:24Z</time>
      </trkpt>
      <trkpt lat="44.14246" lon="5.84105">
        <ele>984</ele>
        <time>2022-09-22T09:12:25Z</time>
      </trkpt>
      <trkpt lat="44.14245" lon="5.84106">
        <ele>984</ele>
        <time>2022-09-22T09:12:26Z</time>
      </trkpt>
      <trkpt lat="44.14245" lon="5.84106">
        <ele>984</ele>
        <time>2022-09-22T09:12:27Z</time>
      </trkpt>
      <trkpt lat="44.14245" lon="5.84107">
        <ele>984</ele>
        <time>2022-09-22T09:12:28Z</time>
      </trkpt>
      <trkpt lat="44.14245" lon="5.84108">
        <ele>985</ele>
        <time>2022-09-22T09:12:29Z</time>
      </trkpt>
      <trkpt lat="44.14244" lon="5.84108">
        <ele>985</ele>
        <time>2022-09-22T09:12:30Z</time>
      </trkpt>
      <trkpt lat="44.14243" lon="5.84109">
        <ele>985</ele>
        <time>2022-09-22T09:12:31Z</time>
      </trkpt>
      <trkpt lat="44.14243" lon="5.84109">
        <ele>985</ele>
        <time>2022-09-22T09:12:32Z</time>
      </trkpt>
      <trkpt lat="44.14242" lon="5.84109">
        <ele>985</ele>
        <time>2022-09-22T09:12:33Z</time>
      </trkpt>
      <trkpt lat="44.14242" lon="5.84109">
        <ele>985</ele>
        <time>2022-09-22T09:12:34Z</time>
      </trkpt>
      <trkpt lat="44.14242" lon="5.84109">
        <ele>985</ele>
        <time>2022-09-22T09:12:35Z</time>
      </trkpt>
      <trkpt lat="44.14241" lon="5.84109">
        <ele>985</ele>
        <time>2022-09-22T09:12:36Z</time>
      </trkpt>
      <trkpt lat="44.14241" lon="5.84109">
        <ele>985</ele>
        <time>2022-09-22T09:12:37Z</time>
      </trkpt>
      <trkpt lat="44.14241" lon="5.84109">
        <ele>985</ele>
        <time>2022-09-22T09:12:38Z</time>
      </trkpt>
      <trkpt lat="44.14241" lon="5.84109">
        <ele>986</ele>
        <time>2022-09-22T09:12:39Z</time>
      </trkpt>
      <trkpt lat="44.1424" lon="5.84109">
        <ele>986</ele>
        <time>2022-09-22T09:12:40Z</time>
      </trkpt>
      <trkpt lat="44.1424" lon="5.84108">
        <ele>986</ele>
        <time>2022-09-22T09:12:41Z</time>
      </trkpt>
      <trkpt lat="44.14239" lon="5.84108">
        <ele>986</ele>
        <time>2022-09-22T09:12:42Z</time>
      </trkpt>
      <trkpt lat="44.14239" lon="5.84108">
        <ele>986</ele>
        <time>2022-09-22T09:12:43Z</time>
      </trkpt>
      <trkpt lat="44.14233" lon="5.84107">
        <ele>991</ele>
        <time>2022-09-22T09:13:15Z</time>
      </trkpt>
      <trkpt lat="44.1423" lon="5.84106">
        <ele>991</ele>
        <time>2022-09-22T09:13:16Z</time>
      </trkpt>
      <trkpt lat="44.14227" lon="5.84105">
        <ele>991</ele>
        <time>2022-09-22T09:13:17Z</time>
      </trkpt>
      <trkpt lat="44.14225" lon="5.84104">
        <ele>991</ele>
        <time>2022-09-22T09:13:18Z</time>
      </trkpt>
      <trkpt lat="44.14223" lon="5.84104">
        <ele>991</ele>
        <time>2022-09-22T09:13:19Z</time>
      </trkpt>
      <trkpt lat="44.14221" lon="5.84103">
        <ele>992</ele>
        <time>2022-09-22T09:13:25Z</time>
      </trkpt>
      <trkpt lat="44.1422" lon="5.84103">
        <ele>992</ele>
        <time>2022-09-22T09:13:26Z</time>
      </trkpt>
      <trkpt lat="44.14218" lon="5.84103">
        <ele>992</ele>
        <time>2022-09-22T09:13:27Z</time>
      </trkpt>
      <trkpt lat="44.14218" lon="5.84103">
        <ele>992</ele>
        <time>2022-09-22T09:13:28Z</time>
      </trkpt>
      <trkpt lat="44.14217" lon="5.84102">
        <ele>992</ele>
        <time>2022-09-22T09:13:29Z</time>
      </trkpt>
      <trkpt lat="44.14216" lon="5.84102">
        <ele>992</ele>
        <time>2022-09-22T09:13:30Z</time>
      </trkpt>
      <trkpt lat="44.14215" lon="5.84101">
        <ele>992</ele>
        <time>2022-09-22T09:13:31Z</time>
      </trkpt>
      <trkpt lat="44.14214" lon="5.84101">
        <ele>992</ele>
        <time>2022-09-22T09:13:32Z</time>
      </trkpt>
      <trkpt lat="44.14213" lon="5.841">
        <ele>992</ele>
        <time>2022-09-22T09:13:33Z</time>
      </trkpt>
      <trkpt lat="44.14213" lon="5.841">
        <ele>993</ele>
        <time>2022-09-22T09:13:34Z</time>
      </trkpt>
      <trkpt lat="44.14213" lon="5.841">
        <ele>993</ele>
        <time>2022-09-22T09:13:35Z</time>
      </trkpt>
      <trkpt lat="44.14212" lon="5.841">
        <ele>993</ele>
        <time>2022-09-22T09:13:36Z</time>
      </trkpt>
      <trkpt lat="44.14212" lon="5.841">
        <ele>993</ele>
        <time>2022-09-22T09:13:37Z</time>
      </trkpt>
      <trkpt lat="44.14212" lon="5.84099">
        <ele>993</ele>
        <time>2022-09-22T09:13:38Z</time>
      </trkpt>
      <trkpt lat="44.14211" lon="5.84099">
        <ele>994</ele>
        <time>2022-09-22T09:13:39Z</time>
      </trkpt>
      <trkpt lat="44.14211" lon="5.84099">
        <ele>994</ele>
        <time>2022-09-22T09:13:40Z</time>
      </trkpt>
      <trkpt lat="44.1421" lon="5.84099">
        <ele>994</ele>
        <time>2022-09-22T09:13:41Z</time>
      </trkpt>
      <trkpt lat="44.14209" lon="5.84099">
        <ele>994</ele>
        <time>2022-09-22T09:13:42Z</time>
      </trkpt>
      <trkpt lat="44.14208" lon="5.84099">
        <ele>994</ele>
        <time>2022-09-22T09:13:43Z</time>
      </trkpt>
      <trkpt lat="44.14208" lon="5.841">
        <ele>994</ele>
        <time>2022-09-22T09:13:44Z</time>
      </trkpt>
      <trkpt lat="44.14207" lon="5.841">
        <ele>994</ele>
        <time>2022-09-22T09:13:45Z</time>
      </trkpt>
      <trkpt lat="44.14206" lon="5.84101">
        <ele>994</ele>
        <time>2022-09-22T09:13:46Z</time>
      </trkpt>
      <trkpt lat="44.14206" lon="5.84101">
        <ele>994</ele>
        <time>2022-09-22T09:13:47Z</time>
      </trkpt>
      <trkpt lat="44.14205" lon="5.84102">
        <ele>994</ele>
        <time>2022-09-22T09:13:48Z</time>
      </trkpt>
      <trkpt lat="44.14205" lon="5.84102">
        <ele>995</ele>
        <time>2022-09-22T09:13:49Z</time>
      </trkpt>
      <trkpt lat="44.14204" lon="5.84103">
        <ele>995</ele>
        <time>2022-09-22T09:13:50Z</time>
      </trkpt>
      <trkpt lat="44.14204" lon="5.84103">
        <ele>995</ele>
        <time>2022-09-22T09:13:51Z</time>
      </trkpt>
      <trkpt lat="44.14203" lon="5.84104">
        <ele>995</ele>
        <time>2022-09-22T09:13:52Z</time>
      </trkpt>
      <trkpt lat="44.14203" lon="5.84105">
        <ele>995</ele>
        <time>2022-09-22T09:13:53Z</time>
      </trkpt>
      <trkpt lat="44.14202" lon="5.84105">
        <ele>995</ele>
        <time>2022-09-22T09:13:54Z</time>
      </trkpt>
      <trkpt lat="44.14202" lon="5.84105">
        <ele>995</ele>
        <time>2022-09-22T09:13:55Z</time>
      </trkpt>
      <trkpt lat="44.14202" lon="5.84106">
        <ele>995</ele>
        <time>2022-09-22T09:13:56Z</time>
      </trkpt>
      <trkpt lat="44.14201" lon="5.84106">
        <ele>995</ele>
        <time>2022-09-22T09:13:57Z</time>
      </trkpt>
      <trkpt lat="44.14201" lon="5.84107">
        <ele>995</ele>
        <time>2022-09-22T09:13:58Z</time>
      </trkpt>
      <trkpt lat="44.142" lon="5.84108">
        <ele>996</ele>
        <time>2022-09-22T09:13:59Z</time>
      </trkpt>
      <trkpt lat="44.142" lon="5.84108">
        <ele>996</ele>
        <time>2022-09-22T09:14:00Z</time>
      </trkpt>
      <trkpt lat="44.14199" lon="5.84109">
        <ele>996</ele>
        <time>2022-09-22T09:14:01Z</time>
      </trkpt>
      <trkpt lat="44.14199" lon="5.8411">
        <ele>996</ele>
        <time>2022-09-22T09:14:02Z</time>
      </trkpt>
      <trkpt lat="44.14198" lon="5.8411">
        <ele>996</ele>
        <time>2022-09-22T09:14:03Z</time>
      </trkpt>
      <trkpt lat="44.14198" lon="5.84111">
        <ele>997</ele>
        <time>2022-09-22T09:14:04Z</time>
      </trkpt>
      <trkpt lat="44.14197" lon="5.84111">
        <ele>997</ele>
        <time>2022-09-22T09:14:05Z</time>
      </trkpt>
      <trkpt lat="44.14196" lon="5.84112">
        <ele>997</ele>
        <time>2022-09-22T09:14:06Z</time>
      </trkpt>
      <trkpt lat="44.14196" lon="5.84112">
        <ele>997</ele>
        <time>2022-09-22T09:14:07Z</time>
      </trkpt>
      <trkpt lat="44.14195" lon="5.84113">
        <ele>997</ele>
        <time>2022-09-22T09:14:08Z</time>
      </trkpt>
      <trkpt lat="44.14195" lon="5.84113">
        <ele>998</ele>
        <time>2022-09-22T09:14:09Z</time>
      </trkpt>
      <trkpt lat="44.14194" lon="5.84114">
        <ele>998</ele>
        <time>2022-09-22T09:14:10Z</time>
      </trkpt>
      <trkpt lat="44.14194" lon="5.84115">
        <ele>998</ele>
        <time>2022-09-22T09:14:11Z</time>
      </trkpt>
      <trkpt lat="44.14194" lon="5.84115">
        <ele>998</ele>
        <time>2022-09-22T09:14:12Z</time>
      </trkpt>
      <trkpt lat="44.14193" lon="5.84116">
        <ele>998</ele>
        <time>2022-09-22T09:14:13Z</time>
      </trkpt>
      <trkpt lat="44.14193" lon="5.84117">
        <ele>998</ele>
        <time>2022-09-22T09:14:14Z</time>
      </trkpt>
      <trkpt lat="44.14193" lon="5.84117">
        <ele>998</ele>
        <time>2022-09-22T09:14:15Z</time>
      </trkpt>
      <trkpt lat="44.14192" lon="5.84118">
        <ele>998</ele>
        <time>2022-09-22T09:14:16Z</time>
      </trkpt>
      <trkpt lat="44.14189" lon="5.84121">
        <ele>1001</ele>
        <time>2022-09-22T09:14:37Z</time>
      </trkpt>
      <trkpt lat="44.14188" lon="5.84122">
        <ele>1001</ele>
        <time>2022-09-22T09:14:38Z</time>
      </trkpt>
      <trkpt lat="44.14186" lon="5.84123">
        <ele>1002</ele>
        <time>2022-09-22T09:14:39Z</time>
      </trkpt>
      <trkpt lat="44.14185" lon="5.84124">
        <ele>1002</ele>
        <time>2022-09-22T09:14:40Z</time>
      </trkpt>
      <trkpt lat="44.14184" lon="5.84125">
        <ele>1002</ele>
        <time>2022-09-22T09:14:41Z</time>
      </trkpt>
      <trkpt lat="44.14183" lon="5.84125">
        <ele>1002</ele>
        <time>2022-09-22T09:14:42Z</time>
      </trkpt>
      <trkpt lat="44.14183" lon="5.84125">
        <ele>1002</ele>
        <time>2022-09-22T09:14:43Z</time>
      </trkpt>
      <trkpt lat="44.14182" lon="5.84125">
        <ele>1002</ele>
        <time>2022-09-22T09:14:44Z</time>
      </trkpt>
      <trkpt lat="44.14181" lon="5.84125">
        <ele>1002</ele>
        <time>2022-09-22T09:14:45Z</time>
      </trkpt>
      <trkpt lat="44.1418" lon="5.84125">
        <ele>1002</ele>
        <time>2022-09-22T09:14:46Z</time>
      </trkpt>
      <trkpt lat="44.14179" lon="5.84125">
        <ele>1002</ele>
        <time>2022-09-22T09:14:47Z</time>
      </trkpt>
      <trkpt lat="44.14178" lon="5.84125">
        <ele>1002</ele>
        <time>2022-09-22T09:14:48Z</time>
      </trkpt>
      <trkpt lat="44.14177" lon="5.84124">
        <ele>1003</ele>
        <time>2022-09-22T09:14:49Z</time>
      </trkpt>
      <trkpt lat="44.14177" lon="5.84124">
        <ele>1003</ele>
        <time>2022-09-22T09:14:50Z</time>
      </trkpt>
      <trkpt lat="44.14176" lon="5.84124">
        <ele>1003</ele>
        <time>2022-09-22T09:14:58Z</time>
      </trkpt>
      <trkpt lat="44.14175" lon="5.84124">
        <ele>1004</ele>
        <time>2022-09-22T09:14:59Z</time>
      </trkpt>
      <trkpt lat="44.14174" lon="5.84124">
        <ele>1004</ele>
        <time>2022-09-22T09:15:00Z</time>
      </trkpt>
      <trkpt lat="44.14173" lon="5.84124">
        <ele>1004</ele>
        <time>2022-09-22T09:15:01Z</time>
      </trkpt>
      <trkpt lat="44.14172" lon="5.84124">
        <ele>1004</ele>
        <time>2022-09-22T09:15:02Z</time>
      </trkpt>
      <trkpt lat="44.14168" lon="5.84126">
        <ele>1006</ele>
        <time>2022-09-22T09:15:21Z</time>
      </trkpt>
      <trkpt lat="44.14166" lon="5.84126">
        <ele>1006</ele>
        <time>2022-09-22T09:15:22Z</time>
      </trkpt>
      <trkpt lat="44.14164" lon="5.84127">
        <ele>1006</ele>
        <time>2022-09-22T09:15:23Z</time>
      </trkpt>
      <trkpt lat="44.14163" lon="5.84127">
        <ele>1006</ele>
        <time>2022-09-22T09:15:24Z</time>
      </trkpt>
      <trkpt lat="44.14162" lon="5.84127">
        <ele>1006</ele>
        <time>2022-09-22T09:15:25Z</time>
      </trkpt>
      <trkpt lat="44.14162" lon="5.84127">
        <ele>1006</ele>
        <time>2022-09-22T09:15:26Z</time>
      </trkpt>
      <trkpt lat="44.14161" lon="5.84127">
        <ele>1006</ele>
        <time>2022-09-22T09:15:27Z</time>
      </trkpt>
      <trkpt lat="44.14161" lon="5.84127">
        <ele>1006</ele>
        <time>2022-09-22T09:15:28Z</time>
      </trkpt>
      <trkpt lat="44.1416" lon="5.84127">
        <ele>1007</ele>
        <time>2022-09-22T09:15:29Z</time>
      </trkpt>
      <trkpt lat="44.1416" lon="5.84128">
        <ele>1007</ele>
        <time>2022-09-22T09:15:30Z</time>
      </trkpt>
      <trkpt lat="44.1416" lon="5.84128">
        <ele>1007</ele>
        <time>2022-09-22T09:15:31Z</time>
      </trkpt>
      <trkpt lat="44.14158" lon="5.84128">
        <ele>1007</ele>
        <time>2022-09-22T09:15:32Z</time>
      </trkpt>
      <trkpt lat="44.14157" lon="5.84128">
        <ele>1007</ele>
        <time>2022-09-22T09:15:33Z</time>
      </trkpt>
      <trkpt lat="44.14156" lon="5.84128">
        <ele>1008</ele>
        <time>2022-09-22T09:15:34Z</time>
      </trkpt>
      <trkpt lat="44.14155" lon="5.84128">
        <ele>1008</ele>
        <time>2022-09-22T09:15:35Z</time>
      </trkpt>
      <trkpt lat="44.14154" lon="5.84129">
        <ele>1008</ele>
        <time>2022-09-22T09:15:36Z</time>
      </trkpt>
      <trkpt lat="44.14154" lon="5.84129">
        <ele>1008</ele>
        <time>2022-09-22T09:15:37Z</time>
      </trkpt>
      <trkpt lat="44.14153" lon="5.84129">
        <ele>1008</ele>
        <time>2022-09-22T09:15:38Z</time>
      </trkpt>
      <trkpt lat="44.14153" lon="5.84129">
        <ele>1008</ele>
        <time>2022-09-22T09:15:39Z</time>
      </trkpt>
      <trkpt lat="44.14152" lon="5.84129">
        <ele>1008</ele>
        <time>2022-09-22T09:15:40Z</time>
      </trkpt>
      <trkpt lat="44.14151" lon="5.84129">
        <ele>1008</ele>
        <time>2022-09-22T09:15:41Z</time>
      </trkpt>
      <trkpt lat="44.14149" lon="5.84129">
        <ele>1008</ele>
        <time>2022-09-22T09:15:42Z</time>
      </trkpt>
      <trkpt lat="44.14148" lon="5.84129">
        <ele>1008</ele>
        <time>2022-09-22T09:15:43Z</time>
      </trkpt>
      <trkpt lat="44.14147" lon="5.84129">
        <ele>1009</ele>
        <time>2022-09-22T09:15:44Z</time>
      </trkpt>
      <trkpt lat="44.14146" lon="5.84129">
        <ele>1009</ele>
        <time>2022-09-22T09:15:45Z</time>
      </trkpt>
      <trkpt lat="44.14145" lon="5.84129">
        <ele>1009</ele>
        <time>2022-09-22T09:15:46Z</time>
      </trkpt>
      <trkpt lat="44.14144" lon="5.8413">
        <ele>1009</ele>
        <time>2022-09-22T09:15:47Z</time>
      </trkpt>
      <trkpt lat="44.14143" lon="5.8413">
        <ele>1009</ele>
        <time>2022-09-22T09:15:48Z</time>
      </trkpt>
      <trkpt lat="44.14142" lon="5.84131">
        <ele>1009</ele>
        <time>2022-09-22T09:15:49Z</time>
      </trkpt>
      <trkpt lat="44.14142" lon="5.84131">
        <ele>1009</ele>
        <time>2022-09-22T09:15:50Z</time>
      </trkpt>
      <trkpt lat="44.14141" lon="5.84131">
        <ele>1009</ele>
        <time>2022-09-22T09:15:51Z</time>
      </trkpt>
      <trkpt lat="44.1414" lon="5.84131">
        <ele>1009</ele>
        <time>2022-09-22T09:15:52Z</time>
      </trkpt>
      <trkpt lat="44.14137" lon="5.84131">
        <ele>1011</ele>
        <time>2022-09-22T09:16:00Z</time>
      </trkpt>
      <trkpt lat="44.14136" lon="5.8413">
        <ele>1011</ele>
        <time>2022-09-22T09:16:01Z</time>
      </trkpt>
      <trkpt lat="44.14134" lon="5.84129">
        <ele>1011</ele>
        <time>2022-09-22T09:16:02Z</time>
      </trkpt>
      <trkpt lat="44.14134" lon="5.84128">
        <ele>1011</ele>
        <time>2022-09-22T09:16:03Z</time>
      </trkpt>
      <trkpt lat="44.14133" lon="5.84127">
        <ele>1011</ele>
        <time>2022-09-22T09:16:04Z</time>
      </trkpt>
      <trkpt lat="44.14132" lon="5.84126">
        <ele>1011</ele>
        <time>2022-09-22T09:16:05Z</time>
      </trkpt>
      <trkpt lat="44.14131" lon="5.84126">
        <ele>1011</ele>
        <time>2022-09-22T09:16:06Z</time>
      </trkpt>
      <trkpt lat="44.14131" lon="5.84125">
        <ele>1011</ele>
        <time>2022-09-22T09:16:07Z</time>
      </trkpt>
      <trkpt lat="44.1413" lon="5.84125">
        <ele>1011</ele>
        <time>2022-09-22T09:16:08Z</time>
      </trkpt>
      <trkpt lat="44.14129" lon="5.84125">
        <ele>1012</ele>
        <time>2022-09-22T09:16:09Z</time>
      </trkpt>
      <trkpt lat="44.14129" lon="5.84124">
        <ele>1012</ele>
        <time>2022-09-22T09:16:10Z</time>
      </trkpt>
      <trkpt lat="44.14128" lon="5.84124">
        <ele>1012</ele>
        <time>2022-09-22T09:16:11Z</time>
      </trkpt>
      <trkpt lat="44.14128" lon="5.84124">
        <ele>1012</ele>
        <time>2022-09-22T09:16:12Z</time>
      </trkpt>
      <trkpt lat="44.14127" lon="5.84124">
        <ele>1012</ele>
        <time>2022-09-22T09:16:13Z</time>
      </trkpt>
      <trkpt lat="44.14127" lon="5.84124">
        <ele>1013</ele>
        <time>2022-09-22T09:16:14Z</time>
      </trkpt>
      <trkpt lat="44.14126" lon="5.84123">
        <ele>1013</ele>
        <time>2022-09-22T09:16:15Z</time>
      </trkpt>
      <trkpt lat="44.14125" lon="5.84123">
        <ele>1013</ele>
        <time>2022-09-22T09:16:16Z</time>
      </trkpt>
      <trkpt lat="44.14125" lon="5.84123">
        <ele>1013</ele>
        <time>2022-09-22T09:16:17Z</time>
      </trkpt>
      <trkpt lat="44.14124" lon="5.84122">
        <ele>1013</ele>
        <time>2022-09-22T09:16:18Z</time>
      </trkpt>
      <trkpt lat="44.14123" lon="5.84122">
        <ele>1013</ele>
        <time>2022-09-22T09:16:19Z</time>
      </trkpt>
      <trkpt lat="44.14122" lon="5.84121">
        <ele>1013</ele>
        <time>2022-09-22T09:16:20Z</time>
      </trkpt>
      <trkpt lat="44.14122" lon="5.84121">
        <ele>1013</ele>
        <time>2022-09-22T09:16:21Z</time>
      </trkpt>
      <trkpt lat="44.14121" lon="5.8412">
        <ele>1013</ele>
        <time>2022-09-22T09:16:22Z</time>
      </trkpt>
      <trkpt lat="44.1412" lon="5.84119">
        <ele>1013</ele>
        <time>2022-09-22T09:16:23Z</time>
      </trkpt>
      <trkpt lat="44.14119" lon="5.84119">
        <ele>1014</ele>
        <time>2022-09-22T09:16:24Z</time>
      </trkpt>
      <trkpt lat="44.14118" lon="5.84118">
        <ele>1014</ele>
        <time>2022-09-22T09:16:25Z</time>
      </trkpt>
      <trkpt lat="44.14118" lon="5.84118">
        <ele>1014</ele>
        <time>2022-09-22T09:16:26Z</time>
      </trkpt>
      <trkpt lat="44.14117" lon="5.84118">
        <ele>1015</ele>
        <time>2022-09-22T09:16:27Z</time>
      </trkpt>
      <trkpt lat="44.14116" lon="5.84117">
        <ele>1015</ele>
        <time>2022-09-22T09:16:28Z</time>
      </trkpt>
      <trkpt lat="44.14115" lon="5.84117">
        <ele>1016</ele>
        <time>2022-09-22T09:16:29Z</time>
      </trkpt>
      <trkpt lat="44.14115" lon="5.84116">
        <ele>1016</ele>
        <time>2022-09-22T09:16:30Z</time>
      </trkpt>
      <trkpt lat="44.14114" lon="5.84116">
        <ele>1016</ele>
        <time>2022-09-22T09:16:31Z</time>
      </trkpt>
      <trkpt lat="44.14113" lon="5.84115">
        <ele>1016</ele>
        <time>2022-09-22T09:16:32Z</time>
      </trkpt>
      <trkpt lat="44.14113" lon="5.84115">
        <ele>1016</ele>
        <time>2022-09-22T09:16:33Z</time>
      </trkpt>
      <trkpt lat="44.14113" lon="5.84114">
        <ele>1016</ele>
        <time>2022-09-22T09:16:34Z</time>
      </trkpt>
      <trkpt lat="44.14112" lon="5.84114">
        <ele>1016</ele>
        <time>2022-09-22T09:16:35Z</time>
      </trkpt>
      <trkpt lat="44.14111" lon="5.84113">
        <ele>1016</ele>
        <time>2022-09-22T09:16:36Z</time>
      </trkpt>
      <trkpt lat="44.14111" lon="5.84112">
        <ele>1016</ele>
        <time>2022-09-22T09:16:37Z</time>
      </trkpt>
      <trkpt lat="44.1411" lon="5.84112">
        <ele>1016</ele>
        <time>2022-09-22T09:16:38Z</time>
      </trkpt>
      <trkpt lat="44.1411" lon="5.84112">
        <ele>1016</ele>
        <time>2022-09-22T09:16:39Z</time>
      </trkpt>
      <trkpt lat="44.14109" lon="5.84111">
        <ele>1016</ele>
        <time>2022-09-22T09:16:40Z</time>
      </trkpt>
      <trkpt lat="44.14109" lon="5.84111">
        <ele>1016</ele>
        <time>2022-09-22T09:16:41Z</time>
      </trkpt>
      <trkpt lat="44.14108" lon="5.8411">
        <ele>1016</ele>
        <time>2022-09-22T09:16:42Z</time>
      </trkpt>
      <trkpt lat="44.14107" lon="5.84109">
        <ele>1016</ele>
        <time>2022-09-22T09:16:43Z</time>
      </trkpt>
      <trkpt lat="44.14107" lon="5.84109">
        <ele>1017</ele>
        <time>2022-09-22T09:16:44Z</time>
      </trkpt>
      <trkpt lat="44.14106" lon="5.84109">
        <ele>1017</ele>
        <time>2022-09-22T09:16:45Z</time>
      </trkpt>
      <trkpt lat="44.14105" lon="5.84108">
        <ele>1017</ele>
        <time>2022-09-22T09:16:46Z</time>
      </trkpt>
      <trkpt lat="44.14105" lon="5.84108">
        <ele>1017</ele>
        <time>2022-09-22T09:16:47Z</time>
      </trkpt>
      <trkpt lat="44.14104" lon="5.84108">
        <ele>1017</ele>
        <time>2022-09-22T09:16:48Z</time>
      </trkpt>
      <trkpt lat="44.14103" lon="5.84108">
        <ele>1018</ele>
        <time>2022-09-22T09:16:49Z</time>
      </trkpt>
      <trkpt lat="44.14103" lon="5.84108">
        <ele>1018</ele>
        <time>2022-09-22T09:16:50Z</time>
      </trkpt>
      <trkpt lat="44.14102" lon="5.84109">
        <ele>1018</ele>
        <time>2022-09-22T09:16:51Z</time>
      </trkpt>
      <trkpt lat="44.14102" lon="5.84109">
        <ele>1018</ele>
        <time>2022-09-22T09:16:52Z</time>
      </trkpt>
      <trkpt lat="44.14101" lon="5.84109">
        <ele>1018</ele>
        <time>2022-09-22T09:16:53Z</time>
      </trkpt>
      <trkpt lat="44.141" lon="5.8411">
        <ele>1018</ele>
        <time>2022-09-22T09:16:54Z</time>
      </trkpt>
      <trkpt lat="44.141" lon="5.8411">
        <ele>1018</ele>
        <time>2022-09-22T09:16:55Z</time>
      </trkpt>
      <trkpt lat="44.141" lon="5.8411">
        <ele>1018</ele>
        <time>2022-09-22T09:16:56Z</time>
      </trkpt>
      <trkpt lat="44.14099" lon="5.8411">
        <ele>1018</ele>
        <time>2022-09-22T09:16:57Z</time>
      </trkpt>
      <trkpt lat="44.14098" lon="5.84111">
        <ele>1018</ele>
        <time>2022-09-22T09:16:58Z</time>
      </trkpt>
      <trkpt lat="44.14098" lon="5.84111">
        <ele>1019</ele>
        <time>2022-09-22T09:16:59Z</time>
      </trkpt>
      <trkpt lat="44.14097" lon="5.84111">
        <ele>1019</ele>
        <time>2022-09-22T09:17:00Z</time>
      </trkpt>
      <trkpt lat="44.14097" lon="5.84112">
        <ele>1019</ele>
        <time>2022-09-22T09:17:01Z</time>
      </trkpt>
      <trkpt lat="44.14096" lon="5.84112">
        <ele>1019</ele>
        <time>2022-09-22T09:17:02Z</time>
      </trkpt>
      <trkpt lat="44.14095" lon="5.84113">
        <ele>1019</ele>
        <time>2022-09-22T09:17:03Z</time>
      </trkpt>
      <trkpt lat="44.14095" lon="5.84113">
        <ele>1020</ele>
        <time>2022-09-22T09:17:04Z</time>
      </trkpt>
      <trkpt lat="44.14094" lon="5.84113">
        <ele>1020</ele>
        <time>2022-09-22T09:17:05Z</time>
      </trkpt>
      <trkpt lat="44.14094" lon="5.84114">
        <ele>1020</ele>
        <time>2022-09-22T09:17:06Z</time>
      </trkpt>
      <trkpt lat="44.14093" lon="5.84114">
        <ele>1020</ele>
        <time>2022-09-22T09:17:07Z</time>
      </trkpt>
      <trkpt lat="44.14092" lon="5.84114">
        <ele>1020</ele>
        <time>2022-09-22T09:17:08Z</time>
      </trkpt>
      <trkpt lat="44.14091" lon="5.84114">
        <ele>1020</ele>
        <time>2022-09-22T09:17:09Z</time>
      </trkpt>
      <trkpt lat="44.14091" lon="5.84114">
        <ele>1020</ele>
        <time>2022-09-22T09:17:10Z</time>
      </trkpt>
      <trkpt lat="44.1409" lon="5.84114">
        <ele>1020</ele>
        <time>2022-09-22T09:17:11Z</time>
      </trkpt>
      <trkpt lat="44.14089" lon="5.84114">
        <ele>1020</ele>
        <time>2022-09-22T09:17:12Z</time>
      </trkpt>
      <trkpt lat="44.14089" lon="5.84114">
        <ele>1020</ele>
        <time>2022-09-22T09:17:13Z</time>
      </trkpt>
      <trkpt lat="44.14088" lon="5.84114">
        <ele>1021</ele>
        <time>2022-09-22T09:17:14Z</time>
      </trkpt>
      <trkpt lat="44.14088" lon="5.84114">
        <ele>1021</ele>
        <time>2022-09-22T09:17:15Z</time>
      </trkpt>
      <trkpt lat="44.14087" lon="5.84114">
        <ele>1021</ele>
        <time>2022-09-22T09:17:16Z</time>
      </trkpt>
      <trkpt lat="44.14087" lon="5.84113">
        <ele>1021</ele>
        <time>2022-09-22T09:17:17Z</time>
      </trkpt>
      <trkpt lat="44.14086" lon="5.84113">
        <ele>1021</ele>
        <time>2022-09-22T09:17:18Z</time>
      </trkpt>
      <trkpt lat="44.14085" lon="5.84113">
        <ele>1021</ele>
        <time>2022-09-22T09:17:19Z</time>
      </trkpt>
      <trkpt lat="44.14085" lon="5.84113">
        <ele>1021</ele>
        <time>2022-09-22T09:17:20Z</time>
      </trkpt>
      <trkpt lat="44.14084" lon="5.84113">
        <ele>1021</ele>
        <time>2022-09-22T09:17:21Z</time>
      </trkpt>
      <trkpt lat="44.14083" lon="5.84113">
        <ele>1021</ele>
        <time>2022-09-22T09:17:22Z</time>
      </trkpt>
      <trkpt lat="44.14082" lon="5.84113">
        <ele>1021</ele>
        <time>2022-09-22T09:17:23Z</time>
      </trkpt>
      <trkpt lat="44.14082" lon="5.84113">
        <ele>1022</ele>
        <time>2022-09-22T09:17:24Z</time>
      </trkpt>
      <trkpt lat="44.14081" lon="5.84113">
        <ele>1022</ele>
        <time>2022-09-22T09:17:25Z</time>
      </trkpt>
      <trkpt lat="44.14081" lon="5.84113">
        <ele>1022</ele>
        <time>2022-09-22T09:17:26Z</time>
      </trkpt>
      <trkpt lat="44.1408" lon="5.84113">
        <ele>1022</ele>
        <time>2022-09-22T09:17:27Z</time>
      </trkpt>
      <trkpt lat="44.1408" lon="5.84113">
        <ele>1022</ele>
        <time>2022-09-22T09:17:28Z</time>
      </trkpt>
      <trkpt lat="44.14079" lon="5.84114">
        <ele>1022</ele>
        <time>2022-09-22T09:17:29Z</time>
      </trkpt>
      <trkpt lat="44.14078" lon="5.84115">
        <ele>1022</ele>
        <time>2022-09-22T09:17:30Z</time>
      </trkpt>
      <trkpt lat="44.14077" lon="5.84116">
        <ele>1022</ele>
        <time>2022-09-22T09:17:31Z</time>
      </trkpt>
      <trkpt lat="44.14077" lon="5.84117">
        <ele>1022</ele>
        <time>2022-09-22T09:17:32Z</time>
      </trkpt>
      <trkpt lat="44.14076" lon="5.84118">
        <ele>1022</ele>
        <time>2022-09-22T09:17:33Z</time>
      </trkpt>
      <trkpt lat="44.14076" lon="5.84118">
        <ele>1023</ele>
        <time>2022-09-22T09:17:34Z</time>
      </trkpt>
      <trkpt lat="44.14075" lon="5.84119">
        <ele>1023</ele>
        <time>2022-09-22T09:17:35Z</time>
      </trkpt>
      <trkpt lat="44.14074" lon="5.84119">
        <ele>1023</ele>
        <time>2022-09-22T09:17:36Z</time>
      </trkpt>
      <trkpt lat="44.14073" lon="5.8412">
        <ele>1023</ele>
        <time>2022-09-22T09:17:37Z</time>
      </trkpt>
      <trkpt lat="44.14072" lon="5.84121">
        <ele>1023</ele>
        <time>2022-09-22T09:17:38Z</time>
      </trkpt>
      <trkpt lat="44.14071" lon="5.84121">
        <ele>1024</ele>
        <time>2022-09-22T09:17:39Z</time>
      </trkpt>
      <trkpt lat="44.14071" lon="5.84122">
        <ele>1024</ele>
        <time>2022-09-22T09:17:40Z</time>
      </trkpt>
      <trkpt lat="44.1407" lon="5.84122">
        <ele>1024</ele>
        <time>2022-09-22T09:17:41Z</time>
      </trkpt>
      <trkpt lat="44.1407" lon="5.84123">
        <ele>1024</ele>
        <time>2022-09-22T09:17:42Z</time>
      </trkpt>
      <trkpt lat="44.1407" lon="5.84123">
        <ele>1024</ele>
        <time>2022-09-22T09:17:43Z</time>
      </trkpt>
      <trkpt lat="44.14069" lon="5.84123">
        <ele>1024</ele>
        <time>2022-09-22T09:17:44Z</time>
      </trkpt>
      <trkpt lat="44.14069" lon="5.84124">
        <ele>1024</ele>
        <time>2022-09-22T09:17:45Z</time>
      </trkpt>
      <trkpt lat="44.14069" lon="5.84124">
        <ele>1024</ele>
        <time>2022-09-22T09:17:46Z</time>
      </trkpt>
      <trkpt lat="44.14068" lon="5.84124">
        <ele>1024</ele>
        <time>2022-09-22T09:17:47Z</time>
      </trkpt>
      <trkpt lat="44.14067" lon="5.84125">
        <ele>1024</ele>
        <time>2022-09-22T09:17:48Z</time>
      </trkpt>
      <trkpt lat="44.14066" lon="5.84125">
        <ele>1025</ele>
        <time>2022-09-22T09:17:49Z</time>
      </trkpt>
      <trkpt lat="44.14065" lon="5.84125">
        <ele>1025</ele>
        <time>2022-09-22T09:17:50Z</time>
      </trkpt>
      <trkpt lat="44.14065" lon="5.84125">
        <ele>1025</ele>
        <time>2022-09-22T09:17:51Z</time>
      </trkpt>
      <trkpt lat="44.14064" lon="5.84125">
        <ele>1025</ele>
        <time>2022-09-22T09:17:52Z</time>
      </trkpt>
      <trkpt lat="44.14064" lon="5.84126">
        <ele>1025</ele>
        <time>2022-09-22T09:17:53Z</time>
      </trkpt>
      <trkpt lat="44.14063" lon="5.84126">
        <ele>1025</ele>
        <time>2022-09-22T09:17:54Z</time>
      </trkpt>
      <trkpt lat="44.14063" lon="5.84127">
        <ele>1025</ele>
        <time>2022-09-22T09:17:55Z</time>
      </trkpt>
      <trkpt lat="44.14062" lon="5.84128">
        <ele>1025</ele>
        <time>2022-09-22T09:17:56Z</time>
      </trkpt>
      <trkpt lat="44.14062" lon="5.84128">
        <ele>1025</ele>
        <time>2022-09-22T09:17:57Z</time>
      </trkpt>
      <trkpt lat="44.14061" lon="5.84129">
        <ele>1025</ele>
        <time>2022-09-22T09:17:58Z</time>
      </trkpt>
      <trkpt lat="44.14061" lon="5.84129">
        <ele>1026</ele>
        <time>2022-09-22T09:17:59Z</time>
      </trkpt>
      <trkpt lat="44.1406" lon="5.8413">
        <ele>1026</ele>
        <time>2022-09-22T09:18:00Z</time>
      </trkpt>
      <trkpt lat="44.14059" lon="5.8413">
        <ele>1026</ele>
        <time>2022-09-22T09:18:01Z</time>
      </trkpt>
      <trkpt lat="44.14058" lon="5.84131">
        <ele>1026</ele>
        <time>2022-09-22T09:18:02Z</time>
      </trkpt>
      <trkpt lat="44.14057" lon="5.84131">
        <ele>1026</ele>
        <time>2022-09-22T09:18:03Z</time>
      </trkpt>
      <trkpt lat="44.14056" lon="5.84133">
        <ele>1027</ele>
        <time>2022-09-22T09:18:10Z</time>
      </trkpt>
      <trkpt lat="44.14055" lon="5.84134">
        <ele>1027</ele>
        <time>2022-09-22T09:18:11Z</time>
      </trkpt>
      <trkpt lat="44.14055" lon="5.84135">
        <ele>1027</ele>
        <time>2022-09-22T09:18:12Z</time>
      </trkpt>
      <trkpt lat="44.14054" lon="5.84136">
        <ele>1027</ele>
        <time>2022-09-22T09:18:13Z</time>
      </trkpt>
      <trkpt lat="44.14054" lon="5.84136">
        <ele>1028</ele>
        <time>2022-09-22T09:18:14Z</time>
      </trkpt>
      <trkpt lat="44.14053" lon="5.84137">
        <ele>1028</ele>
        <time>2022-09-22T09:18:15Z</time>
      </trkpt>
      <trkpt lat="44.14053" lon="5.84137">
        <ele>1028</ele>
        <time>2022-09-22T09:18:16Z</time>
      </trkpt>
      <trkpt lat="44.14053" lon="5.84137">
        <ele>1028</ele>
        <time>2022-09-22T09:18:17Z</time>
      </trkpt>
      <trkpt lat="44.14052" lon="5.84138">
        <ele>1028</ele>
        <time>2022-09-22T09:18:18Z</time>
      </trkpt>
      <trkpt lat="44.14051" lon="5.84138">
        <ele>1028</ele>
        <time>2022-09-22T09:18:19Z</time>
      </trkpt>
      <trkpt lat="44.1405" lon="5.84138">
        <ele>1028</ele>
        <time>2022-09-22T09:18:20Z</time>
      </trkpt>
      <trkpt lat="44.1405" lon="5.84138">
        <ele>1028</ele>
        <time>2022-09-22T09:18:21Z</time>
      </trkpt>
      <trkpt lat="44.14049" lon="5.84138">
        <ele>1028</ele>
        <time>2022-09-22T09:18:22Z</time>
      </trkpt>
      <trkpt lat="44.14049" lon="5.84138">
        <ele>1028</ele>
        <time>2022-09-22T09:18:23Z</time>
      </trkpt>
      <trkpt lat="44.14049" lon="5.84138">
        <ele>1029</ele>
        <time>2022-09-22T09:18:24Z</time>
      </trkpt>
      <trkpt lat="44.14048" lon="5.84137">
        <ele>1029</ele>
        <time>2022-09-22T09:18:25Z</time>
      </trkpt>
      <trkpt lat="44.14047" lon="5.84137">
        <ele>1029</ele>
        <time>2022-09-22T09:18:26Z</time>
      </trkpt>
      <trkpt lat="44.14046" lon="5.84136">
        <ele>1029</ele>
        <time>2022-09-22T09:18:27Z</time>
      </trkpt>
      <trkpt lat="44.14046" lon="5.84136">
        <ele>1029</ele>
        <time>2022-09-22T09:18:28Z</time>
      </trkpt>
      <trkpt lat="44.14045" lon="5.84136">
        <ele>1030</ele>
        <time>2022-09-22T09:18:29Z</time>
      </trkpt>
      <trkpt lat="44.14044" lon="5.84135">
        <ele>1030</ele>
        <time>2022-09-22T09:18:30Z</time>
      </trkpt>
      <trkpt lat="44.14043" lon="5.84135">
        <ele>1030</ele>
        <time>2022-09-22T09:18:31Z</time>
      </trkpt>
      <trkpt lat="44.14042" lon="5.84135">
        <ele>1030</ele>
        <time>2022-09-22T09:18:32Z</time>
      </trkpt>
      <trkpt lat="44.14041" lon="5.84135">
        <ele>1030</ele>
        <time>2022-09-22T09:18:33Z</time>
      </trkpt>
      <trkpt lat="44.1404" lon="5.84134">
        <ele>1030</ele>
        <time>2022-09-22T09:18:34Z</time>
      </trkpt>
      <trkpt lat="44.14039" lon="5.84134">
        <ele>1030</ele>
        <time>2022-09-22T09:18:35Z</time>
      </trkpt>
      <trkpt lat="44.14039" lon="5.84134">
        <ele>1030</ele>
        <time>2022-09-22T09:18:36Z</time>
      </trkpt>
      <trkpt lat="44.14038" lon="5.84134">
        <ele>1030</ele>
        <time>2022-09-22T09:18:37Z</time>
      </trkpt>
      <trkpt lat="44.14038" lon="5.84134">
        <ele>1030</ele>
        <time>2022-09-22T09:18:38Z</time>
      </trkpt>
      <trkpt lat="44.14037" lon="5.84133">
        <ele>1031</ele>
        <time>2022-09-22T09:18:39Z</time>
      </trkpt>
      <trkpt lat="44.14036" lon="5.84132">
        <ele>1031</ele>
        <time>2022-09-22T09:18:40Z</time>
      </trkpt>
      <trkpt lat="44.14036" lon="5.84131">
        <ele>1031</ele>
        <time>2022-09-22T09:18:41Z</time>
      </trkpt>
      <trkpt lat="44.14035" lon="5.84131">
        <ele>1031</ele>
        <time>2022-09-22T09:18:42Z</time>
      </trkpt>
      <trkpt lat="44.14034" lon="5.84131">
        <ele>1031</ele>
        <time>2022-09-22T09:18:43Z</time>
      </trkpt>
      <trkpt lat="44.14034" lon="5.8413">
        <ele>1031</ele>
        <time>2022-09-22T09:18:44Z</time>
      </trkpt>
      <trkpt lat="44.14033" lon="5.8413">
        <ele>1031</ele>
        <time>2022-09-22T09:18:45Z</time>
      </trkpt>
      <trkpt lat="44.14032" lon="5.84131">
        <ele>1031</ele>
        <time>2022-09-22T09:18:46Z</time>
      </trkpt>
      <trkpt lat="44.14031" lon="5.84131">
        <ele>1031</ele>
        <time>2022-09-22T09:18:47Z</time>
      </trkpt>
      <trkpt lat="44.1403" lon="5.84131">
        <ele>1031</ele>
        <time>2022-09-22T09:18:48Z</time>
      </trkpt>
      <trkpt lat="44.14029" lon="5.84131">
        <ele>1032</ele>
        <time>2022-09-22T09:18:49Z</time>
      </trkpt>
      <trkpt lat="44.14028" lon="5.84131">
        <ele>1032</ele>
        <time>2022-09-22T09:18:50Z</time>
      </trkpt>
      <trkpt lat="44.14027" lon="5.84131">
        <ele>1032</ele>
        <time>2022-09-22T09:18:51Z</time>
      </trkpt>
      <trkpt lat="44.14026" lon="5.84131">
        <ele>1032</ele>
        <time>2022-09-22T09:18:52Z</time>
      </trkpt>
      <trkpt lat="44.14026" lon="5.84131">
        <ele>1032</ele>
        <time>2022-09-22T09:18:53Z</time>
      </trkpt>
      <trkpt lat="44.14026" lon="5.8413">
        <ele>1033</ele>
        <time>2022-09-22T09:18:54Z</time>
      </trkpt>
      <trkpt lat="44.14025" lon="5.8413">
        <ele>1033</ele>
        <time>2022-09-22T09:18:55Z</time>
      </trkpt>
      <trkpt lat="44.14024" lon="5.8413">
        <ele>1033</ele>
        <time>2022-09-22T09:18:56Z</time>
      </trkpt>
      <trkpt lat="44.14024" lon="5.8413">
        <ele>1033</ele>
        <time>2022-09-22T09:18:57Z</time>
      </trkpt>
      <trkpt lat="44.14023" lon="5.84129">
        <ele>1033</ele>
        <time>2022-09-22T09:18:58Z</time>
      </trkpt>
      <trkpt lat="44.14022" lon="5.84129">
        <ele>1033</ele>
        <time>2022-09-22T09:18:59Z</time>
      </trkpt>
      <trkpt lat="44.14022" lon="5.84128">
        <ele>1033</ele>
        <time>2022-09-22T09:19:00Z</time>
      </trkpt>
      <trkpt lat="44.14021" lon="5.84128">
        <ele>1033</ele>
        <time>2022-09-22T09:19:01Z</time>
      </trkpt>
      <trkpt lat="44.14021" lon="5.84128">
        <ele>1033</ele>
        <time>2022-09-22T09:19:02Z</time>
      </trkpt>
      <trkpt lat="44.1402" lon="5.84127">
        <ele>1033</ele>
        <time>2022-09-22T09:19:03Z</time>
      </trkpt>
      <trkpt lat="44.1402" lon="5.84127">
        <ele>1034</ele>
        <time>2022-09-22T09:19:04Z</time>
      </trkpt>
      <trkpt lat="44.14019" lon="5.84127">
        <ele>1034</ele>
        <time>2022-09-22T09:19:05Z</time>
      </trkpt>
      <trkpt lat="44.14018" lon="5.84126">
        <ele>1034</ele>
        <time>2022-09-22T09:19:06Z</time>
      </trkpt>
      <trkpt lat="44.14018" lon="5.84126">
        <ele>1034</ele>
        <time>2022-09-22T09:19:07Z</time>
      </trkpt>
      <trkpt lat="44.14017" lon="5.84125">
        <ele>1034</ele>
        <time>2022-09-22T09:19:08Z</time>
      </trkpt>
      <trkpt lat="44.14016" lon="5.84125">
        <ele>1034</ele>
        <time>2022-09-22T09:19:09Z</time>
      </trkpt>
      <trkpt lat="44.14016" lon="5.84124">
        <ele>1034</ele>
        <time>2022-09-22T09:19:10Z</time>
      </trkpt>
      <trkpt lat="44.14015" lon="5.84124">
        <ele>1034</ele>
        <time>2022-09-22T09:19:11Z</time>
      </trkpt>
      <trkpt lat="44.14014" lon="5.84123">
        <ele>1034</ele>
        <time>2022-09-22T09:19:12Z</time>
      </trkpt>
      <trkpt lat="44.14013" lon="5.84122">
        <ele>1034</ele>
        <time>2022-09-22T09:19:13Z</time>
      </trkpt>
      <trkpt lat="44.14013" lon="5.84121">
        <ele>1035</ele>
        <time>2022-09-22T09:19:14Z</time>
      </trkpt>
      <trkpt lat="44.14012" lon="5.84121">
        <ele>1035</ele>
        <time>2022-09-22T09:19:15Z</time>
      </trkpt>
      <trkpt lat="44.14012" lon="5.8412">
        <ele>1035</ele>
        <time>2022-09-22T09:19:16Z</time>
      </trkpt>
      <trkpt lat="44.14011" lon="5.84119">
        <ele>1035</ele>
        <time>2022-09-22T09:19:17Z</time>
      </trkpt>
      <trkpt lat="44.14011" lon="5.84119">
        <ele>1035</ele>
        <time>2022-09-22T09:19:18Z</time>
      </trkpt>
      <trkpt lat="44.1401" lon="5.84118">
        <ele>1036</ele>
        <time>2022-09-22T09:19:19Z</time>
      </trkpt>
      <trkpt lat="44.14009" lon="5.84118">
        <ele>1036</ele>
        <time>2022-09-22T09:19:20Z</time>
      </trkpt>
      <trkpt lat="44.14008" lon="5.84117">
        <ele>1036</ele>
        <time>2022-09-22T09:19:21Z</time>
      </trkpt>
      <trkpt lat="44.14007" lon="5.84117">
        <ele>1036</ele>
        <time>2022-09-22T09:19:22Z</time>
      </trkpt>
      <trkpt lat="44.14006" lon="5.84117">
        <ele>1036</ele>
        <time>2022-09-22T09:19:23Z</time>
      </trkpt>
      <trkpt lat="44.14005" lon="5.84116">
        <ele>1037</ele>
        <time>2022-09-22T09:19:24Z</time>
      </trkpt>
      <trkpt lat="44.14004" lon="5.84116">
        <ele>1037</ele>
        <time>2022-09-22T09:19:25Z</time>
      </trkpt>
      <trkpt lat="44.14004" lon="5.84116">
        <ele>1037</ele>
        <time>2022-09-22T09:19:26Z</time>
      </trkpt>
      <trkpt lat="44.14003" lon="5.84115">
        <ele>1037</ele>
        <time>2022-09-22T09:19:27Z</time>
      </trkpt>
      <trkpt lat="44.14002" lon="5.84115">
        <ele>1037</ele>
        <time>2022-09-22T09:19:28Z</time>
      </trkpt>
      <trkpt lat="44.14002" lon="5.84115">
        <ele>1037</ele>
        <time>2022-09-22T09:19:29Z</time>
      </trkpt>
      <trkpt lat="44.14001" lon="5.84114">
        <ele>1037</ele>
        <time>2022-09-22T09:19:30Z</time>
      </trkpt>
      <trkpt lat="44.14001" lon="5.84114">
        <ele>1037</ele>
        <time>2022-09-22T09:19:31Z</time>
      </trkpt>
      <trkpt lat="44.14" lon="5.84113">
        <ele>1037</ele>
        <time>2022-09-22T09:19:32Z</time>
      </trkpt>
      <trkpt lat="44.14" lon="5.84113">
        <ele>1037</ele>
        <time>2022-09-22T09:19:33Z</time>
      </trkpt>
      <trkpt lat="44.13999" lon="5.84113">
        <ele>1038</ele>
        <time>2022-09-22T09:19:34Z</time>
      </trkpt>
      <trkpt lat="44.13998" lon="5.84112">
        <ele>1038</ele>
        <time>2022-09-22T09:19:35Z</time>
      </trkpt>
      <trkpt lat="44.13998" lon="5.84112">
        <ele>1038</ele>
        <time>2022-09-22T09:19:36Z</time>
      </trkpt>
      <trkpt lat="44.13997" lon="5.84111">
        <ele>1038</ele>
        <time>2022-09-22T09:19:37Z</time>
      </trkpt>
      <trkpt lat="44.13997" lon="5.84111">
        <ele>1038</ele>
        <time>2022-09-22T09:19:38Z</time>
      </trkpt>
      <trkpt lat="44.13996" lon="5.84111">
        <ele>1038</ele>
        <time>2022-09-22T09:19:39Z</time>
      </trkpt>
      <trkpt lat="44.13993" lon="5.84109">
        <ele>1039</ele>
        <time>2022-09-22T09:19:50Z</time>
      </trkpt>
      <trkpt lat="44.13992" lon="5.84108">
        <ele>1039</ele>
        <time>2022-09-22T09:19:51Z</time>
      </trkpt>
      <trkpt lat="44.13991" lon="5.84108">
        <ele>1039</ele>
        <time>2022-09-22T09:19:52Z</time>
      </trkpt>
      <trkpt lat="44.1399" lon="5.84107">
        <ele>1039</ele>
        <time>2022-09-22T09:19:53Z</time>
      </trkpt>
      <trkpt lat="44.1399" lon="5.84107">
        <ele>1040</ele>
        <time>2022-09-22T09:19:54Z</time>
      </trkpt>
      <trkpt lat="44.13989" lon="5.84106">
        <ele>1040</ele>
        <time>2022-09-22T09:19:55Z</time>
      </trkpt>
      <trkpt lat="44.13989" lon="5.84106">
        <ele>1040</ele>
        <time>2022-09-22T09:19:56Z</time>
      </trkpt>
      <trkpt lat="44.13988" lon="5.84106">
        <ele>1040</ele>
        <time>2022-09-22T09:19:57Z</time>
      </trkpt>
      <trkpt lat="44.13988" lon="5.84105">
        <ele>1040</ele>
        <time>2022-09-22T09:19:58Z</time>
      </trkpt>
      <trkpt lat="44.13987" lon="5.84105">
        <ele>1040</ele>
        <time>2022-09-22T09:19:59Z</time>
      </trkpt>
      <trkpt lat="44.13986" lon="5.84104">
        <ele>1040</ele>
        <time>2022-09-22T09:20:00Z</time>
      </trkpt>
      <trkpt lat="44.13986" lon="5.84104">
        <ele>1040</ele>
        <time>2022-09-22T09:20:01Z</time>
      </trkpt>
      <trkpt lat="44.13985" lon="5.84103">
        <ele>1040</ele>
        <time>2022-09-22T09:20:02Z</time>
      </trkpt>
      <trkpt lat="44.13984" lon="5.84103">
        <ele>1040</ele>
        <time>2022-09-22T09:20:03Z</time>
      </trkpt>
      <trkpt lat="44.13984" lon="5.84102">
        <ele>1041</ele>
        <time>2022-09-22T09:20:04Z</time>
      </trkpt>
      <trkpt lat="44.13983" lon="5.84102">
        <ele>1041</ele>
        <time>2022-09-22T09:20:05Z</time>
      </trkpt>
      <trkpt lat="44.13983" lon="5.84101">
        <ele>1041</ele>
        <time>2022-09-22T09:20:06Z</time>
      </trkpt>
      <trkpt lat="44.13983" lon="5.84101">
        <ele>1041</ele>
        <time>2022-09-22T09:20:07Z</time>
      </trkpt>
      <trkpt lat="44.13982" lon="5.841">
        <ele>1041</ele>
        <time>2022-09-22T09:20:08Z</time>
      </trkpt>
      <trkpt lat="44.13982" lon="5.841">
        <ele>1041</ele>
        <time>2022-09-22T09:20:09Z</time>
      </trkpt>
      <trkpt lat="44.1398" lon="5.84098">
        <ele>1042</ele>
        <time>2022-09-22T09:20:19Z</time>
      </trkpt>
      <trkpt lat="44.13978" lon="5.84097">
        <ele>1042</ele>
        <time>2022-09-22T09:20:20Z</time>
      </trkpt>
      <trkpt lat="44.13977" lon="5.84096">
        <ele>1042</ele>
        <time>2022-09-22T09:20:21Z</time>
      </trkpt>
      <trkpt lat="44.13977" lon="5.84096">
        <ele>1042</ele>
        <time>2022-09-22T09:20:22Z</time>
      </trkpt>
      <trkpt lat="44.13976" lon="5.84095">
        <ele>1042</ele>
        <time>2022-09-22T09:20:23Z</time>
      </trkpt>
      <trkpt lat="44.13975" lon="5.84095">
        <ele>1043</ele>
        <time>2022-09-22T09:20:24Z</time>
      </trkpt>
      <trkpt lat="44.13975" lon="5.84095">
        <ele>1043</ele>
        <time>2022-09-22T09:20:25Z</time>
      </trkpt>
      <trkpt lat="44.13974" lon="5.84095">
        <ele>1043</ele>
        <time>2022-09-22T09:20:26Z</time>
      </trkpt>
      <trkpt lat="44.13971" lon="5.84094">
        <ele>1044</ele>
        <time>2022-09-22T09:20:36Z</time>
      </trkpt>
      <trkpt lat="44.1397" lon="5.84094">
        <ele>1044</ele>
        <time>2022-09-22T09:20:37Z</time>
      </trkpt>
      <trkpt lat="44.13969" lon="5.84093">
        <ele>1044</ele>
        <time>2022-09-22T09:20:38Z</time>
      </trkpt>
      <trkpt lat="44.13968" lon="5.84092">
        <ele>1045</ele>
        <time>2022-09-22T09:20:39Z</time>
      </trkpt>
      <trkpt lat="44.13967" lon="5.84091">
        <ele>1045</ele>
        <time>2022-09-22T09:20:40Z</time>
      </trkpt>
      <trkpt lat="44.13966" lon="5.8409">
        <ele>1045</ele>
        <time>2022-09-22T09:20:41Z</time>
      </trkpt>
      <trkpt lat="44.13965" lon="5.84089">
        <ele>1045</ele>
        <time>2022-09-22T09:20:42Z</time>
      </trkpt>
      <trkpt lat="44.13965" lon="5.84088">
        <ele>1045</ele>
        <time>2022-09-22T09:20:43Z</time>
      </trkpt>
      <trkpt lat="44.13964" lon="5.84087">
        <ele>1045</ele>
        <time>2022-09-22T09:20:44Z</time>
      </trkpt>
      <trkpt lat="44.13963" lon="5.84087">
        <ele>1045</ele>
        <time>2022-09-22T09:20:45Z</time>
      </trkpt>
      <trkpt lat="44.13962" lon="5.84086">
        <ele>1045</ele>
        <time>2022-09-22T09:20:46Z</time>
      </trkpt>
      <trkpt lat="44.13961" lon="5.84085">
        <ele>1045</ele>
        <time>2022-09-22T09:20:47Z</time>
      </trkpt>
      <trkpt lat="44.1396" lon="5.84084">
        <ele>1045</ele>
        <time>2022-09-22T09:20:48Z</time>
      </trkpt>
      <trkpt lat="44.13959" lon="5.84083">
        <ele>1046</ele>
        <time>2022-09-22T09:20:49Z</time>
      </trkpt>
      <trkpt lat="44.13959" lon="5.84082">
        <ele>1046</ele>
        <time>2022-09-22T09:20:50Z</time>
      </trkpt>
      <trkpt lat="44.13958" lon="5.84082">
        <ele>1046</ele>
        <time>2022-09-22T09:20:51Z</time>
      </trkpt>
      <trkpt lat="44.13957" lon="5.84081">
        <ele>1046</ele>
        <time>2022-09-22T09:20:52Z</time>
      </trkpt>
      <trkpt lat="44.13956" lon="5.84079">
        <ele>1046</ele>
        <time>2022-09-22T09:20:53Z</time>
      </trkpt>
      <trkpt lat="44.13955" lon="5.84078">
        <ele>1046</ele>
        <time>2022-09-22T09:20:54Z</time>
      </trkpt>
      <trkpt lat="44.13955" lon="5.84077">
        <ele>1046</ele>
        <time>2022-09-22T09:20:55Z</time>
      </trkpt>
      <trkpt lat="44.13954" lon="5.84076">
        <ele>1046</ele>
        <time>2022-09-22T09:20:56Z</time>
      </trkpt>
      <trkpt lat="44.13953" lon="5.84075">
        <ele>1046</ele>
        <time>2022-09-22T09:20:57Z</time>
      </trkpt>
      <trkpt lat="44.13952" lon="5.84075">
        <ele>1046</ele>
        <time>2022-09-22T09:20:58Z</time>
      </trkpt>
      <trkpt lat="44.13952" lon="5.84074">
        <ele>1047</ele>
        <time>2022-09-22T09:20:59Z</time>
      </trkpt>
      <trkpt lat="44.13952" lon="5.84073">
        <ele>1047</ele>
        <time>2022-09-22T09:21:00Z</time>
      </trkpt>
      <trkpt lat="44.13951" lon="5.84072">
        <ele>1047</ele>
        <time>2022-09-22T09:21:01Z</time>
      </trkpt>
      <trkpt lat="44.13951" lon="5.84071">
        <ele>1047</ele>
        <time>2022-09-22T09:21:02Z</time>
      </trkpt>
      <trkpt lat="44.1395" lon="5.8407">
        <ele>1047</ele>
        <time>2022-09-22T09:21:03Z</time>
      </trkpt>
      <trkpt lat="44.13949" lon="5.84069">
        <ele>1047</ele>
        <time>2022-09-22T09:21:04Z</time>
      </trkpt>
      <trkpt lat="44.13949" lon="5.84068">
        <ele>1047</ele>
        <time>2022-09-22T09:21:05Z</time>
      </trkpt>
      <trkpt lat="44.13948" lon="5.84067">
        <ele>1047</ele>
        <time>2022-09-22T09:21:06Z</time>
      </trkpt>
      <trkpt lat="44.13948" lon="5.84067">
        <ele>1047</ele>
        <time>2022-09-22T09:21:07Z</time>
      </trkpt>
      <trkpt lat="44.13947" lon="5.84066">
        <ele>1047</ele>
        <time>2022-09-22T09:21:08Z</time>
      </trkpt>
      <trkpt lat="44.13946" lon="5.84065">
        <ele>1048</ele>
        <time>2022-09-22T09:21:09Z</time>
      </trkpt>
      <trkpt lat="44.13946" lon="5.84065">
        <ele>1048</ele>
        <time>2022-09-22T09:21:10Z</time>
      </trkpt>
      <trkpt lat="44.13945" lon="5.84064">
        <ele>1048</ele>
        <time>2022-09-22T09:21:11Z</time>
      </trkpt>
      <trkpt lat="44.13944" lon="5.84063">
        <ele>1048</ele>
        <time>2022-09-22T09:21:12Z</time>
      </trkpt>
      <trkpt lat="44.13943" lon="5.84062">
        <ele>1048</ele>
        <time>2022-09-22T09:21:13Z</time>
      </trkpt>
      <trkpt lat="44.13942" lon="5.84061">
        <ele>1048</ele>
        <time>2022-09-22T09:21:14Z</time>
      </trkpt>
      <trkpt lat="44.13941" lon="5.8406">
        <ele>1048</ele>
        <time>2022-09-22T09:21:15Z</time>
      </trkpt>
      <trkpt lat="44.1394" lon="5.8406">
        <ele>1048</ele>
        <time>2022-09-22T09:21:16Z</time>
      </trkpt>
      <trkpt lat="44.1394" lon="5.84059">
        <ele>1048</ele>
        <time>2022-09-22T09:21:17Z</time>
      </trkpt>
      <trkpt lat="44.13939" lon="5.84057">
        <ele>1048</ele>
        <time>2022-09-22T09:21:18Z</time>
      </trkpt>
      <trkpt lat="44.13939" lon="5.84056">
        <ele>1048</ele>
        <time>2022-09-22T09:21:19Z</time>
      </trkpt>
      <trkpt lat="44.13938" lon="5.84055">
        <ele>1048</ele>
        <time>2022-09-22T09:21:20Z</time>
      </trkpt>
      <trkpt lat="44.13938" lon="5.84054">
        <ele>1048</ele>
        <time>2022-09-22T09:21:21Z</time>
      </trkpt>
      <trkpt lat="44.13938" lon="5.84053">
        <ele>1048</ele>
        <time>2022-09-22T09:21:22Z</time>
      </trkpt>
      <trkpt lat="44.13937" lon="5.84052">
        <ele>1048</ele>
        <time>2022-09-22T09:21:23Z</time>
      </trkpt>
      <trkpt lat="44.13937" lon="5.84051">
        <ele>1049</ele>
        <time>2022-09-22T09:21:24Z</time>
      </trkpt>
      <trkpt lat="44.13936" lon="5.8405">
        <ele>1049</ele>
        <time>2022-09-22T09:21:25Z</time>
      </trkpt>
      <trkpt lat="44.13936" lon="5.84048">
        <ele>1049</ele>
        <time>2022-09-22T09:21:26Z</time>
      </trkpt>
      <trkpt lat="44.13935" lon="5.84048">
        <ele>1049</ele>
        <time>2022-09-22T09:21:27Z</time>
      </trkpt>
      <trkpt lat="44.13935" lon="5.84047">
        <ele>1049</ele>
        <time>2022-09-22T09:21:28Z</time>
      </trkpt>
      <trkpt lat="44.13934" lon="5.84046">
        <ele>1049</ele>
        <time>2022-09-22T09:21:29Z</time>
      </trkpt>
      <trkpt lat="44.13934" lon="5.84045">
        <ele>1049</ele>
        <time>2022-09-22T09:21:30Z</time>
      </trkpt>
      <trkpt lat="44.13934" lon="5.84044">
        <ele>1049</ele>
        <time>2022-09-22T09:21:31Z</time>
      </trkpt>
      <trkpt lat="44.13933" lon="5.84043">
        <ele>1049</ele>
        <time>2022-09-22T09:21:32Z</time>
      </trkpt>
      <trkpt lat="44.13933" lon="5.84041">
        <ele>1049</ele>
        <time>2022-09-22T09:21:33Z</time>
      </trkpt>
      <trkpt lat="44.13932" lon="5.8404">
        <ele>1050</ele>
        <time>2022-09-22T09:21:34Z</time>
      </trkpt>
      <trkpt lat="44.13931" lon="5.84039">
        <ele>1050</ele>
        <time>2022-09-22T09:21:35Z</time>
      </trkpt>
      <trkpt lat="44.13931" lon="5.84037">
        <ele>1050</ele>
        <time>2022-09-22T09:21:36Z</time>
      </trkpt>
      <trkpt lat="44.1393" lon="5.84036">
        <ele>1050</ele>
        <time>2022-09-22T09:21:37Z</time>
      </trkpt>
      <trkpt lat="44.13929" lon="5.84034">
        <ele>1050</ele>
        <time>2022-09-22T09:21:38Z</time>
      </trkpt>
      <trkpt lat="44.13929" lon="5.84033">
        <ele>1051</ele>
        <time>2022-09-22T09:21:39Z</time>
      </trkpt>
      <trkpt lat="44.13928" lon="5.84032">
        <ele>1051</ele>
        <time>2022-09-22T09:21:40Z</time>
      </trkpt>
      <trkpt lat="44.13927" lon="5.84031">
        <ele>1051</ele>
        <time>2022-09-22T09:21:41Z</time>
      </trkpt>
      <trkpt lat="44.13927" lon="5.8403">
        <ele>1051</ele>
        <time>2022-09-22T09:21:42Z</time>
      </trkpt>
      <trkpt lat="44.13926" lon="5.8403">
        <ele>1051</ele>
        <time>2022-09-22T09:21:43Z</time>
      </trkpt>
      <trkpt lat="44.13926" lon="5.84029">
        <ele>1051</ele>
        <time>2022-09-22T09:21:44Z</time>
      </trkpt>
      <trkpt lat="44.13925" lon="5.84029">
        <ele>1051</ele>
        <time>2022-09-22T09:21:45Z</time>
      </trkpt>
      <trkpt lat="44.13925" lon="5.84028">
        <ele>1051</ele>
        <time>2022-09-22T09:21:46Z</time>
      </trkpt>
      <trkpt lat="44.13924" lon="5.84028">
        <ele>1051</ele>
        <time>2022-09-22T09:21:47Z</time>
      </trkpt>
      <trkpt lat="44.13924" lon="5.84027">
        <ele>1051</ele>
        <time>2022-09-22T09:21:48Z</time>
      </trkpt>
      <trkpt lat="44.13923" lon="5.84026">
        <ele>1051</ele>
        <time>2022-09-22T09:21:49Z</time>
      </trkpt>
      <trkpt lat="44.13923" lon="5.84025">
        <ele>1051</ele>
        <time>2022-09-22T09:21:50Z</time>
      </trkpt>
      <trkpt lat="44.13923" lon="5.84024">
        <ele>1051</ele>
        <time>2022-09-22T09:21:51Z</time>
      </trkpt>
      <trkpt lat="44.13922" lon="5.84023">
        <ele>1051</ele>
        <time>2022-09-22T09:21:52Z</time>
      </trkpt>
      <trkpt lat="44.13922" lon="5.84022">
        <ele>1051</ele>
        <time>2022-09-22T09:21:53Z</time>
      </trkpt>
      <trkpt lat="44.13922" lon="5.84022">
        <ele>1051</ele>
        <time>2022-09-22T09:21:54Z</time>
      </trkpt>
      <trkpt lat="44.13921" lon="5.84021">
        <ele>1051</ele>
        <time>2022-09-22T09:21:55Z</time>
      </trkpt>
      <trkpt lat="44.13921" lon="5.8402">
        <ele>1051</ele>
        <time>2022-09-22T09:21:56Z</time>
      </trkpt>
      <trkpt lat="44.13921" lon="5.84019">
        <ele>1051</ele>
        <time>2022-09-22T09:21:57Z</time>
      </trkpt>
      <trkpt lat="44.1392" lon="5.84018">
        <ele>1051</ele>
        <time>2022-09-22T09:21:58Z</time>
      </trkpt>
      <trkpt lat="44.1392" lon="5.84017">
        <ele>1051</ele>
        <time>2022-09-22T09:21:59Z</time>
      </trkpt>
      <trkpt lat="44.1392" lon="5.84016">
        <ele>1051</ele>
        <time>2022-09-22T09:22:00Z</time>
      </trkpt>
      <trkpt lat="44.13919" lon="5.84015">
        <ele>1051</ele>
        <time>2022-09-22T09:22:01Z</time>
      </trkpt>
      <trkpt lat="44.13919" lon="5.84014">
        <ele>1051</ele>
        <time>2022-09-22T09:22:02Z</time>
      </trkpt>
      <trkpt lat="44.13918" lon="5.84013">
        <ele>1051</ele>
        <time>2022-09-22T09:22:03Z</time>
      </trkpt>
      <trkpt lat="44.13917" lon="5.84013">
        <ele>1051</ele>
        <time>2022-09-22T09:22:04Z</time>
      </trkpt>
      <trkpt lat="44.13917" lon="5.84012">
        <ele>1051</ele>
        <time>2022-09-22T09:22:05Z</time>
      </trkpt>
      <trkpt lat="44.13917" lon="5.84011">
        <ele>1051</ele>
        <time>2022-09-22T09:22:06Z</time>
      </trkpt>
      <trkpt lat="44.13917" lon="5.8401">
        <ele>1051</ele>
        <time>2022-09-22T09:22:07Z</time>
      </trkpt>
      <trkpt lat="44.13917" lon="5.8401">
        <ele>1051</ele>
        <time>2022-09-22T09:22:08Z</time>
      </trkpt>
      <trkpt lat="44.13916" lon="5.84009">
        <ele>1051</ele>
        <time>2022-09-22T09:22:09Z</time>
      </trkpt>
      <trkpt lat="44.13916" lon="5.84008">
        <ele>1051</ele>
        <time>2022-09-22T09:22:10Z</time>
      </trkpt>
      <trkpt lat="44.13916" lon="5.84007">
        <ele>1051</ele>
        <time>2022-09-22T09:22:11Z</time>
      </trkpt>
      <trkpt lat="44.13915" lon="5.84006">
        <ele>1051</ele>
        <time>2022-09-22T09:22:12Z</time>
      </trkpt>
      <trkpt lat="44.13915" lon="5.84006">
        <ele>1051</ele>
        <time>2022-09-22T09:22:13Z</time>
      </trkpt>
      <trkpt lat="44.13914" lon="5.84005">
        <ele>1051</ele>
        <time>2022-09-22T09:22:14Z</time>
      </trkpt>
      <trkpt lat="44.13914" lon="5.84004">
        <ele>1051</ele>
        <time>2022-09-22T09:22:15Z</time>
      </trkpt>
      <trkpt lat="44.13913" lon="5.84003">
        <ele>1051</ele>
        <time>2022-09-22T09:22:16Z</time>
      </trkpt>
      <trkpt lat="44.13913" lon="5.84002">
        <ele>1051</ele>
        <time>2022-09-22T09:22:17Z</time>
      </trkpt>
      <trkpt lat="44.13913" lon="5.84002">
        <ele>1051</ele>
        <time>2022-09-22T09:22:18Z</time>
      </trkpt>
      <trkpt lat="44.13912" lon="5.84001">
        <ele>1051</ele>
        <time>2022-09-22T09:22:19Z</time>
      </trkpt>
      <trkpt lat="44.13912" lon="5.84">
        <ele>1051</ele>
        <time>2022-09-22T09:22:20Z</time>
      </trkpt>
      <trkpt lat="44.13912" lon="5.84">
        <ele>1051</ele>
        <time>2022-09-22T09:22:21Z</time>
      </trkpt>
      <trkpt lat="44.13912" lon="5.83999">
        <ele>1051</ele>
        <time>2022-09-22T09:22:22Z</time>
      </trkpt>
      <trkpt lat="44.13912" lon="5.83998">
        <ele>1051</ele>
        <time>2022-09-22T09:22:23Z</time>
      </trkpt>
      <trkpt lat="44.13911" lon="5.83997">
        <ele>1052</ele>
        <time>2022-09-22T09:22:24Z</time>
      </trkpt>
      <trkpt lat="44.13911" lon="5.83996">
        <ele>1052</ele>
        <time>2022-09-22T09:22:25Z</time>
      </trkpt>
      <trkpt lat="44.13911" lon="5.83995">
        <ele>1052</ele>
        <time>2022-09-22T09:22:26Z</time>
      </trkpt>
      <trkpt lat="44.1391" lon="5.83994">
        <ele>1052</ele>
        <time>2022-09-22T09:22:27Z</time>
      </trkpt>
      <trkpt lat="44.1391" lon="5.83993">
        <ele>1052</ele>
        <time>2022-09-22T09:22:28Z</time>
      </trkpt>
      <trkpt lat="44.13909" lon="5.83992">
        <ele>1053</ele>
        <time>2022-09-22T09:22:29Z</time>
      </trkpt>
      <trkpt lat="44.13909" lon="5.83991">
        <ele>1053</ele>
        <time>2022-09-22T09:22:30Z</time>
      </trkpt>
      <trkpt lat="44.13908" lon="5.83991">
        <ele>1053</ele>
        <time>2022-09-22T09:22:31Z</time>
      </trkpt>
      <trkpt lat="44.13907" lon="5.8399">
        <ele>1053</ele>
        <time>2022-09-22T09:22:32Z</time>
      </trkpt>
      <trkpt lat="44.13907" lon="5.83989">
        <ele>1053</ele>
        <time>2022-09-22T09:22:33Z</time>
      </trkpt>
      <trkpt lat="44.13906" lon="5.83988">
        <ele>1054</ele>
        <time>2022-09-22T09:22:34Z</time>
      </trkpt>
      <trkpt lat="44.13906" lon="5.83987">
        <ele>1054</ele>
        <time>2022-09-22T09:22:35Z</time>
      </trkpt>
      <trkpt lat="44.13905" lon="5.83986">
        <ele>1054</ele>
        <time>2022-09-22T09:22:36Z</time>
      </trkpt>
      <trkpt lat="44.13905" lon="5.83985">
        <ele>1054</ele>
        <time>2022-09-22T09:22:37Z</time>
      </trkpt>
      <trkpt lat="44.13905" lon="5.83985">
        <ele>1054</ele>
        <time>2022-09-22T09:22:38Z</time>
      </trkpt>
      <trkpt lat="44.13904" lon="5.83984">
        <ele>1054</ele>
        <time>2022-09-22T09:22:39Z</time>
      </trkpt>
      <trkpt lat="44.13904" lon="5.83984">
        <ele>1054</ele>
        <time>2022-09-22T09:22:40Z</time>
      </trkpt>
      <trkpt lat="44.13903" lon="5.83983">
        <ele>1054</ele>
        <time>2022-09-22T09:22:41Z</time>
      </trkpt>
      <trkpt lat="44.13903" lon="5.83983">
        <ele>1054</ele>
        <time>2022-09-22T09:22:42Z</time>
      </trkpt>
      <trkpt lat="44.13902" lon="5.83982">
        <ele>1054</ele>
        <time>2022-09-22T09:22:43Z</time>
      </trkpt>
      <trkpt lat="44.13902" lon="5.83982">
        <ele>1055</ele>
        <time>2022-09-22T09:22:44Z</time>
      </trkpt>
      <trkpt lat="44.13901" lon="5.83981">
        <ele>1055</ele>
        <time>2022-09-22T09:22:45Z</time>
      </trkpt>
      <trkpt lat="44.139" lon="5.83981">
        <ele>1055</ele>
        <time>2022-09-22T09:22:46Z</time>
      </trkpt>
      <trkpt lat="44.13899" lon="5.83981">
        <ele>1055</ele>
        <time>2022-09-22T09:22:47Z</time>
      </trkpt>
      <trkpt lat="44.13898" lon="5.8398">
        <ele>1055</ele>
        <time>2022-09-22T09:22:48Z</time>
      </trkpt>
      <trkpt lat="44.13897" lon="5.8398">
        <ele>1056</ele>
        <time>2022-09-22T09:22:49Z</time>
      </trkpt>
      <trkpt lat="44.13897" lon="5.83979">
        <ele>1056</ele>
        <time>2022-09-22T09:22:50Z</time>
      </trkpt>
      <trkpt lat="44.13896" lon="5.83979">
        <ele>1056</ele>
        <time>2022-09-22T09:22:51Z</time>
      </trkpt>
      <trkpt lat="44.13896" lon="5.83979">
        <ele>1056</ele>
        <time>2022-09-22T09:22:52Z</time>
      </trkpt>
      <trkpt lat="44.13895" lon="5.83978">
        <ele>1056</ele>
        <time>2022-09-22T09:22:53Z</time>
      </trkpt>
      <trkpt lat="44.13895" lon="5.83978">
        <ele>1057</ele>
        <time>2022-09-22T09:22:54Z</time>
      </trkpt>
      <trkpt lat="44.13894" lon="5.83977">
        <ele>1057</ele>
        <time>2022-09-22T09:22:55Z</time>
      </trkpt>
      <trkpt lat="44.13894" lon="5.83977">
        <ele>1057</ele>
        <time>2022-09-22T09:22:56Z</time>
      </trkpt>
      <trkpt lat="44.13893" lon="5.83976">
        <ele>1058</ele>
        <time>2022-09-22T09:22:57Z</time>
      </trkpt>
      <trkpt lat="44.13893" lon="5.83975">
        <ele>1058</ele>
        <time>2022-09-22T09:22:58Z</time>
      </trkpt>
      <trkpt lat="44.13892" lon="5.83975">
        <ele>1059</ele>
        <time>2022-09-22T09:22:59Z</time>
      </trkpt>
      <trkpt lat="44.13892" lon="5.83974">
        <ele>1059</ele>
        <time>2022-09-22T09:23:00Z</time>
      </trkpt>
      <trkpt lat="44.13892" lon="5.83974">
        <ele>1059</ele>
        <time>2022-09-22T09:23:01Z</time>
      </trkpt>
      <trkpt lat="44.13892" lon="5.83972">
        <ele>1059</ele>
        <time>2022-09-22T09:23:02Z</time>
      </trkpt>
      <trkpt lat="44.13892" lon="5.83971">
        <ele>1059</ele>
        <time>2022-09-22T09:23:03Z</time>
      </trkpt>
      <trkpt lat="44.13892" lon="5.8397">
        <ele>1059</ele>
        <time>2022-09-22T09:23:04Z</time>
      </trkpt>
      <trkpt lat="44.13892" lon="5.83969">
        <ele>1059</ele>
        <time>2022-09-22T09:23:05Z</time>
      </trkpt>
      <trkpt lat="44.13892" lon="5.83968">
        <ele>1059</ele>
        <time>2022-09-22T09:23:06Z</time>
      </trkpt>
      <trkpt lat="44.13892" lon="5.83967">
        <ele>1059</ele>
        <time>2022-09-22T09:23:07Z</time>
      </trkpt>
      <trkpt lat="44.13892" lon="5.83966">
        <ele>1059</ele>
        <time>2022-09-22T09:23:08Z</time>
      </trkpt>
      <trkpt lat="44.13892" lon="5.83965">
        <ele>1060</ele>
        <time>2022-09-22T09:23:09Z</time>
      </trkpt>
      <trkpt lat="44.13891" lon="5.83965">
        <ele>1060</ele>
        <time>2022-09-22T09:23:10Z</time>
      </trkpt>
      <trkpt lat="44.1389" lon="5.83964">
        <ele>1060</ele>
        <time>2022-09-22T09:23:11Z</time>
      </trkpt>
      <trkpt lat="44.13889" lon="5.83963">
        <ele>1060</ele>
        <time>2022-09-22T09:23:12Z</time>
      </trkpt>
      <trkpt lat="44.13888" lon="5.83963">
        <ele>1060</ele>
        <time>2022-09-22T09:23:13Z</time>
      </trkpt>
      <trkpt lat="44.13888" lon="5.83962">
        <ele>1060</ele>
        <time>2022-09-22T09:23:14Z</time>
      </trkpt>
      <trkpt lat="44.13887" lon="5.83961">
        <ele>1060</ele>
        <time>2022-09-22T09:23:15Z</time>
      </trkpt>
      <trkpt lat="44.13886" lon="5.8396">
        <ele>1060</ele>
        <time>2022-09-22T09:23:16Z</time>
      </trkpt>
      <trkpt lat="44.13885" lon="5.8396">
        <ele>1060</ele>
        <time>2022-09-22T09:23:17Z</time>
      </trkpt>
      <trkpt lat="44.13885" lon="5.83959">
        <ele>1060</ele>
        <time>2022-09-22T09:23:18Z</time>
      </trkpt>
      <trkpt lat="44.13884" lon="5.83959">
        <ele>1061</ele>
        <time>2022-09-22T09:23:19Z</time>
      </trkpt>
      <trkpt lat="44.13884" lon="5.83958">
        <ele>1061</ele>
        <time>2022-09-22T09:23:20Z</time>
      </trkpt>
      <trkpt lat="44.13884" lon="5.83958">
        <ele>1061</ele>
        <time>2022-09-22T09:23:21Z</time>
      </trkpt>
      <trkpt lat="44.13883" lon="5.83957">
        <ele>1061</ele>
        <time>2022-09-22T09:23:22Z</time>
      </trkpt>
      <trkpt lat="44.13883" lon="5.83957">
        <ele>1061</ele>
        <time>2022-09-22T09:23:23Z</time>
      </trkpt>
      <trkpt lat="44.13883" lon="5.83956">
        <ele>1061</ele>
        <time>2022-09-22T09:23:24Z</time>
      </trkpt>
      <trkpt lat="44.13882" lon="5.83955">
        <ele>1061</ele>
        <time>2022-09-22T09:23:25Z</time>
      </trkpt>
      <trkpt lat="44.13882" lon="5.83955">
        <ele>1061</ele>
        <time>2022-09-22T09:23:26Z</time>
      </trkpt>
      <trkpt lat="44.13881" lon="5.83954">
        <ele>1061</ele>
        <time>2022-09-22T09:23:27Z</time>
      </trkpt>
      <trkpt lat="44.1388" lon="5.83953">
        <ele>1061</ele>
        <time>2022-09-22T09:23:28Z</time>
      </trkpt>
      <trkpt lat="44.13879" lon="5.83951">
        <ele>1062</ele>
        <time>2022-09-22T09:23:57Z</time>
      </trkpt>
      <trkpt lat="44.13878" lon="5.83949">
        <ele>1062</ele>
        <time>2022-09-22T09:23:58Z</time>
      </trkpt>
      <trkpt lat="44.13877" lon="5.83948">
        <ele>1062</ele>
        <time>2022-09-22T09:23:59Z</time>
      </trkpt>
      <trkpt lat="44.13876" lon="5.83947">
        <ele>1062</ele>
        <time>2022-09-22T09:24:00Z</time>
      </trkpt>
      <trkpt lat="44.13876" lon="5.83946">
        <ele>1062</ele>
        <time>2022-09-22T09:24:01Z</time>
      </trkpt>
      <trkpt lat="44.13875" lon="5.83945">
        <ele>1062</ele>
        <time>2022-09-22T09:24:02Z</time>
      </trkpt>
      <trkpt lat="44.13874" lon="5.83944">
        <ele>1062</ele>
        <time>2022-09-22T09:24:03Z</time>
      </trkpt>
      <trkpt lat="44.13874" lon="5.83944">
        <ele>1062</ele>
        <time>2022-09-22T09:24:04Z</time>
      </trkpt>
      <trkpt lat="44.13874" lon="5.83944">
        <ele>1062</ele>
        <time>2022-09-22T09:24:05Z</time>
      </trkpt>
      <trkpt lat="44.13874" lon="5.83943">
        <ele>1062</ele>
        <time>2022-09-22T09:24:06Z</time>
      </trkpt>
      <trkpt lat="44.13873" lon="5.83943">
        <ele>1062</ele>
        <time>2022-09-22T09:24:07Z</time>
      </trkpt>
      <trkpt lat="44.13873" lon="5.83943">
        <ele>1062</ele>
        <time>2022-09-22T09:24:08Z</time>
      </trkpt>
      <trkpt lat="44.13872" lon="5.83942">
        <ele>1062</ele>
        <time>2022-09-22T09:24:09Z</time>
      </trkpt>
      <trkpt lat="44.13871" lon="5.83941">
        <ele>1062</ele>
        <time>2022-09-22T09:24:10Z</time>
      </trkpt>
      <trkpt lat="44.13871" lon="5.83941">
        <ele>1062</ele>
        <time>2022-09-22T09:24:11Z</time>
      </trkpt>
      <trkpt lat="44.1387" lon="5.8394">
        <ele>1062</ele>
        <time>2022-09-22T09:24:12Z</time>
      </trkpt>
      <trkpt lat="44.1387" lon="5.8394">
        <ele>1062</ele>
        <time>2022-09-22T09:24:13Z</time>
      </trkpt>
      <trkpt lat="44.13869" lon="5.83939">
        <ele>1062</ele>
        <time>2022-09-22T09:24:14Z</time>
      </trkpt>
      <trkpt lat="44.13869" lon="5.83939">
        <ele>1062</ele>
        <time>2022-09-22T09:24:15Z</time>
      </trkpt>
      <trkpt lat="44.13868" lon="5.83938">
        <ele>1062</ele>
        <time>2022-09-22T09:24:16Z</time>
      </trkpt>
      <trkpt lat="44.13868" lon="5.83937">
        <ele>1062</ele>
        <time>2022-09-22T09:24:17Z</time>
      </trkpt>
      <trkpt lat="44.13867" lon="5.83937">
        <ele>1062</ele>
        <time>2022-09-22T09:24:18Z</time>
      </trkpt>
      <trkpt lat="44.13866" lon="5.83936">
        <ele>1063</ele>
        <time>2022-09-22T09:24:19Z</time>
      </trkpt>
      <trkpt lat="44.13865" lon="5.83935">
        <ele>1063</ele>
        <time>2022-09-22T09:24:20Z</time>
      </trkpt>
      <trkpt lat="44.13865" lon="5.83935">
        <ele>1063</ele>
        <time>2022-09-22T09:24:21Z</time>
      </trkpt>
      <trkpt lat="44.13864" lon="5.83935">
        <ele>1063</ele>
        <time>2022-09-22T09:24:22Z</time>
      </trkpt>
      <trkpt lat="44.13864" lon="5.83934">
        <ele>1063</ele>
        <time>2022-09-22T09:24:23Z</time>
      </trkpt>
      <trkpt lat="44.13863" lon="5.83933">
        <ele>1063</ele>
        <time>2022-09-22T09:24:24Z</time>
      </trkpt>
      <trkpt lat="44.13862" lon="5.83933">
        <ele>1063</ele>
        <time>2022-09-22T09:24:25Z</time>
      </trkpt>
      <trkpt lat="44.13861" lon="5.83932">
        <ele>1063</ele>
        <time>2022-09-22T09:24:26Z</time>
      </trkpt>
      <trkpt lat="44.13861" lon="5.83931">
        <ele>1063</ele>
        <time>2022-09-22T09:24:27Z</time>
      </trkpt>
      <trkpt lat="44.1386" lon="5.8393">
        <ele>1063</ele>
        <time>2022-09-22T09:24:28Z</time>
      </trkpt>
      <trkpt lat="44.1386" lon="5.8393">
        <ele>1064</ele>
        <time>2022-09-22T09:24:29Z</time>
      </trkpt>
      <trkpt lat="44.1386" lon="5.8393">
        <ele>1064</ele>
        <time>2022-09-22T09:24:30Z</time>
      </trkpt>
      <trkpt lat="44.1386" lon="5.83929">
        <ele>1064</ele>
        <time>2022-09-22T09:24:31Z</time>
      </trkpt>
      <trkpt lat="44.1386" lon="5.83929">
        <ele>1064</ele>
        <time>2022-09-22T09:24:32Z</time>
      </trkpt>
      <trkpt lat="44.13859" lon="5.83928">
        <ele>1064</ele>
        <time>2022-09-22T09:24:33Z</time>
      </trkpt>
      <trkpt lat="44.13859" lon="5.83927">
        <ele>1064</ele>
        <time>2022-09-22T09:24:34Z</time>
      </trkpt>
      <trkpt lat="44.13859" lon="5.83926">
        <ele>1064</ele>
        <time>2022-09-22T09:24:35Z</time>
      </trkpt>
      <trkpt lat="44.13858" lon="5.83925">
        <ele>1064</ele>
        <time>2022-09-22T09:24:36Z</time>
      </trkpt>
      <trkpt lat="44.13858" lon="5.83924">
        <ele>1064</ele>
        <time>2022-09-22T09:24:37Z</time>
      </trkpt>
      <trkpt lat="44.13857" lon="5.83924">
        <ele>1064</ele>
        <time>2022-09-22T09:24:38Z</time>
      </trkpt>
      <trkpt lat="44.13857" lon="5.83923">
        <ele>1065</ele>
        <time>2022-09-22T09:24:39Z</time>
      </trkpt>
      <trkpt lat="44.13856" lon="5.83922">
        <ele>1065</ele>
        <time>2022-09-22T09:24:40Z</time>
      </trkpt>
      <trkpt lat="44.13856" lon="5.83922">
        <ele>1065</ele>
        <time>2022-09-22T09:24:41Z</time>
      </trkpt>
      <trkpt lat="44.13855" lon="5.83921">
        <ele>1065</ele>
        <time>2022-09-22T09:24:42Z</time>
      </trkpt>
      <trkpt lat="44.13854" lon="5.83921">
        <ele>1065</ele>
        <time>2022-09-22T09:24:43Z</time>
      </trkpt>
      <trkpt lat="44.13854" lon="5.8392">
        <ele>1066</ele>
        <time>2022-09-22T09:24:44Z</time>
      </trkpt>
      <trkpt lat="44.13853" lon="5.8392">
        <ele>1066</ele>
        <time>2022-09-22T09:24:45Z</time>
      </trkpt>
      <trkpt lat="44.13853" lon="5.83919">
        <ele>1066</ele>
        <time>2022-09-22T09:24:46Z</time>
      </trkpt>
      <trkpt lat="44.13853" lon="5.83919">
        <ele>1066</ele>
        <time>2022-09-22T09:24:47Z</time>
      </trkpt>
      <trkpt lat="44.13852" lon="5.83918">
        <ele>1066</ele>
        <time>2022-09-22T09:24:48Z</time>
      </trkpt>
      <trkpt lat="44.13852" lon="5.83918">
        <ele>1066</ele>
        <time>2022-09-22T09:24:49Z</time>
      </trkpt>
      <trkpt lat="44.13851" lon="5.83918">
        <ele>1066</ele>
        <time>2022-09-22T09:24:50Z</time>
      </trkpt>
      <trkpt lat="44.13851" lon="5.83917">
        <ele>1066</ele>
        <time>2022-09-22T09:24:51Z</time>
      </trkpt>
      <trkpt lat="44.13851" lon="5.83917">
        <ele>1066</ele>
        <time>2022-09-22T09:24:52Z</time>
      </trkpt>
      <trkpt lat="44.1385" lon="5.83917">
        <ele>1066</ele>
        <time>2022-09-22T09:24:53Z</time>
      </trkpt>
      <trkpt lat="44.1385" lon="5.83916">
        <ele>1067</ele>
        <time>2022-09-22T09:24:54Z</time>
      </trkpt>
      <trkpt lat="44.13849" lon="5.83915">
        <ele>1067</ele>
        <time>2022-09-22T09:24:55Z</time>
      </trkpt>
      <trkpt lat="44.13849" lon="5.83914">
        <ele>1067</ele>
        <time>2022-09-22T09:24:56Z</time>
      </trkpt>
      <trkpt lat="44.13849" lon="5.83913">
        <ele>1067</ele>
        <time>2022-09-22T09:24:57Z</time>
      </trkpt>
      <trkpt lat="44.13848" lon="5.83913">
        <ele>1067</ele>
        <time>2022-09-22T09:24:58Z</time>
      </trkpt>
      <trkpt lat="44.13848" lon="5.83912">
        <ele>1068</ele>
        <time>2022-09-22T09:24:59Z</time>
      </trkpt>
      <trkpt lat="44.13848" lon="5.83911">
        <ele>1068</ele>
        <time>2022-09-22T09:25:00Z</time>
      </trkpt>
      <trkpt lat="44.13847" lon="5.8391">
        <ele>1068</ele>
        <time>2022-09-22T09:25:01Z</time>
      </trkpt>
      <trkpt lat="44.13847" lon="5.83909">
        <ele>1068</ele>
        <time>2022-09-22T09:25:02Z</time>
      </trkpt>
      <trkpt lat="44.13847" lon="5.83909">
        <ele>1068</ele>
        <time>2022-09-22T09:25:03Z</time>
      </trkpt>
      <trkpt lat="44.13847" lon="5.83908">
        <ele>1069</ele>
        <time>2022-09-22T09:25:04Z</time>
      </trkpt>
      <trkpt lat="44.13846" lon="5.83907">
        <ele>1069</ele>
        <time>2022-09-22T09:25:05Z</time>
      </trkpt>
      <trkpt lat="44.13846" lon="5.83907">
        <ele>1069</ele>
        <time>2022-09-22T09:25:06Z</time>
      </trkpt>
      <trkpt lat="44.13845" lon="5.83906">
        <ele>1069</ele>
        <time>2022-09-22T09:25:07Z</time>
      </trkpt>
      <trkpt lat="44.13845" lon="5.83906">
        <ele>1069</ele>
        <time>2022-09-22T09:25:08Z</time>
      </trkpt>
      <trkpt lat="44.13844" lon="5.83906">
        <ele>1069</ele>
        <time>2022-09-22T09:25:09Z</time>
      </trkpt>
      <trkpt lat="44.13844" lon="5.83905">
        <ele>1069</ele>
        <time>2022-09-22T09:25:10Z</time>
      </trkpt>
      <trkpt lat="44.13843" lon="5.83905">
        <ele>1069</ele>
        <time>2022-09-22T09:25:11Z</time>
      </trkpt>
      <trkpt lat="44.13842" lon="5.83905">
        <ele>1069</ele>
        <time>2022-09-22T09:25:12Z</time>
      </trkpt>
      <trkpt lat="44.13842" lon="5.83904">
        <ele>1069</ele>
        <time>2022-09-22T09:25:13Z</time>
      </trkpt>
      <trkpt lat="44.13841" lon="5.83904">
        <ele>1070</ele>
        <time>2022-09-22T09:25:14Z</time>
      </trkpt>
      <trkpt lat="44.1384" lon="5.83904">
        <ele>1070</ele>
        <time>2022-09-22T09:25:15Z</time>
      </trkpt>
      <trkpt lat="44.1384" lon="5.83903">
        <ele>1070</ele>
        <time>2022-09-22T09:25:16Z</time>
      </trkpt>
      <trkpt lat="44.13839" lon="5.83903">
        <ele>1070</ele>
        <time>2022-09-22T09:25:17Z</time>
      </trkpt>
      <trkpt lat="44.13839" lon="5.83903">
        <ele>1070</ele>
        <time>2022-09-22T09:25:18Z</time>
      </trkpt>
      <trkpt lat="44.13838" lon="5.83902">
        <ele>1070</ele>
        <time>2022-09-22T09:25:19Z</time>
      </trkpt>
      <trkpt lat="44.13838" lon="5.83901">
        <ele>1070</ele>
        <time>2022-09-22T09:25:20Z</time>
      </trkpt>
      <trkpt lat="44.13837" lon="5.83901">
        <ele>1070</ele>
        <time>2022-09-22T09:25:21Z</time>
      </trkpt>
      <trkpt lat="44.13837" lon="5.839">
        <ele>1070</ele>
        <time>2022-09-22T09:25:22Z</time>
      </trkpt>
      <trkpt lat="44.13836" lon="5.83899">
        <ele>1070</ele>
        <time>2022-09-22T09:25:23Z</time>
      </trkpt>
      <trkpt lat="44.13836" lon="5.83899">
        <ele>1071</ele>
        <time>2022-09-22T09:25:24Z</time>
      </trkpt>
      <trkpt lat="44.13836" lon="5.83899">
        <ele>1071</ele>
        <time>2022-09-22T09:25:25Z</time>
      </trkpt>
      <trkpt lat="44.13836" lon="5.83898">
        <ele>1071</ele>
        <time>2022-09-22T09:25:26Z</time>
      </trkpt>
      <trkpt lat="44.13836" lon="5.83897">
        <ele>1071</ele>
        <time>2022-09-22T09:25:27Z</time>
      </trkpt>
      <trkpt lat="44.13835" lon="5.83896">
        <ele>1071</ele>
        <time>2022-09-22T09:25:28Z</time>
      </trkpt>
      <trkpt lat="44.13835" lon="5.83895">
        <ele>1072</ele>
        <time>2022-09-22T09:25:29Z</time>
      </trkpt>
      <trkpt lat="44.13835" lon="5.83894">
        <ele>1072</ele>
        <time>2022-09-22T09:25:30Z</time>
      </trkpt>
      <trkpt lat="44.13835" lon="5.83892">
        <ele>1072</ele>
        <time>2022-09-22T09:25:31Z</time>
      </trkpt>
      <trkpt lat="44.13835" lon="5.83891">
        <ele>1072</ele>
        <time>2022-09-22T09:25:32Z</time>
      </trkpt>
      <trkpt lat="44.13834" lon="5.8389">
        <ele>1072</ele>
        <time>2022-09-22T09:25:33Z</time>
      </trkpt>
      <trkpt lat="44.13834" lon="5.83889">
        <ele>1072</ele>
        <time>2022-09-22T09:25:34Z</time>
      </trkpt>
      <trkpt lat="44.13834" lon="5.83889">
        <ele>1072</ele>
        <time>2022-09-22T09:25:35Z</time>
      </trkpt>
      <trkpt lat="44.13834" lon="5.83889">
        <ele>1072</ele>
        <time>2022-09-22T09:25:36Z</time>
      </trkpt>
      <trkpt lat="44.13834" lon="5.83888">
        <ele>1072</ele>
        <time>2022-09-22T09:25:37Z</time>
      </trkpt>
      <trkpt lat="44.13834" lon="5.83888">
        <ele>1072</ele>
        <time>2022-09-22T09:25:38Z</time>
      </trkpt>
      <trkpt lat="44.13833" lon="5.83887">
        <ele>1073</ele>
        <time>2022-09-22T09:25:39Z</time>
      </trkpt>
      <trkpt lat="44.13833" lon="5.83886">
        <ele>1073</ele>
        <time>2022-09-22T09:25:40Z</time>
      </trkpt>
      <trkpt lat="44.13832" lon="5.83886">
        <ele>1073</ele>
        <time>2022-09-22T09:25:41Z</time>
      </trkpt>
      <trkpt lat="44.13831" lon="5.83885">
        <ele>1073</ele>
        <time>2022-09-22T09:25:42Z</time>
      </trkpt>
      <trkpt lat="44.1383" lon="5.83884">
        <ele>1074</ele>
        <time>2022-09-22T09:25:53Z</time>
      </trkpt>
      <trkpt lat="44.1383" lon="5.83883">
        <ele>1075</ele>
        <time>2022-09-22T09:25:54Z</time>
      </trkpt>
      <trkpt lat="44.1383" lon="5.83881">
        <ele>1075</ele>
        <time>2022-09-22T09:25:55Z</time>
      </trkpt>
      <trkpt lat="44.1383" lon="5.83881">
        <ele>1075</ele>
        <time>2022-09-22T09:25:56Z</time>
      </trkpt>
      <trkpt lat="44.1383" lon="5.8388">
        <ele>1075</ele>
        <time>2022-09-22T09:25:57Z</time>
      </trkpt>
      <trkpt lat="44.1383" lon="5.83878">
        <ele>1077</ele>
        <time>2022-09-22T09:26:04Z</time>
      </trkpt>
      <trkpt lat="44.13829" lon="5.83877">
        <ele>1077</ele>
        <time>2022-09-22T09:26:05Z</time>
      </trkpt>
      <trkpt lat="44.13829" lon="5.83876">
        <ele>1077</ele>
        <time>2022-09-22T09:26:06Z</time>
      </trkpt>
      <trkpt lat="44.13829" lon="5.83875">
        <ele>1077</ele>
        <time>2022-09-22T09:26:07Z</time>
      </trkpt>
      <trkpt lat="44.13828" lon="5.83875">
        <ele>1077</ele>
        <time>2022-09-22T09:26:08Z</time>
      </trkpt>
      <trkpt lat="44.13828" lon="5.83875">
        <ele>1077</ele>
        <time>2022-09-22T09:26:09Z</time>
      </trkpt>
      <trkpt lat="44.13828" lon="5.83874">
        <ele>1077</ele>
        <time>2022-09-22T09:26:10Z</time>
      </trkpt>
      <trkpt lat="44.13827" lon="5.83873">
        <ele>1077</ele>
        <time>2022-09-22T09:26:11Z</time>
      </trkpt>
      <trkpt lat="44.13827" lon="5.83873">
        <ele>1077</ele>
        <time>2022-09-22T09:26:12Z</time>
      </trkpt>
      <trkpt lat="44.13826" lon="5.83872">
        <ele>1077</ele>
        <time>2022-09-22T09:26:13Z</time>
      </trkpt>
      <trkpt lat="44.13825" lon="5.83872">
        <ele>1078</ele>
        <time>2022-09-22T09:26:14Z</time>
      </trkpt>
      <trkpt lat="44.13824" lon="5.83872">
        <ele>1078</ele>
        <time>2022-09-22T09:26:15Z</time>
      </trkpt>
      <trkpt lat="44.13824" lon="5.83872">
        <ele>1078</ele>
        <time>2022-09-22T09:26:16Z</time>
      </trkpt>
      <trkpt lat="44.13824" lon="5.83871">
        <ele>1078</ele>
        <time>2022-09-22T09:26:17Z</time>
      </trkpt>
      <trkpt lat="44.13823" lon="5.83871">
        <ele>1078</ele>
        <time>2022-09-22T09:26:18Z</time>
      </trkpt>
      <trkpt lat="44.13822" lon="5.83871">
        <ele>1078</ele>
        <time>2022-09-22T09:26:19Z</time>
      </trkpt>
      <trkpt lat="44.13822" lon="5.8387">
        <ele>1078</ele>
        <time>2022-09-22T09:26:20Z</time>
      </trkpt>
      <trkpt lat="44.13821" lon="5.83869">
        <ele>1078</ele>
        <time>2022-09-22T09:26:21Z</time>
      </trkpt>
      <trkpt lat="44.1382" lon="5.83869">
        <ele>1078</ele>
        <time>2022-09-22T09:26:22Z</time>
      </trkpt>
      <trkpt lat="44.1382" lon="5.83868">
        <ele>1078</ele>
        <time>2022-09-22T09:26:23Z</time>
      </trkpt>
      <trkpt lat="44.13819" lon="5.83867">
        <ele>1079</ele>
        <time>2022-09-22T09:26:24Z</time>
      </trkpt>
      <trkpt lat="44.13818" lon="5.83864">
        <ele>1080</ele>
        <time>2022-09-22T09:26:34Z</time>
      </trkpt>
      <trkpt lat="44.13818" lon="5.83863">
        <ele>1080</ele>
        <time>2022-09-22T09:26:35Z</time>
      </trkpt>
      <trkpt lat="44.13818" lon="5.83862">
        <ele>1080</ele>
        <time>2022-09-22T09:26:36Z</time>
      </trkpt>
      <trkpt lat="44.13818" lon="5.83858">
        <ele>1082</ele>
        <time>2022-09-22T09:26:46Z</time>
      </trkpt>
      <trkpt lat="44.13818" lon="5.83856">
        <ele>1082</ele>
        <time>2022-09-22T09:26:47Z</time>
      </trkpt>
      <trkpt lat="44.13818" lon="5.83854">
        <ele>1082</ele>
        <time>2022-09-22T09:26:48Z</time>
      </trkpt>
      <trkpt lat="44.13818" lon="5.83848">
        <ele>1084</ele>
        <time>2022-09-22T09:26:59Z</time>
      </trkpt>
      <trkpt lat="44.13818" lon="5.83845">
        <ele>1084</ele>
        <time>2022-09-22T09:27:00Z</time>
      </trkpt>
      <trkpt lat="44.13817" lon="5.83842">
        <ele>1084</ele>
        <time>2022-09-22T09:27:01Z</time>
      </trkpt>
      <trkpt lat="44.13815" lon="5.83838">
        <ele>1085</ele>
        <time>2022-09-22T09:27:08Z</time>
      </trkpt>
      <trkpt lat="44.13814" lon="5.83837">
        <ele>1085</ele>
        <time>2022-09-22T09:27:09Z</time>
      </trkpt>
      <trkpt lat="44.13813" lon="5.83835">
        <ele>1085</ele>
        <time>2022-09-22T09:27:10Z</time>
      </trkpt>
      <trkpt lat="44.13812" lon="5.83834">
        <ele>1085</ele>
        <time>2022-09-22T09:27:11Z</time>
      </trkpt>
      <trkpt lat="44.13811" lon="5.83833">
        <ele>1085</ele>
        <time>2022-09-22T09:27:12Z</time>
      </trkpt>
      <trkpt lat="44.1381" lon="5.83832">
        <ele>1085</ele>
        <time>2022-09-22T09:27:13Z</time>
      </trkpt>
      <trkpt lat="44.13809" lon="5.8383">
        <ele>1086</ele>
        <time>2022-09-22T09:27:14Z</time>
      </trkpt>
      <trkpt lat="44.13809" lon="5.8383">
        <ele>1086</ele>
        <time>2022-09-22T09:27:15Z</time>
      </trkpt>
      <trkpt lat="44.13809" lon="5.83829">
        <ele>1086</ele>
        <time>2022-09-22T09:27:16Z</time>
      </trkpt>
      <trkpt lat="44.13809" lon="5.83829">
        <ele>1086</ele>
        <time>2022-09-22T09:27:17Z</time>
      </trkpt>
      <trkpt lat="44.1381" lon="5.83829">
        <ele>1086</ele>
        <time>2022-09-22T09:27:18Z</time>
      </trkpt>
      <trkpt lat="44.13813" lon="5.83829">
        <ele>1088</ele>
        <time>2022-09-22T09:27:36Z</time>
      </trkpt>
      <trkpt lat="44.13815" lon="5.83828">
        <ele>1088</ele>
        <time>2022-09-22T09:27:37Z</time>
      </trkpt>
      <trkpt lat="44.13816" lon="5.83828">
        <ele>1088</ele>
        <time>2022-09-22T09:27:38Z</time>
      </trkpt>
      <trkpt lat="44.13818" lon="5.83828">
        <ele>1089</ele>
        <time>2022-09-22T09:27:39Z</time>
      </trkpt>
      <trkpt lat="44.13819" lon="5.83827">
        <ele>1089</ele>
        <time>2022-09-22T09:27:40Z</time>
      </trkpt>
      <trkpt lat="44.13819" lon="5.83827">
        <ele>1089</ele>
        <time>2022-09-22T09:27:41Z</time>
      </trkpt>
      <trkpt lat="44.13819" lon="5.83827">
        <ele>1089</ele>
        <time>2022-09-22T09:27:42Z</time>
      </trkpt>
      <trkpt lat="44.1382" lon="5.83826">
        <ele>1089</ele>
        <time>2022-09-22T09:27:43Z</time>
      </trkpt>
      <trkpt lat="44.13821" lon="5.83826">
        <ele>1090</ele>
        <time>2022-09-22T09:27:44Z</time>
      </trkpt>
      <trkpt lat="44.13821" lon="5.83825">
        <ele>1090</ele>
        <time>2022-09-22T09:27:45Z</time>
      </trkpt>
      <trkpt lat="44.13822" lon="5.83824">
        <ele>1090</ele>
        <time>2022-09-22T09:27:46Z</time>
      </trkpt>
      <trkpt lat="44.13825" lon="5.83822">
        <ele>1092</ele>
        <time>2022-09-22T09:28:08Z</time>
      </trkpt>
      <trkpt lat="44.13827" lon="5.8382">
        <ele>1093</ele>
        <time>2022-09-22T09:28:09Z</time>
      </trkpt>
      <trkpt lat="44.13829" lon="5.83818">
        <ele>1093</ele>
        <time>2022-09-22T09:28:10Z</time>
      </trkpt>
      <trkpt lat="44.1383" lon="5.83816">
        <ele>1093</ele>
        <time>2022-09-22T09:28:11Z</time>
      </trkpt>
      <trkpt lat="44.13831" lon="5.83815">
        <ele>1093</ele>
        <time>2022-09-22T09:28:12Z</time>
      </trkpt>
      <trkpt lat="44.13831" lon="5.83814">
        <ele>1093</ele>
        <time>2022-09-22T09:28:13Z</time>
      </trkpt>
      <trkpt lat="44.13832" lon="5.83813">
        <ele>1094</ele>
        <time>2022-09-22T09:28:14Z</time>
      </trkpt>
      <trkpt lat="44.13832" lon="5.83812">
        <ele>1094</ele>
        <time>2022-09-22T09:28:15Z</time>
      </trkpt>
      <trkpt lat="44.13833" lon="5.83812">
        <ele>1094</ele>
        <time>2022-09-22T09:28:16Z</time>
      </trkpt>
      <trkpt lat="44.13834" lon="5.83808">
        <ele>1097</ele>
        <time>2022-09-22T09:32:45Z</time>
      </trkpt>
      <trkpt lat="44.13835" lon="5.83806">
        <ele>1097</ele>
        <time>2022-09-22T09:32:46Z</time>
      </trkpt>
      <trkpt lat="44.13835" lon="5.83804">
        <ele>1097</ele>
        <time>2022-09-22T09:32:47Z</time>
      </trkpt>
      <trkpt lat="44.13835" lon="5.83803">
        <ele>1097</ele>
        <time>2022-09-22T09:32:48Z</time>
      </trkpt>
      <trkpt lat="44.13835" lon="5.83802">
        <ele>1097</ele>
        <time>2022-09-22T09:32:49Z</time>
      </trkpt>
      <trkpt lat="44.13835" lon="5.83802">
        <ele>1097</ele>
        <time>2022-09-22T09:32:50Z</time>
      </trkpt>
      <trkpt lat="44.13835" lon="5.83802">
        <ele>1097</ele>
        <time>2022-09-22T09:32:51Z</time>
      </trkpt>
      <trkpt lat="44.13835" lon="5.83801">
        <ele>1097</ele>
        <time>2022-09-22T09:32:52Z</time>
      </trkpt>
      <trkpt lat="44.13834" lon="5.838">
        <ele>1097</ele>
        <time>2022-09-22T09:32:53Z</time>
      </trkpt>
      <trkpt lat="44.13834" lon="5.83799">
        <ele>1098</ele>
        <time>2022-09-22T09:32:54Z</time>
      </trkpt>
      <trkpt lat="44.13833" lon="5.83799">
        <ele>1098</ele>
        <time>2022-09-22T09:32:55Z</time>
      </trkpt>
      <trkpt lat="44.13833" lon="5.83798">
        <ele>1098</ele>
        <time>2022-09-22T09:32:56Z</time>
      </trkpt>
      <trkpt lat="44.13832" lon="5.83797">
        <ele>1098</ele>
        <time>2022-09-22T09:32:57Z</time>
      </trkpt>
      <trkpt lat="44.13831" lon="5.83797">
        <ele>1098</ele>
        <time>2022-09-22T09:32:58Z</time>
      </trkpt>
      <trkpt lat="44.13831" lon="5.83797">
        <ele>1099</ele>
        <time>2022-09-22T09:32:59Z</time>
      </trkpt>
      <trkpt lat="44.13831" lon="5.83796">
        <ele>1099</ele>
        <time>2022-09-22T09:33:00Z</time>
      </trkpt>
      <trkpt lat="44.1383" lon="5.83796">
        <ele>1099</ele>
        <time>2022-09-22T09:33:01Z</time>
      </trkpt>
      <trkpt lat="44.1383" lon="5.83795">
        <ele>1099</ele>
        <time>2022-09-22T09:33:02Z</time>
      </trkpt>
      <trkpt lat="44.13829" lon="5.83795">
        <ele>1099</ele>
        <time>2022-09-22T09:33:03Z</time>
      </trkpt>
      <trkpt lat="44.13829" lon="5.83794">
        <ele>1099</ele>
        <time>2022-09-22T09:33:04Z</time>
      </trkpt>
      <trkpt lat="44.13828" lon="5.83794">
        <ele>1099</ele>
        <time>2022-09-22T09:33:05Z</time>
      </trkpt>
      <trkpt lat="44.13828" lon="5.83793">
        <ele>1099</ele>
        <time>2022-09-22T09:33:06Z</time>
      </trkpt>
      <trkpt lat="44.13827" lon="5.83792">
        <ele>1099</ele>
        <time>2022-09-22T09:33:07Z</time>
      </trkpt>
      <trkpt lat="44.13826" lon="5.83792">
        <ele>1099</ele>
        <time>2022-09-22T09:33:08Z</time>
      </trkpt>
      <trkpt lat="44.13826" lon="5.83791">
        <ele>1100</ele>
        <time>2022-09-22T09:33:09Z</time>
      </trkpt>
      <trkpt lat="44.13825" lon="5.8379">
        <ele>1100</ele>
        <time>2022-09-22T09:33:10Z</time>
      </trkpt>
      <trkpt lat="44.13825" lon="5.83789">
        <ele>1100</ele>
        <time>2022-09-22T09:33:11Z</time>
      </trkpt>
      <trkpt lat="44.13824" lon="5.83788">
        <ele>1102</ele>
        <time>2022-09-22T09:33:17Z</time>
      </trkpt>
      <trkpt lat="44.13824" lon="5.83787">
        <ele>1102</ele>
        <time>2022-09-22T09:33:18Z</time>
      </trkpt>
      <trkpt lat="44.13823" lon="5.83786">
        <ele>1102</ele>
        <time>2022-09-22T09:33:19Z</time>
      </trkpt>
      <trkpt lat="44.13823" lon="5.83785">
        <ele>1102</ele>
        <time>2022-09-22T09:33:20Z</time>
      </trkpt>
      <trkpt lat="44.13823" lon="5.83784">
        <ele>1102</ele>
        <time>2022-09-22T09:33:21Z</time>
      </trkpt>
      <trkpt lat="44.13823" lon="5.83783">
        <ele>1102</ele>
        <time>2022-09-22T09:33:22Z</time>
      </trkpt>
      <trkpt lat="44.13823" lon="5.83781">
        <ele>1102</ele>
        <time>2022-09-22T09:33:23Z</time>
      </trkpt>
      <trkpt lat="44.13823" lon="5.8378">
        <ele>1102</ele>
        <time>2022-09-22T09:33:24Z</time>
      </trkpt>
      <trkpt lat="44.13823" lon="5.83779">
        <ele>1102</ele>
        <time>2022-09-22T09:33:25Z</time>
      </trkpt>
      <trkpt lat="44.13823" lon="5.83778">
        <ele>1102</ele>
        <time>2022-09-22T09:33:26Z</time>
      </trkpt>
      <trkpt lat="44.13823" lon="5.83777">
        <ele>1102</ele>
        <time>2022-09-22T09:33:27Z</time>
      </trkpt>
      <trkpt lat="44.13823" lon="5.83776">
        <ele>1102</ele>
        <time>2022-09-22T09:33:28Z</time>
      </trkpt>
      <trkpt lat="44.13823" lon="5.83775">
        <ele>1103</ele>
        <time>2022-09-22T09:33:29Z</time>
      </trkpt>
      <trkpt lat="44.13823" lon="5.83774">
        <ele>1103</ele>
        <time>2022-09-22T09:33:30Z</time>
      </trkpt>
      <trkpt lat="44.13822" lon="5.83773">
        <ele>1103</ele>
        <time>2022-09-22T09:33:31Z</time>
      </trkpt>
      <trkpt lat="44.13822" lon="5.83772">
        <ele>1103</ele>
        <time>2022-09-22T09:33:32Z</time>
      </trkpt>
      <trkpt lat="44.13822" lon="5.83771">
        <ele>1103</ele>
        <time>2022-09-22T09:33:33Z</time>
      </trkpt>
      <trkpt lat="44.13822" lon="5.8377">
        <ele>1104</ele>
        <time>2022-09-22T09:33:34Z</time>
      </trkpt>
      <trkpt lat="44.13822" lon="5.83769">
        <ele>1104</ele>
        <time>2022-09-22T09:33:35Z</time>
      </trkpt>
      <trkpt lat="44.13823" lon="5.83768">
        <ele>1104</ele>
        <time>2022-09-22T09:33:36Z</time>
      </trkpt>
      <trkpt lat="44.13823" lon="5.83767">
        <ele>1104</ele>
        <time>2022-09-22T09:33:37Z</time>
      </trkpt>
      <trkpt lat="44.13823" lon="5.83766">
        <ele>1104</ele>
        <time>2022-09-22T09:33:38Z</time>
      </trkpt>
      <trkpt lat="44.13823" lon="5.83765">
        <ele>1104</ele>
        <time>2022-09-22T09:33:39Z</time>
      </trkpt>
      <trkpt lat="44.13823" lon="5.83764">
        <ele>1104</ele>
        <time>2022-09-22T09:33:40Z</time>
      </trkpt>
      <trkpt lat="44.13823" lon="5.83763">
        <ele>1104</ele>
        <time>2022-09-22T09:33:41Z</time>
      </trkpt>
      <trkpt lat="44.13822" lon="5.83762">
        <ele>1104</ele>
        <time>2022-09-22T09:33:42Z</time>
      </trkpt>
      <trkpt lat="44.13822" lon="5.83761">
        <ele>1104</ele>
        <time>2022-09-22T09:33:43Z</time>
      </trkpt>
      <trkpt lat="44.13822" lon="5.8376">
        <ele>1105</ele>
        <time>2022-09-22T09:33:44Z</time>
      </trkpt>
      <trkpt lat="44.13822" lon="5.83758">
        <ele>1105</ele>
        <time>2022-09-22T09:33:45Z</time>
      </trkpt>
      <trkpt lat="44.13822" lon="5.83757">
        <ele>1105</ele>
        <time>2022-09-22T09:33:46Z</time>
      </trkpt>
      <trkpt lat="44.13822" lon="5.83756">
        <ele>1105</ele>
        <time>2022-09-22T09:33:47Z</time>
      </trkpt>
      <trkpt lat="44.13822" lon="5.83755">
        <ele>1105</ele>
        <time>2022-09-22T09:33:48Z</time>
      </trkpt>
      <trkpt lat="44.13822" lon="5.83754">
        <ele>1105</ele>
        <time>2022-09-22T09:33:49Z</time>
      </trkpt>
      <trkpt lat="44.13822" lon="5.83752">
        <ele>1105</ele>
        <time>2022-09-22T09:33:50Z</time>
      </trkpt>
      <trkpt lat="44.13822" lon="5.83751">
        <ele>1105</ele>
        <time>2022-09-22T09:33:51Z</time>
      </trkpt>
      <trkpt lat="44.13822" lon="5.8375">
        <ele>1105</ele>
        <time>2022-09-22T09:33:52Z</time>
      </trkpt>
      <trkpt lat="44.13821" lon="5.83749">
        <ele>1105</ele>
        <time>2022-09-22T09:33:53Z</time>
      </trkpt>
      <trkpt lat="44.13821" lon="5.83748">
        <ele>1105</ele>
        <time>2022-09-22T09:33:54Z</time>
      </trkpt>
      <trkpt lat="44.13821" lon="5.83746">
        <ele>1105</ele>
        <time>2022-09-22T09:33:55Z</time>
      </trkpt>
      <trkpt lat="44.13821" lon="5.83745">
        <ele>1105</ele>
        <time>2022-09-22T09:33:56Z</time>
      </trkpt>
      <trkpt lat="44.13821" lon="5.83743">
        <ele>1105</ele>
        <time>2022-09-22T09:33:57Z</time>
      </trkpt>
      <trkpt lat="44.1382" lon="5.83741">
        <ele>1105</ele>
        <time>2022-09-22T09:33:58Z</time>
      </trkpt>
      <trkpt lat="44.1382" lon="5.83739">
        <ele>1106</ele>
        <time>2022-09-22T09:33:59Z</time>
      </trkpt>
      <trkpt lat="44.1382" lon="5.83738">
        <ele>1106</ele>
        <time>2022-09-22T09:34:00Z</time>
      </trkpt>
      <trkpt lat="44.13821" lon="5.83737">
        <ele>1106</ele>
        <time>2022-09-22T09:34:01Z</time>
      </trkpt>
      <trkpt lat="44.13821" lon="5.83736">
        <ele>1106</ele>
        <time>2022-09-22T09:34:02Z</time>
      </trkpt>
      <trkpt lat="44.13822" lon="5.83735">
        <ele>1106</ele>
        <time>2022-09-22T09:34:03Z</time>
      </trkpt>
      <trkpt lat="44.13822" lon="5.83734">
        <ele>1106</ele>
        <time>2022-09-22T09:34:04Z</time>
      </trkpt>
      <trkpt lat="44.13823" lon="5.83733">
        <ele>1106</ele>
        <time>2022-09-22T09:34:05Z</time>
      </trkpt>
      <trkpt lat="44.13823" lon="5.83732">
        <ele>1106</ele>
        <time>2022-09-22T09:34:06Z</time>
      </trkpt>
      <trkpt lat="44.13823" lon="5.83731">
        <ele>1106</ele>
        <time>2022-09-22T09:34:07Z</time>
      </trkpt>
      <trkpt lat="44.13824" lon="5.8373">
        <ele>1106</ele>
        <time>2022-09-22T09:34:08Z</time>
      </trkpt>
      <trkpt lat="44.13824" lon="5.83728">
        <ele>1106</ele>
        <time>2022-09-22T09:34:09Z</time>
      </trkpt>
      <trkpt lat="44.13824" lon="5.83727">
        <ele>1106</ele>
        <time>2022-09-22T09:34:10Z</time>
      </trkpt>
      <trkpt lat="44.13824" lon="5.83726">
        <ele>1106</ele>
        <time>2022-09-22T09:34:11Z</time>
      </trkpt>
      <trkpt lat="44.13824" lon="5.83724">
        <ele>1106</ele>
        <time>2022-09-22T09:34:12Z</time>
      </trkpt>
      <trkpt lat="44.13824" lon="5.83723">
        <ele>1106</ele>
        <time>2022-09-22T09:34:13Z</time>
      </trkpt>
      <trkpt lat="44.13824" lon="5.83722">
        <ele>1107</ele>
        <time>2022-09-22T09:34:14Z</time>
      </trkpt>
      <trkpt lat="44.13824" lon="5.8372">
        <ele>1107</ele>
        <time>2022-09-22T09:34:15Z</time>
      </trkpt>
      <trkpt lat="44.13824" lon="5.83719">
        <ele>1107</ele>
        <time>2022-09-22T09:34:16Z</time>
      </trkpt>
      <trkpt lat="44.13825" lon="5.83717">
        <ele>1107</ele>
        <time>2022-09-22T09:34:26Z</time>
      </trkpt>
      <trkpt lat="44.13825" lon="5.83716">
        <ele>1107</ele>
        <time>2022-09-22T09:34:27Z</time>
      </trkpt>
      <trkpt lat="44.13825" lon="5.83715">
        <ele>1107</ele>
        <time>2022-09-22T09:34:28Z</time>
      </trkpt>
      <trkpt lat="44.13825" lon="5.83715">
        <ele>1107</ele>
        <time>2022-09-22T09:34:29Z</time>
      </trkpt>
      <trkpt lat="44.13825" lon="5.83714">
        <ele>1107</ele>
        <time>2022-09-22T09:34:30Z</time>
      </trkpt>
      <trkpt lat="44.13825" lon="5.83713">
        <ele>1107</ele>
        <time>2022-09-22T09:34:31Z</time>
      </trkpt>
      <trkpt lat="44.13825" lon="5.83712">
        <ele>1107</ele>
        <time>2022-09-22T09:34:32Z</time>
      </trkpt>
      <trkpt lat="44.13825" lon="5.83711">
        <ele>1107</ele>
        <time>2022-09-22T09:34:33Z</time>
      </trkpt>
      <trkpt lat="44.13824" lon="5.8371">
        <ele>1108</ele>
        <time>2022-09-22T09:34:34Z</time>
      </trkpt>
      <trkpt lat="44.13824" lon="5.83708">
        <ele>1108</ele>
        <time>2022-09-22T09:35:37Z</time>
      </trkpt>
      <trkpt lat="44.13823" lon="5.83707">
        <ele>1108</ele>
        <time>2022-09-22T09:35:38Z</time>
      </trkpt>
      <trkpt lat="44.13823" lon="5.83706">
        <ele>1109</ele>
        <time>2022-09-22T09:35:39Z</time>
      </trkpt>
      <trkpt lat="44.13822" lon="5.83705">
        <ele>1109</ele>
        <time>2022-09-22T09:35:40Z</time>
      </trkpt>
      <trkpt lat="44.13822" lon="5.83704">
        <ele>1109</ele>
        <time>2022-09-22T09:35:41Z</time>
      </trkpt>
      <trkpt lat="44.13822" lon="5.83703">
        <ele>1109</ele>
        <time>2022-09-22T09:35:42Z</time>
      </trkpt>
      <trkpt lat="44.13822" lon="5.83702">
        <ele>1109</ele>
        <time>2022-09-22T09:35:43Z</time>
      </trkpt>
      <trkpt lat="44.13822" lon="5.83701">
        <ele>1109</ele>
        <time>2022-09-22T09:35:44Z</time>
      </trkpt>
      <trkpt lat="44.13822" lon="5.837">
        <ele>1109</ele>
        <time>2022-09-22T09:35:45Z</time>
      </trkpt>
      <trkpt lat="44.13822" lon="5.83699">
        <ele>1109</ele>
        <time>2022-09-22T09:35:46Z</time>
      </trkpt>
      <trkpt lat="44.13822" lon="5.83698">
        <ele>1109</ele>
        <time>2022-09-22T09:35:47Z</time>
      </trkpt>
      <trkpt lat="44.13822" lon="5.83697">
        <ele>1109</ele>
        <time>2022-09-22T09:35:48Z</time>
      </trkpt>
      <trkpt lat="44.13823" lon="5.83696">
        <ele>1110</ele>
        <time>2022-09-22T09:35:49Z</time>
      </trkpt>
      <trkpt lat="44.13823" lon="5.83696">
        <ele>1110</ele>
        <time>2022-09-22T09:35:50Z</time>
      </trkpt>
      <trkpt lat="44.13824" lon="5.83695">
        <ele>1110</ele>
        <time>2022-09-22T09:35:51Z</time>
      </trkpt>
      <trkpt lat="44.13824" lon="5.83694">
        <ele>1110</ele>
        <time>2022-09-22T09:35:52Z</time>
      </trkpt>
      <trkpt lat="44.13824" lon="5.83693">
        <ele>1110</ele>
        <time>2022-09-22T09:35:53Z</time>
      </trkpt>
      <trkpt lat="44.13824" lon="5.83692">
        <ele>1110</ele>
        <time>2022-09-22T09:35:54Z</time>
      </trkpt>
      <trkpt lat="44.13824" lon="5.83691">
        <ele>1109</ele>
        <time>2022-09-22T09:35:55Z</time>
      </trkpt>
      <trkpt lat="44.13824" lon="5.8369">
        <ele>1109</ele>
        <time>2022-09-22T09:35:56Z</time>
      </trkpt>
      <trkpt lat="44.13824" lon="5.83688">
        <ele>1109</ele>
        <time>2022-09-22T09:35:57Z</time>
      </trkpt>
      <trkpt lat="44.13823" lon="5.83687">
        <ele>1109</ele>
        <time>2022-09-22T09:35:58Z</time>
      </trkpt>
      <trkpt lat="44.13823" lon="5.83687">
        <ele>1109</ele>
        <time>2022-09-22T09:35:59Z</time>
      </trkpt>
      <trkpt lat="44.13822" lon="5.83686">
        <ele>1109</ele>
        <time>2022-09-22T09:36:00Z</time>
      </trkpt>
      <trkpt lat="44.13822" lon="5.83685">
        <ele>1109</ele>
        <time>2022-09-22T09:36:01Z</time>
      </trkpt>
      <trkpt lat="44.13821" lon="5.83684">
        <ele>1109</ele>
        <time>2022-09-22T09:36:02Z</time>
      </trkpt>
      <trkpt lat="44.13821" lon="5.83683">
        <ele>1109</ele>
        <time>2022-09-22T09:36:03Z</time>
      </trkpt>
      <trkpt lat="44.13821" lon="5.83682">
        <ele>1109</ele>
        <time>2022-09-22T09:36:04Z</time>
      </trkpt>
      <trkpt lat="44.13821" lon="5.83682">
        <ele>1108</ele>
        <time>2022-09-22T09:36:05Z</time>
      </trkpt>
      <trkpt lat="44.13821" lon="5.83681">
        <ele>1108</ele>
        <time>2022-09-22T09:36:06Z</time>
      </trkpt>
      <trkpt lat="44.1382" lon="5.8368">
        <ele>1108</ele>
        <time>2022-09-22T09:36:07Z</time>
      </trkpt>
      <trkpt lat="44.1382" lon="5.83679">
        <ele>1108</ele>
        <time>2022-09-22T09:36:08Z</time>
      </trkpt>
      <trkpt lat="44.1382" lon="5.83678">
        <ele>1108</ele>
        <time>2022-09-22T09:36:09Z</time>
      </trkpt>
      <trkpt lat="44.13819" lon="5.83677">
        <ele>1108</ele>
        <time>2022-09-22T09:36:10Z</time>
      </trkpt>
      <trkpt lat="44.13819" lon="5.83676">
        <ele>1108</ele>
        <time>2022-09-22T09:36:11Z</time>
      </trkpt>
      <trkpt lat="44.13818" lon="5.83675">
        <ele>1108</ele>
        <time>2022-09-22T09:36:12Z</time>
      </trkpt>
      <trkpt lat="44.13818" lon="5.83674">
        <ele>1108</ele>
        <time>2022-09-22T09:36:13Z</time>
      </trkpt>
      <trkpt lat="44.13818" lon="5.83673">
        <ele>1109</ele>
        <time>2022-09-22T09:36:14Z</time>
      </trkpt>
      <trkpt lat="44.13818" lon="5.83672">
        <ele>1108</ele>
        <time>2022-09-22T09:36:15Z</time>
      </trkpt>
      <trkpt lat="44.13817" lon="5.83671">
        <ele>1108</ele>
        <time>2022-09-22T09:36:16Z</time>
      </trkpt>
      <trkpt lat="44.13817" lon="5.8367">
        <ele>1108</ele>
        <time>2022-09-22T09:36:17Z</time>
      </trkpt>
      <trkpt lat="44.13816" lon="5.83669">
        <ele>1108</ele>
        <time>2022-09-22T09:36:18Z</time>
      </trkpt>
      <trkpt lat="44.13816" lon="5.83668">
        <ele>1108</ele>
        <time>2022-09-22T09:36:19Z</time>
      </trkpt>
      <trkpt lat="44.13815" lon="5.83667">
        <ele>1108</ele>
        <time>2022-09-22T09:36:20Z</time>
      </trkpt>
      <trkpt lat="44.13815" lon="5.83665">
        <ele>1108</ele>
        <time>2022-09-22T09:36:21Z</time>
      </trkpt>
      <trkpt lat="44.13814" lon="5.83664">
        <ele>1108</ele>
        <time>2022-09-22T09:36:22Z</time>
      </trkpt>
      <trkpt lat="44.13813" lon="5.83663">
        <ele>1108</ele>
        <time>2022-09-22T09:36:23Z</time>
      </trkpt>
      <trkpt lat="44.13813" lon="5.83662">
        <ele>1108</ele>
        <time>2022-09-22T09:36:24Z</time>
      </trkpt>
      <trkpt lat="44.13812" lon="5.83661">
        <ele>1107</ele>
        <time>2022-09-22T09:36:25Z</time>
      </trkpt>
      <trkpt lat="44.13811" lon="5.83661">
        <ele>1107</ele>
        <time>2022-09-22T09:36:26Z</time>
      </trkpt>
      <trkpt lat="44.13811" lon="5.8366">
        <ele>1107</ele>
        <time>2022-09-22T09:36:27Z</time>
      </trkpt>
      <trkpt lat="44.1381" lon="5.83659">
        <ele>1107</ele>
        <time>2022-09-22T09:36:28Z</time>
      </trkpt>
      <trkpt lat="44.13809" lon="5.83658">
        <ele>1107</ele>
        <time>2022-09-22T09:36:29Z</time>
      </trkpt>
      <trkpt lat="44.13809" lon="5.83657">
        <ele>1106</ele>
        <time>2022-09-22T09:36:30Z</time>
      </trkpt>
      <trkpt lat="44.13808" lon="5.83656">
        <ele>1106</ele>
        <time>2022-09-22T09:36:31Z</time>
      </trkpt>
      <trkpt lat="44.13808" lon="5.83655">
        <ele>1106</ele>
        <time>2022-09-22T09:36:32Z</time>
      </trkpt>
      <trkpt lat="44.13807" lon="5.83654">
        <ele>1106</ele>
        <time>2022-09-22T09:36:33Z</time>
      </trkpt>
      <trkpt lat="44.13807" lon="5.83653">
        <ele>1106</ele>
        <time>2022-09-22T09:36:34Z</time>
      </trkpt>
      <trkpt lat="44.13806" lon="5.83653">
        <ele>1106</ele>
        <time>2022-09-22T09:36:35Z</time>
      </trkpt>
      <trkpt lat="44.13806" lon="5.83652">
        <ele>1106</ele>
        <time>2022-09-22T09:36:36Z</time>
      </trkpt>
      <trkpt lat="44.13806" lon="5.83651">
        <ele>1106</ele>
        <time>2022-09-22T09:36:37Z</time>
      </trkpt>
      <trkpt lat="44.13805" lon="5.8365">
        <ele>1106</ele>
        <time>2022-09-22T09:36:38Z</time>
      </trkpt>
      <trkpt lat="44.13805" lon="5.83649">
        <ele>1106</ele>
        <time>2022-09-22T09:36:39Z</time>
      </trkpt>
      <trkpt lat="44.13804" lon="5.83649">
        <ele>1105</ele>
        <time>2022-09-22T09:36:40Z</time>
      </trkpt>
      <trkpt lat="44.13803" lon="5.83648">
        <ele>1105</ele>
        <time>2022-09-22T09:36:41Z</time>
      </trkpt>
      <trkpt lat="44.13803" lon="5.83647">
        <ele>1105</ele>
        <time>2022-09-22T09:36:42Z</time>
      </trkpt>
      <trkpt lat="44.13802" lon="5.83646">
        <ele>1105</ele>
        <time>2022-09-22T09:36:43Z</time>
      </trkpt>
      <trkpt lat="44.13801" lon="5.83646">
        <ele>1105</ele>
        <time>2022-09-22T09:36:44Z</time>
      </trkpt>
      <trkpt lat="44.13801" lon="5.83645">
        <ele>1104</ele>
        <time>2022-09-22T09:36:45Z</time>
      </trkpt>
      <trkpt lat="44.138" lon="5.83644">
        <ele>1104</ele>
        <time>2022-09-22T09:36:46Z</time>
      </trkpt>
      <trkpt lat="44.138" lon="5.83643">
        <ele>1104</ele>
        <time>2022-09-22T09:36:47Z</time>
      </trkpt>
      <trkpt lat="44.13799" lon="5.83642">
        <ele>1104</ele>
        <time>2022-09-22T09:36:48Z</time>
      </trkpt>
      <trkpt lat="44.13799" lon="5.83641">
        <ele>1104</ele>
        <time>2022-09-22T09:36:49Z</time>
      </trkpt>
      <trkpt lat="44.13798" lon="5.8364">
        <ele>1104</ele>
        <time>2022-09-22T09:36:50Z</time>
      </trkpt>
      <trkpt lat="44.13798" lon="5.83639">
        <ele>1104</ele>
        <time>2022-09-22T09:36:51Z</time>
      </trkpt>
      <trkpt lat="44.13797" lon="5.83637">
        <ele>1104</ele>
        <time>2022-09-22T09:36:52Z</time>
      </trkpt>
      <trkpt lat="44.13797" lon="5.83636">
        <ele>1104</ele>
        <time>2022-09-22T09:36:53Z</time>
      </trkpt>
      <trkpt lat="44.13796" lon="5.83635">
        <ele>1104</ele>
        <time>2022-09-22T09:36:54Z</time>
      </trkpt>
      <trkpt lat="44.13796" lon="5.83633">
        <ele>1103</ele>
        <time>2022-09-22T09:36:55Z</time>
      </trkpt>
      <trkpt lat="44.13796" lon="5.83632">
        <ele>1103</ele>
        <time>2022-09-22T09:36:56Z</time>
      </trkpt>
      <trkpt lat="44.13795" lon="5.8363">
        <ele>1103</ele>
        <time>2022-09-22T09:36:57Z</time>
      </trkpt>
      <trkpt lat="44.13794" lon="5.83629">
        <ele>1103</ele>
        <time>2022-09-22T09:36:58Z</time>
      </trkpt>
      <trkpt lat="44.13794" lon="5.83628">
        <ele>1103</ele>
        <time>2022-09-22T09:36:59Z</time>
      </trkpt>
      <trkpt lat="44.13793" lon="5.83627">
        <ele>1103</ele>
        <time>2022-09-22T09:37:00Z</time>
      </trkpt>
      <trkpt lat="44.13792" lon="5.83626">
        <ele>1103</ele>
        <time>2022-09-22T09:37:01Z</time>
      </trkpt>
      <trkpt lat="44.13791" lon="5.83625">
        <ele>1103</ele>
        <time>2022-09-22T09:37:02Z</time>
      </trkpt>
      <trkpt lat="44.13791" lon="5.83624">
        <ele>1103</ele>
        <time>2022-09-22T09:37:03Z</time>
      </trkpt>
      <trkpt lat="44.1379" lon="5.83623">
        <ele>1103</ele>
        <time>2022-09-22T09:37:04Z</time>
      </trkpt>
      <trkpt lat="44.1379" lon="5.83622">
        <ele>1103</ele>
        <time>2022-09-22T09:37:05Z</time>
      </trkpt>
      <trkpt lat="44.1379" lon="5.8362">
        <ele>1103</ele>
        <time>2022-09-22T09:37:06Z</time>
      </trkpt>
      <trkpt lat="44.13789" lon="5.83619">
        <ele>1103</ele>
        <time>2022-09-22T09:37:07Z</time>
      </trkpt>
      <trkpt lat="44.13789" lon="5.83618">
        <ele>1103</ele>
        <time>2022-09-22T09:37:08Z</time>
      </trkpt>
      <trkpt lat="44.13788" lon="5.83617">
        <ele>1103</ele>
        <time>2022-09-22T09:37:09Z</time>
      </trkpt>
      <trkpt lat="44.13788" lon="5.83616">
        <ele>1102</ele>
        <time>2022-09-22T09:37:10Z</time>
      </trkpt>
      <trkpt lat="44.13787" lon="5.83615">
        <ele>1102</ele>
        <time>2022-09-22T09:37:11Z</time>
      </trkpt>
      <trkpt lat="44.13787" lon="5.83614">
        <ele>1102</ele>
        <time>2022-09-22T09:37:12Z</time>
      </trkpt>
      <trkpt lat="44.13786" lon="5.83613">
        <ele>1102</ele>
        <time>2022-09-22T09:37:13Z</time>
      </trkpt>
      <trkpt lat="44.13785" lon="5.83612">
        <ele>1102</ele>
        <time>2022-09-22T09:37:14Z</time>
      </trkpt>
      <trkpt lat="44.13785" lon="5.83611">
        <ele>1102</ele>
        <time>2022-09-22T09:37:15Z</time>
      </trkpt>
      <trkpt lat="44.13784" lon="5.8361">
        <ele>1102</ele>
        <time>2022-09-22T09:37:16Z</time>
      </trkpt>
      <trkpt lat="44.13784" lon="5.83609">
        <ele>1102</ele>
        <time>2022-09-22T09:37:17Z</time>
      </trkpt>
      <trkpt lat="44.13783" lon="5.83608">
        <ele>1102</ele>
        <time>2022-09-22T09:37:18Z</time>
      </trkpt>
      <trkpt lat="44.13783" lon="5.83607">
        <ele>1102</ele>
        <time>2022-09-22T09:37:19Z</time>
      </trkpt>
      <trkpt lat="44.13782" lon="5.83605">
        <ele>1102</ele>
        <time>2022-09-22T09:37:20Z</time>
      </trkpt>
      <trkpt lat="44.13782" lon="5.83604">
        <ele>1102</ele>
        <time>2022-09-22T09:37:21Z</time>
      </trkpt>
      <trkpt lat="44.13782" lon="5.83602">
        <ele>1102</ele>
        <time>2022-09-22T09:37:22Z</time>
      </trkpt>
      <trkpt lat="44.13781" lon="5.83601">
        <ele>1102</ele>
        <time>2022-09-22T09:37:23Z</time>
      </trkpt>
      <trkpt lat="44.13781" lon="5.83599">
        <ele>1102</ele>
        <time>2022-09-22T09:37:24Z</time>
      </trkpt>
      <trkpt lat="44.1378" lon="5.83598">
        <ele>1102</ele>
        <time>2022-09-22T09:37:25Z</time>
      </trkpt>
      <trkpt lat="44.1378" lon="5.83596">
        <ele>1102</ele>
        <time>2022-09-22T09:37:26Z</time>
      </trkpt>
      <trkpt lat="44.13779" lon="5.83594">
        <ele>1102</ele>
        <time>2022-09-22T09:37:27Z</time>
      </trkpt>
      <trkpt lat="44.13778" lon="5.83593">
        <ele>1102</ele>
        <time>2022-09-22T09:37:28Z</time>
      </trkpt>
      <trkpt lat="44.13778" lon="5.83592">
        <ele>1102</ele>
        <time>2022-09-22T09:37:29Z</time>
      </trkpt>
      <trkpt lat="44.13777" lon="5.83591">
        <ele>1102</ele>
        <time>2022-09-22T09:37:30Z</time>
      </trkpt>
      <trkpt lat="44.13776" lon="5.83589">
        <ele>1102</ele>
        <time>2022-09-22T09:37:31Z</time>
      </trkpt>
      <trkpt lat="44.13776" lon="5.83588">
        <ele>1102</ele>
        <time>2022-09-22T09:37:32Z</time>
      </trkpt>
      <trkpt lat="44.13775" lon="5.83587">
        <ele>1102</ele>
        <time>2022-09-22T09:37:33Z</time>
      </trkpt>
      <trkpt lat="44.13774" lon="5.83586">
        <ele>1102</ele>
        <time>2022-09-22T09:37:34Z</time>
      </trkpt>
      <trkpt lat="44.13774" lon="5.83584">
        <ele>1102</ele>
        <time>2022-09-22T09:37:35Z</time>
      </trkpt>
      <trkpt lat="44.13773" lon="5.83583">
        <ele>1102</ele>
        <time>2022-09-22T09:37:36Z</time>
      </trkpt>
      <trkpt lat="44.13772" lon="5.83582">
        <ele>1102</ele>
        <time>2022-09-22T09:37:37Z</time>
      </trkpt>
      <trkpt lat="44.13772" lon="5.83581">
        <ele>1102</ele>
        <time>2022-09-22T09:37:38Z</time>
      </trkpt>
      <trkpt lat="44.13771" lon="5.83579">
        <ele>1102</ele>
        <time>2022-09-22T09:37:39Z</time>
      </trkpt>
      <trkpt lat="44.1377" lon="5.83578">
        <ele>1101</ele>
        <time>2022-09-22T09:37:40Z</time>
      </trkpt>
      <trkpt lat="44.1377" lon="5.83577">
        <ele>1101</ele>
        <time>2022-09-22T09:37:41Z</time>
      </trkpt>
      <trkpt lat="44.13769" lon="5.83576">
        <ele>1100</ele>
        <time>2022-09-22T09:37:42Z</time>
      </trkpt>
      <trkpt lat="44.13769" lon="5.83574">
        <ele>1100</ele>
        <time>2022-09-22T09:37:43Z</time>
      </trkpt>
      <trkpt lat="44.13768" lon="5.83573">
        <ele>1100</ele>
        <time>2022-09-22T09:37:44Z</time>
      </trkpt>
      <trkpt lat="44.13768" lon="5.83572">
        <ele>1100</ele>
        <time>2022-09-22T09:37:45Z</time>
      </trkpt>
      <trkpt lat="44.13767" lon="5.8357">
        <ele>1100</ele>
        <time>2022-09-22T09:37:46Z</time>
      </trkpt>
      <trkpt lat="44.13766" lon="5.83569">
        <ele>1100</ele>
        <time>2022-09-22T09:37:47Z</time>
      </trkpt>
      <trkpt lat="44.13765" lon="5.83568">
        <ele>1100</ele>
        <time>2022-09-22T09:37:48Z</time>
      </trkpt>
      <trkpt lat="44.13764" lon="5.83567">
        <ele>1100</ele>
        <time>2022-09-22T09:37:49Z</time>
      </trkpt>
      <trkpt lat="44.13763" lon="5.83566">
        <ele>1100</ele>
        <time>2022-09-22T09:37:50Z</time>
      </trkpt>
      <trkpt lat="44.13762" lon="5.83565">
        <ele>1100</ele>
        <time>2022-09-22T09:37:51Z</time>
      </trkpt>
      <trkpt lat="44.13761" lon="5.83565">
        <ele>1100</ele>
        <time>2022-09-22T09:37:52Z</time>
      </trkpt>
      <trkpt lat="44.1376" lon="5.83564">
        <ele>1100</ele>
        <time>2022-09-22T09:37:53Z</time>
      </trkpt>
      <trkpt lat="44.1376" lon="5.83563">
        <ele>1100</ele>
        <time>2022-09-22T09:37:54Z</time>
      </trkpt>
      <trkpt lat="44.13759" lon="5.83562">
        <ele>1100</ele>
        <time>2022-09-22T09:37:55Z</time>
      </trkpt>
      <trkpt lat="44.13758" lon="5.83561">
        <ele>1100</ele>
        <time>2022-09-22T09:37:56Z</time>
      </trkpt>
      <trkpt lat="44.13757" lon="5.83561">
        <ele>1100</ele>
        <time>2022-09-22T09:37:57Z</time>
      </trkpt>
      <trkpt lat="44.13756" lon="5.8356">
        <ele>1100</ele>
        <time>2022-09-22T09:37:58Z</time>
      </trkpt>
      <trkpt lat="44.13755" lon="5.83559">
        <ele>1100</ele>
        <time>2022-09-22T09:37:59Z</time>
      </trkpt>
      <trkpt lat="44.13754" lon="5.83558">
        <ele>1100</ele>
        <time>2022-09-22T09:38:00Z</time>
      </trkpt>
      <trkpt lat="44.13753" lon="5.83558">
        <ele>1101</ele>
        <time>2022-09-22T09:38:01Z</time>
      </trkpt>
      <trkpt lat="44.13752" lon="5.83557">
        <ele>1101</ele>
        <time>2022-09-22T09:38:02Z</time>
      </trkpt>
      <trkpt lat="44.13752" lon="5.83556">
        <ele>1102</ele>
        <time>2022-09-22T09:38:03Z</time>
      </trkpt>
      <trkpt lat="44.13751" lon="5.83555">
        <ele>1103</ele>
        <time>2022-09-22T09:38:04Z</time>
      </trkpt>
      <trkpt lat="44.13751" lon="5.83554">
        <ele>1102</ele>
        <time>2022-09-22T09:38:05Z</time>
      </trkpt>
      <trkpt lat="44.1375" lon="5.83553">
        <ele>1102</ele>
        <time>2022-09-22T09:38:06Z</time>
      </trkpt>
      <trkpt lat="44.1375" lon="5.83552">
        <ele>1102</ele>
        <time>2022-09-22T09:38:07Z</time>
      </trkpt>
      <trkpt lat="44.13749" lon="5.8355">
        <ele>1102</ele>
        <time>2022-09-22T09:38:08Z</time>
      </trkpt>
      <trkpt lat="44.13748" lon="5.83549">
        <ele>1102</ele>
        <time>2022-09-22T09:38:09Z</time>
      </trkpt>
      <trkpt lat="44.13748" lon="5.83548">
        <ele>1101</ele>
        <time>2022-09-22T09:38:10Z</time>
      </trkpt>
      <trkpt lat="44.13747" lon="5.83547">
        <ele>1101</ele>
        <time>2022-09-22T09:38:11Z</time>
      </trkpt>
      <trkpt lat="44.13746" lon="5.83546">
        <ele>1100</ele>
        <time>2022-09-22T09:38:12Z</time>
      </trkpt>
      <trkpt lat="44.13746" lon="5.83545">
        <ele>1100</ele>
        <time>2022-09-22T09:38:13Z</time>
      </trkpt>
      <trkpt lat="44.13745" lon="5.83544">
        <ele>1100</ele>
        <time>2022-09-22T09:38:14Z</time>
      </trkpt>
      <trkpt lat="44.13744" lon="5.83543">
        <ele>1100</ele>
        <time>2022-09-22T09:38:15Z</time>
      </trkpt>
      <trkpt lat="44.13743" lon="5.83542">
        <ele>1100</ele>
        <time>2022-09-22T09:38:16Z</time>
      </trkpt>
      <trkpt lat="44.13742" lon="5.83541">
        <ele>1100</ele>
        <time>2022-09-22T09:38:17Z</time>
      </trkpt>
      <trkpt lat="44.13741" lon="5.8354">
        <ele>1100</ele>
        <time>2022-09-22T09:38:18Z</time>
      </trkpt>
      <trkpt lat="44.1374" lon="5.83539">
        <ele>1100</ele>
        <time>2022-09-22T09:38:19Z</time>
      </trkpt>
      <trkpt lat="44.13739" lon="5.83538">
        <ele>1100</ele>
        <time>2022-09-22T09:38:20Z</time>
      </trkpt>
      <trkpt lat="44.13738" lon="5.83537">
        <ele>1100</ele>
        <time>2022-09-22T09:38:21Z</time>
      </trkpt>
      <trkpt lat="44.13737" lon="5.83536">
        <ele>1100</ele>
        <time>2022-09-22T09:38:22Z</time>
      </trkpt>
      <trkpt lat="44.13736" lon="5.83535">
        <ele>1100</ele>
        <time>2022-09-22T09:38:23Z</time>
      </trkpt>
      <trkpt lat="44.13736" lon="5.83534">
        <ele>1100</ele>
        <time>2022-09-22T09:38:24Z</time>
      </trkpt>
      <trkpt lat="44.13735" lon="5.83533">
        <ele>1100</ele>
        <time>2022-09-22T09:38:25Z</time>
      </trkpt>
      <trkpt lat="44.13735" lon="5.83531">
        <ele>1100</ele>
        <time>2022-09-22T09:38:26Z</time>
      </trkpt>
      <trkpt lat="44.13734" lon="5.8353">
        <ele>1100</ele>
        <time>2022-09-22T09:38:27Z</time>
      </trkpt>
      <trkpt lat="44.13734" lon="5.83529">
        <ele>1100</ele>
        <time>2022-09-22T09:38:28Z</time>
      </trkpt>
      <trkpt lat="44.13733" lon="5.83528">
        <ele>1100</ele>
        <time>2022-09-22T09:38:29Z</time>
      </trkpt>
      <trkpt lat="44.13732" lon="5.83527">
        <ele>1100</ele>
        <time>2022-09-22T09:38:30Z</time>
      </trkpt>
      <trkpt lat="44.13731" lon="5.83526">
        <ele>1100</ele>
        <time>2022-09-22T09:38:31Z</time>
      </trkpt>
      <trkpt lat="44.1373" lon="5.83525">
        <ele>1100</ele>
        <time>2022-09-22T09:38:32Z</time>
      </trkpt>
      <trkpt lat="44.13729" lon="5.83524">
        <ele>1100</ele>
        <time>2022-09-22T09:38:33Z</time>
      </trkpt>
      <trkpt lat="44.13728" lon="5.83523">
        <ele>1100</ele>
        <time>2022-09-22T09:38:34Z</time>
      </trkpt>
      <trkpt lat="44.13728" lon="5.83522">
        <ele>1100</ele>
        <time>2022-09-22T09:38:35Z</time>
      </trkpt>
      <trkpt lat="44.13727" lon="5.83521">
        <ele>1100</ele>
        <time>2022-09-22T09:38:36Z</time>
      </trkpt>
      <trkpt lat="44.13726" lon="5.8352">
        <ele>1100</ele>
        <time>2022-09-22T09:38:37Z</time>
      </trkpt>
      <trkpt lat="44.13726" lon="5.83519">
        <ele>1100</ele>
        <time>2022-09-22T09:38:38Z</time>
      </trkpt>
      <trkpt lat="44.13725" lon="5.83518">
        <ele>1100</ele>
        <time>2022-09-22T09:38:39Z</time>
      </trkpt>
      <trkpt lat="44.13724" lon="5.83517">
        <ele>1100</ele>
        <time>2022-09-22T09:38:40Z</time>
      </trkpt>
      <trkpt lat="44.13724" lon="5.83516">
        <ele>1100</ele>
        <time>2022-09-22T09:38:41Z</time>
      </trkpt>
      <trkpt lat="44.13723" lon="5.83514">
        <ele>1101</ele>
        <time>2022-09-22T09:38:42Z</time>
      </trkpt>
      <trkpt lat="44.13723" lon="5.83513">
        <ele>1101</ele>
        <time>2022-09-22T09:38:43Z</time>
      </trkpt>
      <trkpt lat="44.13722" lon="5.83512">
        <ele>1102</ele>
        <time>2022-09-22T09:38:44Z</time>
      </trkpt>
      <trkpt lat="44.13722" lon="5.83511">
        <ele>1102</ele>
        <time>2022-09-22T09:38:45Z</time>
      </trkpt>
      <trkpt lat="44.13721" lon="5.8351">
        <ele>1102</ele>
        <time>2022-09-22T09:38:46Z</time>
      </trkpt>
      <trkpt lat="44.13721" lon="5.83508">
        <ele>1102</ele>
        <time>2022-09-22T09:38:47Z</time>
      </trkpt>
      <trkpt lat="44.1372" lon="5.83507">
        <ele>1102</ele>
        <time>2022-09-22T09:38:48Z</time>
      </trkpt>
      <trkpt lat="44.13719" lon="5.83506">
        <ele>1102</ele>
        <time>2022-09-22T09:38:49Z</time>
      </trkpt>
      <trkpt lat="44.13719" lon="5.83505">
        <ele>1102</ele>
        <time>2022-09-22T09:38:50Z</time>
      </trkpt>
      <trkpt lat="44.13718" lon="5.83504">
        <ele>1102</ele>
        <time>2022-09-22T09:38:51Z</time>
      </trkpt>
      <trkpt lat="44.13718" lon="5.83503">
        <ele>1102</ele>
        <time>2022-09-22T09:38:52Z</time>
      </trkpt>
      <trkpt lat="44.13717" lon="5.83501">
        <ele>1102</ele>
        <time>2022-09-22T09:38:53Z</time>
      </trkpt>
      <trkpt lat="44.13717" lon="5.835">
        <ele>1102</ele>
        <time>2022-09-22T09:38:54Z</time>
      </trkpt>
      <trkpt lat="44.13716" lon="5.83499">
        <ele>1102</ele>
        <time>2022-09-22T09:38:55Z</time>
      </trkpt>
      <trkpt lat="44.13716" lon="5.83498">
        <ele>1102</ele>
        <time>2022-09-22T09:38:56Z</time>
      </trkpt>
      <trkpt lat="44.13715" lon="5.83497">
        <ele>1102</ele>
        <time>2022-09-22T09:38:57Z</time>
      </trkpt>
      <trkpt lat="44.13715" lon="5.83496">
        <ele>1102</ele>
        <time>2022-09-22T09:38:58Z</time>
      </trkpt>
      <trkpt lat="44.13714" lon="5.83495">
        <ele>1103</ele>
        <time>2022-09-22T09:38:59Z</time>
      </trkpt>
      <trkpt lat="44.13713" lon="5.83494">
        <ele>1103</ele>
        <time>2022-09-22T09:39:00Z</time>
      </trkpt>
      <trkpt lat="44.13713" lon="5.83492">
        <ele>1103</ele>
        <time>2022-09-22T09:39:01Z</time>
      </trkpt>
      <trkpt lat="44.13712" lon="5.83491">
        <ele>1103</ele>
        <time>2022-09-22T09:39:02Z</time>
      </trkpt>
      <trkpt lat="44.13712" lon="5.8349">
        <ele>1103</ele>
        <time>2022-09-22T09:39:03Z</time>
      </trkpt>
      <trkpt lat="44.13712" lon="5.83489">
        <ele>1103</ele>
        <time>2022-09-22T09:39:04Z</time>
      </trkpt>
      <trkpt lat="44.13711" lon="5.83487">
        <ele>1103</ele>
        <time>2022-09-22T09:39:05Z</time>
      </trkpt>
      <trkpt lat="44.13711" lon="5.83486">
        <ele>1103</ele>
        <time>2022-09-22T09:39:06Z</time>
      </trkpt>
      <trkpt lat="44.13711" lon="5.83484">
        <ele>1103</ele>
        <time>2022-09-22T09:39:07Z</time>
      </trkpt>
      <trkpt lat="44.1371" lon="5.83483">
        <ele>1103</ele>
        <time>2022-09-22T09:39:08Z</time>
      </trkpt>
      <trkpt lat="44.1371" lon="5.83482">
        <ele>1103</ele>
        <time>2022-09-22T09:39:09Z</time>
      </trkpt>
      <trkpt lat="44.13709" lon="5.8348">
        <ele>1103</ele>
        <time>2022-09-22T09:39:10Z</time>
      </trkpt>
      <trkpt lat="44.13708" lon="5.83479">
        <ele>1103</ele>
        <time>2022-09-22T09:39:11Z</time>
      </trkpt>
      <trkpt lat="44.13708" lon="5.83478">
        <ele>1103</ele>
        <time>2022-09-22T09:39:12Z</time>
      </trkpt>
      <trkpt lat="44.13707" lon="5.83476">
        <ele>1103</ele>
        <time>2022-09-22T09:39:13Z</time>
      </trkpt>
      <trkpt lat="44.13707" lon="5.83475">
        <ele>1104</ele>
        <time>2022-09-22T09:39:14Z</time>
      </trkpt>
      <trkpt lat="44.13706" lon="5.83474">
        <ele>1104</ele>
        <time>2022-09-22T09:39:15Z</time>
      </trkpt>
      <trkpt lat="44.13706" lon="5.83473">
        <ele>1104</ele>
        <time>2022-09-22T09:39:16Z</time>
      </trkpt>
      <trkpt lat="44.13705" lon="5.83472">
        <ele>1104</ele>
        <time>2022-09-22T09:39:17Z</time>
      </trkpt>
      <trkpt lat="44.13705" lon="5.83471">
        <ele>1104</ele>
        <time>2022-09-22T09:39:18Z</time>
      </trkpt>
      <trkpt lat="44.13704" lon="5.8347">
        <ele>1104</ele>
        <time>2022-09-22T09:39:19Z</time>
      </trkpt>
      <trkpt lat="44.13704" lon="5.83469">
        <ele>1104</ele>
        <time>2022-09-22T09:39:20Z</time>
      </trkpt>
      <trkpt lat="44.13704" lon="5.83467">
        <ele>1104</ele>
        <time>2022-09-22T09:39:21Z</time>
      </trkpt>
      <trkpt lat="44.13703" lon="5.83466">
        <ele>1104</ele>
        <time>2022-09-22T09:39:22Z</time>
      </trkpt>
      <trkpt lat="44.13703" lon="5.83465">
        <ele>1104</ele>
        <time>2022-09-22T09:39:23Z</time>
      </trkpt>
      <trkpt lat="44.13703" lon="5.83464">
        <ele>1105</ele>
        <time>2022-09-22T09:39:24Z</time>
      </trkpt>
      <trkpt lat="44.13702" lon="5.83463">
        <ele>1105</ele>
        <time>2022-09-22T09:39:25Z</time>
      </trkpt>
      <trkpt lat="44.13702" lon="5.83462">
        <ele>1105</ele>
        <time>2022-09-22T09:39:26Z</time>
      </trkpt>
      <trkpt lat="44.13702" lon="5.83461">
        <ele>1105</ele>
        <time>2022-09-22T09:39:27Z</time>
      </trkpt>
      <trkpt lat="44.13701" lon="5.8346">
        <ele>1105</ele>
        <time>2022-09-22T09:39:28Z</time>
      </trkpt>
      <trkpt lat="44.13701" lon="5.83458">
        <ele>1105</ele>
        <time>2022-09-22T09:39:29Z</time>
      </trkpt>
      <trkpt lat="44.13701" lon="5.83457">
        <ele>1105</ele>
        <time>2022-09-22T09:39:30Z</time>
      </trkpt>
      <trkpt lat="44.13701" lon="5.83455">
        <ele>1105</ele>
        <time>2022-09-22T09:39:31Z</time>
      </trkpt>
      <trkpt lat="44.137" lon="5.83454">
        <ele>1105</ele>
        <time>2022-09-22T09:39:32Z</time>
      </trkpt>
      <trkpt lat="44.137" lon="5.83452">
        <ele>1105</ele>
        <time>2022-09-22T09:39:33Z</time>
      </trkpt>
      <trkpt lat="44.13699" lon="5.83451">
        <ele>1105</ele>
        <time>2022-09-22T09:39:34Z</time>
      </trkpt>
      <trkpt lat="44.13699" lon="5.8345">
        <ele>1105</ele>
        <time>2022-09-22T09:39:35Z</time>
      </trkpt>
      <trkpt lat="44.13699" lon="5.83449">
        <ele>1105</ele>
        <time>2022-09-22T09:39:36Z</time>
      </trkpt>
      <trkpt lat="44.13698" lon="5.83448">
        <ele>1105</ele>
        <time>2022-09-22T09:39:37Z</time>
      </trkpt>
      <trkpt lat="44.13698" lon="5.83447">
        <ele>1105</ele>
        <time>2022-09-22T09:39:38Z</time>
      </trkpt>
      <trkpt lat="44.13697" lon="5.83445">
        <ele>1105</ele>
        <time>2022-09-22T09:39:39Z</time>
      </trkpt>
      <trkpt lat="44.13696" lon="5.83444">
        <ele>1105</ele>
        <time>2022-09-22T09:39:40Z</time>
      </trkpt>
      <trkpt lat="44.13696" lon="5.83443">
        <ele>1105</ele>
        <time>2022-09-22T09:39:41Z</time>
      </trkpt>
      <trkpt lat="44.13695" lon="5.83442">
        <ele>1105</ele>
        <time>2022-09-22T09:39:42Z</time>
      </trkpt>
      <trkpt lat="44.13694" lon="5.83441">
        <ele>1105</ele>
        <time>2022-09-22T09:39:43Z</time>
      </trkpt>
      <trkpt lat="44.13693" lon="5.8344">
        <ele>1106</ele>
        <time>2022-09-22T09:39:44Z</time>
      </trkpt>
      <trkpt lat="44.13693" lon="5.83439">
        <ele>1106</ele>
        <time>2022-09-22T09:39:45Z</time>
      </trkpt>
      <trkpt lat="44.13692" lon="5.83437">
        <ele>1106</ele>
        <time>2022-09-22T09:39:46Z</time>
      </trkpt>
      <trkpt lat="44.13691" lon="5.83436">
        <ele>1106</ele>
        <time>2022-09-22T09:39:47Z</time>
      </trkpt>
      <trkpt lat="44.13691" lon="5.83435">
        <ele>1106</ele>
        <time>2022-09-22T09:39:48Z</time>
      </trkpt>
      <trkpt lat="44.1369" lon="5.83434">
        <ele>1106</ele>
        <time>2022-09-22T09:39:49Z</time>
      </trkpt>
      <trkpt lat="44.13689" lon="5.83432">
        <ele>1106</ele>
        <time>2022-09-22T09:39:50Z</time>
      </trkpt>
      <trkpt lat="44.13688" lon="5.83431">
        <ele>1106</ele>
        <time>2022-09-22T09:39:51Z</time>
      </trkpt>
      <trkpt lat="44.13688" lon="5.8343">
        <ele>1106</ele>
        <time>2022-09-22T09:39:52Z</time>
      </trkpt>
      <trkpt lat="44.13687" lon="5.83428">
        <ele>1106</ele>
        <time>2022-09-22T09:39:53Z</time>
      </trkpt>
      <trkpt lat="44.13686" lon="5.83427">
        <ele>1106</ele>
        <time>2022-09-22T09:39:54Z</time>
      </trkpt>
      <trkpt lat="44.13685" lon="5.83426">
        <ele>1106</ele>
        <time>2022-09-22T09:39:55Z</time>
      </trkpt>
      <trkpt lat="44.13685" lon="5.83425">
        <ele>1106</ele>
        <time>2022-09-22T09:39:56Z</time>
      </trkpt>
      <trkpt lat="44.13684" lon="5.83424">
        <ele>1106</ele>
        <time>2022-09-22T09:39:57Z</time>
      </trkpt>
      <trkpt lat="44.13683" lon="5.83422">
        <ele>1106</ele>
        <time>2022-09-22T09:39:58Z</time>
      </trkpt>
      <trkpt lat="44.13682" lon="5.83421">
        <ele>1107</ele>
        <time>2022-09-22T09:39:59Z</time>
      </trkpt>
      <trkpt lat="44.13682" lon="5.8342">
        <ele>1107</ele>
        <time>2022-09-22T09:40:00Z</time>
      </trkpt>
      <trkpt lat="44.13681" lon="5.83419">
        <ele>1107</ele>
        <time>2022-09-22T09:40:01Z</time>
      </trkpt>
      <trkpt lat="44.1368" lon="5.83418">
        <ele>1107</ele>
        <time>2022-09-22T09:40:02Z</time>
      </trkpt>
      <trkpt lat="44.1368" lon="5.83417">
        <ele>1107</ele>
        <time>2022-09-22T09:40:03Z</time>
      </trkpt>
      <trkpt lat="44.13679" lon="5.83416">
        <ele>1107</ele>
        <time>2022-09-22T09:40:04Z</time>
      </trkpt>
      <trkpt lat="44.13679" lon="5.83415">
        <ele>1107</ele>
        <time>2022-09-22T09:40:05Z</time>
      </trkpt>
      <trkpt lat="44.13678" lon="5.83414">
        <ele>1107</ele>
        <time>2022-09-22T09:40:06Z</time>
      </trkpt>
      <trkpt lat="44.13678" lon="5.83413">
        <ele>1107</ele>
        <time>2022-09-22T09:40:07Z</time>
      </trkpt>
      <trkpt lat="44.13677" lon="5.83411">
        <ele>1107</ele>
        <time>2022-09-22T09:40:08Z</time>
      </trkpt>
      <trkpt lat="44.13677" lon="5.8341">
        <ele>1107</ele>
        <time>2022-09-22T09:40:09Z</time>
      </trkpt>
      <trkpt lat="44.13676" lon="5.83409">
        <ele>1107</ele>
        <time>2022-09-22T09:40:10Z</time>
      </trkpt>
      <trkpt lat="44.13676" lon="5.83407">
        <ele>1107</ele>
        <time>2022-09-22T09:40:11Z</time>
      </trkpt>
      <trkpt lat="44.13675" lon="5.83406">
        <ele>1107</ele>
        <time>2022-09-22T09:40:12Z</time>
      </trkpt>
      <trkpt lat="44.13674" lon="5.83404">
        <ele>1107</ele>
        <time>2022-09-22T09:40:13Z</time>
      </trkpt>
      <trkpt lat="44.13674" lon="5.83403">
        <ele>1107</ele>
        <time>2022-09-22T09:40:14Z</time>
      </trkpt>
      <trkpt lat="44.13673" lon="5.83402">
        <ele>1107</ele>
        <time>2022-09-22T09:40:15Z</time>
      </trkpt>
      <trkpt lat="44.13673" lon="5.83401">
        <ele>1107</ele>
        <time>2022-09-22T09:40:16Z</time>
      </trkpt>
      <trkpt lat="44.13672" lon="5.83399">
        <ele>1107</ele>
        <time>2022-09-22T09:40:17Z</time>
      </trkpt>
      <trkpt lat="44.13672" lon="5.83398">
        <ele>1107</ele>
        <time>2022-09-22T09:40:18Z</time>
      </trkpt>
      <trkpt lat="44.13671" lon="5.83397">
        <ele>1107</ele>
        <time>2022-09-22T09:40:19Z</time>
      </trkpt>
      <trkpt lat="44.13671" lon="5.83395">
        <ele>1107</ele>
        <time>2022-09-22T09:40:20Z</time>
      </trkpt>
      <trkpt lat="44.1367" lon="5.83393">
        <ele>1107</ele>
        <time>2022-09-22T09:40:21Z</time>
      </trkpt>
      <trkpt lat="44.1367" lon="5.83392">
        <ele>1107</ele>
        <time>2022-09-22T09:40:22Z</time>
      </trkpt>
      <trkpt lat="44.13669" lon="5.8339">
        <ele>1107</ele>
        <time>2022-09-22T09:40:23Z</time>
      </trkpt>
      <trkpt lat="44.13669" lon="5.83389">
        <ele>1107</ele>
        <time>2022-09-22T09:40:24Z</time>
      </trkpt>
      <trkpt lat="44.13668" lon="5.83388">
        <ele>1107</ele>
        <time>2022-09-22T09:40:25Z</time>
      </trkpt>
      <trkpt lat="44.13668" lon="5.83387">
        <ele>1107</ele>
        <time>2022-09-22T09:40:26Z</time>
      </trkpt>
      <trkpt lat="44.13667" lon="5.83386">
        <ele>1107</ele>
        <time>2022-09-22T09:40:27Z</time>
      </trkpt>
      <trkpt lat="44.13666" lon="5.83385">
        <ele>1107</ele>
        <time>2022-09-22T09:40:28Z</time>
      </trkpt>
      <trkpt lat="44.13666" lon="5.83384">
        <ele>1107</ele>
        <time>2022-09-22T09:40:29Z</time>
      </trkpt>
      <trkpt lat="44.13665" lon="5.83383">
        <ele>1107</ele>
        <time>2022-09-22T09:40:30Z</time>
      </trkpt>
      <trkpt lat="44.13664" lon="5.83382">
        <ele>1107</ele>
        <time>2022-09-22T09:40:31Z</time>
      </trkpt>
      <trkpt lat="44.13664" lon="5.83382">
        <ele>1107</ele>
        <time>2022-09-22T09:40:32Z</time>
      </trkpt>
      <trkpt lat="44.13663" lon="5.83381">
        <ele>1107</ele>
        <time>2022-09-22T09:40:33Z</time>
      </trkpt>
      <trkpt lat="44.13663" lon="5.8338">
        <ele>1107</ele>
        <time>2022-09-22T09:40:34Z</time>
      </trkpt>
      <trkpt lat="44.13662" lon="5.83379">
        <ele>1107</ele>
        <time>2022-09-22T09:40:35Z</time>
      </trkpt>
      <trkpt lat="44.13661" lon="5.83378">
        <ele>1107</ele>
        <time>2022-09-22T09:40:36Z</time>
      </trkpt>
      <trkpt lat="44.1366" lon="5.83377">
        <ele>1107</ele>
        <time>2022-09-22T09:40:37Z</time>
      </trkpt>
      <trkpt lat="44.1366" lon="5.83376">
        <ele>1107</ele>
        <time>2022-09-22T09:40:38Z</time>
      </trkpt>
      <trkpt lat="44.13659" lon="5.83375">
        <ele>1107</ele>
        <time>2022-09-22T09:40:39Z</time>
      </trkpt>
      <trkpt lat="44.13658" lon="5.83375">
        <ele>1107</ele>
        <time>2022-09-22T09:40:40Z</time>
      </trkpt>
      <trkpt lat="44.13657" lon="5.83374">
        <ele>1107</ele>
        <time>2022-09-22T09:40:41Z</time>
      </trkpt>
      <trkpt lat="44.13656" lon="5.83374">
        <ele>1107</ele>
        <time>2022-09-22T09:40:42Z</time>
      </trkpt>
      <trkpt lat="44.13656" lon="5.83373">
        <ele>1107</ele>
        <time>2022-09-22T09:40:43Z</time>
      </trkpt>
      <trkpt lat="44.13655" lon="5.83373">
        <ele>1108</ele>
        <time>2022-09-22T09:40:44Z</time>
      </trkpt>
      <trkpt lat="44.13654" lon="5.83372">
        <ele>1108</ele>
        <time>2022-09-22T09:40:45Z</time>
      </trkpt>
      <trkpt lat="44.13653" lon="5.83372">
        <ele>1108</ele>
        <time>2022-09-22T09:40:46Z</time>
      </trkpt>
      <trkpt lat="44.13653" lon="5.83371">
        <ele>1108</ele>
        <time>2022-09-22T09:40:47Z</time>
      </trkpt>
      <trkpt lat="44.13652" lon="5.8337">
        <ele>1108</ele>
        <time>2022-09-22T09:40:48Z</time>
      </trkpt>
      <trkpt lat="44.13651" lon="5.83369">
        <ele>1108</ele>
        <time>2022-09-22T09:40:49Z</time>
      </trkpt>
      <trkpt lat="44.1365" lon="5.83369">
        <ele>1108</ele>
        <time>2022-09-22T09:40:50Z</time>
      </trkpt>
      <trkpt lat="44.13649" lon="5.83368">
        <ele>1108</ele>
        <time>2022-09-22T09:40:51Z</time>
      </trkpt>
      <trkpt lat="44.13649" lon="5.83367">
        <ele>1108</ele>
        <time>2022-09-22T09:40:52Z</time>
      </trkpt>
      <trkpt lat="44.13648" lon="5.83366">
        <ele>1108</ele>
        <time>2022-09-22T09:40:53Z</time>
      </trkpt>
      <trkpt lat="44.13647" lon="5.83366">
        <ele>1108</ele>
        <time>2022-09-22T09:40:54Z</time>
      </trkpt>
      <trkpt lat="44.13646" lon="5.83365">
        <ele>1108</ele>
        <time>2022-09-22T09:40:55Z</time>
      </trkpt>
      <trkpt lat="44.13643" lon="5.83363">
        <ele>1108</ele>
        <time>2022-09-22T09:41:22Z</time>
      </trkpt>
      <trkpt lat="44.13642" lon="5.83362">
        <ele>1108</ele>
        <time>2022-09-22T09:41:23Z</time>
      </trkpt>
      <trkpt lat="44.13641" lon="5.83362">
        <ele>1108</ele>
        <time>2022-09-22T09:41:24Z</time>
      </trkpt>
      <trkpt lat="44.1364" lon="5.83362">
        <ele>1108</ele>
        <time>2022-09-22T09:41:25Z</time>
      </trkpt>
      <trkpt lat="44.1364" lon="5.83361">
        <ele>1108</ele>
        <time>2022-09-22T09:41:26Z</time>
      </trkpt>
      <trkpt lat="44.13639" lon="5.83361">
        <ele>1108</ele>
        <time>2022-09-22T09:41:27Z</time>
      </trkpt>
      <trkpt lat="44.13638" lon="5.83361">
        <ele>1108</ele>
        <time>2022-09-22T09:41:28Z</time>
      </trkpt>
      <trkpt lat="44.13637" lon="5.8336">
        <ele>1108</ele>
        <time>2022-09-22T09:41:29Z</time>
      </trkpt>
      <trkpt lat="44.13636" lon="5.8336">
        <ele>1108</ele>
        <time>2022-09-22T09:41:30Z</time>
      </trkpt>
      <trkpt lat="44.13636" lon="5.83359">
        <ele>1108</ele>
        <time>2022-09-22T09:41:31Z</time>
      </trkpt>
      <trkpt lat="44.13635" lon="5.83358">
        <ele>1108</ele>
        <time>2022-09-22T09:41:32Z</time>
      </trkpt>
      <trkpt lat="44.13634" lon="5.83357">
        <ele>1108</ele>
        <time>2022-09-22T09:41:33Z</time>
      </trkpt>
      <trkpt lat="44.13633" lon="5.83357">
        <ele>1109</ele>
        <time>2022-09-22T09:41:34Z</time>
      </trkpt>
      <trkpt lat="44.13633" lon="5.83356">
        <ele>1109</ele>
        <time>2022-09-22T09:41:35Z</time>
      </trkpt>
      <trkpt lat="44.13632" lon="5.83355">
        <ele>1109</ele>
        <time>2022-09-22T09:41:36Z</time>
      </trkpt>
      <trkpt lat="44.13631" lon="5.83354">
        <ele>1109</ele>
        <time>2022-09-22T09:41:37Z</time>
      </trkpt>
      <trkpt lat="44.1363" lon="5.83354">
        <ele>1109</ele>
        <time>2022-09-22T09:41:38Z</time>
      </trkpt>
      <trkpt lat="44.13629" lon="5.83353">
        <ele>1109</ele>
        <time>2022-09-22T09:41:39Z</time>
      </trkpt>
      <trkpt lat="44.13628" lon="5.83353">
        <ele>1109</ele>
        <time>2022-09-22T09:41:40Z</time>
      </trkpt>
      <trkpt lat="44.13627" lon="5.83352">
        <ele>1109</ele>
        <time>2022-09-22T09:41:41Z</time>
      </trkpt>
      <trkpt lat="44.13626" lon="5.83351">
        <ele>1109</ele>
        <time>2022-09-22T09:41:42Z</time>
      </trkpt>
      <trkpt lat="44.13626" lon="5.83351">
        <ele>1109</ele>
        <time>2022-09-22T09:41:43Z</time>
      </trkpt>
      <trkpt lat="44.13625" lon="5.8335">
        <ele>1109</ele>
        <time>2022-09-22T09:41:44Z</time>
      </trkpt>
      <trkpt lat="44.13624" lon="5.8335">
        <ele>1109</ele>
        <time>2022-09-22T09:41:45Z</time>
      </trkpt>
      <trkpt lat="44.13623" lon="5.83349">
        <ele>1109</ele>
        <time>2022-09-22T09:41:46Z</time>
      </trkpt>
      <trkpt lat="44.13622" lon="5.83349">
        <ele>1109</ele>
        <time>2022-09-22T09:41:47Z</time>
      </trkpt>
      <trkpt lat="44.13621" lon="5.83348">
        <ele>1109</ele>
        <time>2022-09-22T09:41:48Z</time>
      </trkpt>
      <trkpt lat="44.1362" lon="5.83348">
        <ele>1109</ele>
        <time>2022-09-22T09:41:49Z</time>
      </trkpt>
      <trkpt lat="44.13619" lon="5.83347">
        <ele>1109</ele>
        <time>2022-09-22T09:41:50Z</time>
      </trkpt>
      <trkpt lat="44.13618" lon="5.83347">
        <ele>1109</ele>
        <time>2022-09-22T09:41:51Z</time>
      </trkpt>
      <trkpt lat="44.13617" lon="5.83347">
        <ele>1109</ele>
        <time>2022-09-22T09:41:52Z</time>
      </trkpt>
      <trkpt lat="44.13616" lon="5.83346">
        <ele>1109</ele>
        <time>2022-09-22T09:41:53Z</time>
      </trkpt>
      <trkpt lat="44.13615" lon="5.83346">
        <ele>1110</ele>
        <time>2022-09-22T09:41:54Z</time>
      </trkpt>
      <trkpt lat="44.13614" lon="5.83346">
        <ele>1110</ele>
        <time>2022-09-22T09:41:55Z</time>
      </trkpt>
      <trkpt lat="44.13613" lon="5.83346">
        <ele>1110</ele>
        <time>2022-09-22T09:41:56Z</time>
      </trkpt>
      <trkpt lat="44.13612" lon="5.83346">
        <ele>1110</ele>
        <time>2022-09-22T09:41:57Z</time>
      </trkpt>
      <trkpt lat="44.13611" lon="5.83345">
        <ele>1110</ele>
        <time>2022-09-22T09:41:58Z</time>
      </trkpt>
      <trkpt lat="44.1361" lon="5.83345">
        <ele>1110</ele>
        <time>2022-09-22T09:41:59Z</time>
      </trkpt>
      <trkpt lat="44.13609" lon="5.83344">
        <ele>1110</ele>
        <time>2022-09-22T09:42:00Z</time>
      </trkpt>
      <trkpt lat="44.13609" lon="5.83344">
        <ele>1110</ele>
        <time>2022-09-22T09:42:01Z</time>
      </trkpt>
      <trkpt lat="44.13608" lon="5.83343">
        <ele>1110</ele>
        <time>2022-09-22T09:42:02Z</time>
      </trkpt>
      <trkpt lat="44.13607" lon="5.83342">
        <ele>1110</ele>
        <time>2022-09-22T09:42:03Z</time>
      </trkpt>
      <trkpt lat="44.13606" lon="5.83341">
        <ele>1110</ele>
        <time>2022-09-22T09:42:04Z</time>
      </trkpt>
      <trkpt lat="44.13606" lon="5.8334">
        <ele>1110</ele>
        <time>2022-09-22T09:42:05Z</time>
      </trkpt>
      <trkpt lat="44.13605" lon="5.83339">
        <ele>1110</ele>
        <time>2022-09-22T09:42:06Z</time>
      </trkpt>
      <trkpt lat="44.13604" lon="5.83339">
        <ele>1110</ele>
        <time>2022-09-22T09:42:07Z</time>
      </trkpt>
      <trkpt lat="44.13604" lon="5.83338">
        <ele>1110</ele>
        <time>2022-09-22T09:42:08Z</time>
      </trkpt>
      <trkpt lat="44.13603" lon="5.83337">
        <ele>1111</ele>
        <time>2022-09-22T09:42:09Z</time>
      </trkpt>
      <trkpt lat="44.13603" lon="5.83336">
        <ele>1111</ele>
        <time>2022-09-22T09:42:10Z</time>
      </trkpt>
      <trkpt lat="44.13602" lon="5.83336">
        <ele>1111</ele>
        <time>2022-09-22T09:42:11Z</time>
      </trkpt>
      <trkpt lat="44.13602" lon="5.83335">
        <ele>1111</ele>
        <time>2022-09-22T09:42:12Z</time>
      </trkpt>
      <trkpt lat="44.13601" lon="5.83334">
        <ele>1111</ele>
        <time>2022-09-22T09:42:13Z</time>
      </trkpt>
      <trkpt lat="44.13601" lon="5.83334">
        <ele>1111</ele>
        <time>2022-09-22T09:42:14Z</time>
      </trkpt>
      <trkpt lat="44.136" lon="5.83333">
        <ele>1111</ele>
        <time>2022-09-22T09:42:15Z</time>
      </trkpt>
      <trkpt lat="44.13599" lon="5.83332">
        <ele>1111</ele>
        <time>2022-09-22T09:42:16Z</time>
      </trkpt>
      <trkpt lat="44.13598" lon="5.83331">
        <ele>1111</ele>
        <time>2022-09-22T09:42:17Z</time>
      </trkpt>
      <trkpt lat="44.13598" lon="5.8333">
        <ele>1111</ele>
        <time>2022-09-22T09:42:18Z</time>
      </trkpt>
      <trkpt lat="44.13597" lon="5.83329">
        <ele>1111</ele>
        <time>2022-09-22T09:42:19Z</time>
      </trkpt>
      <trkpt lat="44.13596" lon="5.83328">
        <ele>1111</ele>
        <time>2022-09-22T09:42:20Z</time>
      </trkpt>
      <trkpt lat="44.13596" lon="5.83327">
        <ele>1111</ele>
        <time>2022-09-22T09:42:21Z</time>
      </trkpt>
      <trkpt lat="44.13595" lon="5.83327">
        <ele>1111</ele>
        <time>2022-09-22T09:42:22Z</time>
      </trkpt>
      <trkpt lat="44.13594" lon="5.83326">
        <ele>1111</ele>
        <time>2022-09-22T09:42:23Z</time>
      </trkpt>
      <trkpt lat="44.13594" lon="5.83325">
        <ele>1111</ele>
        <time>2022-09-22T09:42:24Z</time>
      </trkpt>
      <trkpt lat="44.13593" lon="5.83324">
        <ele>1111</ele>
        <time>2022-09-22T09:42:25Z</time>
      </trkpt>
      <trkpt lat="44.13592" lon="5.83323">
        <ele>1111</ele>
        <time>2022-09-22T09:42:26Z</time>
      </trkpt>
      <trkpt lat="44.13592" lon="5.83323">
        <ele>1111</ele>
        <time>2022-09-22T09:42:27Z</time>
      </trkpt>
      <trkpt lat="44.13591" lon="5.83322">
        <ele>1111</ele>
        <time>2022-09-22T09:42:28Z</time>
      </trkpt>
      <trkpt lat="44.1359" lon="5.83321">
        <ele>1111</ele>
        <time>2022-09-22T09:42:29Z</time>
      </trkpt>
      <trkpt lat="44.13589" lon="5.8332">
        <ele>1111</ele>
        <time>2022-09-22T09:42:30Z</time>
      </trkpt>
      <trkpt lat="44.13588" lon="5.83319">
        <ele>1111</ele>
        <time>2022-09-22T09:42:31Z</time>
      </trkpt>
      <trkpt lat="44.13588" lon="5.83319">
        <ele>1111</ele>
        <time>2022-09-22T09:42:32Z</time>
      </trkpt>
      <trkpt lat="44.13587" lon="5.83318">
        <ele>1111</ele>
        <time>2022-09-22T09:42:33Z</time>
      </trkpt>
      <trkpt lat="44.13586" lon="5.83317">
        <ele>1111</ele>
        <time>2022-09-22T09:42:34Z</time>
      </trkpt>
      <trkpt lat="44.13585" lon="5.83316">
        <ele>1111</ele>
        <time>2022-09-22T09:42:35Z</time>
      </trkpt>
      <trkpt lat="44.13584" lon="5.83315">
        <ele>1111</ele>
        <time>2022-09-22T09:42:36Z</time>
      </trkpt>
      <trkpt lat="44.13583" lon="5.83314">
        <ele>1111</ele>
        <time>2022-09-22T09:42:37Z</time>
      </trkpt>
      <trkpt lat="44.13582" lon="5.83313">
        <ele>1111</ele>
        <time>2022-09-22T09:42:38Z</time>
      </trkpt>
      <trkpt lat="44.13581" lon="5.83313">
        <ele>1112</ele>
        <time>2022-09-22T09:42:39Z</time>
      </trkpt>
      <trkpt lat="44.13581" lon="5.83312">
        <ele>1111</ele>
        <time>2022-09-22T09:42:40Z</time>
      </trkpt>
      <trkpt lat="44.1358" lon="5.83311">
        <ele>1111</ele>
        <time>2022-09-22T09:42:41Z</time>
      </trkpt>
      <trkpt lat="44.13579" lon="5.83311">
        <ele>1111</ele>
        <time>2022-09-22T09:42:42Z</time>
      </trkpt>
      <trkpt lat="44.13578" lon="5.8331">
        <ele>1111</ele>
        <time>2022-09-22T09:42:43Z</time>
      </trkpt>
      <trkpt lat="44.13577" lon="5.83309">
        <ele>1111</ele>
        <time>2022-09-22T09:42:44Z</time>
      </trkpt>
      <trkpt lat="44.13576" lon="5.83309">
        <ele>1111</ele>
        <time>2022-09-22T09:42:45Z</time>
      </trkpt>
      <trkpt lat="44.13576" lon="5.83308">
        <ele>1111</ele>
        <time>2022-09-22T09:42:46Z</time>
      </trkpt>
      <trkpt lat="44.13575" lon="5.83308">
        <ele>1111</ele>
        <time>2022-09-22T09:42:47Z</time>
      </trkpt>
      <trkpt lat="44.13574" lon="5.83307">
        <ele>1111</ele>
        <time>2022-09-22T09:42:48Z</time>
      </trkpt>
      <trkpt lat="44.13572" lon="5.83307">
        <ele>1111</ele>
        <time>2022-09-22T09:42:49Z</time>
      </trkpt>
      <trkpt lat="44.13571" lon="5.83306">
        <ele>1111</ele>
        <time>2022-09-22T09:42:50Z</time>
      </trkpt>
      <trkpt lat="44.1357" lon="5.83305">
        <ele>1111</ele>
        <time>2022-09-22T09:42:51Z</time>
      </trkpt>
      <trkpt lat="44.13569" lon="5.83305">
        <ele>1111</ele>
        <time>2022-09-22T09:42:52Z</time>
      </trkpt>
      <trkpt lat="44.13568" lon="5.83304">
        <ele>1111</ele>
        <time>2022-09-22T09:42:53Z</time>
      </trkpt>
      <trkpt lat="44.13567" lon="5.83304">
        <ele>1111</ele>
        <time>2022-09-22T09:42:54Z</time>
      </trkpt>
      <trkpt lat="44.13566" lon="5.83303">
        <ele>1111</ele>
        <time>2022-09-22T09:42:55Z</time>
      </trkpt>
      <trkpt lat="44.13565" lon="5.83303">
        <ele>1111</ele>
        <time>2022-09-22T09:42:56Z</time>
      </trkpt>
      <trkpt lat="44.13564" lon="5.83302">
        <ele>1111</ele>
        <time>2022-09-22T09:42:57Z</time>
      </trkpt>
      <trkpt lat="44.13563" lon="5.83302">
        <ele>1111</ele>
        <time>2022-09-22T09:42:58Z</time>
      </trkpt>
      <trkpt lat="44.13562" lon="5.83302">
        <ele>1111</ele>
        <time>2022-09-22T09:42:59Z</time>
      </trkpt>
      <trkpt lat="44.13561" lon="5.83301">
        <ele>1111</ele>
        <time>2022-09-22T09:43:00Z</time>
      </trkpt>
      <trkpt lat="44.1356" lon="5.83301">
        <ele>1111</ele>
        <time>2022-09-22T09:43:01Z</time>
      </trkpt>
      <trkpt lat="44.13559" lon="5.83301">
        <ele>1111</ele>
        <time>2022-09-22T09:43:02Z</time>
      </trkpt>
      <trkpt lat="44.13558" lon="5.833">
        <ele>1111</ele>
        <time>2022-09-22T09:43:03Z</time>
      </trkpt>
      <trkpt lat="44.13557" lon="5.833">
        <ele>1112</ele>
        <time>2022-09-22T09:43:04Z</time>
      </trkpt>
      <trkpt lat="44.13556" lon="5.833">
        <ele>1112</ele>
        <time>2022-09-22T09:43:05Z</time>
      </trkpt>
      <trkpt lat="44.13555" lon="5.83299">
        <ele>1112</ele>
        <time>2022-09-22T09:43:06Z</time>
      </trkpt>
      <trkpt lat="44.13554" lon="5.83299">
        <ele>1112</ele>
        <time>2022-09-22T09:43:07Z</time>
      </trkpt>
      <trkpt lat="44.13553" lon="5.83299">
        <ele>1112</ele>
        <time>2022-09-22T09:43:08Z</time>
      </trkpt>
      <trkpt lat="44.13552" lon="5.83298">
        <ele>1112</ele>
        <time>2022-09-22T09:43:09Z</time>
      </trkpt>
      <trkpt lat="44.13551" lon="5.83298">
        <ele>1112</ele>
        <time>2022-09-22T09:43:10Z</time>
      </trkpt>
      <trkpt lat="44.1355" lon="5.83298">
        <ele>1112</ele>
        <time>2022-09-22T09:43:11Z</time>
      </trkpt>
      <trkpt lat="44.13549" lon="5.83298">
        <ele>1112</ele>
        <time>2022-09-22T09:43:12Z</time>
      </trkpt>
      <trkpt lat="44.13548" lon="5.83297">
        <ele>1112</ele>
        <time>2022-09-22T09:43:13Z</time>
      </trkpt>
      <trkpt lat="44.13547" lon="5.83297">
        <ele>1112</ele>
        <time>2022-09-22T09:43:14Z</time>
      </trkpt>
      <trkpt lat="44.13546" lon="5.83296">
        <ele>1112</ele>
        <time>2022-09-22T09:43:15Z</time>
      </trkpt>
      <trkpt lat="44.13545" lon="5.83296">
        <ele>1112</ele>
        <time>2022-09-22T09:43:16Z</time>
      </trkpt>
      <trkpt lat="44.13544" lon="5.83295">
        <ele>1112</ele>
        <time>2022-09-22T09:43:17Z</time>
      </trkpt>
      <trkpt lat="44.13543" lon="5.83294">
        <ele>1112</ele>
        <time>2022-09-22T09:43:18Z</time>
      </trkpt>
      <trkpt lat="44.13542" lon="5.83293">
        <ele>1112</ele>
        <time>2022-09-22T09:43:19Z</time>
      </trkpt>
      <trkpt lat="44.13542" lon="5.83291">
        <ele>1112</ele>
        <time>2022-09-22T09:43:20Z</time>
      </trkpt>
      <trkpt lat="44.13541" lon="5.83291">
        <ele>1112</ele>
        <time>2022-09-22T09:43:21Z</time>
      </trkpt>
      <trkpt lat="44.1354" lon="5.8329">
        <ele>1112</ele>
        <time>2022-09-22T09:43:22Z</time>
      </trkpt>
      <trkpt lat="44.13539" lon="5.83289">
        <ele>1112</ele>
        <time>2022-09-22T09:43:23Z</time>
      </trkpt>
      <trkpt lat="44.13538" lon="5.83288">
        <ele>1113</ele>
        <time>2022-09-22T09:43:24Z</time>
      </trkpt>
      <trkpt lat="44.13538" lon="5.83288">
        <ele>1113</ele>
        <time>2022-09-22T09:43:25Z</time>
      </trkpt>
      <trkpt lat="44.13537" lon="5.83287">
        <ele>1113</ele>
        <time>2022-09-22T09:43:26Z</time>
      </trkpt>
      <trkpt lat="44.13536" lon="5.83287">
        <ele>1113</ele>
        <time>2022-09-22T09:43:27Z</time>
      </trkpt>
      <trkpt lat="44.13535" lon="5.83286">
        <ele>1113</ele>
        <time>2022-09-22T09:43:28Z</time>
      </trkpt>
      <trkpt lat="44.13534" lon="5.83286">
        <ele>1113</ele>
        <time>2022-09-22T09:43:29Z</time>
      </trkpt>
      <trkpt lat="44.13534" lon="5.83286">
        <ele>1113</ele>
        <time>2022-09-22T09:43:30Z</time>
      </trkpt>
      <trkpt lat="44.13533" lon="5.83285">
        <ele>1113</ele>
        <time>2022-09-22T09:43:31Z</time>
      </trkpt>
      <trkpt lat="44.13532" lon="5.83285">
        <ele>1113</ele>
        <time>2022-09-22T09:43:32Z</time>
      </trkpt>
      <trkpt lat="44.13532" lon="5.83284">
        <ele>1113</ele>
        <time>2022-09-22T09:43:33Z</time>
      </trkpt>
      <trkpt lat="44.13531" lon="5.83284">
        <ele>1113</ele>
        <time>2022-09-22T09:43:34Z</time>
      </trkpt>
      <trkpt lat="44.13528" lon="5.83281">
        <ele>1113</ele>
        <time>2022-09-22T09:45:50Z</time>
      </trkpt>
      <trkpt lat="44.13527" lon="5.8328">
        <ele>1113</ele>
        <time>2022-09-22T09:45:51Z</time>
      </trkpt>
      <trkpt lat="44.13525" lon="5.83278">
        <ele>1113</ele>
        <time>2022-09-22T09:45:52Z</time>
      </trkpt>
      <trkpt lat="44.13523" lon="5.83276">
        <ele>1113</ele>
        <time>2022-09-22T09:45:59Z</time>
      </trkpt>
      <trkpt lat="44.13522" lon="5.83275">
        <ele>1113</ele>
        <time>2022-09-22T09:46:00Z</time>
      </trkpt>
      <trkpt lat="44.13521" lon="5.83275">
        <ele>1113</ele>
        <time>2022-09-22T09:46:01Z</time>
      </trkpt>
      <trkpt lat="44.13521" lon="5.83274">
        <ele>1113</ele>
        <time>2022-09-22T09:46:02Z</time>
      </trkpt>
      <trkpt lat="44.1352" lon="5.83274">
        <ele>1113</ele>
        <time>2022-09-22T09:46:03Z</time>
      </trkpt>
      <trkpt lat="44.1352" lon="5.83273">
        <ele>1113</ele>
        <time>2022-09-22T09:46:04Z</time>
      </trkpt>
      <trkpt lat="44.13519" lon="5.83272">
        <ele>1113</ele>
        <time>2022-09-22T09:46:05Z</time>
      </trkpt>
      <trkpt lat="44.13519" lon="5.83272">
        <ele>1113</ele>
        <time>2022-09-22T09:46:06Z</time>
      </trkpt>
      <trkpt lat="44.13518" lon="5.83271">
        <ele>1113</ele>
        <time>2022-09-22T09:46:07Z</time>
      </trkpt>
      <trkpt lat="44.13518" lon="5.83271">
        <ele>1113</ele>
        <time>2022-09-22T09:46:08Z</time>
      </trkpt>
      <trkpt lat="44.13517" lon="5.8327">
        <ele>1113</ele>
        <time>2022-09-22T09:46:09Z</time>
      </trkpt>
      <trkpt lat="44.13517" lon="5.8327">
        <ele>1113</ele>
        <time>2022-09-22T09:46:10Z</time>
      </trkpt>
      <trkpt lat="44.13517" lon="5.83269">
        <ele>1113</ele>
        <time>2022-09-22T09:46:11Z</time>
      </trkpt>
      <trkpt lat="44.13516" lon="5.83268">
        <ele>1113</ele>
        <time>2022-09-22T09:46:12Z</time>
      </trkpt>
      <trkpt lat="44.13516" lon="5.83267">
        <ele>1113</ele>
        <time>2022-09-22T09:46:13Z</time>
      </trkpt>
      <trkpt lat="44.13516" lon="5.83266">
        <ele>1113</ele>
        <time>2022-09-22T09:46:14Z</time>
      </trkpt>
      <trkpt lat="44.13517" lon="5.83266">
        <ele>1113</ele>
        <time>2022-09-22T09:46:15Z</time>
      </trkpt>
      <trkpt lat="44.13517" lon="5.83265">
        <ele>1113</ele>
        <time>2022-09-22T09:46:16Z</time>
      </trkpt>
      <trkpt lat="44.13517" lon="5.83264">
        <ele>1113</ele>
        <time>2022-09-22T09:46:17Z</time>
      </trkpt>
      <trkpt lat="44.13517" lon="5.83264">
        <ele>1113</ele>
        <time>2022-09-22T09:46:18Z</time>
      </trkpt>
      <trkpt lat="44.13517" lon="5.83264">
        <ele>1114</ele>
        <time>2022-09-22T09:46:19Z</time>
      </trkpt>
      <trkpt lat="44.13517" lon="5.83264">
        <ele>1114</ele>
        <time>2022-09-22T09:46:20Z</time>
      </trkpt>
      <trkpt lat="44.13517" lon="5.83263">
        <ele>1114</ele>
        <time>2022-09-22T09:46:21Z</time>
      </trkpt>
      <trkpt lat="44.13518" lon="5.83262">
        <ele>1114</ele>
        <time>2022-09-22T09:46:22Z</time>
      </trkpt>
      <trkpt lat="44.13518" lon="5.83262">
        <ele>1114</ele>
        <time>2022-09-22T09:46:23Z</time>
      </trkpt>
      <trkpt lat="44.13519" lon="5.83261">
        <ele>1114</ele>
        <time>2022-09-22T09:46:24Z</time>
      </trkpt>
      <trkpt lat="44.13519" lon="5.8326">
        <ele>1114</ele>
        <time>2022-09-22T09:46:25Z</time>
      </trkpt>
      <trkpt lat="44.13519" lon="5.83259">
        <ele>1114</ele>
        <time>2022-09-22T09:46:26Z</time>
      </trkpt>
      <trkpt lat="44.13519" lon="5.83258">
        <ele>1114</ele>
        <time>2022-09-22T09:46:27Z</time>
      </trkpt>
      <trkpt lat="44.13519" lon="5.83258">
        <ele>1114</ele>
        <time>2022-09-22T09:46:28Z</time>
      </trkpt>
      <trkpt lat="44.13519" lon="5.83257">
        <ele>1114</ele>
        <time>2022-09-22T09:46:29Z</time>
      </trkpt>
      <trkpt lat="44.13518" lon="5.83256">
        <ele>1114</ele>
        <time>2022-09-22T09:46:30Z</time>
      </trkpt>
      <trkpt lat="44.13518" lon="5.83255">
        <ele>1114</ele>
        <time>2022-09-22T09:46:31Z</time>
      </trkpt>
      <trkpt lat="44.13518" lon="5.83255">
        <ele>1114</ele>
        <time>2022-09-22T09:46:32Z</time>
      </trkpt>
      <trkpt lat="44.13517" lon="5.83254">
        <ele>1114</ele>
        <time>2022-09-22T09:46:33Z</time>
      </trkpt>
      <trkpt lat="44.13517" lon="5.83253">
        <ele>1114</ele>
        <time>2022-09-22T09:46:34Z</time>
      </trkpt>
      <trkpt lat="44.13517" lon="5.83252">
        <ele>1114</ele>
        <time>2022-09-22T09:46:35Z</time>
      </trkpt>
      <trkpt lat="44.13517" lon="5.8325">
        <ele>1114</ele>
        <time>2022-09-22T09:46:36Z</time>
      </trkpt>
      <trkpt lat="44.13517" lon="5.83249">
        <ele>1114</ele>
        <time>2022-09-22T09:46:37Z</time>
      </trkpt>
      <trkpt lat="44.13517" lon="5.83249">
        <ele>1114</ele>
        <time>2022-09-22T09:46:38Z</time>
      </trkpt>
      <trkpt lat="44.13517" lon="5.83248">
        <ele>1115</ele>
        <time>2022-09-22T09:46:39Z</time>
      </trkpt>
      <trkpt lat="44.13517" lon="5.83247">
        <ele>1115</ele>
        <time>2022-09-22T09:46:40Z</time>
      </trkpt>
      <trkpt lat="44.13519" lon="5.83245">
        <ele>1116</ele>
        <time>2022-09-22T09:49:36Z</time>
      </trkpt>
      <trkpt lat="44.1352" lon="5.83244">
        <ele>1116</ele>
        <time>2022-09-22T09:49:37Z</time>
      </trkpt>
      <trkpt lat="44.13521" lon="5.83243">
        <ele>1116</ele>
        <time>2022-09-22T09:49:38Z</time>
      </trkpt>
      <trkpt lat="44.13521" lon="5.83242">
        <ele>1116</ele>
        <time>2022-09-22T09:49:39Z</time>
      </trkpt>
      <trkpt lat="44.13522" lon="5.83241">
        <ele>1116</ele>
        <time>2022-09-22T09:49:40Z</time>
      </trkpt>
      <trkpt lat="44.13523" lon="5.83241">
        <ele>1116</ele>
        <time>2022-09-22T09:49:41Z</time>
      </trkpt>
      <trkpt lat="44.13523" lon="5.8324">
        <ele>1116</ele>
        <time>2022-09-22T09:49:42Z</time>
      </trkpt>
      <trkpt lat="44.13524" lon="5.83239">
        <ele>1116</ele>
        <time>2022-09-22T09:49:43Z</time>
      </trkpt>
      <trkpt lat="44.13525" lon="5.83239">
        <ele>1116</ele>
        <time>2022-09-22T09:49:44Z</time>
      </trkpt>
      <trkpt lat="44.13525" lon="5.83238">
        <ele>1116</ele>
        <time>2022-09-22T09:49:45Z</time>
      </trkpt>
      <trkpt lat="44.13526" lon="5.83238">
        <ele>1116</ele>
        <time>2022-09-22T09:49:46Z</time>
      </trkpt>
      <trkpt lat="44.13527" lon="5.83238">
        <ele>1116</ele>
        <time>2022-09-22T09:49:47Z</time>
      </trkpt>
      <trkpt lat="44.13528" lon="5.83238">
        <ele>1116</ele>
        <time>2022-09-22T09:49:48Z</time>
      </trkpt>
      <trkpt lat="44.13528" lon="5.83238">
        <ele>1117</ele>
        <time>2022-09-22T09:49:49Z</time>
      </trkpt>
      <trkpt lat="44.13529" lon="5.83238">
        <ele>1117</ele>
        <time>2022-09-22T09:49:50Z</time>
      </trkpt>
      <trkpt lat="44.13529" lon="5.83239">
        <ele>1117</ele>
        <time>2022-09-22T09:49:51Z</time>
      </trkpt>
      <trkpt lat="44.1353" lon="5.83239">
        <ele>1117</ele>
        <time>2022-09-22T09:49:52Z</time>
      </trkpt>
      <trkpt lat="44.1353" lon="5.83239">
        <ele>1117</ele>
        <time>2022-09-22T09:49:53Z</time>
      </trkpt>
      <trkpt lat="44.13531" lon="5.83239">
        <ele>1117</ele>
        <time>2022-09-22T09:49:54Z</time>
      </trkpt>
      <trkpt lat="44.13532" lon="5.83238">
        <ele>1118</ele>
        <time>2022-09-22T09:50:58Z</time>
      </trkpt>
      <trkpt lat="44.13532" lon="5.83237">
        <ele>1118</ele>
        <time>2022-09-22T09:50:59Z</time>
      </trkpt>
      <trkpt lat="44.13531" lon="5.83237">
        <ele>1118</ele>
        <time>2022-09-22T09:51:00Z</time>
      </trkpt>
      <trkpt lat="44.1353" lon="5.83237">
        <ele>1117</ele>
        <time>2022-09-22T09:51:08Z</time>
      </trkpt>
      <trkpt lat="44.13529" lon="5.83237">
        <ele>1117</ele>
        <time>2022-09-22T09:51:09Z</time>
      </trkpt>
      <trkpt lat="44.13528" lon="5.83237">
        <ele>1117</ele>
        <time>2022-09-22T09:51:10Z</time>
      </trkpt>
      <trkpt lat="44.13527" lon="5.83237">
        <ele>1117</ele>
        <time>2022-09-22T09:51:11Z</time>
      </trkpt>
      <trkpt lat="44.13526" lon="5.83237">
        <ele>1117</ele>
        <time>2022-09-22T09:51:12Z</time>
      </trkpt>
      <trkpt lat="44.13525" lon="5.83238">
        <ele>1117</ele>
        <time>2022-09-22T09:51:13Z</time>
      </trkpt>
      <trkpt lat="44.13525" lon="5.83238">
        <ele>1117</ele>
        <time>2022-09-22T09:51:14Z</time>
      </trkpt>
      <trkpt lat="44.13524" lon="5.83238">
        <ele>1117</ele>
        <time>2022-09-22T09:51:15Z</time>
      </trkpt>
      <trkpt lat="44.13523" lon="5.83239">
        <ele>1117</ele>
        <time>2022-09-22T09:51:16Z</time>
      </trkpt>
      <trkpt lat="44.13522" lon="5.83239">
        <ele>1115</ele>
        <time>2022-09-22T09:58:49Z</time>
      </trkpt>
      <trkpt lat="44.13521" lon="5.83238">
        <ele>1115</ele>
        <time>2022-09-22T09:58:50Z</time>
      </trkpt>
      <trkpt lat="44.1352" lon="5.83238">
        <ele>1115</ele>
        <time>2022-09-22T09:58:51Z</time>
      </trkpt>
      <trkpt lat="44.1352" lon="5.83237">
        <ele>1115</ele>
        <time>2022-09-22T09:58:52Z</time>
      </trkpt>
      <trkpt lat="44.1352" lon="5.83236">
        <ele>1115</ele>
        <time>2022-09-22T09:58:53Z</time>
      </trkpt>
      <trkpt lat="44.1352" lon="5.83236">
        <ele>1115</ele>
        <time>2022-09-22T09:58:54Z</time>
      </trkpt>
      <trkpt lat="44.13519" lon="5.83235">
        <ele>1115</ele>
        <time>2022-09-22T09:58:55Z</time>
      </trkpt>
      <trkpt lat="44.13518" lon="5.83237">
        <ele>1115</ele>
        <time>2022-09-22T09:59:42Z</time>
      </trkpt>
      <trkpt lat="44.13518" lon="5.83238">
        <ele>1115</ele>
        <time>2022-09-22T09:59:43Z</time>
      </trkpt>
      <trkpt lat="44.13517" lon="5.83239">
        <ele>1116</ele>
        <time>2022-09-22T09:59:44Z</time>
      </trkpt>
      <trkpt lat="44.13519" lon="5.8324">
        <ele>1116</ele>
        <time>2022-09-22T10:00:21Z</time>
      </trkpt>
      <trkpt lat="44.13519" lon="5.8324">
        <ele>1116</ele>
        <time>2022-09-22T10:00:22Z</time>
      </trkpt>
      <trkpt lat="44.1352" lon="5.83241">
        <ele>1116</ele>
        <time>2022-09-22T10:00:23Z</time>
      </trkpt>
      <trkpt lat="44.13519" lon="5.83241">
        <ele>1116</ele>
        <time>2022-09-22T10:07:26Z</time>
      </trkpt>
      <trkpt lat="44.13518" lon="5.83241">
        <ele>1116</ele>
        <time>2022-09-22T10:07:27Z</time>
      </trkpt>
      <trkpt lat="44.13518" lon="5.83241">
        <ele>1116</ele>
        <time>2022-09-22T10:07:28Z</time>
      </trkpt>
      <trkpt lat="44.13518" lon="5.83241">
        <ele>1116</ele>
        <time>2022-09-22T10:07:29Z</time>
      </trkpt>
      <trkpt lat="44.13518" lon="5.83242">
        <ele>1116</ele>
        <time>2022-09-22T10:07:30Z</time>
      </trkpt>
      <trkpt lat="44.13518" lon="5.83241">
        <ele>1116</ele>
        <time>2022-09-22T10:10:39Z</time>
      </trkpt>
      <trkpt lat="44.13519" lon="5.8324">
        <ele>1116</ele>
        <time>2022-09-22T10:10:40Z</time>
      </trkpt>
      <trkpt lat="44.13519" lon="5.8324">
        <ele>1116</ele>
        <time>2022-09-22T10:10:41Z</time>
      </trkpt>
      <trkpt lat="44.1352" lon="5.83238">
        <ele>1116</ele>
        <time>2022-09-22T10:11:11Z</time>
      </trkpt>
      <trkpt lat="44.13521" lon="5.83237">
        <ele>1116</ele>
        <time>2022-09-22T10:11:12Z</time>
      </trkpt>
      <trkpt lat="44.13521" lon="5.83236">
        <ele>1116</ele>
        <time>2022-09-22T10:11:13Z</time>
      </trkpt>
      <trkpt lat="44.13521" lon="5.83237">
        <ele>1115</ele>
        <time>2022-09-22T10:13:54Z</time>
      </trkpt>
      <trkpt lat="44.1352" lon="5.83237">
        <ele>1115</ele>
        <time>2022-09-22T10:13:55Z</time>
      </trkpt>
      <trkpt lat="44.1352" lon="5.83237">
        <ele>1115</ele>
        <time>2022-09-22T10:13:56Z</time>
      </trkpt>
      <trkpt lat="44.1352" lon="5.83237">
        <ele>1115</ele>
        <time>2022-09-22T10:13:57Z</time>
      </trkpt>
      <trkpt lat="44.1352" lon="5.83237">
        <ele>1115</ele>
        <time>2022-09-22T10:13:58Z</time>
      </trkpt>
      <trkpt lat="44.13521" lon="5.83237">
        <ele>1116</ele>
        <time>2022-09-22T10:13:59Z</time>
      </trkpt>
      <trkpt lat="44.13521" lon="5.83237">
        <ele>1116</ele>
        <time>2022-09-22T10:14:00Z</time>
      </trkpt>
      <trkpt lat="44.13521" lon="5.83237">
        <ele>1115</ele>
        <time>2022-09-22T10:14:11Z</time>
      </trkpt>
      <trkpt lat="44.13522" lon="5.83238">
        <ele>1115</ele>
        <time>2022-09-22T10:14:12Z</time>
      </trkpt>
      <trkpt lat="44.13522" lon="5.83239">
        <ele>1115</ele>
        <time>2022-09-22T10:14:13Z</time>
      </trkpt>
      <trkpt lat="44.13521" lon="5.83239">
        <ele>1115</ele>
        <time>2022-09-22T10:20:18Z</time>
      </trkpt>
      <trkpt lat="44.1352" lon="5.83239">
        <ele>1115</ele>
        <time>2022-09-22T10:20:19Z</time>
      </trkpt>
      <trkpt lat="44.1352" lon="5.83238">
        <ele>1115</ele>
        <time>2022-09-22T10:20:20Z</time>
      </trkpt>
      <trkpt lat="44.13519" lon="5.83239">
        <ele>1115</ele>
        <time>2022-09-22T10:20:59Z</time>
      </trkpt>
      <trkpt lat="44.13519" lon="5.8324">
        <ele>1115</ele>
        <time>2022-09-22T10:21:00Z</time>
      </trkpt>
      <trkpt lat="44.13518" lon="5.83241">
        <ele>1115</ele>
        <time>2022-09-22T10:21:01Z</time>
      </trkpt>
      <trkpt lat="44.13518" lon="5.83241">
        <ele>1115</ele>
        <time>2022-09-22T10:21:02Z</time>
      </trkpt>
      <trkpt lat="44.13517" lon="5.83242">
        <ele>1115</ele>
        <time>2022-09-22T10:21:03Z</time>
      </trkpt>
      <trkpt lat="44.13518" lon="5.8324">
        <ele>1116</ele>
        <time>2022-09-22T10:27:50Z</time>
      </trkpt>
      <trkpt lat="44.13519" lon="5.83239">
        <ele>1116</ele>
        <time>2022-09-22T10:27:51Z</time>
      </trkpt>
      <trkpt lat="44.1352" lon="5.83239">
        <ele>1116</ele>
        <time>2022-09-22T10:27:52Z</time>
      </trkpt>
      <trkpt lat="44.1352" lon="5.83239">
        <ele>1116</ele>
        <time>2022-09-22T10:27:53Z</time>
      </trkpt>
      <trkpt lat="44.1352" lon="5.83239">
        <ele>1116</ele>
        <time>2022-09-22T10:27:54Z</time>
      </trkpt>
      <trkpt lat="44.1352" lon="5.83239">
        <ele>1116</ele>
        <time>2022-09-22T10:27:55Z</time>
      </trkpt>
      <trkpt lat="44.13519" lon="5.83238">
        <ele>1116</ele>
        <time>2022-09-22T10:28:24Z</time>
      </trkpt>
      <trkpt lat="44.13519" lon="5.83238">
        <ele>1116</ele>
        <time>2022-09-22T10:28:25Z</time>
      </trkpt>
      <trkpt lat="44.13518" lon="5.83238">
        <ele>1116</ele>
        <time>2022-09-22T10:28:26Z</time>
      </trkpt>
      <trkpt lat="44.1352" lon="5.8324">
        <ele>1116</ele>
        <time>2022-09-22T10:30:30Z</time>
      </trkpt>
      <trkpt lat="44.13521" lon="5.8324">
        <ele>1116</ele>
        <time>2022-09-22T10:30:31Z</time>
      </trkpt>
      <trkpt lat="44.13522" lon="5.83241">
        <ele>1116</ele>
        <time>2022-09-22T10:30:32Z</time>
      </trkpt>
      <trkpt lat="44.13522" lon="5.8324">
        <ele>1116</ele>
        <time>2022-09-22T10:30:33Z</time>
      </trkpt>
      <trkpt lat="44.13523" lon="5.8324">
        <ele>1116</ele>
        <time>2022-09-22T10:30:34Z</time>
      </trkpt>
      <trkpt lat="44.13523" lon="5.83239">
        <ele>1116</ele>
        <time>2022-09-22T10:30:35Z</time>
      </trkpt>
      <trkpt lat="44.13523" lon="5.83239">
        <ele>1116</ele>
        <time>2022-09-22T10:30:36Z</time>
      </trkpt>
      <trkpt lat="44.1352" lon="5.83241">
        <ele>1116</ele>
        <time>2022-09-22T10:31:44Z</time>
      </trkpt>
      <trkpt lat="44.13519" lon="5.83241">
        <ele>1116</ele>
        <time>2022-09-22T10:31:45Z</time>
      </trkpt>
      <trkpt lat="44.13518" lon="5.83242">
        <ele>1116</ele>
        <time>2022-09-22T10:31:46Z</time>
      </trkpt>
      <trkpt lat="44.13516" lon="5.83243">
        <ele>1116</ele>
        <time>2022-09-22T10:31:52Z</time>
      </trkpt>
      <trkpt lat="44.13515" lon="5.83243">
        <ele>1116</ele>
        <time>2022-09-22T10:31:53Z</time>
      </trkpt>
      <trkpt lat="44.13515" lon="5.83243">
        <ele>1116</ele>
        <time>2022-09-22T10:31:54Z</time>
      </trkpt>
      <trkpt lat="44.13514" lon="5.83243">
        <ele>1116</ele>
        <time>2022-09-22T10:31:55Z</time>
      </trkpt>
      <trkpt lat="44.13513" lon="5.83243">
        <ele>1116</ele>
        <time>2022-09-22T10:31:56Z</time>
      </trkpt>
      <trkpt lat="44.13516" lon="5.83241">
        <ele>1115</ele>
        <time>2022-09-22T10:34:22Z</time>
      </trkpt>
      <trkpt lat="44.13517" lon="5.8324">
        <ele>1115</ele>
        <time>2022-09-22T10:34:23Z</time>
      </trkpt>
      <trkpt lat="44.13518" lon="5.8324">
        <ele>1115</ele>
        <time>2022-09-22T10:34:24Z</time>
      </trkpt>
      <trkpt lat="44.13519" lon="5.8324">
        <ele>1115</ele>
        <time>2022-09-22T10:34:25Z</time>
      </trkpt>
      <trkpt lat="44.13519" lon="5.8324">
        <ele>1115</ele>
        <time>2022-09-22T10:34:26Z</time>
      </trkpt>
      <trkpt lat="44.1352" lon="5.8324">
        <ele>1116</ele>
        <time>2022-09-22T10:41:45Z</time>
      </trkpt>
      <trkpt lat="44.1352" lon="5.8324">
        <ele>1116</ele>
        <time>2022-09-22T10:41:46Z</time>
      </trkpt>
      <trkpt lat="44.1352" lon="5.8324">
        <ele>1116</ele>
        <time>2022-09-22T10:41:47Z</time>
      </trkpt>
      <trkpt lat="44.13518" lon="5.8324">
        <ele>1115</ele>
        <time>2022-09-22T10:43:26Z</time>
      </trkpt>
      <trkpt lat="44.13517" lon="5.8324">
        <ele>1115</ele>
        <time>2022-09-22T10:43:27Z</time>
      </trkpt>
      <trkpt lat="44.13516" lon="5.8324">
        <ele>1115</ele>
        <time>2022-09-22T10:43:28Z</time>
      </trkpt>
      <trkpt lat="44.13515" lon="5.8324">
        <ele>1115</ele>
        <time>2022-09-22T10:43:29Z</time>
      </trkpt>
      <trkpt lat="44.13514" lon="5.8324">
        <ele>1115</ele>
        <time>2022-09-22T10:43:30Z</time>
      </trkpt>
      <trkpt lat="44.13513" lon="5.8324">
        <ele>1115</ele>
        <time>2022-09-22T10:43:31Z</time>
      </trkpt>
      <trkpt lat="44.13513" lon="5.8324">
        <ele>1115</ele>
        <time>2022-09-22T10:43:32Z</time>
      </trkpt>
      <trkpt lat="44.13511" lon="5.83241">
        <ele>1114</ele>
        <time>2022-09-22T10:43:51Z</time>
      </trkpt>
      <trkpt lat="44.13509" lon="5.83241">
        <ele>1114</ele>
        <time>2022-09-22T10:43:52Z</time>
      </trkpt>
      <trkpt lat="44.13508" lon="5.83241">
        <ele>1114</ele>
        <time>2022-09-22T10:43:53Z</time>
      </trkpt>
      <trkpt lat="44.13507" lon="5.83242">
        <ele>1114</ele>
        <time>2022-09-22T10:43:54Z</time>
      </trkpt>
      <trkpt lat="44.13506" lon="5.83242">
        <ele>1114</ele>
        <time>2022-09-22T10:43:55Z</time>
      </trkpt>
      <trkpt lat="44.13505" lon="5.83242">
        <ele>1114</ele>
        <time>2022-09-22T10:43:56Z</time>
      </trkpt>
      <trkpt lat="44.13505" lon="5.83242">
        <ele>1114</ele>
        <time>2022-09-22T10:43:57Z</time>
      </trkpt>
      <trkpt lat="44.13504" lon="5.83241">
        <ele>1114</ele>
        <time>2022-09-22T10:43:58Z</time>
      </trkpt>
      <trkpt lat="44.13504" lon="5.83241">
        <ele>1114</ele>
        <time>2022-09-22T10:43:59Z</time>
      </trkpt>
      <trkpt lat="44.13503" lon="5.8324">
        <ele>1114</ele>
        <time>2022-09-22T10:44:00Z</time>
      </trkpt>
      <trkpt lat="44.13503" lon="5.83239">
        <ele>1114</ele>
        <time>2022-09-22T10:44:01Z</time>
      </trkpt>
      <trkpt lat="44.13503" lon="5.83239">
        <ele>1114</ele>
        <time>2022-09-22T10:44:02Z</time>
      </trkpt>
      <trkpt lat="44.13502" lon="5.83238">
        <ele>1114</ele>
        <time>2022-09-22T10:44:03Z</time>
      </trkpt>
      <trkpt lat="44.13502" lon="5.83237">
        <ele>1114</ele>
        <time>2022-09-22T10:44:04Z</time>
      </trkpt>
      <trkpt lat="44.13501" lon="5.83236">
        <ele>1114</ele>
        <time>2022-09-22T10:44:05Z</time>
      </trkpt>
      <trkpt lat="44.13501" lon="5.83235">
        <ele>1114</ele>
        <time>2022-09-22T10:44:06Z</time>
      </trkpt>
      <trkpt lat="44.13501" lon="5.83234">
        <ele>1114</ele>
        <time>2022-09-22T10:44:07Z</time>
      </trkpt>
      <trkpt lat="44.13501" lon="5.83233">
        <ele>1114</ele>
        <time>2022-09-22T10:44:08Z</time>
      </trkpt>
      <trkpt lat="44.135" lon="5.83232">
        <ele>1114</ele>
        <time>2022-09-22T10:44:09Z</time>
      </trkpt>
      <trkpt lat="44.135" lon="5.83232">
        <ele>1114</ele>
        <time>2022-09-22T10:44:10Z</time>
      </trkpt>
      <trkpt lat="44.135" lon="5.83231">
        <ele>1114</ele>
        <time>2022-09-22T10:44:11Z</time>
      </trkpt>
      <trkpt lat="44.13499" lon="5.8323">
        <ele>1114</ele>
        <time>2022-09-22T10:44:12Z</time>
      </trkpt>
      <trkpt lat="44.13499" lon="5.83229">
        <ele>1114</ele>
        <time>2022-09-22T10:44:13Z</time>
      </trkpt>
      <trkpt lat="44.13498" lon="5.83229">
        <ele>1114</ele>
        <time>2022-09-22T10:44:14Z</time>
      </trkpt>
      <trkpt lat="44.13498" lon="5.83228">
        <ele>1114</ele>
        <time>2022-09-22T10:44:15Z</time>
      </trkpt>
      <trkpt lat="44.13497" lon="5.83227">
        <ele>1114</ele>
        <time>2022-09-22T10:44:16Z</time>
      </trkpt>
      <trkpt lat="44.13496" lon="5.83227">
        <ele>1114</ele>
        <time>2022-09-22T10:44:17Z</time>
      </trkpt>
      <trkpt lat="44.13496" lon="5.83226">
        <ele>1114</ele>
        <time>2022-09-22T10:44:18Z</time>
      </trkpt>
      <trkpt lat="44.13495" lon="5.83225">
        <ele>1115</ele>
        <time>2022-09-22T10:44:19Z</time>
      </trkpt>
      <trkpt lat="44.13495" lon="5.83224">
        <ele>1115</ele>
        <time>2022-09-22T10:44:20Z</time>
      </trkpt>
      <trkpt lat="44.13494" lon="5.83223">
        <ele>1115</ele>
        <time>2022-09-22T10:44:21Z</time>
      </trkpt>
      <trkpt lat="44.13494" lon="5.83222">
        <ele>1115</ele>
        <time>2022-09-22T10:44:22Z</time>
      </trkpt>
      <trkpt lat="44.13493" lon="5.83221">
        <ele>1115</ele>
        <time>2022-09-22T10:44:23Z</time>
      </trkpt>
      <trkpt lat="44.13493" lon="5.83221">
        <ele>1115</ele>
        <time>2022-09-22T10:44:24Z</time>
      </trkpt>
      <trkpt lat="44.13492" lon="5.8322">
        <ele>1115</ele>
        <time>2022-09-22T10:44:25Z</time>
      </trkpt>
      <trkpt lat="44.13492" lon="5.83219">
        <ele>1115</ele>
        <time>2022-09-22T10:44:26Z</time>
      </trkpt>
      <trkpt lat="44.13491" lon="5.83218">
        <ele>1115</ele>
        <time>2022-09-22T10:44:27Z</time>
      </trkpt>
      <trkpt lat="44.13491" lon="5.83218">
        <ele>1115</ele>
        <time>2022-09-22T10:44:28Z</time>
      </trkpt>
      <trkpt lat="44.1349" lon="5.83217">
        <ele>1115</ele>
        <time>2022-09-22T10:44:29Z</time>
      </trkpt>
      <trkpt lat="44.1349" lon="5.83216">
        <ele>1115</ele>
        <time>2022-09-22T10:44:30Z</time>
      </trkpt>
      <trkpt lat="44.13489" lon="5.83215">
        <ele>1115</ele>
        <time>2022-09-22T10:44:31Z</time>
      </trkpt>
      <trkpt lat="44.13488" lon="5.83214">
        <ele>1115</ele>
        <time>2022-09-22T10:44:32Z</time>
      </trkpt>
      <trkpt lat="44.13488" lon="5.83213">
        <ele>1115</ele>
        <time>2022-09-22T10:44:33Z</time>
      </trkpt>
      <trkpt lat="44.13487" lon="5.83213">
        <ele>1115</ele>
        <time>2022-09-22T10:44:34Z</time>
      </trkpt>
      <trkpt lat="44.13487" lon="5.83212">
        <ele>1115</ele>
        <time>2022-09-22T10:44:35Z</time>
      </trkpt>
      <trkpt lat="44.13486" lon="5.83211">
        <ele>1115</ele>
        <time>2022-09-22T10:44:36Z</time>
      </trkpt>
      <trkpt lat="44.13486" lon="5.83211">
        <ele>1115</ele>
        <time>2022-09-22T10:44:37Z</time>
      </trkpt>
      <trkpt lat="44.13485" lon="5.83211">
        <ele>1115</ele>
        <time>2022-09-22T10:44:38Z</time>
      </trkpt>
      <trkpt lat="44.13484" lon="5.83209">
        <ele>1116</ele>
        <time>2022-09-22T10:45:43Z</time>
      </trkpt>
      <trkpt lat="44.13484" lon="5.83208">
        <ele>1116</ele>
        <time>2022-09-22T10:45:44Z</time>
      </trkpt>
      <trkpt lat="44.13484" lon="5.83207">
        <ele>1116</ele>
        <time>2022-09-22T10:45:45Z</time>
      </trkpt>
      <trkpt lat="44.13484" lon="5.83206">
        <ele>1116</ele>
        <time>2022-09-22T10:45:46Z</time>
      </trkpt>
      <trkpt lat="44.13483" lon="5.83205">
        <ele>1116</ele>
        <time>2022-09-22T10:45:47Z</time>
      </trkpt>
      <trkpt lat="44.13483" lon="5.83204">
        <ele>1116</ele>
        <time>2022-09-22T10:45:58Z</time>
      </trkpt>
      <trkpt lat="44.13482" lon="5.83204">
        <ele>1116</ele>
        <time>2022-09-22T10:45:59Z</time>
      </trkpt>
      <trkpt lat="44.13482" lon="5.83203">
        <ele>1116</ele>
        <time>2022-09-22T10:46:00Z</time>
      </trkpt>
      <trkpt lat="44.13481" lon="5.83204">
        <ele>1116</ele>
        <time>2022-09-22T10:46:06Z</time>
      </trkpt>
      <trkpt lat="44.13481" lon="5.83203">
        <ele>1116</ele>
        <time>2022-09-22T10:46:07Z</time>
      </trkpt>
      <trkpt lat="44.13481" lon="5.83203">
        <ele>1116</ele>
        <time>2022-09-22T10:46:08Z</time>
      </trkpt>
      <trkpt lat="44.13481" lon="5.83202">
        <ele>1116</ele>
        <time>2022-09-22T10:46:09Z</time>
      </trkpt>
      <trkpt lat="44.1348" lon="5.83202">
        <ele>1116</ele>
        <time>2022-09-22T10:46:10Z</time>
      </trkpt>
      <trkpt lat="44.1348" lon="5.83201">
        <ele>1116</ele>
        <time>2022-09-22T10:46:11Z</time>
      </trkpt>
      <trkpt lat="44.13479" lon="5.832">
        <ele>1116</ele>
        <time>2022-09-22T10:46:12Z</time>
      </trkpt>
      <trkpt lat="44.13479" lon="5.83198">
        <ele>1116</ele>
        <time>2022-09-22T10:46:13Z</time>
      </trkpt>
      <trkpt lat="44.13478" lon="5.83197">
        <ele>1116</ele>
        <time>2022-09-22T10:46:14Z</time>
      </trkpt>
      <trkpt lat="44.13478" lon="5.83196">
        <ele>1116</ele>
        <time>2022-09-22T10:46:15Z</time>
      </trkpt>
      <trkpt lat="44.13477" lon="5.83195">
        <ele>1116</ele>
        <time>2022-09-22T10:46:16Z</time>
      </trkpt>
      <trkpt lat="44.13477" lon="5.83194">
        <ele>1116</ele>
        <time>2022-09-22T10:46:17Z</time>
      </trkpt>
      <trkpt lat="44.13477" lon="5.83193">
        <ele>1116</ele>
        <time>2022-09-22T10:46:18Z</time>
      </trkpt>
      <trkpt lat="44.13476" lon="5.83192">
        <ele>1116</ele>
        <time>2022-09-22T10:46:19Z</time>
      </trkpt>
      <trkpt lat="44.13475" lon="5.83191">
        <ele>1116</ele>
        <time>2022-09-22T10:46:20Z</time>
      </trkpt>
      <trkpt lat="44.13475" lon="5.8319">
        <ele>1116</ele>
        <time>2022-09-22T10:46:21Z</time>
      </trkpt>
      <trkpt lat="44.13474" lon="5.83189">
        <ele>1116</ele>
        <time>2022-09-22T10:46:22Z</time>
      </trkpt>
      <trkpt lat="44.13474" lon="5.83188">
        <ele>1116</ele>
        <time>2022-09-22T10:46:23Z</time>
      </trkpt>
      <trkpt lat="44.13473" lon="5.83187">
        <ele>1116</ele>
        <time>2022-09-22T10:46:24Z</time>
      </trkpt>
      <trkpt lat="44.13473" lon="5.83186">
        <ele>1116</ele>
        <time>2022-09-22T10:46:25Z</time>
      </trkpt>
      <trkpt lat="44.13472" lon="5.83185">
        <ele>1116</ele>
        <time>2022-09-22T10:46:26Z</time>
      </trkpt>
      <trkpt lat="44.13471" lon="5.83183">
        <ele>1117</ele>
        <time>2022-09-22T10:46:51Z</time>
      </trkpt>
      <trkpt lat="44.13471" lon="5.83182">
        <ele>1117</ele>
        <time>2022-09-22T10:46:52Z</time>
      </trkpt>
      <trkpt lat="44.1347" lon="5.83182">
        <ele>1117</ele>
        <time>2022-09-22T10:46:53Z</time>
      </trkpt>
      <trkpt lat="44.13469" lon="5.83181">
        <ele>1117</ele>
        <time>2022-09-22T10:46:54Z</time>
      </trkpt>
      <trkpt lat="44.13469" lon="5.83181">
        <ele>1117</ele>
        <time>2022-09-22T10:46:55Z</time>
      </trkpt>
      <trkpt lat="44.13467" lon="5.8318">
        <ele>1117</ele>
        <time>2022-09-22T10:46:56Z</time>
      </trkpt>
      <trkpt lat="44.13466" lon="5.83179">
        <ele>1117</ele>
        <time>2022-09-22T10:46:57Z</time>
      </trkpt>
      <trkpt lat="44.13465" lon="5.83178">
        <ele>1117</ele>
        <time>2022-09-22T10:46:58Z</time>
      </trkpt>
      <trkpt lat="44.13464" lon="5.83178">
        <ele>1118</ele>
        <time>2022-09-22T10:46:59Z</time>
      </trkpt>
      <trkpt lat="44.13464" lon="5.83177">
        <ele>1118</ele>
        <time>2022-09-22T10:47:00Z</time>
      </trkpt>
      <trkpt lat="44.13463" lon="5.83176">
        <ele>1118</ele>
        <time>2022-09-22T10:47:01Z</time>
      </trkpt>
      <trkpt lat="44.13462" lon="5.83175">
        <ele>1118</ele>
        <time>2022-09-22T10:47:02Z</time>
      </trkpt>
      <trkpt lat="44.13461" lon="5.83174">
        <ele>1118</ele>
        <time>2022-09-22T10:47:03Z</time>
      </trkpt>
      <trkpt lat="44.1346" lon="5.83174">
        <ele>1118</ele>
        <time>2022-09-22T10:47:04Z</time>
      </trkpt>
      <trkpt lat="44.13459" lon="5.83173">
        <ele>1118</ele>
        <time>2022-09-22T10:47:05Z</time>
      </trkpt>
      <trkpt lat="44.13458" lon="5.83173">
        <ele>1118</ele>
        <time>2022-09-22T10:47:06Z</time>
      </trkpt>
      <trkpt lat="44.13458" lon="5.83172">
        <ele>1118</ele>
        <time>2022-09-22T10:47:07Z</time>
      </trkpt>
      <trkpt lat="44.13457" lon="5.83171">
        <ele>1118</ele>
        <time>2022-09-22T10:47:08Z</time>
      </trkpt>
      <trkpt lat="44.13456" lon="5.83171">
        <ele>1118</ele>
        <time>2022-09-22T10:47:09Z</time>
      </trkpt>
      <trkpt lat="44.13455" lon="5.83171">
        <ele>1118</ele>
        <time>2022-09-22T10:47:10Z</time>
      </trkpt>
      <trkpt lat="44.13454" lon="5.8317">
        <ele>1118</ele>
        <time>2022-09-22T10:47:11Z</time>
      </trkpt>
      <trkpt lat="44.13453" lon="5.8317">
        <ele>1118</ele>
        <time>2022-09-22T10:47:12Z</time>
      </trkpt>
      <trkpt lat="44.13452" lon="5.8317">
        <ele>1118</ele>
        <time>2022-09-22T10:47:13Z</time>
      </trkpt>
      <trkpt lat="44.13451" lon="5.83169">
        <ele>1118</ele>
        <time>2022-09-22T10:47:14Z</time>
      </trkpt>
      <trkpt lat="44.13451" lon="5.83169">
        <ele>1118</ele>
        <time>2022-09-22T10:47:15Z</time>
      </trkpt>
      <trkpt lat="44.13451" lon="5.83169">
        <ele>1118</ele>
        <time>2022-09-22T10:47:16Z</time>
      </trkpt>
      <trkpt lat="44.1345" lon="5.83168">
        <ele>1118</ele>
        <time>2022-09-22T10:47:17Z</time>
      </trkpt>
      <trkpt lat="44.1345" lon="5.83168">
        <ele>1118</ele>
        <time>2022-09-22T10:47:18Z</time>
      </trkpt>
      <trkpt lat="44.13449" lon="5.83167">
        <ele>1118</ele>
        <time>2022-09-22T10:47:19Z</time>
      </trkpt>
      <trkpt lat="44.13449" lon="5.83167">
        <ele>1118</ele>
        <time>2022-09-22T10:47:20Z</time>
      </trkpt>
      <trkpt lat="44.13448" lon="5.83167">
        <ele>1118</ele>
        <time>2022-09-22T10:47:21Z</time>
      </trkpt>
      <trkpt lat="44.13448" lon="5.83166">
        <ele>1118</ele>
        <time>2022-09-22T10:47:22Z</time>
      </trkpt>
      <trkpt lat="44.13447" lon="5.83166">
        <ele>1118</ele>
        <time>2022-09-22T10:47:23Z</time>
      </trkpt>
      <trkpt lat="44.13446" lon="5.83165">
        <ele>1119</ele>
        <time>2022-09-22T10:47:24Z</time>
      </trkpt>
      <trkpt lat="44.13444" lon="5.83165">
        <ele>1119</ele>
        <time>2022-09-22T10:47:25Z</time>
      </trkpt>
      <trkpt lat="44.13443" lon="5.83165">
        <ele>1119</ele>
        <time>2022-09-22T10:47:26Z</time>
      </trkpt>
      <trkpt lat="44.13442" lon="5.83164">
        <ele>1119</ele>
        <time>2022-09-22T10:47:27Z</time>
      </trkpt>
      <trkpt lat="44.13441" lon="5.83163">
        <ele>1119</ele>
        <time>2022-09-22T10:47:28Z</time>
      </trkpt>
      <trkpt lat="44.1344" lon="5.83163">
        <ele>1119</ele>
        <time>2022-09-22T10:47:29Z</time>
      </trkpt>
      <trkpt lat="44.13439" lon="5.83162">
        <ele>1119</ele>
        <time>2022-09-22T10:47:30Z</time>
      </trkpt>
      <trkpt lat="44.13438" lon="5.83161">
        <ele>1119</ele>
        <time>2022-09-22T10:47:31Z</time>
      </trkpt>
      <trkpt lat="44.13437" lon="5.8316">
        <ele>1119</ele>
        <time>2022-09-22T10:47:32Z</time>
      </trkpt>
      <trkpt lat="44.13435" lon="5.83159">
        <ele>1119</ele>
        <time>2022-09-22T10:47:33Z</time>
      </trkpt>
      <trkpt lat="44.13434" lon="5.83158">
        <ele>1119</ele>
        <time>2022-09-22T10:47:34Z</time>
      </trkpt>
      <trkpt lat="44.13433" lon="5.83157">
        <ele>1119</ele>
        <time>2022-09-22T10:47:35Z</time>
      </trkpt>
      <trkpt lat="44.13432" lon="5.83157">
        <ele>1119</ele>
        <time>2022-09-22T10:47:36Z</time>
      </trkpt>
      <trkpt lat="44.13431" lon="5.83156">
        <ele>1119</ele>
        <time>2022-09-22T10:47:37Z</time>
      </trkpt>
      <trkpt lat="44.1343" lon="5.83156">
        <ele>1119</ele>
        <time>2022-09-22T10:47:38Z</time>
      </trkpt>
      <trkpt lat="44.13429" lon="5.83155">
        <ele>1119</ele>
        <time>2022-09-22T10:47:39Z</time>
      </trkpt>
      <trkpt lat="44.13428" lon="5.83155">
        <ele>1119</ele>
        <time>2022-09-22T10:47:40Z</time>
      </trkpt>
      <trkpt lat="44.13427" lon="5.83155">
        <ele>1119</ele>
        <time>2022-09-22T10:47:41Z</time>
      </trkpt>
      <trkpt lat="44.13426" lon="5.83154">
        <ele>1119</ele>
        <time>2022-09-22T10:47:42Z</time>
      </trkpt>
      <trkpt lat="44.13425" lon="5.83154">
        <ele>1119</ele>
        <time>2022-09-22T10:47:43Z</time>
      </trkpt>
      <trkpt lat="44.13424" lon="5.83153">
        <ele>1120</ele>
        <time>2022-09-22T10:47:44Z</time>
      </trkpt>
      <trkpt lat="44.13423" lon="5.83153">
        <ele>1120</ele>
        <time>2022-09-22T10:47:45Z</time>
      </trkpt>
      <trkpt lat="44.13422" lon="5.83152">
        <ele>1120</ele>
        <time>2022-09-22T10:47:46Z</time>
      </trkpt>
      <trkpt lat="44.13421" lon="5.83152">
        <ele>1120</ele>
        <time>2022-09-22T10:47:47Z</time>
      </trkpt>
      <trkpt lat="44.1342" lon="5.83151">
        <ele>1120</ele>
        <time>2022-09-22T10:47:48Z</time>
      </trkpt>
      <trkpt lat="44.13419" lon="5.83151">
        <ele>1120</ele>
        <time>2022-09-22T10:47:49Z</time>
      </trkpt>
      <trkpt lat="44.13418" lon="5.8315">
        <ele>1120</ele>
        <time>2022-09-22T10:47:50Z</time>
      </trkpt>
      <trkpt lat="44.13418" lon="5.8315">
        <ele>1120</ele>
        <time>2022-09-22T10:47:51Z</time>
      </trkpt>
      <trkpt lat="44.13417" lon="5.83149">
        <ele>1120</ele>
        <time>2022-09-22T10:47:52Z</time>
      </trkpt>
      <trkpt lat="44.13416" lon="5.83149">
        <ele>1120</ele>
        <time>2022-09-22T10:47:53Z</time>
      </trkpt>
      <trkpt lat="44.13415" lon="5.83148">
        <ele>1120</ele>
        <time>2022-09-22T10:47:54Z</time>
      </trkpt>
      <trkpt lat="44.13413" lon="5.83147">
        <ele>1120</ele>
        <time>2022-09-22T10:48:02Z</time>
      </trkpt>
      <trkpt lat="44.13413" lon="5.83146">
        <ele>1120</ele>
        <time>2022-09-22T10:48:03Z</time>
      </trkpt>
      <trkpt lat="44.13412" lon="5.83146">
        <ele>1121</ele>
        <time>2022-09-22T10:48:04Z</time>
      </trkpt>
      <trkpt lat="44.13412" lon="5.83145">
        <ele>1121</ele>
        <time>2022-09-22T10:48:05Z</time>
      </trkpt>
      <trkpt lat="44.13411" lon="5.83145">
        <ele>1121</ele>
        <time>2022-09-22T10:48:06Z</time>
      </trkpt>
      <trkpt lat="44.13411" lon="5.83145">
        <ele>1121</ele>
        <time>2022-09-22T10:48:07Z</time>
      </trkpt>
      <trkpt lat="44.1341" lon="5.83145">
        <ele>1121</ele>
        <time>2022-09-22T10:48:08Z</time>
      </trkpt>
      <trkpt lat="44.1341" lon="5.83145">
        <ele>1121</ele>
        <time>2022-09-22T10:48:09Z</time>
      </trkpt>
      <trkpt lat="44.13409" lon="5.83145">
        <ele>1121</ele>
        <time>2022-09-22T10:48:10Z</time>
      </trkpt>
      <trkpt lat="44.13409" lon="5.83145">
        <ele>1121</ele>
        <time>2022-09-22T10:48:11Z</time>
      </trkpt>
      <trkpt lat="44.13408" lon="5.83145">
        <ele>1121</ele>
        <time>2022-09-22T10:48:12Z</time>
      </trkpt>
      <trkpt lat="44.13407" lon="5.83145">
        <ele>1121</ele>
        <time>2022-09-22T10:48:13Z</time>
      </trkpt>
      <trkpt lat="44.13405" lon="5.83147">
        <ele>1122</ele>
        <time>2022-09-22T10:48:24Z</time>
      </trkpt>
      <trkpt lat="44.13404" lon="5.83147">
        <ele>1122</ele>
        <time>2022-09-22T10:48:25Z</time>
      </trkpt>
      <trkpt lat="44.13402" lon="5.83148">
        <ele>1122</ele>
        <time>2022-09-22T10:48:26Z</time>
      </trkpt>
      <trkpt lat="44.13402" lon="5.83148">
        <ele>1122</ele>
        <time>2022-09-22T10:48:27Z</time>
      </trkpt>
      <trkpt lat="44.13401" lon="5.83149">
        <ele>1122</ele>
        <time>2022-09-22T10:48:28Z</time>
      </trkpt>
      <trkpt lat="44.134" lon="5.83149">
        <ele>1122</ele>
        <time>2022-09-22T10:48:29Z</time>
      </trkpt>
      <trkpt lat="44.134" lon="5.8315">
        <ele>1122</ele>
        <time>2022-09-22T10:48:30Z</time>
      </trkpt>
      <trkpt lat="44.13399" lon="5.83151">
        <ele>1122</ele>
        <time>2022-09-22T10:48:31Z</time>
      </trkpt>
      <trkpt lat="44.13398" lon="5.83151">
        <ele>1122</ele>
        <time>2022-09-22T10:48:32Z</time>
      </trkpt>
      <trkpt lat="44.13398" lon="5.83152">
        <ele>1123</ele>
        <time>2022-09-22T10:49:25Z</time>
      </trkpt>
      <trkpt lat="44.13397" lon="5.83153">
        <ele>1123</ele>
        <time>2022-09-22T10:49:26Z</time>
      </trkpt>
      <trkpt lat="44.13396" lon="5.83154">
        <ele>1123</ele>
        <time>2022-09-22T10:49:27Z</time>
      </trkpt>
      <trkpt lat="44.13396" lon="5.83154">
        <ele>1123</ele>
        <time>2022-09-22T10:49:28Z</time>
      </trkpt>
      <trkpt lat="44.13395" lon="5.83154">
        <ele>1123</ele>
        <time>2022-09-22T10:49:29Z</time>
      </trkpt>
      <trkpt lat="44.13394" lon="5.83154">
        <ele>1123</ele>
        <time>2022-09-22T10:49:30Z</time>
      </trkpt>
      <trkpt lat="44.13393" lon="5.83154">
        <ele>1123</ele>
        <time>2022-09-22T10:49:31Z</time>
      </trkpt>
      <trkpt lat="44.13392" lon="5.83154">
        <ele>1123</ele>
        <time>2022-09-22T10:49:32Z</time>
      </trkpt>
      <trkpt lat="44.13391" lon="5.83154">
        <ele>1123</ele>
        <time>2022-09-22T10:49:33Z</time>
      </trkpt>
      <trkpt lat="44.1339" lon="5.83153">
        <ele>1123</ele>
        <time>2022-09-22T10:49:34Z</time>
      </trkpt>
      <trkpt lat="44.13389" lon="5.83153">
        <ele>1123</ele>
        <time>2022-09-22T10:49:35Z</time>
      </trkpt>
      <trkpt lat="44.13388" lon="5.83152">
        <ele>1123</ele>
        <time>2022-09-22T10:49:36Z</time>
      </trkpt>
      <trkpt lat="44.13387" lon="5.83151">
        <ele>1123</ele>
        <time>2022-09-22T10:49:37Z</time>
      </trkpt>
      <trkpt lat="44.13386" lon="5.83151">
        <ele>1123</ele>
        <time>2022-09-22T10:49:38Z</time>
      </trkpt>
      <trkpt lat="44.13385" lon="5.8315">
        <ele>1123</ele>
        <time>2022-09-22T10:49:39Z</time>
      </trkpt>
      <trkpt lat="44.13384" lon="5.83149">
        <ele>1123</ele>
        <time>2022-09-22T10:49:40Z</time>
      </trkpt>
      <trkpt lat="44.13382" lon="5.83149">
        <ele>1123</ele>
        <time>2022-09-22T10:49:41Z</time>
      </trkpt>
      <trkpt lat="44.13381" lon="5.83149">
        <ele>1123</ele>
        <time>2022-09-22T10:49:42Z</time>
      </trkpt>
      <trkpt lat="44.1338" lon="5.83149">
        <ele>1123</ele>
        <time>2022-09-22T10:49:43Z</time>
      </trkpt>
      <trkpt lat="44.13379" lon="5.83149">
        <ele>1123</ele>
        <time>2022-09-22T10:49:44Z</time>
      </trkpt>
      <trkpt lat="44.13378" lon="5.83149">
        <ele>1123</ele>
        <time>2022-09-22T10:49:45Z</time>
      </trkpt>
      <trkpt lat="44.13378" lon="5.8315">
        <ele>1123</ele>
        <time>2022-09-22T10:49:46Z</time>
      </trkpt>
      <trkpt lat="44.13377" lon="5.8315">
        <ele>1123</ele>
        <time>2022-09-22T10:49:47Z</time>
      </trkpt>
      <trkpt lat="44.13376" lon="5.8315">
        <ele>1123</ele>
        <time>2022-09-22T10:49:48Z</time>
      </trkpt>
      <trkpt lat="44.13376" lon="5.8315">
        <ele>1124</ele>
        <time>2022-09-22T10:49:49Z</time>
      </trkpt>
      <trkpt lat="44.13375" lon="5.8315">
        <ele>1124</ele>
        <time>2022-09-22T10:49:50Z</time>
      </trkpt>
      <trkpt lat="44.13374" lon="5.83151">
        <ele>1124</ele>
        <time>2022-09-22T10:49:51Z</time>
      </trkpt>
      <trkpt lat="44.13373" lon="5.83151">
        <ele>1124</ele>
        <time>2022-09-22T10:49:52Z</time>
      </trkpt>
      <trkpt lat="44.13372" lon="5.83151">
        <ele>1124</ele>
        <time>2022-09-22T10:49:53Z</time>
      </trkpt>
      <trkpt lat="44.13371" lon="5.83151">
        <ele>1124</ele>
        <time>2022-09-22T10:49:54Z</time>
      </trkpt>
      <trkpt lat="44.1337" lon="5.83151">
        <ele>1124</ele>
        <time>2022-09-22T10:49:55Z</time>
      </trkpt>
      <trkpt lat="44.1337" lon="5.83151">
        <ele>1124</ele>
        <time>2022-09-22T10:49:56Z</time>
      </trkpt>
      <trkpt lat="44.1337" lon="5.83152">
        <ele>1124</ele>
        <time>2022-09-22T10:49:57Z</time>
      </trkpt>
      <trkpt lat="44.13369" lon="5.83152">
        <ele>1124</ele>
        <time>2022-09-22T10:49:58Z</time>
      </trkpt>
      <trkpt lat="44.13369" lon="5.83152">
        <ele>1124</ele>
        <time>2022-09-22T10:49:59Z</time>
      </trkpt>
      <trkpt lat="44.13368" lon="5.83152">
        <ele>1124</ele>
        <time>2022-09-22T10:50:00Z</time>
      </trkpt>
      <trkpt lat="44.13367" lon="5.83152">
        <ele>1124</ele>
        <time>2022-09-22T10:50:01Z</time>
      </trkpt>
      <trkpt lat="44.13366" lon="5.83152">
        <ele>1124</ele>
        <time>2022-09-22T10:50:02Z</time>
      </trkpt>
      <trkpt lat="44.13364" lon="5.83152">
        <ele>1124</ele>
        <time>2022-09-22T10:50:03Z</time>
      </trkpt>
      <trkpt lat="44.13362" lon="5.83153">
        <ele>1124</ele>
        <time>2022-09-22T10:50:21Z</time>
      </trkpt>
      <trkpt lat="44.13361" lon="5.83153">
        <ele>1124</ele>
        <time>2022-09-22T10:50:22Z</time>
      </trkpt>
      <trkpt lat="44.1336" lon="5.83153">
        <ele>1124</ele>
        <time>2022-09-22T10:50:23Z</time>
      </trkpt>
      <trkpt lat="44.13357" lon="5.83155">
        <ele>1125</ele>
        <time>2022-09-22T10:51:24Z</time>
      </trkpt>
      <trkpt lat="44.13356" lon="5.83155">
        <ele>1125</ele>
        <time>2022-09-22T10:51:25Z</time>
      </trkpt>
      <trkpt lat="44.13355" lon="5.83156">
        <ele>1125</ele>
        <time>2022-09-22T10:51:26Z</time>
      </trkpt>
      <trkpt lat="44.13355" lon="5.83156">
        <ele>1125</ele>
        <time>2022-09-22T10:51:27Z</time>
      </trkpt>
      <trkpt lat="44.13354" lon="5.83155">
        <ele>1125</ele>
        <time>2022-09-22T10:51:28Z</time>
      </trkpt>
      <trkpt lat="44.13354" lon="5.83155">
        <ele>1125</ele>
        <time>2022-09-22T10:51:29Z</time>
      </trkpt>
      <trkpt lat="44.13353" lon="5.83154">
        <ele>1125</ele>
        <time>2022-09-22T10:51:30Z</time>
      </trkpt>
      <trkpt lat="44.13353" lon="5.83153">
        <ele>1125</ele>
        <time>2022-09-22T10:51:31Z</time>
      </trkpt>
      <trkpt lat="44.13352" lon="5.83152">
        <ele>1125</ele>
        <time>2022-09-22T10:51:32Z</time>
      </trkpt>
      <trkpt lat="44.13352" lon="5.8315">
        <ele>1125</ele>
        <time>2022-09-22T10:51:33Z</time>
      </trkpt>
      <trkpt lat="44.13351" lon="5.83149">
        <ele>1125</ele>
        <time>2022-09-22T10:51:34Z</time>
      </trkpt>
      <trkpt lat="44.13351" lon="5.83147">
        <ele>1125</ele>
        <time>2022-09-22T10:51:35Z</time>
      </trkpt>
      <trkpt lat="44.1335" lon="5.83145">
        <ele>1125</ele>
        <time>2022-09-22T10:51:36Z</time>
      </trkpt>
      <trkpt lat="44.1335" lon="5.83144">
        <ele>1125</ele>
        <time>2022-09-22T10:51:37Z</time>
      </trkpt>
      <trkpt lat="44.13349" lon="5.83143">
        <ele>1125</ele>
        <time>2022-09-22T10:51:38Z</time>
      </trkpt>
      <trkpt lat="44.13349" lon="5.83142">
        <ele>1125</ele>
        <time>2022-09-22T10:51:39Z</time>
      </trkpt>
      <trkpt lat="44.13348" lon="5.8314">
        <ele>1125</ele>
        <time>2022-09-22T10:51:40Z</time>
      </trkpt>
      <trkpt lat="44.13348" lon="5.83139">
        <ele>1125</ele>
        <time>2022-09-22T10:51:41Z</time>
      </trkpt>
      <trkpt lat="44.13347" lon="5.83137">
        <ele>1125</ele>
        <time>2022-09-22T10:51:42Z</time>
      </trkpt>
      <trkpt lat="44.13347" lon="5.83135">
        <ele>1125</ele>
        <time>2022-09-22T10:51:43Z</time>
      </trkpt>
      <trkpt lat="44.13347" lon="5.83134">
        <ele>1126</ele>
        <time>2022-09-22T10:51:44Z</time>
      </trkpt>
      <trkpt lat="44.13346" lon="5.83133">
        <ele>1126</ele>
        <time>2022-09-22T10:51:45Z</time>
      </trkpt>
      <trkpt lat="44.13346" lon="5.83131">
        <ele>1126</ele>
        <time>2022-09-22T10:51:46Z</time>
      </trkpt>
      <trkpt lat="44.13345" lon="5.8313">
        <ele>1126</ele>
        <time>2022-09-22T10:51:47Z</time>
      </trkpt>
      <trkpt lat="44.13345" lon="5.83129">
        <ele>1126</ele>
        <time>2022-09-22T10:51:48Z</time>
      </trkpt>
      <trkpt lat="44.13344" lon="5.83128">
        <ele>1126</ele>
        <time>2022-09-22T10:51:49Z</time>
      </trkpt>
      <trkpt lat="44.13344" lon="5.83126">
        <ele>1126</ele>
        <time>2022-09-22T10:51:50Z</time>
      </trkpt>
      <trkpt lat="44.13343" lon="5.83125">
        <ele>1126</ele>
        <time>2022-09-22T10:51:51Z</time>
      </trkpt>
      <trkpt lat="44.13343" lon="5.83124">
        <ele>1126</ele>
        <time>2022-09-22T10:51:52Z</time>
      </trkpt>
      <trkpt lat="44.13342" lon="5.83123">
        <ele>1126</ele>
        <time>2022-09-22T10:51:53Z</time>
      </trkpt>
      <trkpt lat="44.13342" lon="5.83122">
        <ele>1126</ele>
        <time>2022-09-22T10:51:54Z</time>
      </trkpt>
      <trkpt lat="44.13342" lon="5.83121">
        <ele>1126</ele>
        <time>2022-09-22T10:51:55Z</time>
      </trkpt>
      <trkpt lat="44.13341" lon="5.8312">
        <ele>1126</ele>
        <time>2022-09-22T10:51:56Z</time>
      </trkpt>
      <trkpt lat="44.13341" lon="5.83118">
        <ele>1126</ele>
        <time>2022-09-22T10:51:57Z</time>
      </trkpt>
      <trkpt lat="44.1334" lon="5.83117">
        <ele>1126</ele>
        <time>2022-09-22T10:51:58Z</time>
      </trkpt>
      <trkpt lat="44.1334" lon="5.83116">
        <ele>1126</ele>
        <time>2022-09-22T10:51:59Z</time>
      </trkpt>
      <trkpt lat="44.1334" lon="5.83114">
        <ele>1126</ele>
        <time>2022-09-22T10:52:00Z</time>
      </trkpt>
      <trkpt lat="44.1334" lon="5.83113">
        <ele>1126</ele>
        <time>2022-09-22T10:52:01Z</time>
      </trkpt>
      <trkpt lat="44.1334" lon="5.83111">
        <ele>1126</ele>
        <time>2022-09-22T10:52:02Z</time>
      </trkpt>
      <trkpt lat="44.1334" lon="5.8311">
        <ele>1126</ele>
        <time>2022-09-22T10:52:03Z</time>
      </trkpt>
      <trkpt lat="44.1334" lon="5.83108">
        <ele>1126</ele>
        <time>2022-09-22T10:52:04Z</time>
      </trkpt>
      <trkpt lat="44.1334" lon="5.83107">
        <ele>1126</ele>
        <time>2022-09-22T10:52:05Z</time>
      </trkpt>
      <trkpt lat="44.1334" lon="5.83105">
        <ele>1126</ele>
        <time>2022-09-22T10:52:06Z</time>
      </trkpt>
      <trkpt lat="44.1334" lon="5.83104">
        <ele>1126</ele>
        <time>2022-09-22T10:52:07Z</time>
      </trkpt>
      <trkpt lat="44.1334" lon="5.83102">
        <ele>1126</ele>
        <time>2022-09-22T10:52:08Z</time>
      </trkpt>
      <trkpt lat="44.1334" lon="5.83101">
        <ele>1126</ele>
        <time>2022-09-22T10:52:09Z</time>
      </trkpt>
      <trkpt lat="44.1334" lon="5.831">
        <ele>1126</ele>
        <time>2022-09-22T10:52:10Z</time>
      </trkpt>
      <trkpt lat="44.13339" lon="5.83099">
        <ele>1126</ele>
        <time>2022-09-22T10:52:11Z</time>
      </trkpt>
      <trkpt lat="44.13339" lon="5.83098">
        <ele>1126</ele>
        <time>2022-09-22T10:52:12Z</time>
      </trkpt>
      <trkpt lat="44.13339" lon="5.83096">
        <ele>1126</ele>
        <time>2022-09-22T10:52:13Z</time>
      </trkpt>
      <trkpt lat="44.13339" lon="5.83095">
        <ele>1126</ele>
        <time>2022-09-22T10:52:14Z</time>
      </trkpt>
      <trkpt lat="44.13339" lon="5.83093">
        <ele>1126</ele>
        <time>2022-09-22T10:52:15Z</time>
      </trkpt>
      <trkpt lat="44.13339" lon="5.83092">
        <ele>1126</ele>
        <time>2022-09-22T10:52:16Z</time>
      </trkpt>
      <trkpt lat="44.13339" lon="5.8309">
        <ele>1126</ele>
        <time>2022-09-22T10:52:17Z</time>
      </trkpt>
      <trkpt lat="44.13339" lon="5.83089">
        <ele>1126</ele>
        <time>2022-09-22T10:52:18Z</time>
      </trkpt>
      <trkpt lat="44.1334" lon="5.83087">
        <ele>1126</ele>
        <time>2022-09-22T10:52:19Z</time>
      </trkpt>
      <trkpt lat="44.1334" lon="5.83086">
        <ele>1126</ele>
        <time>2022-09-22T10:52:20Z</time>
      </trkpt>
      <trkpt lat="44.1334" lon="5.83085">
        <ele>1126</ele>
        <time>2022-09-22T10:52:21Z</time>
      </trkpt>
      <trkpt lat="44.1334" lon="5.83084">
        <ele>1126</ele>
        <time>2022-09-22T10:52:22Z</time>
      </trkpt>
      <trkpt lat="44.1334" lon="5.83083">
        <ele>1126</ele>
        <time>2022-09-22T10:52:23Z</time>
      </trkpt>
      <trkpt lat="44.13339" lon="5.83081">
        <ele>1126</ele>
        <time>2022-09-22T10:52:24Z</time>
      </trkpt>
      <trkpt lat="44.13339" lon="5.8308">
        <ele>1126</ele>
        <time>2022-09-22T10:52:25Z</time>
      </trkpt>
      <trkpt lat="44.13339" lon="5.83079">
        <ele>1126</ele>
        <time>2022-09-22T10:52:26Z</time>
      </trkpt>
      <trkpt lat="44.13338" lon="5.83078">
        <ele>1126</ele>
        <time>2022-09-22T10:52:27Z</time>
      </trkpt>
      <trkpt lat="44.13338" lon="5.83076">
        <ele>1126</ele>
        <time>2022-09-22T10:52:28Z</time>
      </trkpt>
      <trkpt lat="44.13338" lon="5.83075">
        <ele>1126</ele>
        <time>2022-09-22T10:52:29Z</time>
      </trkpt>
      <trkpt lat="44.13337" lon="5.83074">
        <ele>1126</ele>
        <time>2022-09-22T10:52:30Z</time>
      </trkpt>
      <trkpt lat="44.13337" lon="5.83072">
        <ele>1126</ele>
        <time>2022-09-22T10:52:31Z</time>
      </trkpt>
      <trkpt lat="44.13337" lon="5.83071">
        <ele>1126</ele>
        <time>2022-09-22T10:52:32Z</time>
      </trkpt>
      <trkpt lat="44.13337" lon="5.83069">
        <ele>1126</ele>
        <time>2022-09-22T10:52:33Z</time>
      </trkpt>
      <trkpt lat="44.13337" lon="5.83067">
        <ele>1126</ele>
        <time>2022-09-22T10:52:34Z</time>
      </trkpt>
      <trkpt lat="44.13337" lon="5.83066">
        <ele>1126</ele>
        <time>2022-09-22T10:52:35Z</time>
      </trkpt>
      <trkpt lat="44.13336" lon="5.83064">
        <ele>1126</ele>
        <time>2022-09-22T10:52:36Z</time>
      </trkpt>
      <trkpt lat="44.13336" lon="5.83062">
        <ele>1126</ele>
        <time>2022-09-22T10:52:37Z</time>
      </trkpt>
      <trkpt lat="44.13336" lon="5.83061">
        <ele>1126</ele>
        <time>2022-09-22T10:52:38Z</time>
      </trkpt>
      <trkpt lat="44.13336" lon="5.83059">
        <ele>1127</ele>
        <time>2022-09-22T10:52:39Z</time>
      </trkpt>
      <trkpt lat="44.13336" lon="5.83057">
        <ele>1127</ele>
        <time>2022-09-22T10:52:40Z</time>
      </trkpt>
      <trkpt lat="44.13336" lon="5.83055">
        <ele>1127</ele>
        <time>2022-09-22T10:52:41Z</time>
      </trkpt>
      <trkpt lat="44.13336" lon="5.83054">
        <ele>1127</ele>
        <time>2022-09-22T10:52:42Z</time>
      </trkpt>
      <trkpt lat="44.13336" lon="5.83052">
        <ele>1127</ele>
        <time>2022-09-22T10:52:43Z</time>
      </trkpt>
      <trkpt lat="44.13335" lon="5.83051">
        <ele>1127</ele>
        <time>2022-09-22T10:52:44Z</time>
      </trkpt>
      <trkpt lat="44.13335" lon="5.83049">
        <ele>1127</ele>
        <time>2022-09-22T10:52:45Z</time>
      </trkpt>
      <trkpt lat="44.13335" lon="5.83048">
        <ele>1127</ele>
        <time>2022-09-22T10:52:46Z</time>
      </trkpt>
      <trkpt lat="44.13335" lon="5.83047">
        <ele>1127</ele>
        <time>2022-09-22T10:52:47Z</time>
      </trkpt>
      <trkpt lat="44.13334" lon="5.83045">
        <ele>1127</ele>
        <time>2022-09-22T10:52:48Z</time>
      </trkpt>
      <trkpt lat="44.13334" lon="5.83044">
        <ele>1127</ele>
        <time>2022-09-22T10:52:49Z</time>
      </trkpt>
      <trkpt lat="44.13334" lon="5.83042">
        <ele>1127</ele>
        <time>2022-09-22T10:52:50Z</time>
      </trkpt>
      <trkpt lat="44.13334" lon="5.83041">
        <ele>1127</ele>
        <time>2022-09-22T10:52:51Z</time>
      </trkpt>
      <trkpt lat="44.13334" lon="5.83039">
        <ele>1127</ele>
        <time>2022-09-22T10:52:52Z</time>
      </trkpt>
      <trkpt lat="44.13334" lon="5.83038">
        <ele>1127</ele>
        <time>2022-09-22T10:52:53Z</time>
      </trkpt>
      <trkpt lat="44.13334" lon="5.83037">
        <ele>1127</ele>
        <time>2022-09-22T10:52:54Z</time>
      </trkpt>
      <trkpt lat="44.13334" lon="5.83035">
        <ele>1127</ele>
        <time>2022-09-22T10:52:55Z</time>
      </trkpt>
      <trkpt lat="44.13333" lon="5.83034">
        <ele>1127</ele>
        <time>2022-09-22T10:52:56Z</time>
      </trkpt>
      <trkpt lat="44.13333" lon="5.83033">
        <ele>1127</ele>
        <time>2022-09-22T10:52:57Z</time>
      </trkpt>
      <trkpt lat="44.13333" lon="5.83031">
        <ele>1127</ele>
        <time>2022-09-22T10:52:58Z</time>
      </trkpt>
      <trkpt lat="44.13333" lon="5.83029">
        <ele>1127</ele>
        <time>2022-09-22T10:52:59Z</time>
      </trkpt>
      <trkpt lat="44.13332" lon="5.83028">
        <ele>1127</ele>
        <time>2022-09-22T10:53:00Z</time>
      </trkpt>
      <trkpt lat="44.13332" lon="5.83026">
        <ele>1127</ele>
        <time>2022-09-22T10:53:01Z</time>
      </trkpt>
      <trkpt lat="44.13332" lon="5.83025">
        <ele>1127</ele>
        <time>2022-09-22T10:53:02Z</time>
      </trkpt>
      <trkpt lat="44.13331" lon="5.83023">
        <ele>1127</ele>
        <time>2022-09-22T10:53:03Z</time>
      </trkpt>
      <trkpt lat="44.13331" lon="5.83021">
        <ele>1127</ele>
        <time>2022-09-22T10:53:04Z</time>
      </trkpt>
      <trkpt lat="44.13331" lon="5.83019">
        <ele>1127</ele>
        <time>2022-09-22T10:53:05Z</time>
      </trkpt>
      <trkpt lat="44.1333" lon="5.83017">
        <ele>1127</ele>
        <time>2022-09-22T10:53:06Z</time>
      </trkpt>
      <trkpt lat="44.1333" lon="5.83015">
        <ele>1127</ele>
        <time>2022-09-22T10:53:07Z</time>
      </trkpt>
      <trkpt lat="44.1333" lon="5.83013">
        <ele>1127</ele>
        <time>2022-09-22T10:53:08Z</time>
      </trkpt>
      <trkpt lat="44.1333" lon="5.83011">
        <ele>1127</ele>
        <time>2022-09-22T10:53:09Z</time>
      </trkpt>
      <trkpt lat="44.13329" lon="5.83009">
        <ele>1127</ele>
        <time>2022-09-22T10:53:10Z</time>
      </trkpt>
      <trkpt lat="44.13329" lon="5.83007">
        <ele>1127</ele>
        <time>2022-09-22T10:53:11Z</time>
      </trkpt>
      <trkpt lat="44.13329" lon="5.83006">
        <ele>1127</ele>
        <time>2022-09-22T10:53:12Z</time>
      </trkpt>
      <trkpt lat="44.13328" lon="5.83004">
        <ele>1127</ele>
        <time>2022-09-22T10:53:13Z</time>
      </trkpt>
      <trkpt lat="44.13328" lon="5.83003">
        <ele>1127</ele>
        <time>2022-09-22T10:53:14Z</time>
      </trkpt>
      <trkpt lat="44.13327" lon="5.83001">
        <ele>1127</ele>
        <time>2022-09-22T10:53:15Z</time>
      </trkpt>
      <trkpt lat="44.13327" lon="5.83">
        <ele>1127</ele>
        <time>2022-09-22T10:53:16Z</time>
      </trkpt>
      <trkpt lat="44.13326" lon="5.82999">
        <ele>1127</ele>
        <time>2022-09-22T10:53:17Z</time>
      </trkpt>
      <trkpt lat="44.13326" lon="5.82998">
        <ele>1127</ele>
        <time>2022-09-22T10:53:18Z</time>
      </trkpt>
      <trkpt lat="44.13326" lon="5.82997">
        <ele>1128</ele>
        <time>2022-09-22T10:53:19Z</time>
      </trkpt>
      <trkpt lat="44.13326" lon="5.82995">
        <ele>1128</ele>
        <time>2022-09-22T10:53:20Z</time>
      </trkpt>
      <trkpt lat="44.13325" lon="5.82994">
        <ele>1128</ele>
        <time>2022-09-22T10:53:21Z</time>
      </trkpt>
      <trkpt lat="44.13325" lon="5.82993">
        <ele>1128</ele>
        <time>2022-09-22T10:53:22Z</time>
      </trkpt>
      <trkpt lat="44.13324" lon="5.82991">
        <ele>1128</ele>
        <time>2022-09-22T10:53:23Z</time>
      </trkpt>
      <trkpt lat="44.13323" lon="5.8299">
        <ele>1128</ele>
        <time>2022-09-22T10:53:24Z</time>
      </trkpt>
      <trkpt lat="44.13322" lon="5.82989">
        <ele>1128</ele>
        <time>2022-09-22T10:53:25Z</time>
      </trkpt>
      <trkpt lat="44.13321" lon="5.82987">
        <ele>1128</ele>
        <time>2022-09-22T10:53:26Z</time>
      </trkpt>
      <trkpt lat="44.1332" lon="5.82986">
        <ele>1128</ele>
        <time>2022-09-22T10:53:27Z</time>
      </trkpt>
      <trkpt lat="44.13319" lon="5.82985">
        <ele>1128</ele>
        <time>2022-09-22T10:53:28Z</time>
      </trkpt>
      <trkpt lat="44.13319" lon="5.82984">
        <ele>1128</ele>
        <time>2022-09-22T10:53:29Z</time>
      </trkpt>
      <trkpt lat="44.13318" lon="5.82983">
        <ele>1128</ele>
        <time>2022-09-22T10:53:30Z</time>
      </trkpt>
      <trkpt lat="44.13318" lon="5.82982">
        <ele>1128</ele>
        <time>2022-09-22T10:53:31Z</time>
      </trkpt>
      <trkpt lat="44.13318" lon="5.8298">
        <ele>1128</ele>
        <time>2022-09-22T10:53:32Z</time>
      </trkpt>
      <trkpt lat="44.13318" lon="5.82979">
        <ele>1128</ele>
        <time>2022-09-22T10:53:33Z</time>
      </trkpt>
      <trkpt lat="44.13318" lon="5.82977">
        <ele>1128</ele>
        <time>2022-09-22T10:53:34Z</time>
      </trkpt>
      <trkpt lat="44.13318" lon="5.82976">
        <ele>1128</ele>
        <time>2022-09-22T10:53:35Z</time>
      </trkpt>
      <trkpt lat="44.13318" lon="5.82976">
        <ele>1128</ele>
        <time>2022-09-22T10:53:36Z</time>
      </trkpt>
      <trkpt lat="44.13318" lon="5.82974">
        <ele>1128</ele>
        <time>2022-09-22T10:53:37Z</time>
      </trkpt>
      <trkpt lat="44.13318" lon="5.82973">
        <ele>1128</ele>
        <time>2022-09-22T10:53:38Z</time>
      </trkpt>
      <trkpt lat="44.13318" lon="5.82971">
        <ele>1129</ele>
        <time>2022-09-22T10:53:39Z</time>
      </trkpt>
      <trkpt lat="44.13317" lon="5.82969">
        <ele>1129</ele>
        <time>2022-09-22T10:53:40Z</time>
      </trkpt>
      <trkpt lat="44.13317" lon="5.82967">
        <ele>1129</ele>
        <time>2022-09-22T10:53:41Z</time>
      </trkpt>
      <trkpt lat="44.13317" lon="5.82965">
        <ele>1129</ele>
        <time>2022-09-22T10:53:42Z</time>
      </trkpt>
      <trkpt lat="44.13317" lon="5.82964">
        <ele>1129</ele>
        <time>2022-09-22T10:53:43Z</time>
      </trkpt>
      <trkpt lat="44.13316" lon="5.82962">
        <ele>1129</ele>
        <time>2022-09-22T10:53:44Z</time>
      </trkpt>
      <trkpt lat="44.13316" lon="5.82961">
        <ele>1129</ele>
        <time>2022-09-22T10:53:45Z</time>
      </trkpt>
      <trkpt lat="44.13316" lon="5.8296">
        <ele>1129</ele>
        <time>2022-09-22T10:53:46Z</time>
      </trkpt>
      <trkpt lat="44.13316" lon="5.82958">
        <ele>1129</ele>
        <time>2022-09-22T10:53:47Z</time>
      </trkpt>
      <trkpt lat="44.13316" lon="5.82957">
        <ele>1129</ele>
        <time>2022-09-22T10:53:48Z</time>
      </trkpt>
      <trkpt lat="44.13315" lon="5.82955">
        <ele>1129</ele>
        <time>2022-09-22T10:53:49Z</time>
      </trkpt>
      <trkpt lat="44.13315" lon="5.82954">
        <ele>1129</ele>
        <time>2022-09-22T10:53:50Z</time>
      </trkpt>
      <trkpt lat="44.13315" lon="5.82953">
        <ele>1129</ele>
        <time>2022-09-22T10:53:51Z</time>
      </trkpt>
      <trkpt lat="44.13315" lon="5.82951">
        <ele>1129</ele>
        <time>2022-09-22T10:53:52Z</time>
      </trkpt>
      <trkpt lat="44.13315" lon="5.8295">
        <ele>1129</ele>
        <time>2022-09-22T10:53:53Z</time>
      </trkpt>
      <trkpt lat="44.13315" lon="5.82949">
        <ele>1130</ele>
        <time>2022-09-22T10:53:54Z</time>
      </trkpt>
      <trkpt lat="44.13314" lon="5.82948">
        <ele>1130</ele>
        <time>2022-09-22T10:53:55Z</time>
      </trkpt>
      <trkpt lat="44.13314" lon="5.82947">
        <ele>1130</ele>
        <time>2022-09-22T10:53:56Z</time>
      </trkpt>
      <trkpt lat="44.13314" lon="5.82946">
        <ele>1130</ele>
        <time>2022-09-22T10:53:57Z</time>
      </trkpt>
      <trkpt lat="44.13313" lon="5.82945">
        <ele>1130</ele>
        <time>2022-09-22T10:53:58Z</time>
      </trkpt>
      <trkpt lat="44.13313" lon="5.82944">
        <ele>1130</ele>
        <time>2022-09-22T10:53:59Z</time>
      </trkpt>
      <trkpt lat="44.13313" lon="5.82943">
        <ele>1130</ele>
        <time>2022-09-22T10:54:00Z</time>
      </trkpt>
      <trkpt lat="44.13313" lon="5.82942">
        <ele>1130</ele>
        <time>2022-09-22T10:54:01Z</time>
      </trkpt>
      <trkpt lat="44.13313" lon="5.8294">
        <ele>1130</ele>
        <time>2022-09-22T10:54:02Z</time>
      </trkpt>
      <trkpt lat="44.13313" lon="5.82939">
        <ele>1130</ele>
        <time>2022-09-22T10:54:03Z</time>
      </trkpt>
      <trkpt lat="44.13313" lon="5.82937">
        <ele>1130</ele>
        <time>2022-09-22T10:54:04Z</time>
      </trkpt>
      <trkpt lat="44.13313" lon="5.82936">
        <ele>1130</ele>
        <time>2022-09-22T10:54:05Z</time>
      </trkpt>
      <trkpt lat="44.13313" lon="5.82934">
        <ele>1130</ele>
        <time>2022-09-22T10:54:06Z</time>
      </trkpt>
      <trkpt lat="44.13313" lon="5.82932">
        <ele>1130</ele>
        <time>2022-09-22T10:54:07Z</time>
      </trkpt>
      <trkpt lat="44.13313" lon="5.82931">
        <ele>1130</ele>
        <time>2022-09-22T10:54:08Z</time>
      </trkpt>
      <trkpt lat="44.13313" lon="5.82929">
        <ele>1130</ele>
        <time>2022-09-22T10:54:09Z</time>
      </trkpt>
      <trkpt lat="44.13313" lon="5.82927">
        <ele>1130</ele>
        <time>2022-09-22T10:54:10Z</time>
      </trkpt>
      <trkpt lat="44.13313" lon="5.82925">
        <ele>1130</ele>
        <time>2022-09-22T10:54:11Z</time>
      </trkpt>
      <trkpt lat="44.13313" lon="5.82922">
        <ele>1130</ele>
        <time>2022-09-22T10:54:12Z</time>
      </trkpt>
      <trkpt lat="44.13313" lon="5.8292">
        <ele>1130</ele>
        <time>2022-09-22T10:54:13Z</time>
      </trkpt>
      <trkpt lat="44.13313" lon="5.82918">
        <ele>1130</ele>
        <time>2022-09-22T10:54:14Z</time>
      </trkpt>
      <trkpt lat="44.13312" lon="5.82917">
        <ele>1130</ele>
        <time>2022-09-22T10:54:15Z</time>
      </trkpt>
      <trkpt lat="44.13312" lon="5.82915">
        <ele>1130</ele>
        <time>2022-09-22T10:54:16Z</time>
      </trkpt>
      <trkpt lat="44.13312" lon="5.82913">
        <ele>1130</ele>
        <time>2022-09-22T10:54:17Z</time>
      </trkpt>
      <trkpt lat="44.13312" lon="5.82912">
        <ele>1130</ele>
        <time>2022-09-22T10:54:18Z</time>
      </trkpt>
      <trkpt lat="44.13312" lon="5.8291">
        <ele>1130</ele>
        <time>2022-09-22T10:54:19Z</time>
      </trkpt>
      <trkpt lat="44.13312" lon="5.82908">
        <ele>1130</ele>
        <time>2022-09-22T10:54:20Z</time>
      </trkpt>
      <trkpt lat="44.13312" lon="5.82907">
        <ele>1130</ele>
        <time>2022-09-22T10:54:21Z</time>
      </trkpt>
      <trkpt lat="44.13312" lon="5.82905">
        <ele>1130</ele>
        <time>2022-09-22T10:54:22Z</time>
      </trkpt>
      <trkpt lat="44.13312" lon="5.82903">
        <ele>1130</ele>
        <time>2022-09-22T10:54:23Z</time>
      </trkpt>
      <trkpt lat="44.13311" lon="5.82901">
        <ele>1131</ele>
        <time>2022-09-22T10:54:24Z</time>
      </trkpt>
      <trkpt lat="44.13311" lon="5.82899">
        <ele>1131</ele>
        <time>2022-09-22T10:54:25Z</time>
      </trkpt>
      <trkpt lat="44.13311" lon="5.82897">
        <ele>1131</ele>
        <time>2022-09-22T10:54:26Z</time>
      </trkpt>
      <trkpt lat="44.1331" lon="5.82896">
        <ele>1131</ele>
        <time>2022-09-22T10:54:27Z</time>
      </trkpt>
      <trkpt lat="44.1331" lon="5.82894">
        <ele>1131</ele>
        <time>2022-09-22T10:54:28Z</time>
      </trkpt>
      <trkpt lat="44.1331" lon="5.82893">
        <ele>1131</ele>
        <time>2022-09-22T10:54:29Z</time>
      </trkpt>
      <trkpt lat="44.1331" lon="5.82891">
        <ele>1131</ele>
        <time>2022-09-22T10:54:30Z</time>
      </trkpt>
      <trkpt lat="44.13309" lon="5.8289">
        <ele>1131</ele>
        <time>2022-09-22T10:54:31Z</time>
      </trkpt>
      <trkpt lat="44.13309" lon="5.82889">
        <ele>1131</ele>
        <time>2022-09-22T10:54:32Z</time>
      </trkpt>
      <trkpt lat="44.13309" lon="5.82888">
        <ele>1131</ele>
        <time>2022-09-22T10:54:33Z</time>
      </trkpt>
      <trkpt lat="44.13308" lon="5.82887">
        <ele>1131</ele>
        <time>2022-09-22T10:54:34Z</time>
      </trkpt>
      <trkpt lat="44.13308" lon="5.82886">
        <ele>1131</ele>
        <time>2022-09-22T10:54:35Z</time>
      </trkpt>
      <trkpt lat="44.13308" lon="5.82885">
        <ele>1131</ele>
        <time>2022-09-22T10:54:36Z</time>
      </trkpt>
      <trkpt lat="44.13309" lon="5.82884">
        <ele>1131</ele>
        <time>2022-09-22T10:54:37Z</time>
      </trkpt>
      <trkpt lat="44.13309" lon="5.82882">
        <ele>1131</ele>
        <time>2022-09-22T10:54:38Z</time>
      </trkpt>
      <trkpt lat="44.13309" lon="5.82881">
        <ele>1131</ele>
        <time>2022-09-22T10:54:39Z</time>
      </trkpt>
      <trkpt lat="44.13309" lon="5.8288">
        <ele>1131</ele>
        <time>2022-09-22T10:54:40Z</time>
      </trkpt>
      <trkpt lat="44.13309" lon="5.82878">
        <ele>1131</ele>
        <time>2022-09-22T10:54:41Z</time>
      </trkpt>
      <trkpt lat="44.13309" lon="5.82877">
        <ele>1131</ele>
        <time>2022-09-22T10:54:42Z</time>
      </trkpt>
      <trkpt lat="44.13309" lon="5.82875">
        <ele>1131</ele>
        <time>2022-09-22T10:54:43Z</time>
      </trkpt>
      <trkpt lat="44.13309" lon="5.82874">
        <ele>1132</ele>
        <time>2022-09-22T10:54:44Z</time>
      </trkpt>
      <trkpt lat="44.13308" lon="5.82873">
        <ele>1132</ele>
        <time>2022-09-22T10:54:45Z</time>
      </trkpt>
      <trkpt lat="44.13308" lon="5.82871">
        <ele>1132</ele>
        <time>2022-09-22T10:54:46Z</time>
      </trkpt>
      <trkpt lat="44.13308" lon="5.8287">
        <ele>1132</ele>
        <time>2022-09-22T10:54:47Z</time>
      </trkpt>
      <trkpt lat="44.13307" lon="5.82869">
        <ele>1132</ele>
        <time>2022-09-22T10:54:48Z</time>
      </trkpt>
      <trkpt lat="44.13307" lon="5.82868">
        <ele>1132</ele>
        <time>2022-09-22T10:54:49Z</time>
      </trkpt>
      <trkpt lat="44.13307" lon="5.82866">
        <ele>1132</ele>
        <time>2022-09-22T10:54:50Z</time>
      </trkpt>
      <trkpt lat="44.13307" lon="5.82865">
        <ele>1132</ele>
        <time>2022-09-22T10:54:51Z</time>
      </trkpt>
      <trkpt lat="44.13306" lon="5.82864">
        <ele>1132</ele>
        <time>2022-09-22T10:54:52Z</time>
      </trkpt>
      <trkpt lat="44.13306" lon="5.82863">
        <ele>1132</ele>
        <time>2022-09-22T10:54:53Z</time>
      </trkpt>
      <trkpt lat="44.13306" lon="5.82861">
        <ele>1132</ele>
        <time>2022-09-22T10:54:54Z</time>
      </trkpt>
      <trkpt lat="44.13305" lon="5.8286">
        <ele>1132</ele>
        <time>2022-09-22T10:54:55Z</time>
      </trkpt>
      <trkpt lat="44.13305" lon="5.82859">
        <ele>1132</ele>
        <time>2022-09-22T10:54:56Z</time>
      </trkpt>
      <trkpt lat="44.13304" lon="5.82858">
        <ele>1132</ele>
        <time>2022-09-22T10:54:57Z</time>
      </trkpt>
      <trkpt lat="44.13304" lon="5.82856">
        <ele>1132</ele>
        <time>2022-09-22T10:54:58Z</time>
      </trkpt>
      <trkpt lat="44.13303" lon="5.82855">
        <ele>1133</ele>
        <time>2022-09-22T10:54:59Z</time>
      </trkpt>
      <trkpt lat="44.13303" lon="5.82853">
        <ele>1133</ele>
        <time>2022-09-22T10:55:00Z</time>
      </trkpt>
      <trkpt lat="44.13303" lon="5.82852">
        <ele>1133</ele>
        <time>2022-09-22T10:55:01Z</time>
      </trkpt>
      <trkpt lat="44.13303" lon="5.8285">
        <ele>1133</ele>
        <time>2022-09-22T10:55:02Z</time>
      </trkpt>
      <trkpt lat="44.13303" lon="5.82849">
        <ele>1133</ele>
        <time>2022-09-22T10:55:03Z</time>
      </trkpt>
      <trkpt lat="44.13303" lon="5.82848">
        <ele>1133</ele>
        <time>2022-09-22T10:55:04Z</time>
      </trkpt>
      <trkpt lat="44.13303" lon="5.82846">
        <ele>1133</ele>
        <time>2022-09-22T10:55:05Z</time>
      </trkpt>
      <trkpt lat="44.13303" lon="5.82844">
        <ele>1133</ele>
        <time>2022-09-22T10:55:06Z</time>
      </trkpt>
      <trkpt lat="44.13304" lon="5.82843">
        <ele>1133</ele>
        <time>2022-09-22T10:55:07Z</time>
      </trkpt>
      <trkpt lat="44.13304" lon="5.82841">
        <ele>1133</ele>
        <time>2022-09-22T10:55:08Z</time>
      </trkpt>
      <trkpt lat="44.13304" lon="5.8284">
        <ele>1134</ele>
        <time>2022-09-22T10:55:09Z</time>
      </trkpt>
      <trkpt lat="44.13305" lon="5.82838">
        <ele>1134</ele>
        <time>2022-09-22T10:55:10Z</time>
      </trkpt>
      <trkpt lat="44.13305" lon="5.82836">
        <ele>1134</ele>
        <time>2022-09-22T10:55:11Z</time>
      </trkpt>
      <trkpt lat="44.13305" lon="5.82835">
        <ele>1134</ele>
        <time>2022-09-22T10:55:12Z</time>
      </trkpt>
      <trkpt lat="44.13305" lon="5.82833">
        <ele>1134</ele>
        <time>2022-09-22T10:55:13Z</time>
      </trkpt>
      <trkpt lat="44.13306" lon="5.82831">
        <ele>1134</ele>
        <time>2022-09-22T10:55:14Z</time>
      </trkpt>
      <trkpt lat="44.13306" lon="5.8283">
        <ele>1134</ele>
        <time>2022-09-22T10:55:15Z</time>
      </trkpt>
      <trkpt lat="44.13306" lon="5.82828">
        <ele>1134</ele>
        <time>2022-09-22T10:55:16Z</time>
      </trkpt>
      <trkpt lat="44.13306" lon="5.82827">
        <ele>1134</ele>
        <time>2022-09-22T10:55:17Z</time>
      </trkpt>
      <trkpt lat="44.13307" lon="5.82826">
        <ele>1134</ele>
        <time>2022-09-22T10:55:18Z</time>
      </trkpt>
      <trkpt lat="44.13307" lon="5.82825">
        <ele>1134</ele>
        <time>2022-09-22T10:55:19Z</time>
      </trkpt>
      <trkpt lat="44.13307" lon="5.82823">
        <ele>1134</ele>
        <time>2022-09-22T10:55:20Z</time>
      </trkpt>
      <trkpt lat="44.13307" lon="5.82822">
        <ele>1134</ele>
        <time>2022-09-22T10:55:21Z</time>
      </trkpt>
      <trkpt lat="44.13308" lon="5.8282">
        <ele>1134</ele>
        <time>2022-09-22T10:55:22Z</time>
      </trkpt>
      <trkpt lat="44.13308" lon="5.82819">
        <ele>1134</ele>
        <time>2022-09-22T10:55:23Z</time>
      </trkpt>
      <trkpt lat="44.13308" lon="5.82817">
        <ele>1134</ele>
        <time>2022-09-22T10:55:24Z</time>
      </trkpt>
      <trkpt lat="44.13309" lon="5.82816">
        <ele>1134</ele>
        <time>2022-09-22T10:55:25Z</time>
      </trkpt>
      <trkpt lat="44.13309" lon="5.82814">
        <ele>1134</ele>
        <time>2022-09-22T10:55:26Z</time>
      </trkpt>
      <trkpt lat="44.13309" lon="5.82813">
        <ele>1134</ele>
        <time>2022-09-22T10:55:27Z</time>
      </trkpt>
      <trkpt lat="44.1331" lon="5.82812">
        <ele>1134</ele>
        <time>2022-09-22T10:55:28Z</time>
      </trkpt>
      <trkpt lat="44.1331" lon="5.8281">
        <ele>1135</ele>
        <time>2022-09-22T10:55:29Z</time>
      </trkpt>
      <trkpt lat="44.1331" lon="5.82809">
        <ele>1135</ele>
        <time>2022-09-22T10:55:30Z</time>
      </trkpt>
      <trkpt lat="44.1331" lon="5.82807">
        <ele>1135</ele>
        <time>2022-09-22T10:55:31Z</time>
      </trkpt>
      <trkpt lat="44.13311" lon="5.82806">
        <ele>1135</ele>
        <time>2022-09-22T10:55:32Z</time>
      </trkpt>
      <trkpt lat="44.13311" lon="5.82804">
        <ele>1135</ele>
        <time>2022-09-22T10:55:33Z</time>
      </trkpt>
      <trkpt lat="44.13311" lon="5.82803">
        <ele>1135</ele>
        <time>2022-09-22T10:55:34Z</time>
      </trkpt>
      <trkpt lat="44.13312" lon="5.82801">
        <ele>1135</ele>
        <time>2022-09-22T10:55:35Z</time>
      </trkpt>
      <trkpt lat="44.13312" lon="5.828">
        <ele>1135</ele>
        <time>2022-09-22T10:55:36Z</time>
      </trkpt>
      <trkpt lat="44.13313" lon="5.82798">
        <ele>1135</ele>
        <time>2022-09-22T10:55:37Z</time>
      </trkpt>
      <trkpt lat="44.13314" lon="5.82797">
        <ele>1135</ele>
        <time>2022-09-22T10:55:38Z</time>
      </trkpt>
      <trkpt lat="44.13315" lon="5.82796">
        <ele>1135</ele>
        <time>2022-09-22T10:55:39Z</time>
      </trkpt>
      <trkpt lat="44.13315" lon="5.82795">
        <ele>1135</ele>
        <time>2022-09-22T10:55:40Z</time>
      </trkpt>
      <trkpt lat="44.13316" lon="5.82793">
        <ele>1135</ele>
        <time>2022-09-22T10:55:41Z</time>
      </trkpt>
      <trkpt lat="44.13316" lon="5.82792">
        <ele>1135</ele>
        <time>2022-09-22T10:55:42Z</time>
      </trkpt>
      <trkpt lat="44.13317" lon="5.82791">
        <ele>1135</ele>
        <time>2022-09-22T10:55:43Z</time>
      </trkpt>
      <trkpt lat="44.13317" lon="5.82789">
        <ele>1135</ele>
        <time>2022-09-22T10:55:44Z</time>
      </trkpt>
      <trkpt lat="44.13317" lon="5.82788">
        <ele>1135</ele>
        <time>2022-09-22T10:55:45Z</time>
      </trkpt>
      <trkpt lat="44.13317" lon="5.82786">
        <ele>1135</ele>
        <time>2022-09-22T10:55:46Z</time>
      </trkpt>
      <trkpt lat="44.13317" lon="5.82784">
        <ele>1135</ele>
        <time>2022-09-22T10:55:47Z</time>
      </trkpt>
      <trkpt lat="44.13317" lon="5.82781">
        <ele>1135</ele>
        <time>2022-09-22T10:55:48Z</time>
      </trkpt>
      <trkpt lat="44.13317" lon="5.8278">
        <ele>1135</ele>
        <time>2022-09-22T10:55:49Z</time>
      </trkpt>
      <trkpt lat="44.13317" lon="5.82779">
        <ele>1135</ele>
        <time>2022-09-22T10:55:50Z</time>
      </trkpt>
      <trkpt lat="44.13317" lon="5.82777">
        <ele>1135</ele>
        <time>2022-09-22T10:55:51Z</time>
      </trkpt>
      <trkpt lat="44.13317" lon="5.82776">
        <ele>1135</ele>
        <time>2022-09-22T10:55:52Z</time>
      </trkpt>
      <trkpt lat="44.13317" lon="5.82774">
        <ele>1135</ele>
        <time>2022-09-22T10:55:53Z</time>
      </trkpt>
      <trkpt lat="44.13317" lon="5.82774">
        <ele>1136</ele>
        <time>2022-09-22T10:55:54Z</time>
      </trkpt>
      <trkpt lat="44.13317" lon="5.82773">
        <ele>1136</ele>
        <time>2022-09-22T10:55:55Z</time>
      </trkpt>
      <trkpt lat="44.13317" lon="5.82773">
        <ele>1136</ele>
        <time>2022-09-22T10:55:56Z</time>
      </trkpt>
      <trkpt lat="44.13316" lon="5.82772">
        <ele>1136</ele>
        <time>2022-09-22T10:55:57Z</time>
      </trkpt>
      <trkpt lat="44.13316" lon="5.82772">
        <ele>1136</ele>
        <time>2022-09-22T10:55:58Z</time>
      </trkpt>
      <trkpt lat="44.13316" lon="5.82771">
        <ele>1136</ele>
        <time>2022-09-22T10:55:59Z</time>
      </trkpt>
      <trkpt lat="44.13315" lon="5.8277">
        <ele>1136</ele>
        <time>2022-09-22T10:56:00Z</time>
      </trkpt>
      <trkpt lat="44.13315" lon="5.82769">
        <ele>1136</ele>
        <time>2022-09-22T10:56:01Z</time>
      </trkpt>
      <trkpt lat="44.13315" lon="5.82768">
        <ele>1136</ele>
        <time>2022-09-22T10:56:02Z</time>
      </trkpt>
      <trkpt lat="44.13315" lon="5.82767">
        <ele>1136</ele>
        <time>2022-09-22T10:56:03Z</time>
      </trkpt>
      <trkpt lat="44.13315" lon="5.82767">
        <ele>1136</ele>
        <time>2022-09-22T10:56:04Z</time>
      </trkpt>
      <trkpt lat="44.13315" lon="5.82766">
        <ele>1136</ele>
        <time>2022-09-22T10:56:05Z</time>
      </trkpt>
      <trkpt lat="44.13315" lon="5.82765">
        <ele>1136</ele>
        <time>2022-09-22T10:56:06Z</time>
      </trkpt>
      <trkpt lat="44.13315" lon="5.82763">
        <ele>1136</ele>
        <time>2022-09-22T10:56:07Z</time>
      </trkpt>
      <trkpt lat="44.13315" lon="5.82762">
        <ele>1136</ele>
        <time>2022-09-22T10:56:08Z</time>
      </trkpt>
      <trkpt lat="44.13314" lon="5.82761">
        <ele>1137</ele>
        <time>2022-09-22T10:56:19Z</time>
      </trkpt>
      <trkpt lat="44.13314" lon="5.8276">
        <ele>1137</ele>
        <time>2022-09-22T10:56:20Z</time>
      </trkpt>
      <trkpt lat="44.13313" lon="5.82759">
        <ele>1137</ele>
        <time>2022-09-22T10:56:21Z</time>
      </trkpt>
      <trkpt lat="44.13313" lon="5.82758">
        <ele>1137</ele>
        <time>2022-09-22T10:56:22Z</time>
      </trkpt>
      <trkpt lat="44.13313" lon="5.82757">
        <ele>1137</ele>
        <time>2022-09-22T10:56:23Z</time>
      </trkpt>
      <trkpt lat="44.13313" lon="5.82756">
        <ele>1137</ele>
        <time>2022-09-22T10:56:24Z</time>
      </trkpt>
      <trkpt lat="44.13312" lon="5.82755">
        <ele>1137</ele>
        <time>2022-09-22T10:56:25Z</time>
      </trkpt>
      <trkpt lat="44.13312" lon="5.82754">
        <ele>1137</ele>
        <time>2022-09-22T10:56:26Z</time>
      </trkpt>
      <trkpt lat="44.13312" lon="5.82752">
        <ele>1137</ele>
        <time>2022-09-22T10:56:27Z</time>
      </trkpt>
      <trkpt lat="44.13312" lon="5.82751">
        <ele>1137</ele>
        <time>2022-09-22T10:56:28Z</time>
      </trkpt>
      <trkpt lat="44.13312" lon="5.8275">
        <ele>1137</ele>
        <time>2022-09-22T10:56:29Z</time>
      </trkpt>
      <trkpt lat="44.13312" lon="5.82749">
        <ele>1137</ele>
        <time>2022-09-22T10:56:30Z</time>
      </trkpt>
      <trkpt lat="44.13311" lon="5.82747">
        <ele>1137</ele>
        <time>2022-09-22T10:56:31Z</time>
      </trkpt>
      <trkpt lat="44.13311" lon="5.82745">
        <ele>1137</ele>
        <time>2022-09-22T10:57:06Z</time>
      </trkpt>
      <trkpt lat="44.13311" lon="5.82744">
        <ele>1137</ele>
        <time>2022-09-22T10:57:07Z</time>
      </trkpt>
      <trkpt lat="44.13311" lon="5.82742">
        <ele>1137</ele>
        <time>2022-09-22T10:57:08Z</time>
      </trkpt>
      <trkpt lat="44.1331" lon="5.82741">
        <ele>1137</ele>
        <time>2022-09-22T10:57:09Z</time>
      </trkpt>
      <trkpt lat="44.1331" lon="5.8274">
        <ele>1137</ele>
        <time>2022-09-22T10:57:10Z</time>
      </trkpt>
      <trkpt lat="44.1331" lon="5.82738">
        <ele>1137</ele>
        <time>2022-09-22T10:57:11Z</time>
      </trkpt>
      <trkpt lat="44.1331" lon="5.82737">
        <ele>1137</ele>
        <time>2022-09-22T10:57:12Z</time>
      </trkpt>
      <trkpt lat="44.1331" lon="5.82735">
        <ele>1137</ele>
        <time>2022-09-22T10:57:13Z</time>
      </trkpt>
      <trkpt lat="44.13309" lon="5.82733">
        <ele>1137</ele>
        <time>2022-09-22T10:57:14Z</time>
      </trkpt>
      <trkpt lat="44.13309" lon="5.82731">
        <ele>1137</ele>
        <time>2022-09-22T10:57:15Z</time>
      </trkpt>
      <trkpt lat="44.13309" lon="5.8273">
        <ele>1137</ele>
        <time>2022-09-22T10:57:16Z</time>
      </trkpt>
      <trkpt lat="44.13309" lon="5.82728">
        <ele>1137</ele>
        <time>2022-09-22T10:57:17Z</time>
      </trkpt>
      <trkpt lat="44.13308" lon="5.82727">
        <ele>1137</ele>
        <time>2022-09-22T10:57:18Z</time>
      </trkpt>
      <trkpt lat="44.13308" lon="5.82726">
        <ele>1138</ele>
        <time>2022-09-22T10:57:19Z</time>
      </trkpt>
      <trkpt lat="44.13308" lon="5.82724">
        <ele>1138</ele>
        <time>2022-09-22T10:57:20Z</time>
      </trkpt>
      <trkpt lat="44.13307" lon="5.82723">
        <ele>1138</ele>
        <time>2022-09-22T10:57:21Z</time>
      </trkpt>
      <trkpt lat="44.13307" lon="5.82722">
        <ele>1138</ele>
        <time>2022-09-22T10:57:22Z</time>
      </trkpt>
      <trkpt lat="44.13307" lon="5.82721">
        <ele>1138</ele>
        <time>2022-09-22T10:57:23Z</time>
      </trkpt>
      <trkpt lat="44.13306" lon="5.8272">
        <ele>1138</ele>
        <time>2022-09-22T10:57:24Z</time>
      </trkpt>
      <trkpt lat="44.13306" lon="5.82719">
        <ele>1138</ele>
        <time>2022-09-22T10:57:25Z</time>
      </trkpt>
      <trkpt lat="44.13306" lon="5.82718">
        <ele>1138</ele>
        <time>2022-09-22T10:57:26Z</time>
      </trkpt>
      <trkpt lat="44.13305" lon="5.82717">
        <ele>1138</ele>
        <time>2022-09-22T10:57:27Z</time>
      </trkpt>
      <trkpt lat="44.13305" lon="5.82716">
        <ele>1138</ele>
        <time>2022-09-22T10:57:28Z</time>
      </trkpt>
      <trkpt lat="44.13305" lon="5.82715">
        <ele>1138</ele>
        <time>2022-09-22T10:57:29Z</time>
      </trkpt>
      <trkpt lat="44.13304" lon="5.82714">
        <ele>1138</ele>
        <time>2022-09-22T10:57:30Z</time>
      </trkpt>
      <trkpt lat="44.13304" lon="5.82712">
        <ele>1138</ele>
        <time>2022-09-22T10:57:31Z</time>
      </trkpt>
      <trkpt lat="44.13303" lon="5.82711">
        <ele>1138</ele>
        <time>2022-09-22T10:57:32Z</time>
      </trkpt>
      <trkpt lat="44.13303" lon="5.8271">
        <ele>1138</ele>
        <time>2022-09-22T10:57:33Z</time>
      </trkpt>
      <trkpt lat="44.13303" lon="5.82708">
        <ele>1139</ele>
        <time>2022-09-22T10:57:34Z</time>
      </trkpt>
      <trkpt lat="44.13303" lon="5.82707">
        <ele>1139</ele>
        <time>2022-09-22T10:57:35Z</time>
      </trkpt>
      <trkpt lat="44.13303" lon="5.82705">
        <ele>1139</ele>
        <time>2022-09-22T10:57:36Z</time>
      </trkpt>
      <trkpt lat="44.13303" lon="5.82704">
        <ele>1139</ele>
        <time>2022-09-22T10:57:37Z</time>
      </trkpt>
      <trkpt lat="44.13303" lon="5.82702">
        <ele>1139</ele>
        <time>2022-09-22T10:57:38Z</time>
      </trkpt>
      <trkpt lat="44.13303" lon="5.827">
        <ele>1139</ele>
        <time>2022-09-22T10:57:39Z</time>
      </trkpt>
      <trkpt lat="44.13302" lon="5.82699">
        <ele>1139</ele>
        <time>2022-09-22T10:57:40Z</time>
      </trkpt>
      <trkpt lat="44.13303" lon="5.82697">
        <ele>1139</ele>
        <time>2022-09-22T10:57:41Z</time>
      </trkpt>
      <trkpt lat="44.13303" lon="5.82696">
        <ele>1139</ele>
        <time>2022-09-22T10:57:42Z</time>
      </trkpt>
      <trkpt lat="44.13303" lon="5.82694">
        <ele>1139</ele>
        <time>2022-09-22T10:57:43Z</time>
      </trkpt>
      <trkpt lat="44.13303" lon="5.82692">
        <ele>1139</ele>
        <time>2022-09-22T10:57:44Z</time>
      </trkpt>
      <trkpt lat="44.13303" lon="5.8269">
        <ele>1139</ele>
        <time>2022-09-22T10:57:45Z</time>
      </trkpt>
      <trkpt lat="44.13303" lon="5.82688">
        <ele>1139</ele>
        <time>2022-09-22T10:57:46Z</time>
      </trkpt>
      <trkpt lat="44.13303" lon="5.82686">
        <ele>1139</ele>
        <time>2022-09-22T10:57:47Z</time>
      </trkpt>
      <trkpt lat="44.13303" lon="5.82684">
        <ele>1139</ele>
        <time>2022-09-22T10:57:48Z</time>
      </trkpt>
      <trkpt lat="44.13304" lon="5.82682">
        <ele>1139</ele>
        <time>2022-09-22T10:57:49Z</time>
      </trkpt>
      <trkpt lat="44.13304" lon="5.82681">
        <ele>1139</ele>
        <time>2022-09-22T10:57:50Z</time>
      </trkpt>
      <trkpt lat="44.13304" lon="5.82679">
        <ele>1139</ele>
        <time>2022-09-22T10:57:51Z</time>
      </trkpt>
      <trkpt lat="44.13304" lon="5.82678">
        <ele>1139</ele>
        <time>2022-09-22T10:57:52Z</time>
      </trkpt>
      <trkpt lat="44.13305" lon="5.82676">
        <ele>1139</ele>
        <time>2022-09-22T10:57:53Z</time>
      </trkpt>
      <trkpt lat="44.13305" lon="5.82674">
        <ele>1139</ele>
        <time>2022-09-22T10:57:54Z</time>
      </trkpt>
      <trkpt lat="44.13305" lon="5.82673">
        <ele>1139</ele>
        <time>2022-09-22T10:57:55Z</time>
      </trkpt>
      <trkpt lat="44.13305" lon="5.82671">
        <ele>1139</ele>
        <time>2022-09-22T10:57:56Z</time>
      </trkpt>
      <trkpt lat="44.13305" lon="5.82669">
        <ele>1139</ele>
        <time>2022-09-22T10:57:57Z</time>
      </trkpt>
      <trkpt lat="44.13305" lon="5.82667">
        <ele>1139</ele>
        <time>2022-09-22T10:57:58Z</time>
      </trkpt>
      <trkpt lat="44.13306" lon="5.82666">
        <ele>1139</ele>
        <time>2022-09-22T10:57:59Z</time>
      </trkpt>
      <trkpt lat="44.13306" lon="5.82665">
        <ele>1139</ele>
        <time>2022-09-22T10:58:00Z</time>
      </trkpt>
      <trkpt lat="44.13306" lon="5.82664">
        <ele>1139</ele>
        <time>2022-09-22T10:58:01Z</time>
      </trkpt>
      <trkpt lat="44.13306" lon="5.82663">
        <ele>1139</ele>
        <time>2022-09-22T10:58:02Z</time>
      </trkpt>
      <trkpt lat="44.13306" lon="5.82662">
        <ele>1139</ele>
        <time>2022-09-22T10:58:03Z</time>
      </trkpt>
      <trkpt lat="44.13307" lon="5.82661">
        <ele>1140</ele>
        <time>2022-09-22T10:58:04Z</time>
      </trkpt>
      <trkpt lat="44.13307" lon="5.8266">
        <ele>1140</ele>
        <time>2022-09-22T10:58:05Z</time>
      </trkpt>
      <trkpt lat="44.13307" lon="5.82659">
        <ele>1140</ele>
        <time>2022-09-22T10:58:06Z</time>
      </trkpt>
      <trkpt lat="44.13307" lon="5.82658">
        <ele>1140</ele>
        <time>2022-09-22T10:58:07Z</time>
      </trkpt>
      <trkpt lat="44.13307" lon="5.82656">
        <ele>1140</ele>
        <time>2022-09-22T10:58:08Z</time>
      </trkpt>
      <trkpt lat="44.13307" lon="5.82655">
        <ele>1140</ele>
        <time>2022-09-22T10:58:09Z</time>
      </trkpt>
      <trkpt lat="44.13307" lon="5.82654">
        <ele>1140</ele>
        <time>2022-09-22T10:58:10Z</time>
      </trkpt>
      <trkpt lat="44.13307" lon="5.82652">
        <ele>1140</ele>
        <time>2022-09-22T10:58:11Z</time>
      </trkpt>
      <trkpt lat="44.13307" lon="5.82651">
        <ele>1140</ele>
        <time>2022-09-22T10:58:12Z</time>
      </trkpt>
      <trkpt lat="44.13307" lon="5.82649">
        <ele>1140</ele>
        <time>2022-09-22T10:58:13Z</time>
      </trkpt>
      <trkpt lat="44.13307" lon="5.82648">
        <ele>1140</ele>
        <time>2022-09-22T10:58:14Z</time>
      </trkpt>
      <trkpt lat="44.13307" lon="5.82646">
        <ele>1140</ele>
        <time>2022-09-22T10:58:15Z</time>
      </trkpt>
      <trkpt lat="44.13307" lon="5.82645">
        <ele>1140</ele>
        <time>2022-09-22T10:58:16Z</time>
      </trkpt>
      <trkpt lat="44.13307" lon="5.82644">
        <ele>1140</ele>
        <time>2022-09-22T10:58:17Z</time>
      </trkpt>
      <trkpt lat="44.13307" lon="5.82642">
        <ele>1140</ele>
        <time>2022-09-22T10:58:18Z</time>
      </trkpt>
      <trkpt lat="44.13308" lon="5.82641">
        <ele>1140</ele>
        <time>2022-09-22T10:58:19Z</time>
      </trkpt>
      <trkpt lat="44.13308" lon="5.8264">
        <ele>1140</ele>
        <time>2022-09-22T10:58:20Z</time>
      </trkpt>
      <trkpt lat="44.13308" lon="5.82638">
        <ele>1140</ele>
        <time>2022-09-22T10:58:21Z</time>
      </trkpt>
      <trkpt lat="44.13308" lon="5.82636">
        <ele>1140</ele>
        <time>2022-09-22T10:58:22Z</time>
      </trkpt>
      <trkpt lat="44.13308" lon="5.82635">
        <ele>1140</ele>
        <time>2022-09-22T10:58:23Z</time>
      </trkpt>
      <trkpt lat="44.13308" lon="5.82633">
        <ele>1140</ele>
        <time>2022-09-22T10:58:24Z</time>
      </trkpt>
      <trkpt lat="44.13308" lon="5.82632">
        <ele>1140</ele>
        <time>2022-09-22T10:58:25Z</time>
      </trkpt>
      <trkpt lat="44.13308" lon="5.8263">
        <ele>1140</ele>
        <time>2022-09-22T10:58:26Z</time>
      </trkpt>
      <trkpt lat="44.13308" lon="5.82629">
        <ele>1140</ele>
        <time>2022-09-22T10:58:27Z</time>
      </trkpt>
      <trkpt lat="44.13309" lon="5.82627">
        <ele>1140</ele>
        <time>2022-09-22T10:58:28Z</time>
      </trkpt>
      <trkpt lat="44.13309" lon="5.82626">
        <ele>1141</ele>
        <time>2022-09-22T10:58:29Z</time>
      </trkpt>
      <trkpt lat="44.13309" lon="5.82625">
        <ele>1141</ele>
        <time>2022-09-22T10:58:30Z</time>
      </trkpt>
      <trkpt lat="44.1331" lon="5.82623">
        <ele>1141</ele>
        <time>2022-09-22T10:58:31Z</time>
      </trkpt>
      <trkpt lat="44.1331" lon="5.82622">
        <ele>1141</ele>
        <time>2022-09-22T10:58:32Z</time>
      </trkpt>
      <trkpt lat="44.13311" lon="5.8262">
        <ele>1141</ele>
        <time>2022-09-22T10:58:33Z</time>
      </trkpt>
      <trkpt lat="44.13311" lon="5.82619">
        <ele>1141</ele>
        <time>2022-09-22T10:58:34Z</time>
      </trkpt>
      <trkpt lat="44.13311" lon="5.82617">
        <ele>1141</ele>
        <time>2022-09-22T10:58:35Z</time>
      </trkpt>
      <trkpt lat="44.13312" lon="5.82616">
        <ele>1141</ele>
        <time>2022-09-22T10:58:36Z</time>
      </trkpt>
      <trkpt lat="44.13312" lon="5.82615">
        <ele>1141</ele>
        <time>2022-09-22T10:58:37Z</time>
      </trkpt>
      <trkpt lat="44.13312" lon="5.82613">
        <ele>1141</ele>
        <time>2022-09-22T10:58:38Z</time>
      </trkpt>
      <trkpt lat="44.13312" lon="5.82612">
        <ele>1141</ele>
        <time>2022-09-22T10:58:39Z</time>
      </trkpt>
      <trkpt lat="44.13313" lon="5.82611">
        <ele>1141</ele>
        <time>2022-09-22T10:58:40Z</time>
      </trkpt>
      <trkpt lat="44.13313" lon="5.8261">
        <ele>1141</ele>
        <time>2022-09-22T10:58:41Z</time>
      </trkpt>
      <trkpt lat="44.13313" lon="5.82608">
        <ele>1141</ele>
        <time>2022-09-22T10:58:42Z</time>
      </trkpt>
      <trkpt lat="44.13313" lon="5.82607">
        <ele>1141</ele>
        <time>2022-09-22T10:58:43Z</time>
      </trkpt>
      <trkpt lat="44.13313" lon="5.82605">
        <ele>1141</ele>
        <time>2022-09-22T10:58:44Z</time>
      </trkpt>
      <trkpt lat="44.13313" lon="5.82604">
        <ele>1141</ele>
        <time>2022-09-22T10:58:45Z</time>
      </trkpt>
      <trkpt lat="44.13313" lon="5.82602">
        <ele>1141</ele>
        <time>2022-09-22T10:58:46Z</time>
      </trkpt>
      <trkpt lat="44.13313" lon="5.82601">
        <ele>1141</ele>
        <time>2022-09-22T10:58:47Z</time>
      </trkpt>
      <trkpt lat="44.13313" lon="5.82599">
        <ele>1141</ele>
        <time>2022-09-22T10:58:48Z</time>
      </trkpt>
      <trkpt lat="44.13312" lon="5.82597">
        <ele>1142</ele>
        <time>2022-09-22T10:58:49Z</time>
      </trkpt>
      <trkpt lat="44.13312" lon="5.82595">
        <ele>1142</ele>
        <time>2022-09-22T10:58:50Z</time>
      </trkpt>
      <trkpt lat="44.13312" lon="5.82593">
        <ele>1142</ele>
        <time>2022-09-22T10:58:51Z</time>
      </trkpt>
      <trkpt lat="44.13311" lon="5.82591">
        <ele>1142</ele>
        <time>2022-09-22T10:58:52Z</time>
      </trkpt>
      <trkpt lat="44.13311" lon="5.8259">
        <ele>1142</ele>
        <time>2022-09-22T10:58:53Z</time>
      </trkpt>
      <trkpt lat="44.13311" lon="5.82588">
        <ele>1142</ele>
        <time>2022-09-22T10:58:54Z</time>
      </trkpt>
      <trkpt lat="44.1331" lon="5.82587">
        <ele>1142</ele>
        <time>2022-09-22T10:58:55Z</time>
      </trkpt>
      <trkpt lat="44.1331" lon="5.82586">
        <ele>1142</ele>
        <time>2022-09-22T10:58:56Z</time>
      </trkpt>
      <trkpt lat="44.1331" lon="5.82585">
        <ele>1142</ele>
        <time>2022-09-22T10:58:57Z</time>
      </trkpt>
      <trkpt lat="44.13309" lon="5.82584">
        <ele>1142</ele>
        <time>2022-09-22T10:58:58Z</time>
      </trkpt>
      <trkpt lat="44.13309" lon="5.82582">
        <ele>1142</ele>
        <time>2022-09-22T10:58:59Z</time>
      </trkpt>
      <trkpt lat="44.13309" lon="5.82581">
        <ele>1142</ele>
        <time>2022-09-22T10:59:00Z</time>
      </trkpt>
      <trkpt lat="44.13309" lon="5.8258">
        <ele>1142</ele>
        <time>2022-09-22T10:59:01Z</time>
      </trkpt>
      <trkpt lat="44.13308" lon="5.82579">
        <ele>1142</ele>
        <time>2022-09-22T10:59:02Z</time>
      </trkpt>
      <trkpt lat="44.13308" lon="5.82577">
        <ele>1142</ele>
        <time>2022-09-22T10:59:03Z</time>
      </trkpt>
      <trkpt lat="44.13308" lon="5.82576">
        <ele>1142</ele>
        <time>2022-09-22T10:59:04Z</time>
      </trkpt>
      <trkpt lat="44.13308" lon="5.82575">
        <ele>1142</ele>
        <time>2022-09-22T10:59:05Z</time>
      </trkpt>
      <trkpt lat="44.13307" lon="5.82574">
        <ele>1142</ele>
        <time>2022-09-22T10:59:06Z</time>
      </trkpt>
      <trkpt lat="44.13307" lon="5.82573">
        <ele>1142</ele>
        <time>2022-09-22T10:59:07Z</time>
      </trkpt>
      <trkpt lat="44.13307" lon="5.82572">
        <ele>1142</ele>
        <time>2022-09-22T10:59:08Z</time>
      </trkpt>
      <trkpt lat="44.13307" lon="5.8257">
        <ele>1143</ele>
        <time>2022-09-22T10:59:09Z</time>
      </trkpt>
      <trkpt lat="44.13307" lon="5.82569">
        <ele>1143</ele>
        <time>2022-09-22T10:59:10Z</time>
      </trkpt>
      <trkpt lat="44.13307" lon="5.82568">
        <ele>1143</ele>
        <time>2022-09-22T10:59:11Z</time>
      </trkpt>
      <trkpt lat="44.13306" lon="5.82566">
        <ele>1143</ele>
        <time>2022-09-22T10:59:12Z</time>
      </trkpt>
      <trkpt lat="44.13306" lon="5.82565">
        <ele>1143</ele>
        <time>2022-09-22T10:59:13Z</time>
      </trkpt>
      <trkpt lat="44.13306" lon="5.82563">
        <ele>1143</ele>
        <time>2022-09-22T10:59:14Z</time>
      </trkpt>
      <trkpt lat="44.13306" lon="5.82562">
        <ele>1143</ele>
        <time>2022-09-22T10:59:15Z</time>
      </trkpt>
      <trkpt lat="44.13306" lon="5.8256">
        <ele>1143</ele>
        <time>2022-09-22T10:59:16Z</time>
      </trkpt>
      <trkpt lat="44.13306" lon="5.82559">
        <ele>1143</ele>
        <time>2022-09-22T10:59:17Z</time>
      </trkpt>
      <trkpt lat="44.13305" lon="5.82558">
        <ele>1143</ele>
        <time>2022-09-22T10:59:18Z</time>
      </trkpt>
      <trkpt lat="44.13305" lon="5.82556">
        <ele>1143</ele>
        <time>2022-09-22T10:59:19Z</time>
      </trkpt>
      <trkpt lat="44.13305" lon="5.82555">
        <ele>1143</ele>
        <time>2022-09-22T10:59:20Z</time>
      </trkpt>
      <trkpt lat="44.13304" lon="5.82553">
        <ele>1143</ele>
        <time>2022-09-22T10:59:21Z</time>
      </trkpt>
      <trkpt lat="44.13304" lon="5.82552">
        <ele>1143</ele>
        <time>2022-09-22T10:59:22Z</time>
      </trkpt>
      <trkpt lat="44.13304" lon="5.82551">
        <ele>1143</ele>
        <time>2022-09-22T10:59:23Z</time>
      </trkpt>
      <trkpt lat="44.13304" lon="5.8255">
        <ele>1143</ele>
        <time>2022-09-22T10:59:24Z</time>
      </trkpt>
      <trkpt lat="44.13304" lon="5.82548">
        <ele>1143</ele>
        <time>2022-09-22T10:59:25Z</time>
      </trkpt>
      <trkpt lat="44.13303" lon="5.82547">
        <ele>1143</ele>
        <time>2022-09-22T10:59:26Z</time>
      </trkpt>
      <trkpt lat="44.13303" lon="5.82543">
        <ele>1145</ele>
        <time>2022-09-22T11:01:07Z</time>
      </trkpt>
      <trkpt lat="44.13302" lon="5.82541">
        <ele>1145</ele>
        <time>2022-09-22T11:01:08Z</time>
      </trkpt>
      <trkpt lat="44.13302" lon="5.8254">
        <ele>1145</ele>
        <time>2022-09-22T11:01:09Z</time>
      </trkpt>
      <trkpt lat="44.13302" lon="5.82539">
        <ele>1145</ele>
        <time>2022-09-22T11:01:10Z</time>
      </trkpt>
      <trkpt lat="44.13301" lon="5.82539">
        <ele>1145</ele>
        <time>2022-09-22T11:01:11Z</time>
      </trkpt>
      <trkpt lat="44.13301" lon="5.82539">
        <ele>1145</ele>
        <time>2022-09-22T11:01:12Z</time>
      </trkpt>
      <trkpt lat="44.133" lon="5.8254">
        <ele>1145</ele>
        <time>2022-09-22T11:01:13Z</time>
      </trkpt>
      <trkpt lat="44.13299" lon="5.8254">
        <ele>1145</ele>
        <time>2022-09-22T11:01:14Z</time>
      </trkpt>
      <trkpt lat="44.13299" lon="5.82541">
        <ele>1145</ele>
        <time>2022-09-22T11:01:15Z</time>
      </trkpt>
      <trkpt lat="44.13298" lon="5.82541">
        <ele>1145</ele>
        <time>2022-09-22T11:01:16Z</time>
      </trkpt>
      <trkpt lat="44.13298" lon="5.82542">
        <ele>1145</ele>
        <time>2022-09-22T11:01:17Z</time>
      </trkpt>
      <trkpt lat="44.13297" lon="5.82542">
        <ele>1145</ele>
        <time>2022-09-22T11:01:18Z</time>
      </trkpt>
      <trkpt lat="44.13297" lon="5.82543">
        <ele>1145</ele>
        <time>2022-09-22T11:01:19Z</time>
      </trkpt>
      <trkpt lat="44.13297" lon="5.82544">
        <ele>1144</ele>
        <time>2022-09-22T11:01:20Z</time>
      </trkpt>
      <trkpt lat="44.13297" lon="5.82545">
        <ele>1144</ele>
        <time>2022-09-22T11:01:21Z</time>
      </trkpt>
      <trkpt lat="44.13297" lon="5.82546">
        <ele>1143</ele>
        <time>2022-09-22T11:01:22Z</time>
      </trkpt>
      <trkpt lat="44.13297" lon="5.82549">
        <ele>1143</ele>
        <time>2022-09-22T11:01:28Z</time>
      </trkpt>
      <trkpt lat="44.13297" lon="5.82551">
        <ele>1143</ele>
        <time>2022-09-22T11:01:29Z</time>
      </trkpt>
      <trkpt lat="44.13297" lon="5.82552">
        <ele>1143</ele>
        <time>2022-09-22T11:01:30Z</time>
      </trkpt>
      <trkpt lat="44.13297" lon="5.82553">
        <ele>1143</ele>
        <time>2022-09-22T11:01:31Z</time>
      </trkpt>
      <trkpt lat="44.13297" lon="5.82554">
        <ele>1143</ele>
        <time>2022-09-22T11:01:32Z</time>
      </trkpt>
      <trkpt lat="44.13297" lon="5.82555">
        <ele>1143</ele>
        <time>2022-09-22T11:01:33Z</time>
      </trkpt>
      <trkpt lat="44.13296" lon="5.82556">
        <ele>1143</ele>
        <time>2022-09-22T11:01:34Z</time>
      </trkpt>
      <trkpt lat="44.13296" lon="5.82557">
        <ele>1143</ele>
        <time>2022-09-22T11:01:35Z</time>
      </trkpt>
      <trkpt lat="44.13295" lon="5.82558">
        <ele>1143</ele>
        <time>2022-09-22T11:01:36Z</time>
      </trkpt>
      <trkpt lat="44.13295" lon="5.82559">
        <ele>1143</ele>
        <time>2022-09-22T11:01:37Z</time>
      </trkpt>
      <trkpt lat="44.13295" lon="5.82559">
        <ele>1143</ele>
        <time>2022-09-22T11:01:38Z</time>
      </trkpt>
      <trkpt lat="44.13294" lon="5.8256">
        <ele>1143</ele>
        <time>2022-09-22T11:01:39Z</time>
      </trkpt>
      <trkpt lat="44.13294" lon="5.82561">
        <ele>1142</ele>
        <time>2022-09-22T11:01:40Z</time>
      </trkpt>
      <trkpt lat="44.13294" lon="5.82562">
        <ele>1142</ele>
        <time>2022-09-22T11:01:41Z</time>
      </trkpt>
      <trkpt lat="44.13294" lon="5.82562">
        <ele>1142</ele>
        <time>2022-09-22T11:01:42Z</time>
      </trkpt>
      <trkpt lat="44.13293" lon="5.82562">
        <ele>1142</ele>
        <time>2022-09-22T11:01:43Z</time>
      </trkpt>
      <trkpt lat="44.13293" lon="5.82563">
        <ele>1142</ele>
        <time>2022-09-22T11:01:44Z</time>
      </trkpt>
      <trkpt lat="44.13293" lon="5.82563">
        <ele>1142</ele>
        <time>2022-09-22T11:01:45Z</time>
      </trkpt>
      <trkpt lat="44.13293" lon="5.82564">
        <ele>1142</ele>
        <time>2022-09-22T11:01:46Z</time>
      </trkpt>
      <trkpt lat="44.13292" lon="5.82565">
        <ele>1142</ele>
        <time>2022-09-22T11:01:47Z</time>
      </trkpt>
      <trkpt lat="44.13292" lon="5.82566">
        <ele>1142</ele>
        <time>2022-09-22T11:01:48Z</time>
      </trkpt>
      <trkpt lat="44.13291" lon="5.82567">
        <ele>1142</ele>
        <time>2022-09-22T11:01:49Z</time>
      </trkpt>
      <trkpt lat="44.13291" lon="5.82568">
        <ele>1141</ele>
        <time>2022-09-22T11:01:50Z</time>
      </trkpt>
      <trkpt lat="44.1329" lon="5.82569">
        <ele>1141</ele>
        <time>2022-09-22T11:01:51Z</time>
      </trkpt>
      <trkpt lat="44.1329" lon="5.8257">
        <ele>1141</ele>
        <time>2022-09-22T11:01:52Z</time>
      </trkpt>
      <trkpt lat="44.1329" lon="5.82571">
        <ele>1141</ele>
        <time>2022-09-22T11:01:53Z</time>
      </trkpt>
      <trkpt lat="44.13289" lon="5.82572">
        <ele>1141</ele>
        <time>2022-09-22T11:01:54Z</time>
      </trkpt>
      <trkpt lat="44.13289" lon="5.82573">
        <ele>1141</ele>
        <time>2022-09-22T11:01:55Z</time>
      </trkpt>
      <trkpt lat="44.13289" lon="5.82574">
        <ele>1141</ele>
        <time>2022-09-22T11:01:56Z</time>
      </trkpt>
      <trkpt lat="44.13288" lon="5.82575">
        <ele>1141</ele>
        <time>2022-09-22T11:01:57Z</time>
      </trkpt>
      <trkpt lat="44.13288" lon="5.82576">
        <ele>1141</ele>
        <time>2022-09-22T11:01:58Z</time>
      </trkpt>
      <trkpt lat="44.13288" lon="5.82577">
        <ele>1141</ele>
        <time>2022-09-22T11:01:59Z</time>
      </trkpt>
      <trkpt lat="44.13288" lon="5.82578">
        <ele>1141</ele>
        <time>2022-09-22T11:02:00Z</time>
      </trkpt>
      <trkpt lat="44.13287" lon="5.82578">
        <ele>1141</ele>
        <time>2022-09-22T11:02:01Z</time>
      </trkpt>
      <trkpt lat="44.13287" lon="5.8258">
        <ele>1141</ele>
        <time>2022-09-22T11:02:02Z</time>
      </trkpt>
      <trkpt lat="44.13287" lon="5.82581">
        <ele>1141</ele>
        <time>2022-09-22T11:02:03Z</time>
      </trkpt>
      <trkpt lat="44.13287" lon="5.82583">
        <ele>1141</ele>
        <time>2022-09-22T11:02:04Z</time>
      </trkpt>
      <trkpt lat="44.13287" lon="5.82584">
        <ele>1140</ele>
        <time>2022-09-22T11:02:05Z</time>
      </trkpt>
      <trkpt lat="44.13287" lon="5.82585">
        <ele>1140</ele>
        <time>2022-09-22T11:02:06Z</time>
      </trkpt>
      <trkpt lat="44.13287" lon="5.82586">
        <ele>1140</ele>
        <time>2022-09-22T11:02:07Z</time>
      </trkpt>
      <trkpt lat="44.13286" lon="5.82587">
        <ele>1140</ele>
        <time>2022-09-22T11:02:08Z</time>
      </trkpt>
      <trkpt lat="44.13286" lon="5.82588">
        <ele>1140</ele>
        <time>2022-09-22T11:02:09Z</time>
      </trkpt>
      <trkpt lat="44.13286" lon="5.82589">
        <ele>1140</ele>
        <time>2022-09-22T11:02:10Z</time>
      </trkpt>
      <trkpt lat="44.13286" lon="5.8259">
        <ele>1140</ele>
        <time>2022-09-22T11:02:11Z</time>
      </trkpt>
      <trkpt lat="44.13287" lon="5.82591">
        <ele>1140</ele>
        <time>2022-09-22T11:02:12Z</time>
      </trkpt>
      <trkpt lat="44.13287" lon="5.82592">
        <ele>1140</ele>
        <time>2022-09-22T11:02:13Z</time>
      </trkpt>
      <trkpt lat="44.13287" lon="5.82594">
        <ele>1140</ele>
        <time>2022-09-22T11:02:14Z</time>
      </trkpt>
      <trkpt lat="44.13288" lon="5.82595">
        <ele>1139</ele>
        <time>2022-09-22T11:02:15Z</time>
      </trkpt>
      <trkpt lat="44.13288" lon="5.82596">
        <ele>1139</ele>
        <time>2022-09-22T11:02:16Z</time>
      </trkpt>
      <trkpt lat="44.13289" lon="5.82597">
        <ele>1139</ele>
        <time>2022-09-22T11:02:17Z</time>
      </trkpt>
      <trkpt lat="44.13289" lon="5.82599">
        <ele>1139</ele>
        <time>2022-09-22T11:02:18Z</time>
      </trkpt>
      <trkpt lat="44.13289" lon="5.826">
        <ele>1139</ele>
        <time>2022-09-22T11:02:19Z</time>
      </trkpt>
      <trkpt lat="44.13289" lon="5.82601">
        <ele>1139</ele>
        <time>2022-09-22T11:02:20Z</time>
      </trkpt>
      <trkpt lat="44.13288" lon="5.82603">
        <ele>1139</ele>
        <time>2022-09-22T11:02:21Z</time>
      </trkpt>
      <trkpt lat="44.13288" lon="5.82604">
        <ele>1139</ele>
        <time>2022-09-22T11:02:22Z</time>
      </trkpt>
      <trkpt lat="44.13288" lon="5.82605">
        <ele>1139</ele>
        <time>2022-09-22T11:02:23Z</time>
      </trkpt>
      <trkpt lat="44.13287" lon="5.82606">
        <ele>1139</ele>
        <time>2022-09-22T11:02:24Z</time>
      </trkpt>
      <trkpt lat="44.13287" lon="5.82607">
        <ele>1138</ele>
        <time>2022-09-22T11:02:25Z</time>
      </trkpt>
      <trkpt lat="44.13287" lon="5.82609">
        <ele>1138</ele>
        <time>2022-09-22T11:02:26Z</time>
      </trkpt>
      <trkpt lat="44.13286" lon="5.8261">
        <ele>1138</ele>
        <time>2022-09-22T11:02:27Z</time>
      </trkpt>
      <trkpt lat="44.13286" lon="5.8261">
        <ele>1138</ele>
        <time>2022-09-22T11:02:28Z</time>
      </trkpt>
      <trkpt lat="44.13286" lon="5.82611">
        <ele>1138</ele>
        <time>2022-09-22T11:02:29Z</time>
      </trkpt>
      <trkpt lat="44.13286" lon="5.82612">
        <ele>1138</ele>
        <time>2022-09-22T11:02:30Z</time>
      </trkpt>
      <trkpt lat="44.13285" lon="5.82613">
        <ele>1138</ele>
        <time>2022-09-22T11:02:31Z</time>
      </trkpt>
      <trkpt lat="44.13285" lon="5.82614">
        <ele>1138</ele>
        <time>2022-09-22T11:02:32Z</time>
      </trkpt>
      <trkpt lat="44.13285" lon="5.82615">
        <ele>1138</ele>
        <time>2022-09-22T11:02:33Z</time>
      </trkpt>
      <trkpt lat="44.13285" lon="5.82616">
        <ele>1138</ele>
        <time>2022-09-22T11:02:34Z</time>
      </trkpt>
      <trkpt lat="44.13285" lon="5.82616">
        <ele>1137</ele>
        <time>2022-09-22T11:02:35Z</time>
      </trkpt>
      <trkpt lat="44.13285" lon="5.82617">
        <ele>1137</ele>
        <time>2022-09-22T11:02:36Z</time>
      </trkpt>
      <trkpt lat="44.13285" lon="5.82618">
        <ele>1137</ele>
        <time>2022-09-22T11:02:37Z</time>
      </trkpt>
      <trkpt lat="44.13285" lon="5.82619">
        <ele>1137</ele>
        <time>2022-09-22T11:02:38Z</time>
      </trkpt>
      <trkpt lat="44.13285" lon="5.8262">
        <ele>1137</ele>
        <time>2022-09-22T11:02:39Z</time>
      </trkpt>
      <trkpt lat="44.13285" lon="5.82621">
        <ele>1137</ele>
        <time>2022-09-22T11:02:40Z</time>
      </trkpt>
      <trkpt lat="44.13285" lon="5.82622">
        <ele>1137</ele>
        <time>2022-09-22T11:02:41Z</time>
      </trkpt>
      <trkpt lat="44.13285" lon="5.82622">
        <ele>1137</ele>
        <time>2022-09-22T11:02:42Z</time>
      </trkpt>
      <trkpt lat="44.13285" lon="5.82623">
        <ele>1137</ele>
        <time>2022-09-22T11:02:43Z</time>
      </trkpt>
      <trkpt lat="44.13285" lon="5.82623">
        <ele>1137</ele>
        <time>2022-09-22T11:02:44Z</time>
      </trkpt>
      <trkpt lat="44.13285" lon="5.82623">
        <ele>1136</ele>
        <time>2022-09-22T11:02:45Z</time>
      </trkpt>
      <trkpt lat="44.13285" lon="5.82624">
        <ele>1136</ele>
        <time>2022-09-22T11:02:46Z</time>
      </trkpt>
      <trkpt lat="44.13284" lon="5.82625">
        <ele>1136</ele>
        <time>2022-09-22T11:02:47Z</time>
      </trkpt>
      <trkpt lat="44.13284" lon="5.82626">
        <ele>1136</ele>
        <time>2022-09-22T11:02:48Z</time>
      </trkpt>
      <trkpt lat="44.13284" lon="5.82627">
        <ele>1136</ele>
        <time>2022-09-22T11:02:49Z</time>
      </trkpt>
      <trkpt lat="44.13284" lon="5.82629">
        <ele>1135</ele>
        <time>2022-09-22T11:02:50Z</time>
      </trkpt>
      <trkpt lat="44.13283" lon="5.8263">
        <ele>1135</ele>
        <time>2022-09-22T11:02:51Z</time>
      </trkpt>
      <trkpt lat="44.13283" lon="5.82631">
        <ele>1135</ele>
        <time>2022-09-22T11:02:52Z</time>
      </trkpt>
      <trkpt lat="44.13283" lon="5.82633">
        <ele>1135</ele>
        <time>2022-09-22T11:02:53Z</time>
      </trkpt>
      <trkpt lat="44.13283" lon="5.82634">
        <ele>1135</ele>
        <time>2022-09-22T11:02:54Z</time>
      </trkpt>
      <trkpt lat="44.13282" lon="5.82636">
        <ele>1134</ele>
        <time>2022-09-22T11:02:55Z</time>
      </trkpt>
      <trkpt lat="44.13282" lon="5.82638">
        <ele>1134</ele>
        <time>2022-09-22T11:02:56Z</time>
      </trkpt>
      <trkpt lat="44.13281" lon="5.82639">
        <ele>1134</ele>
        <time>2022-09-22T11:02:57Z</time>
      </trkpt>
      <trkpt lat="44.13281" lon="5.8264">
        <ele>1134</ele>
        <time>2022-09-22T11:02:58Z</time>
      </trkpt>
      <trkpt lat="44.1328" lon="5.82642">
        <ele>1134</ele>
        <time>2022-09-22T11:02:59Z</time>
      </trkpt>
      <trkpt lat="44.13279" lon="5.82643">
        <ele>1134</ele>
        <time>2022-09-22T11:03:00Z</time>
      </trkpt>
      <trkpt lat="44.13279" lon="5.82645">
        <ele>1134</ele>
        <time>2022-09-22T11:03:01Z</time>
      </trkpt>
      <trkpt lat="44.13278" lon="5.82646">
        <ele>1134</ele>
        <time>2022-09-22T11:03:02Z</time>
      </trkpt>
      <trkpt lat="44.13277" lon="5.82647">
        <ele>1134</ele>
        <time>2022-09-22T11:03:03Z</time>
      </trkpt>
      <trkpt lat="44.13277" lon="5.82648">
        <ele>1134</ele>
        <time>2022-09-22T11:03:04Z</time>
      </trkpt>
      <trkpt lat="44.13277" lon="5.82649">
        <ele>1133</ele>
        <time>2022-09-22T11:03:05Z</time>
      </trkpt>
      <trkpt lat="44.13276" lon="5.8265">
        <ele>1133</ele>
        <time>2022-09-22T11:03:06Z</time>
      </trkpt>
      <trkpt lat="44.13276" lon="5.82651">
        <ele>1132</ele>
        <time>2022-09-22T11:03:15Z</time>
      </trkpt>
      <trkpt lat="44.13276" lon="5.82653">
        <ele>1132</ele>
        <time>2022-09-22T11:03:16Z</time>
      </trkpt>
      <trkpt lat="44.13275" lon="5.82654">
        <ele>1132</ele>
        <time>2022-09-22T11:03:17Z</time>
      </trkpt>
      <trkpt lat="44.13275" lon="5.82655">
        <ele>1132</ele>
        <time>2022-09-22T11:03:18Z</time>
      </trkpt>
      <trkpt lat="44.13275" lon="5.82656">
        <ele>1132</ele>
        <time>2022-09-22T11:03:19Z</time>
      </trkpt>
      <trkpt lat="44.13274" lon="5.82656">
        <ele>1131</ele>
        <time>2022-09-22T11:03:20Z</time>
      </trkpt>
      <trkpt lat="44.13273" lon="5.82657">
        <ele>1131</ele>
        <time>2022-09-22T11:03:21Z</time>
      </trkpt>
      <trkpt lat="44.13273" lon="5.82658">
        <ele>1131</ele>
        <time>2022-09-22T11:03:22Z</time>
      </trkpt>
      <trkpt lat="44.13272" lon="5.82658">
        <ele>1131</ele>
        <time>2022-09-22T11:03:23Z</time>
      </trkpt>
      <trkpt lat="44.13272" lon="5.82659">
        <ele>1131</ele>
        <time>2022-09-22T11:03:24Z</time>
      </trkpt>
      <trkpt lat="44.13271" lon="5.82659">
        <ele>1130</ele>
        <time>2022-09-22T11:03:25Z</time>
      </trkpt>
      <trkpt lat="44.13271" lon="5.8266">
        <ele>1130</ele>
        <time>2022-09-22T11:03:26Z</time>
      </trkpt>
      <trkpt lat="44.1327" lon="5.8266">
        <ele>1130</ele>
        <time>2022-09-22T11:03:27Z</time>
      </trkpt>
      <trkpt lat="44.1327" lon="5.82661">
        <ele>1130</ele>
        <time>2022-09-22T11:03:28Z</time>
      </trkpt>
      <trkpt lat="44.13269" lon="5.82661">
        <ele>1130</ele>
        <time>2022-09-22T11:03:29Z</time>
      </trkpt>
      <trkpt lat="44.13268" lon="5.82662">
        <ele>1130</ele>
        <time>2022-09-22T11:03:30Z</time>
      </trkpt>
      <trkpt lat="44.13267" lon="5.82663">
        <ele>1130</ele>
        <time>2022-09-22T11:03:31Z</time>
      </trkpt>
      <trkpt lat="44.13267" lon="5.82664">
        <ele>1130</ele>
        <time>2022-09-22T11:03:32Z</time>
      </trkpt>
      <trkpt lat="44.13266" lon="5.82665">
        <ele>1130</ele>
        <time>2022-09-22T11:03:33Z</time>
      </trkpt>
      <trkpt lat="44.13266" lon="5.82666">
        <ele>1130</ele>
        <time>2022-09-22T11:03:34Z</time>
      </trkpt>
      <trkpt lat="44.13266" lon="5.82666">
        <ele>1129</ele>
        <time>2022-09-22T11:03:35Z</time>
      </trkpt>
      <trkpt lat="44.13265" lon="5.82667">
        <ele>1129</ele>
        <time>2022-09-22T11:03:36Z</time>
      </trkpt>
      <trkpt lat="44.13265" lon="5.82668">
        <ele>1129</ele>
        <time>2022-09-22T11:03:37Z</time>
      </trkpt>
      <trkpt lat="44.13264" lon="5.82669">
        <ele>1129</ele>
        <time>2022-09-22T11:03:38Z</time>
      </trkpt>
      <trkpt lat="44.13264" lon="5.8267">
        <ele>1129</ele>
        <time>2022-09-22T11:03:39Z</time>
      </trkpt>
      <trkpt lat="44.13264" lon="5.8267">
        <ele>1128</ele>
        <time>2022-09-22T11:03:40Z</time>
      </trkpt>
      <trkpt lat="44.13263" lon="5.8267">
        <ele>1128</ele>
        <time>2022-09-22T11:03:41Z</time>
      </trkpt>
      <trkpt lat="44.13263" lon="5.82671">
        <ele>1128</ele>
        <time>2022-09-22T11:03:42Z</time>
      </trkpt>
      <trkpt lat="44.13262" lon="5.82671">
        <ele>1128</ele>
        <time>2022-09-22T11:03:43Z</time>
      </trkpt>
      <trkpt lat="44.13262" lon="5.82672">
        <ele>1128</ele>
        <time>2022-09-22T11:03:44Z</time>
      </trkpt>
      <trkpt lat="44.13261" lon="5.82672">
        <ele>1128</ele>
        <time>2022-09-22T11:03:45Z</time>
      </trkpt>
      <trkpt lat="44.13261" lon="5.82673">
        <ele>1128</ele>
        <time>2022-09-22T11:03:46Z</time>
      </trkpt>
      <trkpt lat="44.1326" lon="5.82673">
        <ele>1128</ele>
        <time>2022-09-22T11:03:47Z</time>
      </trkpt>
      <trkpt lat="44.13259" lon="5.82673">
        <ele>1128</ele>
        <time>2022-09-22T11:03:48Z</time>
      </trkpt>
      <trkpt lat="44.13259" lon="5.82673">
        <ele>1128</ele>
        <time>2022-09-22T11:03:49Z</time>
      </trkpt>
      <trkpt lat="44.13258" lon="5.82673">
        <ele>1127</ele>
        <time>2022-09-22T11:03:50Z</time>
      </trkpt>
      <trkpt lat="44.13258" lon="5.82673">
        <ele>1127</ele>
        <time>2022-09-22T11:03:51Z</time>
      </trkpt>
      <trkpt lat="44.13257" lon="5.82673">
        <ele>1127</ele>
        <time>2022-09-22T11:03:52Z</time>
      </trkpt>
      <trkpt lat="44.13257" lon="5.82672">
        <ele>1127</ele>
        <time>2022-09-22T11:03:53Z</time>
      </trkpt>
      <trkpt lat="44.13257" lon="5.82671">
        <ele>1127</ele>
        <time>2022-09-22T11:03:54Z</time>
      </trkpt>
      <trkpt lat="44.13257" lon="5.82671">
        <ele>1126</ele>
        <time>2022-09-22T11:03:55Z</time>
      </trkpt>
      <trkpt lat="44.13257" lon="5.82671">
        <ele>1126</ele>
        <time>2022-09-22T11:03:56Z</time>
      </trkpt>
      <trkpt lat="44.13257" lon="5.8267">
        <ele>1126</ele>
        <time>2022-09-22T11:03:57Z</time>
      </trkpt>
      <trkpt lat="44.13257" lon="5.8267">
        <ele>1126</ele>
        <time>2022-09-22T11:03:58Z</time>
      </trkpt>
      <trkpt lat="44.13257" lon="5.8267">
        <ele>1126</ele>
        <time>2022-09-22T11:03:59Z</time>
      </trkpt>
      <trkpt lat="44.13257" lon="5.82669">
        <ele>1125</ele>
        <time>2022-09-22T11:04:00Z</time>
      </trkpt>
      <trkpt lat="44.13257" lon="5.82668">
        <ele>1125</ele>
        <time>2022-09-22T11:04:01Z</time>
      </trkpt>
      <trkpt lat="44.13257" lon="5.82667">
        <ele>1125</ele>
        <time>2022-09-22T11:04:02Z</time>
      </trkpt>
      <trkpt lat="44.13257" lon="5.82666">
        <ele>1125</ele>
        <time>2022-09-22T11:04:03Z</time>
      </trkpt>
      <trkpt lat="44.13256" lon="5.82666">
        <ele>1125</ele>
        <time>2022-09-22T11:04:04Z</time>
      </trkpt>
      <trkpt lat="44.13256" lon="5.82665">
        <ele>1124</ele>
        <time>2022-09-22T11:04:05Z</time>
      </trkpt>
      <trkpt lat="44.13256" lon="5.82665">
        <ele>1124</ele>
        <time>2022-09-22T11:04:06Z</time>
      </trkpt>
      <trkpt lat="44.13255" lon="5.82665">
        <ele>1124</ele>
        <time>2022-09-22T11:04:07Z</time>
      </trkpt>
      <trkpt lat="44.13255" lon="5.82665">
        <ele>1124</ele>
        <time>2022-09-22T11:04:08Z</time>
      </trkpt>
      <trkpt lat="44.13254" lon="5.82665">
        <ele>1124</ele>
        <time>2022-09-22T11:04:09Z</time>
      </trkpt>
      <trkpt lat="44.13254" lon="5.82665">
        <ele>1123</ele>
        <time>2022-09-22T11:04:10Z</time>
      </trkpt>
      <trkpt lat="44.13253" lon="5.82666">
        <ele>1123</ele>
        <time>2022-09-22T11:04:11Z</time>
      </trkpt>
      <trkpt lat="44.13253" lon="5.82667">
        <ele>1123</ele>
        <time>2022-09-22T11:04:12Z</time>
      </trkpt>
      <trkpt lat="44.13252" lon="5.82667">
        <ele>1123</ele>
        <time>2022-09-22T11:04:13Z</time>
      </trkpt>
      <trkpt lat="44.13252" lon="5.82667">
        <ele>1123</ele>
        <time>2022-09-22T11:04:14Z</time>
      </trkpt>
      <trkpt lat="44.13251" lon="5.82667">
        <ele>1122</ele>
        <time>2022-09-22T11:04:15Z</time>
      </trkpt>
      <trkpt lat="44.13251" lon="5.82666">
        <ele>1122</ele>
        <time>2022-09-22T11:04:16Z</time>
      </trkpt>
      <trkpt lat="44.1325" lon="5.82666">
        <ele>1122</ele>
        <time>2022-09-22T11:04:17Z</time>
      </trkpt>
      <trkpt lat="44.1325" lon="5.82666">
        <ele>1122</ele>
        <time>2022-09-22T11:04:18Z</time>
      </trkpt>
      <trkpt lat="44.1325" lon="5.82666">
        <ele>1122</ele>
        <time>2022-09-22T11:04:19Z</time>
      </trkpt>
      <trkpt lat="44.13249" lon="5.82666">
        <ele>1121</ele>
        <time>2022-09-22T11:04:20Z</time>
      </trkpt>
      <trkpt lat="44.13249" lon="5.82666">
        <ele>1121</ele>
        <time>2022-09-22T11:04:21Z</time>
      </trkpt>
      <trkpt lat="44.13248" lon="5.82666">
        <ele>1121</ele>
        <time>2022-09-22T11:04:22Z</time>
      </trkpt>
      <trkpt lat="44.13247" lon="5.82666">
        <ele>1121</ele>
        <time>2022-09-22T11:04:23Z</time>
      </trkpt>
      <trkpt lat="44.13246" lon="5.82667">
        <ele>1121</ele>
        <time>2022-09-22T11:04:24Z</time>
      </trkpt>
      <trkpt lat="44.13245" lon="5.82668">
        <ele>1121</ele>
        <time>2022-09-22T11:04:25Z</time>
      </trkpt>
      <trkpt lat="44.13244" lon="5.82668">
        <ele>1121</ele>
        <time>2022-09-22T11:04:26Z</time>
      </trkpt>
      <trkpt lat="44.13243" lon="5.82668">
        <ele>1121</ele>
        <time>2022-09-22T11:04:27Z</time>
      </trkpt>
      <trkpt lat="44.13242" lon="5.82668">
        <ele>1121</ele>
        <time>2022-09-22T11:04:28Z</time>
      </trkpt>
      <trkpt lat="44.13241" lon="5.82668">
        <ele>1121</ele>
        <time>2022-09-22T11:04:29Z</time>
      </trkpt>
      <trkpt lat="44.1324" lon="5.82668">
        <ele>1120</ele>
        <time>2022-09-22T11:04:30Z</time>
      </trkpt>
      <trkpt lat="44.13239" lon="5.82668">
        <ele>1120</ele>
        <time>2022-09-22T11:04:31Z</time>
      </trkpt>
      <trkpt lat="44.13238" lon="5.82668">
        <ele>1120</ele>
        <time>2022-09-22T11:04:32Z</time>
      </trkpt>
      <trkpt lat="44.13237" lon="5.82667">
        <ele>1120</ele>
        <time>2022-09-22T11:04:33Z</time>
      </trkpt>
      <trkpt lat="44.13236" lon="5.82667">
        <ele>1120</ele>
        <time>2022-09-22T11:04:34Z</time>
      </trkpt>
      <trkpt lat="44.13235" lon="5.82667">
        <ele>1119</ele>
        <time>2022-09-22T11:04:35Z</time>
      </trkpt>
      <trkpt lat="44.13235" lon="5.82667">
        <ele>1119</ele>
        <time>2022-09-22T11:04:36Z</time>
      </trkpt>
      <trkpt lat="44.13234" lon="5.82666">
        <ele>1119</ele>
        <time>2022-09-22T11:04:37Z</time>
      </trkpt>
      <trkpt lat="44.13233" lon="5.82666">
        <ele>1119</ele>
        <time>2022-09-22T11:04:38Z</time>
      </trkpt>
      <trkpt lat="44.13233" lon="5.82667">
        <ele>1119</ele>
        <time>2022-09-22T11:04:39Z</time>
      </trkpt>
      <trkpt lat="44.13232" lon="5.82667">
        <ele>1118</ele>
        <time>2022-09-22T11:04:40Z</time>
      </trkpt>
      <trkpt lat="44.13232" lon="5.82667">
        <ele>1118</ele>
        <time>2022-09-22T11:04:41Z</time>
      </trkpt>
      <trkpt lat="44.13231" lon="5.82668">
        <ele>1118</ele>
        <time>2022-09-22T11:04:42Z</time>
      </trkpt>
      <trkpt lat="44.1323" lon="5.82668">
        <ele>1118</ele>
        <time>2022-09-22T11:04:43Z</time>
      </trkpt>
      <trkpt lat="44.13229" lon="5.82668">
        <ele>1118</ele>
        <time>2022-09-22T11:04:44Z</time>
      </trkpt>
      <trkpt lat="44.13228" lon="5.82668">
        <ele>1117</ele>
        <time>2022-09-22T11:04:45Z</time>
      </trkpt>
      <trkpt lat="44.13227" lon="5.82668">
        <ele>1117</ele>
        <time>2022-09-22T11:04:46Z</time>
      </trkpt>
      <trkpt lat="44.13226" lon="5.82668">
        <ele>1117</ele>
        <time>2022-09-22T11:04:47Z</time>
      </trkpt>
      <trkpt lat="44.13226" lon="5.82668">
        <ele>1117</ele>
        <time>2022-09-22T11:04:48Z</time>
      </trkpt>
      <trkpt lat="44.13225" lon="5.82668">
        <ele>1117</ele>
        <time>2022-09-22T11:04:49Z</time>
      </trkpt>
      <trkpt lat="44.13224" lon="5.82668">
        <ele>1116</ele>
        <time>2022-09-22T11:04:50Z</time>
      </trkpt>
      <trkpt lat="44.13223" lon="5.82668">
        <ele>1116</ele>
        <time>2022-09-22T11:04:51Z</time>
      </trkpt>
      <trkpt lat="44.13223" lon="5.82668">
        <ele>1116</ele>
        <time>2022-09-22T11:04:52Z</time>
      </trkpt>
      <trkpt lat="44.13222" lon="5.82667">
        <ele>1116</ele>
        <time>2022-09-22T11:04:53Z</time>
      </trkpt>
      <trkpt lat="44.13222" lon="5.82667">
        <ele>1116</ele>
        <time>2022-09-22T11:04:54Z</time>
      </trkpt>
      <trkpt lat="44.13221" lon="5.82667">
        <ele>1116</ele>
        <time>2022-09-22T11:04:55Z</time>
      </trkpt>
      <trkpt lat="44.13221" lon="5.82667">
        <ele>1116</ele>
        <time>2022-09-22T11:04:56Z</time>
      </trkpt>
      <trkpt lat="44.1322" lon="5.82667">
        <ele>1116</ele>
        <time>2022-09-22T11:04:57Z</time>
      </trkpt>
      <trkpt lat="44.13219" lon="5.82666">
        <ele>1115</ele>
        <time>2022-09-22T11:05:03Z</time>
      </trkpt>
      <trkpt lat="44.13218" lon="5.82666">
        <ele>1115</ele>
        <time>2022-09-22T11:05:04Z</time>
      </trkpt>
      <trkpt lat="44.13217" lon="5.82666">
        <ele>1114</ele>
        <time>2022-09-22T11:05:05Z</time>
      </trkpt>
      <trkpt lat="44.13216" lon="5.82665">
        <ele>1114</ele>
        <time>2022-09-22T11:05:06Z</time>
      </trkpt>
      <trkpt lat="44.13216" lon="5.82665">
        <ele>1114</ele>
        <time>2022-09-22T11:05:07Z</time>
      </trkpt>
      <trkpt lat="44.13215" lon="5.82664">
        <ele>1114</ele>
        <time>2022-09-22T11:05:08Z</time>
      </trkpt>
      <trkpt lat="44.13215" lon="5.82664">
        <ele>1114</ele>
        <time>2022-09-22T11:05:09Z</time>
      </trkpt>
      <trkpt lat="44.13214" lon="5.82663">
        <ele>1113</ele>
        <time>2022-09-22T11:05:10Z</time>
      </trkpt>
      <trkpt lat="44.13214" lon="5.82662">
        <ele>1113</ele>
        <time>2022-09-22T11:05:11Z</time>
      </trkpt>
      <trkpt lat="44.13214" lon="5.82662">
        <ele>1113</ele>
        <time>2022-09-22T11:05:12Z</time>
      </trkpt>
      <trkpt lat="44.13213" lon="5.82662">
        <ele>1113</ele>
        <time>2022-09-22T11:05:13Z</time>
      </trkpt>
      <trkpt lat="44.13213" lon="5.82661">
        <ele>1113</ele>
        <time>2022-09-22T11:05:14Z</time>
      </trkpt>
      <trkpt lat="44.13212" lon="5.82661">
        <ele>1112</ele>
        <time>2022-09-22T11:05:15Z</time>
      </trkpt>
      <trkpt lat="44.13211" lon="5.82661">
        <ele>1112</ele>
        <time>2022-09-22T11:05:16Z</time>
      </trkpt>
      <trkpt lat="44.13211" lon="5.8266">
        <ele>1112</ele>
        <time>2022-09-22T11:05:17Z</time>
      </trkpt>
      <trkpt lat="44.1321" lon="5.8266">
        <ele>1112</ele>
        <time>2022-09-22T11:05:18Z</time>
      </trkpt>
      <trkpt lat="44.13209" lon="5.8266">
        <ele>1112</ele>
        <time>2022-09-22T11:05:19Z</time>
      </trkpt>
      <trkpt lat="44.13208" lon="5.8266">
        <ele>1111</ele>
        <time>2022-09-22T11:05:20Z</time>
      </trkpt>
      <trkpt lat="44.13207" lon="5.8266">
        <ele>1111</ele>
        <time>2022-09-22T11:05:21Z</time>
      </trkpt>
      <trkpt lat="44.13206" lon="5.82661">
        <ele>1111</ele>
        <time>2022-09-22T11:05:22Z</time>
      </trkpt>
      <trkpt lat="44.13205" lon="5.82661">
        <ele>1111</ele>
        <time>2022-09-22T11:05:23Z</time>
      </trkpt>
      <trkpt lat="44.13204" lon="5.82661">
        <ele>1111</ele>
        <time>2022-09-22T11:05:24Z</time>
      </trkpt>
      <trkpt lat="44.13204" lon="5.82661">
        <ele>1110</ele>
        <time>2022-09-22T11:05:25Z</time>
      </trkpt>
      <trkpt lat="44.13203" lon="5.82661">
        <ele>1110</ele>
        <time>2022-09-22T11:05:26Z</time>
      </trkpt>
      <trkpt lat="44.13202" lon="5.82661">
        <ele>1110</ele>
        <time>2022-09-22T11:05:27Z</time>
      </trkpt>
      <trkpt lat="44.13201" lon="5.82661">
        <ele>1110</ele>
        <time>2022-09-22T11:05:28Z</time>
      </trkpt>
      <trkpt lat="44.132" lon="5.82661">
        <ele>1110</ele>
        <time>2022-09-22T11:05:29Z</time>
      </trkpt>
      <trkpt lat="44.13199" lon="5.8266">
        <ele>1108</ele>
        <time>2022-09-22T11:05:36Z</time>
      </trkpt>
      <trkpt lat="44.13198" lon="5.82659">
        <ele>1108</ele>
        <time>2022-09-22T11:05:37Z</time>
      </trkpt>
      <trkpt lat="44.13197" lon="5.82658">
        <ele>1108</ele>
        <time>2022-09-22T11:05:38Z</time>
      </trkpt>
      <trkpt lat="44.13196" lon="5.82658">
        <ele>1108</ele>
        <time>2022-09-22T11:05:39Z</time>
      </trkpt>
      <trkpt lat="44.13196" lon="5.82658">
        <ele>1107</ele>
        <time>2022-09-22T11:05:40Z</time>
      </trkpt>
      <trkpt lat="44.13195" lon="5.82657">
        <ele>1107</ele>
        <time>2022-09-22T11:05:41Z</time>
      </trkpt>
      <trkpt lat="44.13194" lon="5.82657">
        <ele>1107</ele>
        <time>2022-09-22T11:05:42Z</time>
      </trkpt>
      <trkpt lat="44.13193" lon="5.82657">
        <ele>1107</ele>
        <time>2022-09-22T11:05:43Z</time>
      </trkpt>
      <trkpt lat="44.13192" lon="5.82657">
        <ele>1107</ele>
        <time>2022-09-22T11:05:44Z</time>
      </trkpt>
      <trkpt lat="44.13191" lon="5.82657">
        <ele>1107</ele>
        <time>2022-09-22T11:05:45Z</time>
      </trkpt>
      <trkpt lat="44.13191" lon="5.82656">
        <ele>1107</ele>
        <time>2022-09-22T11:05:46Z</time>
      </trkpt>
      <trkpt lat="44.1319" lon="5.82656">
        <ele>1107</ele>
        <time>2022-09-22T11:05:47Z</time>
      </trkpt>
      <trkpt lat="44.13189" lon="5.82655">
        <ele>1107</ele>
        <time>2022-09-22T11:05:48Z</time>
      </trkpt>
      <trkpt lat="44.13188" lon="5.82655">
        <ele>1107</ele>
        <time>2022-09-22T11:05:49Z</time>
      </trkpt>
      <trkpt lat="44.13188" lon="5.82654">
        <ele>1106</ele>
        <time>2022-09-22T11:05:50Z</time>
      </trkpt>
      <trkpt lat="44.13187" lon="5.82653">
        <ele>1106</ele>
        <time>2022-09-22T11:05:51Z</time>
      </trkpt>
      <trkpt lat="44.13186" lon="5.82653">
        <ele>1106</ele>
        <time>2022-09-22T11:05:52Z</time>
      </trkpt>
      <trkpt lat="44.13186" lon="5.82652">
        <ele>1106</ele>
        <time>2022-09-22T11:05:53Z</time>
      </trkpt>
      <trkpt lat="44.13185" lon="5.82652">
        <ele>1106</ele>
        <time>2022-09-22T11:05:54Z</time>
      </trkpt>
      <trkpt lat="44.13184" lon="5.82651">
        <ele>1105</ele>
        <time>2022-09-22T11:05:55Z</time>
      </trkpt>
      <trkpt lat="44.13183" lon="5.82651">
        <ele>1105</ele>
        <time>2022-09-22T11:05:56Z</time>
      </trkpt>
      <trkpt lat="44.13182" lon="5.82651">
        <ele>1105</ele>
        <time>2022-09-22T11:05:57Z</time>
      </trkpt>
      <trkpt lat="44.13182" lon="5.82651">
        <ele>1105</ele>
        <time>2022-09-22T11:05:58Z</time>
      </trkpt>
      <trkpt lat="44.13181" lon="5.8265">
        <ele>1105</ele>
        <time>2022-09-22T11:05:59Z</time>
      </trkpt>
      <trkpt lat="44.13181" lon="5.8265">
        <ele>1104</ele>
        <time>2022-09-22T11:06:00Z</time>
      </trkpt>
      <trkpt lat="44.1318" lon="5.82649">
        <ele>1104</ele>
        <time>2022-09-22T11:06:01Z</time>
      </trkpt>
      <trkpt lat="44.13179" lon="5.82649">
        <ele>1104</ele>
        <time>2022-09-22T11:06:02Z</time>
      </trkpt>
      <trkpt lat="44.13179" lon="5.82648">
        <ele>1104</ele>
        <time>2022-09-22T11:06:03Z</time>
      </trkpt>
      <trkpt lat="44.13178" lon="5.82647">
        <ele>1104</ele>
        <time>2022-09-22T11:06:04Z</time>
      </trkpt>
      <trkpt lat="44.13178" lon="5.82647">
        <ele>1103</ele>
        <time>2022-09-22T11:06:05Z</time>
      </trkpt>
      <trkpt lat="44.13178" lon="5.82647">
        <ele>1103</ele>
        <time>2022-09-22T11:06:06Z</time>
      </trkpt>
      <trkpt lat="44.13178" lon="5.82647">
        <ele>1103</ele>
        <time>2022-09-22T11:06:07Z</time>
      </trkpt>
      <trkpt lat="44.13177" lon="5.82646">
        <ele>1103</ele>
        <time>2022-09-22T11:06:08Z</time>
      </trkpt>
      <trkpt lat="44.13177" lon="5.82646">
        <ele>1103</ele>
        <time>2022-09-22T11:06:09Z</time>
      </trkpt>
      <trkpt lat="44.13176" lon="5.82645">
        <ele>1102</ele>
        <time>2022-09-22T11:06:10Z</time>
      </trkpt>
      <trkpt lat="44.13176" lon="5.82645">
        <ele>1102</ele>
        <time>2022-09-22T11:06:11Z</time>
      </trkpt>
      <trkpt lat="44.13175" lon="5.82644">
        <ele>1102</ele>
        <time>2022-09-22T11:06:12Z</time>
      </trkpt>
      <trkpt lat="44.13175" lon="5.82644">
        <ele>1102</ele>
        <time>2022-09-22T11:06:13Z</time>
      </trkpt>
      <trkpt lat="44.13175" lon="5.82644">
        <ele>1102</ele>
        <time>2022-09-22T11:06:14Z</time>
      </trkpt>
      <trkpt lat="44.13174" lon="5.82643">
        <ele>1101</ele>
        <time>2022-09-22T11:06:15Z</time>
      </trkpt>
      <trkpt lat="44.13174" lon="5.82643">
        <ele>1101</ele>
        <time>2022-09-22T11:06:16Z</time>
      </trkpt>
      <trkpt lat="44.13173" lon="5.82642">
        <ele>1100</ele>
        <time>2022-09-22T11:06:17Z</time>
      </trkpt>
      <trkpt lat="44.13172" lon="5.82641">
        <ele>1100</ele>
        <time>2022-09-22T11:06:18Z</time>
      </trkpt>
      <trkpt lat="44.13171" lon="5.82641">
        <ele>1100</ele>
        <time>2022-09-22T11:06:19Z</time>
      </trkpt>
      <trkpt lat="44.13171" lon="5.8264">
        <ele>1099</ele>
        <time>2022-09-22T11:06:20Z</time>
      </trkpt>
      <trkpt lat="44.13171" lon="5.8264">
        <ele>1099</ele>
        <time>2022-09-22T11:06:21Z</time>
      </trkpt>
      <trkpt lat="44.1317" lon="5.8264">
        <ele>1099</ele>
        <time>2022-09-22T11:06:22Z</time>
      </trkpt>
      <trkpt lat="44.1317" lon="5.8264">
        <ele>1099</ele>
        <time>2022-09-22T11:06:23Z</time>
      </trkpt>
      <trkpt lat="44.13169" lon="5.8264">
        <ele>1099</ele>
        <time>2022-09-22T11:06:24Z</time>
      </trkpt>
      <trkpt lat="44.13168" lon="5.82639">
        <ele>1098</ele>
        <time>2022-09-22T11:06:25Z</time>
      </trkpt>
      <trkpt lat="44.13168" lon="5.82639">
        <ele>1098</ele>
        <time>2022-09-22T11:06:26Z</time>
      </trkpt>
      <trkpt lat="44.13167" lon="5.82639">
        <ele>1098</ele>
        <time>2022-09-22T11:06:27Z</time>
      </trkpt>
      <trkpt lat="44.13166" lon="5.82639">
        <ele>1098</ele>
        <time>2022-09-22T11:06:28Z</time>
      </trkpt>
      <trkpt lat="44.13165" lon="5.82639">
        <ele>1098</ele>
        <time>2022-09-22T11:06:29Z</time>
      </trkpt>
      <trkpt lat="44.13164" lon="5.82639">
        <ele>1097</ele>
        <time>2022-09-22T11:06:30Z</time>
      </trkpt>
      <trkpt lat="44.13163" lon="5.82639">
        <ele>1097</ele>
        <time>2022-09-22T11:06:31Z</time>
      </trkpt>
      <trkpt lat="44.13162" lon="5.82639">
        <ele>1097</ele>
        <time>2022-09-22T11:06:32Z</time>
      </trkpt>
      <trkpt lat="44.13162" lon="5.82638">
        <ele>1097</ele>
        <time>2022-09-22T11:06:33Z</time>
      </trkpt>
      <trkpt lat="44.13161" lon="5.82638">
        <ele>1097</ele>
        <time>2022-09-22T11:06:34Z</time>
      </trkpt>
      <trkpt lat="44.1316" lon="5.82638">
        <ele>1096</ele>
        <time>2022-09-22T11:06:35Z</time>
      </trkpt>
      <trkpt lat="44.13159" lon="5.82638">
        <ele>1096</ele>
        <time>2022-09-22T11:06:36Z</time>
      </trkpt>
      <trkpt lat="44.13159" lon="5.82638">
        <ele>1096</ele>
        <time>2022-09-22T11:06:37Z</time>
      </trkpt>
      <trkpt lat="44.13158" lon="5.82638">
        <ele>1096</ele>
        <time>2022-09-22T11:06:38Z</time>
      </trkpt>
      <trkpt lat="44.13157" lon="5.82638">
        <ele>1096</ele>
        <time>2022-09-22T11:06:39Z</time>
      </trkpt>
      <trkpt lat="44.13157" lon="5.82638">
        <ele>1095</ele>
        <time>2022-09-22T11:06:40Z</time>
      </trkpt>
      <trkpt lat="44.13156" lon="5.82638">
        <ele>1095</ele>
        <time>2022-09-22T11:06:41Z</time>
      </trkpt>
      <trkpt lat="44.13156" lon="5.82638">
        <ele>1095</ele>
        <time>2022-09-22T11:06:42Z</time>
      </trkpt>
      <trkpt lat="44.13155" lon="5.82638">
        <ele>1095</ele>
        <time>2022-09-22T11:06:43Z</time>
      </trkpt>
      <trkpt lat="44.13154" lon="5.82639">
        <ele>1095</ele>
        <time>2022-09-22T11:06:44Z</time>
      </trkpt>
      <trkpt lat="44.13153" lon="5.82639">
        <ele>1094</ele>
        <time>2022-09-22T11:06:45Z</time>
      </trkpt>
      <trkpt lat="44.13152" lon="5.82639">
        <ele>1094</ele>
        <time>2022-09-22T11:06:46Z</time>
      </trkpt>
      <trkpt lat="44.13152" lon="5.82639">
        <ele>1094</ele>
        <time>2022-09-22T11:06:47Z</time>
      </trkpt>
      <trkpt lat="44.13151" lon="5.82639">
        <ele>1094</ele>
        <time>2022-09-22T11:06:48Z</time>
      </trkpt>
      <trkpt lat="44.13151" lon="5.82639">
        <ele>1094</ele>
        <time>2022-09-22T11:06:49Z</time>
      </trkpt>
      <trkpt lat="44.1315" lon="5.82639">
        <ele>1094</ele>
        <time>2022-09-22T11:06:50Z</time>
      </trkpt>
      <trkpt lat="44.13149" lon="5.8264">
        <ele>1094</ele>
        <time>2022-09-22T11:06:51Z</time>
      </trkpt>
      <trkpt lat="44.13148" lon="5.8264">
        <ele>1094</ele>
        <time>2022-09-22T11:06:52Z</time>
      </trkpt>
      <trkpt lat="44.13148" lon="5.8264">
        <ele>1094</ele>
        <time>2022-09-22T11:06:53Z</time>
      </trkpt>
      <trkpt lat="44.13147" lon="5.8264">
        <ele>1094</ele>
        <time>2022-09-22T11:06:54Z</time>
      </trkpt>
      <trkpt lat="44.13147" lon="5.82641">
        <ele>1093</ele>
        <time>2022-09-22T11:06:55Z</time>
      </trkpt>
      <trkpt lat="44.13146" lon="5.82641">
        <ele>1093</ele>
        <time>2022-09-22T11:06:56Z</time>
      </trkpt>
      <trkpt lat="44.13145" lon="5.82642">
        <ele>1093</ele>
        <time>2022-09-22T11:06:57Z</time>
      </trkpt>
      <trkpt lat="44.13145" lon="5.82642">
        <ele>1093</ele>
        <time>2022-09-22T11:06:58Z</time>
      </trkpt>
      <trkpt lat="44.13144" lon="5.82642">
        <ele>1093</ele>
        <time>2022-09-22T11:06:59Z</time>
      </trkpt>
      <trkpt lat="44.13143" lon="5.82643">
        <ele>1092</ele>
        <time>2022-09-22T11:07:00Z</time>
      </trkpt>
      <trkpt lat="44.13142" lon="5.82643">
        <ele>1092</ele>
        <time>2022-09-22T11:07:01Z</time>
      </trkpt>
      <trkpt lat="44.13142" lon="5.82643">
        <ele>1092</ele>
        <time>2022-09-22T11:07:02Z</time>
      </trkpt>
      <trkpt lat="44.13141" lon="5.82643">
        <ele>1092</ele>
        <time>2022-09-22T11:07:03Z</time>
      </trkpt>
      <trkpt lat="44.1314" lon="5.82643">
        <ele>1092</ele>
        <time>2022-09-22T11:07:04Z</time>
      </trkpt>
      <trkpt lat="44.13139" lon="5.82643">
        <ele>1091</ele>
        <time>2022-09-22T11:07:05Z</time>
      </trkpt>
      <trkpt lat="44.13139" lon="5.82643">
        <ele>1091</ele>
        <time>2022-09-22T11:07:06Z</time>
      </trkpt>
      <trkpt lat="44.13138" lon="5.82643">
        <ele>1091</ele>
        <time>2022-09-22T11:07:07Z</time>
      </trkpt>
      <trkpt lat="44.13138" lon="5.82644">
        <ele>1091</ele>
        <time>2022-09-22T11:07:08Z</time>
      </trkpt>
      <trkpt lat="44.13137" lon="5.82644">
        <ele>1091</ele>
        <time>2022-09-22T11:07:09Z</time>
      </trkpt>
      <trkpt lat="44.13137" lon="5.82645">
        <ele>1090</ele>
        <time>2022-09-22T11:07:10Z</time>
      </trkpt>
      <trkpt lat="44.13136" lon="5.82646">
        <ele>1090</ele>
        <time>2022-09-22T11:07:11Z</time>
      </trkpt>
      <trkpt lat="44.13136" lon="5.82646">
        <ele>1090</ele>
        <time>2022-09-22T11:07:12Z</time>
      </trkpt>
      <trkpt lat="44.13135" lon="5.82646">
        <ele>1090</ele>
        <time>2022-09-22T11:07:13Z</time>
      </trkpt>
      <trkpt lat="44.13135" lon="5.82647">
        <ele>1090</ele>
        <time>2022-09-22T11:07:14Z</time>
      </trkpt>
      <trkpt lat="44.13135" lon="5.82647">
        <ele>1090</ele>
        <time>2022-09-22T11:07:15Z</time>
      </trkpt>
      <trkpt lat="44.13134" lon="5.82647">
        <ele>1090</ele>
        <time>2022-09-22T11:07:16Z</time>
      </trkpt>
      <trkpt lat="44.13134" lon="5.82648">
        <ele>1090</ele>
        <time>2022-09-22T11:07:17Z</time>
      </trkpt>
      <trkpt lat="44.13133" lon="5.82649">
        <ele>1090</ele>
        <time>2022-09-22T11:07:18Z</time>
      </trkpt>
      <trkpt lat="44.13133" lon="5.82649">
        <ele>1090</ele>
        <time>2022-09-22T11:07:19Z</time>
      </trkpt>
      <trkpt lat="44.13132" lon="5.82649">
        <ele>1089</ele>
        <time>2022-09-22T11:07:20Z</time>
      </trkpt>
      <trkpt lat="44.13132" lon="5.82649">
        <ele>1089</ele>
        <time>2022-09-22T11:07:21Z</time>
      </trkpt>
      <trkpt lat="44.13132" lon="5.8265">
        <ele>1089</ele>
        <time>2022-09-22T11:07:22Z</time>
      </trkpt>
      <trkpt lat="44.13132" lon="5.8265">
        <ele>1089</ele>
        <time>2022-09-22T11:07:23Z</time>
      </trkpt>
      <trkpt lat="44.13132" lon="5.8265">
        <ele>1089</ele>
        <time>2022-09-22T11:07:24Z</time>
      </trkpt>
      <trkpt lat="44.13131" lon="5.8265">
        <ele>1088</ele>
        <time>2022-09-22T11:07:25Z</time>
      </trkpt>
      <trkpt lat="44.13131" lon="5.8265">
        <ele>1088</ele>
        <time>2022-09-22T11:07:26Z</time>
      </trkpt>
      <trkpt lat="44.1313" lon="5.8265">
        <ele>1088</ele>
        <time>2022-09-22T11:07:27Z</time>
      </trkpt>
      <trkpt lat="44.13126" lon="5.8265">
        <ele>1083</ele>
        <time>2022-09-22T11:07:55Z</time>
      </trkpt>
      <trkpt lat="44.13124" lon="5.82651">
        <ele>1083</ele>
        <time>2022-09-22T11:07:56Z</time>
      </trkpt>
      <trkpt lat="44.13121" lon="5.82651">
        <ele>1083</ele>
        <time>2022-09-22T11:07:57Z</time>
      </trkpt>
      <trkpt lat="44.1312" lon="5.82652">
        <ele>1083</ele>
        <time>2022-09-22T11:07:58Z</time>
      </trkpt>
      <trkpt lat="44.13119" lon="5.82652">
        <ele>1083</ele>
        <time>2022-09-22T11:07:59Z</time>
      </trkpt>
      <trkpt lat="44.13119" lon="5.82652">
        <ele>1082</ele>
        <time>2022-09-22T11:08:00Z</time>
      </trkpt>
      <trkpt lat="44.13118" lon="5.82652">
        <ele>1082</ele>
        <time>2022-09-22T11:08:01Z</time>
      </trkpt>
      <trkpt lat="44.13118" lon="5.82652">
        <ele>1082</ele>
        <time>2022-09-22T11:08:02Z</time>
      </trkpt>
      <trkpt lat="44.13118" lon="5.82653">
        <ele>1082</ele>
        <time>2022-09-22T11:08:03Z</time>
      </trkpt>
      <trkpt lat="44.13118" lon="5.82653">
        <ele>1082</ele>
        <time>2022-09-22T11:08:04Z</time>
      </trkpt>
      <trkpt lat="44.13117" lon="5.82653">
        <ele>1081</ele>
        <time>2022-09-22T11:08:05Z</time>
      </trkpt>
      <trkpt lat="44.13116" lon="5.82654">
        <ele>1081</ele>
        <time>2022-09-22T11:08:06Z</time>
      </trkpt>
      <trkpt lat="44.13115" lon="5.82654">
        <ele>1081</ele>
        <time>2022-09-22T11:08:07Z</time>
      </trkpt>
      <trkpt lat="44.13115" lon="5.82655">
        <ele>1081</ele>
        <time>2022-09-22T11:08:08Z</time>
      </trkpt>
      <trkpt lat="44.13114" lon="5.82655">
        <ele>1081</ele>
        <time>2022-09-22T11:08:09Z</time>
      </trkpt>
      <trkpt lat="44.13113" lon="5.82655">
        <ele>1080</ele>
        <time>2022-09-22T11:08:10Z</time>
      </trkpt>
      <trkpt lat="44.13113" lon="5.82656">
        <ele>1080</ele>
        <time>2022-09-22T11:08:11Z</time>
      </trkpt>
      <trkpt lat="44.13113" lon="5.82656">
        <ele>1080</ele>
        <time>2022-09-22T11:08:12Z</time>
      </trkpt>
      <trkpt lat="44.13112" lon="5.82656">
        <ele>1080</ele>
        <time>2022-09-22T11:08:13Z</time>
      </trkpt>
      <trkpt lat="44.13112" lon="5.82656">
        <ele>1080</ele>
        <time>2022-09-22T11:08:14Z</time>
      </trkpt>
      <trkpt lat="44.13112" lon="5.82656">
        <ele>1079</ele>
        <time>2022-09-22T11:08:15Z</time>
      </trkpt>
      <trkpt lat="44.13111" lon="5.82657">
        <ele>1079</ele>
        <time>2022-09-22T11:08:16Z</time>
      </trkpt>
      <trkpt lat="44.1311" lon="5.82657">
        <ele>1079</ele>
        <time>2022-09-22T11:08:17Z</time>
      </trkpt>
      <trkpt lat="44.13109" lon="5.82657">
        <ele>1079</ele>
        <time>2022-09-22T11:08:18Z</time>
      </trkpt>
      <trkpt lat="44.13108" lon="5.82657">
        <ele>1079</ele>
        <time>2022-09-22T11:08:19Z</time>
      </trkpt>
      <trkpt lat="44.13108" lon="5.82658">
        <ele>1078</ele>
        <time>2022-09-22T11:08:20Z</time>
      </trkpt>
      <trkpt lat="44.13107" lon="5.82658">
        <ele>1078</ele>
        <time>2022-09-22T11:08:21Z</time>
      </trkpt>
      <trkpt lat="44.13106" lon="5.82658">
        <ele>1078</ele>
        <time>2022-09-22T11:08:22Z</time>
      </trkpt>
      <trkpt lat="44.13106" lon="5.82659">
        <ele>1078</ele>
        <time>2022-09-22T11:08:23Z</time>
      </trkpt>
      <trkpt lat="44.13105" lon="5.82659">
        <ele>1078</ele>
        <time>2022-09-22T11:08:24Z</time>
      </trkpt>
      <trkpt lat="44.13104" lon="5.82659">
        <ele>1077</ele>
        <time>2022-09-22T11:08:25Z</time>
      </trkpt>
      <trkpt lat="44.13104" lon="5.8266">
        <ele>1077</ele>
        <time>2022-09-22T11:08:26Z</time>
      </trkpt>
      <trkpt lat="44.13103" lon="5.8266">
        <ele>1077</ele>
        <time>2022-09-22T11:08:27Z</time>
      </trkpt>
      <trkpt lat="44.13102" lon="5.82661">
        <ele>1076</ele>
        <time>2022-09-22T11:08:35Z</time>
      </trkpt>
      <trkpt lat="44.13101" lon="5.82662">
        <ele>1076</ele>
        <time>2022-09-22T11:08:36Z</time>
      </trkpt>
      <trkpt lat="44.13099" lon="5.82663">
        <ele>1076</ele>
        <time>2022-09-22T11:08:37Z</time>
      </trkpt>
      <trkpt lat="44.13098" lon="5.82664">
        <ele>1076</ele>
        <time>2022-09-22T11:08:38Z</time>
      </trkpt>
      <trkpt lat="44.13098" lon="5.82664">
        <ele>1076</ele>
        <time>2022-09-22T11:08:39Z</time>
      </trkpt>
      <trkpt lat="44.13097" lon="5.82664">
        <ele>1075</ele>
        <time>2022-09-22T11:08:40Z</time>
      </trkpt>
      <trkpt lat="44.13097" lon="5.82664">
        <ele>1075</ele>
        <time>2022-09-22T11:08:41Z</time>
      </trkpt>
      <trkpt lat="44.13096" lon="5.82664">
        <ele>1075</ele>
        <time>2022-09-22T11:08:42Z</time>
      </trkpt>
      <trkpt lat="44.13096" lon="5.82665">
        <ele>1075</ele>
        <time>2022-09-22T11:08:43Z</time>
      </trkpt>
      <trkpt lat="44.13095" lon="5.82665">
        <ele>1075</ele>
        <time>2022-09-22T11:08:44Z</time>
      </trkpt>
      <trkpt lat="44.13092" lon="5.82666">
        <ele>1072</ele>
        <time>2022-09-22T11:08:58Z</time>
      </trkpt>
      <trkpt lat="44.13091" lon="5.82667">
        <ele>1072</ele>
        <time>2022-09-22T11:08:59Z</time>
      </trkpt>
      <trkpt lat="44.1309" lon="5.82667">
        <ele>1071</ele>
        <time>2022-09-22T11:09:00Z</time>
      </trkpt>
      <trkpt lat="44.13089" lon="5.82668">
        <ele>1071</ele>
        <time>2022-09-22T11:09:01Z</time>
      </trkpt>
      <trkpt lat="44.13088" lon="5.82669">
        <ele>1071</ele>
        <time>2022-09-22T11:09:02Z</time>
      </trkpt>
      <trkpt lat="44.13087" lon="5.82669">
        <ele>1071</ele>
        <time>2022-09-22T11:09:03Z</time>
      </trkpt>
      <trkpt lat="44.13087" lon="5.8267">
        <ele>1071</ele>
        <time>2022-09-22T11:09:04Z</time>
      </trkpt>
      <trkpt lat="44.13086" lon="5.8267">
        <ele>1070</ele>
        <time>2022-09-22T11:09:05Z</time>
      </trkpt>
      <trkpt lat="44.13086" lon="5.8267">
        <ele>1070</ele>
        <time>2022-09-22T11:09:06Z</time>
      </trkpt>
      <trkpt lat="44.13085" lon="5.8267">
        <ele>1070</ele>
        <time>2022-09-22T11:09:07Z</time>
      </trkpt>
      <trkpt lat="44.13085" lon="5.82671">
        <ele>1070</ele>
        <time>2022-09-22T11:09:08Z</time>
      </trkpt>
      <trkpt lat="44.13085" lon="5.82671">
        <ele>1070</ele>
        <time>2022-09-22T11:09:09Z</time>
      </trkpt>
      <trkpt lat="44.13084" lon="5.82671">
        <ele>1069</ele>
        <time>2022-09-22T11:09:10Z</time>
      </trkpt>
      <trkpt lat="44.13083" lon="5.82672">
        <ele>1069</ele>
        <time>2022-09-22T11:09:11Z</time>
      </trkpt>
      <trkpt lat="44.13082" lon="5.82672">
        <ele>1069</ele>
        <time>2022-09-22T11:09:12Z</time>
      </trkpt>
      <trkpt lat="44.13081" lon="5.82672">
        <ele>1069</ele>
        <time>2022-09-22T11:09:13Z</time>
      </trkpt>
      <trkpt lat="44.13079" lon="5.82674">
        <ele>1067</ele>
        <time>2022-09-22T11:09:20Z</time>
      </trkpt>
      <trkpt lat="44.13078" lon="5.82674">
        <ele>1067</ele>
        <time>2022-09-22T11:09:21Z</time>
      </trkpt>
      <trkpt lat="44.13077" lon="5.82675">
        <ele>1067</ele>
        <time>2022-09-22T11:09:22Z</time>
      </trkpt>
      <trkpt lat="44.13077" lon="5.82676">
        <ele>1067</ele>
        <time>2022-09-22T11:09:23Z</time>
      </trkpt>
      <trkpt lat="44.13076" lon="5.82677">
        <ele>1067</ele>
        <time>2022-09-22T11:09:24Z</time>
      </trkpt>
      <trkpt lat="44.13075" lon="5.82679">
        <ele>1065</ele>
        <time>2022-09-22T11:09:32Z</time>
      </trkpt>
      <trkpt lat="44.13074" lon="5.8268">
        <ele>1065</ele>
        <time>2022-09-22T11:09:33Z</time>
      </trkpt>
      <trkpt lat="44.13073" lon="5.82681">
        <ele>1065</ele>
        <time>2022-09-22T11:09:34Z</time>
      </trkpt>
      <trkpt lat="44.13072" lon="5.82681">
        <ele>1064</ele>
        <time>2022-09-22T11:09:35Z</time>
      </trkpt>
      <trkpt lat="44.13071" lon="5.82682">
        <ele>1064</ele>
        <time>2022-09-22T11:09:36Z</time>
      </trkpt>
      <trkpt lat="44.13071" lon="5.82682">
        <ele>1064</ele>
        <time>2022-09-22T11:09:37Z</time>
      </trkpt>
      <trkpt lat="44.1307" lon="5.82683">
        <ele>1064</ele>
        <time>2022-09-22T11:09:38Z</time>
      </trkpt>
      <trkpt lat="44.1307" lon="5.82684">
        <ele>1064</ele>
        <time>2022-09-22T11:09:39Z</time>
      </trkpt>
      <trkpt lat="44.13069" lon="5.82685">
        <ele>1063</ele>
        <time>2022-09-22T11:09:40Z</time>
      </trkpt>
      <trkpt lat="44.13068" lon="5.82685">
        <ele>1063</ele>
        <time>2022-09-22T11:09:41Z</time>
      </trkpt>
      <trkpt lat="44.13068" lon="5.82686">
        <ele>1063</ele>
        <time>2022-09-22T11:09:42Z</time>
      </trkpt>
      <trkpt lat="44.13067" lon="5.82686">
        <ele>1063</ele>
        <time>2022-09-22T11:09:43Z</time>
      </trkpt>
      <trkpt lat="44.13067" lon="5.82686">
        <ele>1063</ele>
        <time>2022-09-22T11:09:44Z</time>
      </trkpt>
      <trkpt lat="44.13066" lon="5.82687">
        <ele>1063</ele>
        <time>2022-09-22T11:09:45Z</time>
      </trkpt>
      <trkpt lat="44.13065" lon="5.82688">
        <ele>1063</ele>
        <time>2022-09-22T11:09:46Z</time>
      </trkpt>
      <trkpt lat="44.13064" lon="5.82688">
        <ele>1063</ele>
        <time>2022-09-22T11:09:47Z</time>
      </trkpt>
      <trkpt lat="44.13063" lon="5.82689">
        <ele>1063</ele>
        <time>2022-09-22T11:09:48Z</time>
      </trkpt>
      <trkpt lat="44.13062" lon="5.82689">
        <ele>1063</ele>
        <time>2022-09-22T11:09:49Z</time>
      </trkpt>
      <trkpt lat="44.13061" lon="5.82689">
        <ele>1062</ele>
        <time>2022-09-22T11:09:50Z</time>
      </trkpt>
      <trkpt lat="44.1306" lon="5.82688">
        <ele>1062</ele>
        <time>2022-09-22T11:09:51Z</time>
      </trkpt>
      <trkpt lat="44.13059" lon="5.82687">
        <ele>1062</ele>
        <time>2022-09-22T11:09:52Z</time>
      </trkpt>
      <trkpt lat="44.13059" lon="5.82686">
        <ele>1062</ele>
        <time>2022-09-22T11:09:53Z</time>
      </trkpt>
      <trkpt lat="44.13058" lon="5.82685">
        <ele>1062</ele>
        <time>2022-09-22T11:09:54Z</time>
      </trkpt>
      <trkpt lat="44.13057" lon="5.82684">
        <ele>1061</ele>
        <time>2022-09-22T11:09:55Z</time>
      </trkpt>
      <trkpt lat="44.13057" lon="5.82683">
        <ele>1061</ele>
        <time>2022-09-22T11:09:56Z</time>
      </trkpt>
      <trkpt lat="44.13056" lon="5.82682">
        <ele>1061</ele>
        <time>2022-09-22T11:09:57Z</time>
      </trkpt>
      <trkpt lat="44.13055" lon="5.82682">
        <ele>1061</ele>
        <time>2022-09-22T11:09:58Z</time>
      </trkpt>
      <trkpt lat="44.13055" lon="5.82681">
        <ele>1061</ele>
        <time>2022-09-22T11:09:59Z</time>
      </trkpt>
      <trkpt lat="44.13054" lon="5.82681">
        <ele>1060</ele>
        <time>2022-09-22T11:10:00Z</time>
      </trkpt>
      <trkpt lat="44.13054" lon="5.8268">
        <ele>1060</ele>
        <time>2022-09-22T11:10:01Z</time>
      </trkpt>
      <trkpt lat="44.13053" lon="5.8268">
        <ele>1060</ele>
        <time>2022-09-22T11:10:02Z</time>
      </trkpt>
      <trkpt lat="44.13053" lon="5.8268">
        <ele>1060</ele>
        <time>2022-09-22T11:10:03Z</time>
      </trkpt>
      <trkpt lat="44.13053" lon="5.8268">
        <ele>1060</ele>
        <time>2022-09-22T11:10:04Z</time>
      </trkpt>
      <trkpt lat="44.13052" lon="5.8268">
        <ele>1059</ele>
        <time>2022-09-22T11:10:05Z</time>
      </trkpt>
      <trkpt lat="44.13051" lon="5.8268">
        <ele>1059</ele>
        <time>2022-09-22T11:10:06Z</time>
      </trkpt>
      <trkpt lat="44.13051" lon="5.8268">
        <ele>1059</ele>
        <time>2022-09-22T11:10:07Z</time>
      </trkpt>
      <trkpt lat="44.1305" lon="5.82681">
        <ele>1059</ele>
        <time>2022-09-22T11:10:08Z</time>
      </trkpt>
      <trkpt lat="44.13049" lon="5.82681">
        <ele>1059</ele>
        <time>2022-09-22T11:10:09Z</time>
      </trkpt>
      <trkpt lat="44.13048" lon="5.82681">
        <ele>1058</ele>
        <time>2022-09-22T11:10:10Z</time>
      </trkpt>
      <trkpt lat="44.13046" lon="5.8268">
        <ele>1056</ele>
        <time>2022-09-22T11:10:16Z</time>
      </trkpt>
      <trkpt lat="44.13045" lon="5.82679">
        <ele>1056</ele>
        <time>2022-09-22T11:10:17Z</time>
      </trkpt>
      <trkpt lat="44.13044" lon="5.82679">
        <ele>1056</ele>
        <time>2022-09-22T11:10:18Z</time>
      </trkpt>
      <trkpt lat="44.13042" lon="5.82679">
        <ele>1055</ele>
        <time>2022-09-22T11:10:26Z</time>
      </trkpt>
      <trkpt lat="44.13042" lon="5.82679">
        <ele>1055</ele>
        <time>2022-09-22T11:10:27Z</time>
      </trkpt>
      <trkpt lat="44.13041" lon="5.8268">
        <ele>1055</ele>
        <time>2022-09-22T11:10:28Z</time>
      </trkpt>
      <trkpt lat="44.13041" lon="5.8268">
        <ele>1055</ele>
        <time>2022-09-22T11:10:29Z</time>
      </trkpt>
      <trkpt lat="44.13041" lon="5.82681">
        <ele>1054</ele>
        <time>2022-09-22T11:10:30Z</time>
      </trkpt>
      <trkpt lat="44.13041" lon="5.82681">
        <ele>1054</ele>
        <time>2022-09-22T11:10:31Z</time>
      </trkpt>
      <trkpt lat="44.1304" lon="5.82682">
        <ele>1054</ele>
        <time>2022-09-22T11:10:32Z</time>
      </trkpt>
      <trkpt lat="44.1304" lon="5.82682">
        <ele>1054</ele>
        <time>2022-09-22T11:10:33Z</time>
      </trkpt>
      <trkpt lat="44.1304" lon="5.82683">
        <ele>1054</ele>
        <time>2022-09-22T11:10:34Z</time>
      </trkpt>
      <trkpt lat="44.1304" lon="5.82684">
        <ele>1054</ele>
        <time>2022-09-22T11:10:35Z</time>
      </trkpt>
      <trkpt lat="44.1304" lon="5.82684">
        <ele>1054</ele>
        <time>2022-09-22T11:10:36Z</time>
      </trkpt>
      <trkpt lat="44.13039" lon="5.82684">
        <ele>1054</ele>
        <time>2022-09-22T11:10:37Z</time>
      </trkpt>
      <trkpt lat="44.13039" lon="5.82685">
        <ele>1054</ele>
        <time>2022-09-22T11:10:38Z</time>
      </trkpt>
      <trkpt lat="44.13039" lon="5.82686">
        <ele>1054</ele>
        <time>2022-09-22T11:10:39Z</time>
      </trkpt>
      <trkpt lat="44.13039" lon="5.82687">
        <ele>1053</ele>
        <time>2022-09-22T11:10:40Z</time>
      </trkpt>
      <trkpt lat="44.13039" lon="5.82688">
        <ele>1053</ele>
        <time>2022-09-22T11:10:41Z</time>
      </trkpt>
      <trkpt lat="44.13039" lon="5.82689">
        <ele>1053</ele>
        <time>2022-09-22T11:10:42Z</time>
      </trkpt>
      <trkpt lat="44.1304" lon="5.8269">
        <ele>1053</ele>
        <time>2022-09-22T11:10:43Z</time>
      </trkpt>
      <trkpt lat="44.13039" lon="5.82691">
        <ele>1053</ele>
        <time>2022-09-22T11:10:44Z</time>
      </trkpt>
      <trkpt lat="44.13039" lon="5.82692">
        <ele>1053</ele>
        <time>2022-09-22T11:10:45Z</time>
      </trkpt>
      <trkpt lat="44.13039" lon="5.82694">
        <ele>1053</ele>
        <time>2022-09-22T11:10:46Z</time>
      </trkpt>
      <trkpt lat="44.13039" lon="5.82695">
        <ele>1053</ele>
        <time>2022-09-22T11:10:47Z</time>
      </trkpt>
      <trkpt lat="44.13039" lon="5.82696">
        <ele>1053</ele>
        <time>2022-09-22T11:10:48Z</time>
      </trkpt>
      <trkpt lat="44.13039" lon="5.82697">
        <ele>1053</ele>
        <time>2022-09-22T11:10:49Z</time>
      </trkpt>
      <trkpt lat="44.13039" lon="5.82698">
        <ele>1052</ele>
        <time>2022-09-22T11:10:50Z</time>
      </trkpt>
      <trkpt lat="44.13039" lon="5.82699">
        <ele>1052</ele>
        <time>2022-09-22T11:10:51Z</time>
      </trkpt>
      <trkpt lat="44.13038" lon="5.82701">
        <ele>1052</ele>
        <time>2022-09-22T11:10:52Z</time>
      </trkpt>
      <trkpt lat="44.13038" lon="5.82702">
        <ele>1052</ele>
        <time>2022-09-22T11:10:53Z</time>
      </trkpt>
      <trkpt lat="44.13038" lon="5.82703">
        <ele>1052</ele>
        <time>2022-09-22T11:10:54Z</time>
      </trkpt>
      <trkpt lat="44.13038" lon="5.82704">
        <ele>1052</ele>
        <time>2022-09-22T11:10:55Z</time>
      </trkpt>
      <trkpt lat="44.13037" lon="5.82706">
        <ele>1052</ele>
        <time>2022-09-22T11:10:56Z</time>
      </trkpt>
      <trkpt lat="44.13037" lon="5.82707">
        <ele>1052</ele>
        <time>2022-09-22T11:10:57Z</time>
      </trkpt>
      <trkpt lat="44.13037" lon="5.82708">
        <ele>1052</ele>
        <time>2022-09-22T11:10:58Z</time>
      </trkpt>
      <trkpt lat="44.13037" lon="5.8271">
        <ele>1052</ele>
        <time>2022-09-22T11:10:59Z</time>
      </trkpt>
      <trkpt lat="44.13037" lon="5.82711">
        <ele>1052</ele>
        <time>2022-09-22T11:11:00Z</time>
      </trkpt>
      <trkpt lat="44.13037" lon="5.82713">
        <ele>1052</ele>
        <time>2022-09-22T11:11:01Z</time>
      </trkpt>
      <trkpt lat="44.13037" lon="5.82714">
        <ele>1052</ele>
        <time>2022-09-22T11:11:02Z</time>
      </trkpt>
      <trkpt lat="44.13036" lon="5.82715">
        <ele>1052</ele>
        <time>2022-09-22T11:11:03Z</time>
      </trkpt>
      <trkpt lat="44.13036" lon="5.82717">
        <ele>1052</ele>
        <time>2022-09-22T11:11:04Z</time>
      </trkpt>
      <trkpt lat="44.13036" lon="5.82718">
        <ele>1051</ele>
        <time>2022-09-22T11:11:05Z</time>
      </trkpt>
      <trkpt lat="44.13035" lon="5.82719">
        <ele>1051</ele>
        <time>2022-09-22T11:11:06Z</time>
      </trkpt>
      <trkpt lat="44.13035" lon="5.8272">
        <ele>1051</ele>
        <time>2022-09-22T11:11:07Z</time>
      </trkpt>
      <trkpt lat="44.13035" lon="5.82721">
        <ele>1051</ele>
        <time>2022-09-22T11:11:08Z</time>
      </trkpt>
      <trkpt lat="44.13035" lon="5.82722">
        <ele>1051</ele>
        <time>2022-09-22T11:11:09Z</time>
      </trkpt>
      <trkpt lat="44.13034" lon="5.82722">
        <ele>1051</ele>
        <time>2022-09-22T11:11:10Z</time>
      </trkpt>
      <trkpt lat="44.13034" lon="5.82723">
        <ele>1051</ele>
        <time>2022-09-22T11:11:11Z</time>
      </trkpt>
      <trkpt lat="44.13034" lon="5.82724">
        <ele>1051</ele>
        <time>2022-09-22T11:11:12Z</time>
      </trkpt>
      <trkpt lat="44.13033" lon="5.82725">
        <ele>1051</ele>
        <time>2022-09-22T11:11:13Z</time>
      </trkpt>
      <trkpt lat="44.13033" lon="5.82726">
        <ele>1051</ele>
        <time>2022-09-22T11:11:14Z</time>
      </trkpt>
      <trkpt lat="44.13033" lon="5.82727">
        <ele>1051</ele>
        <time>2022-09-22T11:11:15Z</time>
      </trkpt>
      <trkpt lat="44.13032" lon="5.82728">
        <ele>1051</ele>
        <time>2022-09-22T11:11:16Z</time>
      </trkpt>
      <trkpt lat="44.13032" lon="5.82729">
        <ele>1051</ele>
        <time>2022-09-22T11:11:17Z</time>
      </trkpt>
      <trkpt lat="44.13032" lon="5.8273">
        <ele>1051</ele>
        <time>2022-09-22T11:11:18Z</time>
      </trkpt>
      <trkpt lat="44.13031" lon="5.82732">
        <ele>1051</ele>
        <time>2022-09-22T11:11:19Z</time>
      </trkpt>
      <trkpt lat="44.13031" lon="5.82733">
        <ele>1051</ele>
        <time>2022-09-22T11:11:20Z</time>
      </trkpt>
      <trkpt lat="44.13031" lon="5.82734">
        <ele>1051</ele>
        <time>2022-09-22T11:11:21Z</time>
      </trkpt>
      <trkpt lat="44.13031" lon="5.82736">
        <ele>1051</ele>
        <time>2022-09-22T11:11:22Z</time>
      </trkpt>
      <trkpt lat="44.13031" lon="5.82737">
        <ele>1051</ele>
        <time>2022-09-22T11:11:23Z</time>
      </trkpt>
      <trkpt lat="44.13031" lon="5.82738">
        <ele>1051</ele>
        <time>2022-09-22T11:11:24Z</time>
      </trkpt>
      <trkpt lat="44.13031" lon="5.82739">
        <ele>1051</ele>
        <time>2022-09-22T11:11:25Z</time>
      </trkpt>
      <trkpt lat="44.13031" lon="5.82741">
        <ele>1051</ele>
        <time>2022-09-22T11:11:26Z</time>
      </trkpt>
      <trkpt lat="44.13032" lon="5.82742">
        <ele>1051</ele>
        <time>2022-09-22T11:11:27Z</time>
      </trkpt>
      <trkpt lat="44.13032" lon="5.82743">
        <ele>1051</ele>
        <time>2022-09-22T11:11:28Z</time>
      </trkpt>
      <trkpt lat="44.13032" lon="5.82745">
        <ele>1051</ele>
        <time>2022-09-22T11:11:29Z</time>
      </trkpt>
      <trkpt lat="44.13033" lon="5.82746">
        <ele>1050</ele>
        <time>2022-09-22T11:11:30Z</time>
      </trkpt>
      <trkpt lat="44.13033" lon="5.82748">
        <ele>1050</ele>
        <time>2022-09-22T11:11:31Z</time>
      </trkpt>
      <trkpt lat="44.13033" lon="5.82749">
        <ele>1050</ele>
        <time>2022-09-22T11:11:32Z</time>
      </trkpt>
      <trkpt lat="44.13033" lon="5.82751">
        <ele>1050</ele>
        <time>2022-09-22T11:11:33Z</time>
      </trkpt>
      <trkpt lat="44.13033" lon="5.82752">
        <ele>1050</ele>
        <time>2022-09-22T11:11:34Z</time>
      </trkpt>
      <trkpt lat="44.13033" lon="5.82753">
        <ele>1050</ele>
        <time>2022-09-22T11:11:35Z</time>
      </trkpt>
      <trkpt lat="44.13033" lon="5.82754">
        <ele>1050</ele>
        <time>2022-09-22T11:11:36Z</time>
      </trkpt>
      <trkpt lat="44.13033" lon="5.82755">
        <ele>1050</ele>
        <time>2022-09-22T11:11:37Z</time>
      </trkpt>
      <trkpt lat="44.13033" lon="5.82756">
        <ele>1050</ele>
        <time>2022-09-22T11:11:38Z</time>
      </trkpt>
      <trkpt lat="44.13033" lon="5.82757">
        <ele>1050</ele>
        <time>2022-09-22T11:11:39Z</time>
      </trkpt>
      <trkpt lat="44.13032" lon="5.82759">
        <ele>1050</ele>
        <time>2022-09-22T11:11:40Z</time>
      </trkpt>
      <trkpt lat="44.13032" lon="5.8276">
        <ele>1050</ele>
        <time>2022-09-22T11:11:41Z</time>
      </trkpt>
      <trkpt lat="44.13032" lon="5.82761">
        <ele>1050</ele>
        <time>2022-09-22T11:11:42Z</time>
      </trkpt>
      <trkpt lat="44.13032" lon="5.82763">
        <ele>1050</ele>
        <time>2022-09-22T11:11:43Z</time>
      </trkpt>
      <trkpt lat="44.13032" lon="5.82764">
        <ele>1050</ele>
        <time>2022-09-22T11:11:44Z</time>
      </trkpt>
      <trkpt lat="44.13032" lon="5.82765">
        <ele>1050</ele>
        <time>2022-09-22T11:11:45Z</time>
      </trkpt>
      <trkpt lat="44.13032" lon="5.82767">
        <ele>1050</ele>
        <time>2022-09-22T11:11:46Z</time>
      </trkpt>
      <trkpt lat="44.13032" lon="5.82768">
        <ele>1050</ele>
        <time>2022-09-22T11:11:47Z</time>
      </trkpt>
      <trkpt lat="44.13032" lon="5.82769">
        <ele>1050</ele>
        <time>2022-09-22T11:11:48Z</time>
      </trkpt>
      <trkpt lat="44.13032" lon="5.82771">
        <ele>1050</ele>
        <time>2022-09-22T11:11:49Z</time>
      </trkpt>
      <trkpt lat="44.13032" lon="5.82772">
        <ele>1050</ele>
        <time>2022-09-22T11:11:50Z</time>
      </trkpt>
      <trkpt lat="44.13032" lon="5.82773">
        <ele>1050</ele>
        <time>2022-09-22T11:11:51Z</time>
      </trkpt>
      <trkpt lat="44.13032" lon="5.82774">
        <ele>1050</ele>
        <time>2022-09-22T11:11:52Z</time>
      </trkpt>
      <trkpt lat="44.13031" lon="5.82775">
        <ele>1050</ele>
        <time>2022-09-22T11:11:53Z</time>
      </trkpt>
      <trkpt lat="44.13031" lon="5.82776">
        <ele>1050</ele>
        <time>2022-09-22T11:11:54Z</time>
      </trkpt>
      <trkpt lat="44.1303" lon="5.82777">
        <ele>1049</ele>
        <time>2022-09-22T11:11:55Z</time>
      </trkpt>
      <trkpt lat="44.1303" lon="5.82778">
        <ele>1049</ele>
        <time>2022-09-22T11:11:56Z</time>
      </trkpt>
      <trkpt lat="44.1303" lon="5.82779">
        <ele>1049</ele>
        <time>2022-09-22T11:11:57Z</time>
      </trkpt>
      <trkpt lat="44.1303" lon="5.82781">
        <ele>1049</ele>
        <time>2022-09-22T11:11:58Z</time>
      </trkpt>
      <trkpt lat="44.1303" lon="5.82782">
        <ele>1049</ele>
        <time>2022-09-22T11:11:59Z</time>
      </trkpt>
      <trkpt lat="44.1303" lon="5.82784">
        <ele>1049</ele>
        <time>2022-09-22T11:12:00Z</time>
      </trkpt>
      <trkpt lat="44.1303" lon="5.82786">
        <ele>1049</ele>
        <time>2022-09-22T11:12:01Z</time>
      </trkpt>
      <trkpt lat="44.1303" lon="5.82787">
        <ele>1049</ele>
        <time>2022-09-22T11:12:02Z</time>
      </trkpt>
      <trkpt lat="44.1303" lon="5.82789">
        <ele>1049</ele>
        <time>2022-09-22T11:12:03Z</time>
      </trkpt>
      <trkpt lat="44.13031" lon="5.8279">
        <ele>1049</ele>
        <time>2022-09-22T11:12:04Z</time>
      </trkpt>
      <trkpt lat="44.13031" lon="5.82792">
        <ele>1049</ele>
        <time>2022-09-22T11:12:05Z</time>
      </trkpt>
      <trkpt lat="44.13031" lon="5.82793">
        <ele>1049</ele>
        <time>2022-09-22T11:12:06Z</time>
      </trkpt>
      <trkpt lat="44.13031" lon="5.82794">
        <ele>1049</ele>
        <time>2022-09-22T11:12:07Z</time>
      </trkpt>
      <trkpt lat="44.13031" lon="5.82795">
        <ele>1049</ele>
        <time>2022-09-22T11:12:08Z</time>
      </trkpt>
      <trkpt lat="44.13031" lon="5.82796">
        <ele>1049</ele>
        <time>2022-09-22T11:12:09Z</time>
      </trkpt>
      <trkpt lat="44.1303" lon="5.82797">
        <ele>1049</ele>
        <time>2022-09-22T11:12:10Z</time>
      </trkpt>
      <trkpt lat="44.1303" lon="5.82798">
        <ele>1049</ele>
        <time>2022-09-22T11:12:11Z</time>
      </trkpt>
      <trkpt lat="44.1303" lon="5.82799">
        <ele>1049</ele>
        <time>2022-09-22T11:12:12Z</time>
      </trkpt>
      <trkpt lat="44.1303" lon="5.828">
        <ele>1049</ele>
        <time>2022-09-22T11:12:13Z</time>
      </trkpt>
      <trkpt lat="44.1303" lon="5.82802">
        <ele>1049</ele>
        <time>2022-09-22T11:12:14Z</time>
      </trkpt>
      <trkpt lat="44.1303" lon="5.82804">
        <ele>1048</ele>
        <time>2022-09-22T11:12:15Z</time>
      </trkpt>
      <trkpt lat="44.13029" lon="5.82805">
        <ele>1048</ele>
        <time>2022-09-22T11:12:16Z</time>
      </trkpt>
      <trkpt lat="44.13029" lon="5.82807">
        <ele>1048</ele>
        <time>2022-09-22T11:12:17Z</time>
      </trkpt>
      <trkpt lat="44.13029" lon="5.82809">
        <ele>1048</ele>
        <time>2022-09-22T11:12:18Z</time>
      </trkpt>
      <trkpt lat="44.13028" lon="5.8281">
        <ele>1048</ele>
        <time>2022-09-22T11:12:19Z</time>
      </trkpt>
      <trkpt lat="44.13028" lon="5.82812">
        <ele>1048</ele>
        <time>2022-09-22T11:12:20Z</time>
      </trkpt>
      <trkpt lat="44.13028" lon="5.82813">
        <ele>1048</ele>
        <time>2022-09-22T11:12:21Z</time>
      </trkpt>
      <trkpt lat="44.13027" lon="5.82815">
        <ele>1048</ele>
        <time>2022-09-22T11:12:22Z</time>
      </trkpt>
      <trkpt lat="44.13027" lon="5.82816">
        <ele>1048</ele>
        <time>2022-09-22T11:12:23Z</time>
      </trkpt>
      <trkpt lat="44.13026" lon="5.82818">
        <ele>1048</ele>
        <time>2022-09-22T11:12:24Z</time>
      </trkpt>
      <trkpt lat="44.13026" lon="5.82819">
        <ele>1048</ele>
        <time>2022-09-22T11:12:25Z</time>
      </trkpt>
      <trkpt lat="44.13026" lon="5.82821">
        <ele>1048</ele>
        <time>2022-09-22T11:12:26Z</time>
      </trkpt>
      <trkpt lat="44.13025" lon="5.82822">
        <ele>1048</ele>
        <time>2022-09-22T11:12:27Z</time>
      </trkpt>
      <trkpt lat="44.13024" lon="5.82823">
        <ele>1048</ele>
        <time>2022-09-22T11:12:28Z</time>
      </trkpt>
      <trkpt lat="44.13024" lon="5.82825">
        <ele>1048</ele>
        <time>2022-09-22T11:12:29Z</time>
      </trkpt>
      <trkpt lat="44.13023" lon="5.82826">
        <ele>1047</ele>
        <time>2022-09-22T11:12:30Z</time>
      </trkpt>
      <trkpt lat="44.13022" lon="5.82827">
        <ele>1047</ele>
        <time>2022-09-22T11:12:31Z</time>
      </trkpt>
      <trkpt lat="44.13022" lon="5.82829">
        <ele>1047</ele>
        <time>2022-09-22T11:12:32Z</time>
      </trkpt>
      <trkpt lat="44.13021" lon="5.8283">
        <ele>1047</ele>
        <time>2022-09-22T11:12:33Z</time>
      </trkpt>
      <trkpt lat="44.1302" lon="5.82832">
        <ele>1047</ele>
        <time>2022-09-22T11:12:34Z</time>
      </trkpt>
      <trkpt lat="44.1302" lon="5.82833">
        <ele>1047</ele>
        <time>2022-09-22T11:12:35Z</time>
      </trkpt>
      <trkpt lat="44.1302" lon="5.82835">
        <ele>1047</ele>
        <time>2022-09-22T11:12:36Z</time>
      </trkpt>
      <trkpt lat="44.13019" lon="5.82836">
        <ele>1047</ele>
        <time>2022-09-22T11:12:37Z</time>
      </trkpt>
      <trkpt lat="44.13019" lon="5.82838">
        <ele>1047</ele>
        <time>2022-09-22T11:12:38Z</time>
      </trkpt>
      <trkpt lat="44.1302" lon="5.8284">
        <ele>1047</ele>
        <time>2022-09-22T11:12:39Z</time>
      </trkpt>
      <trkpt lat="44.1302" lon="5.82842">
        <ele>1047</ele>
        <time>2022-09-22T11:12:40Z</time>
      </trkpt>
      <trkpt lat="44.1302" lon="5.82844">
        <ele>1047</ele>
        <time>2022-09-22T11:12:41Z</time>
      </trkpt>
      <trkpt lat="44.13019" lon="5.82846">
        <ele>1047</ele>
        <time>2022-09-22T11:12:42Z</time>
      </trkpt>
      <trkpt lat="44.13019" lon="5.82848">
        <ele>1047</ele>
        <time>2022-09-22T11:12:43Z</time>
      </trkpt>
      <trkpt lat="44.13019" lon="5.8285">
        <ele>1048</ele>
        <time>2022-09-22T11:12:44Z</time>
      </trkpt>
      <trkpt lat="44.13019" lon="5.82851">
        <ele>1048</ele>
        <time>2022-09-22T11:12:45Z</time>
      </trkpt>
      <trkpt lat="44.13018" lon="5.82853">
        <ele>1048</ele>
        <time>2022-09-22T11:12:46Z</time>
      </trkpt>
      <trkpt lat="44.13018" lon="5.82854">
        <ele>1048</ele>
        <time>2022-09-22T11:12:47Z</time>
      </trkpt>
      <trkpt lat="44.13018" lon="5.82855">
        <ele>1048</ele>
        <time>2022-09-22T11:12:48Z</time>
      </trkpt>
      <trkpt lat="44.13018" lon="5.82856">
        <ele>1048</ele>
        <time>2022-09-22T11:12:49Z</time>
      </trkpt>
      <trkpt lat="44.13017" lon="5.82857">
        <ele>1048</ele>
        <time>2022-09-22T11:12:50Z</time>
      </trkpt>
      <trkpt lat="44.13017" lon="5.82857">
        <ele>1048</ele>
        <time>2022-09-22T11:12:51Z</time>
      </trkpt>
      <trkpt lat="44.13016" lon="5.82858">
        <ele>1048</ele>
        <time>2022-09-22T11:12:52Z</time>
      </trkpt>
      <trkpt lat="44.13015" lon="5.82859">
        <ele>1048</ele>
        <time>2022-09-22T11:12:53Z</time>
      </trkpt>
      <trkpt lat="44.13015" lon="5.8286">
        <ele>1048</ele>
        <time>2022-09-22T11:12:54Z</time>
      </trkpt>
      <trkpt lat="44.13014" lon="5.82861">
        <ele>1048</ele>
        <time>2022-09-22T11:12:55Z</time>
      </trkpt>
      <trkpt lat="44.13014" lon="5.82863">
        <ele>1048</ele>
        <time>2022-09-22T11:12:56Z</time>
      </trkpt>
      <trkpt lat="44.13014" lon="5.82864">
        <ele>1048</ele>
        <time>2022-09-22T11:12:57Z</time>
      </trkpt>
      <trkpt lat="44.13014" lon="5.82865">
        <ele>1048</ele>
        <time>2022-09-22T11:12:58Z</time>
      </trkpt>
      <trkpt lat="44.13014" lon="5.82867">
        <ele>1048</ele>
        <time>2022-09-22T11:12:59Z</time>
      </trkpt>
      <trkpt lat="44.13014" lon="5.82868">
        <ele>1048</ele>
        <time>2022-09-22T11:13:00Z</time>
      </trkpt>
      <trkpt lat="44.13014" lon="5.8287">
        <ele>1048</ele>
        <time>2022-09-22T11:13:01Z</time>
      </trkpt>
      <trkpt lat="44.13014" lon="5.82871">
        <ele>1048</ele>
        <time>2022-09-22T11:13:02Z</time>
      </trkpt>
      <trkpt lat="44.13014" lon="5.82873">
        <ele>1048</ele>
        <time>2022-09-22T11:13:03Z</time>
      </trkpt>
      <trkpt lat="44.13014" lon="5.82874">
        <ele>1048</ele>
        <time>2022-09-22T11:13:04Z</time>
      </trkpt>
      <trkpt lat="44.13014" lon="5.82875">
        <ele>1048</ele>
        <time>2022-09-22T11:13:05Z</time>
      </trkpt>
      <trkpt lat="44.13014" lon="5.82876">
        <ele>1048</ele>
        <time>2022-09-22T11:13:06Z</time>
      </trkpt>
      <trkpt lat="44.13013" lon="5.82877">
        <ele>1048</ele>
        <time>2022-09-22T11:13:07Z</time>
      </trkpt>
      <trkpt lat="44.13013" lon="5.82879">
        <ele>1048</ele>
        <time>2022-09-22T11:13:08Z</time>
      </trkpt>
      <trkpt lat="44.13013" lon="5.8288">
        <ele>1048</ele>
        <time>2022-09-22T11:13:09Z</time>
      </trkpt>
      <trkpt lat="44.13013" lon="5.82881">
        <ele>1047</ele>
        <time>2022-09-22T11:13:10Z</time>
      </trkpt>
      <trkpt lat="44.13013" lon="5.82882">
        <ele>1047</ele>
        <time>2022-09-22T11:13:11Z</time>
      </trkpt>
      <trkpt lat="44.13014" lon="5.82884">
        <ele>1047</ele>
        <time>2022-09-22T11:13:12Z</time>
      </trkpt>
      <trkpt lat="44.13014" lon="5.82885">
        <ele>1047</ele>
        <time>2022-09-22T11:13:13Z</time>
      </trkpt>
      <trkpt lat="44.13014" lon="5.82886">
        <ele>1047</ele>
        <time>2022-09-22T11:13:14Z</time>
      </trkpt>
      <trkpt lat="44.13015" lon="5.82888">
        <ele>1047</ele>
        <time>2022-09-22T11:13:15Z</time>
      </trkpt>
      <trkpt lat="44.13015" lon="5.8289">
        <ele>1047</ele>
        <time>2022-09-22T11:13:16Z</time>
      </trkpt>
      <trkpt lat="44.13015" lon="5.82891">
        <ele>1047</ele>
        <time>2022-09-22T11:13:17Z</time>
      </trkpt>
      <trkpt lat="44.13015" lon="5.82893">
        <ele>1047</ele>
        <time>2022-09-22T11:13:18Z</time>
      </trkpt>
      <trkpt lat="44.13015" lon="5.82894">
        <ele>1047</ele>
        <time>2022-09-22T11:13:19Z</time>
      </trkpt>
      <trkpt lat="44.13015" lon="5.82895">
        <ele>1047</ele>
        <time>2022-09-22T11:13:20Z</time>
      </trkpt>
      <trkpt lat="44.13015" lon="5.82897">
        <ele>1047</ele>
        <time>2022-09-22T11:13:21Z</time>
      </trkpt>
      <trkpt lat="44.13015" lon="5.82898">
        <ele>1047</ele>
        <time>2022-09-22T11:13:22Z</time>
      </trkpt>
      <trkpt lat="44.13016" lon="5.82899">
        <ele>1047</ele>
        <time>2022-09-22T11:13:23Z</time>
      </trkpt>
      <trkpt lat="44.13016" lon="5.829">
        <ele>1047</ele>
        <time>2022-09-22T11:13:24Z</time>
      </trkpt>
      <trkpt lat="44.13017" lon="5.82901">
        <ele>1047</ele>
        <time>2022-09-22T11:13:25Z</time>
      </trkpt>
      <trkpt lat="44.13018" lon="5.82902">
        <ele>1047</ele>
        <time>2022-09-22T11:13:26Z</time>
      </trkpt>
      <trkpt lat="44.13018" lon="5.82902">
        <ele>1047</ele>
        <time>2022-09-22T11:13:27Z</time>
      </trkpt>
      <trkpt lat="44.13019" lon="5.82904">
        <ele>1047</ele>
        <time>2022-09-22T11:13:28Z</time>
      </trkpt>
      <trkpt lat="44.13019" lon="5.82905">
        <ele>1047</ele>
        <time>2022-09-22T11:13:29Z</time>
      </trkpt>
      <trkpt lat="44.13019" lon="5.82906">
        <ele>1046</ele>
        <time>2022-09-22T11:13:30Z</time>
      </trkpt>
      <trkpt lat="44.13019" lon="5.82907">
        <ele>1046</ele>
        <time>2022-09-22T11:13:31Z</time>
      </trkpt>
      <trkpt lat="44.13019" lon="5.82909">
        <ele>1046</ele>
        <time>2022-09-22T11:13:32Z</time>
      </trkpt>
      <trkpt lat="44.13019" lon="5.8291">
        <ele>1046</ele>
        <time>2022-09-22T11:13:33Z</time>
      </trkpt>
      <trkpt lat="44.13019" lon="5.82911">
        <ele>1046</ele>
        <time>2022-09-22T11:13:34Z</time>
      </trkpt>
      <trkpt lat="44.13018" lon="5.82912">
        <ele>1046</ele>
        <time>2022-09-22T11:13:35Z</time>
      </trkpt>
      <trkpt lat="44.13018" lon="5.82914">
        <ele>1046</ele>
        <time>2022-09-22T11:13:36Z</time>
      </trkpt>
      <trkpt lat="44.13017" lon="5.82915">
        <ele>1046</ele>
        <time>2022-09-22T11:13:37Z</time>
      </trkpt>
      <trkpt lat="44.13017" lon="5.82917">
        <ele>1046</ele>
        <time>2022-09-22T11:13:38Z</time>
      </trkpt>
      <trkpt lat="44.13016" lon="5.82919">
        <ele>1046</ele>
        <time>2022-09-22T11:13:39Z</time>
      </trkpt>
      <trkpt lat="44.13016" lon="5.8292">
        <ele>1046</ele>
        <time>2022-09-22T11:13:40Z</time>
      </trkpt>
      <trkpt lat="44.13016" lon="5.82922">
        <ele>1046</ele>
        <time>2022-09-22T11:13:41Z</time>
      </trkpt>
      <trkpt lat="44.13015" lon="5.82923">
        <ele>1046</ele>
        <time>2022-09-22T11:13:42Z</time>
      </trkpt>
      <trkpt lat="44.13015" lon="5.82925">
        <ele>1046</ele>
        <time>2022-09-22T11:13:43Z</time>
      </trkpt>
      <trkpt lat="44.13014" lon="5.82926">
        <ele>1046</ele>
        <time>2022-09-22T11:13:44Z</time>
      </trkpt>
      <trkpt lat="44.13013" lon="5.82927">
        <ele>1045</ele>
        <time>2022-09-22T11:13:45Z</time>
      </trkpt>
      <trkpt lat="44.13012" lon="5.82929">
        <ele>1045</ele>
        <time>2022-09-22T11:13:46Z</time>
      </trkpt>
      <trkpt lat="44.13011" lon="5.8293">
        <ele>1045</ele>
        <time>2022-09-22T11:13:47Z</time>
      </trkpt>
      <trkpt lat="44.1301" lon="5.82931">
        <ele>1045</ele>
        <time>2022-09-22T11:13:48Z</time>
      </trkpt>
      <trkpt lat="44.13009" lon="5.82932">
        <ele>1045</ele>
        <time>2022-09-22T11:13:49Z</time>
      </trkpt>
      <trkpt lat="44.13009" lon="5.82934">
        <ele>1045</ele>
        <time>2022-09-22T11:13:50Z</time>
      </trkpt>
      <trkpt lat="44.13009" lon="5.82935">
        <ele>1045</ele>
        <time>2022-09-22T11:13:51Z</time>
      </trkpt>
      <trkpt lat="44.13009" lon="5.82936">
        <ele>1045</ele>
        <time>2022-09-22T11:13:52Z</time>
      </trkpt>
      <trkpt lat="44.13009" lon="5.82938">
        <ele>1045</ele>
        <time>2022-09-22T11:13:53Z</time>
      </trkpt>
      <trkpt lat="44.13009" lon="5.82939">
        <ele>1045</ele>
        <time>2022-09-22T11:13:54Z</time>
      </trkpt>
      <trkpt lat="44.13009" lon="5.8294">
        <ele>1045</ele>
        <time>2022-09-22T11:13:55Z</time>
      </trkpt>
      <trkpt lat="44.13009" lon="5.82942">
        <ele>1045</ele>
        <time>2022-09-22T11:13:56Z</time>
      </trkpt>
      <trkpt lat="44.13009" lon="5.82943">
        <ele>1045</ele>
        <time>2022-09-22T11:13:57Z</time>
      </trkpt>
      <trkpt lat="44.13008" lon="5.82945">
        <ele>1045</ele>
        <time>2022-09-22T11:13:58Z</time>
      </trkpt>
      <trkpt lat="44.13008" lon="5.82946">
        <ele>1045</ele>
        <time>2022-09-22T11:13:59Z</time>
      </trkpt>
      <trkpt lat="44.13007" lon="5.82947">
        <ele>1044</ele>
        <time>2022-09-22T11:14:00Z</time>
      </trkpt>
      <trkpt lat="44.13006" lon="5.82948">
        <ele>1044</ele>
        <time>2022-09-22T11:14:01Z</time>
      </trkpt>
      <trkpt lat="44.13005" lon="5.82949">
        <ele>1044</ele>
        <time>2022-09-22T11:14:02Z</time>
      </trkpt>
      <trkpt lat="44.13004" lon="5.82951">
        <ele>1044</ele>
        <time>2022-09-22T11:14:03Z</time>
      </trkpt>
      <trkpt lat="44.13003" lon="5.82952">
        <ele>1044</ele>
        <time>2022-09-22T11:14:04Z</time>
      </trkpt>
      <trkpt lat="44.13002" lon="5.82953">
        <ele>1044</ele>
        <time>2022-09-22T11:14:05Z</time>
      </trkpt>
      <trkpt lat="44.13002" lon="5.82955">
        <ele>1044</ele>
        <time>2022-09-22T11:14:06Z</time>
      </trkpt>
      <trkpt lat="44.13001" lon="5.82956">
        <ele>1044</ele>
        <time>2022-09-22T11:14:07Z</time>
      </trkpt>
      <trkpt lat="44.13001" lon="5.82957">
        <ele>1044</ele>
        <time>2022-09-22T11:14:08Z</time>
      </trkpt>
      <trkpt lat="44.13" lon="5.82959">
        <ele>1044</ele>
        <time>2022-09-22T11:14:09Z</time>
      </trkpt>
      <trkpt lat="44.13" lon="5.8296">
        <ele>1043</ele>
        <time>2022-09-22T11:14:10Z</time>
      </trkpt>
      <trkpt lat="44.12999" lon="5.82961">
        <ele>1043</ele>
        <time>2022-09-22T11:14:11Z</time>
      </trkpt>
      <trkpt lat="44.12999" lon="5.82962">
        <ele>1043</ele>
        <time>2022-09-22T11:14:12Z</time>
      </trkpt>
      <trkpt lat="44.12998" lon="5.82963">
        <ele>1043</ele>
        <time>2022-09-22T11:14:13Z</time>
      </trkpt>
      <trkpt lat="44.12998" lon="5.82965">
        <ele>1043</ele>
        <time>2022-09-22T11:14:14Z</time>
      </trkpt>
      <trkpt lat="44.12997" lon="5.82966">
        <ele>1043</ele>
        <time>2022-09-22T11:14:15Z</time>
      </trkpt>
      <trkpt lat="44.12996" lon="5.82968">
        <ele>1043</ele>
        <time>2022-09-22T11:14:16Z</time>
      </trkpt>
      <trkpt lat="44.12995" lon="5.82969">
        <ele>1043</ele>
        <time>2022-09-22T11:14:17Z</time>
      </trkpt>
      <trkpt lat="44.12995" lon="5.8297">
        <ele>1043</ele>
        <time>2022-09-22T11:14:18Z</time>
      </trkpt>
      <trkpt lat="44.12995" lon="5.82972">
        <ele>1043</ele>
        <time>2022-09-22T11:14:19Z</time>
      </trkpt>
      <trkpt lat="44.12994" lon="5.82973">
        <ele>1042</ele>
        <time>2022-09-22T11:14:20Z</time>
      </trkpt>
      <trkpt lat="44.12994" lon="5.82974">
        <ele>1042</ele>
        <time>2022-09-22T11:14:21Z</time>
      </trkpt>
      <trkpt lat="44.12994" lon="5.82975">
        <ele>1042</ele>
        <time>2022-09-22T11:14:22Z</time>
      </trkpt>
      <trkpt lat="44.12994" lon="5.82976">
        <ele>1042</ele>
        <time>2022-09-22T11:14:23Z</time>
      </trkpt>
      <trkpt lat="44.12994" lon="5.82976">
        <ele>1042</ele>
        <time>2022-09-22T11:14:24Z</time>
      </trkpt>
      <trkpt lat="44.12994" lon="5.82977">
        <ele>1042</ele>
        <time>2022-09-22T11:14:25Z</time>
      </trkpt>
      <trkpt lat="44.12994" lon="5.82978">
        <ele>1042</ele>
        <time>2022-09-22T11:14:26Z</time>
      </trkpt>
      <trkpt lat="44.12993" lon="5.82979">
        <ele>1042</ele>
        <time>2022-09-22T11:14:27Z</time>
      </trkpt>
      <trkpt lat="44.12993" lon="5.8298">
        <ele>1042</ele>
        <time>2022-09-22T11:14:28Z</time>
      </trkpt>
      <trkpt lat="44.12992" lon="5.82981">
        <ele>1042</ele>
        <time>2022-09-22T11:14:29Z</time>
      </trkpt>
      <trkpt lat="44.12992" lon="5.82982">
        <ele>1042</ele>
        <time>2022-09-22T11:14:30Z</time>
      </trkpt>
      <trkpt lat="44.12992" lon="5.82984">
        <ele>1042</ele>
        <time>2022-09-22T11:14:31Z</time>
      </trkpt>
      <trkpt lat="44.12991" lon="5.82985">
        <ele>1042</ele>
        <time>2022-09-22T11:14:32Z</time>
      </trkpt>
      <trkpt lat="44.12991" lon="5.82987">
        <ele>1042</ele>
        <time>2022-09-22T11:14:33Z</time>
      </trkpt>
      <trkpt lat="44.12991" lon="5.82989">
        <ele>1042</ele>
        <time>2022-09-22T11:14:34Z</time>
      </trkpt>
      <trkpt lat="44.12991" lon="5.8299">
        <ele>1041</ele>
        <time>2022-09-22T11:14:35Z</time>
      </trkpt>
      <trkpt lat="44.12991" lon="5.82991">
        <ele>1041</ele>
        <time>2022-09-22T11:14:36Z</time>
      </trkpt>
      <trkpt lat="44.1299" lon="5.82992">
        <ele>1041</ele>
        <time>2022-09-22T11:14:37Z</time>
      </trkpt>
      <trkpt lat="44.1299" lon="5.82993">
        <ele>1041</ele>
        <time>2022-09-22T11:14:38Z</time>
      </trkpt>
      <trkpt lat="44.1299" lon="5.82994">
        <ele>1041</ele>
        <time>2022-09-22T11:14:39Z</time>
      </trkpt>
      <trkpt lat="44.12989" lon="5.82996">
        <ele>1041</ele>
        <time>2022-09-22T11:14:40Z</time>
      </trkpt>
      <trkpt lat="44.1299" lon="5.82997">
        <ele>1041</ele>
        <time>2022-09-22T11:14:41Z</time>
      </trkpt>
      <trkpt lat="44.1299" lon="5.82998">
        <ele>1041</ele>
        <time>2022-09-22T11:14:42Z</time>
      </trkpt>
      <trkpt lat="44.1299" lon="5.82999">
        <ele>1041</ele>
        <time>2022-09-22T11:14:43Z</time>
      </trkpt>
      <trkpt lat="44.1299" lon="5.83">
        <ele>1041</ele>
        <time>2022-09-22T11:14:44Z</time>
      </trkpt>
      <trkpt lat="44.1299" lon="5.83001">
        <ele>1041</ele>
        <time>2022-09-22T11:14:45Z</time>
      </trkpt>
      <trkpt lat="44.1299" lon="5.83002">
        <ele>1041</ele>
        <time>2022-09-22T11:14:46Z</time>
      </trkpt>
      <trkpt lat="44.1299" lon="5.83003">
        <ele>1041</ele>
        <time>2022-09-22T11:14:47Z</time>
      </trkpt>
      <trkpt lat="44.1299" lon="5.83004">
        <ele>1041</ele>
        <time>2022-09-22T11:14:48Z</time>
      </trkpt>
      <trkpt lat="44.1299" lon="5.83005">
        <ele>1041</ele>
        <time>2022-09-22T11:14:49Z</time>
      </trkpt>
      <trkpt lat="44.1299" lon="5.83007">
        <ele>1041</ele>
        <time>2022-09-22T11:14:50Z</time>
      </trkpt>
      <trkpt lat="44.12989" lon="5.83008">
        <ele>1041</ele>
        <time>2022-09-22T11:14:51Z</time>
      </trkpt>
      <trkpt lat="44.12989" lon="5.83009">
        <ele>1041</ele>
        <time>2022-09-22T11:14:52Z</time>
      </trkpt>
      <trkpt lat="44.12988" lon="5.8301">
        <ele>1041</ele>
        <time>2022-09-22T11:14:53Z</time>
      </trkpt>
      <trkpt lat="44.12987" lon="5.83011">
        <ele>1041</ele>
        <time>2022-09-22T11:14:54Z</time>
      </trkpt>
      <trkpt lat="44.12986" lon="5.83012">
        <ele>1040</ele>
        <time>2022-09-22T11:14:55Z</time>
      </trkpt>
      <trkpt lat="44.12985" lon="5.83013">
        <ele>1040</ele>
        <time>2022-09-22T11:14:56Z</time>
      </trkpt>
      <trkpt lat="44.12984" lon="5.83014">
        <ele>1040</ele>
        <time>2022-09-22T11:14:57Z</time>
      </trkpt>
      <trkpt lat="44.12983" lon="5.83014">
        <ele>1040</ele>
        <time>2022-09-22T11:14:58Z</time>
      </trkpt>
      <trkpt lat="44.12982" lon="5.83015">
        <ele>1040</ele>
        <time>2022-09-22T11:14:59Z</time>
      </trkpt>
      <trkpt lat="44.12981" lon="5.83015">
        <ele>1040</ele>
        <time>2022-09-22T11:15:00Z</time>
      </trkpt>
      <trkpt lat="44.12979" lon="5.83014">
        <ele>1040</ele>
        <time>2022-09-22T11:15:01Z</time>
      </trkpt>
      <trkpt lat="44.12978" lon="5.83014">
        <ele>1040</ele>
        <time>2022-09-22T11:15:02Z</time>
      </trkpt>
      <trkpt lat="44.12977" lon="5.83013">
        <ele>1040</ele>
        <time>2022-09-22T11:15:18Z</time>
      </trkpt>
      <trkpt lat="44.12976" lon="5.83013">
        <ele>1040</ele>
        <time>2022-09-22T11:15:19Z</time>
      </trkpt>
      <trkpt lat="44.12976" lon="5.83013">
        <ele>1040</ele>
        <time>2022-09-22T11:15:20Z</time>
      </trkpt>
      <trkpt lat="44.12975" lon="5.83013">
        <ele>1040</ele>
        <time>2022-09-22T11:15:21Z</time>
      </trkpt>
      <trkpt lat="44.12975" lon="5.83013">
        <ele>1040</ele>
        <time>2022-09-22T11:15:22Z</time>
      </trkpt>
      <trkpt lat="44.12974" lon="5.83014">
        <ele>1040</ele>
        <time>2022-09-22T11:15:23Z</time>
      </trkpt>
      <trkpt lat="44.12974" lon="5.83014">
        <ele>1040</ele>
        <time>2022-09-22T11:15:24Z</time>
      </trkpt>
      <trkpt lat="44.12973" lon="5.83014">
        <ele>1040</ele>
        <time>2022-09-22T11:15:25Z</time>
      </trkpt>
      <trkpt lat="44.12973" lon="5.83015">
        <ele>1040</ele>
        <time>2022-09-22T11:15:26Z</time>
      </trkpt>
      <trkpt lat="44.12972" lon="5.83016">
        <ele>1040</ele>
        <time>2022-09-22T11:15:27Z</time>
      </trkpt>
      <trkpt lat="44.12972" lon="5.83016">
        <ele>1040</ele>
        <time>2022-09-22T11:15:28Z</time>
      </trkpt>
      <trkpt lat="44.12972" lon="5.83017">
        <ele>1040</ele>
        <time>2022-09-22T11:15:29Z</time>
      </trkpt>
      <trkpt lat="44.12971" lon="5.83018">
        <ele>1040</ele>
        <time>2022-09-22T11:15:30Z</time>
      </trkpt>
      <trkpt lat="44.12971" lon="5.83019">
        <ele>1040</ele>
        <time>2022-09-22T11:15:31Z</time>
      </trkpt>
      <trkpt lat="44.12971" lon="5.8302">
        <ele>1040</ele>
        <time>2022-09-22T11:15:32Z</time>
      </trkpt>
      <trkpt lat="44.12971" lon="5.83021">
        <ele>1040</ele>
        <time>2022-09-22T11:15:33Z</time>
      </trkpt>
      <trkpt lat="44.12971" lon="5.83022">
        <ele>1040</ele>
        <time>2022-09-22T11:15:34Z</time>
      </trkpt>
      <trkpt lat="44.1297" lon="5.83023">
        <ele>1040</ele>
        <time>2022-09-22T11:15:35Z</time>
      </trkpt>
      <trkpt lat="44.1297" lon="5.83024">
        <ele>1040</ele>
        <time>2022-09-22T11:15:36Z</time>
      </trkpt>
      <trkpt lat="44.12969" lon="5.83025">
        <ele>1040</ele>
        <time>2022-09-22T11:15:37Z</time>
      </trkpt>
      <trkpt lat="44.12969" lon="5.83026">
        <ele>1040</ele>
        <time>2022-09-22T11:15:38Z</time>
      </trkpt>
      <trkpt lat="44.12969" lon="5.83027">
        <ele>1040</ele>
        <time>2022-09-22T11:15:39Z</time>
      </trkpt>
      <trkpt lat="44.12968" lon="5.83028">
        <ele>1040</ele>
        <time>2022-09-22T11:15:40Z</time>
      </trkpt>
      <trkpt lat="44.12968" lon="5.83029">
        <ele>1040</ele>
        <time>2022-09-22T11:15:41Z</time>
      </trkpt>
      <trkpt lat="44.12967" lon="5.8303">
        <ele>1040</ele>
        <time>2022-09-22T11:15:42Z</time>
      </trkpt>
      <trkpt lat="44.12967" lon="5.83031">
        <ele>1040</ele>
        <time>2022-09-22T11:15:43Z</time>
      </trkpt>
      <trkpt lat="44.12967" lon="5.83032">
        <ele>1040</ele>
        <time>2022-09-22T11:15:44Z</time>
      </trkpt>
      <trkpt lat="44.12967" lon="5.83033">
        <ele>1040</ele>
        <time>2022-09-22T11:15:45Z</time>
      </trkpt>
      <trkpt lat="44.12967" lon="5.83034">
        <ele>1040</ele>
        <time>2022-09-22T11:15:46Z</time>
      </trkpt>
      <trkpt lat="44.12967" lon="5.83035">
        <ele>1040</ele>
        <time>2022-09-22T11:15:47Z</time>
      </trkpt>
      <trkpt lat="44.12967" lon="5.83036">
        <ele>1040</ele>
        <time>2022-09-22T11:15:48Z</time>
      </trkpt>
      <trkpt lat="44.12967" lon="5.83037">
        <ele>1040</ele>
        <time>2022-09-22T11:15:49Z</time>
      </trkpt>
      <trkpt lat="44.12966" lon="5.83038">
        <ele>1040</ele>
        <time>2022-09-22T11:15:50Z</time>
      </trkpt>
      <trkpt lat="44.12966" lon="5.83039">
        <ele>1040</ele>
        <time>2022-09-22T11:15:51Z</time>
      </trkpt>
      <trkpt lat="44.12966" lon="5.83041">
        <ele>1040</ele>
        <time>2022-09-22T11:15:52Z</time>
      </trkpt>
      <trkpt lat="44.12966" lon="5.83042">
        <ele>1040</ele>
        <time>2022-09-22T11:15:53Z</time>
      </trkpt>
      <trkpt lat="44.12965" lon="5.83043">
        <ele>1041</ele>
        <time>2022-09-22T11:15:54Z</time>
      </trkpt>
      <trkpt lat="44.12965" lon="5.83044">
        <ele>1041</ele>
        <time>2022-09-22T11:15:55Z</time>
      </trkpt>
      <trkpt lat="44.12965" lon="5.83046">
        <ele>1041</ele>
        <time>2022-09-22T11:15:56Z</time>
      </trkpt>
      <trkpt lat="44.12965" lon="5.83047">
        <ele>1041</ele>
        <time>2022-09-22T11:15:57Z</time>
      </trkpt>
      <trkpt lat="44.12965" lon="5.83048">
        <ele>1041</ele>
        <time>2022-09-22T11:15:58Z</time>
      </trkpt>
      <trkpt lat="44.12964" lon="5.83049">
        <ele>1041</ele>
        <time>2022-09-22T11:15:59Z</time>
      </trkpt>
      <trkpt lat="44.12964" lon="5.8305">
        <ele>1041</ele>
        <time>2022-09-22T11:16:00Z</time>
      </trkpt>
      <trkpt lat="44.12964" lon="5.83051">
        <ele>1041</ele>
        <time>2022-09-22T11:16:01Z</time>
      </trkpt>
      <trkpt lat="44.12964" lon="5.83052">
        <ele>1041</ele>
        <time>2022-09-22T11:16:02Z</time>
      </trkpt>
      <trkpt lat="44.12964" lon="5.83052">
        <ele>1041</ele>
        <time>2022-09-22T11:16:03Z</time>
      </trkpt>
      <trkpt lat="44.12963" lon="5.83053">
        <ele>1042</ele>
        <time>2022-09-22T11:16:04Z</time>
      </trkpt>
      <trkpt lat="44.12963" lon="5.83054">
        <ele>1042</ele>
        <time>2022-09-22T11:16:05Z</time>
      </trkpt>
      <trkpt lat="44.12964" lon="5.83055">
        <ele>1042</ele>
        <time>2022-09-22T11:16:06Z</time>
      </trkpt>
      <trkpt lat="44.12964" lon="5.83057">
        <ele>1042</ele>
        <time>2022-09-22T11:16:07Z</time>
      </trkpt>
      <trkpt lat="44.12964" lon="5.83058">
        <ele>1042</ele>
        <time>2022-09-22T11:16:08Z</time>
      </trkpt>
      <trkpt lat="44.12963" lon="5.83059">
        <ele>1042</ele>
        <time>2022-09-22T11:16:09Z</time>
      </trkpt>
      <trkpt lat="44.12963" lon="5.8306">
        <ele>1042</ele>
        <time>2022-09-22T11:16:10Z</time>
      </trkpt>
      <trkpt lat="44.12963" lon="5.83062">
        <ele>1042</ele>
        <time>2022-09-22T11:16:11Z</time>
      </trkpt>
      <trkpt lat="44.12963" lon="5.83063">
        <ele>1042</ele>
        <time>2022-09-22T11:16:12Z</time>
      </trkpt>
      <trkpt lat="44.12963" lon="5.83064">
        <ele>1042</ele>
        <time>2022-09-22T11:16:13Z</time>
      </trkpt>
      <trkpt lat="44.12963" lon="5.83066">
        <ele>1042</ele>
        <time>2022-09-22T11:16:14Z</time>
      </trkpt>
      <trkpt lat="44.12963" lon="5.83067">
        <ele>1042</ele>
        <time>2022-09-22T11:16:15Z</time>
      </trkpt>
      <trkpt lat="44.12962" lon="5.83068">
        <ele>1042</ele>
        <time>2022-09-22T11:16:16Z</time>
      </trkpt>
      <trkpt lat="44.12962" lon="5.83069">
        <ele>1042</ele>
        <time>2022-09-22T11:16:17Z</time>
      </trkpt>
      <trkpt lat="44.12962" lon="5.83071">
        <ele>1042</ele>
        <time>2022-09-22T11:16:18Z</time>
      </trkpt>
      <trkpt lat="44.12961" lon="5.83072">
        <ele>1043</ele>
        <time>2022-09-22T11:16:19Z</time>
      </trkpt>
      <trkpt lat="44.12961" lon="5.83073">
        <ele>1043</ele>
        <time>2022-09-22T11:16:20Z</time>
      </trkpt>
      <trkpt lat="44.1296" lon="5.83074">
        <ele>1043</ele>
        <time>2022-09-22T11:16:21Z</time>
      </trkpt>
      <trkpt lat="44.1296" lon="5.83075">
        <ele>1043</ele>
        <time>2022-09-22T11:16:22Z</time>
      </trkpt>
      <trkpt lat="44.1296" lon="5.83077">
        <ele>1043</ele>
        <time>2022-09-22T11:16:23Z</time>
      </trkpt>
      <trkpt lat="44.12959" lon="5.83078">
        <ele>1043</ele>
        <time>2022-09-22T11:16:24Z</time>
      </trkpt>
      <trkpt lat="44.12959" lon="5.83079">
        <ele>1043</ele>
        <time>2022-09-22T11:16:25Z</time>
      </trkpt>
      <trkpt lat="44.12958" lon="5.83081">
        <ele>1043</ele>
        <time>2022-09-22T11:16:26Z</time>
      </trkpt>
      <trkpt lat="44.12958" lon="5.83082">
        <ele>1043</ele>
        <time>2022-09-22T11:16:27Z</time>
      </trkpt>
      <trkpt lat="44.12957" lon="5.83083">
        <ele>1043</ele>
        <time>2022-09-22T11:16:28Z</time>
      </trkpt>
      <trkpt lat="44.12957" lon="5.83084">
        <ele>1044</ele>
        <time>2022-09-22T11:16:29Z</time>
      </trkpt>
      <trkpt lat="44.12957" lon="5.83086">
        <ele>1044</ele>
        <time>2022-09-22T11:16:30Z</time>
      </trkpt>
      <trkpt lat="44.12956" lon="5.83087">
        <ele>1044</ele>
        <time>2022-09-22T11:16:31Z</time>
      </trkpt>
      <trkpt lat="44.12956" lon="5.83088">
        <ele>1044</ele>
        <time>2022-09-22T11:16:32Z</time>
      </trkpt>
      <trkpt lat="44.12956" lon="5.83089">
        <ele>1044</ele>
        <time>2022-09-22T11:16:33Z</time>
      </trkpt>
      <trkpt lat="44.12955" lon="5.8309">
        <ele>1045</ele>
        <time>2022-09-22T11:16:34Z</time>
      </trkpt>
      <trkpt lat="44.12955" lon="5.83091">
        <ele>1045</ele>
        <time>2022-09-22T11:16:35Z</time>
      </trkpt>
      <trkpt lat="44.12954" lon="5.83092">
        <ele>1045</ele>
        <time>2022-09-22T11:16:36Z</time>
      </trkpt>
      <trkpt lat="44.12954" lon="5.83093">
        <ele>1045</ele>
        <time>2022-09-22T11:16:37Z</time>
      </trkpt>
      <trkpt lat="44.12954" lon="5.83094">
        <ele>1045</ele>
        <time>2022-09-22T11:16:38Z</time>
      </trkpt>
      <trkpt lat="44.12954" lon="5.83095">
        <ele>1045</ele>
        <time>2022-09-22T11:16:39Z</time>
      </trkpt>
      <trkpt lat="44.12954" lon="5.83096">
        <ele>1045</ele>
        <time>2022-09-22T11:16:40Z</time>
      </trkpt>
      <trkpt lat="44.12954" lon="5.83097">
        <ele>1045</ele>
        <time>2022-09-22T11:16:41Z</time>
      </trkpt>
      <trkpt lat="44.12953" lon="5.83098">
        <ele>1045</ele>
        <time>2022-09-22T11:16:42Z</time>
      </trkpt>
      <trkpt lat="44.12953" lon="5.83099">
        <ele>1045</ele>
        <time>2022-09-22T11:16:43Z</time>
      </trkpt>
      <trkpt lat="44.12952" lon="5.831">
        <ele>1046</ele>
        <time>2022-09-22T11:16:44Z</time>
      </trkpt>
      <trkpt lat="44.12952" lon="5.83102">
        <ele>1046</ele>
        <time>2022-09-22T11:16:45Z</time>
      </trkpt>
      <trkpt lat="44.12951" lon="5.83103">
        <ele>1046</ele>
        <time>2022-09-22T11:16:46Z</time>
      </trkpt>
      <trkpt lat="44.12951" lon="5.83105">
        <ele>1046</ele>
        <time>2022-09-22T11:16:47Z</time>
      </trkpt>
      <trkpt lat="44.1295" lon="5.83107">
        <ele>1046</ele>
        <time>2022-09-22T11:16:48Z</time>
      </trkpt>
      <trkpt lat="44.1295" lon="5.83109">
        <ele>1047</ele>
        <time>2022-09-22T11:16:49Z</time>
      </trkpt>
      <trkpt lat="44.12949" lon="5.8311">
        <ele>1047</ele>
        <time>2022-09-22T11:16:50Z</time>
      </trkpt>
      <trkpt lat="44.12949" lon="5.83112">
        <ele>1047</ele>
        <time>2022-09-22T11:16:51Z</time>
      </trkpt>
      <trkpt lat="44.12948" lon="5.83113">
        <ele>1047</ele>
        <time>2022-09-22T11:16:52Z</time>
      </trkpt>
      <trkpt lat="44.12948" lon="5.83114">
        <ele>1047</ele>
        <time>2022-09-22T11:16:53Z</time>
      </trkpt>
      <trkpt lat="44.12947" lon="5.83115">
        <ele>1047</ele>
        <time>2022-09-22T11:16:54Z</time>
      </trkpt>
      <trkpt lat="44.12946" lon="5.83116">
        <ele>1047</ele>
        <time>2022-09-22T11:16:55Z</time>
      </trkpt>
      <trkpt lat="44.12946" lon="5.83116">
        <ele>1047</ele>
        <time>2022-09-22T11:16:56Z</time>
      </trkpt>
      <trkpt lat="44.12945" lon="5.83117">
        <ele>1047</ele>
        <time>2022-09-22T11:16:57Z</time>
      </trkpt>
      <trkpt lat="44.12945" lon="5.83118">
        <ele>1047</ele>
        <time>2022-09-22T11:16:58Z</time>
      </trkpt>
      <trkpt lat="44.12944" lon="5.83118">
        <ele>1048</ele>
        <time>2022-09-22T11:16:59Z</time>
      </trkpt>
      <trkpt lat="44.12944" lon="5.83119">
        <ele>1048</ele>
        <time>2022-09-22T11:17:00Z</time>
      </trkpt>
      <trkpt lat="44.12943" lon="5.8312">
        <ele>1048</ele>
        <time>2022-09-22T11:17:01Z</time>
      </trkpt>
      <trkpt lat="44.12942" lon="5.83121">
        <ele>1048</ele>
        <time>2022-09-22T11:17:02Z</time>
      </trkpt>
      <trkpt lat="44.12941" lon="5.83121">
        <ele>1048</ele>
        <time>2022-09-22T11:17:03Z</time>
      </trkpt>
      <trkpt lat="44.12941" lon="5.83122">
        <ele>1049</ele>
        <time>2022-09-22T11:17:04Z</time>
      </trkpt>
      <trkpt lat="44.1294" lon="5.83123">
        <ele>1049</ele>
        <time>2022-09-22T11:17:05Z</time>
      </trkpt>
      <trkpt lat="44.12939" lon="5.83124">
        <ele>1049</ele>
        <time>2022-09-22T11:17:06Z</time>
      </trkpt>
      <trkpt lat="44.12938" lon="5.83125">
        <ele>1049</ele>
        <time>2022-09-22T11:17:07Z</time>
      </trkpt>
      <trkpt lat="44.12938" lon="5.83126">
        <ele>1049</ele>
        <time>2022-09-22T11:17:08Z</time>
      </trkpt>
      <trkpt lat="44.12937" lon="5.83127">
        <ele>1049</ele>
        <time>2022-09-22T11:17:09Z</time>
      </trkpt>
      <trkpt lat="44.12936" lon="5.83128">
        <ele>1049</ele>
        <time>2022-09-22T11:17:10Z</time>
      </trkpt>
      <trkpt lat="44.12935" lon="5.83129">
        <ele>1049</ele>
        <time>2022-09-22T11:17:11Z</time>
      </trkpt>
      <trkpt lat="44.12935" lon="5.8313">
        <ele>1049</ele>
        <time>2022-09-22T11:17:12Z</time>
      </trkpt>
      <trkpt lat="44.12934" lon="5.83131">
        <ele>1049</ele>
        <time>2022-09-22T11:17:13Z</time>
      </trkpt>
      <trkpt lat="44.12934" lon="5.83132">
        <ele>1050</ele>
        <time>2022-09-22T11:17:14Z</time>
      </trkpt>
      <trkpt lat="44.12933" lon="5.83132">
        <ele>1050</ele>
        <time>2022-09-22T11:17:15Z</time>
      </trkpt>
      <trkpt lat="44.12933" lon="5.83134">
        <ele>1050</ele>
        <time>2022-09-22T11:17:16Z</time>
      </trkpt>
      <trkpt lat="44.12932" lon="5.83135">
        <ele>1050</ele>
        <time>2022-09-22T11:17:17Z</time>
      </trkpt>
      <trkpt lat="44.12931" lon="5.83136">
        <ele>1050</ele>
        <time>2022-09-22T11:17:18Z</time>
      </trkpt>
      <trkpt lat="44.12931" lon="5.83137">
        <ele>1050</ele>
        <time>2022-09-22T11:17:19Z</time>
      </trkpt>
      <trkpt lat="44.1293" lon="5.83138">
        <ele>1050</ele>
        <time>2022-09-22T11:17:20Z</time>
      </trkpt>
      <trkpt lat="44.1293" lon="5.83139">
        <ele>1050</ele>
        <time>2022-09-22T11:17:21Z</time>
      </trkpt>
      <trkpt lat="44.12929" lon="5.83139">
        <ele>1050</ele>
        <time>2022-09-22T11:17:22Z</time>
      </trkpt>
      <trkpt lat="44.12928" lon="5.8314">
        <ele>1050</ele>
        <time>2022-09-22T11:17:23Z</time>
      </trkpt>
      <trkpt lat="44.12928" lon="5.83141">
        <ele>1051</ele>
        <time>2022-09-22T11:17:24Z</time>
      </trkpt>
      <trkpt lat="44.12927" lon="5.83142">
        <ele>1051</ele>
        <time>2022-09-22T11:17:25Z</time>
      </trkpt>
      <trkpt lat="44.12926" lon="5.83143">
        <ele>1051</ele>
        <time>2022-09-22T11:17:26Z</time>
      </trkpt>
      <trkpt lat="44.12926" lon="5.83144">
        <ele>1051</ele>
        <time>2022-09-22T11:17:27Z</time>
      </trkpt>
      <trkpt lat="44.12925" lon="5.83145">
        <ele>1051</ele>
        <time>2022-09-22T11:17:28Z</time>
      </trkpt>
      <trkpt lat="44.12924" lon="5.83146">
        <ele>1051</ele>
        <time>2022-09-22T11:17:29Z</time>
      </trkpt>
      <trkpt lat="44.12924" lon="5.83147">
        <ele>1051</ele>
        <time>2022-09-22T11:17:30Z</time>
      </trkpt>
      <trkpt lat="44.12923" lon="5.83147">
        <ele>1051</ele>
        <time>2022-09-22T11:17:31Z</time>
      </trkpt>
      <trkpt lat="44.12922" lon="5.83148">
        <ele>1051</ele>
        <time>2022-09-22T11:17:32Z</time>
      </trkpt>
      <trkpt lat="44.12921" lon="5.83149">
        <ele>1051</ele>
        <time>2022-09-22T11:17:33Z</time>
      </trkpt>
      <trkpt lat="44.12921" lon="5.8315">
        <ele>1052</ele>
        <time>2022-09-22T11:17:34Z</time>
      </trkpt>
      <trkpt lat="44.1292" lon="5.8315">
        <ele>1052</ele>
        <time>2022-09-22T11:17:35Z</time>
      </trkpt>
      <trkpt lat="44.12919" lon="5.83151">
        <ele>1052</ele>
        <time>2022-09-22T11:17:36Z</time>
      </trkpt>
      <trkpt lat="44.12919" lon="5.83152">
        <ele>1052</ele>
        <time>2022-09-22T11:17:37Z</time>
      </trkpt>
      <trkpt lat="44.12918" lon="5.83153">
        <ele>1052</ele>
        <time>2022-09-22T11:17:38Z</time>
      </trkpt>
      <trkpt lat="44.12918" lon="5.83154">
        <ele>1052</ele>
        <time>2022-09-22T11:17:39Z</time>
      </trkpt>
      <trkpt lat="44.12917" lon="5.83155">
        <ele>1052</ele>
        <time>2022-09-22T11:17:40Z</time>
      </trkpt>
      <trkpt lat="44.12916" lon="5.83156">
        <ele>1052</ele>
        <time>2022-09-22T11:17:41Z</time>
      </trkpt>
      <trkpt lat="44.12915" lon="5.83156">
        <ele>1052</ele>
        <time>2022-09-22T11:17:42Z</time>
      </trkpt>
      <trkpt lat="44.12914" lon="5.83157">
        <ele>1052</ele>
        <time>2022-09-22T11:17:43Z</time>
      </trkpt>
      <trkpt lat="44.12913" lon="5.83158">
        <ele>1053</ele>
        <time>2022-09-22T11:17:44Z</time>
      </trkpt>
      <trkpt lat="44.12913" lon="5.83159">
        <ele>1053</ele>
        <time>2022-09-22T11:17:45Z</time>
      </trkpt>
      <trkpt lat="44.12912" lon="5.8316">
        <ele>1053</ele>
        <time>2022-09-22T11:17:46Z</time>
      </trkpt>
      <trkpt lat="44.12911" lon="5.83161">
        <ele>1053</ele>
        <time>2022-09-22T11:17:47Z</time>
      </trkpt>
      <trkpt lat="44.1291" lon="5.83161">
        <ele>1053</ele>
        <time>2022-09-22T11:17:48Z</time>
      </trkpt>
      <trkpt lat="44.1291" lon="5.83162">
        <ele>1053</ele>
        <time>2022-09-22T11:17:49Z</time>
      </trkpt>
      <trkpt lat="44.12909" lon="5.83163">
        <ele>1053</ele>
        <time>2022-09-22T11:17:50Z</time>
      </trkpt>
      <trkpt lat="44.12908" lon="5.83164">
        <ele>1053</ele>
        <time>2022-09-22T11:17:51Z</time>
      </trkpt>
      <trkpt lat="44.12907" lon="5.83164">
        <ele>1053</ele>
        <time>2022-09-22T11:17:52Z</time>
      </trkpt>
      <trkpt lat="44.12906" lon="5.83165">
        <ele>1053</ele>
        <time>2022-09-22T11:17:53Z</time>
      </trkpt>
      <trkpt lat="44.12905" lon="5.83166">
        <ele>1054</ele>
        <time>2022-09-22T11:17:54Z</time>
      </trkpt>
      <trkpt lat="44.12904" lon="5.83166">
        <ele>1054</ele>
        <time>2022-09-22T11:17:55Z</time>
      </trkpt>
      <trkpt lat="44.12903" lon="5.83167">
        <ele>1054</ele>
        <time>2022-09-22T11:17:56Z</time>
      </trkpt>
      <trkpt lat="44.12902" lon="5.83168">
        <ele>1054</ele>
        <time>2022-09-22T11:17:57Z</time>
      </trkpt>
      <trkpt lat="44.12902" lon="5.83169">
        <ele>1054</ele>
        <time>2022-09-22T11:17:58Z</time>
      </trkpt>
      <trkpt lat="44.12901" lon="5.8317">
        <ele>1054</ele>
        <time>2022-09-22T11:17:59Z</time>
      </trkpt>
      <trkpt lat="44.129" lon="5.83171">
        <ele>1054</ele>
        <time>2022-09-22T11:18:00Z</time>
      </trkpt>
      <trkpt lat="44.12899" lon="5.83172">
        <ele>1054</ele>
        <time>2022-09-22T11:18:01Z</time>
      </trkpt>
      <trkpt lat="44.12899" lon="5.83173">
        <ele>1054</ele>
        <time>2022-09-22T11:18:02Z</time>
      </trkpt>
      <trkpt lat="44.12898" lon="5.83174">
        <ele>1054</ele>
        <time>2022-09-22T11:18:03Z</time>
      </trkpt>
      <trkpt lat="44.12897" lon="5.83175">
        <ele>1055</ele>
        <time>2022-09-22T11:18:04Z</time>
      </trkpt>
      <trkpt lat="44.12897" lon="5.83176">
        <ele>1055</ele>
        <time>2022-09-22T11:18:05Z</time>
      </trkpt>
      <trkpt lat="44.12896" lon="5.83177">
        <ele>1055</ele>
        <time>2022-09-22T11:18:06Z</time>
      </trkpt>
      <trkpt lat="44.12896" lon="5.83178">
        <ele>1055</ele>
        <time>2022-09-22T11:18:07Z</time>
      </trkpt>
      <trkpt lat="44.12895" lon="5.83179">
        <ele>1055</ele>
        <time>2022-09-22T11:18:08Z</time>
      </trkpt>
      <trkpt lat="44.12894" lon="5.8318">
        <ele>1055</ele>
        <time>2022-09-22T11:18:09Z</time>
      </trkpt>
      <trkpt lat="44.12894" lon="5.83182">
        <ele>1055</ele>
        <time>2022-09-22T11:18:10Z</time>
      </trkpt>
      <trkpt lat="44.12894" lon="5.83183">
        <ele>1055</ele>
        <time>2022-09-22T11:18:11Z</time>
      </trkpt>
      <trkpt lat="44.12893" lon="5.83184">
        <ele>1055</ele>
        <time>2022-09-22T11:18:12Z</time>
      </trkpt>
      <trkpt lat="44.12893" lon="5.83185">
        <ele>1055</ele>
        <time>2022-09-22T11:18:13Z</time>
      </trkpt>
      <trkpt lat="44.12893" lon="5.83186">
        <ele>1056</ele>
        <time>2022-09-22T11:18:14Z</time>
      </trkpt>
      <trkpt lat="44.12893" lon="5.83187">
        <ele>1056</ele>
        <time>2022-09-22T11:18:15Z</time>
      </trkpt>
      <trkpt lat="44.12892" lon="5.83189">
        <ele>1056</ele>
        <time>2022-09-22T11:18:16Z</time>
      </trkpt>
      <trkpt lat="44.12892" lon="5.8319">
        <ele>1056</ele>
        <time>2022-09-22T11:18:17Z</time>
      </trkpt>
      <trkpt lat="44.12891" lon="5.83191">
        <ele>1056</ele>
        <time>2022-09-22T11:18:18Z</time>
      </trkpt>
      <trkpt lat="44.12891" lon="5.83193">
        <ele>1056</ele>
        <time>2022-09-22T11:18:19Z</time>
      </trkpt>
      <trkpt lat="44.12891" lon="5.83194">
        <ele>1056</ele>
        <time>2022-09-22T11:18:20Z</time>
      </trkpt>
      <trkpt lat="44.1289" lon="5.83196">
        <ele>1056</ele>
        <time>2022-09-22T11:18:21Z</time>
      </trkpt>
      <trkpt lat="44.1289" lon="5.83197">
        <ele>1056</ele>
        <time>2022-09-22T11:18:22Z</time>
      </trkpt>
      <trkpt lat="44.1289" lon="5.83198">
        <ele>1056</ele>
        <time>2022-09-22T11:18:23Z</time>
      </trkpt>
      <trkpt lat="44.12889" lon="5.83199">
        <ele>1056</ele>
        <time>2022-09-22T11:18:24Z</time>
      </trkpt>
      <trkpt lat="44.12889" lon="5.832">
        <ele>1056</ele>
        <time>2022-09-22T11:18:25Z</time>
      </trkpt>
      <trkpt lat="44.12889" lon="5.83201">
        <ele>1056</ele>
        <time>2022-09-22T11:18:26Z</time>
      </trkpt>
      <trkpt lat="44.12889" lon="5.83202">
        <ele>1056</ele>
        <time>2022-09-22T11:18:27Z</time>
      </trkpt>
      <trkpt lat="44.12889" lon="5.83204">
        <ele>1056</ele>
        <time>2022-09-22T11:18:28Z</time>
      </trkpt>
      <trkpt lat="44.12889" lon="5.83205">
        <ele>1056</ele>
        <time>2022-09-22T11:18:29Z</time>
      </trkpt>
      <trkpt lat="44.12889" lon="5.83207">
        <ele>1056</ele>
        <time>2022-09-22T11:18:30Z</time>
      </trkpt>
      <trkpt lat="44.12889" lon="5.83209">
        <ele>1056</ele>
        <time>2022-09-22T11:18:31Z</time>
      </trkpt>
      <trkpt lat="44.12889" lon="5.83211">
        <ele>1056</ele>
        <time>2022-09-22T11:18:32Z</time>
      </trkpt>
      <trkpt lat="44.12889" lon="5.83213">
        <ele>1056</ele>
        <time>2022-09-22T11:18:33Z</time>
      </trkpt>
      <trkpt lat="44.12888" lon="5.83215">
        <ele>1056</ele>
        <time>2022-09-22T11:18:34Z</time>
      </trkpt>
      <trkpt lat="44.12888" lon="5.83216">
        <ele>1056</ele>
        <time>2022-09-22T11:18:35Z</time>
      </trkpt>
      <trkpt lat="44.12888" lon="5.83218">
        <ele>1056</ele>
        <time>2022-09-22T11:18:36Z</time>
      </trkpt>
      <trkpt lat="44.12888" lon="5.83219">
        <ele>1056</ele>
        <time>2022-09-22T11:18:37Z</time>
      </trkpt>
      <trkpt lat="44.12887" lon="5.8322">
        <ele>1056</ele>
        <time>2022-09-22T11:18:38Z</time>
      </trkpt>
      <trkpt lat="44.12887" lon="5.83222">
        <ele>1056</ele>
        <time>2022-09-22T11:18:39Z</time>
      </trkpt>
      <trkpt lat="44.12886" lon="5.83223">
        <ele>1056</ele>
        <time>2022-09-22T11:18:40Z</time>
      </trkpt>
      <trkpt lat="44.12886" lon="5.83225">
        <ele>1056</ele>
        <time>2022-09-22T11:18:41Z</time>
      </trkpt>
      <trkpt lat="44.12885" lon="5.83226">
        <ele>1056</ele>
        <time>2022-09-22T11:18:42Z</time>
      </trkpt>
      <trkpt lat="44.12885" lon="5.83228">
        <ele>1056</ele>
        <time>2022-09-22T11:18:43Z</time>
      </trkpt>
      <trkpt lat="44.12884" lon="5.83229">
        <ele>1056</ele>
        <time>2022-09-22T11:18:44Z</time>
      </trkpt>
      <trkpt lat="44.12884" lon="5.83231">
        <ele>1056</ele>
        <time>2022-09-22T11:18:45Z</time>
      </trkpt>
      <trkpt lat="44.12884" lon="5.83232">
        <ele>1056</ele>
        <time>2022-09-22T11:18:46Z</time>
      </trkpt>
      <trkpt lat="44.12883" lon="5.83234">
        <ele>1056</ele>
        <time>2022-09-22T11:18:47Z</time>
      </trkpt>
      <trkpt lat="44.12883" lon="5.83236">
        <ele>1056</ele>
        <time>2022-09-22T11:18:48Z</time>
      </trkpt>
      <trkpt lat="44.12883" lon="5.83238">
        <ele>1056</ele>
        <time>2022-09-22T11:18:49Z</time>
      </trkpt>
      <trkpt lat="44.12883" lon="5.8324">
        <ele>1056</ele>
        <time>2022-09-22T11:18:50Z</time>
      </trkpt>
      <trkpt lat="44.12883" lon="5.83241">
        <ele>1056</ele>
        <time>2022-09-22T11:18:51Z</time>
      </trkpt>
      <trkpt lat="44.12883" lon="5.83243">
        <ele>1056</ele>
        <time>2022-09-22T11:18:52Z</time>
      </trkpt>
      <trkpt lat="44.12883" lon="5.83245">
        <ele>1056</ele>
        <time>2022-09-22T11:18:53Z</time>
      </trkpt>
      <trkpt lat="44.12882" lon="5.83247">
        <ele>1057</ele>
        <time>2022-09-22T11:18:54Z</time>
      </trkpt>
      <trkpt lat="44.12882" lon="5.83249">
        <ele>1057</ele>
        <time>2022-09-22T11:18:55Z</time>
      </trkpt>
      <trkpt lat="44.12882" lon="5.8325">
        <ele>1057</ele>
        <time>2022-09-22T11:18:56Z</time>
      </trkpt>
      <trkpt lat="44.12882" lon="5.83252">
        <ele>1057</ele>
        <time>2022-09-22T11:18:57Z</time>
      </trkpt>
      <trkpt lat="44.12881" lon="5.83253">
        <ele>1057</ele>
        <time>2022-09-22T11:18:58Z</time>
      </trkpt>
      <trkpt lat="44.12881" lon="5.83254">
        <ele>1057</ele>
        <time>2022-09-22T11:18:59Z</time>
      </trkpt>
      <trkpt lat="44.1288" lon="5.83255">
        <ele>1057</ele>
        <time>2022-09-22T11:19:00Z</time>
      </trkpt>
      <trkpt lat="44.12879" lon="5.83257">
        <ele>1057</ele>
        <time>2022-09-22T11:19:01Z</time>
      </trkpt>
      <trkpt lat="44.12878" lon="5.83258">
        <ele>1057</ele>
        <time>2022-09-22T11:19:02Z</time>
      </trkpt>
      <trkpt lat="44.12877" lon="5.8326">
        <ele>1057</ele>
        <time>2022-09-22T11:19:03Z</time>
      </trkpt>
      <trkpt lat="44.12877" lon="5.83261">
        <ele>1057</ele>
        <time>2022-09-22T11:19:04Z</time>
      </trkpt>
      <trkpt lat="44.12876" lon="5.83263">
        <ele>1057</ele>
        <time>2022-09-22T11:19:05Z</time>
      </trkpt>
      <trkpt lat="44.12875" lon="5.83264">
        <ele>1057</ele>
        <time>2022-09-22T11:19:06Z</time>
      </trkpt>
      <trkpt lat="44.12874" lon="5.83265">
        <ele>1057</ele>
        <time>2022-09-22T11:19:07Z</time>
      </trkpt>
      <trkpt lat="44.12874" lon="5.83266">
        <ele>1057</ele>
        <time>2022-09-22T11:19:08Z</time>
      </trkpt>
      <trkpt lat="44.12873" lon="5.83268">
        <ele>1057</ele>
        <time>2022-09-22T11:19:09Z</time>
      </trkpt>
      <trkpt lat="44.12873" lon="5.83269">
        <ele>1057</ele>
        <time>2022-09-22T11:19:10Z</time>
      </trkpt>
      <trkpt lat="44.12872" lon="5.8327">
        <ele>1057</ele>
        <time>2022-09-22T11:19:11Z</time>
      </trkpt>
      <trkpt lat="44.12872" lon="5.83272">
        <ele>1057</ele>
        <time>2022-09-22T11:19:12Z</time>
      </trkpt>
      <trkpt lat="44.12871" lon="5.83273">
        <ele>1057</ele>
        <time>2022-09-22T11:19:13Z</time>
      </trkpt>
      <trkpt lat="44.12871" lon="5.83275">
        <ele>1057</ele>
        <time>2022-09-22T11:19:14Z</time>
      </trkpt>
      <trkpt lat="44.1287" lon="5.83276">
        <ele>1057</ele>
        <time>2022-09-22T11:19:15Z</time>
      </trkpt>
      <trkpt lat="44.1287" lon="5.83277">
        <ele>1057</ele>
        <time>2022-09-22T11:19:16Z</time>
      </trkpt>
      <trkpt lat="44.12869" lon="5.83279">
        <ele>1057</ele>
        <time>2022-09-22T11:19:17Z</time>
      </trkpt>
      <trkpt lat="44.12869" lon="5.8328">
        <ele>1057</ele>
        <time>2022-09-22T11:19:18Z</time>
      </trkpt>
      <trkpt lat="44.12868" lon="5.83282">
        <ele>1057</ele>
        <time>2022-09-22T11:19:19Z</time>
      </trkpt>
      <trkpt lat="44.12868" lon="5.83283">
        <ele>1057</ele>
        <time>2022-09-22T11:19:20Z</time>
      </trkpt>
      <trkpt lat="44.12868" lon="5.83285">
        <ele>1057</ele>
        <time>2022-09-22T11:19:21Z</time>
      </trkpt>
      <trkpt lat="44.12867" lon="5.83286">
        <ele>1058</ele>
        <time>2022-09-22T11:19:22Z</time>
      </trkpt>
      <trkpt lat="44.12867" lon="5.83287">
        <ele>1058</ele>
        <time>2022-09-22T11:19:23Z</time>
      </trkpt>
      <trkpt lat="44.12867" lon="5.83289">
        <ele>1059</ele>
        <time>2022-09-22T11:19:24Z</time>
      </trkpt>
      <trkpt lat="44.12866" lon="5.8329">
        <ele>1059</ele>
        <time>2022-09-22T11:19:25Z</time>
      </trkpt>
      <trkpt lat="44.12866" lon="5.83291">
        <ele>1059</ele>
        <time>2022-09-22T11:19:26Z</time>
      </trkpt>
      <trkpt lat="44.12865" lon="5.83293">
        <ele>1059</ele>
        <time>2022-09-22T11:19:27Z</time>
      </trkpt>
      <trkpt lat="44.12865" lon="5.83294">
        <ele>1059</ele>
        <time>2022-09-22T11:19:28Z</time>
      </trkpt>
      <trkpt lat="44.12864" lon="5.83296">
        <ele>1059</ele>
        <time>2022-09-22T11:19:29Z</time>
      </trkpt>
      <trkpt lat="44.12864" lon="5.83297">
        <ele>1059</ele>
        <time>2022-09-22T11:19:30Z</time>
      </trkpt>
      <trkpt lat="44.12863" lon="5.83298">
        <ele>1059</ele>
        <time>2022-09-22T11:19:31Z</time>
      </trkpt>
      <trkpt lat="44.12863" lon="5.833">
        <ele>1059</ele>
        <time>2022-09-22T11:19:32Z</time>
      </trkpt>
      <trkpt lat="44.12862" lon="5.83301">
        <ele>1059</ele>
        <time>2022-09-22T11:19:33Z</time>
      </trkpt>
      <trkpt lat="44.12862" lon="5.83302">
        <ele>1060</ele>
        <time>2022-09-22T11:19:34Z</time>
      </trkpt>
      <trkpt lat="44.12862" lon="5.83303">
        <ele>1060</ele>
        <time>2022-09-22T11:19:35Z</time>
      </trkpt>
      <trkpt lat="44.12861" lon="5.83304">
        <ele>1060</ele>
        <time>2022-09-22T11:19:36Z</time>
      </trkpt>
      <trkpt lat="44.12861" lon="5.83305">
        <ele>1060</ele>
        <time>2022-09-22T11:19:37Z</time>
      </trkpt>
      <trkpt lat="44.1286" lon="5.83306">
        <ele>1060</ele>
        <time>2022-09-22T11:19:38Z</time>
      </trkpt>
      <trkpt lat="44.12859" lon="5.83307">
        <ele>1060</ele>
        <time>2022-09-22T11:19:39Z</time>
      </trkpt>
      <trkpt lat="44.12859" lon="5.83308">
        <ele>1060</ele>
        <time>2022-09-22T11:19:40Z</time>
      </trkpt>
      <trkpt lat="44.12858" lon="5.8331">
        <ele>1060</ele>
        <time>2022-09-22T11:19:41Z</time>
      </trkpt>
      <trkpt lat="44.12858" lon="5.83311">
        <ele>1060</ele>
        <time>2022-09-22T11:19:42Z</time>
      </trkpt>
      <trkpt lat="44.12857" lon="5.83312">
        <ele>1060</ele>
        <time>2022-09-22T11:19:43Z</time>
      </trkpt>
      <trkpt lat="44.12856" lon="5.83313">
        <ele>1061</ele>
        <time>2022-09-22T11:19:44Z</time>
      </trkpt>
      <trkpt lat="44.12855" lon="5.83314">
        <ele>1061</ele>
        <time>2022-09-22T11:19:45Z</time>
      </trkpt>
      <trkpt lat="44.12855" lon="5.83314">
        <ele>1061</ele>
        <time>2022-09-22T11:19:46Z</time>
      </trkpt>
      <trkpt lat="44.12854" lon="5.83315">
        <ele>1061</ele>
        <time>2022-09-22T11:19:47Z</time>
      </trkpt>
      <trkpt lat="44.12853" lon="5.83316">
        <ele>1061</ele>
        <time>2022-09-22T11:19:48Z</time>
      </trkpt>
      <trkpt lat="44.12852" lon="5.83317">
        <ele>1062</ele>
        <time>2022-09-22T11:19:49Z</time>
      </trkpt>
      <trkpt lat="44.12851" lon="5.83317">
        <ele>1062</ele>
        <time>2022-09-22T11:19:50Z</time>
      </trkpt>
      <trkpt lat="44.1285" lon="5.83318">
        <ele>1062</ele>
        <time>2022-09-22T11:19:51Z</time>
      </trkpt>
      <trkpt lat="44.12849" lon="5.83318">
        <ele>1062</ele>
        <time>2022-09-22T11:19:52Z</time>
      </trkpt>
      <trkpt lat="44.12848" lon="5.83319">
        <ele>1062</ele>
        <time>2022-09-22T11:19:53Z</time>
      </trkpt>
      <trkpt lat="44.12847" lon="5.8332">
        <ele>1062</ele>
        <time>2022-09-22T11:19:54Z</time>
      </trkpt>
      <trkpt lat="44.12846" lon="5.8332">
        <ele>1062</ele>
        <time>2022-09-22T11:19:55Z</time>
      </trkpt>
      <trkpt lat="44.12845" lon="5.83321">
        <ele>1062</ele>
        <time>2022-09-22T11:19:56Z</time>
      </trkpt>
      <trkpt lat="44.12844" lon="5.83321">
        <ele>1062</ele>
        <time>2022-09-22T11:19:57Z</time>
      </trkpt>
      <trkpt lat="44.12842" lon="5.83321">
        <ele>1062</ele>
        <time>2022-09-22T11:19:58Z</time>
      </trkpt>
      <trkpt lat="44.12841" lon="5.83322">
        <ele>1062</ele>
        <time>2022-09-22T11:19:59Z</time>
      </trkpt>
      <trkpt lat="44.12841" lon="5.83322">
        <ele>1062</ele>
        <time>2022-09-22T11:20:00Z</time>
      </trkpt>
      <trkpt lat="44.1284" lon="5.83322">
        <ele>1062</ele>
        <time>2022-09-22T11:20:01Z</time>
      </trkpt>
      <trkpt lat="44.12839" lon="5.83322">
        <ele>1062</ele>
        <time>2022-09-22T11:20:02Z</time>
      </trkpt>
      <trkpt lat="44.12838" lon="5.83322">
        <ele>1062</ele>
        <time>2022-09-22T11:20:03Z</time>
      </trkpt>
      <trkpt lat="44.12837" lon="5.83322">
        <ele>1062</ele>
        <time>2022-09-22T11:20:04Z</time>
      </trkpt>
      <trkpt lat="44.12836" lon="5.83322">
        <ele>1062</ele>
        <time>2022-09-22T11:20:05Z</time>
      </trkpt>
      <trkpt lat="44.12835" lon="5.83322">
        <ele>1062</ele>
        <time>2022-09-22T11:20:06Z</time>
      </trkpt>
      <trkpt lat="44.12834" lon="5.83321">
        <ele>1062</ele>
        <time>2022-09-22T11:20:07Z</time>
      </trkpt>
      <trkpt lat="44.12833" lon="5.83321">
        <ele>1062</ele>
        <time>2022-09-22T11:20:08Z</time>
      </trkpt>
      <trkpt lat="44.12832" lon="5.8332">
        <ele>1062</ele>
        <time>2022-09-22T11:20:09Z</time>
      </trkpt>
      <trkpt lat="44.12831" lon="5.8332">
        <ele>1062</ele>
        <time>2022-09-22T11:20:10Z</time>
      </trkpt>
      <trkpt lat="44.12831" lon="5.83319">
        <ele>1062</ele>
        <time>2022-09-22T11:20:11Z</time>
      </trkpt>
      <trkpt lat="44.1283" lon="5.83319">
        <ele>1062</ele>
        <time>2022-09-22T11:20:12Z</time>
      </trkpt>
      <trkpt lat="44.12829" lon="5.83318">
        <ele>1062</ele>
        <time>2022-09-22T11:20:13Z</time>
      </trkpt>
      <trkpt lat="44.12829" lon="5.83318">
        <ele>1062</ele>
        <time>2022-09-22T11:20:14Z</time>
      </trkpt>
      <trkpt lat="44.12828" lon="5.83317">
        <ele>1062</ele>
        <time>2022-09-22T11:20:15Z</time>
      </trkpt>
      <trkpt lat="44.12827" lon="5.83317">
        <ele>1062</ele>
        <time>2022-09-22T11:20:16Z</time>
      </trkpt>
      <trkpt lat="44.12826" lon="5.83316">
        <ele>1062</ele>
        <time>2022-09-22T11:20:17Z</time>
      </trkpt>
      <trkpt lat="44.12825" lon="5.83316">
        <ele>1062</ele>
        <time>2022-09-22T11:20:18Z</time>
      </trkpt>
      <trkpt lat="44.12824" lon="5.83316">
        <ele>1062</ele>
        <time>2022-09-22T11:20:19Z</time>
      </trkpt>
      <trkpt lat="44.12824" lon="5.83315">
        <ele>1062</ele>
        <time>2022-09-22T11:20:20Z</time>
      </trkpt>
      <trkpt lat="44.12823" lon="5.83315">
        <ele>1062</ele>
        <time>2022-09-22T11:20:21Z</time>
      </trkpt>
      <trkpt lat="44.12823" lon="5.83315">
        <ele>1062</ele>
        <time>2022-09-22T11:20:22Z</time>
      </trkpt>
      <trkpt lat="44.12822" lon="5.83314">
        <ele>1062</ele>
        <time>2022-09-22T11:20:23Z</time>
      </trkpt>
      <trkpt lat="44.12822" lon="5.83314">
        <ele>1063</ele>
        <time>2022-09-22T11:20:24Z</time>
      </trkpt>
      <trkpt lat="44.12821" lon="5.83313">
        <ele>1063</ele>
        <time>2022-09-22T11:20:25Z</time>
      </trkpt>
      <trkpt lat="44.1282" lon="5.83313">
        <ele>1063</ele>
        <time>2022-09-22T11:20:26Z</time>
      </trkpt>
      <trkpt lat="44.12819" lon="5.83312">
        <ele>1063</ele>
        <time>2022-09-22T11:20:27Z</time>
      </trkpt>
      <trkpt lat="44.12818" lon="5.83312">
        <ele>1063</ele>
        <time>2022-09-22T11:20:28Z</time>
      </trkpt>
      <trkpt lat="44.12817" lon="5.83311">
        <ele>1063</ele>
        <time>2022-09-22T11:20:29Z</time>
      </trkpt>
      <trkpt lat="44.12816" lon="5.83311">
        <ele>1063</ele>
        <time>2022-09-22T11:20:30Z</time>
      </trkpt>
      <trkpt lat="44.12815" lon="5.8331">
        <ele>1063</ele>
        <time>2022-09-22T11:20:31Z</time>
      </trkpt>
      <trkpt lat="44.12814" lon="5.8331">
        <ele>1063</ele>
        <time>2022-09-22T11:20:32Z</time>
      </trkpt>
      <trkpt lat="44.12813" lon="5.83309">
        <ele>1063</ele>
        <time>2022-09-22T11:20:33Z</time>
      </trkpt>
      <trkpt lat="44.12812" lon="5.83309">
        <ele>1063</ele>
        <time>2022-09-22T11:20:34Z</time>
      </trkpt>
      <trkpt lat="44.12811" lon="5.83308">
        <ele>1063</ele>
        <time>2022-09-22T11:20:35Z</time>
      </trkpt>
      <trkpt lat="44.1281" lon="5.83308">
        <ele>1063</ele>
        <time>2022-09-22T11:20:36Z</time>
      </trkpt>
      <trkpt lat="44.12809" lon="5.83307">
        <ele>1063</ele>
        <time>2022-09-22T11:20:37Z</time>
      </trkpt>
      <trkpt lat="44.12808" lon="5.83307">
        <ele>1063</ele>
        <time>2022-09-22T11:20:38Z</time>
      </trkpt>
      <trkpt lat="44.12807" lon="5.83306">
        <ele>1063</ele>
        <time>2022-09-22T11:20:39Z</time>
      </trkpt>
      <trkpt lat="44.12807" lon="5.83305">
        <ele>1063</ele>
        <time>2022-09-22T11:20:40Z</time>
      </trkpt>
      <trkpt lat="44.12806" lon="5.83305">
        <ele>1063</ele>
        <time>2022-09-22T11:20:41Z</time>
      </trkpt>
      <trkpt lat="44.12805" lon="5.83304">
        <ele>1063</ele>
        <time>2022-09-22T11:20:42Z</time>
      </trkpt>
      <trkpt lat="44.12804" lon="5.83303">
        <ele>1063</ele>
        <time>2022-09-22T11:20:43Z</time>
      </trkpt>
      <trkpt lat="44.12803" lon="5.83302">
        <ele>1063</ele>
        <time>2022-09-22T11:20:44Z</time>
      </trkpt>
      <trkpt lat="44.12802" lon="5.83302">
        <ele>1063</ele>
        <time>2022-09-22T11:20:45Z</time>
      </trkpt>
      <trkpt lat="44.12801" lon="5.83301">
        <ele>1063</ele>
        <time>2022-09-22T11:20:46Z</time>
      </trkpt>
      <trkpt lat="44.128" lon="5.833">
        <ele>1063</ele>
        <time>2022-09-22T11:20:47Z</time>
      </trkpt>
      <trkpt lat="44.12799" lon="5.833">
        <ele>1063</ele>
        <time>2022-09-22T11:20:48Z</time>
      </trkpt>
      <trkpt lat="44.12799" lon="5.83299">
        <ele>1063</ele>
        <time>2022-09-22T11:20:49Z</time>
      </trkpt>
      <trkpt lat="44.12798" lon="5.83298">
        <ele>1063</ele>
        <time>2022-09-22T11:20:50Z</time>
      </trkpt>
      <trkpt lat="44.12797" lon="5.83297">
        <ele>1063</ele>
        <time>2022-09-22T11:20:51Z</time>
      </trkpt>
      <trkpt lat="44.12796" lon="5.83296">
        <ele>1063</ele>
        <time>2022-09-22T11:20:52Z</time>
      </trkpt>
      <trkpt lat="44.12795" lon="5.83296">
        <ele>1063</ele>
        <time>2022-09-22T11:20:53Z</time>
      </trkpt>
      <trkpt lat="44.12795" lon="5.83295">
        <ele>1063</ele>
        <time>2022-09-22T11:20:54Z</time>
      </trkpt>
      <trkpt lat="44.12794" lon="5.83294">
        <ele>1063</ele>
        <time>2022-09-22T11:20:55Z</time>
      </trkpt>
      <trkpt lat="44.12793" lon="5.83293">
        <ele>1063</ele>
        <time>2022-09-22T11:20:56Z</time>
      </trkpt>
      <trkpt lat="44.12792" lon="5.83292">
        <ele>1063</ele>
        <time>2022-09-22T11:20:57Z</time>
      </trkpt>
      <trkpt lat="44.12791" lon="5.83292">
        <ele>1063</ele>
        <time>2022-09-22T11:20:58Z</time>
      </trkpt>
      <trkpt lat="44.1279" lon="5.83291">
        <ele>1063</ele>
        <time>2022-09-22T11:20:59Z</time>
      </trkpt>
      <trkpt lat="44.12789" lon="5.8329">
        <ele>1063</ele>
        <time>2022-09-22T11:21:00Z</time>
      </trkpt>
      <trkpt lat="44.12788" lon="5.8329">
        <ele>1063</ele>
        <time>2022-09-22T11:21:01Z</time>
      </trkpt>
      <trkpt lat="44.12787" lon="5.83289">
        <ele>1063</ele>
        <time>2022-09-22T11:21:02Z</time>
      </trkpt>
      <trkpt lat="44.12786" lon="5.83289">
        <ele>1063</ele>
        <time>2022-09-22T11:21:03Z</time>
      </trkpt>
      <trkpt lat="44.12785" lon="5.83289">
        <ele>1063</ele>
        <time>2022-09-22T11:21:04Z</time>
      </trkpt>
      <trkpt lat="44.12784" lon="5.83289">
        <ele>1063</ele>
        <time>2022-09-22T11:21:05Z</time>
      </trkpt>
      <trkpt lat="44.12782" lon="5.83288">
        <ele>1063</ele>
        <time>2022-09-22T11:21:06Z</time>
      </trkpt>
      <trkpt lat="44.12781" lon="5.83288">
        <ele>1063</ele>
        <time>2022-09-22T11:21:07Z</time>
      </trkpt>
      <trkpt lat="44.1278" lon="5.83288">
        <ele>1063</ele>
        <time>2022-09-22T11:21:08Z</time>
      </trkpt>
      <trkpt lat="44.12779" lon="5.83287">
        <ele>1063</ele>
        <time>2022-09-22T11:21:09Z</time>
      </trkpt>
      <trkpt lat="44.12779" lon="5.83287">
        <ele>1063</ele>
        <time>2022-09-22T11:21:10Z</time>
      </trkpt>
      <trkpt lat="44.12778" lon="5.83286">
        <ele>1063</ele>
        <time>2022-09-22T11:21:11Z</time>
      </trkpt>
      <trkpt lat="44.12777" lon="5.83285">
        <ele>1063</ele>
        <time>2022-09-22T11:21:12Z</time>
      </trkpt>
      <trkpt lat="44.12776" lon="5.83285">
        <ele>1063</ele>
        <time>2022-09-22T11:21:13Z</time>
      </trkpt>
      <trkpt lat="44.12775" lon="5.83285">
        <ele>1063</ele>
        <time>2022-09-22T11:21:14Z</time>
      </trkpt>
      <trkpt lat="44.12773" lon="5.83285">
        <ele>1063</ele>
        <time>2022-09-22T11:21:15Z</time>
      </trkpt>
      <trkpt lat="44.12772" lon="5.83284">
        <ele>1063</ele>
        <time>2022-09-22T11:21:16Z</time>
      </trkpt>
      <trkpt lat="44.12771" lon="5.83284">
        <ele>1063</ele>
        <time>2022-09-22T11:21:17Z</time>
      </trkpt>
      <trkpt lat="44.1277" lon="5.83284">
        <ele>1063</ele>
        <time>2022-09-22T11:21:18Z</time>
      </trkpt>
      <trkpt lat="44.12768" lon="5.83284">
        <ele>1063</ele>
        <time>2022-09-22T11:21:19Z</time>
      </trkpt>
      <trkpt lat="44.12767" lon="5.83284">
        <ele>1063</ele>
        <time>2022-09-22T11:21:20Z</time>
      </trkpt>
      <trkpt lat="44.12766" lon="5.83284">
        <ele>1063</ele>
        <time>2022-09-22T11:21:21Z</time>
      </trkpt>
      <trkpt lat="44.12765" lon="5.83284">
        <ele>1063</ele>
        <time>2022-09-22T11:21:22Z</time>
      </trkpt>
      <trkpt lat="44.12764" lon="5.83284">
        <ele>1063</ele>
        <time>2022-09-22T11:21:23Z</time>
      </trkpt>
      <trkpt lat="44.12762" lon="5.83284">
        <ele>1063</ele>
        <time>2022-09-22T11:21:24Z</time>
      </trkpt>
      <trkpt lat="44.12761" lon="5.83284">
        <ele>1063</ele>
        <time>2022-09-22T11:21:25Z</time>
      </trkpt>
      <trkpt lat="44.1276" lon="5.83284">
        <ele>1063</ele>
        <time>2022-09-22T11:21:26Z</time>
      </trkpt>
      <trkpt lat="44.12759" lon="5.83284">
        <ele>1063</ele>
        <time>2022-09-22T11:21:27Z</time>
      </trkpt>
      <trkpt lat="44.12758" lon="5.83284">
        <ele>1063</ele>
        <time>2022-09-22T11:21:28Z</time>
      </trkpt>
      <trkpt lat="44.12756" lon="5.83284">
        <ele>1063</ele>
        <time>2022-09-22T11:21:29Z</time>
      </trkpt>
      <trkpt lat="44.12755" lon="5.83284">
        <ele>1063</ele>
        <time>2022-09-22T11:21:30Z</time>
      </trkpt>
      <trkpt lat="44.12754" lon="5.83284">
        <ele>1063</ele>
        <time>2022-09-22T11:21:31Z</time>
      </trkpt>
      <trkpt lat="44.12753" lon="5.83284">
        <ele>1063</ele>
        <time>2022-09-22T11:21:32Z</time>
      </trkpt>
      <trkpt lat="44.12752" lon="5.83284">
        <ele>1063</ele>
        <time>2022-09-22T11:21:33Z</time>
      </trkpt>
      <trkpt lat="44.12751" lon="5.83284">
        <ele>1063</ele>
        <time>2022-09-22T11:21:34Z</time>
      </trkpt>
      <trkpt lat="44.12751" lon="5.83283">
        <ele>1063</ele>
        <time>2022-09-22T11:21:35Z</time>
      </trkpt>
      <trkpt lat="44.1275" lon="5.83283">
        <ele>1063</ele>
        <time>2022-09-22T11:21:36Z</time>
      </trkpt>
      <trkpt lat="44.12749" lon="5.83283">
        <ele>1063</ele>
        <time>2022-09-22T11:21:37Z</time>
      </trkpt>
      <trkpt lat="44.12748" lon="5.83283">
        <ele>1063</ele>
        <time>2022-09-22T11:21:38Z</time>
      </trkpt>
      <trkpt lat="44.12747" lon="5.83283">
        <ele>1064</ele>
        <time>2022-09-22T11:21:39Z</time>
      </trkpt>
      <trkpt lat="44.12746" lon="5.83283">
        <ele>1064</ele>
        <time>2022-09-22T11:21:40Z</time>
      </trkpt>
      <trkpt lat="44.12745" lon="5.83284">
        <ele>1064</ele>
        <time>2022-09-22T11:21:41Z</time>
      </trkpt>
      <trkpt lat="44.12744" lon="5.83284">
        <ele>1064</ele>
        <time>2022-09-22T11:21:42Z</time>
      </trkpt>
      <trkpt lat="44.12743" lon="5.83285">
        <ele>1064</ele>
        <time>2022-09-22T11:21:43Z</time>
      </trkpt>
      <trkpt lat="44.12742" lon="5.83285">
        <ele>1064</ele>
        <time>2022-09-22T11:21:44Z</time>
      </trkpt>
      <trkpt lat="44.12741" lon="5.83285">
        <ele>1064</ele>
        <time>2022-09-22T11:21:45Z</time>
      </trkpt>
      <trkpt lat="44.12739" lon="5.83285">
        <ele>1064</ele>
        <time>2022-09-22T11:21:46Z</time>
      </trkpt>
      <trkpt lat="44.12738" lon="5.83285">
        <ele>1064</ele>
        <time>2022-09-22T11:21:47Z</time>
      </trkpt>
      <trkpt lat="44.12737" lon="5.83285">
        <ele>1064</ele>
        <time>2022-09-22T11:21:48Z</time>
      </trkpt>
      <trkpt lat="44.12733" lon="5.83285">
        <ele>1064</ele>
        <time>2022-09-22T11:23:03Z</time>
      </trkpt>
      <trkpt lat="44.12731" lon="5.83285">
        <ele>1064</ele>
        <time>2022-09-22T11:23:04Z</time>
      </trkpt>
      <trkpt lat="44.1273" lon="5.83285">
        <ele>1064</ele>
        <time>2022-09-22T11:23:05Z</time>
      </trkpt>
      <trkpt lat="44.1273" lon="5.83285">
        <ele>1064</ele>
        <time>2022-09-22T11:23:06Z</time>
      </trkpt>
      <trkpt lat="44.1273" lon="5.83285">
        <ele>1064</ele>
        <time>2022-09-22T11:23:07Z</time>
      </trkpt>
      <trkpt lat="44.1273" lon="5.83286">
        <ele>1064</ele>
        <time>2022-09-22T11:23:08Z</time>
      </trkpt>
      <trkpt lat="44.1273" lon="5.83286">
        <ele>1064</ele>
        <time>2022-09-22T11:23:09Z</time>
      </trkpt>
      <trkpt lat="44.12731" lon="5.83286">
        <ele>1064</ele>
        <time>2022-09-22T11:23:10Z</time>
      </trkpt>
      <trkpt lat="44.12732" lon="5.83287">
        <ele>1064</ele>
        <time>2022-09-22T11:23:11Z</time>
      </trkpt>
      <trkpt lat="44.12732" lon="5.83287">
        <ele>1064</ele>
        <time>2022-09-22T11:23:12Z</time>
      </trkpt>
      <trkpt lat="44.12733" lon="5.83288">
        <ele>1064</ele>
        <time>2022-09-22T11:23:13Z</time>
      </trkpt>
      <trkpt lat="44.12733" lon="5.83289">
        <ele>1064</ele>
        <time>2022-09-22T11:23:14Z</time>
      </trkpt>
      <trkpt lat="44.12733" lon="5.83289">
        <ele>1064</ele>
        <time>2022-09-22T11:23:15Z</time>
      </trkpt>
      <trkpt lat="44.12733" lon="5.8329">
        <ele>1064</ele>
        <time>2022-09-22T11:23:16Z</time>
      </trkpt>
      <trkpt lat="44.12734" lon="5.83292">
        <ele>1064</ele>
        <time>2022-09-22T11:23:17Z</time>
      </trkpt>
      <trkpt lat="44.12734" lon="5.83293">
        <ele>1064</ele>
        <time>2022-09-22T11:23:18Z</time>
      </trkpt>
      <trkpt lat="44.12734" lon="5.83294">
        <ele>1064</ele>
        <time>2022-09-22T11:23:19Z</time>
      </trkpt>
      <trkpt lat="44.12734" lon="5.83295">
        <ele>1064</ele>
        <time>2022-09-22T11:23:20Z</time>
      </trkpt>
      <trkpt lat="44.12735" lon="5.83296">
        <ele>1064</ele>
        <time>2022-09-22T11:23:21Z</time>
      </trkpt>
      <trkpt lat="44.12735" lon="5.83297">
        <ele>1064</ele>
        <time>2022-09-22T11:23:22Z</time>
      </trkpt>
      <trkpt lat="44.12736" lon="5.83298">
        <ele>1064</ele>
        <time>2022-09-22T11:23:23Z</time>
      </trkpt>
      <trkpt lat="44.12736" lon="5.83299">
        <ele>1064</ele>
        <time>2022-09-22T11:23:24Z</time>
      </trkpt>
      <trkpt lat="44.12736" lon="5.83301">
        <ele>1064</ele>
        <time>2022-09-22T11:23:25Z</time>
      </trkpt>
      <trkpt lat="44.12736" lon="5.83302">
        <ele>1064</ele>
        <time>2022-09-22T11:23:26Z</time>
      </trkpt>
      <trkpt lat="44.12737" lon="5.83303">
        <ele>1064</ele>
        <time>2022-09-22T11:23:27Z</time>
      </trkpt>
      <trkpt lat="44.12737" lon="5.83304">
        <ele>1064</ele>
        <time>2022-09-22T11:23:28Z</time>
      </trkpt>
      <trkpt lat="44.12737" lon="5.83306">
        <ele>1065</ele>
        <time>2022-09-22T11:23:29Z</time>
      </trkpt>
      <trkpt lat="44.12737" lon="5.83307">
        <ele>1065</ele>
        <time>2022-09-22T11:23:30Z</time>
      </trkpt>
      <trkpt lat="44.12737" lon="5.83309">
        <ele>1065</ele>
        <time>2022-09-22T11:23:31Z</time>
      </trkpt>
      <trkpt lat="44.12737" lon="5.8331">
        <ele>1065</ele>
        <time>2022-09-22T11:23:32Z</time>
      </trkpt>
      <trkpt lat="44.12737" lon="5.83311">
        <ele>1065</ele>
        <time>2022-09-22T11:23:33Z</time>
      </trkpt>
      <trkpt lat="44.12737" lon="5.83313">
        <ele>1065</ele>
        <time>2022-09-22T11:23:34Z</time>
      </trkpt>
      <trkpt lat="44.12737" lon="5.83314">
        <ele>1065</ele>
        <time>2022-09-22T11:23:35Z</time>
      </trkpt>
      <trkpt lat="44.12737" lon="5.83315">
        <ele>1065</ele>
        <time>2022-09-22T11:23:36Z</time>
      </trkpt>
      <trkpt lat="44.12737" lon="5.83316">
        <ele>1065</ele>
        <time>2022-09-22T11:23:37Z</time>
      </trkpt>
      <trkpt lat="44.12737" lon="5.83317">
        <ele>1065</ele>
        <time>2022-09-22T11:23:38Z</time>
      </trkpt>
      <trkpt lat="44.12737" lon="5.83319">
        <ele>1065</ele>
        <time>2022-09-22T11:23:39Z</time>
      </trkpt>
      <trkpt lat="44.12737" lon="5.8332">
        <ele>1064</ele>
        <time>2022-09-22T11:23:40Z</time>
      </trkpt>
      <trkpt lat="44.12737" lon="5.83322">
        <ele>1064</ele>
        <time>2022-09-22T11:23:41Z</time>
      </trkpt>
      <trkpt lat="44.12737" lon="5.83323">
        <ele>1064</ele>
        <time>2022-09-22T11:23:42Z</time>
      </trkpt>
      <trkpt lat="44.12737" lon="5.83325">
        <ele>1064</ele>
        <time>2022-09-22T11:23:43Z</time>
      </trkpt>
      <trkpt lat="44.12737" lon="5.83326">
        <ele>1064</ele>
        <time>2022-09-22T11:23:44Z</time>
      </trkpt>
      <trkpt lat="44.12736" lon="5.83328">
        <ele>1064</ele>
        <time>2022-09-22T11:23:45Z</time>
      </trkpt>
      <trkpt lat="44.12736" lon="5.83329">
        <ele>1064</ele>
        <time>2022-09-22T11:23:46Z</time>
      </trkpt>
      <trkpt lat="44.12735" lon="5.83331">
        <ele>1064</ele>
        <time>2022-09-22T11:23:47Z</time>
      </trkpt>
      <trkpt lat="44.12735" lon="5.83332">
        <ele>1064</ele>
        <time>2022-09-22T11:23:48Z</time>
      </trkpt>
      <trkpt lat="44.12734" lon="5.83333">
        <ele>1064</ele>
        <time>2022-09-22T11:23:49Z</time>
      </trkpt>
      <trkpt lat="44.12733" lon="5.83335">
        <ele>1064</ele>
        <time>2022-09-22T11:23:50Z</time>
      </trkpt>
      <trkpt lat="44.12732" lon="5.83336">
        <ele>1064</ele>
        <time>2022-09-22T11:23:51Z</time>
      </trkpt>
      <trkpt lat="44.12732" lon="5.83337">
        <ele>1064</ele>
        <time>2022-09-22T11:23:52Z</time>
      </trkpt>
      <trkpt lat="44.12731" lon="5.83338">
        <ele>1064</ele>
        <time>2022-09-22T11:23:53Z</time>
      </trkpt>
      <trkpt lat="44.12731" lon="5.8334">
        <ele>1064</ele>
        <time>2022-09-22T11:23:54Z</time>
      </trkpt>
      <trkpt lat="44.1273" lon="5.83341">
        <ele>1064</ele>
        <time>2022-09-22T11:23:55Z</time>
      </trkpt>
      <trkpt lat="44.1273" lon="5.83342">
        <ele>1064</ele>
        <time>2022-09-22T11:23:56Z</time>
      </trkpt>
      <trkpt lat="44.1273" lon="5.83344">
        <ele>1064</ele>
        <time>2022-09-22T11:23:57Z</time>
      </trkpt>
      <trkpt lat="44.12729" lon="5.83345">
        <ele>1064</ele>
        <time>2022-09-22T11:23:58Z</time>
      </trkpt>
      <trkpt lat="44.12729" lon="5.83346">
        <ele>1064</ele>
        <time>2022-09-22T11:23:59Z</time>
      </trkpt>
      <trkpt lat="44.12729" lon="5.83347">
        <ele>1064</ele>
        <time>2022-09-22T11:24:00Z</time>
      </trkpt>
      <trkpt lat="44.12729" lon="5.83348">
        <ele>1064</ele>
        <time>2022-09-22T11:24:01Z</time>
      </trkpt>
      <trkpt lat="44.12728" lon="5.83349">
        <ele>1064</ele>
        <time>2022-09-22T11:24:02Z</time>
      </trkpt>
      <trkpt lat="44.12728" lon="5.8335">
        <ele>1064</ele>
        <time>2022-09-22T11:24:03Z</time>
      </trkpt>
      <trkpt lat="44.12727" lon="5.83352">
        <ele>1064</ele>
        <time>2022-09-22T11:24:04Z</time>
      </trkpt>
      <trkpt lat="44.12727" lon="5.83353">
        <ele>1064</ele>
        <time>2022-09-22T11:24:05Z</time>
      </trkpt>
      <trkpt lat="44.12727" lon="5.83355">
        <ele>1064</ele>
        <time>2022-09-22T11:24:06Z</time>
      </trkpt>
      <trkpt lat="44.12726" lon="5.83356">
        <ele>1064</ele>
        <time>2022-09-22T11:24:07Z</time>
      </trkpt>
      <trkpt lat="44.12726" lon="5.83357">
        <ele>1064</ele>
        <time>2022-09-22T11:24:08Z</time>
      </trkpt>
      <trkpt lat="44.12725" lon="5.83358">
        <ele>1065</ele>
        <time>2022-09-22T11:24:09Z</time>
      </trkpt>
      <trkpt lat="44.12724" lon="5.8336">
        <ele>1064</ele>
        <time>2022-09-22T11:24:10Z</time>
      </trkpt>
      <trkpt lat="44.12723" lon="5.83361">
        <ele>1064</ele>
        <time>2022-09-22T11:24:11Z</time>
      </trkpt>
      <trkpt lat="44.12722" lon="5.83362">
        <ele>1064</ele>
        <time>2022-09-22T11:24:12Z</time>
      </trkpt>
      <trkpt lat="44.12721" lon="5.83363">
        <ele>1064</ele>
        <time>2022-09-22T11:24:13Z</time>
      </trkpt>
      <trkpt lat="44.12721" lon="5.83364">
        <ele>1064</ele>
        <time>2022-09-22T11:24:14Z</time>
      </trkpt>
      <trkpt lat="44.1272" lon="5.83365">
        <ele>1064</ele>
        <time>2022-09-22T11:24:15Z</time>
      </trkpt>
      <trkpt lat="44.12719" lon="5.83365">
        <ele>1064</ele>
        <time>2022-09-22T11:24:16Z</time>
      </trkpt>
      <trkpt lat="44.12719" lon="5.83366">
        <ele>1064</ele>
        <time>2022-09-22T11:24:17Z</time>
      </trkpt>
      <trkpt lat="44.12718" lon="5.83367">
        <ele>1064</ele>
        <time>2022-09-22T11:24:18Z</time>
      </trkpt>
      <trkpt lat="44.12717" lon="5.83369">
        <ele>1064</ele>
        <time>2022-09-22T11:25:24Z</time>
      </trkpt>
      <trkpt lat="44.12716" lon="5.8337">
        <ele>1064</ele>
        <time>2022-09-22T11:25:25Z</time>
      </trkpt>
      <trkpt lat="44.12716" lon="5.83371">
        <ele>1064</ele>
        <time>2022-09-22T11:25:26Z</time>
      </trkpt>
      <trkpt lat="44.12715" lon="5.83372">
        <ele>1064</ele>
        <time>2022-09-22T11:25:27Z</time>
      </trkpt>
      <trkpt lat="44.12715" lon="5.83373">
        <ele>1064</ele>
        <time>2022-09-22T11:25:28Z</time>
      </trkpt>
      <trkpt lat="44.12715" lon="5.83373">
        <ele>1064</ele>
        <time>2022-09-22T11:25:29Z</time>
      </trkpt>
      <trkpt lat="44.12715" lon="5.83373">
        <ele>1063</ele>
        <time>2022-09-22T11:25:30Z</time>
      </trkpt>
      <trkpt lat="44.12715" lon="5.83374">
        <ele>1063</ele>
        <time>2022-09-22T11:25:31Z</time>
      </trkpt>
      <trkpt lat="44.12714" lon="5.83374">
        <ele>1063</ele>
        <time>2022-09-22T11:25:32Z</time>
      </trkpt>
      <trkpt lat="44.12714" lon="5.83374">
        <ele>1063</ele>
        <time>2022-09-22T11:25:33Z</time>
      </trkpt>
      <trkpt lat="44.12714" lon="5.83375">
        <ele>1063</ele>
        <time>2022-09-22T11:25:34Z</time>
      </trkpt>
      <trkpt lat="44.12714" lon="5.83377">
        <ele>1062</ele>
        <time>2022-09-22T11:25:35Z</time>
      </trkpt>
      <trkpt lat="44.12714" lon="5.83377">
        <ele>1062</ele>
        <time>2022-09-22T11:25:36Z</time>
      </trkpt>
      <trkpt lat="44.12714" lon="5.83378">
        <ele>1062</ele>
        <time>2022-09-22T11:25:37Z</time>
      </trkpt>
      <trkpt lat="44.12714" lon="5.83379">
        <ele>1062</ele>
        <time>2022-09-22T11:25:38Z</time>
      </trkpt>
      <trkpt lat="44.12714" lon="5.83379">
        <ele>1062</ele>
        <time>2022-09-22T11:25:39Z</time>
      </trkpt>
      <trkpt lat="44.12715" lon="5.8338">
        <ele>1062</ele>
        <time>2022-09-22T11:25:40Z</time>
      </trkpt>
      <trkpt lat="44.12715" lon="5.8338">
        <ele>1062</ele>
        <time>2022-09-22T11:25:41Z</time>
      </trkpt>
      <trkpt lat="44.12716" lon="5.8338">
        <ele>1062</ele>
        <time>2022-09-22T11:25:42Z</time>
      </trkpt>
      <trkpt lat="44.12717" lon="5.8338">
        <ele>1062</ele>
        <time>2022-09-22T11:25:43Z</time>
      </trkpt>
      <trkpt lat="44.12717" lon="5.8338">
        <ele>1062</ele>
        <time>2022-09-22T11:25:44Z</time>
      </trkpt>
      <trkpt lat="44.12718" lon="5.8338">
        <ele>1061</ele>
        <time>2022-09-22T11:25:45Z</time>
      </trkpt>
      <trkpt lat="44.12718" lon="5.8338">
        <ele>1061</ele>
        <time>2022-09-22T11:25:46Z</time>
      </trkpt>
      <trkpt lat="44.12719" lon="5.83381">
        <ele>1061</ele>
        <time>2022-09-22T11:25:47Z</time>
      </trkpt>
      <trkpt lat="44.12719" lon="5.8338">
        <ele>1061</ele>
        <time>2022-09-22T11:25:48Z</time>
      </trkpt>
      <trkpt lat="44.1272" lon="5.8338">
        <ele>1061</ele>
        <time>2022-09-22T11:25:49Z</time>
      </trkpt>
      <trkpt lat="44.12721" lon="5.8338">
        <ele>1060</ele>
        <time>2022-09-22T11:25:50Z</time>
      </trkpt>
      <trkpt lat="44.12721" lon="5.8338">
        <ele>1060</ele>
        <time>2022-09-22T11:25:51Z</time>
      </trkpt>
      <trkpt lat="44.12722" lon="5.83379">
        <ele>1060</ele>
        <time>2022-09-22T11:25:52Z</time>
      </trkpt>
      <trkpt lat="44.12722" lon="5.83378">
        <ele>1060</ele>
        <time>2022-09-22T11:25:53Z</time>
      </trkpt>
      <trkpt lat="44.12723" lon="5.83378">
        <ele>1060</ele>
        <time>2022-09-22T11:25:54Z</time>
      </trkpt>
      <trkpt lat="44.12723" lon="5.83377">
        <ele>1060</ele>
        <time>2022-09-22T11:25:55Z</time>
      </trkpt>
      <trkpt lat="44.12724" lon="5.83376">
        <ele>1060</ele>
        <time>2022-09-22T11:25:56Z</time>
      </trkpt>
      <trkpt lat="44.12725" lon="5.83375">
        <ele>1060</ele>
        <time>2022-09-22T11:25:57Z</time>
      </trkpt>
      <trkpt lat="44.12725" lon="5.83374">
        <ele>1060</ele>
        <time>2022-09-22T11:25:58Z</time>
      </trkpt>
      <trkpt lat="44.12726" lon="5.83373">
        <ele>1060</ele>
        <time>2022-09-22T11:25:59Z</time>
      </trkpt>
      <trkpt lat="44.12727" lon="5.83372">
        <ele>1059</ele>
        <time>2022-09-22T11:26:00Z</time>
      </trkpt>
      <trkpt lat="44.12728" lon="5.83371">
        <ele>1059</ele>
        <time>2022-09-22T11:26:01Z</time>
      </trkpt>
      <trkpt lat="44.12729" lon="5.8337">
        <ele>1059</ele>
        <time>2022-09-22T11:26:02Z</time>
      </trkpt>
      <trkpt lat="44.1273" lon="5.83369">
        <ele>1059</ele>
        <time>2022-09-22T11:26:03Z</time>
      </trkpt>
      <trkpt lat="44.12731" lon="5.83368">
        <ele>1059</ele>
        <time>2022-09-22T11:26:04Z</time>
      </trkpt>
      <trkpt lat="44.12732" lon="5.83367">
        <ele>1059</ele>
        <time>2022-09-22T11:26:05Z</time>
      </trkpt>
      <trkpt lat="44.12732" lon="5.83366">
        <ele>1059</ele>
        <time>2022-09-22T11:26:06Z</time>
      </trkpt>
      <trkpt lat="44.12733" lon="5.83365">
        <ele>1059</ele>
        <time>2022-09-22T11:26:07Z</time>
      </trkpt>
      <trkpt lat="44.12734" lon="5.83363">
        <ele>1059</ele>
        <time>2022-09-22T11:26:08Z</time>
      </trkpt>
      <trkpt lat="44.12735" lon="5.83362">
        <ele>1059</ele>
        <time>2022-09-22T11:26:09Z</time>
      </trkpt>
      <trkpt lat="44.12736" lon="5.83361">
        <ele>1058</ele>
        <time>2022-09-22T11:26:10Z</time>
      </trkpt>
      <trkpt lat="44.12737" lon="5.83361">
        <ele>1058</ele>
        <time>2022-09-22T11:26:11Z</time>
      </trkpt>
      <trkpt lat="44.12738" lon="5.8336">
        <ele>1057</ele>
        <time>2022-09-22T11:26:12Z</time>
      </trkpt>
      <trkpt lat="44.12739" lon="5.83359">
        <ele>1057</ele>
        <time>2022-09-22T11:26:13Z</time>
      </trkpt>
      <trkpt lat="44.12739" lon="5.83359">
        <ele>1057</ele>
        <time>2022-09-22T11:26:14Z</time>
      </trkpt>
      <trkpt lat="44.1274" lon="5.83358">
        <ele>1057</ele>
        <time>2022-09-22T11:26:15Z</time>
      </trkpt>
      <trkpt lat="44.12741" lon="5.83357">
        <ele>1057</ele>
        <time>2022-09-22T11:26:16Z</time>
      </trkpt>
      <trkpt lat="44.12741" lon="5.83356">
        <ele>1057</ele>
        <time>2022-09-22T11:26:17Z</time>
      </trkpt>
      <trkpt lat="44.12742" lon="5.83356">
        <ele>1057</ele>
        <time>2022-09-22T11:26:18Z</time>
      </trkpt>
      <trkpt lat="44.12743" lon="5.83355">
        <ele>1057</ele>
        <time>2022-09-22T11:26:19Z</time>
      </trkpt>
      <trkpt lat="44.12744" lon="5.83354">
        <ele>1056</ele>
        <time>2022-09-22T11:26:20Z</time>
      </trkpt>
      <trkpt lat="44.12744" lon="5.83353">
        <ele>1056</ele>
        <time>2022-09-22T11:26:21Z</time>
      </trkpt>
      <trkpt lat="44.12745" lon="5.83352">
        <ele>1056</ele>
        <time>2022-09-22T11:26:22Z</time>
      </trkpt>
      <trkpt lat="44.12746" lon="5.83351">
        <ele>1056</ele>
        <time>2022-09-22T11:26:23Z</time>
      </trkpt>
      <trkpt lat="44.12746" lon="5.8335">
        <ele>1056</ele>
        <time>2022-09-22T11:26:24Z</time>
      </trkpt>
      <trkpt lat="44.12746" lon="5.83349">
        <ele>1056</ele>
        <time>2022-09-22T11:26:25Z</time>
      </trkpt>
      <trkpt lat="44.12747" lon="5.83348">
        <ele>1056</ele>
        <time>2022-09-22T11:26:26Z</time>
      </trkpt>
      <trkpt lat="44.12747" lon="5.83347">
        <ele>1056</ele>
        <time>2022-09-22T11:26:27Z</time>
      </trkpt>
      <trkpt lat="44.12748" lon="5.83346">
        <ele>1056</ele>
        <time>2022-09-22T11:26:28Z</time>
      </trkpt>
      <trkpt lat="44.12749" lon="5.83345">
        <ele>1056</ele>
        <time>2022-09-22T11:26:29Z</time>
      </trkpt>
      <trkpt lat="44.12749" lon="5.83344">
        <ele>1055</ele>
        <time>2022-09-22T11:26:30Z</time>
      </trkpt>
      <trkpt lat="44.1275" lon="5.83344">
        <ele>1055</ele>
        <time>2022-09-22T11:26:31Z</time>
      </trkpt>
      <trkpt lat="44.1275" lon="5.83343">
        <ele>1055</ele>
        <time>2022-09-22T11:26:32Z</time>
      </trkpt>
      <trkpt lat="44.12751" lon="5.83342">
        <ele>1055</ele>
        <time>2022-09-22T11:26:33Z</time>
      </trkpt>
      <trkpt lat="44.12752" lon="5.83341">
        <ele>1055</ele>
        <time>2022-09-22T11:26:34Z</time>
      </trkpt>
      <trkpt lat="44.12752" lon="5.8334">
        <ele>1055</ele>
        <time>2022-09-22T11:26:35Z</time>
      </trkpt>
      <trkpt lat="44.12753" lon="5.83339">
        <ele>1055</ele>
        <time>2022-09-22T11:26:36Z</time>
      </trkpt>
      <trkpt lat="44.12753" lon="5.83338">
        <ele>1055</ele>
        <time>2022-09-22T11:26:37Z</time>
      </trkpt>
      <trkpt lat="44.12753" lon="5.83337">
        <ele>1055</ele>
        <time>2022-09-22T11:26:38Z</time>
      </trkpt>
      <trkpt lat="44.12754" lon="5.83336">
        <ele>1055</ele>
        <time>2022-09-22T11:26:39Z</time>
      </trkpt>
      <trkpt lat="44.12754" lon="5.83335">
        <ele>1055</ele>
        <time>2022-09-22T11:26:40Z</time>
      </trkpt>
      <trkpt lat="44.12754" lon="5.83334">
        <ele>1055</ele>
        <time>2022-09-22T11:26:41Z</time>
      </trkpt>
      <trkpt lat="44.12755" lon="5.83333">
        <ele>1055</ele>
        <time>2022-09-22T11:26:42Z</time>
      </trkpt>
      <trkpt lat="44.12755" lon="5.83332">
        <ele>1055</ele>
        <time>2022-09-22T11:26:43Z</time>
      </trkpt>
      <trkpt lat="44.12756" lon="5.83331">
        <ele>1055</ele>
        <time>2022-09-22T11:26:44Z</time>
      </trkpt>
      <trkpt lat="44.12756" lon="5.83329">
        <ele>1055</ele>
        <time>2022-09-22T11:26:45Z</time>
      </trkpt>
      <trkpt lat="44.12756" lon="5.83328">
        <ele>1055</ele>
        <time>2022-09-22T11:26:46Z</time>
      </trkpt>
      <trkpt lat="44.12757" lon="5.83328">
        <ele>1055</ele>
        <time>2022-09-22T11:26:47Z</time>
      </trkpt>
      <trkpt lat="44.12757" lon="5.83327">
        <ele>1055</ele>
        <time>2022-09-22T11:26:48Z</time>
      </trkpt>
      <trkpt lat="44.12757" lon="5.83326">
        <ele>1055</ele>
        <time>2022-09-22T11:26:49Z</time>
      </trkpt>
      <trkpt lat="44.12758" lon="5.83326">
        <ele>1054</ele>
        <time>2022-09-22T11:26:50Z</time>
      </trkpt>
      <trkpt lat="44.12758" lon="5.83326">
        <ele>1054</ele>
        <time>2022-09-22T11:26:51Z</time>
      </trkpt>
      <trkpt lat="44.12758" lon="5.83327">
        <ele>1054</ele>
        <time>2022-09-22T11:26:52Z</time>
      </trkpt>
      <trkpt lat="44.12758" lon="5.83328">
        <ele>1054</ele>
        <time>2022-09-22T11:26:53Z</time>
      </trkpt>
      <trkpt lat="44.12758" lon="5.83329">
        <ele>1054</ele>
        <time>2022-09-22T11:26:54Z</time>
      </trkpt>
      <trkpt lat="44.12759" lon="5.8333">
        <ele>1053</ele>
        <time>2022-09-22T11:26:55Z</time>
      </trkpt>
      <trkpt lat="44.12759" lon="5.83331">
        <ele>1053</ele>
        <time>2022-09-22T11:26:56Z</time>
      </trkpt>
      <trkpt lat="44.1276" lon="5.83333">
        <ele>1053</ele>
        <time>2022-09-22T11:26:57Z</time>
      </trkpt>
      <trkpt lat="44.1276" lon="5.83334">
        <ele>1053</ele>
        <time>2022-09-22T11:26:58Z</time>
      </trkpt>
      <trkpt lat="44.1276" lon="5.83335">
        <ele>1053</ele>
        <time>2022-09-22T11:26:59Z</time>
      </trkpt>
      <trkpt lat="44.12761" lon="5.83336">
        <ele>1052</ele>
        <time>2022-09-22T11:27:00Z</time>
      </trkpt>
      <trkpt lat="44.12761" lon="5.83337">
        <ele>1052</ele>
        <time>2022-09-22T11:27:01Z</time>
      </trkpt>
      <trkpt lat="44.12761" lon="5.83338">
        <ele>1052</ele>
        <time>2022-09-22T11:27:02Z</time>
      </trkpt>
      <trkpt lat="44.12762" lon="5.8334">
        <ele>1052</ele>
        <time>2022-09-22T11:27:03Z</time>
      </trkpt>
      <trkpt lat="44.12762" lon="5.83341">
        <ele>1052</ele>
        <time>2022-09-22T11:27:04Z</time>
      </trkpt>
      <trkpt lat="44.12762" lon="5.83342">
        <ele>1052</ele>
        <time>2022-09-22T11:27:05Z</time>
      </trkpt>
      <trkpt lat="44.12761" lon="5.83343">
        <ele>1052</ele>
        <time>2022-09-22T11:27:06Z</time>
      </trkpt>
      <trkpt lat="44.12761" lon="5.83344">
        <ele>1052</ele>
        <time>2022-09-22T11:27:07Z</time>
      </trkpt>
      <trkpt lat="44.1276" lon="5.83345">
        <ele>1052</ele>
        <time>2022-09-22T11:27:08Z</time>
      </trkpt>
      <trkpt lat="44.12759" lon="5.83346">
        <ele>1052</ele>
        <time>2022-09-22T11:27:09Z</time>
      </trkpt>
      <trkpt lat="44.12759" lon="5.83347">
        <ele>1052</ele>
        <time>2022-09-22T11:27:10Z</time>
      </trkpt>
      <trkpt lat="44.12759" lon="5.83349">
        <ele>1051</ele>
        <time>2022-09-22T11:27:18Z</time>
      </trkpt>
      <trkpt lat="44.12759" lon="5.83349">
        <ele>1051</ele>
        <time>2022-09-22T11:27:19Z</time>
      </trkpt>
      <trkpt lat="44.12759" lon="5.8335">
        <ele>1050</ele>
        <time>2022-09-22T11:27:20Z</time>
      </trkpt>
      <trkpt lat="44.1276" lon="5.83349">
        <ele>1050</ele>
        <time>2022-09-22T11:27:21Z</time>
      </trkpt>
      <trkpt lat="44.1276" lon="5.83349">
        <ele>1050</ele>
        <time>2022-09-22T11:27:22Z</time>
      </trkpt>
      <trkpt lat="44.1276" lon="5.83348">
        <ele>1050</ele>
        <time>2022-09-22T11:27:23Z</time>
      </trkpt>
      <trkpt lat="44.12761" lon="5.83347">
        <ele>1050</ele>
        <time>2022-09-22T11:27:24Z</time>
      </trkpt>
      <trkpt lat="44.12761" lon="5.83346">
        <ele>1050</ele>
        <time>2022-09-22T11:27:25Z</time>
      </trkpt>
      <trkpt lat="44.12761" lon="5.83345">
        <ele>1050</ele>
        <time>2022-09-22T11:27:26Z</time>
      </trkpt>
      <trkpt lat="44.12762" lon="5.83344">
        <ele>1050</ele>
        <time>2022-09-22T11:27:27Z</time>
      </trkpt>
      <trkpt lat="44.12762" lon="5.83343">
        <ele>1050</ele>
        <time>2022-09-22T11:27:28Z</time>
      </trkpt>
      <trkpt lat="44.12763" lon="5.83342">
        <ele>1050</ele>
        <time>2022-09-22T11:27:29Z</time>
      </trkpt>
      <trkpt lat="44.12763" lon="5.83341">
        <ele>1049</ele>
        <time>2022-09-22T11:27:30Z</time>
      </trkpt>
      <trkpt lat="44.12764" lon="5.83341">
        <ele>1049</ele>
        <time>2022-09-22T11:27:31Z</time>
      </trkpt>
      <trkpt lat="44.12764" lon="5.83341">
        <ele>1049</ele>
        <time>2022-09-22T11:27:32Z</time>
      </trkpt>
      <trkpt lat="44.12764" lon="5.8334">
        <ele>1049</ele>
        <time>2022-09-22T11:27:33Z</time>
      </trkpt>
      <trkpt lat="44.12764" lon="5.8334">
        <ele>1049</ele>
        <time>2022-09-22T11:27:34Z</time>
      </trkpt>
      <trkpt lat="44.12765" lon="5.8334">
        <ele>1049</ele>
        <time>2022-09-22T11:27:35Z</time>
      </trkpt>
      <trkpt lat="44.12765" lon="5.8334">
        <ele>1049</ele>
        <time>2022-09-22T11:27:36Z</time>
      </trkpt>
      <trkpt lat="44.12764" lon="5.83341">
        <ele>1049</ele>
        <time>2022-09-22T11:27:37Z</time>
      </trkpt>
      <trkpt lat="44.12764" lon="5.83342">
        <ele>1049</ele>
        <time>2022-09-22T11:27:38Z</time>
      </trkpt>
      <trkpt lat="44.12763" lon="5.83343">
        <ele>1049</ele>
        <time>2022-09-22T11:27:39Z</time>
      </trkpt>
      <trkpt lat="44.12763" lon="5.83344">
        <ele>1048</ele>
        <time>2022-09-22T11:27:40Z</time>
      </trkpt>
      <trkpt lat="44.12763" lon="5.83345">
        <ele>1048</ele>
        <time>2022-09-22T11:27:41Z</time>
      </trkpt>
      <trkpt lat="44.12762" lon="5.83346">
        <ele>1048</ele>
        <time>2022-09-22T11:27:42Z</time>
      </trkpt>
      <trkpt lat="44.12762" lon="5.83347">
        <ele>1048</ele>
        <time>2022-09-22T11:27:43Z</time>
      </trkpt>
      <trkpt lat="44.12762" lon="5.83349">
        <ele>1048</ele>
        <time>2022-09-22T11:27:44Z</time>
      </trkpt>
      <trkpt lat="44.12763" lon="5.8335">
        <ele>1047</ele>
        <time>2022-09-22T11:27:45Z</time>
      </trkpt>
      <trkpt lat="44.12763" lon="5.83351">
        <ele>1047</ele>
        <time>2022-09-22T11:27:46Z</time>
      </trkpt>
      <trkpt lat="44.12763" lon="5.83352">
        <ele>1047</ele>
        <time>2022-09-22T11:27:47Z</time>
      </trkpt>
      <trkpt lat="44.12763" lon="5.83353">
        <ele>1047</ele>
        <time>2022-09-22T11:27:48Z</time>
      </trkpt>
      <trkpt lat="44.12763" lon="5.83354">
        <ele>1047</ele>
        <time>2022-09-22T11:27:49Z</time>
      </trkpt>
      <trkpt lat="44.12763" lon="5.83355">
        <ele>1047</ele>
        <time>2022-09-22T11:27:50Z</time>
      </trkpt>
      <trkpt lat="44.12763" lon="5.83356">
        <ele>1047</ele>
        <time>2022-09-22T11:27:51Z</time>
      </trkpt>
      <trkpt lat="44.12763" lon="5.83358">
        <ele>1047</ele>
        <time>2022-09-22T11:27:52Z</time>
      </trkpt>
      <trkpt lat="44.12763" lon="5.83359">
        <ele>1047</ele>
        <time>2022-09-22T11:27:53Z</time>
      </trkpt>
      <trkpt lat="44.12763" lon="5.83361">
        <ele>1047</ele>
        <time>2022-09-22T11:27:54Z</time>
      </trkpt>
      <trkpt lat="44.12763" lon="5.83362">
        <ele>1047</ele>
        <time>2022-09-22T11:27:55Z</time>
      </trkpt>
      <trkpt lat="44.12763" lon="5.83363">
        <ele>1047</ele>
        <time>2022-09-22T11:27:56Z</time>
      </trkpt>
      <trkpt lat="44.12763" lon="5.83365">
        <ele>1047</ele>
        <time>2022-09-22T11:27:57Z</time>
      </trkpt>
      <trkpt lat="44.12763" lon="5.83366">
        <ele>1047</ele>
        <time>2022-09-22T11:27:58Z</time>
      </trkpt>
      <trkpt lat="44.12763" lon="5.83367">
        <ele>1047</ele>
        <time>2022-09-22T11:27:59Z</time>
      </trkpt>
      <trkpt lat="44.12763" lon="5.83368">
        <ele>1046</ele>
        <time>2022-09-22T11:28:00Z</time>
      </trkpt>
      <trkpt lat="44.12762" lon="5.83369">
        <ele>1046</ele>
        <time>2022-09-22T11:28:01Z</time>
      </trkpt>
      <trkpt lat="44.12762" lon="5.8337">
        <ele>1046</ele>
        <time>2022-09-22T11:28:02Z</time>
      </trkpt>
      <trkpt lat="44.12762" lon="5.83371">
        <ele>1046</ele>
        <time>2022-09-22T11:28:03Z</time>
      </trkpt>
      <trkpt lat="44.12761" lon="5.83372">
        <ele>1046</ele>
        <time>2022-09-22T11:28:04Z</time>
      </trkpt>
      <trkpt lat="44.1276" lon="5.83373">
        <ele>1046</ele>
        <time>2022-09-22T11:28:05Z</time>
      </trkpt>
      <trkpt lat="44.1276" lon="5.83374">
        <ele>1046</ele>
        <time>2022-09-22T11:28:06Z</time>
      </trkpt>
      <trkpt lat="44.12759" lon="5.83375">
        <ele>1046</ele>
        <time>2022-09-22T11:28:07Z</time>
      </trkpt>
      <trkpt lat="44.12759" lon="5.83377">
        <ele>1046</ele>
        <time>2022-09-22T11:28:08Z</time>
      </trkpt>
      <trkpt lat="44.12758" lon="5.83378">
        <ele>1046</ele>
        <time>2022-09-22T11:28:09Z</time>
      </trkpt>
      <trkpt lat="44.12758" lon="5.83379">
        <ele>1046</ele>
        <time>2022-09-22T11:28:10Z</time>
      </trkpt>
      <trkpt lat="44.12758" lon="5.8338">
        <ele>1046</ele>
        <time>2022-09-22T11:28:11Z</time>
      </trkpt>
      <trkpt lat="44.12758" lon="5.83382">
        <ele>1046</ele>
        <time>2022-09-22T11:28:12Z</time>
      </trkpt>
      <trkpt lat="44.12757" lon="5.83383">
        <ele>1046</ele>
        <time>2022-09-22T11:28:13Z</time>
      </trkpt>
      <trkpt lat="44.12757" lon="5.83384">
        <ele>1046</ele>
        <time>2022-09-22T11:28:14Z</time>
      </trkpt>
      <trkpt lat="44.12757" lon="5.83386">
        <ele>1045</ele>
        <time>2022-09-22T11:28:15Z</time>
      </trkpt>
      <trkpt lat="44.12757" lon="5.83387">
        <ele>1045</ele>
        <time>2022-09-22T11:28:16Z</time>
      </trkpt>
      <trkpt lat="44.12757" lon="5.83388">
        <ele>1045</ele>
        <time>2022-09-22T11:28:17Z</time>
      </trkpt>
      <trkpt lat="44.12756" lon="5.8339">
        <ele>1045</ele>
        <time>2022-09-22T11:28:18Z</time>
      </trkpt>
      <trkpt lat="44.12756" lon="5.83391">
        <ele>1045</ele>
        <time>2022-09-22T11:28:19Z</time>
      </trkpt>
      <trkpt lat="44.12755" lon="5.83393">
        <ele>1045</ele>
        <time>2022-09-22T11:28:20Z</time>
      </trkpt>
      <trkpt lat="44.12755" lon="5.83394">
        <ele>1045</ele>
        <time>2022-09-22T11:28:21Z</time>
      </trkpt>
      <trkpt lat="44.12755" lon="5.83396">
        <ele>1045</ele>
        <time>2022-09-22T11:28:22Z</time>
      </trkpt>
      <trkpt lat="44.12754" lon="5.83398">
        <ele>1045</ele>
        <time>2022-09-22T11:28:23Z</time>
      </trkpt>
      <trkpt lat="44.12754" lon="5.83399">
        <ele>1045</ele>
        <time>2022-09-22T11:28:24Z</time>
      </trkpt>
      <trkpt lat="44.12754" lon="5.83401">
        <ele>1044</ele>
        <time>2022-09-22T11:28:25Z</time>
      </trkpt>
      <trkpt lat="44.12754" lon="5.83402">
        <ele>1044</ele>
        <time>2022-09-22T11:28:26Z</time>
      </trkpt>
      <trkpt lat="44.12753" lon="5.83403">
        <ele>1044</ele>
        <time>2022-09-22T11:28:27Z</time>
      </trkpt>
      <trkpt lat="44.12753" lon="5.83404">
        <ele>1044</ele>
        <time>2022-09-22T11:28:28Z</time>
      </trkpt>
      <trkpt lat="44.12753" lon="5.83405">
        <ele>1044</ele>
        <time>2022-09-22T11:28:29Z</time>
      </trkpt>
      <trkpt lat="44.12753" lon="5.83407">
        <ele>1044</ele>
        <time>2022-09-22T11:28:30Z</time>
      </trkpt>
      <trkpt lat="44.12753" lon="5.83408">
        <ele>1044</ele>
        <time>2022-09-22T11:28:31Z</time>
      </trkpt>
      <trkpt lat="44.12753" lon="5.83409">
        <ele>1044</ele>
        <time>2022-09-22T11:28:32Z</time>
      </trkpt>
      <trkpt lat="44.12753" lon="5.8341">
        <ele>1044</ele>
        <time>2022-09-22T11:28:33Z</time>
      </trkpt>
      <trkpt lat="44.12752" lon="5.83411">
        <ele>1044</ele>
        <time>2022-09-22T11:28:34Z</time>
      </trkpt>
      <trkpt lat="44.12752" lon="5.83412">
        <ele>1043</ele>
        <time>2022-09-22T11:28:35Z</time>
      </trkpt>
      <trkpt lat="44.12752" lon="5.83414">
        <ele>1043</ele>
        <time>2022-09-22T11:28:36Z</time>
      </trkpt>
      <trkpt lat="44.12751" lon="5.83415">
        <ele>1043</ele>
        <time>2022-09-22T11:28:37Z</time>
      </trkpt>
      <trkpt lat="44.12751" lon="5.83416">
        <ele>1043</ele>
        <time>2022-09-22T11:28:38Z</time>
      </trkpt>
      <trkpt lat="44.1275" lon="5.83417">
        <ele>1043</ele>
        <time>2022-09-22T11:28:39Z</time>
      </trkpt>
      <trkpt lat="44.12749" lon="5.83417">
        <ele>1043</ele>
        <time>2022-09-22T11:28:40Z</time>
      </trkpt>
      <trkpt lat="44.12749" lon="5.83418">
        <ele>1043</ele>
        <time>2022-09-22T11:28:41Z</time>
      </trkpt>
      <trkpt lat="44.12748" lon="5.83419">
        <ele>1043</ele>
        <time>2022-09-22T11:28:42Z</time>
      </trkpt>
      <trkpt lat="44.12748" lon="5.8342">
        <ele>1043</ele>
        <time>2022-09-22T11:28:43Z</time>
      </trkpt>
      <trkpt lat="44.12747" lon="5.83421">
        <ele>1043</ele>
        <time>2022-09-22T11:28:44Z</time>
      </trkpt>
      <trkpt lat="44.12747" lon="5.83421">
        <ele>1042</ele>
        <time>2022-09-22T11:28:45Z</time>
      </trkpt>
      <trkpt lat="44.12746" lon="5.83422">
        <ele>1042</ele>
        <time>2022-09-22T11:28:46Z</time>
      </trkpt>
      <trkpt lat="44.12746" lon="5.83423">
        <ele>1042</ele>
        <time>2022-09-22T11:28:47Z</time>
      </trkpt>
      <trkpt lat="44.12746" lon="5.83424">
        <ele>1042</ele>
        <time>2022-09-22T11:28:48Z</time>
      </trkpt>
      <trkpt lat="44.12746" lon="5.83425">
        <ele>1042</ele>
        <time>2022-09-22T11:28:49Z</time>
      </trkpt>
      <trkpt lat="44.12745" lon="5.83426">
        <ele>1042</ele>
        <time>2022-09-22T11:28:50Z</time>
      </trkpt>
      <trkpt lat="44.12745" lon="5.83427">
        <ele>1042</ele>
        <time>2022-09-22T11:28:51Z</time>
      </trkpt>
      <trkpt lat="44.12745" lon="5.83428">
        <ele>1042</ele>
        <time>2022-09-22T11:28:52Z</time>
      </trkpt>
      <trkpt lat="44.12744" lon="5.83429">
        <ele>1042</ele>
        <time>2022-09-22T11:28:53Z</time>
      </trkpt>
      <trkpt lat="44.12744" lon="5.8343">
        <ele>1042</ele>
        <time>2022-09-22T11:28:54Z</time>
      </trkpt>
      <trkpt lat="44.12744" lon="5.8343">
        <ele>1041</ele>
        <time>2022-09-22T11:28:55Z</time>
      </trkpt>
      <trkpt lat="44.12743" lon="5.83431">
        <ele>1041</ele>
        <time>2022-09-22T11:28:56Z</time>
      </trkpt>
      <trkpt lat="44.12743" lon="5.83432">
        <ele>1041</ele>
        <time>2022-09-22T11:28:57Z</time>
      </trkpt>
      <trkpt lat="44.12742" lon="5.83434">
        <ele>1040</ele>
        <time>2022-09-22T11:29:04Z</time>
      </trkpt>
      <trkpt lat="44.12742" lon="5.83436">
        <ele>1039</ele>
        <time>2022-09-22T11:29:05Z</time>
      </trkpt>
      <trkpt lat="44.12742" lon="5.83437">
        <ele>1039</ele>
        <time>2022-09-22T11:29:06Z</time>
      </trkpt>
      <trkpt lat="44.12742" lon="5.83437">
        <ele>1039</ele>
        <time>2022-09-22T11:29:07Z</time>
      </trkpt>
      <trkpt lat="44.12742" lon="5.83438">
        <ele>1039</ele>
        <time>2022-09-22T11:29:08Z</time>
      </trkpt>
      <trkpt lat="44.12742" lon="5.83439">
        <ele>1039</ele>
        <time>2022-09-22T11:29:09Z</time>
      </trkpt>
      <trkpt lat="44.12742" lon="5.8344">
        <ele>1039</ele>
        <time>2022-09-22T11:29:10Z</time>
      </trkpt>
      <trkpt lat="44.12742" lon="5.83441">
        <ele>1039</ele>
        <time>2022-09-22T11:29:11Z</time>
      </trkpt>
      <trkpt lat="44.12742" lon="5.83442">
        <ele>1039</ele>
        <time>2022-09-22T11:29:12Z</time>
      </trkpt>
      <trkpt lat="44.12742" lon="5.83443">
        <ele>1039</ele>
        <time>2022-09-22T11:29:13Z</time>
      </trkpt>
      <trkpt lat="44.12743" lon="5.83444">
        <ele>1039</ele>
        <time>2022-09-22T11:29:14Z</time>
      </trkpt>
      <trkpt lat="44.12742" lon="5.83445">
        <ele>1038</ele>
        <time>2022-09-22T11:29:15Z</time>
      </trkpt>
      <trkpt lat="44.12742" lon="5.83446">
        <ele>1038</ele>
        <time>2022-09-22T11:29:16Z</time>
      </trkpt>
      <trkpt lat="44.12742" lon="5.83447">
        <ele>1038</ele>
        <time>2022-09-22T11:29:17Z</time>
      </trkpt>
      <trkpt lat="44.12742" lon="5.83448">
        <ele>1038</ele>
        <time>2022-09-22T11:29:18Z</time>
      </trkpt>
      <trkpt lat="44.12741" lon="5.83449">
        <ele>1038</ele>
        <time>2022-09-22T11:29:19Z</time>
      </trkpt>
      <trkpt lat="44.12741" lon="5.83451">
        <ele>1037</ele>
        <time>2022-09-22T11:29:20Z</time>
      </trkpt>
      <trkpt lat="44.1274" lon="5.83452">
        <ele>1037</ele>
        <time>2022-09-22T11:29:21Z</time>
      </trkpt>
      <trkpt lat="44.1274" lon="5.83454">
        <ele>1037</ele>
        <time>2022-09-22T11:29:22Z</time>
      </trkpt>
      <trkpt lat="44.1274" lon="5.83455">
        <ele>1037</ele>
        <time>2022-09-22T11:29:23Z</time>
      </trkpt>
      <trkpt lat="44.1274" lon="5.83457">
        <ele>1037</ele>
        <time>2022-09-22T11:29:24Z</time>
      </trkpt>
      <trkpt lat="44.1274" lon="5.83458">
        <ele>1037</ele>
        <time>2022-09-22T11:29:25Z</time>
      </trkpt>
      <trkpt lat="44.1274" lon="5.83459">
        <ele>1037</ele>
        <time>2022-09-22T11:29:26Z</time>
      </trkpt>
      <trkpt lat="44.12739" lon="5.8346">
        <ele>1037</ele>
        <time>2022-09-22T11:29:27Z</time>
      </trkpt>
      <trkpt lat="44.12739" lon="5.83461">
        <ele>1037</ele>
        <time>2022-09-22T11:29:28Z</time>
      </trkpt>
      <trkpt lat="44.12739" lon="5.83461">
        <ele>1037</ele>
        <time>2022-09-22T11:29:29Z</time>
      </trkpt>
      <trkpt lat="44.12739" lon="5.83462">
        <ele>1036</ele>
        <time>2022-09-22T11:29:30Z</time>
      </trkpt>
      <trkpt lat="44.12739" lon="5.83463">
        <ele>1036</ele>
        <time>2022-09-22T11:29:31Z</time>
      </trkpt>
      <trkpt lat="44.12738" lon="5.83464">
        <ele>1036</ele>
        <time>2022-09-22T11:29:32Z</time>
      </trkpt>
      <trkpt lat="44.12738" lon="5.83465">
        <ele>1036</ele>
        <time>2022-09-22T11:29:33Z</time>
      </trkpt>
      <trkpt lat="44.12738" lon="5.83466">
        <ele>1036</ele>
        <time>2022-09-22T11:29:34Z</time>
      </trkpt>
      <trkpt lat="44.12738" lon="5.83467">
        <ele>1035</ele>
        <time>2022-09-22T11:29:35Z</time>
      </trkpt>
      <trkpt lat="44.12738" lon="5.83468">
        <ele>1035</ele>
        <time>2022-09-22T11:29:36Z</time>
      </trkpt>
      <trkpt lat="44.12738" lon="5.83469">
        <ele>1035</ele>
        <time>2022-09-22T11:29:37Z</time>
      </trkpt>
      <trkpt lat="44.12737" lon="5.8347">
        <ele>1035</ele>
        <time>2022-09-22T11:29:38Z</time>
      </trkpt>
      <trkpt lat="44.12737" lon="5.83471">
        <ele>1035</ele>
        <time>2022-09-22T11:29:39Z</time>
      </trkpt>
      <trkpt lat="44.12737" lon="5.83472">
        <ele>1035</ele>
        <time>2022-09-22T11:29:40Z</time>
      </trkpt>
      <trkpt lat="44.12736" lon="5.83473">
        <ele>1035</ele>
        <time>2022-09-22T11:29:41Z</time>
      </trkpt>
      <trkpt lat="44.12736" lon="5.83474">
        <ele>1035</ele>
        <time>2022-09-22T11:29:42Z</time>
      </trkpt>
      <trkpt lat="44.12735" lon="5.83476">
        <ele>1034</ele>
        <time>2022-09-22T11:29:48Z</time>
      </trkpt>
      <trkpt lat="44.12735" lon="5.83477">
        <ele>1034</ele>
        <time>2022-09-22T11:29:49Z</time>
      </trkpt>
      <trkpt lat="44.12735" lon="5.83478">
        <ele>1033</ele>
        <time>2022-09-22T11:29:50Z</time>
      </trkpt>
      <trkpt lat="44.12734" lon="5.83479">
        <ele>1033</ele>
        <time>2022-09-22T11:29:51Z</time>
      </trkpt>
      <trkpt lat="44.12734" lon="5.8348">
        <ele>1033</ele>
        <time>2022-09-22T11:29:52Z</time>
      </trkpt>
      <trkpt lat="44.12733" lon="5.83481">
        <ele>1033</ele>
        <time>2022-09-22T11:29:53Z</time>
      </trkpt>
      <trkpt lat="44.12733" lon="5.83482">
        <ele>1033</ele>
        <time>2022-09-22T11:29:54Z</time>
      </trkpt>
      <trkpt lat="44.12733" lon="5.83483">
        <ele>1032</ele>
        <time>2022-09-22T11:29:55Z</time>
      </trkpt>
      <trkpt lat="44.12733" lon="5.83484">
        <ele>1032</ele>
        <time>2022-09-22T11:29:56Z</time>
      </trkpt>
      <trkpt lat="44.12733" lon="5.83484">
        <ele>1032</ele>
        <time>2022-09-22T11:29:57Z</time>
      </trkpt>
      <trkpt lat="44.12733" lon="5.83486">
        <ele>1032</ele>
        <time>2022-09-22T11:29:58Z</time>
      </trkpt>
      <trkpt lat="44.12733" lon="5.83487">
        <ele>1032</ele>
        <time>2022-09-22T11:29:59Z</time>
      </trkpt>
      <trkpt lat="44.12733" lon="5.83487">
        <ele>1031</ele>
        <time>2022-09-22T11:30:00Z</time>
      </trkpt>
      <trkpt lat="44.12733" lon="5.83487">
        <ele>1031</ele>
        <time>2022-09-22T11:30:01Z</time>
      </trkpt>
      <trkpt lat="44.12732" lon="5.83488">
        <ele>1031</ele>
        <time>2022-09-22T11:30:02Z</time>
      </trkpt>
      <trkpt lat="44.12732" lon="5.83488">
        <ele>1031</ele>
        <time>2022-09-22T11:30:03Z</time>
      </trkpt>
      <trkpt lat="44.12731" lon="5.83489">
        <ele>1031</ele>
        <time>2022-09-22T11:30:04Z</time>
      </trkpt>
      <trkpt lat="44.12731" lon="5.83489">
        <ele>1031</ele>
        <time>2022-09-22T11:30:05Z</time>
      </trkpt>
      <trkpt lat="44.12731" lon="5.83489">
        <ele>1031</ele>
        <time>2022-09-22T11:30:06Z</time>
      </trkpt>
      <trkpt lat="44.1273" lon="5.83489">
        <ele>1031</ele>
        <time>2022-09-22T11:30:07Z</time>
      </trkpt>
      <trkpt lat="44.1273" lon="5.83489">
        <ele>1031</ele>
        <time>2022-09-22T11:30:08Z</time>
      </trkpt>
      <trkpt lat="44.12729" lon="5.8349">
        <ele>1031</ele>
        <time>2022-09-22T11:30:09Z</time>
      </trkpt>
      <trkpt lat="44.12729" lon="5.83491">
        <ele>1030</ele>
        <time>2022-09-22T11:30:10Z</time>
      </trkpt>
      <trkpt lat="44.12728" lon="5.83494">
        <ele>1028</ele>
        <time>2022-09-22T11:30:22Z</time>
      </trkpt>
      <trkpt lat="44.12728" lon="5.83495">
        <ele>1028</ele>
        <time>2022-09-22T11:30:23Z</time>
      </trkpt>
      <trkpt lat="44.12728" lon="5.83497">
        <ele>1028</ele>
        <time>2022-09-22T11:30:24Z</time>
      </trkpt>
      <trkpt lat="44.12728" lon="5.83497">
        <ele>1027</ele>
        <time>2022-09-22T11:30:30Z</time>
      </trkpt>
      <trkpt lat="44.12729" lon="5.83497">
        <ele>1027</ele>
        <time>2022-09-22T11:30:31Z</time>
      </trkpt>
      <trkpt lat="44.12729" lon="5.83498">
        <ele>1027</ele>
        <time>2022-09-22T11:30:32Z</time>
      </trkpt>
      <trkpt lat="44.1273" lon="5.83498">
        <ele>1027</ele>
        <time>2022-09-22T11:30:33Z</time>
      </trkpt>
      <trkpt lat="44.1273" lon="5.83498">
        <ele>1027</ele>
        <time>2022-09-22T11:30:34Z</time>
      </trkpt>
      <trkpt lat="44.12731" lon="5.83499">
        <ele>1026</ele>
        <time>2022-09-22T11:30:35Z</time>
      </trkpt>
      <trkpt lat="44.12731" lon="5.835">
        <ele>1026</ele>
        <time>2022-09-22T11:30:36Z</time>
      </trkpt>
      <trkpt lat="44.12731" lon="5.835">
        <ele>1026</ele>
        <time>2022-09-22T11:30:37Z</time>
      </trkpt>
      <trkpt lat="44.12732" lon="5.83501">
        <ele>1026</ele>
        <time>2022-09-22T11:30:38Z</time>
      </trkpt>
      <trkpt lat="44.12732" lon="5.83502">
        <ele>1026</ele>
        <time>2022-09-22T11:30:39Z</time>
      </trkpt>
      <trkpt lat="44.12732" lon="5.83503">
        <ele>1025</ele>
        <time>2022-09-22T11:30:40Z</time>
      </trkpt>
      <trkpt lat="44.12732" lon="5.83503">
        <ele>1025</ele>
        <time>2022-09-22T11:30:41Z</time>
      </trkpt>
      <trkpt lat="44.12732" lon="5.83504">
        <ele>1025</ele>
        <time>2022-09-22T11:30:42Z</time>
      </trkpt>
      <trkpt lat="44.12732" lon="5.83504">
        <ele>1025</ele>
        <time>2022-09-22T11:30:43Z</time>
      </trkpt>
      <trkpt lat="44.12733" lon="5.83505">
        <ele>1025</ele>
        <time>2022-09-22T11:30:44Z</time>
      </trkpt>
      <trkpt lat="44.12732" lon="5.83506">
        <ele>1024</ele>
        <time>2022-09-22T11:30:45Z</time>
      </trkpt>
      <trkpt lat="44.12732" lon="5.83507">
        <ele>1024</ele>
        <time>2022-09-22T11:30:46Z</time>
      </trkpt>
      <trkpt lat="44.12732" lon="5.83508">
        <ele>1024</ele>
        <time>2022-09-22T11:30:47Z</time>
      </trkpt>
      <trkpt lat="44.12732" lon="5.83509">
        <ele>1024</ele>
        <time>2022-09-22T11:30:48Z</time>
      </trkpt>
      <trkpt lat="44.12733" lon="5.8351">
        <ele>1024</ele>
        <time>2022-09-22T11:30:49Z</time>
      </trkpt>
      <trkpt lat="44.12733" lon="5.83512">
        <ele>1023</ele>
        <time>2022-09-22T11:30:50Z</time>
      </trkpt>
      <trkpt lat="44.12733" lon="5.83513">
        <ele>1023</ele>
        <time>2022-09-22T11:30:51Z</time>
      </trkpt>
      <trkpt lat="44.12733" lon="5.83515">
        <ele>1023</ele>
        <time>2022-09-22T11:30:52Z</time>
      </trkpt>
      <trkpt lat="44.12733" lon="5.83517">
        <ele>1023</ele>
        <time>2022-09-22T11:30:53Z</time>
      </trkpt>
      <trkpt lat="44.12733" lon="5.83519">
        <ele>1023</ele>
        <time>2022-09-22T11:30:54Z</time>
      </trkpt>
      <trkpt lat="44.12733" lon="5.83521">
        <ele>1023</ele>
        <time>2022-09-22T11:30:55Z</time>
      </trkpt>
      <trkpt lat="44.12733" lon="5.83523">
        <ele>1023</ele>
        <time>2022-09-22T11:30:56Z</time>
      </trkpt>
      <trkpt lat="44.12733" lon="5.83524">
        <ele>1023</ele>
        <time>2022-09-22T11:30:57Z</time>
      </trkpt>
      <trkpt lat="44.12732" lon="5.83526">
        <ele>1023</ele>
        <time>2022-09-22T11:30:58Z</time>
      </trkpt>
      <trkpt lat="44.12732" lon="5.83527">
        <ele>1023</ele>
        <time>2022-09-22T11:30:59Z</time>
      </trkpt>
      <trkpt lat="44.12731" lon="5.83529">
        <ele>1022</ele>
        <time>2022-09-22T11:31:00Z</time>
      </trkpt>
      <trkpt lat="44.12731" lon="5.8353">
        <ele>1022</ele>
        <time>2022-09-22T11:31:01Z</time>
      </trkpt>
      <trkpt lat="44.1273" lon="5.83531">
        <ele>1022</ele>
        <time>2022-09-22T11:31:02Z</time>
      </trkpt>
      <trkpt lat="44.1273" lon="5.83532">
        <ele>1022</ele>
        <time>2022-09-22T11:31:03Z</time>
      </trkpt>
      <trkpt lat="44.1273" lon="5.83533">
        <ele>1022</ele>
        <time>2022-09-22T11:31:04Z</time>
      </trkpt>
      <trkpt lat="44.1273" lon="5.83534">
        <ele>1022</ele>
        <time>2022-09-22T11:31:05Z</time>
      </trkpt>
      <trkpt lat="44.1273" lon="5.83535">
        <ele>1022</ele>
        <time>2022-09-22T11:31:06Z</time>
      </trkpt>
      <trkpt lat="44.1273" lon="5.83536">
        <ele>1022</ele>
        <time>2022-09-22T11:31:07Z</time>
      </trkpt>
      <trkpt lat="44.1273" lon="5.83537">
        <ele>1022</ele>
        <time>2022-09-22T11:31:08Z</time>
      </trkpt>
      <trkpt lat="44.12731" lon="5.83538">
        <ele>1022</ele>
        <time>2022-09-22T11:31:09Z</time>
      </trkpt>
      <trkpt lat="44.12731" lon="5.83538">
        <ele>1021</ele>
        <time>2022-09-22T11:31:10Z</time>
      </trkpt>
      <trkpt lat="44.12732" lon="5.83539">
        <ele>1021</ele>
        <time>2022-09-22T11:31:11Z</time>
      </trkpt>
      <trkpt lat="44.12732" lon="5.8354">
        <ele>1021</ele>
        <time>2022-09-22T11:31:12Z</time>
      </trkpt>
      <trkpt lat="44.12733" lon="5.83541">
        <ele>1021</ele>
        <time>2022-09-22T11:31:13Z</time>
      </trkpt>
      <trkpt lat="44.12734" lon="5.83542">
        <ele>1021</ele>
        <time>2022-09-22T11:31:14Z</time>
      </trkpt>
      <trkpt lat="44.12734" lon="5.83542">
        <ele>1020</ele>
        <time>2022-09-22T11:31:15Z</time>
      </trkpt>
      <trkpt lat="44.12734" lon="5.83543">
        <ele>1020</ele>
        <time>2022-09-22T11:31:16Z</time>
      </trkpt>
      <trkpt lat="44.12734" lon="5.83543">
        <ele>1020</ele>
        <time>2022-09-22T11:31:17Z</time>
      </trkpt>
      <trkpt lat="44.12734" lon="5.83544">
        <ele>1020</ele>
        <time>2022-09-22T11:31:18Z</time>
      </trkpt>
      <trkpt lat="44.12734" lon="5.83545">
        <ele>1020</ele>
        <time>2022-09-22T11:31:19Z</time>
      </trkpt>
      <trkpt lat="44.12734" lon="5.83546">
        <ele>1019</ele>
        <time>2022-09-22T11:31:20Z</time>
      </trkpt>
      <trkpt lat="44.12734" lon="5.83546">
        <ele>1019</ele>
        <time>2022-09-22T11:31:21Z</time>
      </trkpt>
      <trkpt lat="44.12734" lon="5.83547">
        <ele>1019</ele>
        <time>2022-09-22T11:31:22Z</time>
      </trkpt>
      <trkpt lat="44.12734" lon="5.83547">
        <ele>1019</ele>
        <time>2022-09-22T11:31:23Z</time>
      </trkpt>
      <trkpt lat="44.12734" lon="5.83548">
        <ele>1019</ele>
        <time>2022-09-22T11:31:24Z</time>
      </trkpt>
      <trkpt lat="44.12734" lon="5.83549">
        <ele>1018</ele>
        <time>2022-09-22T11:31:25Z</time>
      </trkpt>
      <trkpt lat="44.12734" lon="5.8355">
        <ele>1018</ele>
        <time>2022-09-22T11:31:26Z</time>
      </trkpt>
      <trkpt lat="44.12735" lon="5.83552">
        <ele>1018</ele>
        <time>2022-09-22T11:32:14Z</time>
      </trkpt>
      <trkpt lat="44.12736" lon="5.83553">
        <ele>1018</ele>
        <time>2022-09-22T11:32:15Z</time>
      </trkpt>
      <trkpt lat="44.12736" lon="5.83554">
        <ele>1018</ele>
        <time>2022-09-22T11:32:16Z</time>
      </trkpt>
      <trkpt lat="44.12736" lon="5.83555">
        <ele>1018</ele>
        <time>2022-09-22T11:32:17Z</time>
      </trkpt>
      <trkpt lat="44.12736" lon="5.83556">
        <ele>1018</ele>
        <time>2022-09-22T11:32:18Z</time>
      </trkpt>
      <trkpt lat="44.12736" lon="5.83557">
        <ele>1018</ele>
        <time>2022-09-22T11:32:19Z</time>
      </trkpt>
      <trkpt lat="44.12736" lon="5.83558">
        <ele>1018</ele>
        <time>2022-09-22T11:32:20Z</time>
      </trkpt>
      <trkpt lat="44.12736" lon="5.8356">
        <ele>1018</ele>
        <time>2022-09-22T11:32:21Z</time>
      </trkpt>
      <trkpt lat="44.12736" lon="5.83561">
        <ele>1018</ele>
        <time>2022-09-22T11:32:22Z</time>
      </trkpt>
      <trkpt lat="44.12736" lon="5.83562">
        <ele>1018</ele>
        <time>2022-09-22T11:32:23Z</time>
      </trkpt>
      <trkpt lat="44.12735" lon="5.83563">
        <ele>1018</ele>
        <time>2022-09-22T11:32:24Z</time>
      </trkpt>
      <trkpt lat="44.12735" lon="5.83565">
        <ele>1018</ele>
        <time>2022-09-22T11:32:25Z</time>
      </trkpt>
      <trkpt lat="44.12735" lon="5.83566">
        <ele>1018</ele>
        <time>2022-09-22T11:32:26Z</time>
      </trkpt>
      <trkpt lat="44.12735" lon="5.83568">
        <ele>1018</ele>
        <time>2022-09-22T11:32:27Z</time>
      </trkpt>
      <trkpt lat="44.12735" lon="5.83569">
        <ele>1018</ele>
        <time>2022-09-22T11:32:28Z</time>
      </trkpt>
      <trkpt lat="44.12735" lon="5.8357">
        <ele>1018</ele>
        <time>2022-09-22T11:32:29Z</time>
      </trkpt>
      <trkpt lat="44.12735" lon="5.83572">
        <ele>1018</ele>
        <time>2022-09-22T11:32:30Z</time>
      </trkpt>
      <trkpt lat="44.12735" lon="5.83573">
        <ele>1018</ele>
        <time>2022-09-22T11:32:31Z</time>
      </trkpt>
      <trkpt lat="44.12735" lon="5.83574">
        <ele>1018</ele>
        <time>2022-09-22T11:32:32Z</time>
      </trkpt>
      <trkpt lat="44.12736" lon="5.83575">
        <ele>1018</ele>
        <time>2022-09-22T11:32:33Z</time>
      </trkpt>
      <trkpt lat="44.12736" lon="5.83576">
        <ele>1018</ele>
        <time>2022-09-22T11:32:34Z</time>
      </trkpt>
      <trkpt lat="44.12736" lon="5.83577">
        <ele>1018</ele>
        <time>2022-09-22T11:32:35Z</time>
      </trkpt>
      <trkpt lat="44.12737" lon="5.83578">
        <ele>1018</ele>
        <time>2022-09-22T11:32:36Z</time>
      </trkpt>
      <trkpt lat="44.12737" lon="5.83579">
        <ele>1018</ele>
        <time>2022-09-22T11:32:37Z</time>
      </trkpt>
      <trkpt lat="44.12737" lon="5.83579">
        <ele>1018</ele>
        <time>2022-09-22T11:32:38Z</time>
      </trkpt>
      <trkpt lat="44.12738" lon="5.8358">
        <ele>1018</ele>
        <time>2022-09-22T11:32:39Z</time>
      </trkpt>
      <trkpt lat="44.12738" lon="5.8358">
        <ele>1018</ele>
        <time>2022-09-22T11:32:40Z</time>
      </trkpt>
      <trkpt lat="44.12739" lon="5.83581">
        <ele>1018</ele>
        <time>2022-09-22T11:32:41Z</time>
      </trkpt>
      <trkpt lat="44.12739" lon="5.83581">
        <ele>1018</ele>
        <time>2022-09-22T11:32:42Z</time>
      </trkpt>
      <trkpt lat="44.1274" lon="5.83582">
        <ele>1018</ele>
        <time>2022-09-22T11:32:43Z</time>
      </trkpt>
      <trkpt lat="44.1274" lon="5.83582">
        <ele>1018</ele>
        <time>2022-09-22T11:32:44Z</time>
      </trkpt>
      <trkpt lat="44.1274" lon="5.83583">
        <ele>1018</ele>
        <time>2022-09-22T11:32:45Z</time>
      </trkpt>
      <trkpt lat="44.12741" lon="5.83584">
        <ele>1018</ele>
        <time>2022-09-22T11:32:46Z</time>
      </trkpt>
      <trkpt lat="44.12741" lon="5.83585">
        <ele>1018</ele>
        <time>2022-09-22T11:32:47Z</time>
      </trkpt>
      <trkpt lat="44.12742" lon="5.83587">
        <ele>1018</ele>
        <time>2022-09-22T11:32:48Z</time>
      </trkpt>
      <trkpt lat="44.12742" lon="5.83588">
        <ele>1019</ele>
        <time>2022-09-22T11:32:49Z</time>
      </trkpt>
      <trkpt lat="44.12743" lon="5.8359">
        <ele>1019</ele>
        <time>2022-09-22T11:32:50Z</time>
      </trkpt>
      <trkpt lat="44.12743" lon="5.83591">
        <ele>1019</ele>
        <time>2022-09-22T11:32:51Z</time>
      </trkpt>
      <trkpt lat="44.12744" lon="5.83593">
        <ele>1019</ele>
        <time>2022-09-22T11:32:52Z</time>
      </trkpt>
      <trkpt lat="44.12744" lon="5.83594">
        <ele>1019</ele>
        <time>2022-09-22T11:32:53Z</time>
      </trkpt>
      <trkpt lat="44.12745" lon="5.83595">
        <ele>1019</ele>
        <time>2022-09-22T11:32:54Z</time>
      </trkpt>
      <trkpt lat="44.12745" lon="5.83597">
        <ele>1019</ele>
        <time>2022-09-22T11:32:55Z</time>
      </trkpt>
      <trkpt lat="44.12746" lon="5.83598">
        <ele>1019</ele>
        <time>2022-09-22T11:32:56Z</time>
      </trkpt>
      <trkpt lat="44.12746" lon="5.83599">
        <ele>1019</ele>
        <time>2022-09-22T11:32:57Z</time>
      </trkpt>
      <trkpt lat="44.12746" lon="5.836">
        <ele>1019</ele>
        <time>2022-09-22T11:32:58Z</time>
      </trkpt>
      <trkpt lat="44.12746" lon="5.83601">
        <ele>1020</ele>
        <time>2022-09-22T11:32:59Z</time>
      </trkpt>
      <trkpt lat="44.12746" lon="5.83603">
        <ele>1020</ele>
        <time>2022-09-22T11:33:00Z</time>
      </trkpt>
      <trkpt lat="44.12746" lon="5.83604">
        <ele>1020</ele>
        <time>2022-09-22T11:33:01Z</time>
      </trkpt>
      <trkpt lat="44.12746" lon="5.83605">
        <ele>1020</ele>
        <time>2022-09-22T11:33:02Z</time>
      </trkpt>
      <trkpt lat="44.12746" lon="5.83605">
        <ele>1020</ele>
        <time>2022-09-22T11:33:03Z</time>
      </trkpt>
      <trkpt lat="44.12746" lon="5.83607">
        <ele>1020</ele>
        <time>2022-09-22T11:33:04Z</time>
      </trkpt>
      <trkpt lat="44.12746" lon="5.83608">
        <ele>1020</ele>
        <time>2022-09-22T11:33:05Z</time>
      </trkpt>
      <trkpt lat="44.12746" lon="5.83609">
        <ele>1020</ele>
        <time>2022-09-22T11:33:06Z</time>
      </trkpt>
      <trkpt lat="44.12747" lon="5.8361">
        <ele>1020</ele>
        <time>2022-09-22T11:33:07Z</time>
      </trkpt>
      <trkpt lat="44.12747" lon="5.83611">
        <ele>1020</ele>
        <time>2022-09-22T11:33:08Z</time>
      </trkpt>
      <trkpt lat="44.12747" lon="5.83612">
        <ele>1021</ele>
        <time>2022-09-22T11:33:09Z</time>
      </trkpt>
      <trkpt lat="44.12747" lon="5.83614">
        <ele>1021</ele>
        <time>2022-09-22T11:33:10Z</time>
      </trkpt>
      <trkpt lat="44.12747" lon="5.83615">
        <ele>1021</ele>
        <time>2022-09-22T11:33:11Z</time>
      </trkpt>
      <trkpt lat="44.12747" lon="5.83616">
        <ele>1021</ele>
        <time>2022-09-22T11:33:12Z</time>
      </trkpt>
      <trkpt lat="44.12747" lon="5.83617">
        <ele>1021</ele>
        <time>2022-09-22T11:33:13Z</time>
      </trkpt>
      <trkpt lat="44.12747" lon="5.83618">
        <ele>1021</ele>
        <time>2022-09-22T11:33:14Z</time>
      </trkpt>
      <trkpt lat="44.12747" lon="5.83619">
        <ele>1021</ele>
        <time>2022-09-22T11:33:15Z</time>
      </trkpt>
      <trkpt lat="44.12747" lon="5.8362">
        <ele>1021</ele>
        <time>2022-09-22T11:33:16Z</time>
      </trkpt>
      <trkpt lat="44.12747" lon="5.83621">
        <ele>1021</ele>
        <time>2022-09-22T11:33:17Z</time>
      </trkpt>
      <trkpt lat="44.12746" lon="5.83622">
        <ele>1021</ele>
        <time>2022-09-22T11:33:18Z</time>
      </trkpt>
      <trkpt lat="44.12746" lon="5.83623">
        <ele>1022</ele>
        <time>2022-09-22T11:33:19Z</time>
      </trkpt>
      <trkpt lat="44.12745" lon="5.83624">
        <ele>1021</ele>
        <time>2022-09-22T11:33:20Z</time>
      </trkpt>
      <trkpt lat="44.12745" lon="5.83625">
        <ele>1021</ele>
        <time>2022-09-22T11:33:21Z</time>
      </trkpt>
      <trkpt lat="44.12744" lon="5.83626">
        <ele>1021</ele>
        <time>2022-09-22T11:33:22Z</time>
      </trkpt>
      <trkpt lat="44.12744" lon="5.83627">
        <ele>1021</ele>
        <time>2022-09-22T11:33:23Z</time>
      </trkpt>
      <trkpt lat="44.12743" lon="5.83628">
        <ele>1021</ele>
        <time>2022-09-22T11:33:24Z</time>
      </trkpt>
      <trkpt lat="44.12743" lon="5.83629">
        <ele>1021</ele>
        <time>2022-09-22T11:33:25Z</time>
      </trkpt>
      <trkpt lat="44.12742" lon="5.8363">
        <ele>1021</ele>
        <time>2022-09-22T11:33:26Z</time>
      </trkpt>
      <trkpt lat="44.12742" lon="5.83631">
        <ele>1021</ele>
        <time>2022-09-22T11:33:27Z</time>
      </trkpt>
      <trkpt lat="44.12742" lon="5.83632">
        <ele>1021</ele>
        <time>2022-09-22T11:33:28Z</time>
      </trkpt>
      <trkpt lat="44.12742" lon="5.83632">
        <ele>1021</ele>
        <time>2022-09-22T11:33:29Z</time>
      </trkpt>
      <trkpt lat="44.12741" lon="5.83633">
        <ele>1021</ele>
        <time>2022-09-22T11:33:30Z</time>
      </trkpt>
      <trkpt lat="44.12741" lon="5.83634">
        <ele>1021</ele>
        <time>2022-09-22T11:33:31Z</time>
      </trkpt>
      <trkpt lat="44.12741" lon="5.83636">
        <ele>1021</ele>
        <time>2022-09-22T11:33:32Z</time>
      </trkpt>
      <trkpt lat="44.1274" lon="5.83637">
        <ele>1021</ele>
        <time>2022-09-22T11:33:33Z</time>
      </trkpt>
      <trkpt lat="44.1274" lon="5.83638">
        <ele>1021</ele>
        <time>2022-09-22T11:33:34Z</time>
      </trkpt>
      <trkpt lat="44.12739" lon="5.83639">
        <ele>1020</ele>
        <time>2022-09-22T11:33:35Z</time>
      </trkpt>
      <trkpt lat="44.12738" lon="5.8364">
        <ele>1020</ele>
        <time>2022-09-22T11:33:36Z</time>
      </trkpt>
      <trkpt lat="44.12737" lon="5.83641">
        <ele>1020</ele>
        <time>2022-09-22T11:33:37Z</time>
      </trkpt>
      <trkpt lat="44.12737" lon="5.83642">
        <ele>1020</ele>
        <time>2022-09-22T11:33:38Z</time>
      </trkpt>
      <trkpt lat="44.12736" lon="5.83642">
        <ele>1020</ele>
        <time>2022-09-22T11:33:39Z</time>
      </trkpt>
      <trkpt lat="44.12735" lon="5.83643">
        <ele>1020</ele>
        <time>2022-09-22T11:33:40Z</time>
      </trkpt>
      <trkpt lat="44.12734" lon="5.83644">
        <ele>1020</ele>
        <time>2022-09-22T11:33:41Z</time>
      </trkpt>
      <trkpt lat="44.12733" lon="5.83645">
        <ele>1020</ele>
        <time>2022-09-22T11:33:42Z</time>
      </trkpt>
      <trkpt lat="44.12732" lon="5.83645">
        <ele>1020</ele>
        <time>2022-09-22T11:33:43Z</time>
      </trkpt>
      <trkpt lat="44.12731" lon="5.83646">
        <ele>1020</ele>
        <time>2022-09-22T11:33:44Z</time>
      </trkpt>
      <trkpt lat="44.12731" lon="5.83646">
        <ele>1019</ele>
        <time>2022-09-22T11:33:45Z</time>
      </trkpt>
      <trkpt lat="44.1273" lon="5.83647">
        <ele>1019</ele>
        <time>2022-09-22T11:33:46Z</time>
      </trkpt>
      <trkpt lat="44.1273" lon="5.83647">
        <ele>1019</ele>
        <time>2022-09-22T11:33:47Z</time>
      </trkpt>
      <trkpt lat="44.12729" lon="5.83648">
        <ele>1019</ele>
        <time>2022-09-22T11:33:48Z</time>
      </trkpt>
      <trkpt lat="44.12729" lon="5.83649">
        <ele>1019</ele>
        <time>2022-09-22T11:33:49Z</time>
      </trkpt>
      <trkpt lat="44.12728" lon="5.8365">
        <ele>1019</ele>
        <time>2022-09-22T11:33:50Z</time>
      </trkpt>
      <trkpt lat="44.12728" lon="5.83651">
        <ele>1019</ele>
        <time>2022-09-22T11:33:51Z</time>
      </trkpt>
      <trkpt lat="44.12727" lon="5.83653">
        <ele>1019</ele>
        <time>2022-09-22T11:33:52Z</time>
      </trkpt>
      <trkpt lat="44.12726" lon="5.83654">
        <ele>1019</ele>
        <time>2022-09-22T11:33:53Z</time>
      </trkpt>
      <trkpt lat="44.12726" lon="5.83656">
        <ele>1019</ele>
        <time>2022-09-22T11:33:54Z</time>
      </trkpt>
      <trkpt lat="44.12726" lon="5.83657">
        <ele>1019</ele>
        <time>2022-09-22T11:33:55Z</time>
      </trkpt>
      <trkpt lat="44.12727" lon="5.83659">
        <ele>1019</ele>
        <time>2022-09-22T11:33:56Z</time>
      </trkpt>
      <trkpt lat="44.12727" lon="5.8366">
        <ele>1019</ele>
        <time>2022-09-22T11:33:57Z</time>
      </trkpt>
      <trkpt lat="44.12728" lon="5.83661">
        <ele>1019</ele>
        <time>2022-09-22T11:33:58Z</time>
      </trkpt>
      <trkpt lat="44.12728" lon="5.83663">
        <ele>1019</ele>
        <time>2022-09-22T11:33:59Z</time>
      </trkpt>
      <trkpt lat="44.12729" lon="5.83664">
        <ele>1019</ele>
        <time>2022-09-22T11:34:00Z</time>
      </trkpt>
      <trkpt lat="44.12729" lon="5.83665">
        <ele>1019</ele>
        <time>2022-09-22T11:34:01Z</time>
      </trkpt>
      <trkpt lat="44.1273" lon="5.83666">
        <ele>1019</ele>
        <time>2022-09-22T11:34:02Z</time>
      </trkpt>
      <trkpt lat="44.12731" lon="5.83667">
        <ele>1019</ele>
        <time>2022-09-22T11:34:03Z</time>
      </trkpt>
      <trkpt lat="44.12731" lon="5.83668">
        <ele>1019</ele>
        <time>2022-09-22T11:34:04Z</time>
      </trkpt>
      <trkpt lat="44.12732" lon="5.83669">
        <ele>1019</ele>
        <time>2022-09-22T11:34:05Z</time>
      </trkpt>
      <trkpt lat="44.12733" lon="5.8367">
        <ele>1019</ele>
        <time>2022-09-22T11:34:06Z</time>
      </trkpt>
      <trkpt lat="44.12733" lon="5.83671">
        <ele>1019</ele>
        <time>2022-09-22T11:34:07Z</time>
      </trkpt>
      <trkpt lat="44.12734" lon="5.83672">
        <ele>1019</ele>
        <time>2022-09-22T11:34:08Z</time>
      </trkpt>
      <trkpt lat="44.12734" lon="5.83673">
        <ele>1020</ele>
        <time>2022-09-22T11:34:09Z</time>
      </trkpt>
      <trkpt lat="44.12734" lon="5.83675">
        <ele>1020</ele>
        <time>2022-09-22T11:34:10Z</time>
      </trkpt>
      <trkpt lat="44.12735" lon="5.83676">
        <ele>1020</ele>
        <time>2022-09-22T11:34:11Z</time>
      </trkpt>
      <trkpt lat="44.12735" lon="5.83678">
        <ele>1020</ele>
        <time>2022-09-22T11:34:12Z</time>
      </trkpt>
      <trkpt lat="44.12735" lon="5.83679">
        <ele>1020</ele>
        <time>2022-09-22T11:34:13Z</time>
      </trkpt>
      <trkpt lat="44.12735" lon="5.83681">
        <ele>1020</ele>
        <time>2022-09-22T11:34:14Z</time>
      </trkpt>
      <trkpt lat="44.12735" lon="5.83682">
        <ele>1020</ele>
        <time>2022-09-22T11:34:15Z</time>
      </trkpt>
      <trkpt lat="44.12736" lon="5.83683">
        <ele>1020</ele>
        <time>2022-09-22T11:34:16Z</time>
      </trkpt>
      <trkpt lat="44.12736" lon="5.83685">
        <ele>1020</ele>
        <time>2022-09-22T11:34:17Z</time>
      </trkpt>
      <trkpt lat="44.12736" lon="5.83686">
        <ele>1020</ele>
        <time>2022-09-22T11:34:18Z</time>
      </trkpt>
      <trkpt lat="44.12737" lon="5.83687">
        <ele>1020</ele>
        <time>2022-09-22T11:34:19Z</time>
      </trkpt>
      <trkpt lat="44.12737" lon="5.83688">
        <ele>1020</ele>
        <time>2022-09-22T11:34:20Z</time>
      </trkpt>
      <trkpt lat="44.12737" lon="5.8369">
        <ele>1020</ele>
        <time>2022-09-22T11:34:21Z</time>
      </trkpt>
      <trkpt lat="44.12737" lon="5.83691">
        <ele>1020</ele>
        <time>2022-09-22T11:34:22Z</time>
      </trkpt>
      <trkpt lat="44.12737" lon="5.83693">
        <ele>1020</ele>
        <time>2022-09-22T11:34:23Z</time>
      </trkpt>
      <trkpt lat="44.12738" lon="5.83694">
        <ele>1020</ele>
        <time>2022-09-22T11:34:24Z</time>
      </trkpt>
      <trkpt lat="44.12738" lon="5.83696">
        <ele>1020</ele>
        <time>2022-09-22T11:34:25Z</time>
      </trkpt>
      <trkpt lat="44.12738" lon="5.83698">
        <ele>1020</ele>
        <time>2022-09-22T11:34:26Z</time>
      </trkpt>
      <trkpt lat="44.12739" lon="5.837">
        <ele>1020</ele>
        <time>2022-09-22T11:34:27Z</time>
      </trkpt>
      <trkpt lat="44.12739" lon="5.83701">
        <ele>1020</ele>
        <time>2022-09-22T11:34:28Z</time>
      </trkpt>
      <trkpt lat="44.1274" lon="5.83702">
        <ele>1020</ele>
        <time>2022-09-22T11:34:29Z</time>
      </trkpt>
      <trkpt lat="44.1274" lon="5.83703">
        <ele>1020</ele>
        <time>2022-09-22T11:34:30Z</time>
      </trkpt>
      <trkpt lat="44.1274" lon="5.83705">
        <ele>1020</ele>
        <time>2022-09-22T11:34:31Z</time>
      </trkpt>
      <trkpt lat="44.1274" lon="5.83706">
        <ele>1020</ele>
        <time>2022-09-22T11:34:32Z</time>
      </trkpt>
      <trkpt lat="44.1274" lon="5.83707">
        <ele>1020</ele>
        <time>2022-09-22T11:34:33Z</time>
      </trkpt>
      <trkpt lat="44.12741" lon="5.83708">
        <ele>1020</ele>
        <time>2022-09-22T11:34:34Z</time>
      </trkpt>
      <trkpt lat="44.12741" lon="5.83709">
        <ele>1020</ele>
        <time>2022-09-22T11:34:35Z</time>
      </trkpt>
      <trkpt lat="44.12741" lon="5.83711">
        <ele>1020</ele>
        <time>2022-09-22T11:34:36Z</time>
      </trkpt>
      <trkpt lat="44.12741" lon="5.83712">
        <ele>1020</ele>
        <time>2022-09-22T11:34:37Z</time>
      </trkpt>
      <trkpt lat="44.12742" lon="5.83714">
        <ele>1020</ele>
        <time>2022-09-22T11:34:38Z</time>
      </trkpt>
      <trkpt lat="44.12742" lon="5.83715">
        <ele>1020</ele>
        <time>2022-09-22T11:34:39Z</time>
      </trkpt>
      <trkpt lat="44.12743" lon="5.83717">
        <ele>1019</ele>
        <time>2022-09-22T11:34:40Z</time>
      </trkpt>
      <trkpt lat="44.12743" lon="5.83718">
        <ele>1019</ele>
        <time>2022-09-22T11:34:41Z</time>
      </trkpt>
      <trkpt lat="44.12744" lon="5.8372">
        <ele>1019</ele>
        <time>2022-09-22T11:34:42Z</time>
      </trkpt>
      <trkpt lat="44.12744" lon="5.83721">
        <ele>1019</ele>
        <time>2022-09-22T11:34:43Z</time>
      </trkpt>
      <trkpt lat="44.12745" lon="5.83722">
        <ele>1019</ele>
        <time>2022-09-22T11:34:44Z</time>
      </trkpt>
      <trkpt lat="44.12745" lon="5.83724">
        <ele>1019</ele>
        <time>2022-09-22T11:34:45Z</time>
      </trkpt>
      <trkpt lat="44.12746" lon="5.83725">
        <ele>1019</ele>
        <time>2022-09-22T11:34:46Z</time>
      </trkpt>
      <trkpt lat="44.12746" lon="5.83726">
        <ele>1019</ele>
        <time>2022-09-22T11:34:47Z</time>
      </trkpt>
      <trkpt lat="44.12747" lon="5.83727">
        <ele>1019</ele>
        <time>2022-09-22T11:34:48Z</time>
      </trkpt>
      <trkpt lat="44.12747" lon="5.83728">
        <ele>1019</ele>
        <time>2022-09-22T11:34:49Z</time>
      </trkpt>
      <trkpt lat="44.12747" lon="5.8373">
        <ele>1019</ele>
        <time>2022-09-22T11:34:50Z</time>
      </trkpt>
      <trkpt lat="44.12747" lon="5.83731">
        <ele>1019</ele>
        <time>2022-09-22T11:34:51Z</time>
      </trkpt>
      <trkpt lat="44.12747" lon="5.83732">
        <ele>1019</ele>
        <time>2022-09-22T11:34:52Z</time>
      </trkpt>
      <trkpt lat="44.12747" lon="5.83734">
        <ele>1019</ele>
        <time>2022-09-22T11:34:53Z</time>
      </trkpt>
      <trkpt lat="44.12746" lon="5.83735">
        <ele>1019</ele>
        <time>2022-09-22T11:34:54Z</time>
      </trkpt>
      <trkpt lat="44.12746" lon="5.83736">
        <ele>1019</ele>
        <time>2022-09-22T11:34:55Z</time>
      </trkpt>
      <trkpt lat="44.12746" lon="5.83738">
        <ele>1019</ele>
        <time>2022-09-22T11:34:56Z</time>
      </trkpt>
      <trkpt lat="44.12746" lon="5.83739">
        <ele>1019</ele>
        <time>2022-09-22T11:34:57Z</time>
      </trkpt>
      <trkpt lat="44.12747" lon="5.83741">
        <ele>1019</ele>
        <time>2022-09-22T11:34:58Z</time>
      </trkpt>
      <trkpt lat="44.12747" lon="5.83743">
        <ele>1019</ele>
        <time>2022-09-22T11:34:59Z</time>
      </trkpt>
      <trkpt lat="44.12747" lon="5.83744">
        <ele>1019</ele>
        <time>2022-09-22T11:35:00Z</time>
      </trkpt>
      <trkpt lat="44.12747" lon="5.83746">
        <ele>1019</ele>
        <time>2022-09-22T11:35:01Z</time>
      </trkpt>
      <trkpt lat="44.12747" lon="5.83748">
        <ele>1019</ele>
        <time>2022-09-22T11:35:02Z</time>
      </trkpt>
      <trkpt lat="44.12747" lon="5.83749">
        <ele>1019</ele>
        <time>2022-09-22T11:35:03Z</time>
      </trkpt>
      <trkpt lat="44.12746" lon="5.83751">
        <ele>1019</ele>
        <time>2022-09-22T11:35:04Z</time>
      </trkpt>
      <trkpt lat="44.12746" lon="5.83753">
        <ele>1018</ele>
        <time>2022-09-22T11:35:05Z</time>
      </trkpt>
      <trkpt lat="44.12746" lon="5.83755">
        <ele>1018</ele>
        <time>2022-09-22T11:35:06Z</time>
      </trkpt>
      <trkpt lat="44.12746" lon="5.83756">
        <ele>1018</ele>
        <time>2022-09-22T11:35:07Z</time>
      </trkpt>
      <trkpt lat="44.12746" lon="5.83757">
        <ele>1018</ele>
        <time>2022-09-22T11:35:08Z</time>
      </trkpt>
      <trkpt lat="44.12746" lon="5.83759">
        <ele>1018</ele>
        <time>2022-09-22T11:35:09Z</time>
      </trkpt>
      <trkpt lat="44.12746" lon="5.8376">
        <ele>1017</ele>
        <time>2022-09-22T11:35:10Z</time>
      </trkpt>
      <trkpt lat="44.12746" lon="5.83761">
        <ele>1017</ele>
        <time>2022-09-22T11:35:11Z</time>
      </trkpt>
      <trkpt lat="44.12746" lon="5.83763">
        <ele>1017</ele>
        <time>2022-09-22T11:35:12Z</time>
      </trkpt>
      <trkpt lat="44.12746" lon="5.83764">
        <ele>1017</ele>
        <time>2022-09-22T11:35:13Z</time>
      </trkpt>
      <trkpt lat="44.12746" lon="5.83766">
        <ele>1017</ele>
        <time>2022-09-22T11:35:14Z</time>
      </trkpt>
      <trkpt lat="44.12746" lon="5.83768">
        <ele>1017</ele>
        <time>2022-09-22T11:35:15Z</time>
      </trkpt>
      <trkpt lat="44.12746" lon="5.83769">
        <ele>1017</ele>
        <time>2022-09-22T11:35:16Z</time>
      </trkpt>
      <trkpt lat="44.12746" lon="5.83771">
        <ele>1017</ele>
        <time>2022-09-22T11:35:17Z</time>
      </trkpt>
      <trkpt lat="44.12745" lon="5.83772">
        <ele>1017</ele>
        <time>2022-09-22T11:35:18Z</time>
      </trkpt>
      <trkpt lat="44.12745" lon="5.83773">
        <ele>1017</ele>
        <time>2022-09-22T11:35:19Z</time>
      </trkpt>
      <trkpt lat="44.12745" lon="5.83774">
        <ele>1017</ele>
        <time>2022-09-22T11:35:20Z</time>
      </trkpt>
      <trkpt lat="44.12745" lon="5.83776">
        <ele>1017</ele>
        <time>2022-09-22T11:35:21Z</time>
      </trkpt>
      <trkpt lat="44.12745" lon="5.83777">
        <ele>1017</ele>
        <time>2022-09-22T11:35:22Z</time>
      </trkpt>
      <trkpt lat="44.12745" lon="5.83778">
        <ele>1017</ele>
        <time>2022-09-22T11:35:23Z</time>
      </trkpt>
      <trkpt lat="44.12744" lon="5.83779">
        <ele>1017</ele>
        <time>2022-09-22T11:35:24Z</time>
      </trkpt>
      <trkpt lat="44.12744" lon="5.8378">
        <ele>1016</ele>
        <time>2022-09-22T11:35:25Z</time>
      </trkpt>
      <trkpt lat="44.12744" lon="5.83782">
        <ele>1016</ele>
        <time>2022-09-22T11:35:26Z</time>
      </trkpt>
      <trkpt lat="44.12744" lon="5.83783">
        <ele>1016</ele>
        <time>2022-09-22T11:35:27Z</time>
      </trkpt>
      <trkpt lat="44.12743" lon="5.83784">
        <ele>1016</ele>
        <time>2022-09-22T11:35:28Z</time>
      </trkpt>
      <trkpt lat="44.12743" lon="5.83785">
        <ele>1016</ele>
        <time>2022-09-22T11:35:29Z</time>
      </trkpt>
      <trkpt lat="44.12743" lon="5.83786">
        <ele>1016</ele>
        <time>2022-09-22T11:35:30Z</time>
      </trkpt>
      <trkpt lat="44.12742" lon="5.83787">
        <ele>1016</ele>
        <time>2022-09-22T11:35:31Z</time>
      </trkpt>
      <trkpt lat="44.12742" lon="5.83788">
        <ele>1016</ele>
        <time>2022-09-22T11:35:32Z</time>
      </trkpt>
      <trkpt lat="44.12741" lon="5.83789">
        <ele>1016</ele>
        <time>2022-09-22T11:35:33Z</time>
      </trkpt>
      <trkpt lat="44.12741" lon="5.8379">
        <ele>1016</ele>
        <time>2022-09-22T11:35:34Z</time>
      </trkpt>
      <trkpt lat="44.12741" lon="5.83791">
        <ele>1015</ele>
        <time>2022-09-22T11:35:35Z</time>
      </trkpt>
      <trkpt lat="44.1274" lon="5.83792">
        <ele>1015</ele>
        <time>2022-09-22T11:35:36Z</time>
      </trkpt>
      <trkpt lat="44.1274" lon="5.83793">
        <ele>1014</ele>
        <time>2022-09-22T11:35:37Z</time>
      </trkpt>
      <trkpt lat="44.12739" lon="5.83794">
        <ele>1014</ele>
        <time>2022-09-22T11:35:38Z</time>
      </trkpt>
      <trkpt lat="44.12739" lon="5.83795">
        <ele>1014</ele>
        <time>2022-09-22T11:35:39Z</time>
      </trkpt>
      <trkpt lat="44.12738" lon="5.83796">
        <ele>1013</ele>
        <time>2022-09-22T11:35:40Z</time>
      </trkpt>
      <trkpt lat="44.12738" lon="5.83796">
        <ele>1013</ele>
        <time>2022-09-22T11:35:41Z</time>
      </trkpt>
      <trkpt lat="44.12737" lon="5.83797">
        <ele>1013</ele>
        <time>2022-09-22T11:35:42Z</time>
      </trkpt>
      <trkpt lat="44.12736" lon="5.83798">
        <ele>1013</ele>
        <time>2022-09-22T11:35:43Z</time>
      </trkpt>
      <trkpt lat="44.12736" lon="5.83798">
        <ele>1013</ele>
        <time>2022-09-22T11:35:44Z</time>
      </trkpt>
      <trkpt lat="44.12736" lon="5.83798">
        <ele>1012</ele>
        <time>2022-09-22T11:35:45Z</time>
      </trkpt>
      <trkpt lat="44.12735" lon="5.83798">
        <ele>1012</ele>
        <time>2022-09-22T11:35:46Z</time>
      </trkpt>
      <trkpt lat="44.12735" lon="5.83799">
        <ele>1012</ele>
        <time>2022-09-22T11:35:47Z</time>
      </trkpt>
      <trkpt lat="44.12734" lon="5.83799">
        <ele>1012</ele>
        <time>2022-09-22T11:35:48Z</time>
      </trkpt>
      <trkpt lat="44.12734" lon="5.83799">
        <ele>1012</ele>
        <time>2022-09-22T11:35:49Z</time>
      </trkpt>
      <trkpt lat="44.12734" lon="5.838">
        <ele>1012</ele>
        <time>2022-09-22T11:35:50Z</time>
      </trkpt>
      <trkpt lat="44.12733" lon="5.838">
        <ele>1012</ele>
        <time>2022-09-22T11:35:51Z</time>
      </trkpt>
      <trkpt lat="44.12733" lon="5.83801">
        <ele>1012</ele>
        <time>2022-09-22T11:35:52Z</time>
      </trkpt>
      <trkpt lat="44.12732" lon="5.83802">
        <ele>1012</ele>
        <time>2022-09-22T11:35:53Z</time>
      </trkpt>
      <trkpt lat="44.12732" lon="5.83802">
        <ele>1012</ele>
        <time>2022-09-22T11:35:54Z</time>
      </trkpt>
      <trkpt lat="44.12732" lon="5.83803">
        <ele>1011</ele>
        <time>2022-09-22T11:35:55Z</time>
      </trkpt>
      <trkpt lat="44.12732" lon="5.83804">
        <ele>1011</ele>
        <time>2022-09-22T11:35:56Z</time>
      </trkpt>
      <trkpt lat="44.12731" lon="5.83804">
        <ele>1011</ele>
        <time>2022-09-22T11:35:57Z</time>
      </trkpt>
      <trkpt lat="44.12731" lon="5.83805">
        <ele>1011</ele>
        <time>2022-09-22T11:35:58Z</time>
      </trkpt>
      <trkpt lat="44.12731" lon="5.83805">
        <ele>1011</ele>
        <time>2022-09-22T11:35:59Z</time>
      </trkpt>
      <trkpt lat="44.1273" lon="5.83806">
        <ele>1010</ele>
        <time>2022-09-22T11:36:00Z</time>
      </trkpt>
      <trkpt lat="44.1273" lon="5.83807">
        <ele>1010</ele>
        <time>2022-09-22T11:36:01Z</time>
      </trkpt>
      <trkpt lat="44.12729" lon="5.83807">
        <ele>1010</ele>
        <time>2022-09-22T11:36:02Z</time>
      </trkpt>
      <trkpt lat="44.12729" lon="5.83808">
        <ele>1010</ele>
        <time>2022-09-22T11:36:03Z</time>
      </trkpt>
      <trkpt lat="44.12728" lon="5.83809">
        <ele>1010</ele>
        <time>2022-09-22T11:36:04Z</time>
      </trkpt>
      <trkpt lat="44.12728" lon="5.83809">
        <ele>1009</ele>
        <time>2022-09-22T11:36:05Z</time>
      </trkpt>
      <trkpt lat="44.12728" lon="5.8381">
        <ele>1009</ele>
        <time>2022-09-22T11:36:06Z</time>
      </trkpt>
      <trkpt lat="44.12728" lon="5.83811">
        <ele>1009</ele>
        <time>2022-09-22T11:36:07Z</time>
      </trkpt>
      <trkpt lat="44.12728" lon="5.83811">
        <ele>1009</ele>
        <time>2022-09-22T11:36:08Z</time>
      </trkpt>
      <trkpt lat="44.12727" lon="5.83812">
        <ele>1009</ele>
        <time>2022-09-22T11:36:09Z</time>
      </trkpt>
      <trkpt lat="44.12727" lon="5.83813">
        <ele>1008</ele>
        <time>2022-09-22T11:36:10Z</time>
      </trkpt>
      <trkpt lat="44.12727" lon="5.83814">
        <ele>1008</ele>
        <time>2022-09-22T11:36:11Z</time>
      </trkpt>
      <trkpt lat="44.12726" lon="5.83814">
        <ele>1008</ele>
        <time>2022-09-22T11:36:12Z</time>
      </trkpt>
      <trkpt lat="44.12726" lon="5.83815">
        <ele>1008</ele>
        <time>2022-09-22T11:36:13Z</time>
      </trkpt>
      <trkpt lat="44.12726" lon="5.83816">
        <ele>1008</ele>
        <time>2022-09-22T11:36:14Z</time>
      </trkpt>
      <trkpt lat="44.12725" lon="5.83816">
        <ele>1007</ele>
        <time>2022-09-22T11:36:15Z</time>
      </trkpt>
      <trkpt lat="44.12725" lon="5.83817">
        <ele>1007</ele>
        <time>2022-09-22T11:36:16Z</time>
      </trkpt>
      <trkpt lat="44.12725" lon="5.83818">
        <ele>1007</ele>
        <time>2022-09-22T11:36:17Z</time>
      </trkpt>
      <trkpt lat="44.12725" lon="5.83819">
        <ele>1007</ele>
        <time>2022-09-22T11:36:18Z</time>
      </trkpt>
      <trkpt lat="44.12724" lon="5.8382">
        <ele>1007</ele>
        <time>2022-09-22T11:36:19Z</time>
      </trkpt>
      <trkpt lat="44.12724" lon="5.83821">
        <ele>1006</ele>
        <time>2022-09-22T11:36:20Z</time>
      </trkpt>
      <trkpt lat="44.12723" lon="5.83822">
        <ele>1006</ele>
        <time>2022-09-22T11:36:21Z</time>
      </trkpt>
      <trkpt lat="44.12723" lon="5.83822">
        <ele>1006</ele>
        <time>2022-09-22T11:36:22Z</time>
      </trkpt>
      <trkpt lat="44.12723" lon="5.83823">
        <ele>1006</ele>
        <time>2022-09-22T11:36:23Z</time>
      </trkpt>
      <trkpt lat="44.12722" lon="5.83823">
        <ele>1006</ele>
        <time>2022-09-22T11:36:24Z</time>
      </trkpt>
      <trkpt lat="44.12722" lon="5.83824">
        <ele>1006</ele>
        <time>2022-09-22T11:36:25Z</time>
      </trkpt>
      <trkpt lat="44.12722" lon="5.83824">
        <ele>1006</ele>
        <time>2022-09-22T11:36:26Z</time>
      </trkpt>
      <trkpt lat="44.12721" lon="5.83825">
        <ele>1006</ele>
        <time>2022-09-22T11:36:27Z</time>
      </trkpt>
      <trkpt lat="44.12721" lon="5.83826">
        <ele>1006</ele>
        <time>2022-09-22T11:36:28Z</time>
      </trkpt>
      <trkpt lat="44.12721" lon="5.83827">
        <ele>1006</ele>
        <time>2022-09-22T11:36:29Z</time>
      </trkpt>
      <trkpt lat="44.1272" lon="5.83828">
        <ele>1005</ele>
        <time>2022-09-22T11:36:30Z</time>
      </trkpt>
      <trkpt lat="44.1272" lon="5.83828">
        <ele>1005</ele>
        <time>2022-09-22T11:36:31Z</time>
      </trkpt>
      <trkpt lat="44.1272" lon="5.83829">
        <ele>1005</ele>
        <time>2022-09-22T11:36:32Z</time>
      </trkpt>
      <trkpt lat="44.12719" lon="5.8383">
        <ele>1005</ele>
        <time>2022-09-22T11:36:33Z</time>
      </trkpt>
      <trkpt lat="44.12719" lon="5.83831">
        <ele>1005</ele>
        <time>2022-09-22T11:36:34Z</time>
      </trkpt>
      <trkpt lat="44.12719" lon="5.83832">
        <ele>1004</ele>
        <time>2022-09-22T11:36:35Z</time>
      </trkpt>
      <trkpt lat="44.12718" lon="5.83833">
        <ele>1004</ele>
        <time>2022-09-22T11:36:36Z</time>
      </trkpt>
      <trkpt lat="44.12718" lon="5.83834">
        <ele>1004</ele>
        <time>2022-09-22T11:36:37Z</time>
      </trkpt>
      <trkpt lat="44.12718" lon="5.83835">
        <ele>1004</ele>
        <time>2022-09-22T11:36:38Z</time>
      </trkpt>
      <trkpt lat="44.12717" lon="5.83836">
        <ele>1004</ele>
        <time>2022-09-22T11:36:39Z</time>
      </trkpt>
      <trkpt lat="44.12717" lon="5.83836">
        <ele>1003</ele>
        <time>2022-09-22T11:36:40Z</time>
      </trkpt>
      <trkpt lat="44.12716" lon="5.83837">
        <ele>1003</ele>
        <time>2022-09-22T11:36:41Z</time>
      </trkpt>
      <trkpt lat="44.12716" lon="5.83838">
        <ele>1003</ele>
        <time>2022-09-22T11:36:42Z</time>
      </trkpt>
      <trkpt lat="44.12716" lon="5.83838">
        <ele>1003</ele>
        <time>2022-09-22T11:36:43Z</time>
      </trkpt>
      <trkpt lat="44.12715" lon="5.83839">
        <ele>1003</ele>
        <time>2022-09-22T11:36:44Z</time>
      </trkpt>
      <trkpt lat="44.12715" lon="5.83839">
        <ele>1002</ele>
        <time>2022-09-22T11:36:45Z</time>
      </trkpt>
      <trkpt lat="44.12714" lon="5.8384">
        <ele>1002</ele>
        <time>2022-09-22T11:36:46Z</time>
      </trkpt>
      <trkpt lat="44.12714" lon="5.8384">
        <ele>1002</ele>
        <time>2022-09-22T11:36:47Z</time>
      </trkpt>
      <trkpt lat="44.12713" lon="5.8384">
        <ele>1002</ele>
        <time>2022-09-22T11:36:48Z</time>
      </trkpt>
      <trkpt lat="44.12713" lon="5.8384">
        <ele>1002</ele>
        <time>2022-09-22T11:36:49Z</time>
      </trkpt>
      <trkpt lat="44.12712" lon="5.8384">
        <ele>1001</ele>
        <time>2022-09-22T11:36:50Z</time>
      </trkpt>
      <trkpt lat="44.12711" lon="5.8384">
        <ele>1001</ele>
        <time>2022-09-22T11:36:51Z</time>
      </trkpt>
      <trkpt lat="44.12711" lon="5.83839">
        <ele>1001</ele>
        <time>2022-09-22T11:36:52Z</time>
      </trkpt>
      <trkpt lat="44.1271" lon="5.83839">
        <ele>1001</ele>
        <time>2022-09-22T11:36:53Z</time>
      </trkpt>
      <trkpt lat="44.12709" lon="5.83839">
        <ele>1001</ele>
        <time>2022-09-22T11:36:54Z</time>
      </trkpt>
      <trkpt lat="44.12709" lon="5.83839">
        <ele>1001</ele>
        <time>2022-09-22T11:36:55Z</time>
      </trkpt>
      <trkpt lat="44.12708" lon="5.83838">
        <ele>1001</ele>
        <time>2022-09-22T11:36:56Z</time>
      </trkpt>
      <trkpt lat="44.12707" lon="5.83838">
        <ele>1001</ele>
        <time>2022-09-22T11:36:57Z</time>
      </trkpt>
      <trkpt lat="44.12706" lon="5.83838">
        <ele>1001</ele>
        <time>2022-09-22T11:36:58Z</time>
      </trkpt>
      <trkpt lat="44.12706" lon="5.83838">
        <ele>1001</ele>
        <time>2022-09-22T11:36:59Z</time>
      </trkpt>
      <trkpt lat="44.12705" lon="5.83838">
        <ele>1000</ele>
        <time>2022-09-22T11:37:00Z</time>
      </trkpt>
      <trkpt lat="44.12703" lon="5.83839">
        <ele>1000</ele>
        <time>2022-09-22T11:37:01Z</time>
      </trkpt>
      <trkpt lat="44.12702" lon="5.83839">
        <ele>1000</ele>
        <time>2022-09-22T11:37:02Z</time>
      </trkpt>
      <trkpt lat="44.12701" lon="5.83839">
        <ele>1000</ele>
        <time>2022-09-22T11:37:03Z</time>
      </trkpt>
      <trkpt lat="44.127" lon="5.8384">
        <ele>1000</ele>
        <time>2022-09-22T11:37:04Z</time>
      </trkpt>
      <trkpt lat="44.12699" lon="5.8384">
        <ele>999</ele>
        <time>2022-09-22T11:37:05Z</time>
      </trkpt>
      <trkpt lat="44.12698" lon="5.8384">
        <ele>999</ele>
        <time>2022-09-22T11:37:06Z</time>
      </trkpt>
      <trkpt lat="44.12696" lon="5.8384">
        <ele>999</ele>
        <time>2022-09-22T11:37:07Z</time>
      </trkpt>
      <trkpt lat="44.12696" lon="5.8384">
        <ele>999</ele>
        <time>2022-09-22T11:37:08Z</time>
      </trkpt>
      <trkpt lat="44.12696" lon="5.8384">
        <ele>999</ele>
        <time>2022-09-22T11:37:09Z</time>
      </trkpt>
      <trkpt lat="44.12696" lon="5.8384">
        <ele>999</ele>
        <time>2022-09-22T11:37:10Z</time>
      </trkpt>
      <trkpt lat="44.12695" lon="5.8384">
        <ele>999</ele>
        <time>2022-09-22T11:37:11Z</time>
      </trkpt>
      <trkpt lat="44.12695" lon="5.83841">
        <ele>999</ele>
        <time>2022-09-22T11:37:12Z</time>
      </trkpt>
      <trkpt lat="44.12694" lon="5.83842">
        <ele>999</ele>
        <time>2022-09-22T11:37:13Z</time>
      </trkpt>
      <trkpt lat="44.12693" lon="5.83842">
        <ele>999</ele>
        <time>2022-09-22T11:37:14Z</time>
      </trkpt>
      <trkpt lat="44.12692" lon="5.83843">
        <ele>998</ele>
        <time>2022-09-22T11:37:15Z</time>
      </trkpt>
      <trkpt lat="44.12692" lon="5.83843">
        <ele>998</ele>
        <time>2022-09-22T11:37:16Z</time>
      </trkpt>
      <trkpt lat="44.12691" lon="5.83843">
        <ele>998</ele>
        <time>2022-09-22T11:37:17Z</time>
      </trkpt>
      <trkpt lat="44.12691" lon="5.83844">
        <ele>998</ele>
        <time>2022-09-22T11:37:18Z</time>
      </trkpt>
      <trkpt lat="44.1269" lon="5.83845">
        <ele>998</ele>
        <time>2022-09-22T11:37:19Z</time>
      </trkpt>
      <trkpt lat="44.12689" lon="5.83846">
        <ele>997</ele>
        <time>2022-09-22T11:37:20Z</time>
      </trkpt>
      <trkpt lat="44.12689" lon="5.83847">
        <ele>997</ele>
        <time>2022-09-22T11:37:21Z</time>
      </trkpt>
      <trkpt lat="44.12688" lon="5.83847">
        <ele>997</ele>
        <time>2022-09-22T11:37:22Z</time>
      </trkpt>
      <trkpt lat="44.12687" lon="5.83848">
        <ele>997</ele>
        <time>2022-09-22T11:37:23Z</time>
      </trkpt>
      <trkpt lat="44.12686" lon="5.83848">
        <ele>997</ele>
        <time>2022-09-22T11:37:24Z</time>
      </trkpt>
      <trkpt lat="44.12685" lon="5.83848">
        <ele>997</ele>
        <time>2022-09-22T11:37:25Z</time>
      </trkpt>
      <trkpt lat="44.12684" lon="5.83847">
        <ele>997</ele>
        <time>2022-09-22T11:37:26Z</time>
      </trkpt>
      <trkpt lat="44.12683" lon="5.83847">
        <ele>997</ele>
        <time>2022-09-22T11:37:27Z</time>
      </trkpt>
      <trkpt lat="44.12682" lon="5.83846">
        <ele>997</ele>
        <time>2022-09-22T11:37:28Z</time>
      </trkpt>
      <trkpt lat="44.12681" lon="5.83846">
        <ele>997</ele>
        <time>2022-09-22T11:37:29Z</time>
      </trkpt>
      <trkpt lat="44.12678" lon="5.83845">
        <ele>996</ele>
        <time>2022-09-22T11:37:37Z</time>
      </trkpt>
      <trkpt lat="44.12678" lon="5.83845">
        <ele>996</ele>
        <time>2022-09-22T11:37:38Z</time>
      </trkpt>
      <trkpt lat="44.12677" lon="5.83846">
        <ele>996</ele>
        <time>2022-09-22T11:37:39Z</time>
      </trkpt>
      <trkpt lat="44.12677" lon="5.83846">
        <ele>995</ele>
        <time>2022-09-22T11:37:40Z</time>
      </trkpt>
      <trkpt lat="44.12677" lon="5.83847">
        <ele>995</ele>
        <time>2022-09-22T11:37:41Z</time>
      </trkpt>
      <trkpt lat="44.12677" lon="5.83848">
        <ele>995</ele>
        <time>2022-09-22T11:37:42Z</time>
      </trkpt>
      <trkpt lat="44.12678" lon="5.83849">
        <ele>995</ele>
        <time>2022-09-22T11:37:43Z</time>
      </trkpt>
      <trkpt lat="44.12678" lon="5.8385">
        <ele>995</ele>
        <time>2022-09-22T11:37:44Z</time>
      </trkpt>
      <trkpt lat="44.12679" lon="5.83851">
        <ele>994</ele>
        <time>2022-09-22T11:37:45Z</time>
      </trkpt>
      <trkpt lat="44.12679" lon="5.83852">
        <ele>994</ele>
        <time>2022-09-22T11:37:46Z</time>
      </trkpt>
      <trkpt lat="44.12679" lon="5.83853">
        <ele>994</ele>
        <time>2022-09-22T11:37:47Z</time>
      </trkpt>
      <trkpt lat="44.12679" lon="5.83854">
        <ele>994</ele>
        <time>2022-09-22T11:37:48Z</time>
      </trkpt>
      <trkpt lat="44.1268" lon="5.83855">
        <ele>994</ele>
        <time>2022-09-22T11:37:49Z</time>
      </trkpt>
      <trkpt lat="44.1268" lon="5.83855">
        <ele>994</ele>
        <time>2022-09-22T11:37:50Z</time>
      </trkpt>
      <trkpt lat="44.1268" lon="5.83856">
        <ele>994</ele>
        <time>2022-09-22T11:37:51Z</time>
      </trkpt>
      <trkpt lat="44.1268" lon="5.83857">
        <ele>994</ele>
        <time>2022-09-22T11:37:52Z</time>
      </trkpt>
      <trkpt lat="44.1268" lon="5.83857">
        <ele>994</ele>
        <time>2022-09-22T11:37:53Z</time>
      </trkpt>
      <trkpt lat="44.12681" lon="5.83858">
        <ele>994</ele>
        <time>2022-09-22T11:37:54Z</time>
      </trkpt>
      <trkpt lat="44.12681" lon="5.83858">
        <ele>993</ele>
        <time>2022-09-22T11:37:55Z</time>
      </trkpt>
      <trkpt lat="44.12682" lon="5.83859">
        <ele>993</ele>
        <time>2022-09-22T11:37:56Z</time>
      </trkpt>
      <trkpt lat="44.12682" lon="5.83859">
        <ele>993</ele>
        <time>2022-09-22T11:37:57Z</time>
      </trkpt>
      <trkpt lat="44.12683" lon="5.83859">
        <ele>993</ele>
        <time>2022-09-22T11:37:58Z</time>
      </trkpt>
      <trkpt lat="44.12683" lon="5.8386">
        <ele>993</ele>
        <time>2022-09-22T11:37:59Z</time>
      </trkpt>
      <trkpt lat="44.12683" lon="5.8386">
        <ele>992</ele>
        <time>2022-09-22T11:38:00Z</time>
      </trkpt>
      <trkpt lat="44.12684" lon="5.83861">
        <ele>992</ele>
        <time>2022-09-22T11:38:01Z</time>
      </trkpt>
      <trkpt lat="44.12684" lon="5.83862">
        <ele>992</ele>
        <time>2022-09-22T11:38:02Z</time>
      </trkpt>
      <trkpt lat="44.12685" lon="5.83863">
        <ele>992</ele>
        <time>2022-09-22T11:38:03Z</time>
      </trkpt>
      <trkpt lat="44.12685" lon="5.83864">
        <ele>992</ele>
        <time>2022-09-22T11:38:04Z</time>
      </trkpt>
      <trkpt lat="44.12685" lon="5.83865">
        <ele>991</ele>
        <time>2022-09-22T11:38:05Z</time>
      </trkpt>
      <trkpt lat="44.12685" lon="5.83866">
        <ele>991</ele>
        <time>2022-09-22T11:38:06Z</time>
      </trkpt>
      <trkpt lat="44.12684" lon="5.83866">
        <ele>991</ele>
        <time>2022-09-22T11:38:07Z</time>
      </trkpt>
      <trkpt lat="44.12684" lon="5.83867">
        <ele>991</ele>
        <time>2022-09-22T11:38:08Z</time>
      </trkpt>
      <trkpt lat="44.12683" lon="5.83868">
        <ele>991</ele>
        <time>2022-09-22T11:38:09Z</time>
      </trkpt>
      <trkpt lat="44.12683" lon="5.83868">
        <ele>990</ele>
        <time>2022-09-22T11:38:10Z</time>
      </trkpt>
      <trkpt lat="44.12682" lon="5.83869">
        <ele>990</ele>
        <time>2022-09-22T11:38:11Z</time>
      </trkpt>
      <trkpt lat="44.12682" lon="5.83869">
        <ele>990</ele>
        <time>2022-09-22T11:38:12Z</time>
      </trkpt>
      <trkpt lat="44.12681" lon="5.8387">
        <ele>990</ele>
        <time>2022-09-22T11:38:13Z</time>
      </trkpt>
      <trkpt lat="44.1268" lon="5.8387">
        <ele>990</ele>
        <time>2022-09-22T11:38:14Z</time>
      </trkpt>
      <trkpt lat="44.1268" lon="5.8387">
        <ele>990</ele>
        <time>2022-09-22T11:38:15Z</time>
      </trkpt>
      <trkpt lat="44.12679" lon="5.83871">
        <ele>990</ele>
        <time>2022-09-22T11:38:16Z</time>
      </trkpt>
      <trkpt lat="44.12677" lon="5.83871">
        <ele>990</ele>
        <time>2022-09-22T11:38:17Z</time>
      </trkpt>
      <trkpt lat="44.12676" lon="5.83871">
        <ele>990</ele>
        <time>2022-09-22T11:38:18Z</time>
      </trkpt>
      <trkpt lat="44.12675" lon="5.83871">
        <ele>990</ele>
        <time>2022-09-22T11:38:19Z</time>
      </trkpt>
      <trkpt lat="44.12673" lon="5.83871">
        <ele>989</ele>
        <time>2022-09-22T11:38:20Z</time>
      </trkpt>
      <trkpt lat="44.12672" lon="5.83871">
        <ele>989</ele>
        <time>2022-09-22T11:38:21Z</time>
      </trkpt>
      <trkpt lat="44.12671" lon="5.83871">
        <ele>989</ele>
        <time>2022-09-22T11:38:22Z</time>
      </trkpt>
      <trkpt lat="44.1267" lon="5.83871">
        <ele>989</ele>
        <time>2022-09-22T11:38:23Z</time>
      </trkpt>
      <trkpt lat="44.12669" lon="5.83872">
        <ele>989</ele>
        <time>2022-09-22T11:38:24Z</time>
      </trkpt>
      <trkpt lat="44.12668" lon="5.83872">
        <ele>989</ele>
        <time>2022-09-22T11:38:25Z</time>
      </trkpt>
      <trkpt lat="44.12667" lon="5.83872">
        <ele>989</ele>
        <time>2022-09-22T11:38:26Z</time>
      </trkpt>
      <trkpt lat="44.12666" lon="5.83872">
        <ele>989</ele>
        <time>2022-09-22T11:38:27Z</time>
      </trkpt>
      <trkpt lat="44.12665" lon="5.83872">
        <ele>989</ele>
        <time>2022-09-22T11:38:28Z</time>
      </trkpt>
      <trkpt lat="44.12665" lon="5.83873">
        <ele>989</ele>
        <time>2022-09-22T11:38:29Z</time>
      </trkpt>
      <trkpt lat="44.12664" lon="5.83873">
        <ele>988</ele>
        <time>2022-09-22T11:38:30Z</time>
      </trkpt>
      <trkpt lat="44.12663" lon="5.83874">
        <ele>988</ele>
        <time>2022-09-22T11:38:31Z</time>
      </trkpt>
      <trkpt lat="44.12663" lon="5.83874">
        <ele>988</ele>
        <time>2022-09-22T11:38:32Z</time>
      </trkpt>
      <trkpt lat="44.12662" lon="5.83875">
        <ele>988</ele>
        <time>2022-09-22T11:38:33Z</time>
      </trkpt>
      <trkpt lat="44.12662" lon="5.83876">
        <ele>988</ele>
        <time>2022-09-22T11:38:34Z</time>
      </trkpt>
      <trkpt lat="44.12661" lon="5.83876">
        <ele>988</ele>
        <time>2022-09-22T11:38:35Z</time>
      </trkpt>
      <trkpt lat="44.1266" lon="5.83876">
        <ele>988</ele>
        <time>2022-09-22T11:38:36Z</time>
      </trkpt>
      <trkpt lat="44.12659" lon="5.83877">
        <ele>988</ele>
        <time>2022-09-22T11:38:37Z</time>
      </trkpt>
      <trkpt lat="44.12658" lon="5.83877">
        <ele>988</ele>
        <time>2022-09-22T11:38:38Z</time>
      </trkpt>
      <trkpt lat="44.12657" lon="5.83877">
        <ele>988</ele>
        <time>2022-09-22T11:38:39Z</time>
      </trkpt>
      <trkpt lat="44.12655" lon="5.83877">
        <ele>988</ele>
        <time>2022-09-22T11:38:40Z</time>
      </trkpt>
      <trkpt lat="44.12654" lon="5.83877">
        <ele>988</ele>
        <time>2022-09-22T11:38:41Z</time>
      </trkpt>
      <trkpt lat="44.12653" lon="5.83877">
        <ele>988</ele>
        <time>2022-09-22T11:38:42Z</time>
      </trkpt>
      <trkpt lat="44.12652" lon="5.83877">
        <ele>988</ele>
        <time>2022-09-22T11:38:43Z</time>
      </trkpt>
      <trkpt lat="44.12651" lon="5.83877">
        <ele>988</ele>
        <time>2022-09-22T11:38:44Z</time>
      </trkpt>
      <trkpt lat="44.1265" lon="5.83878">
        <ele>987</ele>
        <time>2022-09-22T11:38:45Z</time>
      </trkpt>
      <trkpt lat="44.12649" lon="5.83878">
        <ele>987</ele>
        <time>2022-09-22T11:38:46Z</time>
      </trkpt>
      <trkpt lat="44.12648" lon="5.83878">
        <ele>987</ele>
        <time>2022-09-22T11:38:47Z</time>
      </trkpt>
      <trkpt lat="44.12647" lon="5.83878">
        <ele>987</ele>
        <time>2022-09-22T11:38:48Z</time>
      </trkpt>
      <trkpt lat="44.12647" lon="5.83878">
        <ele>987</ele>
        <time>2022-09-22T11:38:49Z</time>
      </trkpt>
      <trkpt lat="44.12646" lon="5.83878">
        <ele>987</ele>
        <time>2022-09-22T11:38:50Z</time>
      </trkpt>
      <trkpt lat="44.12645" lon="5.83878">
        <ele>987</ele>
        <time>2022-09-22T11:38:51Z</time>
      </trkpt>
      <trkpt lat="44.12645" lon="5.83879">
        <ele>987</ele>
        <time>2022-09-22T11:38:52Z</time>
      </trkpt>
      <trkpt lat="44.12644" lon="5.83879">
        <ele>987</ele>
        <time>2022-09-22T11:38:53Z</time>
      </trkpt>
      <trkpt lat="44.12643" lon="5.83879">
        <ele>987</ele>
        <time>2022-09-22T11:38:54Z</time>
      </trkpt>
      <trkpt lat="44.12643" lon="5.83879">
        <ele>987</ele>
        <time>2022-09-22T11:38:55Z</time>
      </trkpt>
      <trkpt lat="44.12642" lon="5.83879">
        <ele>987</ele>
        <time>2022-09-22T11:38:56Z</time>
      </trkpt>
      <trkpt lat="44.12641" lon="5.8388">
        <ele>987</ele>
        <time>2022-09-22T11:38:57Z</time>
      </trkpt>
      <trkpt lat="44.12641" lon="5.8388">
        <ele>987</ele>
        <time>2022-09-22T11:38:58Z</time>
      </trkpt>
      <trkpt lat="44.1264" lon="5.8388">
        <ele>987</ele>
        <time>2022-09-22T11:38:59Z</time>
      </trkpt>
      <trkpt lat="44.1264" lon="5.8388">
        <ele>986</ele>
        <time>2022-09-22T11:39:00Z</time>
      </trkpt>
      <trkpt lat="44.1264" lon="5.8388">
        <ele>986</ele>
        <time>2022-09-22T11:39:01Z</time>
      </trkpt>
      <trkpt lat="44.12639" lon="5.8388">
        <ele>986</ele>
        <time>2022-09-22T11:39:02Z</time>
      </trkpt>
      <trkpt lat="44.12639" lon="5.8388">
        <ele>986</ele>
        <time>2022-09-22T11:39:03Z</time>
      </trkpt>
      <trkpt lat="44.12638" lon="5.8388">
        <ele>986</ele>
        <time>2022-09-22T11:39:04Z</time>
      </trkpt>
      <trkpt lat="44.12637" lon="5.83881">
        <ele>985</ele>
        <time>2022-09-22T11:39:05Z</time>
      </trkpt>
      <trkpt lat="44.12637" lon="5.8388">
        <ele>985</ele>
        <time>2022-09-22T11:39:06Z</time>
      </trkpt>
      <trkpt lat="44.12636" lon="5.8388">
        <ele>985</ele>
        <time>2022-09-22T11:39:07Z</time>
      </trkpt>
      <trkpt lat="44.12635" lon="5.8388">
        <ele>985</ele>
        <time>2022-09-22T11:39:08Z</time>
      </trkpt>
      <trkpt lat="44.12635" lon="5.8388">
        <ele>985</ele>
        <time>2022-09-22T11:39:09Z</time>
      </trkpt>
      <trkpt lat="44.12634" lon="5.83884">
        <ele>982</ele>
        <time>2022-09-22T11:41:17Z</time>
      </trkpt>
      <trkpt lat="44.12634" lon="5.83886">
        <ele>982</ele>
        <time>2022-09-22T11:41:18Z</time>
      </trkpt>
      <trkpt lat="44.12634" lon="5.83889">
        <ele>982</ele>
        <time>2022-09-22T11:41:19Z</time>
      </trkpt>
      <trkpt lat="44.12634" lon="5.8389">
        <ele>982</ele>
        <time>2022-09-22T11:41:20Z</time>
      </trkpt>
      <trkpt lat="44.12634" lon="5.83891">
        <ele>982</ele>
        <time>2022-09-22T11:41:21Z</time>
      </trkpt>
      <trkpt lat="44.12635" lon="5.83892">
        <ele>982</ele>
        <time>2022-09-22T11:41:22Z</time>
      </trkpt>
      <trkpt lat="44.12635" lon="5.83893">
        <ele>982</ele>
        <time>2022-09-22T11:41:23Z</time>
      </trkpt>
      <trkpt lat="44.12636" lon="5.83893">
        <ele>982</ele>
        <time>2022-09-22T11:41:24Z</time>
      </trkpt>
      <trkpt lat="44.12636" lon="5.83894">
        <ele>981</ele>
        <time>2022-09-22T11:41:25Z</time>
      </trkpt>
      <trkpt lat="44.12636" lon="5.83894">
        <ele>981</ele>
        <time>2022-09-22T11:41:26Z</time>
      </trkpt>
      <trkpt lat="44.12637" lon="5.83895">
        <ele>981</ele>
        <time>2022-09-22T11:41:27Z</time>
      </trkpt>
      <trkpt lat="44.12637" lon="5.83896">
        <ele>981</ele>
        <time>2022-09-22T11:41:28Z</time>
      </trkpt>
      <trkpt lat="44.12638" lon="5.83896">
        <ele>981</ele>
        <time>2022-09-22T11:41:29Z</time>
      </trkpt>
      <trkpt lat="44.12638" lon="5.83897">
        <ele>981</ele>
        <time>2022-09-22T11:41:30Z</time>
      </trkpt>
      <trkpt lat="44.12639" lon="5.83898">
        <ele>981</ele>
        <time>2022-09-22T11:41:31Z</time>
      </trkpt>
      <trkpt lat="44.1264" lon="5.83899">
        <ele>981</ele>
        <time>2022-09-22T11:41:32Z</time>
      </trkpt>
      <trkpt lat="44.1264" lon="5.839">
        <ele>981</ele>
        <time>2022-09-22T11:41:33Z</time>
      </trkpt>
      <trkpt lat="44.12641" lon="5.839">
        <ele>981</ele>
        <time>2022-09-22T11:41:34Z</time>
      </trkpt>
      <trkpt lat="44.12642" lon="5.83901">
        <ele>981</ele>
        <time>2022-09-22T11:41:35Z</time>
      </trkpt>
      <trkpt lat="44.12643" lon="5.83902">
        <ele>981</ele>
        <time>2022-09-22T11:41:36Z</time>
      </trkpt>
      <trkpt lat="44.12644" lon="5.83902">
        <ele>981</ele>
        <time>2022-09-22T11:41:37Z</time>
      </trkpt>
      <trkpt lat="44.12644" lon="5.83903">
        <ele>981</ele>
        <time>2022-09-22T11:41:38Z</time>
      </trkpt>
      <trkpt lat="44.12645" lon="5.83904">
        <ele>981</ele>
        <time>2022-09-22T11:41:39Z</time>
      </trkpt>
      <trkpt lat="44.12646" lon="5.83904">
        <ele>980</ele>
        <time>2022-09-22T11:41:40Z</time>
      </trkpt>
      <trkpt lat="44.12646" lon="5.83905">
        <ele>980</ele>
        <time>2022-09-22T11:41:41Z</time>
      </trkpt>
      <trkpt lat="44.12647" lon="5.83906">
        <ele>980</ele>
        <time>2022-09-22T11:41:42Z</time>
      </trkpt>
      <trkpt lat="44.12647" lon="5.83907">
        <ele>980</ele>
        <time>2022-09-22T11:41:43Z</time>
      </trkpt>
      <trkpt lat="44.12648" lon="5.83908">
        <ele>980</ele>
        <time>2022-09-22T11:41:44Z</time>
      </trkpt>
      <trkpt lat="44.12648" lon="5.83909">
        <ele>980</ele>
        <time>2022-09-22T11:41:45Z</time>
      </trkpt>
      <trkpt lat="44.12648" lon="5.8391">
        <ele>980</ele>
        <time>2022-09-22T11:41:46Z</time>
      </trkpt>
      <trkpt lat="44.12648" lon="5.83912">
        <ele>980</ele>
        <time>2022-09-22T11:41:47Z</time>
      </trkpt>
      <trkpt lat="44.12649" lon="5.83913">
        <ele>980</ele>
        <time>2022-09-22T11:41:48Z</time>
      </trkpt>
      <trkpt lat="44.12649" lon="5.83914">
        <ele>980</ele>
        <time>2022-09-22T11:41:49Z</time>
      </trkpt>
      <trkpt lat="44.12649" lon="5.83915">
        <ele>980</ele>
        <time>2022-09-22T11:41:50Z</time>
      </trkpt>
      <trkpt lat="44.1265" lon="5.83916">
        <ele>980</ele>
        <time>2022-09-22T11:41:51Z</time>
      </trkpt>
      <trkpt lat="44.12651" lon="5.83917">
        <ele>980</ele>
        <time>2022-09-22T11:41:52Z</time>
      </trkpt>
      <trkpt lat="44.12651" lon="5.83917">
        <ele>980</ele>
        <time>2022-09-22T11:41:53Z</time>
      </trkpt>
      <trkpt lat="44.12651" lon="5.83918">
        <ele>980</ele>
        <time>2022-09-22T11:41:54Z</time>
      </trkpt>
      <trkpt lat="44.12652" lon="5.83919">
        <ele>979</ele>
        <time>2022-09-22T11:41:55Z</time>
      </trkpt>
      <trkpt lat="44.12652" lon="5.8392">
        <ele>979</ele>
        <time>2022-09-22T11:41:56Z</time>
      </trkpt>
      <trkpt lat="44.12653" lon="5.83921">
        <ele>979</ele>
        <time>2022-09-22T11:41:57Z</time>
      </trkpt>
      <trkpt lat="44.12654" lon="5.83923">
        <ele>979</ele>
        <time>2022-09-22T11:42:16Z</time>
      </trkpt>
      <trkpt lat="44.12654" lon="5.83925">
        <ele>979</ele>
        <time>2022-09-22T11:42:17Z</time>
      </trkpt>
      <trkpt lat="44.12655" lon="5.83926">
        <ele>979</ele>
        <time>2022-09-22T11:42:18Z</time>
      </trkpt>
      <trkpt lat="44.12655" lon="5.83928">
        <ele>979</ele>
        <time>2022-09-22T11:42:19Z</time>
      </trkpt>
      <trkpt lat="44.12655" lon="5.83929">
        <ele>979</ele>
        <time>2022-09-22T11:42:20Z</time>
      </trkpt>
      <trkpt lat="44.12655" lon="5.8393">
        <ele>979</ele>
        <time>2022-09-22T11:42:21Z</time>
      </trkpt>
      <trkpt lat="44.12656" lon="5.83932">
        <ele>979</ele>
        <time>2022-09-22T11:42:22Z</time>
      </trkpt>
      <trkpt lat="44.12656" lon="5.83933">
        <ele>979</ele>
        <time>2022-09-22T11:42:23Z</time>
      </trkpt>
      <trkpt lat="44.12656" lon="5.83934">
        <ele>979</ele>
        <time>2022-09-22T11:42:24Z</time>
      </trkpt>
      <trkpt lat="44.12656" lon="5.83936">
        <ele>978</ele>
        <time>2022-09-22T11:42:25Z</time>
      </trkpt>
      <trkpt lat="44.12657" lon="5.83937">
        <ele>978</ele>
        <time>2022-09-22T11:42:26Z</time>
      </trkpt>
      <trkpt lat="44.12657" lon="5.83938">
        <ele>978</ele>
        <time>2022-09-22T11:42:27Z</time>
      </trkpt>
      <trkpt lat="44.12658" lon="5.83939">
        <ele>978</ele>
        <time>2022-09-22T11:42:28Z</time>
      </trkpt>
      <trkpt lat="44.12659" lon="5.8394">
        <ele>978</ele>
        <time>2022-09-22T11:42:29Z</time>
      </trkpt>
      <trkpt lat="44.12659" lon="5.83941">
        <ele>978</ele>
        <time>2022-09-22T11:42:30Z</time>
      </trkpt>
      <trkpt lat="44.1266" lon="5.83942">
        <ele>978</ele>
        <time>2022-09-22T11:42:31Z</time>
      </trkpt>
      <trkpt lat="44.1266" lon="5.83943">
        <ele>978</ele>
        <time>2022-09-22T11:42:32Z</time>
      </trkpt>
      <trkpt lat="44.1266" lon="5.83944">
        <ele>978</ele>
        <time>2022-09-22T11:42:33Z</time>
      </trkpt>
      <trkpt lat="44.1266" lon="5.83944">
        <ele>978</ele>
        <time>2022-09-22T11:42:34Z</time>
      </trkpt>
      <trkpt lat="44.1266" lon="5.83945">
        <ele>978</ele>
        <time>2022-09-22T11:42:35Z</time>
      </trkpt>
      <trkpt lat="44.12661" lon="5.83946">
        <ele>978</ele>
        <time>2022-09-22T11:42:36Z</time>
      </trkpt>
      <trkpt lat="44.12661" lon="5.83947">
        <ele>978</ele>
        <time>2022-09-22T11:42:37Z</time>
      </trkpt>
      <trkpt lat="44.12661" lon="5.83947">
        <ele>978</ele>
        <time>2022-09-22T11:42:38Z</time>
      </trkpt>
      <trkpt lat="44.12662" lon="5.83949">
        <ele>978</ele>
        <time>2022-09-22T11:42:39Z</time>
      </trkpt>
      <trkpt lat="44.12662" lon="5.8395">
        <ele>978</ele>
        <time>2022-09-22T11:42:40Z</time>
      </trkpt>
      <trkpt lat="44.12662" lon="5.83951">
        <ele>978</ele>
        <time>2022-09-22T11:42:41Z</time>
      </trkpt>
      <trkpt lat="44.12662" lon="5.83952">
        <ele>978</ele>
        <time>2022-09-22T11:42:42Z</time>
      </trkpt>
      <trkpt lat="44.12663" lon="5.83954">
        <ele>978</ele>
        <time>2022-09-22T11:42:43Z</time>
      </trkpt>
      <trkpt lat="44.12663" lon="5.83955">
        <ele>978</ele>
        <time>2022-09-22T11:42:44Z</time>
      </trkpt>
      <trkpt lat="44.12663" lon="5.83956">
        <ele>978</ele>
        <time>2022-09-22T11:42:45Z</time>
      </trkpt>
      <trkpt lat="44.12663" lon="5.83958">
        <ele>978</ele>
        <time>2022-09-22T11:42:46Z</time>
      </trkpt>
      <trkpt lat="44.12663" lon="5.83959">
        <ele>978</ele>
        <time>2022-09-22T11:42:47Z</time>
      </trkpt>
      <trkpt lat="44.12663" lon="5.83961">
        <ele>978</ele>
        <time>2022-09-22T11:42:48Z</time>
      </trkpt>
      <trkpt lat="44.12663" lon="5.83962">
        <ele>978</ele>
        <time>2022-09-22T11:42:49Z</time>
      </trkpt>
      <trkpt lat="44.12664" lon="5.83964">
        <ele>978</ele>
        <time>2022-09-22T11:42:50Z</time>
      </trkpt>
      <trkpt lat="44.12664" lon="5.83966">
        <ele>978</ele>
        <time>2022-09-22T11:42:51Z</time>
      </trkpt>
      <trkpt lat="44.12664" lon="5.83968">
        <ele>978</ele>
        <time>2022-09-22T11:42:52Z</time>
      </trkpt>
      <trkpt lat="44.12664" lon="5.8397">
        <ele>978</ele>
        <time>2022-09-22T11:42:53Z</time>
      </trkpt>
      <trkpt lat="44.12664" lon="5.83972">
        <ele>978</ele>
        <time>2022-09-22T11:42:54Z</time>
      </trkpt>
      <trkpt lat="44.12664" lon="5.83974">
        <ele>977</ele>
        <time>2022-09-22T11:42:55Z</time>
      </trkpt>
      <trkpt lat="44.12664" lon="5.83976">
        <ele>977</ele>
        <time>2022-09-22T11:42:56Z</time>
      </trkpt>
      <trkpt lat="44.12664" lon="5.83977">
        <ele>977</ele>
        <time>2022-09-22T11:42:57Z</time>
      </trkpt>
      <trkpt lat="44.12664" lon="5.83979">
        <ele>977</ele>
        <time>2022-09-22T11:42:58Z</time>
      </trkpt>
      <trkpt lat="44.12664" lon="5.83981">
        <ele>977</ele>
        <time>2022-09-22T11:42:59Z</time>
      </trkpt>
      <trkpt lat="44.12664" lon="5.83982">
        <ele>977</ele>
        <time>2022-09-22T11:43:00Z</time>
      </trkpt>
      <trkpt lat="44.12664" lon="5.83984">
        <ele>977</ele>
        <time>2022-09-22T11:43:01Z</time>
      </trkpt>
      <trkpt lat="44.12664" lon="5.83986">
        <ele>977</ele>
        <time>2022-09-22T11:43:02Z</time>
      </trkpt>
      <trkpt lat="44.12664" lon="5.83987">
        <ele>977</ele>
        <time>2022-09-22T11:43:03Z</time>
      </trkpt>
      <trkpt lat="44.12664" lon="5.83989">
        <ele>977</ele>
        <time>2022-09-22T11:43:04Z</time>
      </trkpt>
      <trkpt lat="44.12664" lon="5.83991">
        <ele>976</ele>
        <time>2022-09-22T11:43:05Z</time>
      </trkpt>
      <trkpt lat="44.12664" lon="5.83993">
        <ele>976</ele>
        <time>2022-09-22T11:43:06Z</time>
      </trkpt>
      <trkpt lat="44.12664" lon="5.83994">
        <ele>976</ele>
        <time>2022-09-22T11:43:07Z</time>
      </trkpt>
      <trkpt lat="44.12664" lon="5.83996">
        <ele>976</ele>
        <time>2022-09-22T11:43:08Z</time>
      </trkpt>
      <trkpt lat="44.12664" lon="5.83998">
        <ele>976</ele>
        <time>2022-09-22T11:43:09Z</time>
      </trkpt>
      <trkpt lat="44.12663" lon="5.83999">
        <ele>976</ele>
        <time>2022-09-22T11:43:10Z</time>
      </trkpt>
      <trkpt lat="44.12663" lon="5.84001">
        <ele>976</ele>
        <time>2022-09-22T11:43:11Z</time>
      </trkpt>
      <trkpt lat="44.12663" lon="5.84002">
        <ele>976</ele>
        <time>2022-09-22T11:43:12Z</time>
      </trkpt>
      <trkpt lat="44.12662" lon="5.84003">
        <ele>976</ele>
        <time>2022-09-22T11:43:13Z</time>
      </trkpt>
      <trkpt lat="44.12662" lon="5.84004">
        <ele>976</ele>
        <time>2022-09-22T11:43:14Z</time>
      </trkpt>
      <trkpt lat="44.12662" lon="5.84005">
        <ele>976</ele>
        <time>2022-09-22T11:43:15Z</time>
      </trkpt>
      <trkpt lat="44.12662" lon="5.84006">
        <ele>976</ele>
        <time>2022-09-22T11:43:16Z</time>
      </trkpt>
      <trkpt lat="44.12662" lon="5.84007">
        <ele>976</ele>
        <time>2022-09-22T11:43:17Z</time>
      </trkpt>
      <trkpt lat="44.12662" lon="5.84008">
        <ele>976</ele>
        <time>2022-09-22T11:43:18Z</time>
      </trkpt>
      <trkpt lat="44.12662" lon="5.8401">
        <ele>976</ele>
        <time>2022-09-22T11:43:19Z</time>
      </trkpt>
      <trkpt lat="44.12662" lon="5.84011">
        <ele>976</ele>
        <time>2022-09-22T11:43:20Z</time>
      </trkpt>
      <trkpt lat="44.12663" lon="5.84013">
        <ele>976</ele>
        <time>2022-09-22T11:43:21Z</time>
      </trkpt>
      <trkpt lat="44.12663" lon="5.84014">
        <ele>976</ele>
        <time>2022-09-22T11:43:22Z</time>
      </trkpt>
      <trkpt lat="44.12663" lon="5.84018">
        <ele>975</ele>
        <time>2022-09-22T11:43:30Z</time>
      </trkpt>
      <trkpt lat="44.12663" lon="5.84019">
        <ele>975</ele>
        <time>2022-09-22T11:43:31Z</time>
      </trkpt>
      <trkpt lat="44.12663" lon="5.8402">
        <ele>976</ele>
        <time>2022-09-22T11:43:32Z</time>
      </trkpt>
      <trkpt lat="44.12664" lon="5.84021">
        <ele>976</ele>
        <time>2022-09-22T11:43:33Z</time>
      </trkpt>
      <trkpt lat="44.12664" lon="5.84021">
        <ele>977</ele>
        <time>2022-09-22T11:43:34Z</time>
      </trkpt>
      <trkpt lat="44.12665" lon="5.84021">
        <ele>976</ele>
        <time>2022-09-22T11:43:35Z</time>
      </trkpt>
      <trkpt lat="44.12667" lon="5.84021">
        <ele>976</ele>
        <time>2022-09-22T11:43:36Z</time>
      </trkpt>
      <trkpt lat="44.12668" lon="5.84021">
        <ele>976</ele>
        <time>2022-09-22T11:43:37Z</time>
      </trkpt>
      <trkpt lat="44.12669" lon="5.84022">
        <ele>976</ele>
        <time>2022-09-22T11:43:38Z</time>
      </trkpt>
      <trkpt lat="44.12669" lon="5.84022">
        <ele>976</ele>
        <time>2022-09-22T11:43:39Z</time>
      </trkpt>
      <trkpt lat="44.1267" lon="5.84022">
        <ele>976</ele>
        <time>2022-09-22T11:43:40Z</time>
      </trkpt>
      <trkpt lat="44.1267" lon="5.84022">
        <ele>976</ele>
        <time>2022-09-22T11:43:41Z</time>
      </trkpt>
      <trkpt lat="44.12671" lon="5.84022">
        <ele>976</ele>
        <time>2022-09-22T11:43:42Z</time>
      </trkpt>
      <trkpt lat="44.12671" lon="5.84022">
        <ele>976</ele>
        <time>2022-09-22T11:43:43Z</time>
      </trkpt>
      <trkpt lat="44.12672" lon="5.84023">
        <ele>976</ele>
        <time>2022-09-22T11:43:44Z</time>
      </trkpt>
      <trkpt lat="44.12672" lon="5.84024">
        <ele>976</ele>
        <time>2022-09-22T11:43:45Z</time>
      </trkpt>
      <trkpt lat="44.12673" lon="5.84024">
        <ele>976</ele>
        <time>2022-09-22T11:43:46Z</time>
      </trkpt>
      <trkpt lat="44.12673" lon="5.84025">
        <ele>976</ele>
        <time>2022-09-22T11:43:47Z</time>
      </trkpt>
      <trkpt lat="44.12674" lon="5.84026">
        <ele>976</ele>
        <time>2022-09-22T11:43:48Z</time>
      </trkpt>
      <trkpt lat="44.12675" lon="5.84026">
        <ele>976</ele>
        <time>2022-09-22T11:43:49Z</time>
      </trkpt>
      <trkpt lat="44.12675" lon="5.84027">
        <ele>976</ele>
        <time>2022-09-22T11:43:50Z</time>
      </trkpt>
      <trkpt lat="44.12676" lon="5.84027">
        <ele>976</ele>
        <time>2022-09-22T11:43:51Z</time>
      </trkpt>
      <trkpt lat="44.12677" lon="5.84028">
        <ele>976</ele>
        <time>2022-09-22T11:43:52Z</time>
      </trkpt>
      <trkpt lat="44.12677" lon="5.84028">
        <ele>976</ele>
        <time>2022-09-22T11:43:53Z</time>
      </trkpt>
      <trkpt lat="44.12678" lon="5.84029">
        <ele>977</ele>
        <time>2022-09-22T11:43:54Z</time>
      </trkpt>
      <trkpt lat="44.12679" lon="5.84029">
        <ele>977</ele>
        <time>2022-09-22T11:43:55Z</time>
      </trkpt>
      <trkpt lat="44.12679" lon="5.84029">
        <ele>977</ele>
        <time>2022-09-22T11:43:56Z</time>
      </trkpt>
      <trkpt lat="44.1268" lon="5.84029">
        <ele>977</ele>
        <time>2022-09-22T11:43:57Z</time>
      </trkpt>
      <trkpt lat="44.12681" lon="5.8403">
        <ele>977</ele>
        <time>2022-09-22T11:43:58Z</time>
      </trkpt>
      <trkpt lat="44.12682" lon="5.8403">
        <ele>977</ele>
        <time>2022-09-22T11:43:59Z</time>
      </trkpt>
      <trkpt lat="44.12682" lon="5.8403">
        <ele>977</ele>
        <time>2022-09-22T11:44:00Z</time>
      </trkpt>
      <trkpt lat="44.12683" lon="5.8403">
        <ele>977</ele>
        <time>2022-09-22T11:44:01Z</time>
      </trkpt>
      <trkpt lat="44.12683" lon="5.84031">
        <ele>977</ele>
        <time>2022-09-22T11:44:02Z</time>
      </trkpt>
      <trkpt lat="44.12684" lon="5.84031">
        <ele>977</ele>
        <time>2022-09-22T11:44:03Z</time>
      </trkpt>
      <trkpt lat="44.12685" lon="5.84032">
        <ele>978</ele>
        <time>2022-09-22T11:44:04Z</time>
      </trkpt>
      <trkpt lat="44.12685" lon="5.84033">
        <ele>978</ele>
        <time>2022-09-22T11:44:05Z</time>
      </trkpt>
      <trkpt lat="44.12685" lon="5.84034">
        <ele>978</ele>
        <time>2022-09-22T11:44:06Z</time>
      </trkpt>
      <trkpt lat="44.12685" lon="5.84035">
        <ele>978</ele>
        <time>2022-09-22T11:44:07Z</time>
      </trkpt>
      <trkpt lat="44.12686" lon="5.84037">
        <ele>978</ele>
        <time>2022-09-22T11:44:08Z</time>
      </trkpt>
      <trkpt lat="44.12687" lon="5.84038">
        <ele>979</ele>
        <time>2022-09-22T11:44:09Z</time>
      </trkpt>
      <trkpt lat="44.12687" lon="5.84038">
        <ele>979</ele>
        <time>2022-09-22T11:44:10Z</time>
      </trkpt>
      <trkpt lat="44.12688" lon="5.84039">
        <ele>979</ele>
        <time>2022-09-22T11:44:11Z</time>
      </trkpt>
      <trkpt lat="44.12688" lon="5.84039">
        <ele>979</ele>
        <time>2022-09-22T11:44:12Z</time>
      </trkpt>
      <trkpt lat="44.12689" lon="5.8404">
        <ele>979</ele>
        <time>2022-09-22T11:44:13Z</time>
      </trkpt>
      <trkpt lat="44.12689" lon="5.84041">
        <ele>979</ele>
        <time>2022-09-22T11:44:14Z</time>
      </trkpt>
      <trkpt lat="44.1269" lon="5.84041">
        <ele>979</ele>
        <time>2022-09-22T11:44:15Z</time>
      </trkpt>
      <trkpt lat="44.1269" lon="5.84042">
        <ele>979</ele>
        <time>2022-09-22T11:44:16Z</time>
      </trkpt>
      <trkpt lat="44.1269" lon="5.84043">
        <ele>979</ele>
        <time>2022-09-22T11:44:17Z</time>
      </trkpt>
      <trkpt lat="44.1269" lon="5.84043">
        <ele>979</ele>
        <time>2022-09-22T11:44:18Z</time>
      </trkpt>
      <trkpt lat="44.1269" lon="5.84044">
        <ele>980</ele>
        <time>2022-09-22T11:44:19Z</time>
      </trkpt>
      <trkpt lat="44.12691" lon="5.84044">
        <ele>980</ele>
        <time>2022-09-22T11:44:20Z</time>
      </trkpt>
      <trkpt lat="44.12691" lon="5.84045">
        <ele>980</ele>
        <time>2022-09-22T11:44:21Z</time>
      </trkpt>
      <trkpt lat="44.12691" lon="5.84046">
        <ele>980</ele>
        <time>2022-09-22T11:44:22Z</time>
      </trkpt>
      <trkpt lat="44.12692" lon="5.84046">
        <ele>980</ele>
        <time>2022-09-22T11:44:23Z</time>
      </trkpt>
      <trkpt lat="44.12692" lon="5.84047">
        <ele>981</ele>
        <time>2022-09-22T11:44:24Z</time>
      </trkpt>
      <trkpt lat="44.12692" lon="5.84048">
        <ele>981</ele>
        <time>2022-09-22T11:44:25Z</time>
      </trkpt>
      <trkpt lat="44.12693" lon="5.84049">
        <ele>981</ele>
        <time>2022-09-22T11:44:26Z</time>
      </trkpt>
      <trkpt lat="44.12693" lon="5.84049">
        <ele>981</ele>
        <time>2022-09-22T11:44:27Z</time>
      </trkpt>
      <trkpt lat="44.12693" lon="5.8405">
        <ele>981</ele>
        <time>2022-09-22T11:44:28Z</time>
      </trkpt>
      <trkpt lat="44.12693" lon="5.84051">
        <ele>982</ele>
        <time>2022-09-22T11:44:29Z</time>
      </trkpt>
      <trkpt lat="44.12693" lon="5.84052">
        <ele>982</ele>
        <time>2022-09-22T11:44:30Z</time>
      </trkpt>
      <trkpt lat="44.12694" lon="5.84053">
        <ele>982</ele>
        <time>2022-09-22T11:44:31Z</time>
      </trkpt>
      <trkpt lat="44.12694" lon="5.84054">
        <ele>982</ele>
        <time>2022-09-22T11:44:32Z</time>
      </trkpt>
      <trkpt lat="44.12695" lon="5.84055">
        <ele>982</ele>
        <time>2022-09-22T11:44:33Z</time>
      </trkpt>
      <trkpt lat="44.12695" lon="5.84056">
        <ele>983</ele>
        <time>2022-09-22T11:44:34Z</time>
      </trkpt>
      <trkpt lat="44.12695" lon="5.84057">
        <ele>983</ele>
        <time>2022-09-22T11:44:35Z</time>
      </trkpt>
      <trkpt lat="44.12696" lon="5.84058">
        <ele>983</ele>
        <time>2022-09-22T11:44:36Z</time>
      </trkpt>
      <trkpt lat="44.12696" lon="5.84059">
        <ele>983</ele>
        <time>2022-09-22T11:44:37Z</time>
      </trkpt>
      <trkpt lat="44.12696" lon="5.8406">
        <ele>983</ele>
        <time>2022-09-22T11:44:38Z</time>
      </trkpt>
      <trkpt lat="44.12696" lon="5.84061">
        <ele>984</ele>
        <time>2022-09-22T11:44:39Z</time>
      </trkpt>
      <trkpt lat="44.12696" lon="5.84062">
        <ele>984</ele>
        <time>2022-09-22T11:44:40Z</time>
      </trkpt>
      <trkpt lat="44.12696" lon="5.84063">
        <ele>984</ele>
        <time>2022-09-22T11:44:41Z</time>
      </trkpt>
      <trkpt lat="44.12696" lon="5.84063">
        <ele>984</ele>
        <time>2022-09-22T11:44:42Z</time>
      </trkpt>
      <trkpt lat="44.12696" lon="5.84064">
        <ele>984</ele>
        <time>2022-09-22T11:44:43Z</time>
      </trkpt>
      <trkpt lat="44.12696" lon="5.84065">
        <ele>984</ele>
        <time>2022-09-22T11:44:44Z</time>
      </trkpt>
      <trkpt lat="44.12696" lon="5.84066">
        <ele>984</ele>
        <time>2022-09-22T11:44:45Z</time>
      </trkpt>
      <trkpt lat="44.12696" lon="5.84067">
        <ele>984</ele>
        <time>2022-09-22T11:44:46Z</time>
      </trkpt>
      <trkpt lat="44.12696" lon="5.84067">
        <ele>984</ele>
        <time>2022-09-22T11:44:47Z</time>
      </trkpt>
      <trkpt lat="44.12697" lon="5.84068">
        <ele>984</ele>
        <time>2022-09-22T11:44:48Z</time>
      </trkpt>
      <trkpt lat="44.12697" lon="5.84069">
        <ele>985</ele>
        <time>2022-09-22T11:44:49Z</time>
      </trkpt>
      <trkpt lat="44.12697" lon="5.8407">
        <ele>985</ele>
        <time>2022-09-22T11:44:50Z</time>
      </trkpt>
      <trkpt lat="44.12698" lon="5.8407">
        <ele>985</ele>
        <time>2022-09-22T11:44:51Z</time>
      </trkpt>
      <trkpt lat="44.12698" lon="5.84071">
        <ele>985</ele>
        <time>2022-09-22T11:44:52Z</time>
      </trkpt>
      <trkpt lat="44.12699" lon="5.84072">
        <ele>985</ele>
        <time>2022-09-22T11:44:53Z</time>
      </trkpt>
      <trkpt lat="44.12699" lon="5.84072">
        <ele>986</ele>
        <time>2022-09-22T11:44:54Z</time>
      </trkpt>
      <trkpt lat="44.127" lon="5.84073">
        <ele>986</ele>
        <time>2022-09-22T11:44:55Z</time>
      </trkpt>
      <trkpt lat="44.127" lon="5.84073">
        <ele>986</ele>
        <time>2022-09-22T11:44:56Z</time>
      </trkpt>
      <trkpt lat="44.12701" lon="5.84074">
        <ele>986</ele>
        <time>2022-09-22T11:44:57Z</time>
      </trkpt>
      <trkpt lat="44.12702" lon="5.84075">
        <ele>986</ele>
        <time>2022-09-22T11:44:58Z</time>
      </trkpt>
      <trkpt lat="44.12703" lon="5.84076">
        <ele>987</ele>
        <time>2022-09-22T11:44:59Z</time>
      </trkpt>
      <trkpt lat="44.12703" lon="5.84077">
        <ele>987</ele>
        <time>2022-09-22T11:45:00Z</time>
      </trkpt>
      <trkpt lat="44.12704" lon="5.84078">
        <ele>987</ele>
        <time>2022-09-22T11:45:01Z</time>
      </trkpt>
      <trkpt lat="44.12704" lon="5.8408">
        <ele>987</ele>
        <time>2022-09-22T11:45:02Z</time>
      </trkpt>
      <trkpt lat="44.12705" lon="5.84081">
        <ele>987</ele>
        <time>2022-09-22T11:45:03Z</time>
      </trkpt>
      <trkpt lat="44.12705" lon="5.84082">
        <ele>987</ele>
        <time>2022-09-22T11:45:04Z</time>
      </trkpt>
      <trkpt lat="44.12705" lon="5.84083">
        <ele>987</ele>
        <time>2022-09-22T11:45:05Z</time>
      </trkpt>
      <trkpt lat="44.12705" lon="5.84084">
        <ele>987</ele>
        <time>2022-09-22T11:45:06Z</time>
      </trkpt>
      <trkpt lat="44.12705" lon="5.84085">
        <ele>987</ele>
        <time>2022-09-22T11:45:07Z</time>
      </trkpt>
      <trkpt lat="44.12706" lon="5.84086">
        <ele>987</ele>
        <time>2022-09-22T11:45:08Z</time>
      </trkpt>
      <trkpt lat="44.12706" lon="5.84088">
        <ele>988</ele>
        <time>2022-09-22T11:45:09Z</time>
      </trkpt>
      <trkpt lat="44.12706" lon="5.84089">
        <ele>988</ele>
        <time>2022-09-22T11:45:10Z</time>
      </trkpt>
      <trkpt lat="44.12706" lon="5.8409">
        <ele>988</ele>
        <time>2022-09-22T11:45:11Z</time>
      </trkpt>
      <trkpt lat="44.12706" lon="5.84091">
        <ele>988</ele>
        <time>2022-09-22T11:45:12Z</time>
      </trkpt>
      <trkpt lat="44.12706" lon="5.84093">
        <ele>988</ele>
        <time>2022-09-22T11:45:13Z</time>
      </trkpt>
      <trkpt lat="44.12707" lon="5.84095">
        <ele>989</ele>
        <time>2022-09-22T11:45:14Z</time>
      </trkpt>
      <trkpt lat="44.12707" lon="5.84096">
        <ele>989</ele>
        <time>2022-09-22T11:45:15Z</time>
      </trkpt>
      <trkpt lat="44.12707" lon="5.84097">
        <ele>989</ele>
        <time>2022-09-22T11:45:16Z</time>
      </trkpt>
      <trkpt lat="44.12707" lon="5.84099">
        <ele>989</ele>
        <time>2022-09-22T11:45:17Z</time>
      </trkpt>
      <trkpt lat="44.12707" lon="5.841">
        <ele>989</ele>
        <time>2022-09-22T11:45:18Z</time>
      </trkpt>
      <trkpt lat="44.12708" lon="5.84101">
        <ele>990</ele>
        <time>2022-09-22T11:45:19Z</time>
      </trkpt>
      <trkpt lat="44.12708" lon="5.84102">
        <ele>990</ele>
        <time>2022-09-22T11:45:20Z</time>
      </trkpt>
      <trkpt lat="44.12708" lon="5.84103">
        <ele>990</ele>
        <time>2022-09-22T11:45:21Z</time>
      </trkpt>
      <trkpt lat="44.12708" lon="5.84104">
        <ele>990</ele>
        <time>2022-09-22T11:45:22Z</time>
      </trkpt>
      <trkpt lat="44.12708" lon="5.84105">
        <ele>990</ele>
        <time>2022-09-22T11:45:23Z</time>
      </trkpt>
      <trkpt lat="44.12708" lon="5.84106">
        <ele>990</ele>
        <time>2022-09-22T11:45:24Z</time>
      </trkpt>
      <trkpt lat="44.12708" lon="5.84107">
        <ele>990</ele>
        <time>2022-09-22T11:45:25Z</time>
      </trkpt>
      <trkpt lat="44.12708" lon="5.84109">
        <ele>990</ele>
        <time>2022-09-22T11:45:26Z</time>
      </trkpt>
      <trkpt lat="44.12708" lon="5.8411">
        <ele>990</ele>
        <time>2022-09-22T11:45:27Z</time>
      </trkpt>
      <trkpt lat="44.12709" lon="5.84111">
        <ele>990</ele>
        <time>2022-09-22T11:45:28Z</time>
      </trkpt>
      <trkpt lat="44.12709" lon="5.84113">
        <ele>990</ele>
        <time>2022-09-22T11:45:29Z</time>
      </trkpt>
      <trkpt lat="44.12709" lon="5.84114">
        <ele>990</ele>
        <time>2022-09-22T11:45:30Z</time>
      </trkpt>
      <trkpt lat="44.12709" lon="5.84115">
        <ele>990</ele>
        <time>2022-09-22T11:45:31Z</time>
      </trkpt>
      <trkpt lat="44.12709" lon="5.84117">
        <ele>990</ele>
        <time>2022-09-22T11:45:32Z</time>
      </trkpt>
      <trkpt lat="44.12709" lon="5.84118">
        <ele>990</ele>
        <time>2022-09-22T11:45:33Z</time>
      </trkpt>
      <trkpt lat="44.1271" lon="5.84119">
        <ele>990</ele>
        <time>2022-09-22T11:45:34Z</time>
      </trkpt>
      <trkpt lat="44.1271" lon="5.84121">
        <ele>990</ele>
        <time>2022-09-22T11:45:35Z</time>
      </trkpt>
      <trkpt lat="44.1271" lon="5.84122">
        <ele>990</ele>
        <time>2022-09-22T11:45:36Z</time>
      </trkpt>
      <trkpt lat="44.1271" lon="5.84124">
        <ele>990</ele>
        <time>2022-09-22T11:45:37Z</time>
      </trkpt>
      <trkpt lat="44.1271" lon="5.84125">
        <ele>990</ele>
        <time>2022-09-22T11:45:38Z</time>
      </trkpt>
      <trkpt lat="44.1271" lon="5.84127">
        <ele>990</ele>
        <time>2022-09-22T11:45:39Z</time>
      </trkpt>
      <trkpt lat="44.12709" lon="5.84128">
        <ele>990</ele>
        <time>2022-09-22T11:45:40Z</time>
      </trkpt>
      <trkpt lat="44.12709" lon="5.84129">
        <ele>990</ele>
        <time>2022-09-22T11:45:41Z</time>
      </trkpt>
      <trkpt lat="44.12709" lon="5.84131">
        <ele>990</ele>
        <time>2022-09-22T11:45:42Z</time>
      </trkpt>
      <trkpt lat="44.12709" lon="5.84132">
        <ele>990</ele>
        <time>2022-09-22T11:45:43Z</time>
      </trkpt>
      <trkpt lat="44.12708" lon="5.84133">
        <ele>990</ele>
        <time>2022-09-22T11:45:44Z</time>
      </trkpt>
      <trkpt lat="44.12708" lon="5.84135">
        <ele>990</ele>
        <time>2022-09-22T11:45:45Z</time>
      </trkpt>
      <trkpt lat="44.12707" lon="5.84136">
        <ele>990</ele>
        <time>2022-09-22T11:45:46Z</time>
      </trkpt>
      <trkpt lat="44.12707" lon="5.84137">
        <ele>990</ele>
        <time>2022-09-22T11:45:47Z</time>
      </trkpt>
      <trkpt lat="44.12706" lon="5.84139">
        <ele>990</ele>
        <time>2022-09-22T11:45:48Z</time>
      </trkpt>
      <trkpt lat="44.12706" lon="5.8414">
        <ele>990</ele>
        <time>2022-09-22T11:45:49Z</time>
      </trkpt>
      <trkpt lat="44.12705" lon="5.84141">
        <ele>990</ele>
        <time>2022-09-22T11:45:50Z</time>
      </trkpt>
      <trkpt lat="44.12705" lon="5.84143">
        <ele>990</ele>
        <time>2022-09-22T11:45:51Z</time>
      </trkpt>
      <trkpt lat="44.12704" lon="5.84145">
        <ele>990</ele>
        <time>2022-09-22T11:45:52Z</time>
      </trkpt>
      <trkpt lat="44.12704" lon="5.84146">
        <ele>990</ele>
        <time>2022-09-22T11:45:53Z</time>
      </trkpt>
      <trkpt lat="44.12704" lon="5.84148">
        <ele>990</ele>
        <time>2022-09-22T11:45:54Z</time>
      </trkpt>
      <trkpt lat="44.12704" lon="5.84149">
        <ele>990</ele>
        <time>2022-09-22T11:45:55Z</time>
      </trkpt>
      <trkpt lat="44.12704" lon="5.8415">
        <ele>990</ele>
        <time>2022-09-22T11:45:56Z</time>
      </trkpt>
      <trkpt lat="44.12705" lon="5.84151">
        <ele>990</ele>
        <time>2022-09-22T11:45:57Z</time>
      </trkpt>
      <trkpt lat="44.12705" lon="5.84152">
        <ele>990</ele>
        <time>2022-09-22T11:45:58Z</time>
      </trkpt>
      <trkpt lat="44.12706" lon="5.84153">
        <ele>990</ele>
        <time>2022-09-22T11:45:59Z</time>
      </trkpt>
      <trkpt lat="44.12706" lon="5.84155">
        <ele>990</ele>
        <time>2022-09-22T11:46:00Z</time>
      </trkpt>
      <trkpt lat="44.12707" lon="5.84156">
        <ele>990</ele>
        <time>2022-09-22T11:46:01Z</time>
      </trkpt>
      <trkpt lat="44.12708" lon="5.84157">
        <ele>990</ele>
        <time>2022-09-22T11:46:02Z</time>
      </trkpt>
      <trkpt lat="44.12708" lon="5.84158">
        <ele>990</ele>
        <time>2022-09-22T11:46:03Z</time>
      </trkpt>
      <trkpt lat="44.12709" lon="5.84159">
        <ele>991</ele>
        <time>2022-09-22T11:46:04Z</time>
      </trkpt>
      <trkpt lat="44.12709" lon="5.8416">
        <ele>991</ele>
        <time>2022-09-22T11:46:05Z</time>
      </trkpt>
      <trkpt lat="44.12709" lon="5.84161">
        <ele>991</ele>
        <time>2022-09-22T11:46:06Z</time>
      </trkpt>
      <trkpt lat="44.1271" lon="5.84163">
        <ele>991</ele>
        <time>2022-09-22T11:46:07Z</time>
      </trkpt>
      <trkpt lat="44.1271" lon="5.84164">
        <ele>991</ele>
        <time>2022-09-22T11:46:08Z</time>
      </trkpt>
      <trkpt lat="44.1271" lon="5.84166">
        <ele>991</ele>
        <time>2022-09-22T11:46:09Z</time>
      </trkpt>
      <trkpt lat="44.12711" lon="5.84167">
        <ele>991</ele>
        <time>2022-09-22T11:46:10Z</time>
      </trkpt>
      <trkpt lat="44.12711" lon="5.84169">
        <ele>991</ele>
        <time>2022-09-22T11:46:11Z</time>
      </trkpt>
      <trkpt lat="44.12711" lon="5.8417">
        <ele>991</ele>
        <time>2022-09-22T11:46:12Z</time>
      </trkpt>
      <trkpt lat="44.12712" lon="5.84172">
        <ele>991</ele>
        <time>2022-09-22T11:46:13Z</time>
      </trkpt>
      <trkpt lat="44.12712" lon="5.84174">
        <ele>991</ele>
        <time>2022-09-22T11:46:14Z</time>
      </trkpt>
      <trkpt lat="44.12712" lon="5.84175">
        <ele>991</ele>
        <time>2022-09-22T11:46:15Z</time>
      </trkpt>
      <trkpt lat="44.12712" lon="5.84177">
        <ele>991</ele>
        <time>2022-09-22T11:46:16Z</time>
      </trkpt>
      <trkpt lat="44.12711" lon="5.84178">
        <ele>991</ele>
        <time>2022-09-22T11:46:17Z</time>
      </trkpt>
      <trkpt lat="44.12711" lon="5.84179">
        <ele>991</ele>
        <time>2022-09-22T11:46:18Z</time>
      </trkpt>
      <trkpt lat="44.12711" lon="5.84181">
        <ele>992</ele>
        <time>2022-09-22T11:46:19Z</time>
      </trkpt>
      <trkpt lat="44.12711" lon="5.84182">
        <ele>992</ele>
        <time>2022-09-22T11:46:20Z</time>
      </trkpt>
      <trkpt lat="44.12711" lon="5.84183">
        <ele>992</ele>
        <time>2022-09-22T11:46:21Z</time>
      </trkpt>
      <trkpt lat="44.12712" lon="5.84184">
        <ele>992</ele>
        <time>2022-09-22T11:46:22Z</time>
      </trkpt>
      <trkpt lat="44.12712" lon="5.84185">
        <ele>992</ele>
        <time>2022-09-22T11:46:23Z</time>
      </trkpt>
      <trkpt lat="44.12712" lon="5.84185">
        <ele>992</ele>
        <time>2022-09-22T11:46:24Z</time>
      </trkpt>
      <trkpt lat="44.12713" lon="5.84186">
        <ele>992</ele>
        <time>2022-09-22T11:46:25Z</time>
      </trkpt>
      <trkpt lat="44.12713" lon="5.84187">
        <ele>992</ele>
        <time>2022-09-22T11:46:26Z</time>
      </trkpt>
      <trkpt lat="44.12714" lon="5.84188">
        <ele>992</ele>
        <time>2022-09-22T11:46:27Z</time>
      </trkpt>
      <trkpt lat="44.12715" lon="5.84189">
        <ele>992</ele>
        <time>2022-09-22T11:46:28Z</time>
      </trkpt>
      <trkpt lat="44.12715" lon="5.8419">
        <ele>993</ele>
        <time>2022-09-22T11:46:29Z</time>
      </trkpt>
      <trkpt lat="44.12716" lon="5.84191">
        <ele>993</ele>
        <time>2022-09-22T11:46:30Z</time>
      </trkpt>
      <trkpt lat="44.12716" lon="5.84191">
        <ele>993</ele>
        <time>2022-09-22T11:46:31Z</time>
      </trkpt>
      <trkpt lat="44.12716" lon="5.84192">
        <ele>993</ele>
        <time>2022-09-22T11:46:32Z</time>
      </trkpt>
      <trkpt lat="44.12717" lon="5.84193">
        <ele>993</ele>
        <time>2022-09-22T11:46:33Z</time>
      </trkpt>
      <trkpt lat="44.12717" lon="5.84195">
        <ele>993</ele>
        <time>2022-09-22T11:46:34Z</time>
      </trkpt>
      <trkpt lat="44.12717" lon="5.84196">
        <ele>993</ele>
        <time>2022-09-22T11:46:35Z</time>
      </trkpt>
      <trkpt lat="44.12718" lon="5.84197">
        <ele>993</ele>
        <time>2022-09-22T11:46:36Z</time>
      </trkpt>
      <trkpt lat="44.12718" lon="5.84198">
        <ele>993</ele>
        <time>2022-09-22T11:46:37Z</time>
      </trkpt>
      <trkpt lat="44.12718" lon="5.842">
        <ele>993</ele>
        <time>2022-09-22T11:46:38Z</time>
      </trkpt>
      <trkpt lat="44.12718" lon="5.84201">
        <ele>994</ele>
        <time>2022-09-22T11:46:39Z</time>
      </trkpt>
      <trkpt lat="44.12719" lon="5.84203">
        <ele>994</ele>
        <time>2022-09-22T11:46:40Z</time>
      </trkpt>
      <trkpt lat="44.12719" lon="5.84204">
        <ele>994</ele>
        <time>2022-09-22T11:46:41Z</time>
      </trkpt>
      <trkpt lat="44.1272" lon="5.84205">
        <ele>994</ele>
        <time>2022-09-22T11:46:42Z</time>
      </trkpt>
      <trkpt lat="44.1272" lon="5.84206">
        <ele>994</ele>
        <time>2022-09-22T11:46:43Z</time>
      </trkpt>
      <trkpt lat="44.1272" lon="5.84208">
        <ele>994</ele>
        <time>2022-09-22T11:46:44Z</time>
      </trkpt>
      <trkpt lat="44.12721" lon="5.8421">
        <ele>994</ele>
        <time>2022-09-22T11:46:45Z</time>
      </trkpt>
      <trkpt lat="44.12721" lon="5.84212">
        <ele>994</ele>
        <time>2022-09-22T11:46:46Z</time>
      </trkpt>
      <trkpt lat="44.1272" lon="5.84214">
        <ele>994</ele>
        <time>2022-09-22T11:46:47Z</time>
      </trkpt>
      <trkpt lat="44.1272" lon="5.84216">
        <ele>994</ele>
        <time>2022-09-22T11:46:48Z</time>
      </trkpt>
      <trkpt lat="44.1272" lon="5.84217">
        <ele>994</ele>
        <time>2022-09-22T11:46:49Z</time>
      </trkpt>
      <trkpt lat="44.12721" lon="5.84219">
        <ele>994</ele>
        <time>2022-09-22T11:46:50Z</time>
      </trkpt>
      <trkpt lat="44.12721" lon="5.84221">
        <ele>994</ele>
        <time>2022-09-22T11:46:51Z</time>
      </trkpt>
      <trkpt lat="44.12721" lon="5.84223">
        <ele>994</ele>
        <time>2022-09-22T11:46:52Z</time>
      </trkpt>
      <trkpt lat="44.12721" lon="5.84225">
        <ele>994</ele>
        <time>2022-09-22T11:46:53Z</time>
      </trkpt>
      <trkpt lat="44.12722" lon="5.84226">
        <ele>994</ele>
        <time>2022-09-22T11:46:54Z</time>
      </trkpt>
      <trkpt lat="44.12722" lon="5.84228">
        <ele>994</ele>
        <time>2022-09-22T11:46:55Z</time>
      </trkpt>
      <trkpt lat="44.12722" lon="5.84229">
        <ele>994</ele>
        <time>2022-09-22T11:46:56Z</time>
      </trkpt>
      <trkpt lat="44.12722" lon="5.8423">
        <ele>994</ele>
        <time>2022-09-22T11:46:57Z</time>
      </trkpt>
      <trkpt lat="44.12723" lon="5.84231">
        <ele>994</ele>
        <time>2022-09-22T11:46:58Z</time>
      </trkpt>
      <trkpt lat="44.12723" lon="5.84231">
        <ele>995</ele>
        <time>2022-09-22T11:46:59Z</time>
      </trkpt>
      <trkpt lat="44.12724" lon="5.84232">
        <ele>995</ele>
        <time>2022-09-22T11:47:00Z</time>
      </trkpt>
      <trkpt lat="44.12725" lon="5.84233">
        <ele>995</ele>
        <time>2022-09-22T11:47:01Z</time>
      </trkpt>
      <trkpt lat="44.12726" lon="5.84234">
        <ele>995</ele>
        <time>2022-09-22T11:47:02Z</time>
      </trkpt>
      <trkpt lat="44.12727" lon="5.84235">
        <ele>995</ele>
        <time>2022-09-22T11:47:03Z</time>
      </trkpt>
      <trkpt lat="44.12728" lon="5.84237">
        <ele>995</ele>
        <time>2022-09-22T11:47:04Z</time>
      </trkpt>
      <trkpt lat="44.12729" lon="5.84238">
        <ele>995</ele>
        <time>2022-09-22T11:47:05Z</time>
      </trkpt>
      <trkpt lat="44.12729" lon="5.8424">
        <ele>995</ele>
        <time>2022-09-22T11:47:06Z</time>
      </trkpt>
      <trkpt lat="44.1273" lon="5.84241">
        <ele>995</ele>
        <time>2022-09-22T11:47:07Z</time>
      </trkpt>
      <trkpt lat="44.1273" lon="5.84243">
        <ele>995</ele>
        <time>2022-09-22T11:47:08Z</time>
      </trkpt>
      <trkpt lat="44.1273" lon="5.84245">
        <ele>995</ele>
        <time>2022-09-22T11:47:09Z</time>
      </trkpt>
      <trkpt lat="44.1273" lon="5.84246">
        <ele>994</ele>
        <time>2022-09-22T11:47:10Z</time>
      </trkpt>
      <trkpt lat="44.1273" lon="5.84248">
        <ele>994</ele>
        <time>2022-09-22T11:47:11Z</time>
      </trkpt>
      <trkpt lat="44.12731" lon="5.8425">
        <ele>994</ele>
        <time>2022-09-22T11:47:12Z</time>
      </trkpt>
      <trkpt lat="44.12731" lon="5.84251">
        <ele>994</ele>
        <time>2022-09-22T11:47:13Z</time>
      </trkpt>
      <trkpt lat="44.12732" lon="5.84253">
        <ele>994</ele>
        <time>2022-09-22T11:47:14Z</time>
      </trkpt>
      <trkpt lat="44.12733" lon="5.84254">
        <ele>994</ele>
        <time>2022-09-22T11:47:15Z</time>
      </trkpt>
      <trkpt lat="44.12733" lon="5.84255">
        <ele>994</ele>
        <time>2022-09-22T11:47:16Z</time>
      </trkpt>
      <trkpt lat="44.12734" lon="5.84257">
        <ele>994</ele>
        <time>2022-09-22T11:47:17Z</time>
      </trkpt>
      <trkpt lat="44.12734" lon="5.84258">
        <ele>994</ele>
        <time>2022-09-22T11:47:18Z</time>
      </trkpt>
      <trkpt lat="44.12734" lon="5.84259">
        <ele>994</ele>
        <time>2022-09-22T11:47:19Z</time>
      </trkpt>
      <trkpt lat="44.12734" lon="5.84261">
        <ele>994</ele>
        <time>2022-09-22T11:47:20Z</time>
      </trkpt>
      <trkpt lat="44.12734" lon="5.84262">
        <ele>994</ele>
        <time>2022-09-22T11:47:21Z</time>
      </trkpt>
      <trkpt lat="44.12734" lon="5.84263">
        <ele>994</ele>
        <time>2022-09-22T11:47:22Z</time>
      </trkpt>
      <trkpt lat="44.12733" lon="5.84265">
        <ele>994</ele>
        <time>2022-09-22T11:47:23Z</time>
      </trkpt>
      <trkpt lat="44.12733" lon="5.84266">
        <ele>994</ele>
        <time>2022-09-22T11:47:24Z</time>
      </trkpt>
      <trkpt lat="44.12733" lon="5.84268">
        <ele>994</ele>
        <time>2022-09-22T11:47:25Z</time>
      </trkpt>
      <trkpt lat="44.12733" lon="5.84269">
        <ele>994</ele>
        <time>2022-09-22T11:47:26Z</time>
      </trkpt>
      <trkpt lat="44.12733" lon="5.84271">
        <ele>994</ele>
        <time>2022-09-22T11:47:27Z</time>
      </trkpt>
      <trkpt lat="44.12733" lon="5.84272">
        <ele>994</ele>
        <time>2022-09-22T11:47:28Z</time>
      </trkpt>
      <trkpt lat="44.12733" lon="5.84273">
        <ele>994</ele>
        <time>2022-09-22T11:47:29Z</time>
      </trkpt>
      <trkpt lat="44.12733" lon="5.84275">
        <ele>994</ele>
        <time>2022-09-22T11:47:30Z</time>
      </trkpt>
      <trkpt lat="44.12734" lon="5.84276">
        <ele>994</ele>
        <time>2022-09-22T11:47:31Z</time>
      </trkpt>
      <trkpt lat="44.12734" lon="5.84277">
        <ele>994</ele>
        <time>2022-09-22T11:47:32Z</time>
      </trkpt>
      <trkpt lat="44.12733" lon="5.84278">
        <ele>994</ele>
        <time>2022-09-22T11:47:33Z</time>
      </trkpt>
      <trkpt lat="44.12733" lon="5.8428">
        <ele>994</ele>
        <time>2022-09-22T11:47:34Z</time>
      </trkpt>
      <trkpt lat="44.12733" lon="5.84281">
        <ele>994</ele>
        <time>2022-09-22T11:47:35Z</time>
      </trkpt>
      <trkpt lat="44.12732" lon="5.84282">
        <ele>994</ele>
        <time>2022-09-22T11:47:36Z</time>
      </trkpt>
      <trkpt lat="44.12731" lon="5.84284">
        <ele>994</ele>
        <time>2022-09-22T11:47:37Z</time>
      </trkpt>
      <trkpt lat="44.12731" lon="5.84285">
        <ele>994</ele>
        <time>2022-09-22T11:47:38Z</time>
      </trkpt>
      <trkpt lat="44.1273" lon="5.84287">
        <ele>994</ele>
        <time>2022-09-22T11:47:39Z</time>
      </trkpt>
      <trkpt lat="44.1273" lon="5.84288">
        <ele>994</ele>
        <time>2022-09-22T11:47:40Z</time>
      </trkpt>
      <trkpt lat="44.12729" lon="5.8429">
        <ele>994</ele>
        <time>2022-09-22T11:47:41Z</time>
      </trkpt>
      <trkpt lat="44.1273" lon="5.84291">
        <ele>994</ele>
        <time>2022-09-22T11:47:42Z</time>
      </trkpt>
      <trkpt lat="44.1273" lon="5.84293">
        <ele>994</ele>
        <time>2022-09-22T11:47:43Z</time>
      </trkpt>
      <trkpt lat="44.12731" lon="5.84295">
        <ele>994</ele>
        <time>2022-09-22T11:47:44Z</time>
      </trkpt>
      <trkpt lat="44.12731" lon="5.84297">
        <ele>994</ele>
        <time>2022-09-22T11:47:45Z</time>
      </trkpt>
      <trkpt lat="44.12732" lon="5.84298">
        <ele>994</ele>
        <time>2022-09-22T11:47:46Z</time>
      </trkpt>
      <trkpt lat="44.12732" lon="5.843">
        <ele>994</ele>
        <time>2022-09-22T11:47:47Z</time>
      </trkpt>
      <trkpt lat="44.12733" lon="5.84301">
        <ele>994</ele>
        <time>2022-09-22T11:47:48Z</time>
      </trkpt>
      <trkpt lat="44.12733" lon="5.84303">
        <ele>994</ele>
        <time>2022-09-22T11:47:49Z</time>
      </trkpt>
      <trkpt lat="44.12733" lon="5.84305">
        <ele>994</ele>
        <time>2022-09-22T11:47:50Z</time>
      </trkpt>
      <trkpt lat="44.12732" lon="5.84307">
        <ele>994</ele>
        <time>2022-09-22T11:47:51Z</time>
      </trkpt>
      <trkpt lat="44.12732" lon="5.84309">
        <ele>994</ele>
        <time>2022-09-22T11:47:52Z</time>
      </trkpt>
      <trkpt lat="44.12732" lon="5.84311">
        <ele>994</ele>
        <time>2022-09-22T11:47:53Z</time>
      </trkpt>
      <trkpt lat="44.12731" lon="5.84313">
        <ele>994</ele>
        <time>2022-09-22T11:47:54Z</time>
      </trkpt>
      <trkpt lat="44.12731" lon="5.84315">
        <ele>994</ele>
        <time>2022-09-22T11:47:55Z</time>
      </trkpt>
      <trkpt lat="44.12731" lon="5.84317">
        <ele>994</ele>
        <time>2022-09-22T11:47:56Z</time>
      </trkpt>
      <trkpt lat="44.12731" lon="5.84319">
        <ele>994</ele>
        <time>2022-09-22T11:47:57Z</time>
      </trkpt>
      <trkpt lat="44.12731" lon="5.8432">
        <ele>994</ele>
        <time>2022-09-22T11:47:58Z</time>
      </trkpt>
      <trkpt lat="44.12731" lon="5.84321">
        <ele>994</ele>
        <time>2022-09-22T11:47:59Z</time>
      </trkpt>
      <trkpt lat="44.12732" lon="5.84323">
        <ele>994</ele>
        <time>2022-09-22T11:48:00Z</time>
      </trkpt>
      <trkpt lat="44.12732" lon="5.84324">
        <ele>994</ele>
        <time>2022-09-22T11:48:01Z</time>
      </trkpt>
      <trkpt lat="44.12733" lon="5.84325">
        <ele>994</ele>
        <time>2022-09-22T11:48:02Z</time>
      </trkpt>
      <trkpt lat="44.12734" lon="5.84326">
        <ele>994</ele>
        <time>2022-09-22T11:48:03Z</time>
      </trkpt>
      <trkpt lat="44.12734" lon="5.84328">
        <ele>994</ele>
        <time>2022-09-22T11:48:04Z</time>
      </trkpt>
      <trkpt lat="44.12735" lon="5.84329">
        <ele>993</ele>
        <time>2022-09-22T11:48:05Z</time>
      </trkpt>
      <trkpt lat="44.12735" lon="5.84331">
        <ele>993</ele>
        <time>2022-09-22T11:48:06Z</time>
      </trkpt>
      <trkpt lat="44.12736" lon="5.84333">
        <ele>993</ele>
        <time>2022-09-22T11:48:07Z</time>
      </trkpt>
      <trkpt lat="44.12736" lon="5.84334">
        <ele>993</ele>
        <time>2022-09-22T11:48:08Z</time>
      </trkpt>
      <trkpt lat="44.12737" lon="5.84336">
        <ele>993</ele>
        <time>2022-09-22T11:48:09Z</time>
      </trkpt>
      <trkpt lat="44.12737" lon="5.84338">
        <ele>993</ele>
        <time>2022-09-22T11:48:10Z</time>
      </trkpt>
      <trkpt lat="44.12738" lon="5.84339">
        <ele>993</ele>
        <time>2022-09-22T11:48:11Z</time>
      </trkpt>
      <trkpt lat="44.12738" lon="5.84341">
        <ele>993</ele>
        <time>2022-09-22T11:48:12Z</time>
      </trkpt>
      <trkpt lat="44.12738" lon="5.84343">
        <ele>993</ele>
        <time>2022-09-22T11:48:13Z</time>
      </trkpt>
      <trkpt lat="44.12739" lon="5.84344">
        <ele>993</ele>
        <time>2022-09-22T11:48:14Z</time>
      </trkpt>
      <trkpt lat="44.12739" lon="5.84346">
        <ele>993</ele>
        <time>2022-09-22T11:48:15Z</time>
      </trkpt>
      <trkpt lat="44.12739" lon="5.84348">
        <ele>993</ele>
        <time>2022-09-22T11:48:16Z</time>
      </trkpt>
      <trkpt lat="44.1274" lon="5.84349">
        <ele>993</ele>
        <time>2022-09-22T11:48:17Z</time>
      </trkpt>
      <trkpt lat="44.1274" lon="5.84351">
        <ele>993</ele>
        <time>2022-09-22T11:48:18Z</time>
      </trkpt>
      <trkpt lat="44.1274" lon="5.84352">
        <ele>993</ele>
        <time>2022-09-22T11:48:19Z</time>
      </trkpt>
      <trkpt lat="44.1274" lon="5.84354">
        <ele>993</ele>
        <time>2022-09-22T11:48:20Z</time>
      </trkpt>
      <trkpt lat="44.12739" lon="5.84355">
        <ele>993</ele>
        <time>2022-09-22T11:48:21Z</time>
      </trkpt>
      <trkpt lat="44.12739" lon="5.84357">
        <ele>993</ele>
        <time>2022-09-22T11:48:22Z</time>
      </trkpt>
      <trkpt lat="44.12739" lon="5.84358">
        <ele>993</ele>
        <time>2022-09-22T11:48:23Z</time>
      </trkpt>
      <trkpt lat="44.12739" lon="5.84359">
        <ele>993</ele>
        <time>2022-09-22T11:48:24Z</time>
      </trkpt>
      <trkpt lat="44.12739" lon="5.8436">
        <ele>993</ele>
        <time>2022-09-22T11:48:25Z</time>
      </trkpt>
      <trkpt lat="44.12739" lon="5.84362">
        <ele>993</ele>
        <time>2022-09-22T11:48:26Z</time>
      </trkpt>
      <trkpt lat="44.12739" lon="5.84363">
        <ele>993</ele>
        <time>2022-09-22T11:48:27Z</time>
      </trkpt>
      <trkpt lat="44.12739" lon="5.84364">
        <ele>993</ele>
        <time>2022-09-22T11:48:28Z</time>
      </trkpt>
      <trkpt lat="44.12738" lon="5.84365">
        <ele>993</ele>
        <time>2022-09-22T11:48:29Z</time>
      </trkpt>
      <trkpt lat="44.12738" lon="5.84367">
        <ele>992</ele>
        <time>2022-09-22T11:48:30Z</time>
      </trkpt>
      <trkpt lat="44.12738" lon="5.84368">
        <ele>992</ele>
        <time>2022-09-22T11:48:31Z</time>
      </trkpt>
      <trkpt lat="44.12738" lon="5.8437">
        <ele>992</ele>
        <time>2022-09-22T11:48:32Z</time>
      </trkpt>
      <trkpt lat="44.12738" lon="5.84371">
        <ele>992</ele>
        <time>2022-09-22T11:48:33Z</time>
      </trkpt>
      <trkpt lat="44.12739" lon="5.84373">
        <ele>992</ele>
        <time>2022-09-22T11:48:34Z</time>
      </trkpt>
      <trkpt lat="44.12739" lon="5.84374">
        <ele>992</ele>
        <time>2022-09-22T11:48:35Z</time>
      </trkpt>
      <trkpt lat="44.1274" lon="5.84376">
        <ele>992</ele>
        <time>2022-09-22T11:48:36Z</time>
      </trkpt>
      <trkpt lat="44.1274" lon="5.84377">
        <ele>992</ele>
        <time>2022-09-22T11:48:37Z</time>
      </trkpt>
      <trkpt lat="44.1274" lon="5.84379">
        <ele>992</ele>
        <time>2022-09-22T11:48:38Z</time>
      </trkpt>
      <trkpt lat="44.1274" lon="5.8438">
        <ele>992</ele>
        <time>2022-09-22T11:48:39Z</time>
      </trkpt>
      <trkpt lat="44.12739" lon="5.84381">
        <ele>992</ele>
        <time>2022-09-22T11:48:40Z</time>
      </trkpt>
      <trkpt lat="44.12739" lon="5.84383">
        <ele>992</ele>
        <time>2022-09-22T11:48:41Z</time>
      </trkpt>
      <trkpt lat="44.12738" lon="5.84384">
        <ele>992</ele>
        <time>2022-09-22T11:48:42Z</time>
      </trkpt>
      <trkpt lat="44.12738" lon="5.84385">
        <ele>992</ele>
        <time>2022-09-22T11:48:43Z</time>
      </trkpt>
      <trkpt lat="44.12737" lon="5.84386">
        <ele>992</ele>
        <time>2022-09-22T11:48:44Z</time>
      </trkpt>
      <trkpt lat="44.12736" lon="5.84387">
        <ele>991</ele>
        <time>2022-09-22T11:48:45Z</time>
      </trkpt>
      <trkpt lat="44.12735" lon="5.84388">
        <ele>991</ele>
        <time>2022-09-22T11:48:46Z</time>
      </trkpt>
      <trkpt lat="44.12734" lon="5.84389">
        <ele>991</ele>
        <time>2022-09-22T11:48:47Z</time>
      </trkpt>
      <trkpt lat="44.12734" lon="5.8439">
        <ele>991</ele>
        <time>2022-09-22T11:48:48Z</time>
      </trkpt>
      <trkpt lat="44.12733" lon="5.84391">
        <ele>991</ele>
        <time>2022-09-22T11:48:49Z</time>
      </trkpt>
      <trkpt lat="44.12733" lon="5.84392">
        <ele>991</ele>
        <time>2022-09-22T11:48:50Z</time>
      </trkpt>
      <trkpt lat="44.12732" lon="5.84393">
        <ele>991</ele>
        <time>2022-09-22T11:48:51Z</time>
      </trkpt>
      <trkpt lat="44.12732" lon="5.84394">
        <ele>991</ele>
        <time>2022-09-22T11:48:52Z</time>
      </trkpt>
      <trkpt lat="44.12732" lon="5.84395">
        <ele>991</ele>
        <time>2022-09-22T11:48:53Z</time>
      </trkpt>
      <trkpt lat="44.12731" lon="5.84396">
        <ele>991</ele>
        <time>2022-09-22T11:48:54Z</time>
      </trkpt>
      <trkpt lat="44.12731" lon="5.84397">
        <ele>990</ele>
        <time>2022-09-22T11:48:55Z</time>
      </trkpt>
      <trkpt lat="44.12731" lon="5.84398">
        <ele>990</ele>
        <time>2022-09-22T11:48:56Z</time>
      </trkpt>
      <trkpt lat="44.1273" lon="5.84399">
        <ele>990</ele>
        <time>2022-09-22T11:48:57Z</time>
      </trkpt>
      <trkpt lat="44.1273" lon="5.84399">
        <ele>990</ele>
        <time>2022-09-22T11:48:58Z</time>
      </trkpt>
      <trkpt lat="44.1273" lon="5.844">
        <ele>990</ele>
        <time>2022-09-22T11:48:59Z</time>
      </trkpt>
      <trkpt lat="44.12729" lon="5.84401">
        <ele>990</ele>
        <time>2022-09-22T11:49:00Z</time>
      </trkpt>
      <trkpt lat="44.12729" lon="5.84402">
        <ele>990</ele>
        <time>2022-09-22T11:49:01Z</time>
      </trkpt>
      <trkpt lat="44.12729" lon="5.84404">
        <ele>990</ele>
        <time>2022-09-22T11:49:02Z</time>
      </trkpt>
      <trkpt lat="44.12728" lon="5.84405">
        <ele>990</ele>
        <time>2022-09-22T11:49:03Z</time>
      </trkpt>
      <trkpt lat="44.12728" lon="5.84406">
        <ele>990</ele>
        <time>2022-09-22T11:49:04Z</time>
      </trkpt>
      <trkpt lat="44.12728" lon="5.84407">
        <ele>989</ele>
        <time>2022-09-22T11:49:05Z</time>
      </trkpt>
      <trkpt lat="44.12727" lon="5.84408">
        <ele>989</ele>
        <time>2022-09-22T11:49:06Z</time>
      </trkpt>
      <trkpt lat="44.12727" lon="5.84409">
        <ele>989</ele>
        <time>2022-09-22T11:49:07Z</time>
      </trkpt>
      <trkpt lat="44.12727" lon="5.8441">
        <ele>989</ele>
        <time>2022-09-22T11:49:08Z</time>
      </trkpt>
      <trkpt lat="44.12727" lon="5.8441">
        <ele>989</ele>
        <time>2022-09-22T11:49:09Z</time>
      </trkpt>
      <trkpt lat="44.12726" lon="5.84411">
        <ele>988</ele>
        <time>2022-09-22T11:49:10Z</time>
      </trkpt>
      <trkpt lat="44.12726" lon="5.84411">
        <ele>988</ele>
        <time>2022-09-22T11:49:11Z</time>
      </trkpt>
      <trkpt lat="44.12726" lon="5.84412">
        <ele>988</ele>
        <time>2022-09-22T11:49:12Z</time>
      </trkpt>
      <trkpt lat="44.12726" lon="5.84412">
        <ele>988</ele>
        <time>2022-09-22T11:49:13Z</time>
      </trkpt>
      <trkpt lat="44.12726" lon="5.84413">
        <ele>988</ele>
        <time>2022-09-22T11:49:14Z</time>
      </trkpt>
      <trkpt lat="44.12726" lon="5.84414">
        <ele>987</ele>
        <time>2022-09-22T11:49:15Z</time>
      </trkpt>
      <trkpt lat="44.12726" lon="5.84415">
        <ele>987</ele>
        <time>2022-09-22T11:49:16Z</time>
      </trkpt>
      <trkpt lat="44.12725" lon="5.84417">
        <ele>987</ele>
        <time>2022-09-22T11:49:17Z</time>
      </trkpt>
      <trkpt lat="44.12725" lon="5.84418">
        <ele>987</ele>
        <time>2022-09-22T11:49:18Z</time>
      </trkpt>
      <trkpt lat="44.12725" lon="5.84419">
        <ele>987</ele>
        <time>2022-09-22T11:49:19Z</time>
      </trkpt>
      <trkpt lat="44.12725" lon="5.8442">
        <ele>987</ele>
        <time>2022-09-22T11:49:20Z</time>
      </trkpt>
      <trkpt lat="44.12725" lon="5.84421">
        <ele>987</ele>
        <time>2022-09-22T11:49:21Z</time>
      </trkpt>
      <trkpt lat="44.12726" lon="5.84422">
        <ele>987</ele>
        <time>2022-09-22T11:49:22Z</time>
      </trkpt>
      <trkpt lat="44.12726" lon="5.84424">
        <ele>987</ele>
        <time>2022-09-22T11:49:23Z</time>
      </trkpt>
      <trkpt lat="44.12726" lon="5.84425">
        <ele>987</ele>
        <time>2022-09-22T11:49:24Z</time>
      </trkpt>
      <trkpt lat="44.12726" lon="5.84427">
        <ele>986</ele>
        <time>2022-09-22T11:49:25Z</time>
      </trkpt>
      <trkpt lat="44.12727" lon="5.84429">
        <ele>986</ele>
        <time>2022-09-22T11:49:26Z</time>
      </trkpt>
      <trkpt lat="44.12727" lon="5.8443">
        <ele>986</ele>
        <time>2022-09-22T11:49:27Z</time>
      </trkpt>
      <trkpt lat="44.12727" lon="5.84432">
        <ele>986</ele>
        <time>2022-09-22T11:49:28Z</time>
      </trkpt>
      <trkpt lat="44.12728" lon="5.84433">
        <ele>986</ele>
        <time>2022-09-22T11:49:29Z</time>
      </trkpt>
      <trkpt lat="44.12727" lon="5.84434">
        <ele>985</ele>
        <time>2022-09-22T11:49:30Z</time>
      </trkpt>
      <trkpt lat="44.12727" lon="5.84435">
        <ele>985</ele>
        <time>2022-09-22T11:49:31Z</time>
      </trkpt>
      <trkpt lat="44.12727" lon="5.84436">
        <ele>985</ele>
        <time>2022-09-22T11:49:32Z</time>
      </trkpt>
      <trkpt lat="44.12727" lon="5.84437">
        <ele>985</ele>
        <time>2022-09-22T11:49:33Z</time>
      </trkpt>
      <trkpt lat="44.12727" lon="5.84437">
        <ele>985</ele>
        <time>2022-09-22T11:49:34Z</time>
      </trkpt>
      <trkpt lat="44.12726" lon="5.84438">
        <ele>984</ele>
        <time>2022-09-22T11:49:35Z</time>
      </trkpt>
      <trkpt lat="44.12726" lon="5.84439">
        <ele>984</ele>
        <time>2022-09-22T11:49:36Z</time>
      </trkpt>
      <trkpt lat="44.12726" lon="5.8444">
        <ele>984</ele>
        <time>2022-09-22T11:49:37Z</time>
      </trkpt>
      <trkpt lat="44.12726" lon="5.84441">
        <ele>984</ele>
        <time>2022-09-22T11:49:38Z</time>
      </trkpt>
      <trkpt lat="44.12726" lon="5.84442">
        <ele>984</ele>
        <time>2022-09-22T11:49:39Z</time>
      </trkpt>
      <trkpt lat="44.12726" lon="5.84444">
        <ele>984</ele>
        <time>2022-09-22T11:49:40Z</time>
      </trkpt>
      <trkpt lat="44.12726" lon="5.84445">
        <ele>984</ele>
        <time>2022-09-22T11:49:41Z</time>
      </trkpt>
      <trkpt lat="44.12727" lon="5.84446">
        <ele>984</ele>
        <time>2022-09-22T11:49:42Z</time>
      </trkpt>
      <trkpt lat="44.12727" lon="5.84447">
        <ele>984</ele>
        <time>2022-09-22T11:49:43Z</time>
      </trkpt>
      <trkpt lat="44.12726" lon="5.84448">
        <ele>984</ele>
        <time>2022-09-22T11:49:44Z</time>
      </trkpt>
      <trkpt lat="44.12726" lon="5.84448">
        <ele>983</ele>
        <time>2022-09-22T11:49:45Z</time>
      </trkpt>
      <trkpt lat="44.12726" lon="5.84449">
        <ele>983</ele>
        <time>2022-09-22T11:49:46Z</time>
      </trkpt>
      <trkpt lat="44.12726" lon="5.8445">
        <ele>983</ele>
        <time>2022-09-22T11:49:47Z</time>
      </trkpt>
      <trkpt lat="44.12726" lon="5.8445">
        <ele>983</ele>
        <time>2022-09-22T11:49:48Z</time>
      </trkpt>
      <trkpt lat="44.12726" lon="5.84451">
        <ele>983</ele>
        <time>2022-09-22T11:49:49Z</time>
      </trkpt>
      <trkpt lat="44.12726" lon="5.84452">
        <ele>983</ele>
        <time>2022-09-22T11:49:50Z</time>
      </trkpt>
      <trkpt lat="44.12726" lon="5.84452">
        <ele>983</ele>
        <time>2022-09-22T11:49:51Z</time>
      </trkpt>
      <trkpt lat="44.12726" lon="5.84453">
        <ele>983</ele>
        <time>2022-09-22T11:49:52Z</time>
      </trkpt>
      <trkpt lat="44.12726" lon="5.84454">
        <ele>983</ele>
        <time>2022-09-22T11:49:53Z</time>
      </trkpt>
      <trkpt lat="44.12725" lon="5.84455">
        <ele>983</ele>
        <time>2022-09-22T11:49:54Z</time>
      </trkpt>
      <trkpt lat="44.12725" lon="5.84455">
        <ele>982</ele>
        <time>2022-09-22T11:49:55Z</time>
      </trkpt>
      <trkpt lat="44.12725" lon="5.84456">
        <ele>982</ele>
        <time>2022-09-22T11:49:56Z</time>
      </trkpt>
      <trkpt lat="44.12724" lon="5.84457">
        <ele>982</ele>
        <time>2022-09-22T11:49:57Z</time>
      </trkpt>
      <trkpt lat="44.12724" lon="5.84458">
        <ele>982</ele>
        <time>2022-09-22T11:49:58Z</time>
      </trkpt>
      <trkpt lat="44.12723" lon="5.84458">
        <ele>982</ele>
        <time>2022-09-22T11:49:59Z</time>
      </trkpt>
      <trkpt lat="44.12723" lon="5.84459">
        <ele>981</ele>
        <time>2022-09-22T11:50:00Z</time>
      </trkpt>
      <trkpt lat="44.12722" lon="5.84459">
        <ele>981</ele>
        <time>2022-09-22T11:50:01Z</time>
      </trkpt>
      <trkpt lat="44.12721" lon="5.8446">
        <ele>981</ele>
        <time>2022-09-22T11:50:02Z</time>
      </trkpt>
      <trkpt lat="44.1272" lon="5.8446">
        <ele>981</ele>
        <time>2022-09-22T11:50:03Z</time>
      </trkpt>
      <trkpt lat="44.12719" lon="5.8446">
        <ele>981</ele>
        <time>2022-09-22T11:50:04Z</time>
      </trkpt>
      <trkpt lat="44.12718" lon="5.8446">
        <ele>980</ele>
        <time>2022-09-22T11:50:05Z</time>
      </trkpt>
      <trkpt lat="44.12718" lon="5.84459">
        <ele>980</ele>
        <time>2022-09-22T11:50:06Z</time>
      </trkpt>
      <trkpt lat="44.12717" lon="5.84459">
        <ele>980</ele>
        <time>2022-09-22T11:50:07Z</time>
      </trkpt>
      <trkpt lat="44.12716" lon="5.84458">
        <ele>980</ele>
        <time>2022-09-22T11:50:08Z</time>
      </trkpt>
      <trkpt lat="44.12715" lon="5.84457">
        <ele>980</ele>
        <time>2022-09-22T11:50:09Z</time>
      </trkpt>
      <trkpt lat="44.12715" lon="5.84457">
        <ele>980</ele>
        <time>2022-09-22T11:50:10Z</time>
      </trkpt>
      <trkpt lat="44.12715" lon="5.84457">
        <ele>980</ele>
        <time>2022-09-22T11:50:11Z</time>
      </trkpt>
      <trkpt lat="44.12714" lon="5.84457">
        <ele>980</ele>
        <time>2022-09-22T11:50:12Z</time>
      </trkpt>
      <trkpt lat="44.12714" lon="5.84457">
        <ele>980</ele>
        <time>2022-09-22T11:50:13Z</time>
      </trkpt>
      <trkpt lat="44.12714" lon="5.84457">
        <ele>980</ele>
        <time>2022-09-22T11:50:14Z</time>
      </trkpt>
      <trkpt lat="44.12713" lon="5.84457">
        <ele>980</ele>
        <time>2022-09-22T11:50:15Z</time>
      </trkpt>
      <trkpt lat="44.12713" lon="5.84458">
        <ele>980</ele>
        <time>2022-09-22T11:50:16Z</time>
      </trkpt>
      <trkpt lat="44.12712" lon="5.84458">
        <ele>980</ele>
        <time>2022-09-22T11:50:17Z</time>
      </trkpt>
      <trkpt lat="44.12712" lon="5.84459">
        <ele>980</ele>
        <time>2022-09-22T11:50:18Z</time>
      </trkpt>
      <trkpt lat="44.12712" lon="5.84459">
        <ele>980</ele>
        <time>2022-09-22T11:50:19Z</time>
      </trkpt>
      <trkpt lat="44.12712" lon="5.84459">
        <ele>980</ele>
        <time>2022-09-22T11:50:20Z</time>
      </trkpt>
      <trkpt lat="44.12712" lon="5.8446">
        <ele>980</ele>
        <time>2022-09-22T11:50:21Z</time>
      </trkpt>
      <trkpt lat="44.12711" lon="5.8446">
        <ele>980</ele>
        <time>2022-09-22T11:50:22Z</time>
      </trkpt>
      <trkpt lat="44.12711" lon="5.84461">
        <ele>980</ele>
        <time>2022-09-22T11:50:23Z</time>
      </trkpt>
      <trkpt lat="44.12711" lon="5.84462">
        <ele>980</ele>
        <time>2022-09-22T11:50:24Z</time>
      </trkpt>
      <trkpt lat="44.1271" lon="5.84463">
        <ele>980</ele>
        <time>2022-09-22T11:50:25Z</time>
      </trkpt>
      <trkpt lat="44.1271" lon="5.84465">
        <ele>980</ele>
        <time>2022-09-22T11:50:26Z</time>
      </trkpt>
      <trkpt lat="44.12709" lon="5.84466">
        <ele>980</ele>
        <time>2022-09-22T11:50:27Z</time>
      </trkpt>
      <trkpt lat="44.12709" lon="5.84467">
        <ele>980</ele>
        <time>2022-09-22T11:50:28Z</time>
      </trkpt>
      <trkpt lat="44.12709" lon="5.84468">
        <ele>980</ele>
        <time>2022-09-22T11:50:29Z</time>
      </trkpt>
      <trkpt lat="44.12708" lon="5.8447">
        <ele>980</ele>
        <time>2022-09-22T11:50:30Z</time>
      </trkpt>
      <trkpt lat="44.12708" lon="5.84471">
        <ele>980</ele>
        <time>2022-09-22T11:50:31Z</time>
      </trkpt>
      <trkpt lat="44.12708" lon="5.84472">
        <ele>980</ele>
        <time>2022-09-22T11:50:32Z</time>
      </trkpt>
      <trkpt lat="44.12707" lon="5.84473">
        <ele>980</ele>
        <time>2022-09-22T11:50:33Z</time>
      </trkpt>
      <trkpt lat="44.12707" lon="5.84475">
        <ele>980</ele>
        <time>2022-09-22T11:50:34Z</time>
      </trkpt>
      <trkpt lat="44.12707" lon="5.84476">
        <ele>979</ele>
        <time>2022-09-22T11:50:35Z</time>
      </trkpt>
      <trkpt lat="44.12707" lon="5.84478">
        <ele>979</ele>
        <time>2022-09-22T11:50:36Z</time>
      </trkpt>
      <trkpt lat="44.12707" lon="5.84479">
        <ele>979</ele>
        <time>2022-09-22T11:50:37Z</time>
      </trkpt>
      <trkpt lat="44.12707" lon="5.84481">
        <ele>979</ele>
        <time>2022-09-22T11:50:38Z</time>
      </trkpt>
      <trkpt lat="44.12707" lon="5.84484">
        <ele>979</ele>
        <time>2022-09-22T11:50:39Z</time>
      </trkpt>
      <trkpt lat="44.12708" lon="5.84486">
        <ele>979</ele>
        <time>2022-09-22T11:50:40Z</time>
      </trkpt>
      <trkpt lat="44.12708" lon="5.84488">
        <ele>979</ele>
        <time>2022-09-22T11:50:41Z</time>
      </trkpt>
      <trkpt lat="44.12708" lon="5.8449">
        <ele>979</ele>
        <time>2022-09-22T11:50:42Z</time>
      </trkpt>
      <trkpt lat="44.12709" lon="5.84491">
        <ele>979</ele>
        <time>2022-09-22T11:50:43Z</time>
      </trkpt>
      <trkpt lat="44.12709" lon="5.84493">
        <ele>979</ele>
        <time>2022-09-22T11:50:44Z</time>
      </trkpt>
      <trkpt lat="44.12708" lon="5.84495">
        <ele>979</ele>
        <time>2022-09-22T11:50:45Z</time>
      </trkpt>
      <trkpt lat="44.12708" lon="5.84497">
        <ele>979</ele>
        <time>2022-09-22T11:50:46Z</time>
      </trkpt>
      <trkpt lat="44.12707" lon="5.84498">
        <ele>979</ele>
        <time>2022-09-22T11:50:47Z</time>
      </trkpt>
      <trkpt lat="44.12706" lon="5.845">
        <ele>979</ele>
        <time>2022-09-22T11:50:48Z</time>
      </trkpt>
      <trkpt lat="44.12705" lon="5.84501">
        <ele>979</ele>
        <time>2022-09-22T11:50:49Z</time>
      </trkpt>
      <trkpt lat="44.12704" lon="5.84503">
        <ele>978</ele>
        <time>2022-09-22T11:50:50Z</time>
      </trkpt>
      <trkpt lat="44.12703" lon="5.84505">
        <ele>978</ele>
        <time>2022-09-22T11:50:51Z</time>
      </trkpt>
      <trkpt lat="44.12702" lon="5.84506">
        <ele>978</ele>
        <time>2022-09-22T11:50:52Z</time>
      </trkpt>
      <trkpt lat="44.12702" lon="5.84507">
        <ele>978</ele>
        <time>2022-09-22T11:50:53Z</time>
      </trkpt>
      <trkpt lat="44.12701" lon="5.84508">
        <ele>978</ele>
        <time>2022-09-22T11:50:54Z</time>
      </trkpt>
      <trkpt lat="44.12701" lon="5.84509">
        <ele>978</ele>
        <time>2022-09-22T11:50:55Z</time>
      </trkpt>
      <trkpt lat="44.12701" lon="5.8451">
        <ele>978</ele>
        <time>2022-09-22T11:50:56Z</time>
      </trkpt>
      <trkpt lat="44.12701" lon="5.84511">
        <ele>978</ele>
        <time>2022-09-22T11:50:57Z</time>
      </trkpt>
      <trkpt lat="44.12701" lon="5.84512">
        <ele>978</ele>
        <time>2022-09-22T11:50:58Z</time>
      </trkpt>
      <trkpt lat="44.127" lon="5.84513">
        <ele>978</ele>
        <time>2022-09-22T11:50:59Z</time>
      </trkpt>
      <trkpt lat="44.12699" lon="5.84514">
        <ele>977</ele>
        <time>2022-09-22T11:51:00Z</time>
      </trkpt>
      <trkpt lat="44.12699" lon="5.84515">
        <ele>977</ele>
        <time>2022-09-22T11:51:01Z</time>
      </trkpt>
      <trkpt lat="44.12699" lon="5.84516">
        <ele>977</ele>
        <time>2022-09-22T11:51:02Z</time>
      </trkpt>
      <trkpt lat="44.12699" lon="5.84518">
        <ele>977</ele>
        <time>2022-09-22T11:51:03Z</time>
      </trkpt>
      <trkpt lat="44.12699" lon="5.84519">
        <ele>977</ele>
        <time>2022-09-22T11:51:04Z</time>
      </trkpt>
      <trkpt lat="44.12699" lon="5.8452">
        <ele>977</ele>
        <time>2022-09-22T11:51:05Z</time>
      </trkpt>
      <trkpt lat="44.127" lon="5.84522">
        <ele>977</ele>
        <time>2022-09-22T11:51:06Z</time>
      </trkpt>
      <trkpt lat="44.127" lon="5.84523">
        <ele>977</ele>
        <time>2022-09-22T11:51:07Z</time>
      </trkpt>
      <trkpt lat="44.127" lon="5.84525">
        <ele>977</ele>
        <time>2022-09-22T11:51:08Z</time>
      </trkpt>
      <trkpt lat="44.12701" lon="5.84526">
        <ele>977</ele>
        <time>2022-09-22T11:51:09Z</time>
      </trkpt>
      <trkpt lat="44.12701" lon="5.84527">
        <ele>976</ele>
        <time>2022-09-22T11:51:10Z</time>
      </trkpt>
      <trkpt lat="44.12701" lon="5.84528">
        <ele>976</ele>
        <time>2022-09-22T11:51:11Z</time>
      </trkpt>
      <trkpt lat="44.12701" lon="5.84529">
        <ele>976</ele>
        <time>2022-09-22T11:51:12Z</time>
      </trkpt>
      <trkpt lat="44.12701" lon="5.8453">
        <ele>976</ele>
        <time>2022-09-22T11:51:13Z</time>
      </trkpt>
      <trkpt lat="44.12701" lon="5.84531">
        <ele>976</ele>
        <time>2022-09-22T11:51:14Z</time>
      </trkpt>
      <trkpt lat="44.12701" lon="5.84533">
        <ele>975</ele>
        <time>2022-09-22T11:51:15Z</time>
      </trkpt>
      <trkpt lat="44.12701" lon="5.84534">
        <ele>975</ele>
        <time>2022-09-22T11:51:16Z</time>
      </trkpt>
      <trkpt lat="44.12702" lon="5.84535">
        <ele>975</ele>
        <time>2022-09-22T11:51:17Z</time>
      </trkpt>
      <trkpt lat="44.12702" lon="5.84536">
        <ele>975</ele>
        <time>2022-09-22T11:51:18Z</time>
      </trkpt>
      <trkpt lat="44.12702" lon="5.84537">
        <ele>975</ele>
        <time>2022-09-22T11:51:19Z</time>
      </trkpt>
      <trkpt lat="44.12702" lon="5.84539">
        <ele>975</ele>
        <time>2022-09-22T11:51:20Z</time>
      </trkpt>
      <trkpt lat="44.12702" lon="5.8454">
        <ele>975</ele>
        <time>2022-09-22T11:51:21Z</time>
      </trkpt>
      <trkpt lat="44.12702" lon="5.84542">
        <ele>975</ele>
        <time>2022-09-22T11:51:22Z</time>
      </trkpt>
      <trkpt lat="44.12703" lon="5.84544">
        <ele>975</ele>
        <time>2022-09-22T11:51:23Z</time>
      </trkpt>
      <trkpt lat="44.12703" lon="5.84546">
        <ele>975</ele>
        <time>2022-09-22T11:51:24Z</time>
      </trkpt>
      <trkpt lat="44.12703" lon="5.84547">
        <ele>974</ele>
        <time>2022-09-22T11:51:25Z</time>
      </trkpt>
      <trkpt lat="44.12704" lon="5.84549">
        <ele>974</ele>
        <time>2022-09-22T11:51:26Z</time>
      </trkpt>
      <trkpt lat="44.12705" lon="5.8455">
        <ele>974</ele>
        <time>2022-09-22T11:51:27Z</time>
      </trkpt>
      <trkpt lat="44.12705" lon="5.84552">
        <ele>974</ele>
        <time>2022-09-22T11:51:28Z</time>
      </trkpt>
      <trkpt lat="44.12706" lon="5.84553">
        <ele>974</ele>
        <time>2022-09-22T11:51:29Z</time>
      </trkpt>
      <trkpt lat="44.12706" lon="5.84555">
        <ele>974</ele>
        <time>2022-09-22T11:51:30Z</time>
      </trkpt>
      <trkpt lat="44.12706" lon="5.84556">
        <ele>974</ele>
        <time>2022-09-22T11:51:31Z</time>
      </trkpt>
      <trkpt lat="44.12706" lon="5.84557">
        <ele>974</ele>
        <time>2022-09-22T11:51:32Z</time>
      </trkpt>
      <trkpt lat="44.12706" lon="5.84558">
        <ele>974</ele>
        <time>2022-09-22T11:51:33Z</time>
      </trkpt>
      <trkpt lat="44.12706" lon="5.84559">
        <ele>974</ele>
        <time>2022-09-22T11:51:34Z</time>
      </trkpt>
      <trkpt lat="44.12706" lon="5.8456">
        <ele>973</ele>
        <time>2022-09-22T11:51:35Z</time>
      </trkpt>
      <trkpt lat="44.12706" lon="5.84561">
        <ele>973</ele>
        <time>2022-09-22T11:51:36Z</time>
      </trkpt>
      <trkpt lat="44.12706" lon="5.84562">
        <ele>973</ele>
        <time>2022-09-22T11:51:37Z</time>
      </trkpt>
      <trkpt lat="44.12705" lon="5.84563">
        <ele>973</ele>
        <time>2022-09-22T11:51:38Z</time>
      </trkpt>
      <trkpt lat="44.12706" lon="5.84565">
        <ele>973</ele>
        <time>2022-09-22T11:51:39Z</time>
      </trkpt>
      <trkpt lat="44.12706" lon="5.84567">
        <ele>973</ele>
        <time>2022-09-22T11:51:40Z</time>
      </trkpt>
      <trkpt lat="44.12706" lon="5.84569">
        <ele>973</ele>
        <time>2022-09-22T11:51:41Z</time>
      </trkpt>
      <trkpt lat="44.12706" lon="5.84571">
        <ele>973</ele>
        <time>2022-09-22T11:51:42Z</time>
      </trkpt>
      <trkpt lat="44.12705" lon="5.84574">
        <ele>973</ele>
        <time>2022-09-22T11:51:43Z</time>
      </trkpt>
      <trkpt lat="44.12705" lon="5.84576">
        <ele>973</ele>
        <time>2022-09-22T11:51:44Z</time>
      </trkpt>
      <trkpt lat="44.12704" lon="5.84577">
        <ele>972</ele>
        <time>2022-09-22T11:51:45Z</time>
      </trkpt>
      <trkpt lat="44.12703" lon="5.84579">
        <ele>972</ele>
        <time>2022-09-22T11:51:46Z</time>
      </trkpt>
      <trkpt lat="44.12703" lon="5.84581">
        <ele>971</ele>
        <time>2022-09-22T11:51:47Z</time>
      </trkpt>
      <trkpt lat="44.12703" lon="5.84582">
        <ele>971</ele>
        <time>2022-09-22T11:51:48Z</time>
      </trkpt>
      <trkpt lat="44.12704" lon="5.84584">
        <ele>971</ele>
        <time>2022-09-22T11:51:49Z</time>
      </trkpt>
      <trkpt lat="44.12704" lon="5.84585">
        <ele>971</ele>
        <time>2022-09-22T11:51:50Z</time>
      </trkpt>
      <trkpt lat="44.12705" lon="5.84586">
        <ele>971</ele>
        <time>2022-09-22T11:51:51Z</time>
      </trkpt>
      <trkpt lat="44.12706" lon="5.84587">
        <ele>971</ele>
        <time>2022-09-22T11:51:52Z</time>
      </trkpt>
      <trkpt lat="44.12706" lon="5.84587">
        <ele>971</ele>
        <time>2022-09-22T11:51:53Z</time>
      </trkpt>
      <trkpt lat="44.12707" lon="5.84588">
        <ele>971</ele>
        <time>2022-09-22T11:51:54Z</time>
      </trkpt>
      <trkpt lat="44.12707" lon="5.84589">
        <ele>971</ele>
        <time>2022-09-22T11:51:55Z</time>
      </trkpt>
      <trkpt lat="44.12707" lon="5.84589">
        <ele>971</ele>
        <time>2022-09-22T11:51:56Z</time>
      </trkpt>
      <trkpt lat="44.12707" lon="5.84591">
        <ele>971</ele>
        <time>2022-09-22T11:51:57Z</time>
      </trkpt>
      <trkpt lat="44.12707" lon="5.84592">
        <ele>971</ele>
        <time>2022-09-22T11:51:58Z</time>
      </trkpt>
      <trkpt lat="44.12706" lon="5.84594">
        <ele>971</ele>
        <time>2022-09-22T11:51:59Z</time>
      </trkpt>
      <trkpt lat="44.12706" lon="5.84596">
        <ele>970</ele>
        <time>2022-09-22T11:52:00Z</time>
      </trkpt>
      <trkpt lat="44.12706" lon="5.84598">
        <ele>970</ele>
        <time>2022-09-22T11:52:01Z</time>
      </trkpt>
      <trkpt lat="44.12706" lon="5.846">
        <ele>970</ele>
        <time>2022-09-22T11:52:02Z</time>
      </trkpt>
      <trkpt lat="44.12705" lon="5.84601">
        <ele>970</ele>
        <time>2022-09-22T11:52:03Z</time>
      </trkpt>
      <trkpt lat="44.12705" lon="5.84603">
        <ele>970</ele>
        <time>2022-09-22T11:52:04Z</time>
      </trkpt>
      <trkpt lat="44.12705" lon="5.84604">
        <ele>970</ele>
        <time>2022-09-22T11:52:05Z</time>
      </trkpt>
      <trkpt lat="44.12705" lon="5.84605">
        <ele>970</ele>
        <time>2022-09-22T11:52:06Z</time>
      </trkpt>
      <trkpt lat="44.12704" lon="5.84606">
        <ele>970</ele>
        <time>2022-09-22T11:52:07Z</time>
      </trkpt>
      <trkpt lat="44.12703" lon="5.84607">
        <ele>970</ele>
        <time>2022-09-22T11:52:08Z</time>
      </trkpt>
      <trkpt lat="44.12702" lon="5.84607">
        <ele>970</ele>
        <time>2022-09-22T11:52:09Z</time>
      </trkpt>
      <trkpt lat="44.12701" lon="5.84608">
        <ele>969</ele>
        <time>2022-09-22T11:52:10Z</time>
      </trkpt>
      <trkpt lat="44.12699" lon="5.84608">
        <ele>969</ele>
        <time>2022-09-22T11:52:11Z</time>
      </trkpt>
      <trkpt lat="44.12698" lon="5.84609">
        <ele>969</ele>
        <time>2022-09-22T11:52:12Z</time>
      </trkpt>
      <trkpt lat="44.12697" lon="5.84609">
        <ele>969</ele>
        <time>2022-09-22T11:52:13Z</time>
      </trkpt>
      <trkpt lat="44.12697" lon="5.8461">
        <ele>969</ele>
        <time>2022-09-22T11:52:14Z</time>
      </trkpt>
      <trkpt lat="44.12696" lon="5.8461">
        <ele>968</ele>
        <time>2022-09-22T11:52:15Z</time>
      </trkpt>
      <trkpt lat="44.12696" lon="5.8461">
        <ele>968</ele>
        <time>2022-09-22T11:52:16Z</time>
      </trkpt>
      <trkpt lat="44.12695" lon="5.84611">
        <ele>968</ele>
        <time>2022-09-22T11:52:17Z</time>
      </trkpt>
      <trkpt lat="44.12695" lon="5.84612">
        <ele>968</ele>
        <time>2022-09-22T11:52:18Z</time>
      </trkpt>
      <trkpt lat="44.12695" lon="5.84613">
        <ele>968</ele>
        <time>2022-09-22T11:52:19Z</time>
      </trkpt>
      <trkpt lat="44.12695" lon="5.84616">
        <ele>966</ele>
        <time>2022-09-22T11:52:27Z</time>
      </trkpt>
      <trkpt lat="44.12694" lon="5.84617">
        <ele>966</ele>
        <time>2022-09-22T11:52:28Z</time>
      </trkpt>
      <trkpt lat="44.12694" lon="5.84618">
        <ele>966</ele>
        <time>2022-09-22T11:52:29Z</time>
      </trkpt>
      <trkpt lat="44.12693" lon="5.84619">
        <ele>965</ele>
        <time>2022-09-22T11:52:30Z</time>
      </trkpt>
      <trkpt lat="44.12693" lon="5.84619">
        <ele>965</ele>
        <time>2022-09-22T11:52:31Z</time>
      </trkpt>
      <trkpt lat="44.12692" lon="5.8462">
        <ele>965</ele>
        <time>2022-09-22T11:52:32Z</time>
      </trkpt>
      <trkpt lat="44.12691" lon="5.84621">
        <ele>965</ele>
        <time>2022-09-22T11:52:33Z</time>
      </trkpt>
      <trkpt lat="44.12689" lon="5.84621">
        <ele>965</ele>
        <time>2022-09-22T11:52:34Z</time>
      </trkpt>
      <trkpt lat="44.12689" lon="5.84621">
        <ele>965</ele>
        <time>2022-09-22T11:52:35Z</time>
      </trkpt>
      <trkpt lat="44.12688" lon="5.84622">
        <ele>965</ele>
        <time>2022-09-22T11:52:36Z</time>
      </trkpt>
      <trkpt lat="44.12687" lon="5.84622">
        <ele>965</ele>
        <time>2022-09-22T11:52:37Z</time>
      </trkpt>
      <trkpt lat="44.12687" lon="5.84622">
        <ele>965</ele>
        <time>2022-09-22T11:52:38Z</time>
      </trkpt>
      <trkpt lat="44.12686" lon="5.84623">
        <ele>965</ele>
        <time>2022-09-22T11:52:39Z</time>
      </trkpt>
      <trkpt lat="44.12686" lon="5.84625">
        <ele>963</ele>
        <time>2022-09-22T11:52:45Z</time>
      </trkpt>
      <trkpt lat="44.12686" lon="5.84626">
        <ele>963</ele>
        <time>2022-09-22T11:52:46Z</time>
      </trkpt>
      <trkpt lat="44.12686" lon="5.84628">
        <ele>963</ele>
        <time>2022-09-22T11:52:47Z</time>
      </trkpt>
      <trkpt lat="44.12686" lon="5.84631">
        <ele>961</ele>
        <time>2022-09-22T11:52:53Z</time>
      </trkpt>
      <trkpt lat="44.12686" lon="5.84633">
        <ele>961</ele>
        <time>2022-09-22T11:52:54Z</time>
      </trkpt>
      <trkpt lat="44.12686" lon="5.84634">
        <ele>960</ele>
        <time>2022-09-22T11:52:55Z</time>
      </trkpt>
      <trkpt lat="44.12686" lon="5.84636">
        <ele>960</ele>
        <time>2022-09-22T11:52:56Z</time>
      </trkpt>
      <trkpt lat="44.12686" lon="5.84636">
        <ele>960</ele>
        <time>2022-09-22T11:52:57Z</time>
      </trkpt>
      <trkpt lat="44.12685" lon="5.84637">
        <ele>960</ele>
        <time>2022-09-22T11:52:58Z</time>
      </trkpt>
      <trkpt lat="44.12684" lon="5.84638">
        <ele>960</ele>
        <time>2022-09-22T11:52:59Z</time>
      </trkpt>
      <trkpt lat="44.12683" lon="5.84638">
        <ele>959</ele>
        <time>2022-09-22T11:53:00Z</time>
      </trkpt>
      <trkpt lat="44.12682" lon="5.84639">
        <ele>959</ele>
        <time>2022-09-22T11:53:01Z</time>
      </trkpt>
      <trkpt lat="44.12681" lon="5.84639">
        <ele>959</ele>
        <time>2022-09-22T11:53:02Z</time>
      </trkpt>
      <trkpt lat="44.12681" lon="5.84639">
        <ele>959</ele>
        <time>2022-09-22T11:53:03Z</time>
      </trkpt>
      <trkpt lat="44.1268" lon="5.8464">
        <ele>959</ele>
        <time>2022-09-22T11:53:04Z</time>
      </trkpt>
      <trkpt lat="44.1268" lon="5.8464">
        <ele>958</ele>
        <time>2022-09-22T11:53:05Z</time>
      </trkpt>
      <trkpt lat="44.1268" lon="5.84641">
        <ele>958</ele>
        <time>2022-09-22T11:53:06Z</time>
      </trkpt>
      <trkpt lat="44.12679" lon="5.84642">
        <ele>958</ele>
        <time>2022-09-22T11:53:07Z</time>
      </trkpt>
      <trkpt lat="44.12679" lon="5.84643">
        <ele>958</ele>
        <time>2022-09-22T11:53:08Z</time>
      </trkpt>
      <trkpt lat="44.12678" lon="5.84643">
        <ele>958</ele>
        <time>2022-09-22T11:53:09Z</time>
      </trkpt>
      <trkpt lat="44.12678" lon="5.84644">
        <ele>957</ele>
        <time>2022-09-22T11:53:10Z</time>
      </trkpt>
      <trkpt lat="44.12677" lon="5.84644">
        <ele>957</ele>
        <time>2022-09-22T11:53:11Z</time>
      </trkpt>
      <trkpt lat="44.12676" lon="5.84645">
        <ele>957</ele>
        <time>2022-09-22T11:53:12Z</time>
      </trkpt>
      <trkpt lat="44.12676" lon="5.84646">
        <ele>957</ele>
        <time>2022-09-22T11:53:13Z</time>
      </trkpt>
      <trkpt lat="44.12675" lon="5.84646">
        <ele>957</ele>
        <time>2022-09-22T11:53:14Z</time>
      </trkpt>
      <trkpt lat="44.12675" lon="5.84647">
        <ele>957</ele>
        <time>2022-09-22T11:53:15Z</time>
      </trkpt>
      <trkpt lat="44.12675" lon="5.84648">
        <ele>957</ele>
        <time>2022-09-22T11:53:16Z</time>
      </trkpt>
      <trkpt lat="44.12674" lon="5.84649">
        <ele>957</ele>
        <time>2022-09-22T11:53:17Z</time>
      </trkpt>
      <trkpt lat="44.12674" lon="5.84649">
        <ele>957</ele>
        <time>2022-09-22T11:53:18Z</time>
      </trkpt>
      <trkpt lat="44.12673" lon="5.8465">
        <ele>957</ele>
        <time>2022-09-22T11:53:19Z</time>
      </trkpt>
      <trkpt lat="44.12673" lon="5.8465">
        <ele>956</ele>
        <time>2022-09-22T11:53:20Z</time>
      </trkpt>
      <trkpt lat="44.12672" lon="5.84651">
        <ele>956</ele>
        <time>2022-09-22T11:53:21Z</time>
      </trkpt>
      <trkpt lat="44.12672" lon="5.84651">
        <ele>956</ele>
        <time>2022-09-22T11:53:22Z</time>
      </trkpt>
      <trkpt lat="44.12672" lon="5.84652">
        <ele>956</ele>
        <time>2022-09-22T11:53:23Z</time>
      </trkpt>
      <trkpt lat="44.12671" lon="5.84652">
        <ele>956</ele>
        <time>2022-09-22T11:53:24Z</time>
      </trkpt>
      <trkpt lat="44.12671" lon="5.84654">
        <ele>956</ele>
        <time>2022-09-22T11:53:25Z</time>
      </trkpt>
      <trkpt lat="44.12671" lon="5.84655">
        <ele>956</ele>
        <time>2022-09-22T11:53:26Z</time>
      </trkpt>
      <trkpt lat="44.1267" lon="5.84656">
        <ele>956</ele>
        <time>2022-09-22T11:53:27Z</time>
      </trkpt>
      <trkpt lat="44.1267" lon="5.84657">
        <ele>956</ele>
        <time>2022-09-22T11:53:28Z</time>
      </trkpt>
      <trkpt lat="44.12669" lon="5.84658">
        <ele>956</ele>
        <time>2022-09-22T11:53:29Z</time>
      </trkpt>
      <trkpt lat="44.12668" lon="5.84659">
        <ele>955</ele>
        <time>2022-09-22T11:53:30Z</time>
      </trkpt>
      <trkpt lat="44.12667" lon="5.8466">
        <ele>955</ele>
        <time>2022-09-22T11:53:31Z</time>
      </trkpt>
      <trkpt lat="44.12666" lon="5.84661">
        <ele>955</ele>
        <time>2022-09-22T11:53:32Z</time>
      </trkpt>
      <trkpt lat="44.12665" lon="5.84661">
        <ele>955</ele>
        <time>2022-09-22T11:53:33Z</time>
      </trkpt>
      <trkpt lat="44.12665" lon="5.84662">
        <ele>955</ele>
        <time>2022-09-22T11:53:34Z</time>
      </trkpt>
      <trkpt lat="44.12664" lon="5.84662">
        <ele>954</ele>
        <time>2022-09-22T11:53:35Z</time>
      </trkpt>
      <trkpt lat="44.12664" lon="5.84662">
        <ele>954</ele>
        <time>2022-09-22T11:53:36Z</time>
      </trkpt>
      <trkpt lat="44.12664" lon="5.84663">
        <ele>954</ele>
        <time>2022-09-22T11:53:37Z</time>
      </trkpt>
      <trkpt lat="44.12663" lon="5.84663">
        <ele>954</ele>
        <time>2022-09-22T11:53:38Z</time>
      </trkpt>
      <trkpt lat="44.12662" lon="5.84664">
        <ele>954</ele>
        <time>2022-09-22T11:53:39Z</time>
      </trkpt>
      <trkpt lat="44.12662" lon="5.84664">
        <ele>954</ele>
        <time>2022-09-22T11:53:40Z</time>
      </trkpt>
      <trkpt lat="44.12661" lon="5.84665">
        <ele>954</ele>
        <time>2022-09-22T11:53:41Z</time>
      </trkpt>
      <trkpt lat="44.12661" lon="5.84666">
        <ele>954</ele>
        <time>2022-09-22T11:53:42Z</time>
      </trkpt>
      <trkpt lat="44.1266" lon="5.84667">
        <ele>954</ele>
        <time>2022-09-22T11:53:43Z</time>
      </trkpt>
      <trkpt lat="44.12659" lon="5.84668">
        <ele>954</ele>
        <time>2022-09-22T11:53:44Z</time>
      </trkpt>
      <trkpt lat="44.12659" lon="5.84668">
        <ele>954</ele>
        <time>2022-09-22T11:53:45Z</time>
      </trkpt>
      <trkpt lat="44.12658" lon="5.84669">
        <ele>954</ele>
        <time>2022-09-22T11:53:46Z</time>
      </trkpt>
      <trkpt lat="44.12658" lon="5.8467">
        <ele>954</ele>
        <time>2022-09-22T11:53:47Z</time>
      </trkpt>
      <trkpt lat="44.12657" lon="5.8467">
        <ele>954</ele>
        <time>2022-09-22T11:53:48Z</time>
      </trkpt>
      <trkpt lat="44.12657" lon="5.84671">
        <ele>954</ele>
        <time>2022-09-22T11:53:49Z</time>
      </trkpt>
      <trkpt lat="44.12656" lon="5.84673">
        <ele>953</ele>
        <time>2022-09-22T11:53:50Z</time>
      </trkpt>
      <trkpt lat="44.12656" lon="5.84674">
        <ele>953</ele>
        <time>2022-09-22T11:53:51Z</time>
      </trkpt>
      <trkpt lat="44.12656" lon="5.84676">
        <ele>953</ele>
        <time>2022-09-22T11:53:52Z</time>
      </trkpt>
      <trkpt lat="44.12656" lon="5.84676">
        <ele>953</ele>
        <time>2022-09-22T11:53:53Z</time>
      </trkpt>
      <trkpt lat="44.12656" lon="5.84677">
        <ele>953</ele>
        <time>2022-09-22T11:53:54Z</time>
      </trkpt>
      <trkpt lat="44.12655" lon="5.84678">
        <ele>953</ele>
        <time>2022-09-22T11:53:55Z</time>
      </trkpt>
      <trkpt lat="44.12654" lon="5.84679">
        <ele>953</ele>
        <time>2022-09-22T11:53:56Z</time>
      </trkpt>
      <trkpt lat="44.12653" lon="5.8468">
        <ele>953</ele>
        <time>2022-09-22T11:53:57Z</time>
      </trkpt>
      <trkpt lat="44.12651" lon="5.84681">
        <ele>953</ele>
        <time>2022-09-22T11:53:58Z</time>
      </trkpt>
      <trkpt lat="44.12649" lon="5.84682">
        <ele>953</ele>
        <time>2022-09-22T11:53:59Z</time>
      </trkpt>
      <trkpt lat="44.12647" lon="5.84683">
        <ele>952</ele>
        <time>2022-09-22T11:54:00Z</time>
      </trkpt>
      <trkpt lat="44.12646" lon="5.84684">
        <ele>952</ele>
        <time>2022-09-22T11:54:01Z</time>
      </trkpt>
      <trkpt lat="44.12644" lon="5.84685">
        <ele>952</ele>
        <time>2022-09-22T11:54:02Z</time>
      </trkpt>
      <trkpt lat="44.12643" lon="5.84686">
        <ele>952</ele>
        <time>2022-09-22T11:54:03Z</time>
      </trkpt>
      <trkpt lat="44.12642" lon="5.84686">
        <ele>952</ele>
        <time>2022-09-22T11:54:04Z</time>
      </trkpt>
      <trkpt lat="44.12641" lon="5.84687">
        <ele>952</ele>
        <time>2022-09-22T11:54:05Z</time>
      </trkpt>
      <trkpt lat="44.1264" lon="5.84687">
        <ele>952</ele>
        <time>2022-09-22T11:54:06Z</time>
      </trkpt>
      <trkpt lat="44.12639" lon="5.84688">
        <ele>952</ele>
        <time>2022-09-22T11:54:07Z</time>
      </trkpt>
      <trkpt lat="44.12639" lon="5.84688">
        <ele>952</ele>
        <time>2022-09-22T11:54:08Z</time>
      </trkpt>
      <trkpt lat="44.12638" lon="5.84688">
        <ele>952</ele>
        <time>2022-09-22T11:54:09Z</time>
      </trkpt>
      <trkpt lat="44.12637" lon="5.84688">
        <ele>952</ele>
        <time>2022-09-22T11:54:10Z</time>
      </trkpt>
      <trkpt lat="44.12637" lon="5.84689">
        <ele>952</ele>
        <time>2022-09-22T11:54:11Z</time>
      </trkpt>
      <trkpt lat="44.12636" lon="5.84689">
        <ele>952</ele>
        <time>2022-09-22T11:54:12Z</time>
      </trkpt>
      <trkpt lat="44.12636" lon="5.84689">
        <ele>952</ele>
        <time>2022-09-22T11:54:13Z</time>
      </trkpt>
      <trkpt lat="44.12635" lon="5.84689">
        <ele>952</ele>
        <time>2022-09-22T11:54:14Z</time>
      </trkpt>
      <trkpt lat="44.12634" lon="5.84689">
        <ele>952</ele>
        <time>2022-09-22T11:54:15Z</time>
      </trkpt>
      <trkpt lat="44.12634" lon="5.8469">
        <ele>952</ele>
        <time>2022-09-22T11:54:16Z</time>
      </trkpt>
      <trkpt lat="44.12633" lon="5.8469">
        <ele>952</ele>
        <time>2022-09-22T11:54:17Z</time>
      </trkpt>
      <trkpt lat="44.12632" lon="5.84691">
        <ele>952</ele>
        <time>2022-09-22T11:54:18Z</time>
      </trkpt>
      <trkpt lat="44.12631" lon="5.84691">
        <ele>952</ele>
        <time>2022-09-22T11:54:19Z</time>
      </trkpt>
      <trkpt lat="44.1263" lon="5.84692">
        <ele>952</ele>
        <time>2022-09-22T11:54:20Z</time>
      </trkpt>
      <trkpt lat="44.1263" lon="5.84693">
        <ele>952</ele>
        <time>2022-09-22T11:54:21Z</time>
      </trkpt>
      <trkpt lat="44.12629" lon="5.84694">
        <ele>952</ele>
        <time>2022-09-22T11:54:22Z</time>
      </trkpt>
      <trkpt lat="44.12628" lon="5.84694">
        <ele>952</ele>
        <time>2022-09-22T11:54:23Z</time>
      </trkpt>
      <trkpt lat="44.12627" lon="5.84695">
        <ele>952</ele>
        <time>2022-09-22T11:54:24Z</time>
      </trkpt>
      <trkpt lat="44.12627" lon="5.84696">
        <ele>952</ele>
        <time>2022-09-22T11:54:25Z</time>
      </trkpt>
      <trkpt lat="44.12627" lon="5.84697">
        <ele>952</ele>
        <time>2022-09-22T11:54:26Z</time>
      </trkpt>
      <trkpt lat="44.12626" lon="5.84697">
        <ele>952</ele>
        <time>2022-09-22T11:54:27Z</time>
      </trkpt>
      <trkpt lat="44.12626" lon="5.84698">
        <ele>952</ele>
        <time>2022-09-22T11:54:28Z</time>
      </trkpt>
      <trkpt lat="44.12625" lon="5.84698">
        <ele>952</ele>
        <time>2022-09-22T11:54:29Z</time>
      </trkpt>
      <trkpt lat="44.12624" lon="5.84699">
        <ele>952</ele>
        <time>2022-09-22T11:54:30Z</time>
      </trkpt>
      <trkpt lat="44.12624" lon="5.84699">
        <ele>952</ele>
        <time>2022-09-22T11:54:31Z</time>
      </trkpt>
      <trkpt lat="44.12622" lon="5.847">
        <ele>952</ele>
        <time>2022-09-22T11:54:32Z</time>
      </trkpt>
      <trkpt lat="44.12621" lon="5.847">
        <ele>952</ele>
        <time>2022-09-22T11:54:33Z</time>
      </trkpt>
      <trkpt lat="44.12621" lon="5.847">
        <ele>953</ele>
        <time>2022-09-22T11:54:34Z</time>
      </trkpt>
      <trkpt lat="44.1262" lon="5.847">
        <ele>953</ele>
        <time>2022-09-22T11:54:35Z</time>
      </trkpt>
      <trkpt lat="44.12619" lon="5.84701">
        <ele>953</ele>
        <time>2022-09-22T11:54:36Z</time>
      </trkpt>
      <trkpt lat="44.12618" lon="5.84701">
        <ele>953</ele>
        <time>2022-09-22T11:54:37Z</time>
      </trkpt>
      <trkpt lat="44.12618" lon="5.84702">
        <ele>953</ele>
        <time>2022-09-22T11:54:38Z</time>
      </trkpt>
      <trkpt lat="44.12618" lon="5.84702">
        <ele>953</ele>
        <time>2022-09-22T11:54:39Z</time>
      </trkpt>
      <trkpt lat="44.12617" lon="5.84703">
        <ele>953</ele>
        <time>2022-09-22T11:54:40Z</time>
      </trkpt>
      <trkpt lat="44.12617" lon="5.84704">
        <ele>953</ele>
        <time>2022-09-22T11:54:41Z</time>
      </trkpt>
      <trkpt lat="44.12616" lon="5.84705">
        <ele>953</ele>
        <time>2022-09-22T11:54:42Z</time>
      </trkpt>
      <trkpt lat="44.12616" lon="5.84706">
        <ele>953</ele>
        <time>2022-09-22T11:54:43Z</time>
      </trkpt>
      <trkpt lat="44.12615" lon="5.84707">
        <ele>954</ele>
        <time>2022-09-22T11:54:44Z</time>
      </trkpt>
      <trkpt lat="44.12613" lon="5.84708">
        <ele>954</ele>
        <time>2022-09-22T11:54:45Z</time>
      </trkpt>
      <trkpt lat="44.12612" lon="5.84708">
        <ele>954</ele>
        <time>2022-09-22T11:54:46Z</time>
      </trkpt>
      <trkpt lat="44.12611" lon="5.84708">
        <ele>954</ele>
        <time>2022-09-22T11:54:47Z</time>
      </trkpt>
      <trkpt lat="44.1261" lon="5.84708">
        <ele>954</ele>
        <time>2022-09-22T11:54:48Z</time>
      </trkpt>
      <trkpt lat="44.1261" lon="5.84708">
        <ele>954</ele>
        <time>2022-09-22T11:54:49Z</time>
      </trkpt>
      <trkpt lat="44.12609" lon="5.84708">
        <ele>954</ele>
        <time>2022-09-22T11:54:50Z</time>
      </trkpt>
      <trkpt lat="44.12608" lon="5.84709">
        <ele>954</ele>
        <time>2022-09-22T11:54:51Z</time>
      </trkpt>
      <trkpt lat="44.12608" lon="5.84709">
        <ele>954</ele>
        <time>2022-09-22T11:54:52Z</time>
      </trkpt>
      <trkpt lat="44.12608" lon="5.8471">
        <ele>954</ele>
        <time>2022-09-22T11:54:53Z</time>
      </trkpt>
      <trkpt lat="44.12608" lon="5.84711">
        <ele>954</ele>
        <time>2022-09-22T11:54:54Z</time>
      </trkpt>
      <trkpt lat="44.12607" lon="5.84712">
        <ele>954</ele>
        <time>2022-09-22T11:54:55Z</time>
      </trkpt>
      <trkpt lat="44.12607" lon="5.84712">
        <ele>954</ele>
        <time>2022-09-22T11:54:56Z</time>
      </trkpt>
      <trkpt lat="44.12607" lon="5.84713">
        <ele>954</ele>
        <time>2022-09-22T11:54:57Z</time>
      </trkpt>
      <trkpt lat="44.12606" lon="5.84713">
        <ele>954</ele>
        <time>2022-09-22T11:54:58Z</time>
      </trkpt>
      <trkpt lat="44.12605" lon="5.84714">
        <ele>955</ele>
        <time>2022-09-22T11:54:59Z</time>
      </trkpt>
      <trkpt lat="44.12604" lon="5.84715">
        <ele>955</ele>
        <time>2022-09-22T11:55:00Z</time>
      </trkpt>
      <trkpt lat="44.12603" lon="5.84715">
        <ele>955</ele>
        <time>2022-09-22T11:55:01Z</time>
      </trkpt>
      <trkpt lat="44.12602" lon="5.84716">
        <ele>955</ele>
        <time>2022-09-22T11:55:02Z</time>
      </trkpt>
      <trkpt lat="44.12601" lon="5.84717">
        <ele>955</ele>
        <time>2022-09-22T11:55:03Z</time>
      </trkpt>
      <trkpt lat="44.12599" lon="5.84718">
        <ele>955</ele>
        <time>2022-09-22T11:55:04Z</time>
      </trkpt>
      <trkpt lat="44.12598" lon="5.84719">
        <ele>955</ele>
        <time>2022-09-22T11:55:05Z</time>
      </trkpt>
      <trkpt lat="44.12597" lon="5.8472">
        <ele>955</ele>
        <time>2022-09-22T11:55:06Z</time>
      </trkpt>
      <trkpt lat="44.12596" lon="5.84721">
        <ele>955</ele>
        <time>2022-09-22T11:55:07Z</time>
      </trkpt>
      <trkpt lat="44.12595" lon="5.84721">
        <ele>955</ele>
        <time>2022-09-22T11:55:08Z</time>
      </trkpt>
      <trkpt lat="44.12595" lon="5.84722">
        <ele>955</ele>
        <time>2022-09-22T11:55:09Z</time>
      </trkpt>
      <trkpt lat="44.12594" lon="5.84723">
        <ele>955</ele>
        <time>2022-09-22T11:55:10Z</time>
      </trkpt>
      <trkpt lat="44.12593" lon="5.84723">
        <ele>955</ele>
        <time>2022-09-22T11:55:11Z</time>
      </trkpt>
      <trkpt lat="44.12592" lon="5.84724">
        <ele>955</ele>
        <time>2022-09-22T11:55:12Z</time>
      </trkpt>
      <trkpt lat="44.12592" lon="5.84725">
        <ele>955</ele>
        <time>2022-09-22T11:55:13Z</time>
      </trkpt>
      <trkpt lat="44.12591" lon="5.84726">
        <ele>956</ele>
        <time>2022-09-22T11:55:14Z</time>
      </trkpt>
      <trkpt lat="44.1259" lon="5.84727">
        <ele>956</ele>
        <time>2022-09-22T11:55:15Z</time>
      </trkpt>
      <trkpt lat="44.1259" lon="5.84728">
        <ele>956</ele>
        <time>2022-09-22T11:55:16Z</time>
      </trkpt>
      <trkpt lat="44.1259" lon="5.84728">
        <ele>956</ele>
        <time>2022-09-22T11:55:17Z</time>
      </trkpt>
      <trkpt lat="44.1259" lon="5.84729">
        <ele>956</ele>
        <time>2022-09-22T11:55:18Z</time>
      </trkpt>
      <trkpt lat="44.1259" lon="5.84729">
        <ele>956</ele>
        <time>2022-09-22T11:55:19Z</time>
      </trkpt>
      <trkpt lat="44.1259" lon="5.8473">
        <ele>956</ele>
        <time>2022-09-22T11:55:20Z</time>
      </trkpt>
      <trkpt lat="44.12589" lon="5.8473">
        <ele>956</ele>
        <time>2022-09-22T11:55:21Z</time>
      </trkpt>
      <trkpt lat="44.12589" lon="5.8473">
        <ele>956</ele>
        <time>2022-09-22T11:55:22Z</time>
      </trkpt>
      <trkpt lat="44.12589" lon="5.84731">
        <ele>956</ele>
        <time>2022-09-22T11:55:23Z</time>
      </trkpt>
      <trkpt lat="44.12588" lon="5.84731">
        <ele>956</ele>
        <time>2022-09-22T11:55:24Z</time>
      </trkpt>
      <trkpt lat="44.12587" lon="5.84731">
        <ele>956</ele>
        <time>2022-09-22T11:55:25Z</time>
      </trkpt>
      <trkpt lat="44.12586" lon="5.84732">
        <ele>956</ele>
        <time>2022-09-22T11:55:26Z</time>
      </trkpt>
      <trkpt lat="44.12585" lon="5.84732">
        <ele>956</ele>
        <time>2022-09-22T11:55:27Z</time>
      </trkpt>
      <trkpt lat="44.12584" lon="5.84733">
        <ele>956</ele>
        <time>2022-09-22T11:55:28Z</time>
      </trkpt>
      <trkpt lat="44.12583" lon="5.84734">
        <ele>957</ele>
        <time>2022-09-22T11:55:29Z</time>
      </trkpt>
      <trkpt lat="44.12582" lon="5.84734">
        <ele>957</ele>
        <time>2022-09-22T11:55:30Z</time>
      </trkpt>
      <trkpt lat="44.12581" lon="5.84735">
        <ele>957</ele>
        <time>2022-09-22T11:55:31Z</time>
      </trkpt>
      <trkpt lat="44.1258" lon="5.84736">
        <ele>957</ele>
        <time>2022-09-22T11:55:32Z</time>
      </trkpt>
      <trkpt lat="44.1258" lon="5.84736">
        <ele>957</ele>
        <time>2022-09-22T11:55:33Z</time>
      </trkpt>
      <trkpt lat="44.12579" lon="5.84737">
        <ele>957</ele>
        <time>2022-09-22T11:55:34Z</time>
      </trkpt>
      <trkpt lat="44.12578" lon="5.84737">
        <ele>957</ele>
        <time>2022-09-22T11:55:35Z</time>
      </trkpt>
      <trkpt lat="44.12577" lon="5.84738">
        <ele>957</ele>
        <time>2022-09-22T11:55:36Z</time>
      </trkpt>
      <trkpt lat="44.12575" lon="5.84738">
        <ele>957</ele>
        <time>2022-09-22T11:55:37Z</time>
      </trkpt>
      <trkpt lat="44.12575" lon="5.84739">
        <ele>957</ele>
        <time>2022-09-22T11:55:38Z</time>
      </trkpt>
      <trkpt lat="44.12574" lon="5.84739">
        <ele>957</ele>
        <time>2022-09-22T11:55:39Z</time>
      </trkpt>
      <trkpt lat="44.12573" lon="5.8474">
        <ele>957</ele>
        <time>2022-09-22T11:55:40Z</time>
      </trkpt>
      <trkpt lat="44.12573" lon="5.8474">
        <ele>957</ele>
        <time>2022-09-22T11:55:41Z</time>
      </trkpt>
      <trkpt lat="44.12572" lon="5.84741">
        <ele>957</ele>
        <time>2022-09-22T11:55:42Z</time>
      </trkpt>
      <trkpt lat="44.12571" lon="5.84741">
        <ele>957</ele>
        <time>2022-09-22T11:55:43Z</time>
      </trkpt>
      <trkpt lat="44.12571" lon="5.84741">
        <ele>957</ele>
        <time>2022-09-22T11:55:44Z</time>
      </trkpt>
      <trkpt lat="44.1257" lon="5.84741">
        <ele>957</ele>
        <time>2022-09-22T11:55:45Z</time>
      </trkpt>
      <trkpt lat="44.12569" lon="5.84741">
        <ele>957</ele>
        <time>2022-09-22T11:55:46Z</time>
      </trkpt>
      <trkpt lat="44.12568" lon="5.8474">
        <ele>957</ele>
        <time>2022-09-22T11:55:47Z</time>
      </trkpt>
      <trkpt lat="44.12568" lon="5.8474">
        <ele>957</ele>
        <time>2022-09-22T11:55:48Z</time>
      </trkpt>
      <trkpt lat="44.12567" lon="5.8474">
        <ele>958</ele>
        <time>2022-09-22T11:55:49Z</time>
      </trkpt>
      <trkpt lat="44.12566" lon="5.8474">
        <ele>958</ele>
        <time>2022-09-22T11:55:50Z</time>
      </trkpt>
      <trkpt lat="44.12565" lon="5.84741">
        <ele>958</ele>
        <time>2022-09-22T11:55:51Z</time>
      </trkpt>
      <trkpt lat="44.12564" lon="5.84741">
        <ele>958</ele>
        <time>2022-09-22T11:55:52Z</time>
      </trkpt>
      <trkpt lat="44.12564" lon="5.84741">
        <ele>958</ele>
        <time>2022-09-22T11:55:53Z</time>
      </trkpt>
      <trkpt lat="44.12563" lon="5.84741">
        <ele>958</ele>
        <time>2022-09-22T11:55:54Z</time>
      </trkpt>
      <trkpt lat="44.12562" lon="5.84742">
        <ele>958</ele>
        <time>2022-09-22T11:55:55Z</time>
      </trkpt>
      <trkpt lat="44.12561" lon="5.84742">
        <ele>958</ele>
        <time>2022-09-22T11:55:56Z</time>
      </trkpt>
      <trkpt lat="44.1256" lon="5.84743">
        <ele>958</ele>
        <time>2022-09-22T11:55:57Z</time>
      </trkpt>
      <trkpt lat="44.1256" lon="5.84743">
        <ele>958</ele>
        <time>2022-09-22T11:55:58Z</time>
      </trkpt>
      <trkpt lat="44.12559" lon="5.84743">
        <ele>959</ele>
        <time>2022-09-22T11:55:59Z</time>
      </trkpt>
      <trkpt lat="44.12558" lon="5.84745">
        <ele>959</ele>
        <time>2022-09-22T11:56:00Z</time>
      </trkpt>
      <trkpt lat="44.12557" lon="5.84746">
        <ele>959</ele>
        <time>2022-09-22T11:56:01Z</time>
      </trkpt>
      <trkpt lat="44.12556" lon="5.84747">
        <ele>959</ele>
        <time>2022-09-22T11:56:02Z</time>
      </trkpt>
      <trkpt lat="44.12554" lon="5.84748">
        <ele>959</ele>
        <time>2022-09-22T11:56:03Z</time>
      </trkpt>
      <trkpt lat="44.12552" lon="5.84749">
        <ele>959</ele>
        <time>2022-09-22T11:56:04Z</time>
      </trkpt>
      <trkpt lat="44.12549" lon="5.8475">
        <ele>959</ele>
        <time>2022-09-22T11:56:05Z</time>
      </trkpt>
      <trkpt lat="44.12549" lon="5.8475">
        <ele>959</ele>
        <time>2022-09-22T11:56:06Z</time>
      </trkpt>
      <trkpt lat="44.12548" lon="5.8475">
        <ele>959</ele>
        <time>2022-09-22T11:56:07Z</time>
      </trkpt>
      <trkpt lat="44.12548" lon="5.8475">
        <ele>959</ele>
        <time>2022-09-22T11:56:08Z</time>
      </trkpt>
      <trkpt lat="44.12547" lon="5.8475">
        <ele>959</ele>
        <time>2022-09-22T11:56:09Z</time>
      </trkpt>
      <trkpt lat="44.12547" lon="5.8475">
        <ele>959</ele>
        <time>2022-09-22T11:56:10Z</time>
      </trkpt>
      <trkpt lat="44.12545" lon="5.8475">
        <ele>959</ele>
        <time>2022-09-22T11:56:11Z</time>
      </trkpt>
      <trkpt lat="44.12544" lon="5.8475">
        <ele>959</ele>
        <time>2022-09-22T11:56:12Z</time>
      </trkpt>
      <trkpt lat="44.12543" lon="5.8475">
        <ele>959</ele>
        <time>2022-09-22T11:56:13Z</time>
      </trkpt>
      <trkpt lat="44.12542" lon="5.8475">
        <ele>960</ele>
        <time>2022-09-22T11:56:14Z</time>
      </trkpt>
      <trkpt lat="44.12541" lon="5.8475">
        <ele>960</ele>
        <time>2022-09-22T11:56:15Z</time>
      </trkpt>
      <trkpt lat="44.12541" lon="5.8475">
        <ele>960</ele>
        <time>2022-09-22T11:56:16Z</time>
      </trkpt>
      <trkpt lat="44.1254" lon="5.8475">
        <ele>960</ele>
        <time>2022-09-22T11:56:17Z</time>
      </trkpt>
      <trkpt lat="44.12539" lon="5.8475">
        <ele>960</ele>
        <time>2022-09-22T11:56:18Z</time>
      </trkpt>
      <trkpt lat="44.12538" lon="5.8475">
        <ele>960</ele>
        <time>2022-09-22T11:56:19Z</time>
      </trkpt>
      <trkpt lat="44.12538" lon="5.8475">
        <ele>960</ele>
        <time>2022-09-22T11:56:20Z</time>
      </trkpt>
      <trkpt lat="44.12537" lon="5.84749">
        <ele>960</ele>
        <time>2022-09-22T11:56:21Z</time>
      </trkpt>
      <trkpt lat="44.12536" lon="5.84749">
        <ele>960</ele>
        <time>2022-09-22T11:56:22Z</time>
      </trkpt>
      <trkpt lat="44.12535" lon="5.84749">
        <ele>960</ele>
        <time>2022-09-22T11:56:23Z</time>
      </trkpt>
      <trkpt lat="44.12534" lon="5.84749">
        <ele>960</ele>
        <time>2022-09-22T11:56:24Z</time>
      </trkpt>
      <trkpt lat="44.12532" lon="5.84749">
        <ele>960</ele>
        <time>2022-09-22T11:56:25Z</time>
      </trkpt>
      <trkpt lat="44.12532" lon="5.84748">
        <ele>960</ele>
        <time>2022-09-22T11:56:26Z</time>
      </trkpt>
      <trkpt lat="44.12531" lon="5.84748">
        <ele>960</ele>
        <time>2022-09-22T11:56:27Z</time>
      </trkpt>
      <trkpt lat="44.1253" lon="5.84748">
        <ele>960</ele>
        <time>2022-09-22T11:56:28Z</time>
      </trkpt>
      <trkpt lat="44.12529" lon="5.84748">
        <ele>961</ele>
        <time>2022-09-22T11:56:29Z</time>
      </trkpt>
      <trkpt lat="44.12529" lon="5.84748">
        <ele>961</ele>
        <time>2022-09-22T11:56:30Z</time>
      </trkpt>
      <trkpt lat="44.12528" lon="5.84747">
        <ele>961</ele>
        <time>2022-09-22T11:56:31Z</time>
      </trkpt>
      <trkpt lat="44.12528" lon="5.84747">
        <ele>961</ele>
        <time>2022-09-22T11:56:32Z</time>
      </trkpt>
      <trkpt lat="44.12527" lon="5.84747">
        <ele>961</ele>
        <time>2022-09-22T11:56:33Z</time>
      </trkpt>
      <trkpt lat="44.12527" lon="5.84747">
        <ele>961</ele>
        <time>2022-09-22T11:56:34Z</time>
      </trkpt>
      <trkpt lat="44.12526" lon="5.84746">
        <ele>961</ele>
        <time>2022-09-22T11:56:35Z</time>
      </trkpt>
      <trkpt lat="44.12525" lon="5.84746">
        <ele>961</ele>
        <time>2022-09-22T11:56:36Z</time>
      </trkpt>
      <trkpt lat="44.12524" lon="5.84746">
        <ele>961</ele>
        <time>2022-09-22T11:56:37Z</time>
      </trkpt>
      <trkpt lat="44.12523" lon="5.84746">
        <ele>961</ele>
        <time>2022-09-22T11:56:38Z</time>
      </trkpt>
      <trkpt lat="44.12522" lon="5.84746">
        <ele>962</ele>
        <time>2022-09-22T11:56:39Z</time>
      </trkpt>
      <trkpt lat="44.12522" lon="5.84746">
        <ele>962</ele>
        <time>2022-09-22T11:56:40Z</time>
      </trkpt>
      <trkpt lat="44.12521" lon="5.84746">
        <ele>962</ele>
        <time>2022-09-22T11:56:41Z</time>
      </trkpt>
      <trkpt lat="44.1252" lon="5.84746">
        <ele>962</ele>
        <time>2022-09-22T11:56:42Z</time>
      </trkpt>
      <trkpt lat="44.12519" lon="5.84745">
        <ele>962</ele>
        <time>2022-09-22T11:56:43Z</time>
      </trkpt>
      <trkpt lat="44.12518" lon="5.84745">
        <ele>962</ele>
        <time>2022-09-22T11:56:44Z</time>
      </trkpt>
      <trkpt lat="44.12517" lon="5.84745">
        <ele>962</ele>
        <time>2022-09-22T11:56:45Z</time>
      </trkpt>
      <trkpt lat="44.12516" lon="5.84744">
        <ele>962</ele>
        <time>2022-09-22T11:56:46Z</time>
      </trkpt>
      <trkpt lat="44.12515" lon="5.84744">
        <ele>962</ele>
        <time>2022-09-22T11:56:47Z</time>
      </trkpt>
      <trkpt lat="44.12515" lon="5.84744">
        <ele>962</ele>
        <time>2022-09-22T11:56:48Z</time>
      </trkpt>
      <trkpt lat="44.12513" lon="5.84744">
        <ele>963</ele>
        <time>2022-09-22T11:56:49Z</time>
      </trkpt>
      <trkpt lat="44.12512" lon="5.84744">
        <ele>963</ele>
        <time>2022-09-22T11:56:50Z</time>
      </trkpt>
      <trkpt lat="44.12511" lon="5.84743">
        <ele>963</ele>
        <time>2022-09-22T11:56:51Z</time>
      </trkpt>
      <trkpt lat="44.1251" lon="5.84743">
        <ele>963</ele>
        <time>2022-09-22T11:56:52Z</time>
      </trkpt>
      <trkpt lat="44.12509" lon="5.84742">
        <ele>963</ele>
        <time>2022-09-22T11:56:53Z</time>
      </trkpt>
      <trkpt lat="44.12508" lon="5.84741">
        <ele>963</ele>
        <time>2022-09-22T11:56:54Z</time>
      </trkpt>
      <trkpt lat="44.12507" lon="5.8474">
        <ele>963</ele>
        <time>2022-09-22T11:56:55Z</time>
      </trkpt>
      <trkpt lat="44.12505" lon="5.84739">
        <ele>963</ele>
        <time>2022-09-22T11:56:56Z</time>
      </trkpt>
      <trkpt lat="44.12503" lon="5.84739">
        <ele>963</ele>
        <time>2022-09-22T11:56:57Z</time>
      </trkpt>
      <trkpt lat="44.12501" lon="5.84738">
        <ele>963</ele>
        <time>2022-09-22T11:56:58Z</time>
      </trkpt>
      <trkpt lat="44.125" lon="5.84738">
        <ele>964</ele>
        <time>2022-09-22T11:56:59Z</time>
      </trkpt>
      <trkpt lat="44.12499" lon="5.84738">
        <ele>964</ele>
        <time>2022-09-22T11:57:00Z</time>
      </trkpt>
      <trkpt lat="44.12498" lon="5.84738">
        <ele>964</ele>
        <time>2022-09-22T11:57:01Z</time>
      </trkpt>
      <trkpt lat="44.12497" lon="5.84738">
        <ele>964</ele>
        <time>2022-09-22T11:57:02Z</time>
      </trkpt>
      <trkpt lat="44.12496" lon="5.84738">
        <ele>964</ele>
        <time>2022-09-22T11:57:03Z</time>
      </trkpt>
      <trkpt lat="44.12495" lon="5.84738">
        <ele>964</ele>
        <time>2022-09-22T11:57:04Z</time>
      </trkpt>
      <trkpt lat="44.12494" lon="5.84738">
        <ele>964</ele>
        <time>2022-09-22T11:57:05Z</time>
      </trkpt>
      <trkpt lat="44.12493" lon="5.84738">
        <ele>964</ele>
        <time>2022-09-22T11:57:06Z</time>
      </trkpt>
      <trkpt lat="44.12492" lon="5.84738">
        <ele>964</ele>
        <time>2022-09-22T11:57:07Z</time>
      </trkpt>
      <trkpt lat="44.12491" lon="5.84737">
        <ele>964</ele>
        <time>2022-09-22T11:57:08Z</time>
      </trkpt>
      <trkpt lat="44.12489" lon="5.84737">
        <ele>965</ele>
        <time>2022-09-22T11:57:09Z</time>
      </trkpt>
      <trkpt lat="44.12488" lon="5.84736">
        <ele>965</ele>
        <time>2022-09-22T11:57:10Z</time>
      </trkpt>
      <trkpt lat="44.12484" lon="5.84735">
        <ele>965</ele>
        <time>2022-09-22T11:57:17Z</time>
      </trkpt>
      <trkpt lat="44.12482" lon="5.84735">
        <ele>965</ele>
        <time>2022-09-22T11:57:18Z</time>
      </trkpt>
      <trkpt lat="44.1248" lon="5.84736">
        <ele>965</ele>
        <time>2022-09-22T11:57:19Z</time>
      </trkpt>
      <trkpt lat="44.12478" lon="5.84738">
        <ele>965</ele>
        <time>2022-09-22T11:57:25Z</time>
      </trkpt>
      <trkpt lat="44.12478" lon="5.84739">
        <ele>965</ele>
        <time>2022-09-22T11:57:26Z</time>
      </trkpt>
      <trkpt lat="44.12479" lon="5.8474">
        <ele>965</ele>
        <time>2022-09-22T11:57:27Z</time>
      </trkpt>
      <trkpt lat="44.12479" lon="5.84741">
        <ele>965</ele>
        <time>2022-09-22T11:57:28Z</time>
      </trkpt>
      <trkpt lat="44.1248" lon="5.84742">
        <ele>965</ele>
        <time>2022-09-22T11:57:29Z</time>
      </trkpt>
      <trkpt lat="44.1248" lon="5.84744">
        <ele>965</ele>
        <time>2022-09-22T11:57:30Z</time>
      </trkpt>
      <trkpt lat="44.1248" lon="5.84745">
        <ele>965</ele>
        <time>2022-09-22T11:57:31Z</time>
      </trkpt>
      <trkpt lat="44.12479" lon="5.84746">
        <ele>965</ele>
        <time>2022-09-22T11:57:32Z</time>
      </trkpt>
      <trkpt lat="44.12478" lon="5.84747">
        <ele>965</ele>
        <time>2022-09-22T11:57:33Z</time>
      </trkpt>
      <trkpt lat="44.12478" lon="5.84747">
        <ele>965</ele>
        <time>2022-09-22T11:57:34Z</time>
      </trkpt>
      <trkpt lat="44.12478" lon="5.84747">
        <ele>965</ele>
        <time>2022-09-22T11:57:35Z</time>
      </trkpt>
      <trkpt lat="44.12477" lon="5.84748">
        <ele>965</ele>
        <time>2022-09-22T11:57:36Z</time>
      </trkpt>
      <trkpt lat="44.12477" lon="5.84749">
        <ele>965</ele>
        <time>2022-09-22T11:57:37Z</time>
      </trkpt>
      <trkpt lat="44.12477" lon="5.8475">
        <ele>965</ele>
        <time>2022-09-22T11:57:38Z</time>
      </trkpt>
      <trkpt lat="44.12477" lon="5.84751">
        <ele>965</ele>
        <time>2022-09-22T11:57:39Z</time>
      </trkpt>
      <trkpt lat="44.12477" lon="5.84752">
        <ele>965</ele>
        <time>2022-09-22T11:57:40Z</time>
      </trkpt>
      <trkpt lat="44.12477" lon="5.84752">
        <ele>965</ele>
        <time>2022-09-22T11:57:41Z</time>
      </trkpt>
      <trkpt lat="44.12476" lon="5.84753">
        <ele>965</ele>
        <time>2022-09-22T11:57:42Z</time>
      </trkpt>
      <trkpt lat="44.12476" lon="5.84754">
        <ele>965</ele>
        <time>2022-09-22T11:57:43Z</time>
      </trkpt>
      <trkpt lat="44.12476" lon="5.84755">
        <ele>965</ele>
        <time>2022-09-22T11:57:44Z</time>
      </trkpt>
      <trkpt lat="44.12476" lon="5.84756">
        <ele>965</ele>
        <time>2022-09-22T11:57:45Z</time>
      </trkpt>
      <trkpt lat="44.12476" lon="5.84757">
        <ele>965</ele>
        <time>2022-09-22T11:57:46Z</time>
      </trkpt>
      <trkpt lat="44.12476" lon="5.84758">
        <ele>965</ele>
        <time>2022-09-22T11:57:47Z</time>
      </trkpt>
      <trkpt lat="44.12476" lon="5.84759">
        <ele>965</ele>
        <time>2022-09-22T11:57:48Z</time>
      </trkpt>
      <trkpt lat="44.12476" lon="5.8476">
        <ele>965</ele>
        <time>2022-09-22T11:57:49Z</time>
      </trkpt>
      <trkpt lat="44.12477" lon="5.84762">
        <ele>965</ele>
        <time>2022-09-22T11:57:50Z</time>
      </trkpt>
      <trkpt lat="44.12477" lon="5.84763">
        <ele>965</ele>
        <time>2022-09-22T11:57:51Z</time>
      </trkpt>
      <trkpt lat="44.12477" lon="5.84764">
        <ele>965</ele>
        <time>2022-09-22T11:57:52Z</time>
      </trkpt>
      <trkpt lat="44.12477" lon="5.84765">
        <ele>965</ele>
        <time>2022-09-22T11:57:53Z</time>
      </trkpt>
      <trkpt lat="44.12477" lon="5.84766">
        <ele>965</ele>
        <time>2022-09-22T11:57:54Z</time>
      </trkpt>
      <trkpt lat="44.12477" lon="5.84767">
        <ele>965</ele>
        <time>2022-09-22T11:57:55Z</time>
      </trkpt>
      <trkpt lat="44.12477" lon="5.84768">
        <ele>965</ele>
        <time>2022-09-22T11:57:56Z</time>
      </trkpt>
      <trkpt lat="44.12477" lon="5.8477">
        <ele>965</ele>
        <time>2022-09-22T11:57:57Z</time>
      </trkpt>
      <trkpt lat="44.12477" lon="5.84771">
        <ele>965</ele>
        <time>2022-09-22T11:57:58Z</time>
      </trkpt>
      <trkpt lat="44.12477" lon="5.84772">
        <ele>965</ele>
        <time>2022-09-22T11:57:59Z</time>
      </trkpt>
      <trkpt lat="44.12477" lon="5.84773">
        <ele>965</ele>
        <time>2022-09-22T11:58:00Z</time>
      </trkpt>
      <trkpt lat="44.12478" lon="5.84775">
        <ele>965</ele>
        <time>2022-09-22T11:58:01Z</time>
      </trkpt>
      <trkpt lat="44.12478" lon="5.84776">
        <ele>965</ele>
        <time>2022-09-22T11:58:02Z</time>
      </trkpt>
      <trkpt lat="44.12478" lon="5.84778">
        <ele>965</ele>
        <time>2022-09-22T11:58:03Z</time>
      </trkpt>
      <trkpt lat="44.12479" lon="5.84779">
        <ele>965</ele>
        <time>2022-09-22T11:58:04Z</time>
      </trkpt>
      <trkpt lat="44.12479" lon="5.8478">
        <ele>964</ele>
        <time>2022-09-22T11:58:05Z</time>
      </trkpt>
      <trkpt lat="44.12479" lon="5.84782">
        <ele>964</ele>
        <time>2022-09-22T11:58:06Z</time>
      </trkpt>
      <trkpt lat="44.12479" lon="5.84783">
        <ele>964</ele>
        <time>2022-09-22T11:58:07Z</time>
      </trkpt>
      <trkpt lat="44.12479" lon="5.84785">
        <ele>964</ele>
        <time>2022-09-22T11:58:08Z</time>
      </trkpt>
      <trkpt lat="44.1248" lon="5.84786">
        <ele>964</ele>
        <time>2022-09-22T11:58:09Z</time>
      </trkpt>
      <trkpt lat="44.1248" lon="5.84787">
        <ele>964</ele>
        <time>2022-09-22T11:58:10Z</time>
      </trkpt>
      <trkpt lat="44.1248" lon="5.84789">
        <ele>964</ele>
        <time>2022-09-22T11:58:11Z</time>
      </trkpt>
      <trkpt lat="44.12481" lon="5.8479">
        <ele>964</ele>
        <time>2022-09-22T11:58:12Z</time>
      </trkpt>
      <trkpt lat="44.12481" lon="5.84792">
        <ele>964</ele>
        <time>2022-09-22T11:58:13Z</time>
      </trkpt>
      <trkpt lat="44.12481" lon="5.84793">
        <ele>964</ele>
        <time>2022-09-22T11:58:14Z</time>
      </trkpt>
      <trkpt lat="44.1248" lon="5.84794">
        <ele>964</ele>
        <time>2022-09-22T11:58:15Z</time>
      </trkpt>
      <trkpt lat="44.1248" lon="5.84796">
        <ele>964</ele>
        <time>2022-09-22T11:58:16Z</time>
      </trkpt>
      <trkpt lat="44.1248" lon="5.84797">
        <ele>964</ele>
        <time>2022-09-22T11:58:17Z</time>
      </trkpt>
      <trkpt lat="44.12479" lon="5.84799">
        <ele>964</ele>
        <time>2022-09-22T11:58:18Z</time>
      </trkpt>
      <trkpt lat="44.12479" lon="5.848">
        <ele>965</ele>
        <time>2022-09-22T11:58:19Z</time>
      </trkpt>
      <trkpt lat="44.12479" lon="5.84801">
        <ele>964</ele>
        <time>2022-09-22T11:58:20Z</time>
      </trkpt>
      <trkpt lat="44.12479" lon="5.84803">
        <ele>964</ele>
        <time>2022-09-22T11:58:21Z</time>
      </trkpt>
      <trkpt lat="44.1248" lon="5.84804">
        <ele>964</ele>
        <time>2022-09-22T11:58:22Z</time>
      </trkpt>
      <trkpt lat="44.1248" lon="5.84806">
        <ele>964</ele>
        <time>2022-09-22T11:58:23Z</time>
      </trkpt>
      <trkpt lat="44.12479" lon="5.84808">
        <ele>964</ele>
        <time>2022-09-22T11:58:24Z</time>
      </trkpt>
      <trkpt lat="44.1248" lon="5.8481">
        <ele>964</ele>
        <time>2022-09-22T11:58:25Z</time>
      </trkpt>
      <trkpt lat="44.1248" lon="5.84812">
        <ele>964</ele>
        <time>2022-09-22T11:58:26Z</time>
      </trkpt>
      <trkpt lat="44.1248" lon="5.84813">
        <ele>964</ele>
        <time>2022-09-22T11:58:27Z</time>
      </trkpt>
      <trkpt lat="44.1248" lon="5.84815">
        <ele>964</ele>
        <time>2022-09-22T11:58:28Z</time>
      </trkpt>
      <trkpt lat="44.1248" lon="5.84817">
        <ele>964</ele>
        <time>2022-09-22T11:58:29Z</time>
      </trkpt>
      <trkpt lat="44.1248" lon="5.84818">
        <ele>964</ele>
        <time>2022-09-22T11:58:30Z</time>
      </trkpt>
      <trkpt lat="44.12479" lon="5.84819">
        <ele>964</ele>
        <time>2022-09-22T11:58:31Z</time>
      </trkpt>
      <trkpt lat="44.12479" lon="5.84821">
        <ele>964</ele>
        <time>2022-09-22T11:58:32Z</time>
      </trkpt>
      <trkpt lat="44.12479" lon="5.84822">
        <ele>964</ele>
        <time>2022-09-22T11:58:33Z</time>
      </trkpt>
      <trkpt lat="44.12478" lon="5.84823">
        <ele>964</ele>
        <time>2022-09-22T11:58:34Z</time>
      </trkpt>
      <trkpt lat="44.12478" lon="5.84824">
        <ele>964</ele>
        <time>2022-09-22T11:58:35Z</time>
      </trkpt>
      <trkpt lat="44.12478" lon="5.84825">
        <ele>964</ele>
        <time>2022-09-22T11:58:36Z</time>
      </trkpt>
      <trkpt lat="44.12478" lon="5.84827">
        <ele>964</ele>
        <time>2022-09-22T11:58:37Z</time>
      </trkpt>
      <trkpt lat="44.12478" lon="5.84828">
        <ele>964</ele>
        <time>2022-09-22T11:58:38Z</time>
      </trkpt>
      <trkpt lat="44.12478" lon="5.8483">
        <ele>964</ele>
        <time>2022-09-22T11:58:39Z</time>
      </trkpt>
      <trkpt lat="44.12478" lon="5.84832">
        <ele>964</ele>
        <time>2022-09-22T11:58:40Z</time>
      </trkpt>
      <trkpt lat="44.12479" lon="5.84834">
        <ele>964</ele>
        <time>2022-09-22T11:58:41Z</time>
      </trkpt>
      <trkpt lat="44.1248" lon="5.84836">
        <ele>964</ele>
        <time>2022-09-22T11:58:42Z</time>
      </trkpt>
      <trkpt lat="44.12481" lon="5.84838">
        <ele>964</ele>
        <time>2022-09-22T11:58:43Z</time>
      </trkpt>
      <trkpt lat="44.12481" lon="5.8484">
        <ele>964</ele>
        <time>2022-09-22T11:58:44Z</time>
      </trkpt>
      <trkpt lat="44.12482" lon="5.84841">
        <ele>964</ele>
        <time>2022-09-22T11:58:45Z</time>
      </trkpt>
      <trkpt lat="44.12482" lon="5.84843">
        <ele>964</ele>
        <time>2022-09-22T11:58:46Z</time>
      </trkpt>
      <trkpt lat="44.12482" lon="5.84844">
        <ele>964</ele>
        <time>2022-09-22T11:58:47Z</time>
      </trkpt>
      <trkpt lat="44.12482" lon="5.84846">
        <ele>964</ele>
        <time>2022-09-22T11:58:48Z</time>
      </trkpt>
      <trkpt lat="44.12482" lon="5.84847">
        <ele>965</ele>
        <time>2022-09-22T11:58:49Z</time>
      </trkpt>
      <trkpt lat="44.12482" lon="5.84849">
        <ele>965</ele>
        <time>2022-09-22T11:58:50Z</time>
      </trkpt>
      <trkpt lat="44.12482" lon="5.8485">
        <ele>965</ele>
        <time>2022-09-22T11:58:51Z</time>
      </trkpt>
      <trkpt lat="44.12483" lon="5.84851">
        <ele>965</ele>
        <time>2022-09-22T11:58:52Z</time>
      </trkpt>
      <trkpt lat="44.12483" lon="5.84852">
        <ele>965</ele>
        <time>2022-09-22T11:58:53Z</time>
      </trkpt>
      <trkpt lat="44.12484" lon="5.84854">
        <ele>965</ele>
        <time>2022-09-22T11:58:54Z</time>
      </trkpt>
      <trkpt lat="44.12484" lon="5.84855">
        <ele>965</ele>
        <time>2022-09-22T11:58:55Z</time>
      </trkpt>
      <trkpt lat="44.12484" lon="5.84856">
        <ele>965</ele>
        <time>2022-09-22T11:58:56Z</time>
      </trkpt>
      <trkpt lat="44.12483" lon="5.84858">
        <ele>965</ele>
        <time>2022-09-22T11:58:57Z</time>
      </trkpt>
      <trkpt lat="44.12483" lon="5.84859">
        <ele>965</ele>
        <time>2022-09-22T11:58:58Z</time>
      </trkpt>
      <trkpt lat="44.12483" lon="5.84861">
        <ele>965</ele>
        <time>2022-09-22T11:58:59Z</time>
      </trkpt>
      <trkpt lat="44.12482" lon="5.84862">
        <ele>965</ele>
        <time>2022-09-22T11:59:00Z</time>
      </trkpt>
      <trkpt lat="44.12482" lon="5.84863">
        <ele>965</ele>
        <time>2022-09-22T11:59:01Z</time>
      </trkpt>
      <trkpt lat="44.12482" lon="5.84865">
        <ele>965</ele>
        <time>2022-09-22T11:59:02Z</time>
      </trkpt>
      <trkpt lat="44.12483" lon="5.84866">
        <ele>965</ele>
        <time>2022-09-22T11:59:03Z</time>
      </trkpt>
      <trkpt lat="44.12483" lon="5.84867">
        <ele>965</ele>
        <time>2022-09-22T11:59:04Z</time>
      </trkpt>
      <trkpt lat="44.12484" lon="5.84869">
        <ele>965</ele>
        <time>2022-09-22T11:59:05Z</time>
      </trkpt>
      <trkpt lat="44.12484" lon="5.8487">
        <ele>965</ele>
        <time>2022-09-22T11:59:06Z</time>
      </trkpt>
      <trkpt lat="44.12485" lon="5.84871">
        <ele>965</ele>
        <time>2022-09-22T11:59:07Z</time>
      </trkpt>
      <trkpt lat="44.12485" lon="5.84872">
        <ele>965</ele>
        <time>2022-09-22T11:59:08Z</time>
      </trkpt>
      <trkpt lat="44.12485" lon="5.84873">
        <ele>965</ele>
        <time>2022-09-22T11:59:09Z</time>
      </trkpt>
      <trkpt lat="44.12485" lon="5.84874">
        <ele>965</ele>
        <time>2022-09-22T11:59:10Z</time>
      </trkpt>
      <trkpt lat="44.12485" lon="5.84875">
        <ele>965</ele>
        <time>2022-09-22T11:59:11Z</time>
      </trkpt>
      <trkpt lat="44.12485" lon="5.84876">
        <ele>965</ele>
        <time>2022-09-22T11:59:12Z</time>
      </trkpt>
      <trkpt lat="44.12485" lon="5.84877">
        <ele>965</ele>
        <time>2022-09-22T11:59:13Z</time>
      </trkpt>
      <trkpt lat="44.12485" lon="5.84879">
        <ele>965</ele>
        <time>2022-09-22T11:59:14Z</time>
      </trkpt>
      <trkpt lat="44.12486" lon="5.84881">
        <ele>965</ele>
        <time>2022-09-22T11:59:15Z</time>
      </trkpt>
      <trkpt lat="44.12486" lon="5.84882">
        <ele>965</ele>
        <time>2022-09-22T11:59:16Z</time>
      </trkpt>
      <trkpt lat="44.12486" lon="5.84884">
        <ele>965</ele>
        <time>2022-09-22T11:59:17Z</time>
      </trkpt>
      <trkpt lat="44.12487" lon="5.84886">
        <ele>965</ele>
        <time>2022-09-22T11:59:18Z</time>
      </trkpt>
      <trkpt lat="44.12487" lon="5.84887">
        <ele>966</ele>
        <time>2022-09-22T11:59:19Z</time>
      </trkpt>
      <trkpt lat="44.12488" lon="5.84889">
        <ele>966</ele>
        <time>2022-09-22T11:59:20Z</time>
      </trkpt>
      <trkpt lat="44.12488" lon="5.8489">
        <ele>966</ele>
        <time>2022-09-22T11:59:21Z</time>
      </trkpt>
      <trkpt lat="44.12489" lon="5.84892">
        <ele>966</ele>
        <time>2022-09-22T11:59:22Z</time>
      </trkpt>
      <trkpt lat="44.1249" lon="5.84893">
        <ele>966</ele>
        <time>2022-09-22T11:59:23Z</time>
      </trkpt>
      <trkpt lat="44.12491" lon="5.84895">
        <ele>966</ele>
        <time>2022-09-22T11:59:24Z</time>
      </trkpt>
      <trkpt lat="44.12492" lon="5.84896">
        <ele>966</ele>
        <time>2022-09-22T11:59:25Z</time>
      </trkpt>
      <trkpt lat="44.12493" lon="5.84898">
        <ele>966</ele>
        <time>2022-09-22T11:59:26Z</time>
      </trkpt>
      <trkpt lat="44.12493" lon="5.849">
        <ele>966</ele>
        <time>2022-09-22T11:59:27Z</time>
      </trkpt>
      <trkpt lat="44.12494" lon="5.84901">
        <ele>966</ele>
        <time>2022-09-22T11:59:28Z</time>
      </trkpt>
      <trkpt lat="44.12494" lon="5.84903">
        <ele>966</ele>
        <time>2022-09-22T11:59:29Z</time>
      </trkpt>
      <trkpt lat="44.12495" lon="5.84905">
        <ele>966</ele>
        <time>2022-09-22T11:59:30Z</time>
      </trkpt>
      <trkpt lat="44.12495" lon="5.84907">
        <ele>966</ele>
        <time>2022-09-22T11:59:31Z</time>
      </trkpt>
      <trkpt lat="44.12496" lon="5.84908">
        <ele>966</ele>
        <time>2022-09-22T11:59:32Z</time>
      </trkpt>
      <trkpt lat="44.12496" lon="5.8491">
        <ele>966</ele>
        <time>2022-09-22T11:59:33Z</time>
      </trkpt>
      <trkpt lat="44.12496" lon="5.84911">
        <ele>966</ele>
        <time>2022-09-22T11:59:34Z</time>
      </trkpt>
      <trkpt lat="44.12496" lon="5.84913">
        <ele>966</ele>
        <time>2022-09-22T11:59:35Z</time>
      </trkpt>
      <trkpt lat="44.12495" lon="5.84913">
        <ele>966</ele>
        <time>2022-09-22T11:59:36Z</time>
      </trkpt>
      <trkpt lat="44.12495" lon="5.84914">
        <ele>966</ele>
        <time>2022-09-22T11:59:37Z</time>
      </trkpt>
      <trkpt lat="44.12495" lon="5.84916">
        <ele>966</ele>
        <time>2022-09-22T11:59:38Z</time>
      </trkpt>
      <trkpt lat="44.12495" lon="5.84917">
        <ele>966</ele>
        <time>2022-09-22T11:59:39Z</time>
      </trkpt>
      <trkpt lat="44.12495" lon="5.84918">
        <ele>966</ele>
        <time>2022-09-22T11:59:40Z</time>
      </trkpt>
      <trkpt lat="44.12495" lon="5.84919">
        <ele>966</ele>
        <time>2022-09-22T11:59:41Z</time>
      </trkpt>
      <trkpt lat="44.12495" lon="5.84921">
        <ele>966</ele>
        <time>2022-09-22T11:59:42Z</time>
      </trkpt>
      <trkpt lat="44.12495" lon="5.84922">
        <ele>966</ele>
        <time>2022-09-22T11:59:43Z</time>
      </trkpt>
      <trkpt lat="44.12494" lon="5.84924">
        <ele>966</ele>
        <time>2022-09-22T11:59:44Z</time>
      </trkpt>
      <trkpt lat="44.12494" lon="5.84925">
        <ele>966</ele>
        <time>2022-09-22T11:59:45Z</time>
      </trkpt>
      <trkpt lat="44.12494" lon="5.84927">
        <ele>966</ele>
        <time>2022-09-22T11:59:46Z</time>
      </trkpt>
      <trkpt lat="44.12494" lon="5.84928">
        <ele>966</ele>
        <time>2022-09-22T11:59:47Z</time>
      </trkpt>
      <trkpt lat="44.12495" lon="5.84929">
        <ele>966</ele>
        <time>2022-09-22T11:59:48Z</time>
      </trkpt>
      <trkpt lat="44.12495" lon="5.84931">
        <ele>966</ele>
        <time>2022-09-22T11:59:49Z</time>
      </trkpt>
      <trkpt lat="44.12495" lon="5.84932">
        <ele>966</ele>
        <time>2022-09-22T11:59:50Z</time>
      </trkpt>
      <trkpt lat="44.12495" lon="5.84933">
        <ele>966</ele>
        <time>2022-09-22T11:59:51Z</time>
      </trkpt>
      <trkpt lat="44.12495" lon="5.84935">
        <ele>966</ele>
        <time>2022-09-22T11:59:52Z</time>
      </trkpt>
      <trkpt lat="44.12495" lon="5.84936">
        <ele>966</ele>
        <time>2022-09-22T11:59:53Z</time>
      </trkpt>
      <trkpt lat="44.12495" lon="5.84938">
        <ele>966</ele>
        <time>2022-09-22T11:59:54Z</time>
      </trkpt>
      <trkpt lat="44.12494" lon="5.84939">
        <ele>966</ele>
        <time>2022-09-22T11:59:55Z</time>
      </trkpt>
      <trkpt lat="44.12494" lon="5.8494">
        <ele>966</ele>
        <time>2022-09-22T11:59:56Z</time>
      </trkpt>
      <trkpt lat="44.12493" lon="5.84942">
        <ele>966</ele>
        <time>2022-09-22T11:59:57Z</time>
      </trkpt>
      <trkpt lat="44.12493" lon="5.84943">
        <ele>966</ele>
        <time>2022-09-22T11:59:58Z</time>
      </trkpt>
      <trkpt lat="44.12492" lon="5.84945">
        <ele>966</ele>
        <time>2022-09-22T11:59:59Z</time>
      </trkpt>
      <trkpt lat="44.12492" lon="5.84946">
        <ele>966</ele>
        <time>2022-09-22T12:00:00Z</time>
      </trkpt>
      <trkpt lat="44.12492" lon="5.84947">
        <ele>966</ele>
        <time>2022-09-22T12:00:01Z</time>
      </trkpt>
      <trkpt lat="44.12492" lon="5.84949">
        <ele>966</ele>
        <time>2022-09-22T12:00:02Z</time>
      </trkpt>
      <trkpt lat="44.12492" lon="5.84951">
        <ele>966</ele>
        <time>2022-09-22T12:00:03Z</time>
      </trkpt>
      <trkpt lat="44.12492" lon="5.84952">
        <ele>966</ele>
        <time>2022-09-22T12:00:04Z</time>
      </trkpt>
      <trkpt lat="44.12491" lon="5.84954">
        <ele>966</ele>
        <time>2022-09-22T12:00:05Z</time>
      </trkpt>
      <trkpt lat="44.12491" lon="5.84956">
        <ele>966</ele>
        <time>2022-09-22T12:00:06Z</time>
      </trkpt>
      <trkpt lat="44.12491" lon="5.84957">
        <ele>966</ele>
        <time>2022-09-22T12:00:07Z</time>
      </trkpt>
      <trkpt lat="44.12491" lon="5.84959">
        <ele>966</ele>
        <time>2022-09-22T12:00:08Z</time>
      </trkpt>
      <trkpt lat="44.1249" lon="5.8496">
        <ele>966</ele>
        <time>2022-09-22T12:00:09Z</time>
      </trkpt>
      <trkpt lat="44.1249" lon="5.84962">
        <ele>966</ele>
        <time>2022-09-22T12:00:10Z</time>
      </trkpt>
      <trkpt lat="44.1249" lon="5.84963">
        <ele>966</ele>
        <time>2022-09-22T12:00:11Z</time>
      </trkpt>
      <trkpt lat="44.12489" lon="5.84965">
        <ele>966</ele>
        <time>2022-09-22T12:00:12Z</time>
      </trkpt>
      <trkpt lat="44.12489" lon="5.84966">
        <ele>966</ele>
        <time>2022-09-22T12:00:13Z</time>
      </trkpt>
      <trkpt lat="44.12488" lon="5.84967">
        <ele>966</ele>
        <time>2022-09-22T12:00:14Z</time>
      </trkpt>
      <trkpt lat="44.12487" lon="5.84969">
        <ele>966</ele>
        <time>2022-09-22T12:00:15Z</time>
      </trkpt>
      <trkpt lat="44.12486" lon="5.8497">
        <ele>966</ele>
        <time>2022-09-22T12:00:16Z</time>
      </trkpt>
      <trkpt lat="44.12485" lon="5.84972">
        <ele>966</ele>
        <time>2022-09-22T12:00:17Z</time>
      </trkpt>
      <trkpt lat="44.12484" lon="5.84973">
        <ele>966</ele>
        <time>2022-09-22T12:00:18Z</time>
      </trkpt>
      <trkpt lat="44.12484" lon="5.84974">
        <ele>966</ele>
        <time>2022-09-22T12:00:19Z</time>
      </trkpt>
      <trkpt lat="44.12483" lon="5.84976">
        <ele>966</ele>
        <time>2022-09-22T12:00:20Z</time>
      </trkpt>
      <trkpt lat="44.12483" lon="5.84977">
        <ele>966</ele>
        <time>2022-09-22T12:00:21Z</time>
      </trkpt>
      <trkpt lat="44.12482" lon="5.84979">
        <ele>966</ele>
        <time>2022-09-22T12:00:22Z</time>
      </trkpt>
      <trkpt lat="44.12481" lon="5.8498">
        <ele>966</ele>
        <time>2022-09-22T12:00:23Z</time>
      </trkpt>
      <trkpt lat="44.12481" lon="5.84981">
        <ele>967</ele>
        <time>2022-09-22T12:00:24Z</time>
      </trkpt>
      <trkpt lat="44.1248" lon="5.84983">
        <ele>967</ele>
        <time>2022-09-22T12:00:25Z</time>
      </trkpt>
      <trkpt lat="44.1248" lon="5.84984">
        <ele>967</ele>
        <time>2022-09-22T12:00:26Z</time>
      </trkpt>
      <trkpt lat="44.1248" lon="5.84986">
        <ele>967</ele>
        <time>2022-09-22T12:00:27Z</time>
      </trkpt>
      <trkpt lat="44.12479" lon="5.84987">
        <ele>967</ele>
        <time>2022-09-22T12:00:28Z</time>
      </trkpt>
      <trkpt lat="44.12479" lon="5.84988">
        <ele>967</ele>
        <time>2022-09-22T12:00:29Z</time>
      </trkpt>
      <trkpt lat="44.12478" lon="5.84989">
        <ele>967</ele>
        <time>2022-09-22T12:00:30Z</time>
      </trkpt>
      <trkpt lat="44.12478" lon="5.8499">
        <ele>967</ele>
        <time>2022-09-22T12:00:31Z</time>
      </trkpt>
      <trkpt lat="44.12478" lon="5.84992">
        <ele>967</ele>
        <time>2022-09-22T12:00:32Z</time>
      </trkpt>
      <trkpt lat="44.12479" lon="5.84993">
        <ele>967</ele>
        <time>2022-09-22T12:00:33Z</time>
      </trkpt>
      <trkpt lat="44.12479" lon="5.84994">
        <ele>967</ele>
        <time>2022-09-22T12:00:34Z</time>
      </trkpt>
      <trkpt lat="44.12479" lon="5.84995">
        <ele>967</ele>
        <time>2022-09-22T12:00:35Z</time>
      </trkpt>
      <trkpt lat="44.12479" lon="5.84995">
        <ele>967</ele>
        <time>2022-09-22T12:00:36Z</time>
      </trkpt>
      <trkpt lat="44.12479" lon="5.84996">
        <ele>967</ele>
        <time>2022-09-22T12:00:37Z</time>
      </trkpt>
      <trkpt lat="44.12479" lon="5.84997">
        <ele>967</ele>
        <time>2022-09-22T12:00:38Z</time>
      </trkpt>
      <trkpt lat="44.1248" lon="5.84998">
        <ele>967</ele>
        <time>2022-09-22T12:00:39Z</time>
      </trkpt>
      <trkpt lat="44.1248" lon="5.84999">
        <ele>967</ele>
        <time>2022-09-22T12:00:40Z</time>
      </trkpt>
      <trkpt lat="44.1248" lon="5.85">
        <ele>967</ele>
        <time>2022-09-22T12:00:41Z</time>
      </trkpt>
      <trkpt lat="44.1248" lon="5.85001">
        <ele>967</ele>
        <time>2022-09-22T12:00:42Z</time>
      </trkpt>
      <trkpt lat="44.1248" lon="5.85003">
        <ele>967</ele>
        <time>2022-09-22T12:00:43Z</time>
      </trkpt>
      <trkpt lat="44.1248" lon="5.85004">
        <ele>967</ele>
        <time>2022-09-22T12:00:44Z</time>
      </trkpt>
      <trkpt lat="44.1248" lon="5.85005">
        <ele>967</ele>
        <time>2022-09-22T12:00:45Z</time>
      </trkpt>
      <trkpt lat="44.1248" lon="5.85006">
        <ele>967</ele>
        <time>2022-09-22T12:00:46Z</time>
      </trkpt>
      <trkpt lat="44.1248" lon="5.85007">
        <ele>967</ele>
        <time>2022-09-22T12:00:47Z</time>
      </trkpt>
      <trkpt lat="44.1248" lon="5.85008">
        <ele>967</ele>
        <time>2022-09-22T12:00:48Z</time>
      </trkpt>
      <trkpt lat="44.1248" lon="5.85009">
        <ele>967</ele>
        <time>2022-09-22T12:00:49Z</time>
      </trkpt>
      <trkpt lat="44.1248" lon="5.8501">
        <ele>967</ele>
        <time>2022-09-22T12:00:50Z</time>
      </trkpt>
      <trkpt lat="44.1248" lon="5.85011">
        <ele>967</ele>
        <time>2022-09-22T12:00:51Z</time>
      </trkpt>
      <trkpt lat="44.12481" lon="5.85012">
        <ele>967</ele>
        <time>2022-09-22T12:00:52Z</time>
      </trkpt>
      <trkpt lat="44.12481" lon="5.85013">
        <ele>967</ele>
        <time>2022-09-22T12:00:53Z</time>
      </trkpt>
      <trkpt lat="44.12482" lon="5.85014">
        <ele>967</ele>
        <time>2022-09-22T12:00:54Z</time>
      </trkpt>
      <trkpt lat="44.12482" lon="5.85016">
        <ele>967</ele>
        <time>2022-09-22T12:00:55Z</time>
      </trkpt>
      <trkpt lat="44.12483" lon="5.85017">
        <ele>967</ele>
        <time>2022-09-22T12:00:56Z</time>
      </trkpt>
      <trkpt lat="44.12483" lon="5.85018">
        <ele>967</ele>
        <time>2022-09-22T12:00:57Z</time>
      </trkpt>
      <trkpt lat="44.12484" lon="5.85019">
        <ele>967</ele>
        <time>2022-09-22T12:00:58Z</time>
      </trkpt>
      <trkpt lat="44.12484" lon="5.8502">
        <ele>967</ele>
        <time>2022-09-22T12:00:59Z</time>
      </trkpt>
      <trkpt lat="44.12484" lon="5.85022">
        <ele>967</ele>
        <time>2022-09-22T12:01:00Z</time>
      </trkpt>
      <trkpt lat="44.12484" lon="5.85023">
        <ele>967</ele>
        <time>2022-09-22T12:01:01Z</time>
      </trkpt>
      <trkpt lat="44.12485" lon="5.85024">
        <ele>967</ele>
        <time>2022-09-22T12:01:02Z</time>
      </trkpt>
      <trkpt lat="44.12484" lon="5.85027">
        <ele>967</ele>
        <time>2022-09-22T12:02:06Z</time>
      </trkpt>
      <trkpt lat="44.12483" lon="5.85028">
        <ele>967</ele>
        <time>2022-09-22T12:02:07Z</time>
      </trkpt>
      <trkpt lat="44.12483" lon="5.8503">
        <ele>967</ele>
        <time>2022-09-22T12:02:08Z</time>
      </trkpt>
      <trkpt lat="44.12483" lon="5.85031">
        <ele>967</ele>
        <time>2022-09-22T12:02:09Z</time>
      </trkpt>
      <trkpt lat="44.12483" lon="5.85032">
        <ele>967</ele>
        <time>2022-09-22T12:02:10Z</time>
      </trkpt>
      <trkpt lat="44.12483" lon="5.85032">
        <ele>967</ele>
        <time>2022-09-22T12:02:11Z</time>
      </trkpt>
      <trkpt lat="44.12483" lon="5.85033">
        <ele>967</ele>
        <time>2022-09-22T12:02:12Z</time>
      </trkpt>
      <trkpt lat="44.12483" lon="5.85033">
        <ele>967</ele>
        <time>2022-09-22T12:02:13Z</time>
      </trkpt>
      <trkpt lat="44.12483" lon="5.85033">
        <ele>967</ele>
        <time>2022-09-22T12:02:14Z</time>
      </trkpt>
      <trkpt lat="44.12483" lon="5.85034">
        <ele>967</ele>
        <time>2022-09-22T12:02:15Z</time>
      </trkpt>
      <trkpt lat="44.12483" lon="5.85035">
        <ele>967</ele>
        <time>2022-09-22T12:02:16Z</time>
      </trkpt>
      <trkpt lat="44.12483" lon="5.85036">
        <ele>967</ele>
        <time>2022-09-22T12:02:17Z</time>
      </trkpt>
      <trkpt lat="44.12484" lon="5.85037">
        <ele>967</ele>
        <time>2022-09-22T12:02:18Z</time>
      </trkpt>
      <trkpt lat="44.12484" lon="5.85038">
        <ele>967</ele>
        <time>2022-09-22T12:02:19Z</time>
      </trkpt>
      <trkpt lat="44.12485" lon="5.85039">
        <ele>967</ele>
        <time>2022-09-22T12:02:20Z</time>
      </trkpt>
      <trkpt lat="44.12485" lon="5.8504">
        <ele>967</ele>
        <time>2022-09-22T12:02:21Z</time>
      </trkpt>
      <trkpt lat="44.12486" lon="5.85041">
        <ele>967</ele>
        <time>2022-09-22T12:02:22Z</time>
      </trkpt>
      <trkpt lat="44.12486" lon="5.85042">
        <ele>967</ele>
        <time>2022-09-22T12:02:23Z</time>
      </trkpt>
      <trkpt lat="44.12486" lon="5.85043">
        <ele>967</ele>
        <time>2022-09-22T12:02:24Z</time>
      </trkpt>
      <trkpt lat="44.12487" lon="5.85045">
        <ele>967</ele>
        <time>2022-09-22T12:02:25Z</time>
      </trkpt>
      <trkpt lat="44.12487" lon="5.85046">
        <ele>967</ele>
        <time>2022-09-22T12:02:26Z</time>
      </trkpt>
      <trkpt lat="44.12487" lon="5.85048">
        <ele>967</ele>
        <time>2022-09-22T12:02:27Z</time>
      </trkpt>
      <trkpt lat="44.12487" lon="5.8505">
        <ele>967</ele>
        <time>2022-09-22T12:02:28Z</time>
      </trkpt>
      <trkpt lat="44.12487" lon="5.85052">
        <ele>967</ele>
        <time>2022-09-22T12:02:29Z</time>
      </trkpt>
      <trkpt lat="44.12487" lon="5.85053">
        <ele>967</ele>
        <time>2022-09-22T12:02:30Z</time>
      </trkpt>
      <trkpt lat="44.12487" lon="5.85055">
        <ele>967</ele>
        <time>2022-09-22T12:02:31Z</time>
      </trkpt>
      <trkpt lat="44.12488" lon="5.85056">
        <ele>967</ele>
        <time>2022-09-22T12:02:32Z</time>
      </trkpt>
      <trkpt lat="44.12488" lon="5.85058">
        <ele>967</ele>
        <time>2022-09-22T12:02:33Z</time>
      </trkpt>
      <trkpt lat="44.12488" lon="5.85059">
        <ele>967</ele>
        <time>2022-09-22T12:02:34Z</time>
      </trkpt>
      <trkpt lat="44.12489" lon="5.85061">
        <ele>967</ele>
        <time>2022-09-22T12:02:35Z</time>
      </trkpt>
      <trkpt lat="44.1249" lon="5.85062">
        <ele>967</ele>
        <time>2022-09-22T12:02:36Z</time>
      </trkpt>
      <trkpt lat="44.1249" lon="5.85063">
        <ele>967</ele>
        <time>2022-09-22T12:02:37Z</time>
      </trkpt>
      <trkpt lat="44.1249" lon="5.85065">
        <ele>967</ele>
        <time>2022-09-22T12:02:38Z</time>
      </trkpt>
      <trkpt lat="44.12491" lon="5.85066">
        <ele>967</ele>
        <time>2022-09-22T12:02:39Z</time>
      </trkpt>
      <trkpt lat="44.12491" lon="5.85068">
        <ele>967</ele>
        <time>2022-09-22T12:02:40Z</time>
      </trkpt>
      <trkpt lat="44.12491" lon="5.85069">
        <ele>967</ele>
        <time>2022-09-22T12:02:41Z</time>
      </trkpt>
      <trkpt lat="44.12491" lon="5.85071">
        <ele>967</ele>
        <time>2022-09-22T12:02:42Z</time>
      </trkpt>
      <trkpt lat="44.12491" lon="5.85072">
        <ele>967</ele>
        <time>2022-09-22T12:02:43Z</time>
      </trkpt>
      <trkpt lat="44.12491" lon="5.85074">
        <ele>967</ele>
        <time>2022-09-22T12:02:44Z</time>
      </trkpt>
      <trkpt lat="44.12491" lon="5.85075">
        <ele>967</ele>
        <time>2022-09-22T12:02:45Z</time>
      </trkpt>
      <trkpt lat="44.12491" lon="5.85076">
        <ele>967</ele>
        <time>2022-09-22T12:02:46Z</time>
      </trkpt>
      <trkpt lat="44.12492" lon="5.85077">
        <ele>967</ele>
        <time>2022-09-22T12:02:47Z</time>
      </trkpt>
      <trkpt lat="44.12492" lon="5.85079">
        <ele>967</ele>
        <time>2022-09-22T12:02:48Z</time>
      </trkpt>
      <trkpt lat="44.12492" lon="5.8508">
        <ele>967</ele>
        <time>2022-09-22T12:02:49Z</time>
      </trkpt>
      <trkpt lat="44.12492" lon="5.85081">
        <ele>966</ele>
        <time>2022-09-22T12:02:50Z</time>
      </trkpt>
      <trkpt lat="44.12491" lon="5.85083">
        <ele>966</ele>
        <time>2022-09-22T12:02:51Z</time>
      </trkpt>
      <trkpt lat="44.12491" lon="5.85084">
        <ele>966</ele>
        <time>2022-09-22T12:02:52Z</time>
      </trkpt>
      <trkpt lat="44.1249" lon="5.85085">
        <ele>966</ele>
        <time>2022-09-22T12:02:53Z</time>
      </trkpt>
      <trkpt lat="44.12489" lon="5.85087">
        <ele>966</ele>
        <time>2022-09-22T12:02:54Z</time>
      </trkpt>
      <trkpt lat="44.12489" lon="5.85088">
        <ele>966</ele>
        <time>2022-09-22T12:02:55Z</time>
      </trkpt>
      <trkpt lat="44.12489" lon="5.85089">
        <ele>966</ele>
        <time>2022-09-22T12:02:56Z</time>
      </trkpt>
      <trkpt lat="44.12488" lon="5.85091">
        <ele>966</ele>
        <time>2022-09-22T12:02:57Z</time>
      </trkpt>
      <trkpt lat="44.12489" lon="5.85092">
        <ele>966</ele>
        <time>2022-09-22T12:02:58Z</time>
      </trkpt>
      <trkpt lat="44.12489" lon="5.85094">
        <ele>967</ele>
        <time>2022-09-22T12:02:59Z</time>
      </trkpt>
      <trkpt lat="44.12489" lon="5.85095">
        <ele>967</ele>
        <time>2022-09-22T12:03:00Z</time>
      </trkpt>
      <trkpt lat="44.1249" lon="5.85096">
        <ele>967</ele>
        <time>2022-09-22T12:03:01Z</time>
      </trkpt>
      <trkpt lat="44.1249" lon="5.85098">
        <ele>967</ele>
        <time>2022-09-22T12:03:02Z</time>
      </trkpt>
      <trkpt lat="44.1249" lon="5.85099">
        <ele>967</ele>
        <time>2022-09-22T12:03:03Z</time>
      </trkpt>
      <trkpt lat="44.1249" lon="5.851">
        <ele>967</ele>
        <time>2022-09-22T12:03:04Z</time>
      </trkpt>
      <trkpt lat="44.1249" lon="5.85102">
        <ele>967</ele>
        <time>2022-09-22T12:03:05Z</time>
      </trkpt>
      <trkpt lat="44.12491" lon="5.85103">
        <ele>967</ele>
        <time>2022-09-22T12:03:06Z</time>
      </trkpt>
      <trkpt lat="44.12491" lon="5.85105">
        <ele>967</ele>
        <time>2022-09-22T12:03:07Z</time>
      </trkpt>
      <trkpt lat="44.12492" lon="5.85106">
        <ele>967</ele>
        <time>2022-09-22T12:03:08Z</time>
      </trkpt>
      <trkpt lat="44.12492" lon="5.85108">
        <ele>967</ele>
        <time>2022-09-22T12:03:09Z</time>
      </trkpt>
      <trkpt lat="44.12493" lon="5.8511">
        <ele>967</ele>
        <time>2022-09-22T12:03:10Z</time>
      </trkpt>
      <trkpt lat="44.12494" lon="5.85111">
        <ele>967</ele>
        <time>2022-09-22T12:03:11Z</time>
      </trkpt>
      <trkpt lat="44.12495" lon="5.85113">
        <ele>967</ele>
        <time>2022-09-22T12:03:12Z</time>
      </trkpt>
      <trkpt lat="44.12496" lon="5.85114">
        <ele>967</ele>
        <time>2022-09-22T12:03:13Z</time>
      </trkpt>
      <trkpt lat="44.12497" lon="5.85115">
        <ele>968</ele>
        <time>2022-09-22T12:03:14Z</time>
      </trkpt>
      <trkpt lat="44.12498" lon="5.85117">
        <ele>968</ele>
        <time>2022-09-22T12:03:15Z</time>
      </trkpt>
      <trkpt lat="44.12499" lon="5.85118">
        <ele>968</ele>
        <time>2022-09-22T12:03:16Z</time>
      </trkpt>
      <trkpt lat="44.12499" lon="5.85119">
        <ele>968</ele>
        <time>2022-09-22T12:03:17Z</time>
      </trkpt>
      <trkpt lat="44.125" lon="5.8512">
        <ele>968</ele>
        <time>2022-09-22T12:03:18Z</time>
      </trkpt>
      <trkpt lat="44.125" lon="5.85121">
        <ele>968</ele>
        <time>2022-09-22T12:03:19Z</time>
      </trkpt>
      <trkpt lat="44.12501" lon="5.85122">
        <ele>968</ele>
        <time>2022-09-22T12:03:20Z</time>
      </trkpt>
      <trkpt lat="44.12501" lon="5.85123">
        <ele>968</ele>
        <time>2022-09-22T12:03:21Z</time>
      </trkpt>
      <trkpt lat="44.12502" lon="5.85124">
        <ele>968</ele>
        <time>2022-09-22T12:03:22Z</time>
      </trkpt>
      <trkpt lat="44.12503" lon="5.85125">
        <ele>968</ele>
        <time>2022-09-22T12:03:23Z</time>
      </trkpt>
      <trkpt lat="44.12504" lon="5.85126">
        <ele>968</ele>
        <time>2022-09-22T12:03:24Z</time>
      </trkpt>
      <trkpt lat="44.12505" lon="5.85128">
        <ele>968</ele>
        <time>2022-09-22T12:03:25Z</time>
      </trkpt>
      <trkpt lat="44.12506" lon="5.85129">
        <ele>968</ele>
        <time>2022-09-22T12:03:26Z</time>
      </trkpt>
      <trkpt lat="44.12507" lon="5.85131">
        <ele>968</ele>
        <time>2022-09-22T12:03:27Z</time>
      </trkpt>
      <trkpt lat="44.12508" lon="5.85132">
        <ele>968</ele>
        <time>2022-09-22T12:03:28Z</time>
      </trkpt>
      <trkpt lat="44.12509" lon="5.85134">
        <ele>969</ele>
        <time>2022-09-22T12:03:29Z</time>
      </trkpt>
      <trkpt lat="44.1251" lon="5.85135">
        <ele>969</ele>
        <time>2022-09-22T12:03:30Z</time>
      </trkpt>
      <trkpt lat="44.1251" lon="5.85137">
        <ele>969</ele>
        <time>2022-09-22T12:03:31Z</time>
      </trkpt>
      <trkpt lat="44.12511" lon="5.85138">
        <ele>969</ele>
        <time>2022-09-22T12:03:32Z</time>
      </trkpt>
      <trkpt lat="44.12511" lon="5.85139">
        <ele>969</ele>
        <time>2022-09-22T12:03:33Z</time>
      </trkpt>
      <trkpt lat="44.12512" lon="5.8514">
        <ele>969</ele>
        <time>2022-09-22T12:03:34Z</time>
      </trkpt>
      <trkpt lat="44.12512" lon="5.85141">
        <ele>969</ele>
        <time>2022-09-22T12:03:35Z</time>
      </trkpt>
      <trkpt lat="44.12512" lon="5.85142">
        <ele>969</ele>
        <time>2022-09-22T12:03:36Z</time>
      </trkpt>
      <trkpt lat="44.12512" lon="5.85143">
        <ele>969</ele>
        <time>2022-09-22T12:03:37Z</time>
      </trkpt>
      <trkpt lat="44.12512" lon="5.85144">
        <ele>969</ele>
        <time>2022-09-22T12:03:38Z</time>
      </trkpt>
      <trkpt lat="44.12512" lon="5.85145">
        <ele>970</ele>
        <time>2022-09-22T12:03:39Z</time>
      </trkpt>
      <trkpt lat="44.12512" lon="5.85146">
        <ele>970</ele>
        <time>2022-09-22T12:03:40Z</time>
      </trkpt>
      <trkpt lat="44.12512" lon="5.85148">
        <ele>970</ele>
        <time>2022-09-22T12:03:41Z</time>
      </trkpt>
      <trkpt lat="44.12512" lon="5.85149">
        <ele>970</ele>
        <time>2022-09-22T12:03:42Z</time>
      </trkpt>
      <trkpt lat="44.12513" lon="5.8515">
        <ele>970</ele>
        <time>2022-09-22T12:03:43Z</time>
      </trkpt>
      <trkpt lat="44.12513" lon="5.85151">
        <ele>970</ele>
        <time>2022-09-22T12:03:44Z</time>
      </trkpt>
      <trkpt lat="44.12514" lon="5.85153">
        <ele>970</ele>
        <time>2022-09-22T12:03:45Z</time>
      </trkpt>
      <trkpt lat="44.12514" lon="5.85154">
        <ele>970</ele>
        <time>2022-09-22T12:03:46Z</time>
      </trkpt>
      <trkpt lat="44.12515" lon="5.85156">
        <ele>970</ele>
        <time>2022-09-22T12:03:47Z</time>
      </trkpt>
      <trkpt lat="44.12515" lon="5.85157">
        <ele>970</ele>
        <time>2022-09-22T12:03:48Z</time>
      </trkpt>
      <trkpt lat="44.12515" lon="5.85159">
        <ele>971</ele>
        <time>2022-09-22T12:03:49Z</time>
      </trkpt>
      <trkpt lat="44.12515" lon="5.8516">
        <ele>971</ele>
        <time>2022-09-22T12:03:50Z</time>
      </trkpt>
      <trkpt lat="44.12515" lon="5.85162">
        <ele>971</ele>
        <time>2022-09-22T12:03:51Z</time>
      </trkpt>
      <trkpt lat="44.12515" lon="5.85163">
        <ele>971</ele>
        <time>2022-09-22T12:03:52Z</time>
      </trkpt>
      <trkpt lat="44.12516" lon="5.85165">
        <ele>971</ele>
        <time>2022-09-22T12:03:53Z</time>
      </trkpt>
      <trkpt lat="44.12516" lon="5.85166">
        <ele>971</ele>
        <time>2022-09-22T12:03:54Z</time>
      </trkpt>
      <trkpt lat="44.12517" lon="5.85168">
        <ele>971</ele>
        <time>2022-09-22T12:03:55Z</time>
      </trkpt>
      <trkpt lat="44.12518" lon="5.85169">
        <ele>971</ele>
        <time>2022-09-22T12:03:56Z</time>
      </trkpt>
      <trkpt lat="44.12519" lon="5.85171">
        <ele>971</ele>
        <time>2022-09-22T12:03:57Z</time>
      </trkpt>
      <trkpt lat="44.1252" lon="5.85172">
        <ele>971</ele>
        <time>2022-09-22T12:03:58Z</time>
      </trkpt>
      <trkpt lat="44.1252" lon="5.85174">
        <ele>971</ele>
        <time>2022-09-22T12:03:59Z</time>
      </trkpt>
      <trkpt lat="44.1252" lon="5.85175">
        <ele>971</ele>
        <time>2022-09-22T12:04:00Z</time>
      </trkpt>
      <trkpt lat="44.12521" lon="5.85177">
        <ele>971</ele>
        <time>2022-09-22T12:04:01Z</time>
      </trkpt>
      <trkpt lat="44.12521" lon="5.85178">
        <ele>971</ele>
        <time>2022-09-22T12:04:02Z</time>
      </trkpt>
      <trkpt lat="44.12522" lon="5.8518">
        <ele>971</ele>
        <time>2022-09-22T12:04:03Z</time>
      </trkpt>
      <trkpt lat="44.12522" lon="5.85182">
        <ele>971</ele>
        <time>2022-09-22T12:04:04Z</time>
      </trkpt>
      <trkpt lat="44.12523" lon="5.85183">
        <ele>971</ele>
        <time>2022-09-22T12:04:05Z</time>
      </trkpt>
      <trkpt lat="44.12523" lon="5.85185">
        <ele>971</ele>
        <time>2022-09-22T12:04:06Z</time>
      </trkpt>
      <trkpt lat="44.12523" lon="5.85187">
        <ele>971</ele>
        <time>2022-09-22T12:04:07Z</time>
      </trkpt>
      <trkpt lat="44.12523" lon="5.85188">
        <ele>971</ele>
        <time>2022-09-22T12:04:08Z</time>
      </trkpt>
      <trkpt lat="44.12523" lon="5.8519">
        <ele>971</ele>
        <time>2022-09-22T12:04:09Z</time>
      </trkpt>
      <trkpt lat="44.12523" lon="5.85191">
        <ele>971</ele>
        <time>2022-09-22T12:04:10Z</time>
      </trkpt>
      <trkpt lat="44.12523" lon="5.85193">
        <ele>971</ele>
        <time>2022-09-22T12:04:11Z</time>
      </trkpt>
      <trkpt lat="44.12523" lon="5.85195">
        <ele>972</ele>
        <time>2022-09-22T12:04:12Z</time>
      </trkpt>
      <trkpt lat="44.12523" lon="5.85196">
        <ele>972</ele>
        <time>2022-09-22T12:04:13Z</time>
      </trkpt>
      <trkpt lat="44.12523" lon="5.85198">
        <ele>973</ele>
        <time>2022-09-22T12:04:14Z</time>
      </trkpt>
      <trkpt lat="44.12523" lon="5.852">
        <ele>973</ele>
        <time>2022-09-22T12:04:15Z</time>
      </trkpt>
      <trkpt lat="44.12523" lon="5.85201">
        <ele>973</ele>
        <time>2022-09-22T12:04:16Z</time>
      </trkpt>
      <trkpt lat="44.12523" lon="5.85203">
        <ele>973</ele>
        <time>2022-09-22T12:04:17Z</time>
      </trkpt>
      <trkpt lat="44.12523" lon="5.85205">
        <ele>973</ele>
        <time>2022-09-22T12:04:18Z</time>
      </trkpt>
      <trkpt lat="44.12522" lon="5.85206">
        <ele>973</ele>
        <time>2022-09-22T12:04:19Z</time>
      </trkpt>
      <trkpt lat="44.12522" lon="5.85208">
        <ele>973</ele>
        <time>2022-09-22T12:04:20Z</time>
      </trkpt>
      <trkpt lat="44.12523" lon="5.8521">
        <ele>973</ele>
        <time>2022-09-22T12:04:21Z</time>
      </trkpt>
      <trkpt lat="44.12523" lon="5.85211">
        <ele>973</ele>
        <time>2022-09-22T12:04:22Z</time>
      </trkpt>
      <trkpt lat="44.12523" lon="5.85213">
        <ele>973</ele>
        <time>2022-09-22T12:04:23Z</time>
      </trkpt>
      <trkpt lat="44.12523" lon="5.85214">
        <ele>973</ele>
        <time>2022-09-22T12:04:24Z</time>
      </trkpt>
      <trkpt lat="44.12524" lon="5.85215">
        <ele>973</ele>
        <time>2022-09-22T12:04:25Z</time>
      </trkpt>
      <trkpt lat="44.12524" lon="5.85217">
        <ele>973</ele>
        <time>2022-09-22T12:04:26Z</time>
      </trkpt>
      <trkpt lat="44.12525" lon="5.85218">
        <ele>973</ele>
        <time>2022-09-22T12:04:27Z</time>
      </trkpt>
      <trkpt lat="44.12525" lon="5.85219">
        <ele>973</ele>
        <time>2022-09-22T12:04:28Z</time>
      </trkpt>
      <trkpt lat="44.12526" lon="5.8522">
        <ele>973</ele>
        <time>2022-09-22T12:04:29Z</time>
      </trkpt>
      <trkpt lat="44.12526" lon="5.85221">
        <ele>973</ele>
        <time>2022-09-22T12:04:30Z</time>
      </trkpt>
      <trkpt lat="44.12527" lon="5.85222">
        <ele>973</ele>
        <time>2022-09-22T12:04:31Z</time>
      </trkpt>
      <trkpt lat="44.12528" lon="5.85223">
        <ele>973</ele>
        <time>2022-09-22T12:04:32Z</time>
      </trkpt>
      <trkpt lat="44.12529" lon="5.85224">
        <ele>973</ele>
        <time>2022-09-22T12:04:33Z</time>
      </trkpt>
      <trkpt lat="44.12529" lon="5.85225">
        <ele>973</ele>
        <time>2022-09-22T12:04:34Z</time>
      </trkpt>
      <trkpt lat="44.1253" lon="5.85226">
        <ele>973</ele>
        <time>2022-09-22T12:04:35Z</time>
      </trkpt>
      <trkpt lat="44.12531" lon="5.85227">
        <ele>973</ele>
        <time>2022-09-22T12:04:36Z</time>
      </trkpt>
      <trkpt lat="44.12532" lon="5.85228">
        <ele>973</ele>
        <time>2022-09-22T12:04:37Z</time>
      </trkpt>
      <trkpt lat="44.12533" lon="5.85229">
        <ele>973</ele>
        <time>2022-09-22T12:04:38Z</time>
      </trkpt>
      <trkpt lat="44.12534" lon="5.8523">
        <ele>973</ele>
        <time>2022-09-22T12:04:39Z</time>
      </trkpt>
      <trkpt lat="44.12535" lon="5.85231">
        <ele>973</ele>
        <time>2022-09-22T12:04:40Z</time>
      </trkpt>
      <trkpt lat="44.12536" lon="5.85233">
        <ele>973</ele>
        <time>2022-09-22T12:04:41Z</time>
      </trkpt>
      <trkpt lat="44.12536" lon="5.85234">
        <ele>973</ele>
        <time>2022-09-22T12:04:42Z</time>
      </trkpt>
      <trkpt lat="44.12537" lon="5.85235">
        <ele>973</ele>
        <time>2022-09-22T12:04:43Z</time>
      </trkpt>
      <trkpt lat="44.12537" lon="5.85236">
        <ele>973</ele>
        <time>2022-09-22T12:04:44Z</time>
      </trkpt>
      <trkpt lat="44.12538" lon="5.85238">
        <ele>973</ele>
        <time>2022-09-22T12:04:45Z</time>
      </trkpt>
      <trkpt lat="44.12538" lon="5.85239">
        <ele>973</ele>
        <time>2022-09-22T12:04:46Z</time>
      </trkpt>
      <trkpt lat="44.12538" lon="5.8524">
        <ele>973</ele>
        <time>2022-09-22T12:04:47Z</time>
      </trkpt>
      <trkpt lat="44.12539" lon="5.85241">
        <ele>973</ele>
        <time>2022-09-22T12:04:48Z</time>
      </trkpt>
      <trkpt lat="44.12539" lon="5.85243">
        <ele>974</ele>
        <time>2022-09-22T12:04:49Z</time>
      </trkpt>
      <trkpt lat="44.12539" lon="5.85244">
        <ele>974</ele>
        <time>2022-09-22T12:04:50Z</time>
      </trkpt>
      <trkpt lat="44.1254" lon="5.85244">
        <ele>974</ele>
        <time>2022-09-22T12:04:51Z</time>
      </trkpt>
      <trkpt lat="44.12541" lon="5.85245">
        <ele>974</ele>
        <time>2022-09-22T12:04:52Z</time>
      </trkpt>
      <trkpt lat="44.12542" lon="5.85246">
        <ele>974</ele>
        <time>2022-09-22T12:04:53Z</time>
      </trkpt>
      <trkpt lat="44.12543" lon="5.85247">
        <ele>974</ele>
        <time>2022-09-22T12:04:54Z</time>
      </trkpt>
      <trkpt lat="44.12544" lon="5.85248">
        <ele>974</ele>
        <time>2022-09-22T12:04:55Z</time>
      </trkpt>
      <trkpt lat="44.12545" lon="5.85249">
        <ele>974</ele>
        <time>2022-09-22T12:04:56Z</time>
      </trkpt>
      <trkpt lat="44.12546" lon="5.8525">
        <ele>974</ele>
        <time>2022-09-22T12:04:57Z</time>
      </trkpt>
      <trkpt lat="44.12548" lon="5.85251">
        <ele>974</ele>
        <time>2022-09-22T12:04:58Z</time>
      </trkpt>
      <trkpt lat="44.12548" lon="5.85252">
        <ele>974</ele>
        <time>2022-09-22T12:04:59Z</time>
      </trkpt>
      <trkpt lat="44.12549" lon="5.85253">
        <ele>974</ele>
        <time>2022-09-22T12:05:00Z</time>
      </trkpt>
      <trkpt lat="44.1255" lon="5.85254">
        <ele>974</ele>
        <time>2022-09-22T12:05:01Z</time>
      </trkpt>
      <trkpt lat="44.1255" lon="5.85256">
        <ele>974</ele>
        <time>2022-09-22T12:05:02Z</time>
      </trkpt>
      <trkpt lat="44.12551" lon="5.85256">
        <ele>974</ele>
        <time>2022-09-22T12:05:03Z</time>
      </trkpt>
      <trkpt lat="44.12551" lon="5.85257">
        <ele>975</ele>
        <time>2022-09-22T12:05:04Z</time>
      </trkpt>
      <trkpt lat="44.12551" lon="5.85257">
        <ele>975</ele>
        <time>2022-09-22T12:05:05Z</time>
      </trkpt>
      <trkpt lat="44.12551" lon="5.85258">
        <ele>975</ele>
        <time>2022-09-22T12:05:06Z</time>
      </trkpt>
      <trkpt lat="44.12551" lon="5.85258">
        <ele>975</ele>
        <time>2022-09-22T12:05:07Z</time>
      </trkpt>
      <trkpt lat="44.12552" lon="5.85259">
        <ele>975</ele>
        <time>2022-09-22T12:05:08Z</time>
      </trkpt>
      <trkpt lat="44.12551" lon="5.8526">
        <ele>975</ele>
        <time>2022-09-22T12:05:09Z</time>
      </trkpt>
      <trkpt lat="44.12551" lon="5.85261">
        <ele>975</ele>
        <time>2022-09-22T12:05:10Z</time>
      </trkpt>
      <trkpt lat="44.12551" lon="5.85262">
        <ele>975</ele>
        <time>2022-09-22T12:05:11Z</time>
      </trkpt>
      <trkpt lat="44.12551" lon="5.85263">
        <ele>975</ele>
        <time>2022-09-22T12:05:12Z</time>
      </trkpt>
      <trkpt lat="44.12551" lon="5.85264">
        <ele>975</ele>
        <time>2022-09-22T12:05:13Z</time>
      </trkpt>
      <trkpt lat="44.12551" lon="5.85265">
        <ele>975</ele>
        <time>2022-09-22T12:05:14Z</time>
      </trkpt>
      <trkpt lat="44.12552" lon="5.85265">
        <ele>975</ele>
        <time>2022-09-22T12:05:15Z</time>
      </trkpt>
      <trkpt lat="44.12553" lon="5.85265">
        <ele>975</ele>
        <time>2022-09-22T12:05:16Z</time>
      </trkpt>
      <trkpt lat="44.12554" lon="5.85265">
        <ele>975</ele>
        <time>2022-09-22T12:05:17Z</time>
      </trkpt>
      <trkpt lat="44.12556" lon="5.85265">
        <ele>975</ele>
        <time>2022-09-22T12:05:18Z</time>
      </trkpt>
      <trkpt lat="44.12557" lon="5.85265">
        <ele>976</ele>
        <time>2022-09-22T12:05:19Z</time>
      </trkpt>
      <trkpt lat="44.12559" lon="5.85266">
        <ele>976</ele>
        <time>2022-09-22T12:05:20Z</time>
      </trkpt>
      <trkpt lat="44.12561" lon="5.85266">
        <ele>976</ele>
        <time>2022-09-22T12:05:21Z</time>
      </trkpt>
      <trkpt lat="44.12562" lon="5.85267">
        <ele>976</ele>
        <time>2022-09-22T12:05:22Z</time>
      </trkpt>
      <trkpt lat="44.12563" lon="5.85268">
        <ele>976</ele>
        <time>2022-09-22T12:05:23Z</time>
      </trkpt>
      <trkpt lat="44.12563" lon="5.85269">
        <ele>976</ele>
        <time>2022-09-22T12:05:24Z</time>
      </trkpt>
      <trkpt lat="44.12564" lon="5.8527">
        <ele>976</ele>
        <time>2022-09-22T12:05:25Z</time>
      </trkpt>
      <trkpt lat="44.12564" lon="5.85271">
        <ele>976</ele>
        <time>2022-09-22T12:05:26Z</time>
      </trkpt>
      <trkpt lat="44.12565" lon="5.85271">
        <ele>976</ele>
        <time>2022-09-22T12:05:27Z</time>
      </trkpt>
      <trkpt lat="44.12565" lon="5.85272">
        <ele>976</ele>
        <time>2022-09-22T12:05:28Z</time>
      </trkpt>
      <trkpt lat="44.12566" lon="5.85273">
        <ele>976</ele>
        <time>2022-09-22T12:05:29Z</time>
      </trkpt>
      <trkpt lat="44.12566" lon="5.85273">
        <ele>976</ele>
        <time>2022-09-22T12:05:30Z</time>
      </trkpt>
      <trkpt lat="44.12567" lon="5.85274">
        <ele>976</ele>
        <time>2022-09-22T12:05:31Z</time>
      </trkpt>
      <trkpt lat="44.12567" lon="5.85275">
        <ele>976</ele>
        <time>2022-09-22T12:05:32Z</time>
      </trkpt>
      <trkpt lat="44.12568" lon="5.85276">
        <ele>976</ele>
        <time>2022-09-22T12:05:33Z</time>
      </trkpt>
      <trkpt lat="44.12569" lon="5.85276">
        <ele>976</ele>
        <time>2022-09-22T12:05:34Z</time>
      </trkpt>
      <trkpt lat="44.1257" lon="5.85277">
        <ele>975</ele>
        <time>2022-09-22T12:05:35Z</time>
      </trkpt>
      <trkpt lat="44.12571" lon="5.85278">
        <ele>975</ele>
        <time>2022-09-22T12:05:36Z</time>
      </trkpt>
      <trkpt lat="44.12572" lon="5.85279">
        <ele>975</ele>
        <time>2022-09-22T12:05:37Z</time>
      </trkpt>
      <trkpt lat="44.12573" lon="5.8528">
        <ele>975</ele>
        <time>2022-09-22T12:05:38Z</time>
      </trkpt>
      <trkpt lat="44.12574" lon="5.85281">
        <ele>975</ele>
        <time>2022-09-22T12:05:39Z</time>
      </trkpt>
      <trkpt lat="44.12575" lon="5.85282">
        <ele>975</ele>
        <time>2022-09-22T12:05:40Z</time>
      </trkpt>
      <trkpt lat="44.12575" lon="5.85283">
        <ele>975</ele>
        <time>2022-09-22T12:05:41Z</time>
      </trkpt>
      <trkpt lat="44.12576" lon="5.85285">
        <ele>975</ele>
        <time>2022-09-22T12:05:42Z</time>
      </trkpt>
      <trkpt lat="44.12577" lon="5.85286">
        <ele>975</ele>
        <time>2022-09-22T12:05:43Z</time>
      </trkpt>
      <trkpt lat="44.12578" lon="5.85287">
        <ele>975</ele>
        <time>2022-09-22T12:05:44Z</time>
      </trkpt>
      <trkpt lat="44.12578" lon="5.85288">
        <ele>975</ele>
        <time>2022-09-22T12:05:45Z</time>
      </trkpt>
      <trkpt lat="44.12579" lon="5.85289">
        <ele>975</ele>
        <time>2022-09-22T12:05:46Z</time>
      </trkpt>
      <trkpt lat="44.12579" lon="5.8529">
        <ele>975</ele>
        <time>2022-09-22T12:05:47Z</time>
      </trkpt>
      <trkpt lat="44.1258" lon="5.85292">
        <ele>975</ele>
        <time>2022-09-22T12:05:48Z</time>
      </trkpt>
      <trkpt lat="44.1258" lon="5.85293">
        <ele>975</ele>
        <time>2022-09-22T12:05:49Z</time>
      </trkpt>
      <trkpt lat="44.1258" lon="5.85295">
        <ele>975</ele>
        <time>2022-09-22T12:05:50Z</time>
      </trkpt>
      <trkpt lat="44.12581" lon="5.85296">
        <ele>975</ele>
        <time>2022-09-22T12:05:51Z</time>
      </trkpt>
      <trkpt lat="44.12581" lon="5.85298">
        <ele>975</ele>
        <time>2022-09-22T12:05:52Z</time>
      </trkpt>
      <trkpt lat="44.12581" lon="5.85299">
        <ele>975</ele>
        <time>2022-09-22T12:05:53Z</time>
      </trkpt>
      <trkpt lat="44.12582" lon="5.85301">
        <ele>975</ele>
        <time>2022-09-22T12:05:54Z</time>
      </trkpt>
      <trkpt lat="44.12582" lon="5.85302">
        <ele>975</ele>
        <time>2022-09-22T12:05:55Z</time>
      </trkpt>
      <trkpt lat="44.12582" lon="5.85304">
        <ele>975</ele>
        <time>2022-09-22T12:05:56Z</time>
      </trkpt>
      <trkpt lat="44.12583" lon="5.85305">
        <ele>975</ele>
        <time>2022-09-22T12:05:57Z</time>
      </trkpt>
      <trkpt lat="44.12583" lon="5.85307">
        <ele>975</ele>
        <time>2022-09-22T12:05:58Z</time>
      </trkpt>
      <trkpt lat="44.12584" lon="5.85308">
        <ele>976</ele>
        <time>2022-09-22T12:05:59Z</time>
      </trkpt>
      <trkpt lat="44.12584" lon="5.8531">
        <ele>976</ele>
        <time>2022-09-22T12:06:00Z</time>
      </trkpt>
      <trkpt lat="44.12585" lon="5.85311">
        <ele>976</ele>
        <time>2022-09-22T12:06:01Z</time>
      </trkpt>
      <trkpt lat="44.12586" lon="5.85312">
        <ele>976</ele>
        <time>2022-09-22T12:06:02Z</time>
      </trkpt>
      <trkpt lat="44.12586" lon="5.85314">
        <ele>976</ele>
        <time>2022-09-22T12:06:03Z</time>
      </trkpt>
      <trkpt lat="44.12586" lon="5.85315">
        <ele>976</ele>
        <time>2022-09-22T12:06:04Z</time>
      </trkpt>
      <trkpt lat="44.12587" lon="5.85317">
        <ele>975</ele>
        <time>2022-09-22T12:06:05Z</time>
      </trkpt>
      <trkpt lat="44.12587" lon="5.85318">
        <ele>975</ele>
        <time>2022-09-22T12:06:06Z</time>
      </trkpt>
      <trkpt lat="44.12588" lon="5.85319">
        <ele>975</ele>
        <time>2022-09-22T12:06:07Z</time>
      </trkpt>
      <trkpt lat="44.12588" lon="5.85321">
        <ele>975</ele>
        <time>2022-09-22T12:06:08Z</time>
      </trkpt>
      <trkpt lat="44.12589" lon="5.85322">
        <ele>975</ele>
        <time>2022-09-22T12:06:09Z</time>
      </trkpt>
      <trkpt lat="44.1259" lon="5.85323">
        <ele>975</ele>
        <time>2022-09-22T12:06:10Z</time>
      </trkpt>
      <trkpt lat="44.12591" lon="5.85325">
        <ele>975</ele>
        <time>2022-09-22T12:06:11Z</time>
      </trkpt>
      <trkpt lat="44.12592" lon="5.85326">
        <ele>975</ele>
        <time>2022-09-22T12:06:12Z</time>
      </trkpt>
      <trkpt lat="44.12593" lon="5.85328">
        <ele>975</ele>
        <time>2022-09-22T12:06:13Z</time>
      </trkpt>
      <trkpt lat="44.12594" lon="5.85329">
        <ele>975</ele>
        <time>2022-09-22T12:06:14Z</time>
      </trkpt>
      <trkpt lat="44.12594" lon="5.85331">
        <ele>974</ele>
        <time>2022-09-22T12:06:15Z</time>
      </trkpt>
      <trkpt lat="44.12595" lon="5.85332">
        <ele>974</ele>
        <time>2022-09-22T12:06:16Z</time>
      </trkpt>
      <trkpt lat="44.12594" lon="5.85334">
        <ele>974</ele>
        <time>2022-09-22T12:06:17Z</time>
      </trkpt>
      <trkpt lat="44.12594" lon="5.85335">
        <ele>974</ele>
        <time>2022-09-22T12:06:18Z</time>
      </trkpt>
      <trkpt lat="44.12594" lon="5.85336">
        <ele>974</ele>
        <time>2022-09-22T12:06:19Z</time>
      </trkpt>
      <trkpt lat="44.12594" lon="5.85338">
        <ele>974</ele>
        <time>2022-09-22T12:06:20Z</time>
      </trkpt>
      <trkpt lat="44.12594" lon="5.85339">
        <ele>974</ele>
        <time>2022-09-22T12:06:21Z</time>
      </trkpt>
      <trkpt lat="44.12594" lon="5.8534">
        <ele>974</ele>
        <time>2022-09-22T12:06:22Z</time>
      </trkpt>
      <trkpt lat="44.12594" lon="5.85341">
        <ele>974</ele>
        <time>2022-09-22T12:06:23Z</time>
      </trkpt>
      <trkpt lat="44.12594" lon="5.85342">
        <ele>974</ele>
        <time>2022-09-22T12:06:24Z</time>
      </trkpt>
      <trkpt lat="44.12594" lon="5.85343">
        <ele>974</ele>
        <time>2022-09-22T12:06:25Z</time>
      </trkpt>
      <trkpt lat="44.12595" lon="5.85344">
        <ele>974</ele>
        <time>2022-09-22T12:06:26Z</time>
      </trkpt>
      <trkpt lat="44.12595" lon="5.85344">
        <ele>974</ele>
        <time>2022-09-22T12:06:27Z</time>
      </trkpt>
      <trkpt lat="44.12595" lon="5.85345">
        <ele>974</ele>
        <time>2022-09-22T12:06:28Z</time>
      </trkpt>
      <trkpt lat="44.12596" lon="5.85346">
        <ele>974</ele>
        <time>2022-09-22T12:06:29Z</time>
      </trkpt>
      <trkpt lat="44.12596" lon="5.85346">
        <ele>974</ele>
        <time>2022-09-22T12:06:30Z</time>
      </trkpt>
      <trkpt lat="44.12597" lon="5.85347">
        <ele>974</ele>
        <time>2022-09-22T12:06:31Z</time>
      </trkpt>
      <trkpt lat="44.12597" lon="5.85348">
        <ele>974</ele>
        <time>2022-09-22T12:06:32Z</time>
      </trkpt>
      <trkpt lat="44.12598" lon="5.85349">
        <ele>974</ele>
        <time>2022-09-22T12:06:33Z</time>
      </trkpt>
      <trkpt lat="44.12598" lon="5.8535">
        <ele>974</ele>
        <time>2022-09-22T12:06:34Z</time>
      </trkpt>
      <trkpt lat="44.12598" lon="5.85351">
        <ele>973</ele>
        <time>2022-09-22T12:06:35Z</time>
      </trkpt>
      <trkpt lat="44.12599" lon="5.85351">
        <ele>973</ele>
        <time>2022-09-22T12:06:36Z</time>
      </trkpt>
      <trkpt lat="44.12599" lon="5.85352">
        <ele>973</ele>
        <time>2022-09-22T12:06:37Z</time>
      </trkpt>
      <trkpt lat="44.12599" lon="5.85355">
        <ele>971</ele>
        <time>2022-09-22T12:06:52Z</time>
      </trkpt>
      <trkpt lat="44.12599" lon="5.85356">
        <ele>971</ele>
        <time>2022-09-22T12:06:53Z</time>
      </trkpt>
      <trkpt lat="44.12599" lon="5.85356">
        <ele>971</ele>
        <time>2022-09-22T12:06:54Z</time>
      </trkpt>
      <trkpt lat="44.12599" lon="5.85357">
        <ele>971</ele>
        <time>2022-09-22T12:06:55Z</time>
      </trkpt>
      <trkpt lat="44.126" lon="5.85358">
        <ele>971</ele>
        <time>2022-09-22T12:06:56Z</time>
      </trkpt>
      <trkpt lat="44.126" lon="5.85359">
        <ele>971</ele>
        <time>2022-09-22T12:06:57Z</time>
      </trkpt>
      <trkpt lat="44.126" lon="5.85359">
        <ele>971</ele>
        <time>2022-09-22T12:06:58Z</time>
      </trkpt>
      <trkpt lat="44.126" lon="5.8536">
        <ele>971</ele>
        <time>2022-09-22T12:06:59Z</time>
      </trkpt>
      <trkpt lat="44.126" lon="5.85362">
        <ele>971</ele>
        <time>2022-09-22T12:07:30Z</time>
      </trkpt>
      <trkpt lat="44.126" lon="5.85363">
        <ele>971</ele>
        <time>2022-09-22T12:07:31Z</time>
      </trkpt>
      <trkpt lat="44.126" lon="5.85363">
        <ele>971</ele>
        <time>2022-09-22T12:07:32Z</time>
      </trkpt>
      <trkpt lat="44.126" lon="5.85363">
        <ele>971</ele>
        <time>2022-09-22T12:09:45Z</time>
      </trkpt>
      <trkpt lat="44.12599" lon="5.85363">
        <ele>971</ele>
        <time>2022-09-22T12:09:46Z</time>
      </trkpt>
      <trkpt lat="44.12599" lon="5.85363">
        <ele>971</ele>
        <time>2022-09-22T12:09:47Z</time>
      </trkpt>
      <trkpt lat="44.12599" lon="5.85363">
        <ele>971</ele>
        <time>2022-09-22T12:09:48Z</time>
      </trkpt>
      <trkpt lat="44.126" lon="5.85363">
        <ele>971</ele>
        <time>2022-09-22T12:09:49Z</time>
      </trkpt>
      <trkpt lat="44.126" lon="5.85364">
        <ele>971</ele>
        <time>2022-09-22T12:09:50Z</time>
      </trkpt>
      <trkpt lat="44.12601" lon="5.85364">
        <ele>971</ele>
        <time>2022-09-22T12:09:51Z</time>
      </trkpt>
      <trkpt lat="44.12602" lon="5.85365">
        <ele>971</ele>
        <time>2022-09-22T12:09:52Z</time>
      </trkpt>
      <trkpt lat="44.12603" lon="5.85366">
        <ele>971</ele>
        <time>2022-09-22T12:09:53Z</time>
      </trkpt>
      <trkpt lat="44.12603" lon="5.85367">
        <ele>971</ele>
        <time>2022-09-22T12:09:54Z</time>
      </trkpt>
      <trkpt lat="44.12604" lon="5.85368">
        <ele>970</ele>
        <time>2022-09-22T12:09:55Z</time>
      </trkpt>
      <trkpt lat="44.12605" lon="5.85369">
        <ele>970</ele>
        <time>2022-09-22T12:09:56Z</time>
      </trkpt>
      <trkpt lat="44.12605" lon="5.8537">
        <ele>970</ele>
        <time>2022-09-22T12:09:57Z</time>
      </trkpt>
      <trkpt lat="44.12606" lon="5.85371">
        <ele>970</ele>
        <time>2022-09-22T12:09:58Z</time>
      </trkpt>
      <trkpt lat="44.12607" lon="5.85372">
        <ele>970</ele>
        <time>2022-09-22T12:09:59Z</time>
      </trkpt>
      <trkpt lat="44.12608" lon="5.85373">
        <ele>970</ele>
        <time>2022-09-22T12:10:00Z</time>
      </trkpt>
      <trkpt lat="44.12608" lon="5.85374">
        <ele>970</ele>
        <time>2022-09-22T12:10:01Z</time>
      </trkpt>
      <trkpt lat="44.12609" lon="5.85375">
        <ele>970</ele>
        <time>2022-09-22T12:10:02Z</time>
      </trkpt>
      <trkpt lat="44.1261" lon="5.85376">
        <ele>970</ele>
        <time>2022-09-22T12:10:03Z</time>
      </trkpt>
      <trkpt lat="44.1261" lon="5.85377">
        <ele>970</ele>
        <time>2022-09-22T12:10:04Z</time>
      </trkpt>
      <trkpt lat="44.12611" lon="5.85378">
        <ele>970</ele>
        <time>2022-09-22T12:10:05Z</time>
      </trkpt>
      <trkpt lat="44.12611" lon="5.8538">
        <ele>970</ele>
        <time>2022-09-22T12:10:06Z</time>
      </trkpt>
      <trkpt lat="44.12612" lon="5.85381">
        <ele>970</ele>
        <time>2022-09-22T12:10:07Z</time>
      </trkpt>
      <trkpt lat="44.12612" lon="5.85382">
        <ele>970</ele>
        <time>2022-09-22T12:10:08Z</time>
      </trkpt>
      <trkpt lat="44.12612" lon="5.85383">
        <ele>970</ele>
        <time>2022-09-22T12:10:09Z</time>
      </trkpt>
      <trkpt lat="44.12613" lon="5.85384">
        <ele>969</ele>
        <time>2022-09-22T12:10:10Z</time>
      </trkpt>
      <trkpt lat="44.12613" lon="5.85385">
        <ele>969</ele>
        <time>2022-09-22T12:10:11Z</time>
      </trkpt>
      <trkpt lat="44.12613" lon="5.85386">
        <ele>969</ele>
        <time>2022-09-22T12:10:12Z</time>
      </trkpt>
      <trkpt lat="44.12614" lon="5.85387">
        <ele>969</ele>
        <time>2022-09-22T12:10:13Z</time>
      </trkpt>
      <trkpt lat="44.12614" lon="5.85387">
        <ele>969</ele>
        <time>2022-09-22T12:10:14Z</time>
      </trkpt>
      <trkpt lat="44.12615" lon="5.85388">
        <ele>969</ele>
        <time>2022-09-22T12:10:15Z</time>
      </trkpt>
      <trkpt lat="44.12615" lon="5.85389">
        <ele>969</ele>
        <time>2022-09-22T12:10:16Z</time>
      </trkpt>
      <trkpt lat="44.12616" lon="5.8539">
        <ele>969</ele>
        <time>2022-09-22T12:10:17Z</time>
      </trkpt>
      <trkpt lat="44.12616" lon="5.85391">
        <ele>969</ele>
        <time>2022-09-22T12:10:18Z</time>
      </trkpt>
      <trkpt lat="44.12617" lon="5.85393">
        <ele>969</ele>
        <time>2022-09-22T12:10:19Z</time>
      </trkpt>
      <trkpt lat="44.12618" lon="5.85394">
        <ele>969</ele>
        <time>2022-09-22T12:10:20Z</time>
      </trkpt>
      <trkpt lat="44.12618" lon="5.85395">
        <ele>969</ele>
        <time>2022-09-22T12:10:21Z</time>
      </trkpt>
      <trkpt lat="44.12619" lon="5.85396">
        <ele>969</ele>
        <time>2022-09-22T12:10:22Z</time>
      </trkpt>
      <trkpt lat="44.12619" lon="5.85397">
        <ele>969</ele>
        <time>2022-09-22T12:10:23Z</time>
      </trkpt>
      <trkpt lat="44.1262" lon="5.85398">
        <ele>969</ele>
        <time>2022-09-22T12:10:24Z</time>
      </trkpt>
      <trkpt lat="44.12621" lon="5.854">
        <ele>968</ele>
        <time>2022-09-22T12:10:25Z</time>
      </trkpt>
      <trkpt lat="44.12621" lon="5.85401">
        <ele>968</ele>
        <time>2022-09-22T12:10:26Z</time>
      </trkpt>
      <trkpt lat="44.12622" lon="5.85402">
        <ele>968</ele>
        <time>2022-09-22T12:10:27Z</time>
      </trkpt>
      <trkpt lat="44.12623" lon="5.85404">
        <ele>968</ele>
        <time>2022-09-22T12:10:28Z</time>
      </trkpt>
      <trkpt lat="44.12623" lon="5.85405">
        <ele>968</ele>
        <time>2022-09-22T12:10:29Z</time>
      </trkpt>
      <trkpt lat="44.12624" lon="5.85406">
        <ele>968</ele>
        <time>2022-09-22T12:10:30Z</time>
      </trkpt>
      <trkpt lat="44.12624" lon="5.85408">
        <ele>968</ele>
        <time>2022-09-22T12:10:31Z</time>
      </trkpt>
      <trkpt lat="44.12625" lon="5.85409">
        <ele>968</ele>
        <time>2022-09-22T12:10:32Z</time>
      </trkpt>
      <trkpt lat="44.12625" lon="5.85411">
        <ele>968</ele>
        <time>2022-09-22T12:10:33Z</time>
      </trkpt>
      <trkpt lat="44.12626" lon="5.85412">
        <ele>968</ele>
        <time>2022-09-22T12:10:34Z</time>
      </trkpt>
      <trkpt lat="44.12627" lon="5.85414">
        <ele>968</ele>
        <time>2022-09-22T12:10:35Z</time>
      </trkpt>
      <trkpt lat="44.12627" lon="5.85415">
        <ele>968</ele>
        <time>2022-09-22T12:10:36Z</time>
      </trkpt>
      <trkpt lat="44.12628" lon="5.85416">
        <ele>968</ele>
        <time>2022-09-22T12:10:37Z</time>
      </trkpt>
      <trkpt lat="44.12629" lon="5.85418">
        <ele>968</ele>
        <time>2022-09-22T12:10:38Z</time>
      </trkpt>
      <trkpt lat="44.12629" lon="5.85419">
        <ele>968</ele>
        <time>2022-09-22T12:10:39Z</time>
      </trkpt>
      <trkpt lat="44.1263" lon="5.8542">
        <ele>967</ele>
        <time>2022-09-22T12:10:40Z</time>
      </trkpt>
      <trkpt lat="44.12631" lon="5.85421">
        <ele>967</ele>
        <time>2022-09-22T12:10:41Z</time>
      </trkpt>
      <trkpt lat="44.12632" lon="5.85423">
        <ele>967</ele>
        <time>2022-09-22T12:10:42Z</time>
      </trkpt>
      <trkpt lat="44.12633" lon="5.85424">
        <ele>967</ele>
        <time>2022-09-22T12:10:43Z</time>
      </trkpt>
      <trkpt lat="44.12634" lon="5.85425">
        <ele>967</ele>
        <time>2022-09-22T12:10:44Z</time>
      </trkpt>
      <trkpt lat="44.12635" lon="5.85427">
        <ele>967</ele>
        <time>2022-09-22T12:10:45Z</time>
      </trkpt>
      <trkpt lat="44.12636" lon="5.85428">
        <ele>967</ele>
        <time>2022-09-22T12:10:46Z</time>
      </trkpt>
      <trkpt lat="44.12637" lon="5.8543">
        <ele>967</ele>
        <time>2022-09-22T12:10:47Z</time>
      </trkpt>
      <trkpt lat="44.12637" lon="5.85431">
        <ele>967</ele>
        <time>2022-09-22T12:10:48Z</time>
      </trkpt>
      <trkpt lat="44.12638" lon="5.85433">
        <ele>967</ele>
        <time>2022-09-22T12:10:49Z</time>
      </trkpt>
      <trkpt lat="44.12638" lon="5.85434">
        <ele>966</ele>
        <time>2022-09-22T12:10:50Z</time>
      </trkpt>
      <trkpt lat="44.12639" lon="5.85436">
        <ele>966</ele>
        <time>2022-09-22T12:10:51Z</time>
      </trkpt>
      <trkpt lat="44.1264" lon="5.85437">
        <ele>966</ele>
        <time>2022-09-22T12:10:52Z</time>
      </trkpt>
      <trkpt lat="44.1264" lon="5.85438">
        <ele>966</ele>
        <time>2022-09-22T12:10:53Z</time>
      </trkpt>
      <trkpt lat="44.12641" lon="5.85439">
        <ele>966</ele>
        <time>2022-09-22T12:10:54Z</time>
      </trkpt>
      <trkpt lat="44.12642" lon="5.85441">
        <ele>966</ele>
        <time>2022-09-22T12:10:55Z</time>
      </trkpt>
      <trkpt lat="44.12643" lon="5.85442">
        <ele>966</ele>
        <time>2022-09-22T12:10:56Z</time>
      </trkpt>
      <trkpt lat="44.12643" lon="5.85443">
        <ele>966</ele>
        <time>2022-09-22T12:10:57Z</time>
      </trkpt>
      <trkpt lat="44.12644" lon="5.85445">
        <ele>966</ele>
        <time>2022-09-22T12:10:58Z</time>
      </trkpt>
      <trkpt lat="44.12644" lon="5.85446">
        <ele>966</ele>
        <time>2022-09-22T12:10:59Z</time>
      </trkpt>
      <trkpt lat="44.12645" lon="5.85447">
        <ele>966</ele>
        <time>2022-09-22T12:11:00Z</time>
      </trkpt>
      <trkpt lat="44.12645" lon="5.85449">
        <ele>966</ele>
        <time>2022-09-22T12:11:01Z</time>
      </trkpt>
      <trkpt lat="44.12646" lon="5.8545">
        <ele>966</ele>
        <time>2022-09-22T12:11:02Z</time>
      </trkpt>
      <trkpt lat="44.12646" lon="5.85452">
        <ele>966</ele>
        <time>2022-09-22T12:11:13Z</time>
      </trkpt>
      <trkpt lat="44.12646" lon="5.85452">
        <ele>966</ele>
        <time>2022-09-22T12:11:14Z</time>
      </trkpt>
      <trkpt lat="44.12646" lon="5.85453">
        <ele>965</ele>
        <time>2022-09-22T12:11:15Z</time>
      </trkpt>
      <trkpt lat="44.12647" lon="5.85454">
        <ele>965</ele>
        <time>2022-09-22T12:11:16Z</time>
      </trkpt>
      <trkpt lat="44.12647" lon="5.85454">
        <ele>965</ele>
        <time>2022-09-22T12:11:17Z</time>
      </trkpt>
      <trkpt lat="44.12647" lon="5.85455">
        <ele>965</ele>
        <time>2022-09-22T12:11:18Z</time>
      </trkpt>
      <trkpt lat="44.12648" lon="5.85456">
        <ele>965</ele>
        <time>2022-09-22T12:11:19Z</time>
      </trkpt>
      <trkpt lat="44.12648" lon="5.85457">
        <ele>965</ele>
        <time>2022-09-22T12:11:20Z</time>
      </trkpt>
      <trkpt lat="44.12648" lon="5.85457">
        <ele>965</ele>
        <time>2022-09-22T12:11:21Z</time>
      </trkpt>
      <trkpt lat="44.12649" lon="5.85458">
        <ele>965</ele>
        <time>2022-09-22T12:11:22Z</time>
      </trkpt>
      <trkpt lat="44.12649" lon="5.85459">
        <ele>965</ele>
        <time>2022-09-22T12:11:23Z</time>
      </trkpt>
      <trkpt lat="44.1265" lon="5.8546">
        <ele>965</ele>
        <time>2022-09-22T12:11:24Z</time>
      </trkpt>
      <trkpt lat="44.1265" lon="5.85462">
        <ele>965</ele>
        <time>2022-09-22T12:11:25Z</time>
      </trkpt>
      <trkpt lat="44.12651" lon="5.85463">
        <ele>965</ele>
        <time>2022-09-22T12:11:26Z</time>
      </trkpt>
      <trkpt lat="44.12651" lon="5.85464">
        <ele>965</ele>
        <time>2022-09-22T12:11:27Z</time>
      </trkpt>
      <trkpt lat="44.12651" lon="5.85465">
        <ele>965</ele>
        <time>2022-09-22T12:11:28Z</time>
      </trkpt>
      <trkpt lat="44.12652" lon="5.85466">
        <ele>965</ele>
        <time>2022-09-22T12:11:29Z</time>
      </trkpt>
      <trkpt lat="44.12652" lon="5.85468">
        <ele>965</ele>
        <time>2022-09-22T12:11:30Z</time>
      </trkpt>
      <trkpt lat="44.12653" lon="5.85469">
        <ele>965</ele>
        <time>2022-09-22T12:11:31Z</time>
      </trkpt>
      <trkpt lat="44.12653" lon="5.8547">
        <ele>965</ele>
        <time>2022-09-22T12:11:32Z</time>
      </trkpt>
      <trkpt lat="44.12654" lon="5.85472">
        <ele>965</ele>
        <time>2022-09-22T12:11:33Z</time>
      </trkpt>
      <trkpt lat="44.12654" lon="5.85473">
        <ele>965</ele>
        <time>2022-09-22T12:11:34Z</time>
      </trkpt>
      <trkpt lat="44.12654" lon="5.85474">
        <ele>965</ele>
        <time>2022-09-22T12:11:35Z</time>
      </trkpt>
      <trkpt lat="44.12655" lon="5.85476">
        <ele>965</ele>
        <time>2022-09-22T12:11:36Z</time>
      </trkpt>
      <trkpt lat="44.12655" lon="5.85477">
        <ele>965</ele>
        <time>2022-09-22T12:11:37Z</time>
      </trkpt>
      <trkpt lat="44.12656" lon="5.85478">
        <ele>965</ele>
        <time>2022-09-22T12:11:38Z</time>
      </trkpt>
      <trkpt lat="44.12656" lon="5.8548">
        <ele>965</ele>
        <time>2022-09-22T12:11:39Z</time>
      </trkpt>
      <trkpt lat="44.12656" lon="5.85481">
        <ele>964</ele>
        <time>2022-09-22T12:11:40Z</time>
      </trkpt>
      <trkpt lat="44.12657" lon="5.85483">
        <ele>964</ele>
        <time>2022-09-22T12:11:41Z</time>
      </trkpt>
      <trkpt lat="44.12656" lon="5.85484">
        <ele>964</ele>
        <time>2022-09-22T12:11:42Z</time>
      </trkpt>
      <trkpt lat="44.12656" lon="5.85486">
        <ele>964</ele>
        <time>2022-09-22T12:11:43Z</time>
      </trkpt>
      <trkpt lat="44.12656" lon="5.85488">
        <ele>964</ele>
        <time>2022-09-22T12:11:44Z</time>
      </trkpt>
      <trkpt lat="44.12656" lon="5.85489">
        <ele>964</ele>
        <time>2022-09-22T12:11:45Z</time>
      </trkpt>
      <trkpt lat="44.12656" lon="5.85491">
        <ele>964</ele>
        <time>2022-09-22T12:11:46Z</time>
      </trkpt>
      <trkpt lat="44.12656" lon="5.85492">
        <ele>964</ele>
        <time>2022-09-22T12:11:47Z</time>
      </trkpt>
      <trkpt lat="44.12657" lon="5.85494">
        <ele>964</ele>
        <time>2022-09-22T12:11:48Z</time>
      </trkpt>
      <trkpt lat="44.12657" lon="5.85496">
        <ele>964</ele>
        <time>2022-09-22T12:11:49Z</time>
      </trkpt>
      <trkpt lat="44.12658" lon="5.85497">
        <ele>963</ele>
        <time>2022-09-22T12:11:50Z</time>
      </trkpt>
      <trkpt lat="44.12658" lon="5.85499">
        <ele>963</ele>
        <time>2022-09-22T12:11:51Z</time>
      </trkpt>
      <trkpt lat="44.12659" lon="5.85501">
        <ele>963</ele>
        <time>2022-09-22T12:11:52Z</time>
      </trkpt>
      <trkpt lat="44.12659" lon="5.85502">
        <ele>963</ele>
        <time>2022-09-22T12:11:53Z</time>
      </trkpt>
      <trkpt lat="44.1266" lon="5.85504">
        <ele>963</ele>
        <time>2022-09-22T12:11:54Z</time>
      </trkpt>
      <trkpt lat="44.1266" lon="5.85505">
        <ele>963</ele>
        <time>2022-09-22T12:11:55Z</time>
      </trkpt>
      <trkpt lat="44.1266" lon="5.85507">
        <ele>963</ele>
        <time>2022-09-22T12:11:56Z</time>
      </trkpt>
      <trkpt lat="44.1266" lon="5.85508">
        <ele>963</ele>
        <time>2022-09-22T12:11:57Z</time>
      </trkpt>
      <trkpt lat="44.1266" lon="5.85509">
        <ele>963</ele>
        <time>2022-09-22T12:11:58Z</time>
      </trkpt>
      <trkpt lat="44.1266" lon="5.85511">
        <ele>963</ele>
        <time>2022-09-22T12:11:59Z</time>
      </trkpt>
      <trkpt lat="44.1266" lon="5.85512">
        <ele>962</ele>
        <time>2022-09-22T12:12:00Z</time>
      </trkpt>
      <trkpt lat="44.1266" lon="5.85514">
        <ele>962</ele>
        <time>2022-09-22T12:12:01Z</time>
      </trkpt>
      <trkpt lat="44.1266" lon="5.85515">
        <ele>962</ele>
        <time>2022-09-22T12:12:02Z</time>
      </trkpt>
      <trkpt lat="44.1266" lon="5.85517">
        <ele>962</ele>
        <time>2022-09-22T12:12:03Z</time>
      </trkpt>
      <trkpt lat="44.1266" lon="5.85518">
        <ele>962</ele>
        <time>2022-09-22T12:12:04Z</time>
      </trkpt>
      <trkpt lat="44.1266" lon="5.8552">
        <ele>962</ele>
        <time>2022-09-22T12:12:05Z</time>
      </trkpt>
      <trkpt lat="44.1266" lon="5.85522">
        <ele>962</ele>
        <time>2022-09-22T12:12:06Z</time>
      </trkpt>
      <trkpt lat="44.1266" lon="5.85523">
        <ele>962</ele>
        <time>2022-09-22T12:12:07Z</time>
      </trkpt>
      <trkpt lat="44.1266" lon="5.85525">
        <ele>962</ele>
        <time>2022-09-22T12:12:08Z</time>
      </trkpt>
      <trkpt lat="44.1266" lon="5.85527">
        <ele>962</ele>
        <time>2022-09-22T12:12:09Z</time>
      </trkpt>
      <trkpt lat="44.1266" lon="5.85528">
        <ele>961</ele>
        <time>2022-09-22T12:12:10Z</time>
      </trkpt>
      <trkpt lat="44.1266" lon="5.85529">
        <ele>961</ele>
        <time>2022-09-22T12:12:11Z</time>
      </trkpt>
      <trkpt lat="44.1266" lon="5.85531">
        <ele>961</ele>
        <time>2022-09-22T12:12:12Z</time>
      </trkpt>
      <trkpt lat="44.1266" lon="5.85532">
        <ele>961</ele>
        <time>2022-09-22T12:12:13Z</time>
      </trkpt>
      <trkpt lat="44.1266" lon="5.85534">
        <ele>961</ele>
        <time>2022-09-22T12:12:14Z</time>
      </trkpt>
      <trkpt lat="44.1266" lon="5.85535">
        <ele>960</ele>
        <time>2022-09-22T12:12:15Z</time>
      </trkpt>
      <trkpt lat="44.12659" lon="5.85537">
        <ele>960</ele>
        <time>2022-09-22T12:12:16Z</time>
      </trkpt>
      <trkpt lat="44.12659" lon="5.85538">
        <ele>960</ele>
        <time>2022-09-22T12:12:17Z</time>
      </trkpt>
      <trkpt lat="44.12659" lon="5.8554">
        <ele>960</ele>
        <time>2022-09-22T12:12:18Z</time>
      </trkpt>
      <trkpt lat="44.12659" lon="5.85541">
        <ele>960</ele>
        <time>2022-09-22T12:12:19Z</time>
      </trkpt>
      <trkpt lat="44.12659" lon="5.85542">
        <ele>960</ele>
        <time>2022-09-22T12:12:20Z</time>
      </trkpt>
      <trkpt lat="44.12659" lon="5.85544">
        <ele>960</ele>
        <time>2022-09-22T12:12:21Z</time>
      </trkpt>
      <trkpt lat="44.12659" lon="5.85545">
        <ele>960</ele>
        <time>2022-09-22T12:12:22Z</time>
      </trkpt>
      <trkpt lat="44.12659" lon="5.85546">
        <ele>960</ele>
        <time>2022-09-22T12:12:23Z</time>
      </trkpt>
      <trkpt lat="44.12659" lon="5.85548">
        <ele>960</ele>
        <time>2022-09-22T12:12:24Z</time>
      </trkpt>
      <trkpt lat="44.12659" lon="5.85549">
        <ele>960</ele>
        <time>2022-09-22T12:12:25Z</time>
      </trkpt>
      <trkpt lat="44.12659" lon="5.85551">
        <ele>960</ele>
        <time>2022-09-22T12:12:26Z</time>
      </trkpt>
      <trkpt lat="44.12659" lon="5.85552">
        <ele>960</ele>
        <time>2022-09-22T12:12:27Z</time>
      </trkpt>
      <trkpt lat="44.12659" lon="5.85554">
        <ele>960</ele>
        <time>2022-09-22T12:12:28Z</time>
      </trkpt>
      <trkpt lat="44.12659" lon="5.85556">
        <ele>960</ele>
        <time>2022-09-22T12:12:29Z</time>
      </trkpt>
      <trkpt lat="44.12659" lon="5.85558">
        <ele>960</ele>
        <time>2022-09-22T12:12:30Z</time>
      </trkpt>
      <trkpt lat="44.12659" lon="5.85559">
        <ele>960</ele>
        <time>2022-09-22T12:12:31Z</time>
      </trkpt>
      <trkpt lat="44.12659" lon="5.85561">
        <ele>960</ele>
        <time>2022-09-22T12:12:32Z</time>
      </trkpt>
      <trkpt lat="44.12659" lon="5.85563">
        <ele>960</ele>
        <time>2022-09-22T12:12:33Z</time>
      </trkpt>
      <trkpt lat="44.12659" lon="5.85564">
        <ele>960</ele>
        <time>2022-09-22T12:12:34Z</time>
      </trkpt>
      <trkpt lat="44.12659" lon="5.85565">
        <ele>959</ele>
        <time>2022-09-22T12:12:35Z</time>
      </trkpt>
      <trkpt lat="44.12659" lon="5.85567">
        <ele>959</ele>
        <time>2022-09-22T12:12:36Z</time>
      </trkpt>
      <trkpt lat="44.1266" lon="5.85568">
        <ele>959</ele>
        <time>2022-09-22T12:12:37Z</time>
      </trkpt>
      <trkpt lat="44.1266" lon="5.85569">
        <ele>959</ele>
        <time>2022-09-22T12:12:38Z</time>
      </trkpt>
      <trkpt lat="44.1266" lon="5.85571">
        <ele>959</ele>
        <time>2022-09-22T12:12:39Z</time>
      </trkpt>
      <trkpt lat="44.1266" lon="5.85572">
        <ele>958</ele>
        <time>2022-09-22T12:12:40Z</time>
      </trkpt>
      <trkpt lat="44.1266" lon="5.85573">
        <ele>958</ele>
        <time>2022-09-22T12:12:41Z</time>
      </trkpt>
      <trkpt lat="44.1266" lon="5.85575">
        <ele>958</ele>
        <time>2022-09-22T12:12:42Z</time>
      </trkpt>
      <trkpt lat="44.12661" lon="5.85576">
        <ele>958</ele>
        <time>2022-09-22T12:12:43Z</time>
      </trkpt>
      <trkpt lat="44.12661" lon="5.85578">
        <ele>958</ele>
        <time>2022-09-22T12:12:44Z</time>
      </trkpt>
      <trkpt lat="44.12661" lon="5.85579">
        <ele>958</ele>
        <time>2022-09-22T12:12:45Z</time>
      </trkpt>
      <trkpt lat="44.12661" lon="5.85581">
        <ele>958</ele>
        <time>2022-09-22T12:12:46Z</time>
      </trkpt>
      <trkpt lat="44.12661" lon="5.85582">
        <ele>958</ele>
        <time>2022-09-22T12:12:47Z</time>
      </trkpt>
      <trkpt lat="44.12661" lon="5.85583">
        <ele>958</ele>
        <time>2022-09-22T12:12:48Z</time>
      </trkpt>
      <trkpt lat="44.12661" lon="5.85584">
        <ele>958</ele>
        <time>2022-09-22T12:12:49Z</time>
      </trkpt>
      <trkpt lat="44.12661" lon="5.85585">
        <ele>957</ele>
        <time>2022-09-22T12:12:50Z</time>
      </trkpt>
      <trkpt lat="44.12662" lon="5.85587">
        <ele>957</ele>
        <time>2022-09-22T12:12:51Z</time>
      </trkpt>
      <trkpt lat="44.12662" lon="5.85588">
        <ele>957</ele>
        <time>2022-09-22T12:12:52Z</time>
      </trkpt>
      <trkpt lat="44.12662" lon="5.85589">
        <ele>957</ele>
        <time>2022-09-22T12:12:53Z</time>
      </trkpt>
      <trkpt lat="44.12662" lon="5.85591">
        <ele>957</ele>
        <time>2022-09-22T12:12:54Z</time>
      </trkpt>
      <trkpt lat="44.12662" lon="5.85592">
        <ele>957</ele>
        <time>2022-09-22T12:12:55Z</time>
      </trkpt>
      <trkpt lat="44.12662" lon="5.85594">
        <ele>957</ele>
        <time>2022-09-22T12:12:56Z</time>
      </trkpt>
      <trkpt lat="44.12663" lon="5.85595">
        <ele>957</ele>
        <time>2022-09-22T12:12:57Z</time>
      </trkpt>
      <trkpt lat="44.12663" lon="5.85596">
        <ele>957</ele>
        <time>2022-09-22T12:12:58Z</time>
      </trkpt>
      <trkpt lat="44.12663" lon="5.85598">
        <ele>957</ele>
        <time>2022-09-22T12:12:59Z</time>
      </trkpt>
      <trkpt lat="44.12664" lon="5.85599">
        <ele>957</ele>
        <time>2022-09-22T12:13:00Z</time>
      </trkpt>
      <trkpt lat="44.12664" lon="5.85601">
        <ele>957</ele>
        <time>2022-09-22T12:13:01Z</time>
      </trkpt>
      <trkpt lat="44.12664" lon="5.85602">
        <ele>957</ele>
        <time>2022-09-22T12:13:02Z</time>
      </trkpt>
      <trkpt lat="44.12665" lon="5.85604">
        <ele>957</ele>
        <time>2022-09-22T12:13:03Z</time>
      </trkpt>
      <trkpt lat="44.12665" lon="5.85605">
        <ele>957</ele>
        <time>2022-09-22T12:13:04Z</time>
      </trkpt>
      <trkpt lat="44.12665" lon="5.85606">
        <ele>957</ele>
        <time>2022-09-22T12:13:05Z</time>
      </trkpt>
      <trkpt lat="44.12665" lon="5.85607">
        <ele>957</ele>
        <time>2022-09-22T12:13:06Z</time>
      </trkpt>
      <trkpt lat="44.12665" lon="5.85609">
        <ele>957</ele>
        <time>2022-09-22T12:13:07Z</time>
      </trkpt>
      <trkpt lat="44.12665" lon="5.8561">
        <ele>957</ele>
        <time>2022-09-22T12:13:08Z</time>
      </trkpt>
      <trkpt lat="44.12665" lon="5.85611">
        <ele>958</ele>
        <time>2022-09-22T12:13:09Z</time>
      </trkpt>
      <trkpt lat="44.12665" lon="5.85613">
        <ele>957</ele>
        <time>2022-09-22T12:13:10Z</time>
      </trkpt>
      <trkpt lat="44.12665" lon="5.85614">
        <ele>957</ele>
        <time>2022-09-22T12:13:11Z</time>
      </trkpt>
      <trkpt lat="44.12666" lon="5.85616">
        <ele>957</ele>
        <time>2022-09-22T12:13:12Z</time>
      </trkpt>
      <trkpt lat="44.12666" lon="5.85617">
        <ele>957</ele>
        <time>2022-09-22T12:13:13Z</time>
      </trkpt>
      <trkpt lat="44.12666" lon="5.85618">
        <ele>957</ele>
        <time>2022-09-22T12:13:14Z</time>
      </trkpt>
      <trkpt lat="44.12666" lon="5.8562">
        <ele>956</ele>
        <time>2022-09-22T12:13:15Z</time>
      </trkpt>
      <trkpt lat="44.12667" lon="5.85621">
        <ele>956</ele>
        <time>2022-09-22T12:13:16Z</time>
      </trkpt>
      <trkpt lat="44.12667" lon="5.85622">
        <ele>956</ele>
        <time>2022-09-22T12:13:17Z</time>
      </trkpt>
      <trkpt lat="44.12667" lon="5.85623">
        <ele>956</ele>
        <time>2022-09-22T12:13:18Z</time>
      </trkpt>
      <trkpt lat="44.12668" lon="5.85624">
        <ele>956</ele>
        <time>2022-09-22T12:13:19Z</time>
      </trkpt>
      <trkpt lat="44.12668" lon="5.85626">
        <ele>956</ele>
        <time>2022-09-22T12:13:20Z</time>
      </trkpt>
      <trkpt lat="44.12668" lon="5.85627">
        <ele>956</ele>
        <time>2022-09-22T12:13:21Z</time>
      </trkpt>
      <trkpt lat="44.12669" lon="5.85628">
        <ele>956</ele>
        <time>2022-09-22T12:13:22Z</time>
      </trkpt>
      <trkpt lat="44.12669" lon="5.85629">
        <ele>956</ele>
        <time>2022-09-22T12:13:23Z</time>
      </trkpt>
      <trkpt lat="44.12669" lon="5.8563">
        <ele>956</ele>
        <time>2022-09-22T12:13:24Z</time>
      </trkpt>
      <trkpt lat="44.1267" lon="5.85631">
        <ele>955</ele>
        <time>2022-09-22T12:13:25Z</time>
      </trkpt>
      <trkpt lat="44.1267" lon="5.85632">
        <ele>955</ele>
        <time>2022-09-22T12:13:26Z</time>
      </trkpt>
      <trkpt lat="44.1267" lon="5.85633">
        <ele>955</ele>
        <time>2022-09-22T12:13:27Z</time>
      </trkpt>
      <trkpt lat="44.1267" lon="5.85635">
        <ele>955</ele>
        <time>2022-09-22T12:13:28Z</time>
      </trkpt>
      <trkpt lat="44.1267" lon="5.85636">
        <ele>955</ele>
        <time>2022-09-22T12:13:29Z</time>
      </trkpt>
      <trkpt lat="44.12671" lon="5.85637">
        <ele>955</ele>
        <time>2022-09-22T12:13:30Z</time>
      </trkpt>
      <trkpt lat="44.12671" lon="5.85639">
        <ele>955</ele>
        <time>2022-09-22T12:13:31Z</time>
      </trkpt>
      <trkpt lat="44.12671" lon="5.8564">
        <ele>955</ele>
        <time>2022-09-22T12:13:32Z</time>
      </trkpt>
      <trkpt lat="44.12672" lon="5.85641">
        <ele>955</ele>
        <time>2022-09-22T12:13:33Z</time>
      </trkpt>
      <trkpt lat="44.12672" lon="5.85642">
        <ele>955</ele>
        <time>2022-09-22T12:13:34Z</time>
      </trkpt>
      <trkpt lat="44.12672" lon="5.85643">
        <ele>954</ele>
        <time>2022-09-22T12:13:35Z</time>
      </trkpt>
      <trkpt lat="44.12672" lon="5.85645">
        <ele>954</ele>
        <time>2022-09-22T12:13:36Z</time>
      </trkpt>
      <trkpt lat="44.12673" lon="5.85646">
        <ele>954</ele>
        <time>2022-09-22T12:13:37Z</time>
      </trkpt>
      <trkpt lat="44.12673" lon="5.85647">
        <ele>954</ele>
        <time>2022-09-22T12:13:38Z</time>
      </trkpt>
      <trkpt lat="44.12674" lon="5.85648">
        <ele>954</ele>
        <time>2022-09-22T12:13:39Z</time>
      </trkpt>
      <trkpt lat="44.12674" lon="5.85649">
        <ele>954</ele>
        <time>2022-09-22T12:13:40Z</time>
      </trkpt>
      <trkpt lat="44.12675" lon="5.8565">
        <ele>954</ele>
        <time>2022-09-22T12:13:41Z</time>
      </trkpt>
      <trkpt lat="44.12676" lon="5.85651">
        <ele>954</ele>
        <time>2022-09-22T12:13:42Z</time>
      </trkpt>
      <trkpt lat="44.12676" lon="5.85652">
        <ele>954</ele>
        <time>2022-09-22T12:13:43Z</time>
      </trkpt>
      <trkpt lat="44.12677" lon="5.85653">
        <ele>954</ele>
        <time>2022-09-22T12:13:44Z</time>
      </trkpt>
      <trkpt lat="44.12678" lon="5.85655">
        <ele>953</ele>
        <time>2022-09-22T12:13:45Z</time>
      </trkpt>
      <trkpt lat="44.12678" lon="5.85656">
        <ele>953</ele>
        <time>2022-09-22T12:13:46Z</time>
      </trkpt>
      <trkpt lat="44.12679" lon="5.85657">
        <ele>953</ele>
        <time>2022-09-22T12:13:47Z</time>
      </trkpt>
      <trkpt lat="44.12679" lon="5.85658">
        <ele>953</ele>
        <time>2022-09-22T12:13:48Z</time>
      </trkpt>
      <trkpt lat="44.1268" lon="5.85659">
        <ele>953</ele>
        <time>2022-09-22T12:13:49Z</time>
      </trkpt>
      <trkpt lat="44.1268" lon="5.85661">
        <ele>953</ele>
        <time>2022-09-22T12:13:50Z</time>
      </trkpt>
      <trkpt lat="44.1268" lon="5.85662">
        <ele>953</ele>
        <time>2022-09-22T12:13:51Z</time>
      </trkpt>
      <trkpt lat="44.12681" lon="5.85663">
        <ele>953</ele>
        <time>2022-09-22T12:13:52Z</time>
      </trkpt>
      <trkpt lat="44.12681" lon="5.85665">
        <ele>953</ele>
        <time>2022-09-22T12:13:53Z</time>
      </trkpt>
      <trkpt lat="44.12681" lon="5.85666">
        <ele>953</ele>
        <time>2022-09-22T12:13:54Z</time>
      </trkpt>
      <trkpt lat="44.12681" lon="5.85667">
        <ele>952</ele>
        <time>2022-09-22T12:13:55Z</time>
      </trkpt>
      <trkpt lat="44.12681" lon="5.85669">
        <ele>952</ele>
        <time>2022-09-22T12:13:56Z</time>
      </trkpt>
      <trkpt lat="44.12681" lon="5.8567">
        <ele>952</ele>
        <time>2022-09-22T12:13:57Z</time>
      </trkpt>
      <trkpt lat="44.12681" lon="5.85671">
        <ele>952</ele>
        <time>2022-09-22T12:13:58Z</time>
      </trkpt>
      <trkpt lat="44.12681" lon="5.85673">
        <ele>952</ele>
        <time>2022-09-22T12:13:59Z</time>
      </trkpt>
      <trkpt lat="44.12681" lon="5.85674">
        <ele>952</ele>
        <time>2022-09-22T12:14:00Z</time>
      </trkpt>
      <trkpt lat="44.12681" lon="5.85676">
        <ele>952</ele>
        <time>2022-09-22T12:14:01Z</time>
      </trkpt>
      <trkpt lat="44.12681" lon="5.85677">
        <ele>952</ele>
        <time>2022-09-22T12:14:02Z</time>
      </trkpt>
      <trkpt lat="44.12681" lon="5.85679">
        <ele>952</ele>
        <time>2022-09-22T12:14:03Z</time>
      </trkpt>
      <trkpt lat="44.12681" lon="5.8568">
        <ele>952</ele>
        <time>2022-09-22T12:14:04Z</time>
      </trkpt>
      <trkpt lat="44.12681" lon="5.85681">
        <ele>951</ele>
        <time>2022-09-22T12:14:05Z</time>
      </trkpt>
      <trkpt lat="44.1268" lon="5.85683">
        <ele>951</ele>
        <time>2022-09-22T12:14:06Z</time>
      </trkpt>
      <trkpt lat="44.1268" lon="5.85684">
        <ele>951</ele>
        <time>2022-09-22T12:14:07Z</time>
      </trkpt>
      <trkpt lat="44.1268" lon="5.85685">
        <ele>951</ele>
        <time>2022-09-22T12:14:08Z</time>
      </trkpt>
      <trkpt lat="44.1268" lon="5.85687">
        <ele>951</ele>
        <time>2022-09-22T12:14:09Z</time>
      </trkpt>
      <trkpt lat="44.12679" lon="5.85688">
        <ele>951</ele>
        <time>2022-09-22T12:14:10Z</time>
      </trkpt>
      <trkpt lat="44.12679" lon="5.8569">
        <ele>951</ele>
        <time>2022-09-22T12:14:11Z</time>
      </trkpt>
      <trkpt lat="44.12679" lon="5.85692">
        <ele>951</ele>
        <time>2022-09-22T12:14:12Z</time>
      </trkpt>
      <trkpt lat="44.12679" lon="5.85693">
        <ele>951</ele>
        <time>2022-09-22T12:14:13Z</time>
      </trkpt>
      <trkpt lat="44.12679" lon="5.85694">
        <ele>951</ele>
        <time>2022-09-22T12:14:14Z</time>
      </trkpt>
      <trkpt lat="44.12679" lon="5.85696">
        <ele>951</ele>
        <time>2022-09-22T12:14:15Z</time>
      </trkpt>
      <trkpt lat="44.12679" lon="5.85697">
        <ele>951</ele>
        <time>2022-09-22T12:14:16Z</time>
      </trkpt>
      <trkpt lat="44.12679" lon="5.85698">
        <ele>951</ele>
        <time>2022-09-22T12:14:17Z</time>
      </trkpt>
      <trkpt lat="44.12679" lon="5.857">
        <ele>951</ele>
        <time>2022-09-22T12:14:18Z</time>
      </trkpt>
      <trkpt lat="44.12679" lon="5.85701">
        <ele>951</ele>
        <time>2022-09-22T12:14:19Z</time>
      </trkpt>
      <trkpt lat="44.12679" lon="5.85702">
        <ele>951</ele>
        <time>2022-09-22T12:14:20Z</time>
      </trkpt>
      <trkpt lat="44.12679" lon="5.85704">
        <ele>951</ele>
        <time>2022-09-22T12:14:21Z</time>
      </trkpt>
      <trkpt lat="44.12679" lon="5.85705">
        <ele>951</ele>
        <time>2022-09-22T12:14:22Z</time>
      </trkpt>
      <trkpt lat="44.12679" lon="5.85707">
        <ele>951</ele>
        <time>2022-09-22T12:14:23Z</time>
      </trkpt>
      <trkpt lat="44.12679" lon="5.85708">
        <ele>951</ele>
        <time>2022-09-22T12:14:24Z</time>
      </trkpt>
      <trkpt lat="44.12679" lon="5.85709">
        <ele>951</ele>
        <time>2022-09-22T12:14:25Z</time>
      </trkpt>
      <trkpt lat="44.12679" lon="5.85711">
        <ele>951</ele>
        <time>2022-09-22T12:14:26Z</time>
      </trkpt>
      <trkpt lat="44.12679" lon="5.85712">
        <ele>951</ele>
        <time>2022-09-22T12:14:27Z</time>
      </trkpt>
      <trkpt lat="44.12679" lon="5.85714">
        <ele>951</ele>
        <time>2022-09-22T12:14:28Z</time>
      </trkpt>
      <trkpt lat="44.12679" lon="5.85715">
        <ele>951</ele>
        <time>2022-09-22T12:14:29Z</time>
      </trkpt>
      <trkpt lat="44.12679" lon="5.85717">
        <ele>950</ele>
        <time>2022-09-22T12:14:30Z</time>
      </trkpt>
      <trkpt lat="44.12679" lon="5.85718">
        <ele>950</ele>
        <time>2022-09-22T12:14:31Z</time>
      </trkpt>
      <trkpt lat="44.12678" lon="5.8572">
        <ele>950</ele>
        <time>2022-09-22T12:14:32Z</time>
      </trkpt>
      <trkpt lat="44.12678" lon="5.85722">
        <ele>950</ele>
        <time>2022-09-22T12:14:33Z</time>
      </trkpt>
      <trkpt lat="44.12678" lon="5.85723">
        <ele>950</ele>
        <time>2022-09-22T12:14:34Z</time>
      </trkpt>
      <trkpt lat="44.12678" lon="5.85725">
        <ele>949</ele>
        <time>2022-09-22T12:14:35Z</time>
      </trkpt>
      <trkpt lat="44.12679" lon="5.85727">
        <ele>949</ele>
        <time>2022-09-22T12:14:36Z</time>
      </trkpt>
      <trkpt lat="44.12679" lon="5.85728">
        <ele>949</ele>
        <time>2022-09-22T12:14:37Z</time>
      </trkpt>
      <trkpt lat="44.12679" lon="5.8573">
        <ele>949</ele>
        <time>2022-09-22T12:14:38Z</time>
      </trkpt>
      <trkpt lat="44.12679" lon="5.85731">
        <ele>949</ele>
        <time>2022-09-22T12:14:39Z</time>
      </trkpt>
      <trkpt lat="44.12679" lon="5.85733">
        <ele>949</ele>
        <time>2022-09-22T12:14:40Z</time>
      </trkpt>
      <trkpt lat="44.12679" lon="5.85734">
        <ele>949</ele>
        <time>2022-09-22T12:14:41Z</time>
      </trkpt>
      <trkpt lat="44.12679" lon="5.85736">
        <ele>949</ele>
        <time>2022-09-22T12:14:42Z</time>
      </trkpt>
      <trkpt lat="44.12679" lon="5.85737">
        <ele>949</ele>
        <time>2022-09-22T12:14:43Z</time>
      </trkpt>
      <trkpt lat="44.12679" lon="5.85739">
        <ele>949</ele>
        <time>2022-09-22T12:14:44Z</time>
      </trkpt>
      <trkpt lat="44.12679" lon="5.85741">
        <ele>948</ele>
        <time>2022-09-22T12:14:45Z</time>
      </trkpt>
      <trkpt lat="44.12679" lon="5.85742">
        <ele>948</ele>
        <time>2022-09-22T12:14:46Z</time>
      </trkpt>
      <trkpt lat="44.12678" lon="5.85744">
        <ele>948</ele>
        <time>2022-09-22T12:14:47Z</time>
      </trkpt>
      <trkpt lat="44.12678" lon="5.85746">
        <ele>948</ele>
        <time>2022-09-22T12:14:48Z</time>
      </trkpt>
      <trkpt lat="44.12678" lon="5.85747">
        <ele>948</ele>
        <time>2022-09-22T12:14:49Z</time>
      </trkpt>
      <trkpt lat="44.12678" lon="5.85749">
        <ele>948</ele>
        <time>2022-09-22T12:14:50Z</time>
      </trkpt>
      <trkpt lat="44.12678" lon="5.8575">
        <ele>948</ele>
        <time>2022-09-22T12:14:51Z</time>
      </trkpt>
      <trkpt lat="44.12678" lon="5.85752">
        <ele>948</ele>
        <time>2022-09-22T12:14:52Z</time>
      </trkpt>
      <trkpt lat="44.12677" lon="5.85754">
        <ele>948</ele>
        <time>2022-09-22T12:14:53Z</time>
      </trkpt>
      <trkpt lat="44.12677" lon="5.85755">
        <ele>948</ele>
        <time>2022-09-22T12:14:54Z</time>
      </trkpt>
      <trkpt lat="44.12677" lon="5.85757">
        <ele>948</ele>
        <time>2022-09-22T12:14:55Z</time>
      </trkpt>
      <trkpt lat="44.12677" lon="5.85758">
        <ele>948</ele>
        <time>2022-09-22T12:14:56Z</time>
      </trkpt>
      <trkpt lat="44.12677" lon="5.8576">
        <ele>948</ele>
        <time>2022-09-22T12:14:57Z</time>
      </trkpt>
      <trkpt lat="44.12676" lon="5.85761">
        <ele>948</ele>
        <time>2022-09-22T12:14:58Z</time>
      </trkpt>
      <trkpt lat="44.12676" lon="5.85762">
        <ele>948</ele>
        <time>2022-09-22T12:14:59Z</time>
      </trkpt>
      <trkpt lat="44.12676" lon="5.85763">
        <ele>948</ele>
        <time>2022-09-22T12:15:00Z</time>
      </trkpt>
      <trkpt lat="44.12676" lon="5.85764">
        <ele>948</ele>
        <time>2022-09-22T12:15:01Z</time>
      </trkpt>
      <trkpt lat="44.12676" lon="5.85765">
        <ele>948</ele>
        <time>2022-09-22T12:15:02Z</time>
      </trkpt>
      <trkpt lat="44.12675" lon="5.85766">
        <ele>948</ele>
        <time>2022-09-22T12:15:03Z</time>
      </trkpt>
      <trkpt lat="44.12675" lon="5.85767">
        <ele>948</ele>
        <time>2022-09-22T12:15:04Z</time>
      </trkpt>
      <trkpt lat="44.12676" lon="5.85769">
        <ele>948</ele>
        <time>2022-09-22T12:15:05Z</time>
      </trkpt>
      <trkpt lat="44.12676" lon="5.8577">
        <ele>948</ele>
        <time>2022-09-22T12:15:06Z</time>
      </trkpt>
      <trkpt lat="44.12676" lon="5.85771">
        <ele>948</ele>
        <time>2022-09-22T12:15:07Z</time>
      </trkpt>
      <trkpt lat="44.12676" lon="5.85772">
        <ele>948</ele>
        <time>2022-09-22T12:15:08Z</time>
      </trkpt>
      <trkpt lat="44.12677" lon="5.85773">
        <ele>948</ele>
        <time>2022-09-22T12:15:09Z</time>
      </trkpt>
      <trkpt lat="44.12677" lon="5.85774">
        <ele>947</ele>
        <time>2022-09-22T12:15:10Z</time>
      </trkpt>
      <trkpt lat="44.12677" lon="5.85776">
        <ele>947</ele>
        <time>2022-09-22T12:15:11Z</time>
      </trkpt>
      <trkpt lat="44.12677" lon="5.85777">
        <ele>947</ele>
        <time>2022-09-22T12:15:12Z</time>
      </trkpt>
      <trkpt lat="44.12678" lon="5.85778">
        <ele>947</ele>
        <time>2022-09-22T12:15:13Z</time>
      </trkpt>
      <trkpt lat="44.12678" lon="5.8578">
        <ele>947</ele>
        <time>2022-09-22T12:15:14Z</time>
      </trkpt>
      <trkpt lat="44.12678" lon="5.85781">
        <ele>946</ele>
        <time>2022-09-22T12:15:15Z</time>
      </trkpt>
      <trkpt lat="44.12678" lon="5.85782">
        <ele>946</ele>
        <time>2022-09-22T12:15:16Z</time>
      </trkpt>
      <trkpt lat="44.12678" lon="5.85784">
        <ele>946</ele>
        <time>2022-09-22T12:15:17Z</time>
      </trkpt>
      <trkpt lat="44.12678" lon="5.85785">
        <ele>946</ele>
        <time>2022-09-22T12:15:18Z</time>
      </trkpt>
      <trkpt lat="44.12678" lon="5.85787">
        <ele>946</ele>
        <time>2022-09-22T12:15:19Z</time>
      </trkpt>
      <trkpt lat="44.12678" lon="5.85788">
        <ele>945</ele>
        <time>2022-09-22T12:15:20Z</time>
      </trkpt>
      <trkpt lat="44.12678" lon="5.85789">
        <ele>945</ele>
        <time>2022-09-22T12:15:21Z</time>
      </trkpt>
      <trkpt lat="44.12678" lon="5.85791">
        <ele>945</ele>
        <time>2022-09-22T12:15:22Z</time>
      </trkpt>
      <trkpt lat="44.12678" lon="5.85792">
        <ele>945</ele>
        <time>2022-09-22T12:15:23Z</time>
      </trkpt>
      <trkpt lat="44.12678" lon="5.85793">
        <ele>945</ele>
        <time>2022-09-22T12:15:24Z</time>
      </trkpt>
      <trkpt lat="44.12678" lon="5.85795">
        <ele>944</ele>
        <time>2022-09-22T12:15:25Z</time>
      </trkpt>
      <trkpt lat="44.12678" lon="5.85796">
        <ele>944</ele>
        <time>2022-09-22T12:15:26Z</time>
      </trkpt>
      <trkpt lat="44.12678" lon="5.85797">
        <ele>944</ele>
        <time>2022-09-22T12:15:27Z</time>
      </trkpt>
      <trkpt lat="44.12677" lon="5.85799">
        <ele>944</ele>
        <time>2022-09-22T12:15:28Z</time>
      </trkpt>
      <trkpt lat="44.12677" lon="5.858">
        <ele>944</ele>
        <time>2022-09-22T12:15:29Z</time>
      </trkpt>
      <trkpt lat="44.12677" lon="5.85801">
        <ele>943</ele>
        <time>2022-09-22T12:15:30Z</time>
      </trkpt>
      <trkpt lat="44.12677" lon="5.85802">
        <ele>943</ele>
        <time>2022-09-22T12:15:31Z</time>
      </trkpt>
      <trkpt lat="44.12676" lon="5.85804">
        <ele>943</ele>
        <time>2022-09-22T12:15:32Z</time>
      </trkpt>
      <trkpt lat="44.12676" lon="5.85804">
        <ele>943</ele>
        <time>2022-09-22T12:15:33Z</time>
      </trkpt>
      <trkpt lat="44.12675" lon="5.85805">
        <ele>943</ele>
        <time>2022-09-22T12:15:34Z</time>
      </trkpt>
      <trkpt lat="44.12674" lon="5.85805">
        <ele>942</ele>
        <time>2022-09-22T12:15:35Z</time>
      </trkpt>
      <trkpt lat="44.12673" lon="5.85806">
        <ele>942</ele>
        <time>2022-09-22T12:15:36Z</time>
      </trkpt>
      <trkpt lat="44.12672" lon="5.85805">
        <ele>942</ele>
        <time>2022-09-22T12:15:37Z</time>
      </trkpt>
      <trkpt lat="44.1267" lon="5.85805">
        <ele>942</ele>
        <time>2022-09-22T12:15:38Z</time>
      </trkpt>
      <trkpt lat="44.12669" lon="5.85804">
        <ele>942</ele>
        <time>2022-09-22T12:15:39Z</time>
      </trkpt>
      <trkpt lat="44.12668" lon="5.85803">
        <ele>942</ele>
        <time>2022-09-22T12:15:40Z</time>
      </trkpt>
      <trkpt lat="44.12667" lon="5.85802">
        <ele>942</ele>
        <time>2022-09-22T12:15:41Z</time>
      </trkpt>
      <trkpt lat="44.12667" lon="5.85801">
        <ele>942</ele>
        <time>2022-09-22T12:15:42Z</time>
      </trkpt>
      <trkpt lat="44.12666" lon="5.858">
        <ele>942</ele>
        <time>2022-09-22T12:15:43Z</time>
      </trkpt>
      <trkpt lat="44.12666" lon="5.85799">
        <ele>942</ele>
        <time>2022-09-22T12:15:44Z</time>
      </trkpt>
      <trkpt lat="44.12666" lon="5.85797">
        <ele>941</ele>
        <time>2022-09-22T12:15:45Z</time>
      </trkpt>
      <trkpt lat="44.12665" lon="5.85796">
        <ele>941</ele>
        <time>2022-09-22T12:15:46Z</time>
      </trkpt>
      <trkpt lat="44.12665" lon="5.85795">
        <ele>941</ele>
        <time>2022-09-22T12:15:47Z</time>
      </trkpt>
      <trkpt lat="44.12665" lon="5.85793">
        <ele>941</ele>
        <time>2022-09-22T12:15:48Z</time>
      </trkpt>
      <trkpt lat="44.12664" lon="5.85792">
        <ele>941</ele>
        <time>2022-09-22T12:15:49Z</time>
      </trkpt>
      <trkpt lat="44.12664" lon="5.8579">
        <ele>940</ele>
        <time>2022-09-22T12:15:50Z</time>
      </trkpt>
      <trkpt lat="44.12664" lon="5.85789">
        <ele>940</ele>
        <time>2022-09-22T12:15:51Z</time>
      </trkpt>
      <trkpt lat="44.12664" lon="5.85787">
        <ele>940</ele>
        <time>2022-09-22T12:15:52Z</time>
      </trkpt>
      <trkpt lat="44.12664" lon="5.85786">
        <ele>940</ele>
        <time>2022-09-22T12:15:53Z</time>
      </trkpt>
      <trkpt lat="44.12664" lon="5.85785">
        <ele>940</ele>
        <time>2022-09-22T12:15:54Z</time>
      </trkpt>
      <trkpt lat="44.12663" lon="5.85783">
        <ele>940</ele>
        <time>2022-09-22T12:15:55Z</time>
      </trkpt>
      <trkpt lat="44.12663" lon="5.85782">
        <ele>940</ele>
        <time>2022-09-22T12:15:56Z</time>
      </trkpt>
      <trkpt lat="44.12663" lon="5.85781">
        <ele>940</ele>
        <time>2022-09-22T12:15:57Z</time>
      </trkpt>
      <trkpt lat="44.12662" lon="5.8578">
        <ele>940</ele>
        <time>2022-09-22T12:15:58Z</time>
      </trkpt>
      <trkpt lat="44.12662" lon="5.85778">
        <ele>940</ele>
        <time>2022-09-22T12:15:59Z</time>
      </trkpt>
      <trkpt lat="44.12661" lon="5.85777">
        <ele>939</ele>
        <time>2022-09-22T12:16:00Z</time>
      </trkpt>
      <trkpt lat="44.1266" lon="5.85776">
        <ele>939</ele>
        <time>2022-09-22T12:16:01Z</time>
      </trkpt>
      <trkpt lat="44.1266" lon="5.85775">
        <ele>939</ele>
        <time>2022-09-22T12:16:02Z</time>
      </trkpt>
      <trkpt lat="44.12659" lon="5.85774">
        <ele>939</ele>
        <time>2022-09-22T12:16:03Z</time>
      </trkpt>
      <trkpt lat="44.12658" lon="5.85773">
        <ele>939</ele>
        <time>2022-09-22T12:16:04Z</time>
      </trkpt>
      <trkpt lat="44.12658" lon="5.85771">
        <ele>939</ele>
        <time>2022-09-22T12:16:05Z</time>
      </trkpt>
      <trkpt lat="44.12657" lon="5.8577">
        <ele>939</ele>
        <time>2022-09-22T12:16:06Z</time>
      </trkpt>
      <trkpt lat="44.12657" lon="5.85769">
        <ele>939</ele>
        <time>2022-09-22T12:16:07Z</time>
      </trkpt>
      <trkpt lat="44.12657" lon="5.85768">
        <ele>939</ele>
        <time>2022-09-22T12:16:08Z</time>
      </trkpt>
      <trkpt lat="44.12657" lon="5.85766">
        <ele>939</ele>
        <time>2022-09-22T12:16:09Z</time>
      </trkpt>
      <trkpt lat="44.12657" lon="5.85765">
        <ele>938</ele>
        <time>2022-09-22T12:16:10Z</time>
      </trkpt>
      <trkpt lat="44.12657" lon="5.85764">
        <ele>938</ele>
        <time>2022-09-22T12:16:11Z</time>
      </trkpt>
      <trkpt lat="44.12656" lon="5.85762">
        <ele>938</ele>
        <time>2022-09-22T12:16:12Z</time>
      </trkpt>
      <trkpt lat="44.12656" lon="5.85761">
        <ele>938</ele>
        <time>2022-09-22T12:16:13Z</time>
      </trkpt>
      <trkpt lat="44.12656" lon="5.85759">
        <ele>938</ele>
        <time>2022-09-22T12:16:14Z</time>
      </trkpt>
      <trkpt lat="44.12656" lon="5.85758">
        <ele>937</ele>
        <time>2022-09-22T12:16:15Z</time>
      </trkpt>
      <trkpt lat="44.12656" lon="5.85756">
        <ele>937</ele>
        <time>2022-09-22T12:16:16Z</time>
      </trkpt>
      <trkpt lat="44.12656" lon="5.85754">
        <ele>937</ele>
        <time>2022-09-22T12:16:17Z</time>
      </trkpt>
      <trkpt lat="44.12656" lon="5.85753">
        <ele>937</ele>
        <time>2022-09-22T12:16:18Z</time>
      </trkpt>
      <trkpt lat="44.12655" lon="5.85751">
        <ele>937</ele>
        <time>2022-09-22T12:16:19Z</time>
      </trkpt>
      <trkpt lat="44.12655" lon="5.85749">
        <ele>937</ele>
        <time>2022-09-22T12:16:20Z</time>
      </trkpt>
      <trkpt lat="44.12655" lon="5.85748">
        <ele>937</ele>
        <time>2022-09-22T12:16:21Z</time>
      </trkpt>
      <trkpt lat="44.12654" lon="5.85746">
        <ele>937</ele>
        <time>2022-09-22T12:16:22Z</time>
      </trkpt>
      <trkpt lat="44.12654" lon="5.85745">
        <ele>937</ele>
        <time>2022-09-22T12:16:23Z</time>
      </trkpt>
      <trkpt lat="44.12653" lon="5.85743">
        <ele>937</ele>
        <time>2022-09-22T12:16:24Z</time>
      </trkpt>
      <trkpt lat="44.12653" lon="5.85742">
        <ele>936</ele>
        <time>2022-09-22T12:16:25Z</time>
      </trkpt>
      <trkpt lat="44.12652" lon="5.8574">
        <ele>936</ele>
        <time>2022-09-22T12:16:26Z</time>
      </trkpt>
      <trkpt lat="44.12651" lon="5.85739">
        <ele>936</ele>
        <time>2022-09-22T12:16:27Z</time>
      </trkpt>
      <trkpt lat="44.12651" lon="5.85737">
        <ele>936</ele>
        <time>2022-09-22T12:16:28Z</time>
      </trkpt>
      <trkpt lat="44.1265" lon="5.85736">
        <ele>936</ele>
        <time>2022-09-22T12:16:29Z</time>
      </trkpt>
      <trkpt lat="44.12649" lon="5.85735">
        <ele>936</ele>
        <time>2022-09-22T12:16:30Z</time>
      </trkpt>
      <trkpt lat="44.12648" lon="5.85734">
        <ele>936</ele>
        <time>2022-09-22T12:16:31Z</time>
      </trkpt>
      <trkpt lat="44.12647" lon="5.85733">
        <ele>936</ele>
        <time>2022-09-22T12:16:32Z</time>
      </trkpt>
      <trkpt lat="44.12646" lon="5.85732">
        <ele>936</ele>
        <time>2022-09-22T12:16:33Z</time>
      </trkpt>
      <trkpt lat="44.12645" lon="5.85731">
        <ele>936</ele>
        <time>2022-09-22T12:16:34Z</time>
      </trkpt>
      <trkpt lat="44.12644" lon="5.8573">
        <ele>935</ele>
        <time>2022-09-22T12:16:35Z</time>
      </trkpt>
      <trkpt lat="44.12643" lon="5.8573">
        <ele>935</ele>
        <time>2022-09-22T12:16:36Z</time>
      </trkpt>
      <trkpt lat="44.12642" lon="5.85729">
        <ele>935</ele>
        <time>2022-09-22T12:16:37Z</time>
      </trkpt>
      <trkpt lat="44.12641" lon="5.85728">
        <ele>935</ele>
        <time>2022-09-22T12:16:38Z</time>
      </trkpt>
      <trkpt lat="44.1264" lon="5.85728">
        <ele>935</ele>
        <time>2022-09-22T12:16:39Z</time>
      </trkpt>
      <trkpt lat="44.12638" lon="5.85727">
        <ele>935</ele>
        <time>2022-09-22T12:16:40Z</time>
      </trkpt>
      <trkpt lat="44.12637" lon="5.85727">
        <ele>935</ele>
        <time>2022-09-22T12:16:41Z</time>
      </trkpt>
      <trkpt lat="44.12636" lon="5.85726">
        <ele>935</ele>
        <time>2022-09-22T12:16:42Z</time>
      </trkpt>
      <trkpt lat="44.12636" lon="5.85726">
        <ele>935</ele>
        <time>2022-09-22T12:16:43Z</time>
      </trkpt>
      <trkpt lat="44.12635" lon="5.85725">
        <ele>935</ele>
        <time>2022-09-22T12:16:44Z</time>
      </trkpt>
      <trkpt lat="44.12634" lon="5.85725">
        <ele>934</ele>
        <time>2022-09-22T12:16:45Z</time>
      </trkpt>
      <trkpt lat="44.12633" lon="5.85725">
        <ele>934</ele>
        <time>2022-09-22T12:16:46Z</time>
      </trkpt>
      <trkpt lat="44.12632" lon="5.85725">
        <ele>934</ele>
        <time>2022-09-22T12:16:47Z</time>
      </trkpt>
      <trkpt lat="44.12631" lon="5.85725">
        <ele>934</ele>
        <time>2022-09-22T12:16:48Z</time>
      </trkpt>
      <trkpt lat="44.12631" lon="5.85725">
        <ele>934</ele>
        <time>2022-09-22T12:16:49Z</time>
      </trkpt>
      <trkpt lat="44.12631" lon="5.85726">
        <ele>933</ele>
        <time>2022-09-22T12:16:50Z</time>
      </trkpt>
      <trkpt lat="44.1263" lon="5.85727">
        <ele>933</ele>
        <time>2022-09-22T12:16:51Z</time>
      </trkpt>
      <trkpt lat="44.1263" lon="5.85728">
        <ele>933</ele>
        <time>2022-09-22T12:16:52Z</time>
      </trkpt>
      <trkpt lat="44.1263" lon="5.85729">
        <ele>933</ele>
        <time>2022-09-22T12:16:53Z</time>
      </trkpt>
      <trkpt lat="44.1263" lon="5.8573">
        <ele>933</ele>
        <time>2022-09-22T12:16:54Z</time>
      </trkpt>
      <trkpt lat="44.12629" lon="5.8573">
        <ele>932</ele>
        <time>2022-09-22T12:16:55Z</time>
      </trkpt>
      <trkpt lat="44.12628" lon="5.85731">
        <ele>932</ele>
        <time>2022-09-22T12:16:56Z</time>
      </trkpt>
      <trkpt lat="44.12628" lon="5.85732">
        <ele>932</ele>
        <time>2022-09-22T12:16:57Z</time>
      </trkpt>
      <trkpt lat="44.12628" lon="5.85734">
        <ele>932</ele>
        <time>2022-09-22T12:16:58Z</time>
      </trkpt>
      <trkpt lat="44.12627" lon="5.85735">
        <ele>932</ele>
        <time>2022-09-22T12:16:59Z</time>
      </trkpt>
      <trkpt lat="44.12627" lon="5.85736">
        <ele>931</ele>
        <time>2022-09-22T12:17:00Z</time>
      </trkpt>
      <trkpt lat="44.12627" lon="5.85737">
        <ele>931</ele>
        <time>2022-09-22T12:17:01Z</time>
      </trkpt>
      <trkpt lat="44.12627" lon="5.85738">
        <ele>931</ele>
        <time>2022-09-22T12:17:02Z</time>
      </trkpt>
      <trkpt lat="44.12627" lon="5.8574">
        <ele>931</ele>
        <time>2022-09-22T12:17:03Z</time>
      </trkpt>
      <trkpt lat="44.12627" lon="5.85741">
        <ele>931</ele>
        <time>2022-09-22T12:17:04Z</time>
      </trkpt>
      <trkpt lat="44.12627" lon="5.85742">
        <ele>930</ele>
        <time>2022-09-22T12:17:05Z</time>
      </trkpt>
      <trkpt lat="44.12627" lon="5.85744">
        <ele>930</ele>
        <time>2022-09-22T12:17:06Z</time>
      </trkpt>
      <trkpt lat="44.12627" lon="5.85745">
        <ele>930</ele>
        <time>2022-09-22T12:17:07Z</time>
      </trkpt>
      <trkpt lat="44.12627" lon="5.85746">
        <ele>930</ele>
        <time>2022-09-22T12:17:08Z</time>
      </trkpt>
      <trkpt lat="44.12628" lon="5.85747">
        <ele>930</ele>
        <time>2022-09-22T12:17:09Z</time>
      </trkpt>
      <trkpt lat="44.12628" lon="5.85748">
        <ele>930</ele>
        <time>2022-09-22T12:17:10Z</time>
      </trkpt>
      <trkpt lat="44.12628" lon="5.85749">
        <ele>930</ele>
        <time>2022-09-22T12:17:11Z</time>
      </trkpt>
      <trkpt lat="44.12629" lon="5.85751">
        <ele>930</ele>
        <time>2022-09-22T12:17:12Z</time>
      </trkpt>
      <trkpt lat="44.12629" lon="5.85752">
        <ele>930</ele>
        <time>2022-09-22T12:17:13Z</time>
      </trkpt>
      <trkpt lat="44.12629" lon="5.85753">
        <ele>930</ele>
        <time>2022-09-22T12:17:14Z</time>
      </trkpt>
      <trkpt lat="44.12629" lon="5.85754">
        <ele>929</ele>
        <time>2022-09-22T12:17:15Z</time>
      </trkpt>
      <trkpt lat="44.1263" lon="5.85755">
        <ele>929</ele>
        <time>2022-09-22T12:17:16Z</time>
      </trkpt>
      <trkpt lat="44.1263" lon="5.85757">
        <ele>928</ele>
        <time>2022-09-22T12:17:17Z</time>
      </trkpt>
      <trkpt lat="44.1263" lon="5.85758">
        <ele>928</ele>
        <time>2022-09-22T12:17:18Z</time>
      </trkpt>
      <trkpt lat="44.12631" lon="5.8576">
        <ele>928</ele>
        <time>2022-09-22T12:17:19Z</time>
      </trkpt>
      <trkpt lat="44.12631" lon="5.85761">
        <ele>928</ele>
        <time>2022-09-22T12:17:20Z</time>
      </trkpt>
      <trkpt lat="44.12632" lon="5.85762">
        <ele>928</ele>
        <time>2022-09-22T12:17:21Z</time>
      </trkpt>
      <trkpt lat="44.12632" lon="5.85764">
        <ele>928</ele>
        <time>2022-09-22T12:17:22Z</time>
      </trkpt>
      <trkpt lat="44.12632" lon="5.85765">
        <ele>928</ele>
        <time>2022-09-22T12:17:23Z</time>
      </trkpt>
      <trkpt lat="44.12633" lon="5.85766">
        <ele>928</ele>
        <time>2022-09-22T12:17:24Z</time>
      </trkpt>
      <trkpt lat="44.12633" lon="5.85768">
        <ele>927</ele>
        <time>2022-09-22T12:17:25Z</time>
      </trkpt>
      <trkpt lat="44.12633" lon="5.85769">
        <ele>927</ele>
        <time>2022-09-22T12:17:26Z</time>
      </trkpt>
      <trkpt lat="44.12634" lon="5.8577">
        <ele>927</ele>
        <time>2022-09-22T12:17:27Z</time>
      </trkpt>
      <trkpt lat="44.12634" lon="5.85772">
        <ele>927</ele>
        <time>2022-09-22T12:17:28Z</time>
      </trkpt>
      <trkpt lat="44.12634" lon="5.85773">
        <ele>927</ele>
        <time>2022-09-22T12:17:29Z</time>
      </trkpt>
      <trkpt lat="44.12634" lon="5.85775">
        <ele>927</ele>
        <time>2022-09-22T12:17:30Z</time>
      </trkpt>
      <trkpt lat="44.12634" lon="5.85776">
        <ele>927</ele>
        <time>2022-09-22T12:17:31Z</time>
      </trkpt>
      <trkpt lat="44.12633" lon="5.85778">
        <ele>927</ele>
        <time>2022-09-22T12:17:32Z</time>
      </trkpt>
      <trkpt lat="44.12633" lon="5.85779">
        <ele>927</ele>
        <time>2022-09-22T12:17:33Z</time>
      </trkpt>
      <trkpt lat="44.12633" lon="5.85781">
        <ele>927</ele>
        <time>2022-09-22T12:17:34Z</time>
      </trkpt>
      <trkpt lat="44.12633" lon="5.85782">
        <ele>927</ele>
        <time>2022-09-22T12:17:35Z</time>
      </trkpt>
      <trkpt lat="44.12634" lon="5.85784">
        <ele>927</ele>
        <time>2022-09-22T12:17:36Z</time>
      </trkpt>
      <trkpt lat="44.12634" lon="5.85786">
        <ele>927</ele>
        <time>2022-09-22T12:17:37Z</time>
      </trkpt>
      <trkpt lat="44.12634" lon="5.85787">
        <ele>927</ele>
        <time>2022-09-22T12:17:38Z</time>
      </trkpt>
      <trkpt lat="44.12634" lon="5.85789">
        <ele>927</ele>
        <time>2022-09-22T12:17:39Z</time>
      </trkpt>
      <trkpt lat="44.12634" lon="5.8579">
        <ele>926</ele>
        <time>2022-09-22T12:17:40Z</time>
      </trkpt>
      <trkpt lat="44.12634" lon="5.85792">
        <ele>926</ele>
        <time>2022-09-22T12:17:41Z</time>
      </trkpt>
      <trkpt lat="44.12634" lon="5.85793">
        <ele>926</ele>
        <time>2022-09-22T12:17:42Z</time>
      </trkpt>
      <trkpt lat="44.12634" lon="5.85795">
        <ele>926</ele>
        <time>2022-09-22T12:17:43Z</time>
      </trkpt>
      <trkpt lat="44.12634" lon="5.85797">
        <ele>926</ele>
        <time>2022-09-22T12:17:44Z</time>
      </trkpt>
      <trkpt lat="44.12634" lon="5.85798">
        <ele>926</ele>
        <time>2022-09-22T12:17:45Z</time>
      </trkpt>
      <trkpt lat="44.12635" lon="5.85799">
        <ele>926</ele>
        <time>2022-09-22T12:17:46Z</time>
      </trkpt>
      <trkpt lat="44.12635" lon="5.85801">
        <ele>926</ele>
        <time>2022-09-22T12:17:47Z</time>
      </trkpt>
      <trkpt lat="44.12635" lon="5.85802">
        <ele>926</ele>
        <time>2022-09-22T12:17:48Z</time>
      </trkpt>
      <trkpt lat="44.12635" lon="5.85803">
        <ele>926</ele>
        <time>2022-09-22T12:17:49Z</time>
      </trkpt>
      <trkpt lat="44.12636" lon="5.85804">
        <ele>925</ele>
        <time>2022-09-22T12:17:50Z</time>
      </trkpt>
      <trkpt lat="44.12636" lon="5.85806">
        <ele>925</ele>
        <time>2022-09-22T12:17:51Z</time>
      </trkpt>
      <trkpt lat="44.12636" lon="5.85808">
        <ele>925</ele>
        <time>2022-09-22T12:17:52Z</time>
      </trkpt>
      <trkpt lat="44.12636" lon="5.85809">
        <ele>925</ele>
        <time>2022-09-22T12:17:53Z</time>
      </trkpt>
      <trkpt lat="44.12637" lon="5.85811">
        <ele>925</ele>
        <time>2022-09-22T12:17:54Z</time>
      </trkpt>
      <trkpt lat="44.12636" lon="5.85812">
        <ele>925</ele>
        <time>2022-09-22T12:17:55Z</time>
      </trkpt>
      <trkpt lat="44.12636" lon="5.85814">
        <ele>925</ele>
        <time>2022-09-22T12:17:56Z</time>
      </trkpt>
      <trkpt lat="44.12636" lon="5.85816">
        <ele>925</ele>
        <time>2022-09-22T12:17:57Z</time>
      </trkpt>
      <trkpt lat="44.12636" lon="5.85817">
        <ele>925</ele>
        <time>2022-09-22T12:17:58Z</time>
      </trkpt>
      <trkpt lat="44.12635" lon="5.85819">
        <ele>925</ele>
        <time>2022-09-22T12:17:59Z</time>
      </trkpt>
      <trkpt lat="44.12635" lon="5.8582">
        <ele>925</ele>
        <time>2022-09-22T12:18:00Z</time>
      </trkpt>
      <trkpt lat="44.12634" lon="5.85822">
        <ele>925</ele>
        <time>2022-09-22T12:18:01Z</time>
      </trkpt>
      <trkpt lat="44.12634" lon="5.85823">
        <ele>925</ele>
        <time>2022-09-22T12:18:02Z</time>
      </trkpt>
      <trkpt lat="44.12633" lon="5.85824">
        <ele>925</ele>
        <time>2022-09-22T12:18:03Z</time>
      </trkpt>
      <trkpt lat="44.12633" lon="5.85826">
        <ele>925</ele>
        <time>2022-09-22T12:18:04Z</time>
      </trkpt>
      <trkpt lat="44.12632" lon="5.85827">
        <ele>924</ele>
        <time>2022-09-22T12:18:05Z</time>
      </trkpt>
      <trkpt lat="44.12632" lon="5.85828">
        <ele>924</ele>
        <time>2022-09-22T12:18:06Z</time>
      </trkpt>
      <trkpt lat="44.12631" lon="5.8583">
        <ele>924</ele>
        <time>2022-09-22T12:18:07Z</time>
      </trkpt>
      <trkpt lat="44.12631" lon="5.85831">
        <ele>924</ele>
        <time>2022-09-22T12:18:08Z</time>
      </trkpt>
      <trkpt lat="44.1263" lon="5.85833">
        <ele>924</ele>
        <time>2022-09-22T12:18:09Z</time>
      </trkpt>
      <trkpt lat="44.1263" lon="5.85834">
        <ele>924</ele>
        <time>2022-09-22T12:18:10Z</time>
      </trkpt>
      <trkpt lat="44.1263" lon="5.85835">
        <ele>924</ele>
        <time>2022-09-22T12:18:11Z</time>
      </trkpt>
      <trkpt lat="44.12629" lon="5.85837">
        <ele>924</ele>
        <time>2022-09-22T12:18:12Z</time>
      </trkpt>
      <trkpt lat="44.12629" lon="5.85838">
        <ele>924</ele>
        <time>2022-09-22T12:18:13Z</time>
      </trkpt>
      <trkpt lat="44.12629" lon="5.85839">
        <ele>924</ele>
        <time>2022-09-22T12:18:14Z</time>
      </trkpt>
      <trkpt lat="44.12629" lon="5.8584">
        <ele>924</ele>
        <time>2022-09-22T12:18:15Z</time>
      </trkpt>
      <trkpt lat="44.12628" lon="5.85842">
        <ele>924</ele>
        <time>2022-09-22T12:18:16Z</time>
      </trkpt>
      <trkpt lat="44.12628" lon="5.85843">
        <ele>924</ele>
        <time>2022-09-22T12:18:17Z</time>
      </trkpt>
      <trkpt lat="44.12628" lon="5.85844">
        <ele>924</ele>
        <time>2022-09-22T12:18:18Z</time>
      </trkpt>
      <trkpt lat="44.12627" lon="5.85845">
        <ele>924</ele>
        <time>2022-09-22T12:18:19Z</time>
      </trkpt>
      <trkpt lat="44.12627" lon="5.85846">
        <ele>924</ele>
        <time>2022-09-22T12:18:20Z</time>
      </trkpt>
      <trkpt lat="44.12627" lon="5.85848">
        <ele>924</ele>
        <time>2022-09-22T12:18:21Z</time>
      </trkpt>
      <trkpt lat="44.12627" lon="5.85849">
        <ele>924</ele>
        <time>2022-09-22T12:18:22Z</time>
      </trkpt>
      <trkpt lat="44.12626" lon="5.8585">
        <ele>924</ele>
        <time>2022-09-22T12:18:23Z</time>
      </trkpt>
      <trkpt lat="44.12626" lon="5.85851">
        <ele>924</ele>
        <time>2022-09-22T12:18:24Z</time>
      </trkpt>
      <trkpt lat="44.12626" lon="5.85853">
        <ele>923</ele>
        <time>2022-09-22T12:18:25Z</time>
      </trkpt>
      <trkpt lat="44.12626" lon="5.85854">
        <ele>923</ele>
        <time>2022-09-22T12:18:26Z</time>
      </trkpt>
      <trkpt lat="44.12625" lon="5.85855">
        <ele>923</ele>
        <time>2022-09-22T12:18:27Z</time>
      </trkpt>
      <trkpt lat="44.12625" lon="5.85857">
        <ele>923</ele>
        <time>2022-09-22T12:18:28Z</time>
      </trkpt>
      <trkpt lat="44.12624" lon="5.85858">
        <ele>923</ele>
        <time>2022-09-22T12:18:29Z</time>
      </trkpt>
      <trkpt lat="44.12624" lon="5.85859">
        <ele>923</ele>
        <time>2022-09-22T12:18:30Z</time>
      </trkpt>
      <trkpt lat="44.12623" lon="5.8586">
        <ele>923</ele>
        <time>2022-09-22T12:18:31Z</time>
      </trkpt>
      <trkpt lat="44.12623" lon="5.85861">
        <ele>923</ele>
        <time>2022-09-22T12:18:32Z</time>
      </trkpt>
      <trkpt lat="44.12623" lon="5.85862">
        <ele>923</ele>
        <time>2022-09-22T12:18:33Z</time>
      </trkpt>
      <trkpt lat="44.12623" lon="5.85864">
        <ele>923</ele>
        <time>2022-09-22T12:18:34Z</time>
      </trkpt>
      <trkpt lat="44.12622" lon="5.85866">
        <ele>923</ele>
        <time>2022-09-22T12:18:35Z</time>
      </trkpt>
      <trkpt lat="44.12622" lon="5.85867">
        <ele>923</ele>
        <time>2022-09-22T12:18:36Z</time>
      </trkpt>
      <trkpt lat="44.12622" lon="5.85869">
        <ele>923</ele>
        <time>2022-09-22T12:18:37Z</time>
      </trkpt>
      <trkpt lat="44.12622" lon="5.85871">
        <ele>923</ele>
        <time>2022-09-22T12:18:38Z</time>
      </trkpt>
      <trkpt lat="44.12621" lon="5.85872">
        <ele>923</ele>
        <time>2022-09-22T12:18:39Z</time>
      </trkpt>
      <trkpt lat="44.1262" lon="5.85874">
        <ele>922</ele>
        <time>2022-09-22T12:18:40Z</time>
      </trkpt>
      <trkpt lat="44.1262" lon="5.85875">
        <ele>922</ele>
        <time>2022-09-22T12:18:41Z</time>
      </trkpt>
      <trkpt lat="44.1262" lon="5.85877">
        <ele>922</ele>
        <time>2022-09-22T12:18:42Z</time>
      </trkpt>
      <trkpt lat="44.12619" lon="5.85879">
        <ele>922</ele>
        <time>2022-09-22T12:18:43Z</time>
      </trkpt>
      <trkpt lat="44.12619" lon="5.8588">
        <ele>922</ele>
        <time>2022-09-22T12:18:44Z</time>
      </trkpt>
      <trkpt lat="44.12619" lon="5.85882">
        <ele>922</ele>
        <time>2022-09-22T12:18:45Z</time>
      </trkpt>
      <trkpt lat="44.12619" lon="5.85883">
        <ele>922</ele>
        <time>2022-09-22T12:18:46Z</time>
      </trkpt>
      <trkpt lat="44.12619" lon="5.85885">
        <ele>922</ele>
        <time>2022-09-22T12:18:47Z</time>
      </trkpt>
      <trkpt lat="44.12619" lon="5.85886">
        <ele>922</ele>
        <time>2022-09-22T12:18:48Z</time>
      </trkpt>
      <trkpt lat="44.12619" lon="5.85888">
        <ele>922</ele>
        <time>2022-09-22T12:18:49Z</time>
      </trkpt>
      <trkpt lat="44.12618" lon="5.85889">
        <ele>922</ele>
        <time>2022-09-22T12:18:50Z</time>
      </trkpt>
      <trkpt lat="44.12618" lon="5.85891">
        <ele>922</ele>
        <time>2022-09-22T12:18:51Z</time>
      </trkpt>
      <trkpt lat="44.12617" lon="5.85892">
        <ele>922</ele>
        <time>2022-09-22T12:18:52Z</time>
      </trkpt>
      <trkpt lat="44.12617" lon="5.85893">
        <ele>922</ele>
        <time>2022-09-22T12:18:53Z</time>
      </trkpt>
      <trkpt lat="44.12617" lon="5.85895">
        <ele>922</ele>
        <time>2022-09-22T12:18:54Z</time>
      </trkpt>
      <trkpt lat="44.12617" lon="5.85896">
        <ele>921</ele>
        <time>2022-09-22T12:18:55Z</time>
      </trkpt>
      <trkpt lat="44.12616" lon="5.85898">
        <ele>921</ele>
        <time>2022-09-22T12:18:56Z</time>
      </trkpt>
      <trkpt lat="44.12616" lon="5.85899">
        <ele>921</ele>
        <time>2022-09-22T12:18:57Z</time>
      </trkpt>
      <trkpt lat="44.12616" lon="5.85901">
        <ele>921</ele>
        <time>2022-09-22T12:18:58Z</time>
      </trkpt>
      <trkpt lat="44.12615" lon="5.85902">
        <ele>921</ele>
        <time>2022-09-22T12:18:59Z</time>
      </trkpt>
      <trkpt lat="44.12615" lon="5.85903">
        <ele>921</ele>
        <time>2022-09-22T12:19:00Z</time>
      </trkpt>
      <trkpt lat="44.12614" lon="5.85904">
        <ele>921</ele>
        <time>2022-09-22T12:19:01Z</time>
      </trkpt>
      <trkpt lat="44.12613" lon="5.85905">
        <ele>921</ele>
        <time>2022-09-22T12:19:02Z</time>
      </trkpt>
      <trkpt lat="44.12612" lon="5.85906">
        <ele>921</ele>
        <time>2022-09-22T12:19:03Z</time>
      </trkpt>
      <trkpt lat="44.12611" lon="5.85907">
        <ele>921</ele>
        <time>2022-09-22T12:19:04Z</time>
      </trkpt>
      <trkpt lat="44.12611" lon="5.85909">
        <ele>920</ele>
        <time>2022-09-22T12:19:05Z</time>
      </trkpt>
      <trkpt lat="44.1261" lon="5.8591">
        <ele>920</ele>
        <time>2022-09-22T12:19:06Z</time>
      </trkpt>
      <trkpt lat="44.12609" lon="5.85911">
        <ele>920</ele>
        <time>2022-09-22T12:19:07Z</time>
      </trkpt>
      <trkpt lat="44.12609" lon="5.85912">
        <ele>920</ele>
        <time>2022-09-22T12:19:08Z</time>
      </trkpt>
      <trkpt lat="44.12608" lon="5.85914">
        <ele>920</ele>
        <time>2022-09-22T12:19:09Z</time>
      </trkpt>
      <trkpt lat="44.12608" lon="5.85915">
        <ele>920</ele>
        <time>2022-09-22T12:19:10Z</time>
      </trkpt>
      <trkpt lat="44.12607" lon="5.85917">
        <ele>920</ele>
        <time>2022-09-22T12:19:11Z</time>
      </trkpt>
      <trkpt lat="44.12607" lon="5.85919">
        <ele>920</ele>
        <time>2022-09-22T12:19:12Z</time>
      </trkpt>
      <trkpt lat="44.12606" lon="5.8592">
        <ele>920</ele>
        <time>2022-09-22T12:19:13Z</time>
      </trkpt>
      <trkpt lat="44.12606" lon="5.85921">
        <ele>920</ele>
        <time>2022-09-22T12:19:14Z</time>
      </trkpt>
      <trkpt lat="44.12606" lon="5.85922">
        <ele>920</ele>
        <time>2022-09-22T12:19:15Z</time>
      </trkpt>
      <trkpt lat="44.12605" lon="5.85924">
        <ele>920</ele>
        <time>2022-09-22T12:19:16Z</time>
      </trkpt>
      <trkpt lat="44.12605" lon="5.85925">
        <ele>920</ele>
        <time>2022-09-22T12:19:17Z</time>
      </trkpt>
      <trkpt lat="44.12605" lon="5.85926">
        <ele>920</ele>
        <time>2022-09-22T12:19:18Z</time>
      </trkpt>
      <trkpt lat="44.12604" lon="5.85927">
        <ele>920</ele>
        <time>2022-09-22T12:19:19Z</time>
      </trkpt>
      <trkpt lat="44.12604" lon="5.85929">
        <ele>920</ele>
        <time>2022-09-22T12:19:20Z</time>
      </trkpt>
      <trkpt lat="44.12604" lon="5.8593">
        <ele>920</ele>
        <time>2022-09-22T12:19:21Z</time>
      </trkpt>
      <trkpt lat="44.12604" lon="5.85932">
        <ele>920</ele>
        <time>2022-09-22T12:19:22Z</time>
      </trkpt>
      <trkpt lat="44.12604" lon="5.85933">
        <ele>920</ele>
        <time>2022-09-22T12:19:23Z</time>
      </trkpt>
      <trkpt lat="44.12605" lon="5.85935">
        <ele>920</ele>
        <time>2022-09-22T12:19:24Z</time>
      </trkpt>
      <trkpt lat="44.12605" lon="5.85936">
        <ele>920</ele>
        <time>2022-09-22T12:19:25Z</time>
      </trkpt>
      <trkpt lat="44.12606" lon="5.85938">
        <ele>920</ele>
        <time>2022-09-22T12:19:26Z</time>
      </trkpt>
      <trkpt lat="44.12606" lon="5.8594">
        <ele>920</ele>
        <time>2022-09-22T12:19:27Z</time>
      </trkpt>
      <trkpt lat="44.12607" lon="5.85941">
        <ele>920</ele>
        <time>2022-09-22T12:19:28Z</time>
      </trkpt>
      <trkpt lat="44.12607" lon="5.85942">
        <ele>921</ele>
        <time>2022-09-22T12:19:29Z</time>
      </trkpt>
      <trkpt lat="44.12607" lon="5.85944">
        <ele>921</ele>
        <time>2022-09-22T12:19:30Z</time>
      </trkpt>
      <trkpt lat="44.12606" lon="5.85946">
        <ele>922</ele>
        <time>2022-09-22T12:20:46Z</time>
      </trkpt>
      <trkpt lat="44.12606" lon="5.85947">
        <ele>922</ele>
        <time>2022-09-22T12:20:47Z</time>
      </trkpt>
      <trkpt lat="44.12605" lon="5.85948">
        <ele>922</ele>
        <time>2022-09-22T12:20:48Z</time>
      </trkpt>
      <trkpt lat="44.12603" lon="5.85948">
        <ele>922</ele>
        <time>2022-09-22T12:21:11Z</time>
      </trkpt>
      <trkpt lat="44.12603" lon="5.85949">
        <ele>922</ele>
        <time>2022-09-22T12:21:12Z</time>
      </trkpt>
      <trkpt lat="44.12602" lon="5.85949">
        <ele>922</ele>
        <time>2022-09-22T12:21:13Z</time>
      </trkpt>
      <trkpt lat="44.12602" lon="5.8595">
        <ele>922</ele>
        <time>2022-09-22T12:21:25Z</time>
      </trkpt>
      <trkpt lat="44.12602" lon="5.85951">
        <ele>922</ele>
        <time>2022-09-22T12:21:26Z</time>
      </trkpt>
      <trkpt lat="44.12602" lon="5.85952">
        <ele>922</ele>
        <time>2022-09-22T12:21:27Z</time>
      </trkpt>
      <trkpt lat="44.12602" lon="5.85952">
        <ele>922</ele>
        <time>2022-09-22T12:21:28Z</time>
      </trkpt>
      <trkpt lat="44.12602" lon="5.85953">
        <ele>922</ele>
        <time>2022-09-22T12:21:29Z</time>
      </trkpt>
      <trkpt lat="44.12603" lon="5.85954">
        <ele>922</ele>
        <time>2022-09-22T12:21:30Z</time>
      </trkpt>
      <trkpt lat="44.12603" lon="5.85955">
        <ele>922</ele>
        <time>2022-09-22T12:21:31Z</time>
      </trkpt>
      <trkpt lat="44.12603" lon="5.85956">
        <ele>922</ele>
        <time>2022-09-22T12:21:32Z</time>
      </trkpt>
      <trkpt lat="44.12603" lon="5.85957">
        <ele>922</ele>
        <time>2022-09-22T12:21:33Z</time>
      </trkpt>
      <trkpt lat="44.12603" lon="5.85958">
        <ele>923</ele>
        <time>2022-09-22T12:21:34Z</time>
      </trkpt>
      <trkpt lat="44.12603" lon="5.85959">
        <ele>923</ele>
        <time>2022-09-22T12:21:35Z</time>
      </trkpt>
      <trkpt lat="44.12603" lon="5.8596">
        <ele>923</ele>
        <time>2022-09-22T12:21:36Z</time>
      </trkpt>
      <trkpt lat="44.12603" lon="5.85961">
        <ele>923</ele>
        <time>2022-09-22T12:21:37Z</time>
      </trkpt>
      <trkpt lat="44.12603" lon="5.85962">
        <ele>923</ele>
        <time>2022-09-22T12:21:38Z</time>
      </trkpt>
      <trkpt lat="44.12603" lon="5.85963">
        <ele>923</ele>
        <time>2022-09-22T12:21:39Z</time>
      </trkpt>
      <trkpt lat="44.12603" lon="5.85964">
        <ele>923</ele>
        <time>2022-09-22T12:21:40Z</time>
      </trkpt>
      <trkpt lat="44.12604" lon="5.85966">
        <ele>923</ele>
        <time>2022-09-22T12:21:41Z</time>
      </trkpt>
      <trkpt lat="44.12604" lon="5.85967">
        <ele>923</ele>
        <time>2022-09-22T12:21:42Z</time>
      </trkpt>
      <trkpt lat="44.12604" lon="5.85968">
        <ele>923</ele>
        <time>2022-09-22T12:21:43Z</time>
      </trkpt>
      <trkpt lat="44.12604" lon="5.85969">
        <ele>923</ele>
        <time>2022-09-22T12:21:44Z</time>
      </trkpt>
      <trkpt lat="44.12604" lon="5.8597">
        <ele>923</ele>
        <time>2022-09-22T12:21:45Z</time>
      </trkpt>
      <trkpt lat="44.12604" lon="5.85972">
        <ele>923</ele>
        <time>2022-09-22T12:21:46Z</time>
      </trkpt>
      <trkpt lat="44.12604" lon="5.85973">
        <ele>923</ele>
        <time>2022-09-22T12:21:47Z</time>
      </trkpt>
      <trkpt lat="44.12605" lon="5.85974">
        <ele>923</ele>
        <time>2022-09-22T12:21:48Z</time>
      </trkpt>
      <trkpt lat="44.12605" lon="5.85976">
        <ele>924</ele>
        <time>2022-09-22T12:21:49Z</time>
      </trkpt>
      <trkpt lat="44.12606" lon="5.85977">
        <ele>924</ele>
        <time>2022-09-22T12:21:50Z</time>
      </trkpt>
      <trkpt lat="44.12606" lon="5.85978">
        <ele>924</ele>
        <time>2022-09-22T12:21:51Z</time>
      </trkpt>
      <trkpt lat="44.12606" lon="5.8598">
        <ele>924</ele>
        <time>2022-09-22T12:21:52Z</time>
      </trkpt>
      <trkpt lat="44.12606" lon="5.85981">
        <ele>924</ele>
        <time>2022-09-22T12:21:53Z</time>
      </trkpt>
      <trkpt lat="44.12606" lon="5.85982">
        <ele>924</ele>
        <time>2022-09-22T12:21:54Z</time>
      </trkpt>
      <trkpt lat="44.12605" lon="5.85984">
        <ele>924</ele>
        <time>2022-09-22T12:21:55Z</time>
      </trkpt>
      <trkpt lat="44.12605" lon="5.85985">
        <ele>924</ele>
        <time>2022-09-22T12:21:56Z</time>
      </trkpt>
      <trkpt lat="44.12605" lon="5.85986">
        <ele>924</ele>
        <time>2022-09-22T12:21:57Z</time>
      </trkpt>
      <trkpt lat="44.12605" lon="5.85988">
        <ele>924</ele>
        <time>2022-09-22T12:21:58Z</time>
      </trkpt>
      <trkpt lat="44.12605" lon="5.85989">
        <ele>925</ele>
        <time>2022-09-22T12:21:59Z</time>
      </trkpt>
      <trkpt lat="44.12605" lon="5.8599">
        <ele>925</ele>
        <time>2022-09-22T12:22:00Z</time>
      </trkpt>
      <trkpt lat="44.12606" lon="5.85991">
        <ele>925</ele>
        <time>2022-09-22T12:22:01Z</time>
      </trkpt>
      <trkpt lat="44.12606" lon="5.85993">
        <ele>925</ele>
        <time>2022-09-22T12:22:02Z</time>
      </trkpt>
      <trkpt lat="44.12607" lon="5.85994">
        <ele>925</ele>
        <time>2022-09-22T12:22:03Z</time>
      </trkpt>
      <trkpt lat="44.12607" lon="5.85995">
        <ele>925</ele>
        <time>2022-09-22T12:22:04Z</time>
      </trkpt>
      <trkpt lat="44.12607" lon="5.85996">
        <ele>925</ele>
        <time>2022-09-22T12:22:05Z</time>
      </trkpt>
      <trkpt lat="44.12607" lon="5.85997">
        <ele>925</ele>
        <time>2022-09-22T12:22:06Z</time>
      </trkpt>
      <trkpt lat="44.12606" lon="5.85999">
        <ele>925</ele>
        <time>2022-09-22T12:22:07Z</time>
      </trkpt>
      <trkpt lat="44.12606" lon="5.86">
        <ele>925</ele>
        <time>2022-09-22T12:22:08Z</time>
      </trkpt>
      <trkpt lat="44.12605" lon="5.86001">
        <ele>926</ele>
        <time>2022-09-22T12:22:09Z</time>
      </trkpt>
      <trkpt lat="44.12605" lon="5.86003">
        <ele>926</ele>
        <time>2022-09-22T12:22:10Z</time>
      </trkpt>
      <trkpt lat="44.12605" lon="5.86004">
        <ele>926</ele>
        <time>2022-09-22T12:22:11Z</time>
      </trkpt>
      <trkpt lat="44.12604" lon="5.86006">
        <ele>926</ele>
        <time>2022-09-22T12:22:12Z</time>
      </trkpt>
      <trkpt lat="44.12604" lon="5.86007">
        <ele>926</ele>
        <time>2022-09-22T12:22:13Z</time>
      </trkpt>
      <trkpt lat="44.12604" lon="5.86009">
        <ele>926</ele>
        <time>2022-09-22T12:22:14Z</time>
      </trkpt>
      <trkpt lat="44.12604" lon="5.8601">
        <ele>926</ele>
        <time>2022-09-22T12:22:15Z</time>
      </trkpt>
      <trkpt lat="44.12604" lon="5.86012">
        <ele>926</ele>
        <time>2022-09-22T12:22:16Z</time>
      </trkpt>
      <trkpt lat="44.12604" lon="5.86013">
        <ele>926</ele>
        <time>2022-09-22T12:22:17Z</time>
      </trkpt>
      <trkpt lat="44.12604" lon="5.86015">
        <ele>926</ele>
        <time>2022-09-22T12:22:18Z</time>
      </trkpt>
      <trkpt lat="44.12604" lon="5.86016">
        <ele>926</ele>
        <time>2022-09-22T12:22:19Z</time>
      </trkpt>
      <trkpt lat="44.12605" lon="5.86018">
        <ele>926</ele>
        <time>2022-09-22T12:22:20Z</time>
      </trkpt>
      <trkpt lat="44.12605" lon="5.86019">
        <ele>926</ele>
        <time>2022-09-22T12:22:21Z</time>
      </trkpt>
      <trkpt lat="44.12605" lon="5.86021">
        <ele>926</ele>
        <time>2022-09-22T12:22:22Z</time>
      </trkpt>
      <trkpt lat="44.12605" lon="5.86022">
        <ele>926</ele>
        <time>2022-09-22T12:22:23Z</time>
      </trkpt>
      <trkpt lat="44.12605" lon="5.86024">
        <ele>927</ele>
        <time>2022-09-22T12:22:24Z</time>
      </trkpt>
      <trkpt lat="44.12605" lon="5.86026">
        <ele>927</ele>
        <time>2022-09-22T12:22:25Z</time>
      </trkpt>
      <trkpt lat="44.12605" lon="5.86027">
        <ele>927</ele>
        <time>2022-09-22T12:22:26Z</time>
      </trkpt>
      <trkpt lat="44.12604" lon="5.86028">
        <ele>927</ele>
        <time>2022-09-22T12:22:27Z</time>
      </trkpt>
      <trkpt lat="44.12604" lon="5.8603">
        <ele>927</ele>
        <time>2022-09-22T12:22:28Z</time>
      </trkpt>
      <trkpt lat="44.12604" lon="5.86031">
        <ele>927</ele>
        <time>2022-09-22T12:22:29Z</time>
      </trkpt>
      <trkpt lat="44.12604" lon="5.86032">
        <ele>927</ele>
        <time>2022-09-22T12:22:30Z</time>
      </trkpt>
      <trkpt lat="44.12603" lon="5.86033">
        <ele>927</ele>
        <time>2022-09-22T12:22:31Z</time>
      </trkpt>
      <trkpt lat="44.12603" lon="5.86034">
        <ele>927</ele>
        <time>2022-09-22T12:22:32Z</time>
      </trkpt>
      <trkpt lat="44.12603" lon="5.86035">
        <ele>927</ele>
        <time>2022-09-22T12:22:33Z</time>
      </trkpt>
      <trkpt lat="44.12603" lon="5.86036">
        <ele>928</ele>
        <time>2022-09-22T12:22:34Z</time>
      </trkpt>
      <trkpt lat="44.12603" lon="5.86038">
        <ele>928</ele>
        <time>2022-09-22T12:22:35Z</time>
      </trkpt>
      <trkpt lat="44.12603" lon="5.86039">
        <ele>928</ele>
        <time>2022-09-22T12:22:36Z</time>
      </trkpt>
      <trkpt lat="44.12603" lon="5.86041">
        <ele>928</ele>
        <time>2022-09-22T12:22:37Z</time>
      </trkpt>
      <trkpt lat="44.12603" lon="5.86042">
        <ele>928</ele>
        <time>2022-09-22T12:22:38Z</time>
      </trkpt>
      <trkpt lat="44.12602" lon="5.86043">
        <ele>928</ele>
        <time>2022-09-22T12:22:39Z</time>
      </trkpt>
      <trkpt lat="44.12602" lon="5.86044">
        <ele>928</ele>
        <time>2022-09-22T12:22:40Z</time>
      </trkpt>
      <trkpt lat="44.12602" lon="5.86045">
        <ele>928</ele>
        <time>2022-09-22T12:22:41Z</time>
      </trkpt>
      <trkpt lat="44.12602" lon="5.86046">
        <ele>928</ele>
        <time>2022-09-22T12:22:42Z</time>
      </trkpt>
      <trkpt lat="44.12602" lon="5.86047">
        <ele>928</ele>
        <time>2022-09-22T12:22:43Z</time>
      </trkpt>
      <trkpt lat="44.12602" lon="5.86048">
        <ele>928</ele>
        <time>2022-09-22T12:22:44Z</time>
      </trkpt>
      <trkpt lat="44.12602" lon="5.86049">
        <ele>928</ele>
        <time>2022-09-22T12:22:45Z</time>
      </trkpt>
      <trkpt lat="44.12602" lon="5.86051">
        <ele>928</ele>
        <time>2022-09-22T12:22:46Z</time>
      </trkpt>
      <trkpt lat="44.12602" lon="5.86052">
        <ele>929</ele>
        <time>2022-09-22T12:22:47Z</time>
      </trkpt>
      <trkpt lat="44.12602" lon="5.86054">
        <ele>929</ele>
        <time>2022-09-22T12:22:48Z</time>
      </trkpt>
      <trkpt lat="44.12602" lon="5.86055">
        <ele>930</ele>
        <time>2022-09-22T12:22:49Z</time>
      </trkpt>
      <trkpt lat="44.12602" lon="5.86057">
        <ele>930</ele>
        <time>2022-09-22T12:22:50Z</time>
      </trkpt>
      <trkpt lat="44.12602" lon="5.86058">
        <ele>930</ele>
        <time>2022-09-22T12:22:51Z</time>
      </trkpt>
      <trkpt lat="44.12602" lon="5.8606">
        <ele>930</ele>
        <time>2022-09-22T12:22:52Z</time>
      </trkpt>
      <trkpt lat="44.12603" lon="5.86061">
        <ele>930</ele>
        <time>2022-09-22T12:22:53Z</time>
      </trkpt>
      <trkpt lat="44.12604" lon="5.86062">
        <ele>930</ele>
        <time>2022-09-22T12:22:54Z</time>
      </trkpt>
      <trkpt lat="44.12604" lon="5.86064">
        <ele>930</ele>
        <time>2022-09-22T12:22:55Z</time>
      </trkpt>
      <trkpt lat="44.12604" lon="5.86065">
        <ele>930</ele>
        <time>2022-09-22T12:22:56Z</time>
      </trkpt>
      <trkpt lat="44.12605" lon="5.86066">
        <ele>930</ele>
        <time>2022-09-22T12:22:57Z</time>
      </trkpt>
      <trkpt lat="44.12605" lon="5.86068">
        <ele>930</ele>
        <time>2022-09-22T12:22:58Z</time>
      </trkpt>
      <trkpt lat="44.12605" lon="5.86069">
        <ele>930</ele>
        <time>2022-09-22T12:22:59Z</time>
      </trkpt>
      <trkpt lat="44.12605" lon="5.8607">
        <ele>930</ele>
        <time>2022-09-22T12:23:00Z</time>
      </trkpt>
      <trkpt lat="44.12604" lon="5.86072">
        <ele>930</ele>
        <time>2022-09-22T12:23:01Z</time>
      </trkpt>
      <trkpt lat="44.12604" lon="5.86073">
        <ele>930</ele>
        <time>2022-09-22T12:23:02Z</time>
      </trkpt>
      <trkpt lat="44.12604" lon="5.86075">
        <ele>930</ele>
        <time>2022-09-22T12:23:03Z</time>
      </trkpt>
      <trkpt lat="44.12604" lon="5.86076">
        <ele>930</ele>
        <time>2022-09-22T12:23:04Z</time>
      </trkpt>
      <trkpt lat="44.12604" lon="5.86078">
        <ele>930</ele>
        <time>2022-09-22T12:23:05Z</time>
      </trkpt>
      <trkpt lat="44.12604" lon="5.86079">
        <ele>930</ele>
        <time>2022-09-22T12:23:06Z</time>
      </trkpt>
      <trkpt lat="44.12604" lon="5.86081">
        <ele>930</ele>
        <time>2022-09-22T12:23:07Z</time>
      </trkpt>
      <trkpt lat="44.12604" lon="5.86082">
        <ele>930</ele>
        <time>2022-09-22T12:23:08Z</time>
      </trkpt>
      <trkpt lat="44.12605" lon="5.86083">
        <ele>930</ele>
        <time>2022-09-22T12:23:09Z</time>
      </trkpt>
      <trkpt lat="44.12605" lon="5.86084">
        <ele>930</ele>
        <time>2022-09-22T12:23:10Z</time>
      </trkpt>
      <trkpt lat="44.12606" lon="5.86085">
        <ele>930</ele>
        <time>2022-09-22T12:23:11Z</time>
      </trkpt>
      <trkpt lat="44.12607" lon="5.86086">
        <ele>930</ele>
        <time>2022-09-22T12:23:12Z</time>
      </trkpt>
      <trkpt lat="44.12608" lon="5.86088">
        <ele>930</ele>
        <time>2022-09-22T12:23:13Z</time>
      </trkpt>
      <trkpt lat="44.12608" lon="5.86089">
        <ele>930</ele>
        <time>2022-09-22T12:23:14Z</time>
      </trkpt>
      <trkpt lat="44.12609" lon="5.86091">
        <ele>930</ele>
        <time>2022-09-22T12:23:15Z</time>
      </trkpt>
      <trkpt lat="44.12609" lon="5.86092">
        <ele>930</ele>
        <time>2022-09-22T12:23:16Z</time>
      </trkpt>
      <trkpt lat="44.12609" lon="5.86094">
        <ele>930</ele>
        <time>2022-09-22T12:23:17Z</time>
      </trkpt>
      <trkpt lat="44.1261" lon="5.86095">
        <ele>930</ele>
        <time>2022-09-22T12:23:18Z</time>
      </trkpt>
      <trkpt lat="44.1261" lon="5.86097">
        <ele>930</ele>
        <time>2022-09-22T12:23:19Z</time>
      </trkpt>
      <trkpt lat="44.1261" lon="5.86099">
        <ele>929</ele>
        <time>2022-09-22T12:23:20Z</time>
      </trkpt>
      <trkpt lat="44.1261" lon="5.861">
        <ele>929</ele>
        <time>2022-09-22T12:23:21Z</time>
      </trkpt>
      <trkpt lat="44.12611" lon="5.86102">
        <ele>928</ele>
        <time>2022-09-22T12:23:22Z</time>
      </trkpt>
      <trkpt lat="44.12611" lon="5.86103">
        <ele>928</ele>
        <time>2022-09-22T12:23:23Z</time>
      </trkpt>
      <trkpt lat="44.12611" lon="5.86105">
        <ele>928</ele>
        <time>2022-09-22T12:23:24Z</time>
      </trkpt>
      <trkpt lat="44.12611" lon="5.86106">
        <ele>928</ele>
        <time>2022-09-22T12:23:25Z</time>
      </trkpt>
      <trkpt lat="44.12611" lon="5.86107">
        <ele>928</ele>
        <time>2022-09-22T12:23:26Z</time>
      </trkpt>
      <trkpt lat="44.12611" lon="5.86109">
        <ele>928</ele>
        <time>2022-09-22T12:23:27Z</time>
      </trkpt>
      <trkpt lat="44.12611" lon="5.8611">
        <ele>928</ele>
        <time>2022-09-22T12:23:28Z</time>
      </trkpt>
      <trkpt lat="44.12611" lon="5.86112">
        <ele>928</ele>
        <time>2022-09-22T12:23:29Z</time>
      </trkpt>
      <trkpt lat="44.12611" lon="5.86113">
        <ele>928</ele>
        <time>2022-09-22T12:23:30Z</time>
      </trkpt>
      <trkpt lat="44.12611" lon="5.86114">
        <ele>928</ele>
        <time>2022-09-22T12:23:31Z</time>
      </trkpt>
      <trkpt lat="44.12611" lon="5.86116">
        <ele>928</ele>
        <time>2022-09-22T12:23:32Z</time>
      </trkpt>
      <trkpt lat="44.12611" lon="5.86117">
        <ele>928</ele>
        <time>2022-09-22T12:23:33Z</time>
      </trkpt>
      <trkpt lat="44.12612" lon="5.86118">
        <ele>928</ele>
        <time>2022-09-22T12:23:34Z</time>
      </trkpt>
      <trkpt lat="44.12612" lon="5.86119">
        <ele>928</ele>
        <time>2022-09-22T12:23:35Z</time>
      </trkpt>
      <trkpt lat="44.12612" lon="5.8612">
        <ele>928</ele>
        <time>2022-09-22T12:23:36Z</time>
      </trkpt>
      <trkpt lat="44.12612" lon="5.86122">
        <ele>928</ele>
        <time>2022-09-22T12:23:37Z</time>
      </trkpt>
      <trkpt lat="44.12613" lon="5.86123">
        <ele>928</ele>
        <time>2022-09-22T12:23:38Z</time>
      </trkpt>
      <trkpt lat="44.12613" lon="5.86124">
        <ele>928</ele>
        <time>2022-09-22T12:23:39Z</time>
      </trkpt>
      <trkpt lat="44.12613" lon="5.86126">
        <ele>927</ele>
        <time>2022-09-22T12:23:40Z</time>
      </trkpt>
      <trkpt lat="44.12613" lon="5.86127">
        <ele>927</ele>
        <time>2022-09-22T12:23:41Z</time>
      </trkpt>
      <trkpt lat="44.12614" lon="5.86129">
        <ele>927</ele>
        <time>2022-09-22T12:23:42Z</time>
      </trkpt>
      <trkpt lat="44.12614" lon="5.8613">
        <ele>927</ele>
        <time>2022-09-22T12:23:43Z</time>
      </trkpt>
      <trkpt lat="44.12614" lon="5.86132">
        <ele>927</ele>
        <time>2022-09-22T12:23:44Z</time>
      </trkpt>
      <trkpt lat="44.12615" lon="5.86133">
        <ele>927</ele>
        <time>2022-09-22T12:23:45Z</time>
      </trkpt>
      <trkpt lat="44.12616" lon="5.86134">
        <ele>927</ele>
        <time>2022-09-22T12:23:46Z</time>
      </trkpt>
      <trkpt lat="44.12616" lon="5.86136">
        <ele>927</ele>
        <time>2022-09-22T12:23:47Z</time>
      </trkpt>
      <trkpt lat="44.12616" lon="5.86137">
        <ele>927</ele>
        <time>2022-09-22T12:23:48Z</time>
      </trkpt>
      <trkpt lat="44.12617" lon="5.86138">
        <ele>927</ele>
        <time>2022-09-22T12:23:49Z</time>
      </trkpt>
      <trkpt lat="44.12617" lon="5.86139">
        <ele>927</ele>
        <time>2022-09-22T12:23:50Z</time>
      </trkpt>
      <trkpt lat="44.12617" lon="5.8614">
        <ele>927</ele>
        <time>2022-09-22T12:23:51Z</time>
      </trkpt>
      <trkpt lat="44.12617" lon="5.86141">
        <ele>927</ele>
        <time>2022-09-22T12:23:52Z</time>
      </trkpt>
      <trkpt lat="44.12617" lon="5.86143">
        <ele>927</ele>
        <time>2022-09-22T12:23:53Z</time>
      </trkpt>
      <trkpt lat="44.12617" lon="5.86144">
        <ele>927</ele>
        <time>2022-09-22T12:23:54Z</time>
      </trkpt>
      <trkpt lat="44.12617" lon="5.86145">
        <ele>927</ele>
        <time>2022-09-22T12:23:55Z</time>
      </trkpt>
      <trkpt lat="44.12617" lon="5.86147">
        <ele>927</ele>
        <time>2022-09-22T12:23:56Z</time>
      </trkpt>
      <trkpt lat="44.12617" lon="5.86149">
        <ele>927</ele>
        <time>2022-09-22T12:23:57Z</time>
      </trkpt>
      <trkpt lat="44.12617" lon="5.86151">
        <ele>927</ele>
        <time>2022-09-22T12:23:58Z</time>
      </trkpt>
      <trkpt lat="44.12616" lon="5.86153">
        <ele>927</ele>
        <time>2022-09-22T12:23:59Z</time>
      </trkpt>
      <trkpt lat="44.12616" lon="5.86155">
        <ele>926</ele>
        <time>2022-09-22T12:24:00Z</time>
      </trkpt>
      <trkpt lat="44.12616" lon="5.86157">
        <ele>926</ele>
        <time>2022-09-22T12:24:01Z</time>
      </trkpt>
      <trkpt lat="44.12615" lon="5.86158">
        <ele>926</ele>
        <time>2022-09-22T12:24:02Z</time>
      </trkpt>
      <trkpt lat="44.12615" lon="5.8616">
        <ele>926</ele>
        <time>2022-09-22T12:24:03Z</time>
      </trkpt>
      <trkpt lat="44.12615" lon="5.86161">
        <ele>926</ele>
        <time>2022-09-22T12:24:04Z</time>
      </trkpt>
      <trkpt lat="44.12614" lon="5.86163">
        <ele>926</ele>
        <time>2022-09-22T12:24:05Z</time>
      </trkpt>
      <trkpt lat="44.12614" lon="5.86164">
        <ele>926</ele>
        <time>2022-09-22T12:24:06Z</time>
      </trkpt>
      <trkpt lat="44.12614" lon="5.86165">
        <ele>926</ele>
        <time>2022-09-22T12:24:07Z</time>
      </trkpt>
      <trkpt lat="44.12614" lon="5.86167">
        <ele>926</ele>
        <time>2022-09-22T12:24:08Z</time>
      </trkpt>
      <trkpt lat="44.12613" lon="5.86168">
        <ele>926</ele>
        <time>2022-09-22T12:24:09Z</time>
      </trkpt>
      <trkpt lat="44.12613" lon="5.8617">
        <ele>926</ele>
        <time>2022-09-22T12:24:10Z</time>
      </trkpt>
      <trkpt lat="44.12613" lon="5.86171">
        <ele>926</ele>
        <time>2022-09-22T12:24:11Z</time>
      </trkpt>
      <trkpt lat="44.12613" lon="5.86172">
        <ele>926</ele>
        <time>2022-09-22T12:24:12Z</time>
      </trkpt>
      <trkpt lat="44.12612" lon="5.86174">
        <ele>926</ele>
        <time>2022-09-22T12:24:13Z</time>
      </trkpt>
      <trkpt lat="44.12612" lon="5.86175">
        <ele>926</ele>
        <time>2022-09-22T12:24:14Z</time>
      </trkpt>
      <trkpt lat="44.12612" lon="5.86177">
        <ele>925</ele>
        <time>2022-09-22T12:24:15Z</time>
      </trkpt>
      <trkpt lat="44.12612" lon="5.86178">
        <ele>925</ele>
        <time>2022-09-22T12:24:16Z</time>
      </trkpt>
      <trkpt lat="44.12611" lon="5.86179">
        <ele>925</ele>
        <time>2022-09-22T12:24:17Z</time>
      </trkpt>
      <trkpt lat="44.12611" lon="5.86181">
        <ele>925</ele>
        <time>2022-09-22T12:24:18Z</time>
      </trkpt>
      <trkpt lat="44.12611" lon="5.86182">
        <ele>925</ele>
        <time>2022-09-22T12:24:19Z</time>
      </trkpt>
      <trkpt lat="44.12611" lon="5.86184">
        <ele>925</ele>
        <time>2022-09-22T12:24:20Z</time>
      </trkpt>
      <trkpt lat="44.1261" lon="5.86185">
        <ele>925</ele>
        <time>2022-09-22T12:24:21Z</time>
      </trkpt>
      <trkpt lat="44.1261" lon="5.86186">
        <ele>925</ele>
        <time>2022-09-22T12:24:22Z</time>
      </trkpt>
      <trkpt lat="44.1261" lon="5.86187">
        <ele>925</ele>
        <time>2022-09-22T12:24:23Z</time>
      </trkpt>
      <trkpt lat="44.1261" lon="5.86188">
        <ele>925</ele>
        <time>2022-09-22T12:24:24Z</time>
      </trkpt>
      <trkpt lat="44.1261" lon="5.8619">
        <ele>924</ele>
        <time>2022-09-22T12:24:25Z</time>
      </trkpt>
      <trkpt lat="44.1261" lon="5.86191">
        <ele>924</ele>
        <time>2022-09-22T12:24:26Z</time>
      </trkpt>
      <trkpt lat="44.1261" lon="5.86193">
        <ele>924</ele>
        <time>2022-09-22T12:24:27Z</time>
      </trkpt>
      <trkpt lat="44.12609" lon="5.86194">
        <ele>924</ele>
        <time>2022-09-22T12:24:28Z</time>
      </trkpt>
      <trkpt lat="44.12609" lon="5.86196">
        <ele>924</ele>
        <time>2022-09-22T12:24:29Z</time>
      </trkpt>
      <trkpt lat="44.12609" lon="5.86198">
        <ele>924</ele>
        <time>2022-09-22T12:24:30Z</time>
      </trkpt>
      <trkpt lat="44.12608" lon="5.862">
        <ele>924</ele>
        <time>2022-09-22T12:24:31Z</time>
      </trkpt>
      <trkpt lat="44.12608" lon="5.86202">
        <ele>924</ele>
        <time>2022-09-22T12:24:32Z</time>
      </trkpt>
      <trkpt lat="44.12608" lon="5.86204">
        <ele>924</ele>
        <time>2022-09-22T12:24:33Z</time>
      </trkpt>
      <trkpt lat="44.12608" lon="5.86205">
        <ele>924</ele>
        <time>2022-09-22T12:24:34Z</time>
      </trkpt>
      <trkpt lat="44.12608" lon="5.86207">
        <ele>923</ele>
        <time>2022-09-22T12:24:35Z</time>
      </trkpt>
      <trkpt lat="44.12607" lon="5.86209">
        <ele>923</ele>
        <time>2022-09-22T12:24:36Z</time>
      </trkpt>
      <trkpt lat="44.12607" lon="5.86211">
        <ele>923</ele>
        <time>2022-09-22T12:24:37Z</time>
      </trkpt>
      <trkpt lat="44.12607" lon="5.86212">
        <ele>923</ele>
        <time>2022-09-22T12:24:38Z</time>
      </trkpt>
      <trkpt lat="44.12607" lon="5.86214">
        <ele>923</ele>
        <time>2022-09-22T12:24:39Z</time>
      </trkpt>
      <trkpt lat="44.12607" lon="5.86215">
        <ele>922</ele>
        <time>2022-09-22T12:24:40Z</time>
      </trkpt>
      <trkpt lat="44.12606" lon="5.86217">
        <ele>922</ele>
        <time>2022-09-22T12:24:41Z</time>
      </trkpt>
      <trkpt lat="44.12606" lon="5.86218">
        <ele>922</ele>
        <time>2022-09-22T12:24:42Z</time>
      </trkpt>
      <trkpt lat="44.12606" lon="5.8622">
        <ele>922</ele>
        <time>2022-09-22T12:24:43Z</time>
      </trkpt>
      <trkpt lat="44.12605" lon="5.86221">
        <ele>922</ele>
        <time>2022-09-22T12:24:44Z</time>
      </trkpt>
      <trkpt lat="44.12605" lon="5.86223">
        <ele>922</ele>
        <time>2022-09-22T12:24:45Z</time>
      </trkpt>
      <trkpt lat="44.12604" lon="5.86224">
        <ele>922</ele>
        <time>2022-09-22T12:24:46Z</time>
      </trkpt>
      <trkpt lat="44.12604" lon="5.86226">
        <ele>922</ele>
        <time>2022-09-22T12:24:47Z</time>
      </trkpt>
      <trkpt lat="44.12603" lon="5.86227">
        <ele>922</ele>
        <time>2022-09-22T12:24:48Z</time>
      </trkpt>
      <trkpt lat="44.12603" lon="5.86229">
        <ele>922</ele>
        <time>2022-09-22T12:24:49Z</time>
      </trkpt>
      <trkpt lat="44.12603" lon="5.86231">
        <ele>922</ele>
        <time>2022-09-22T12:24:50Z</time>
      </trkpt>
      <trkpt lat="44.12602" lon="5.86232">
        <ele>922</ele>
        <time>2022-09-22T12:24:51Z</time>
      </trkpt>
      <trkpt lat="44.12602" lon="5.86234">
        <ele>922</ele>
        <time>2022-09-22T12:24:52Z</time>
      </trkpt>
      <trkpt lat="44.12602" lon="5.86235">
        <ele>922</ele>
        <time>2022-09-22T12:24:53Z</time>
      </trkpt>
      <trkpt lat="44.12602" lon="5.86237">
        <ele>922</ele>
        <time>2022-09-22T12:24:54Z</time>
      </trkpt>
      <trkpt lat="44.12602" lon="5.86239">
        <ele>922</ele>
        <time>2022-09-22T12:24:55Z</time>
      </trkpt>
      <trkpt lat="44.12603" lon="5.8624">
        <ele>922</ele>
        <time>2022-09-22T12:24:56Z</time>
      </trkpt>
      <trkpt lat="44.12603" lon="5.86242">
        <ele>922</ele>
        <time>2022-09-22T12:24:57Z</time>
      </trkpt>
      <trkpt lat="44.12603" lon="5.86244">
        <ele>922</ele>
        <time>2022-09-22T12:24:58Z</time>
      </trkpt>
      <trkpt lat="44.12603" lon="5.86246">
        <ele>922</ele>
        <time>2022-09-22T12:24:59Z</time>
      </trkpt>
      <trkpt lat="44.12604" lon="5.86248">
        <ele>921</ele>
        <time>2022-09-22T12:25:00Z</time>
      </trkpt>
      <trkpt lat="44.12604" lon="5.8625">
        <ele>921</ele>
        <time>2022-09-22T12:25:01Z</time>
      </trkpt>
      <trkpt lat="44.12604" lon="5.86252">
        <ele>921</ele>
        <time>2022-09-22T12:25:02Z</time>
      </trkpt>
      <trkpt lat="44.12604" lon="5.86253">
        <ele>921</ele>
        <time>2022-09-22T12:25:03Z</time>
      </trkpt>
      <trkpt lat="44.12604" lon="5.86255">
        <ele>921</ele>
        <time>2022-09-22T12:25:04Z</time>
      </trkpt>
      <trkpt lat="44.12604" lon="5.86256">
        <ele>921</ele>
        <time>2022-09-22T12:25:05Z</time>
      </trkpt>
      <trkpt lat="44.12603" lon="5.86257">
        <ele>921</ele>
        <time>2022-09-22T12:25:06Z</time>
      </trkpt>
      <trkpt lat="44.12603" lon="5.86259">
        <ele>921</ele>
        <time>2022-09-22T12:25:07Z</time>
      </trkpt>
      <trkpt lat="44.12603" lon="5.86259">
        <ele>921</ele>
        <time>2022-09-22T12:25:08Z</time>
      </trkpt>
      <trkpt lat="44.12603" lon="5.8626">
        <ele>921</ele>
        <time>2022-09-22T12:25:09Z</time>
      </trkpt>
      <trkpt lat="44.12603" lon="5.86262">
        <ele>921</ele>
        <time>2022-09-22T12:25:10Z</time>
      </trkpt>
      <trkpt lat="44.12603" lon="5.86263">
        <ele>921</ele>
        <time>2022-09-22T12:25:11Z</time>
      </trkpt>
      <trkpt lat="44.12602" lon="5.86264">
        <ele>921</ele>
        <time>2022-09-22T12:25:12Z</time>
      </trkpt>
      <trkpt lat="44.12602" lon="5.86266">
        <ele>921</ele>
        <time>2022-09-22T12:25:13Z</time>
      </trkpt>
      <trkpt lat="44.12602" lon="5.86267">
        <ele>921</ele>
        <time>2022-09-22T12:25:14Z</time>
      </trkpt>
      <trkpt lat="44.12602" lon="5.86268">
        <ele>921</ele>
        <time>2022-09-22T12:25:15Z</time>
      </trkpt>
      <trkpt lat="44.12601" lon="5.86269">
        <ele>921</ele>
        <time>2022-09-22T12:25:16Z</time>
      </trkpt>
      <trkpt lat="44.12601" lon="5.8627">
        <ele>921</ele>
        <time>2022-09-22T12:25:17Z</time>
      </trkpt>
      <trkpt lat="44.126" lon="5.86271">
        <ele>921</ele>
        <time>2022-09-22T12:25:18Z</time>
      </trkpt>
      <trkpt lat="44.126" lon="5.86272">
        <ele>921</ele>
        <time>2022-09-22T12:25:19Z</time>
      </trkpt>
      <trkpt lat="44.12599" lon="5.86274">
        <ele>920</ele>
        <time>2022-09-22T12:25:20Z</time>
      </trkpt>
      <trkpt lat="44.12599" lon="5.86275">
        <ele>920</ele>
        <time>2022-09-22T12:25:21Z</time>
      </trkpt>
      <trkpt lat="44.12598" lon="5.86276">
        <ele>920</ele>
        <time>2022-09-22T12:25:22Z</time>
      </trkpt>
      <trkpt lat="44.12598" lon="5.86278">
        <ele>920</ele>
        <time>2022-09-22T12:25:23Z</time>
      </trkpt>
      <trkpt lat="44.12597" lon="5.8628">
        <ele>920</ele>
        <time>2022-09-22T12:25:24Z</time>
      </trkpt>
      <trkpt lat="44.12597" lon="5.86281">
        <ele>920</ele>
        <time>2022-09-22T12:25:25Z</time>
      </trkpt>
      <trkpt lat="44.12597" lon="5.86283">
        <ele>920</ele>
        <time>2022-09-22T12:25:26Z</time>
      </trkpt>
      <trkpt lat="44.12597" lon="5.86284">
        <ele>920</ele>
        <time>2022-09-22T12:25:27Z</time>
      </trkpt>
      <trkpt lat="44.12597" lon="5.86286">
        <ele>920</ele>
        <time>2022-09-22T12:25:28Z</time>
      </trkpt>
      <trkpt lat="44.12596" lon="5.86287">
        <ele>920</ele>
        <time>2022-09-22T12:25:29Z</time>
      </trkpt>
      <trkpt lat="44.12596" lon="5.86289">
        <ele>920</ele>
        <time>2022-09-22T12:25:30Z</time>
      </trkpt>
      <trkpt lat="44.12596" lon="5.8629">
        <ele>920</ele>
        <time>2022-09-22T12:25:31Z</time>
      </trkpt>
      <trkpt lat="44.12596" lon="5.86292">
        <ele>920</ele>
        <time>2022-09-22T12:25:32Z</time>
      </trkpt>
      <trkpt lat="44.12597" lon="5.86293">
        <ele>920</ele>
        <time>2022-09-22T12:25:33Z</time>
      </trkpt>
      <trkpt lat="44.12597" lon="5.86295">
        <ele>920</ele>
        <time>2022-09-22T12:25:34Z</time>
      </trkpt>
      <trkpt lat="44.12597" lon="5.86296">
        <ele>919</ele>
        <time>2022-09-22T12:25:35Z</time>
      </trkpt>
      <trkpt lat="44.12596" lon="5.86297">
        <ele>919</ele>
        <time>2022-09-22T12:25:36Z</time>
      </trkpt>
      <trkpt lat="44.12596" lon="5.86298">
        <ele>919</ele>
        <time>2022-09-22T12:25:37Z</time>
      </trkpt>
      <trkpt lat="44.12596" lon="5.863">
        <ele>919</ele>
        <time>2022-09-22T12:25:38Z</time>
      </trkpt>
      <trkpt lat="44.12595" lon="5.86301">
        <ele>919</ele>
        <time>2022-09-22T12:25:39Z</time>
      </trkpt>
      <trkpt lat="44.12595" lon="5.86302">
        <ele>918</ele>
        <time>2022-09-22T12:25:40Z</time>
      </trkpt>
      <trkpt lat="44.12595" lon="5.86304">
        <ele>918</ele>
        <time>2022-09-22T12:25:41Z</time>
      </trkpt>
      <trkpt lat="44.12594" lon="5.86306">
        <ele>918</ele>
        <time>2022-09-22T12:25:42Z</time>
      </trkpt>
      <trkpt lat="44.12594" lon="5.86307">
        <ele>918</ele>
        <time>2022-09-22T12:25:43Z</time>
      </trkpt>
      <trkpt lat="44.12593" lon="5.86309">
        <ele>918</ele>
        <time>2022-09-22T12:25:44Z</time>
      </trkpt>
      <trkpt lat="44.12592" lon="5.8631">
        <ele>918</ele>
        <time>2022-09-22T12:25:45Z</time>
      </trkpt>
      <trkpt lat="44.12592" lon="5.86311">
        <ele>918</ele>
        <time>2022-09-22T12:25:46Z</time>
      </trkpt>
      <trkpt lat="44.12591" lon="5.86313">
        <ele>918</ele>
        <time>2022-09-22T12:25:47Z</time>
      </trkpt>
      <trkpt lat="44.12591" lon="5.86314">
        <ele>918</ele>
        <time>2022-09-22T12:25:48Z</time>
      </trkpt>
      <trkpt lat="44.1259" lon="5.86315">
        <ele>918</ele>
        <time>2022-09-22T12:25:49Z</time>
      </trkpt>
      <trkpt lat="44.1259" lon="5.86317">
        <ele>917</ele>
        <time>2022-09-22T12:25:50Z</time>
      </trkpt>
      <trkpt lat="44.1259" lon="5.86318">
        <ele>917</ele>
        <time>2022-09-22T12:25:51Z</time>
      </trkpt>
      <trkpt lat="44.1259" lon="5.8632">
        <ele>917</ele>
        <time>2022-09-22T12:25:52Z</time>
      </trkpt>
      <trkpt lat="44.12589" lon="5.86321">
        <ele>917</ele>
        <time>2022-09-22T12:25:53Z</time>
      </trkpt>
      <trkpt lat="44.12589" lon="5.86323">
        <ele>917</ele>
        <time>2022-09-22T12:25:54Z</time>
      </trkpt>
      <trkpt lat="44.12589" lon="5.86324">
        <ele>916</ele>
        <time>2022-09-22T12:25:55Z</time>
      </trkpt>
      <trkpt lat="44.12589" lon="5.86326">
        <ele>916</ele>
        <time>2022-09-22T12:25:56Z</time>
      </trkpt>
      <trkpt lat="44.12589" lon="5.86327">
        <ele>916</ele>
        <time>2022-09-22T12:25:57Z</time>
      </trkpt>
      <trkpt lat="44.12589" lon="5.86328">
        <ele>916</ele>
        <time>2022-09-22T12:25:58Z</time>
      </trkpt>
      <trkpt lat="44.12589" lon="5.86329">
        <ele>916</ele>
        <time>2022-09-22T12:25:59Z</time>
      </trkpt>
      <trkpt lat="44.12588" lon="5.86331">
        <ele>916</ele>
        <time>2022-09-22T12:26:00Z</time>
      </trkpt>
      <trkpt lat="44.12587" lon="5.86332">
        <ele>916</ele>
        <time>2022-09-22T12:26:01Z</time>
      </trkpt>
      <trkpt lat="44.12586" lon="5.86333">
        <ele>916</ele>
        <time>2022-09-22T12:26:02Z</time>
      </trkpt>
      <trkpt lat="44.12586" lon="5.86334">
        <ele>916</ele>
        <time>2022-09-22T12:26:03Z</time>
      </trkpt>
      <trkpt lat="44.12585" lon="5.86336">
        <ele>916</ele>
        <time>2022-09-22T12:26:04Z</time>
      </trkpt>
      <trkpt lat="44.12584" lon="5.86337">
        <ele>915</ele>
        <time>2022-09-22T12:26:05Z</time>
      </trkpt>
      <trkpt lat="44.12583" lon="5.86338">
        <ele>915</ele>
        <time>2022-09-22T12:26:06Z</time>
      </trkpt>
      <trkpt lat="44.12583" lon="5.8634">
        <ele>915</ele>
        <time>2022-09-22T12:26:07Z</time>
      </trkpt>
      <trkpt lat="44.12582" lon="5.86341">
        <ele>915</ele>
        <time>2022-09-22T12:26:08Z</time>
      </trkpt>
      <trkpt lat="44.12581" lon="5.86343">
        <ele>915</ele>
        <time>2022-09-22T12:26:09Z</time>
      </trkpt>
      <trkpt lat="44.12581" lon="5.86344">
        <ele>915</ele>
        <time>2022-09-22T12:26:10Z</time>
      </trkpt>
      <trkpt lat="44.1258" lon="5.86346">
        <ele>915</ele>
        <time>2022-09-22T12:26:11Z</time>
      </trkpt>
      <trkpt lat="44.1258" lon="5.86347">
        <ele>915</ele>
        <time>2022-09-22T12:26:12Z</time>
      </trkpt>
      <trkpt lat="44.12579" lon="5.86348">
        <ele>915</ele>
        <time>2022-09-22T12:26:13Z</time>
      </trkpt>
      <trkpt lat="44.12579" lon="5.8635">
        <ele>915</ele>
        <time>2022-09-22T12:26:14Z</time>
      </trkpt>
      <trkpt lat="44.12578" lon="5.86351">
        <ele>915</ele>
        <time>2022-09-22T12:26:15Z</time>
      </trkpt>
      <trkpt lat="44.12578" lon="5.86353">
        <ele>915</ele>
        <time>2022-09-22T12:26:16Z</time>
      </trkpt>
      <trkpt lat="44.12578" lon="5.86354">
        <ele>915</ele>
        <time>2022-09-22T12:26:17Z</time>
      </trkpt>
      <trkpt lat="44.12578" lon="5.86355">
        <ele>915</ele>
        <time>2022-09-22T12:26:18Z</time>
      </trkpt>
      <trkpt lat="44.12577" lon="5.86356">
        <ele>915</ele>
        <time>2022-09-22T12:26:19Z</time>
      </trkpt>
      <trkpt lat="44.12577" lon="5.86357">
        <ele>914</ele>
        <time>2022-09-22T12:26:20Z</time>
      </trkpt>
      <trkpt lat="44.12577" lon="5.86358">
        <ele>914</ele>
        <time>2022-09-22T12:26:21Z</time>
      </trkpt>
      <trkpt lat="44.12577" lon="5.86359">
        <ele>914</ele>
        <time>2022-09-22T12:26:22Z</time>
      </trkpt>
      <trkpt lat="44.12577" lon="5.86359">
        <ele>914</ele>
        <time>2022-09-22T12:26:23Z</time>
      </trkpt>
      <trkpt lat="44.12576" lon="5.8636">
        <ele>914</ele>
        <time>2022-09-22T12:26:24Z</time>
      </trkpt>
      <trkpt lat="44.12576" lon="5.86361">
        <ele>914</ele>
        <time>2022-09-22T12:26:25Z</time>
      </trkpt>
      <trkpt lat="44.12576" lon="5.86361">
        <ele>914</ele>
        <time>2022-09-22T12:26:26Z</time>
      </trkpt>
      <trkpt lat="44.12575" lon="5.86362">
        <ele>914</ele>
        <time>2022-09-22T12:26:27Z</time>
      </trkpt>
      <trkpt lat="44.12574" lon="5.86363">
        <ele>914</ele>
        <time>2022-09-22T12:26:28Z</time>
      </trkpt>
      <trkpt lat="44.12573" lon="5.86363">
        <ele>914</ele>
        <time>2022-09-22T12:26:29Z</time>
      </trkpt>
      <trkpt lat="44.12573" lon="5.86364">
        <ele>914</ele>
        <time>2022-09-22T12:26:30Z</time>
      </trkpt>
      <trkpt lat="44.12572" lon="5.86365">
        <ele>914</ele>
        <time>2022-09-22T12:26:31Z</time>
      </trkpt>
      <trkpt lat="44.1257" lon="5.86365">
        <ele>914</ele>
        <time>2022-09-22T12:26:32Z</time>
      </trkpt>
      <trkpt lat="44.12568" lon="5.86366">
        <ele>914</ele>
        <time>2022-09-22T12:26:33Z</time>
      </trkpt>
      <trkpt lat="44.12567" lon="5.86367">
        <ele>914</ele>
        <time>2022-09-22T12:26:34Z</time>
      </trkpt>
      <trkpt lat="44.12565" lon="5.86368">
        <ele>914</ele>
        <time>2022-09-22T12:26:35Z</time>
      </trkpt>
      <trkpt lat="44.12565" lon="5.86369">
        <ele>914</ele>
        <time>2022-09-22T12:26:36Z</time>
      </trkpt>
      <trkpt lat="44.12564" lon="5.86369">
        <ele>914</ele>
        <time>2022-09-22T12:26:37Z</time>
      </trkpt>
      <trkpt lat="44.12563" lon="5.86369">
        <ele>914</ele>
        <time>2022-09-22T12:26:38Z</time>
      </trkpt>
      <trkpt lat="44.12562" lon="5.86369">
        <ele>914</ele>
        <time>2022-09-22T12:26:39Z</time>
      </trkpt>
      <trkpt lat="44.12562" lon="5.8637">
        <ele>914</ele>
        <time>2022-09-22T12:26:40Z</time>
      </trkpt>
      <trkpt lat="44.1256" lon="5.8637">
        <ele>914</ele>
        <time>2022-09-22T12:26:41Z</time>
      </trkpt>
      <trkpt lat="44.12559" lon="5.8637">
        <ele>914</ele>
        <time>2022-09-22T12:26:42Z</time>
      </trkpt>
      <trkpt lat="44.12559" lon="5.8637">
        <ele>914</ele>
        <time>2022-09-22T12:26:43Z</time>
      </trkpt>
      <trkpt lat="44.12558" lon="5.86371">
        <ele>914</ele>
        <time>2022-09-22T12:26:44Z</time>
      </trkpt>
      <trkpt lat="44.12557" lon="5.86371">
        <ele>914</ele>
        <time>2022-09-22T12:26:45Z</time>
      </trkpt>
      <trkpt lat="44.12556" lon="5.86371">
        <ele>914</ele>
        <time>2022-09-22T12:26:46Z</time>
      </trkpt>
      <trkpt lat="44.12555" lon="5.86371">
        <ele>914</ele>
        <time>2022-09-22T12:26:47Z</time>
      </trkpt>
      <trkpt lat="44.12554" lon="5.86371">
        <ele>914</ele>
        <time>2022-09-22T12:26:48Z</time>
      </trkpt>
      <trkpt lat="44.12553" lon="5.86371">
        <ele>915</ele>
        <time>2022-09-22T12:26:49Z</time>
      </trkpt>
      <trkpt lat="44.12552" lon="5.86371">
        <ele>915</ele>
        <time>2022-09-22T12:26:50Z</time>
      </trkpt>
      <trkpt lat="44.12551" lon="5.86371">
        <ele>915</ele>
        <time>2022-09-22T12:26:51Z</time>
      </trkpt>
      <trkpt lat="44.1255" lon="5.86371">
        <ele>915</ele>
        <time>2022-09-22T12:26:52Z</time>
      </trkpt>
      <trkpt lat="44.12547" lon="5.8637">
        <ele>915</ele>
        <time>2022-09-22T12:27:29Z</time>
      </trkpt>
      <trkpt lat="44.12545" lon="5.8637">
        <ele>915</ele>
        <time>2022-09-22T12:27:30Z</time>
      </trkpt>
      <trkpt lat="44.12543" lon="5.8637">
        <ele>915</ele>
        <time>2022-09-22T12:27:31Z</time>
      </trkpt>
      <trkpt lat="44.12542" lon="5.8637">
        <ele>915</ele>
        <time>2022-09-22T12:27:32Z</time>
      </trkpt>
      <trkpt lat="44.12541" lon="5.86371">
        <ele>915</ele>
        <time>2022-09-22T12:27:33Z</time>
      </trkpt>
      <trkpt lat="44.12541" lon="5.86371">
        <ele>916</ele>
        <time>2022-09-22T12:27:34Z</time>
      </trkpt>
      <trkpt lat="44.1254" lon="5.86371">
        <ele>915</ele>
        <time>2022-09-22T12:27:35Z</time>
      </trkpt>
      <trkpt lat="44.12539" lon="5.86372">
        <ele>915</ele>
        <time>2022-09-22T12:27:36Z</time>
      </trkpt>
      <trkpt lat="44.12538" lon="5.86372">
        <ele>915</ele>
        <time>2022-09-22T12:27:37Z</time>
      </trkpt>
      <trkpt lat="44.12538" lon="5.86373">
        <ele>915</ele>
        <time>2022-09-22T12:27:38Z</time>
      </trkpt>
      <trkpt lat="44.12537" lon="5.86374">
        <ele>915</ele>
        <time>2022-09-22T12:27:39Z</time>
      </trkpt>
      <trkpt lat="44.12536" lon="5.86374">
        <ele>915</ele>
        <time>2022-09-22T12:27:40Z</time>
      </trkpt>
      <trkpt lat="44.12535" lon="5.86375">
        <ele>915</ele>
        <time>2022-09-22T12:27:41Z</time>
      </trkpt>
      <trkpt lat="44.12534" lon="5.86375">
        <ele>915</ele>
        <time>2022-09-22T12:27:42Z</time>
      </trkpt>
      <trkpt lat="44.12534" lon="5.86375">
        <ele>915</ele>
        <time>2022-09-22T12:27:43Z</time>
      </trkpt>
      <trkpt lat="44.12533" lon="5.86375">
        <ele>915</ele>
        <time>2022-09-22T12:27:44Z</time>
      </trkpt>
      <trkpt lat="44.12532" lon="5.86375">
        <ele>914</ele>
        <time>2022-09-22T12:27:45Z</time>
      </trkpt>
      <trkpt lat="44.12531" lon="5.86375">
        <ele>914</ele>
        <time>2022-09-22T12:27:46Z</time>
      </trkpt>
      <trkpt lat="44.12531" lon="5.86375">
        <ele>914</ele>
        <time>2022-09-22T12:27:47Z</time>
      </trkpt>
      <trkpt lat="44.1253" lon="5.86375">
        <ele>914</ele>
        <time>2022-09-22T12:27:48Z</time>
      </trkpt>
      <trkpt lat="44.12529" lon="5.86375">
        <ele>914</ele>
        <time>2022-09-22T12:27:49Z</time>
      </trkpt>
      <trkpt lat="44.12528" lon="5.86375">
        <ele>914</ele>
        <time>2022-09-22T12:27:50Z</time>
      </trkpt>
      <trkpt lat="44.12527" lon="5.86375">
        <ele>914</ele>
        <time>2022-09-22T12:27:51Z</time>
      </trkpt>
      <trkpt lat="44.12526" lon="5.86375">
        <ele>914</ele>
        <time>2022-09-22T12:27:52Z</time>
      </trkpt>
      <trkpt lat="44.12525" lon="5.86375">
        <ele>914</ele>
        <time>2022-09-22T12:27:53Z</time>
      </trkpt>
      <trkpt lat="44.12524" lon="5.86376">
        <ele>914</ele>
        <time>2022-09-22T12:27:54Z</time>
      </trkpt>
      <trkpt lat="44.12523" lon="5.86376">
        <ele>913</ele>
        <time>2022-09-22T12:27:55Z</time>
      </trkpt>
      <trkpt lat="44.12522" lon="5.86377">
        <ele>913</ele>
        <time>2022-09-22T12:27:56Z</time>
      </trkpt>
      <trkpt lat="44.1252" lon="5.86378">
        <ele>913</ele>
        <time>2022-09-22T12:27:57Z</time>
      </trkpt>
      <trkpt lat="44.12519" lon="5.86379">
        <ele>913</ele>
        <time>2022-09-22T12:27:58Z</time>
      </trkpt>
      <trkpt lat="44.12518" lon="5.86379">
        <ele>913</ele>
        <time>2022-09-22T12:27:59Z</time>
      </trkpt>
      <trkpt lat="44.12517" lon="5.8638">
        <ele>912</ele>
        <time>2022-09-22T12:28:00Z</time>
      </trkpt>
      <trkpt lat="44.12517" lon="5.86381">
        <ele>912</ele>
        <time>2022-09-22T12:28:01Z</time>
      </trkpt>
      <trkpt lat="44.12516" lon="5.86382">
        <ele>912</ele>
        <time>2022-09-22T12:28:02Z</time>
      </trkpt>
      <trkpt lat="44.12516" lon="5.86383">
        <ele>912</ele>
        <time>2022-09-22T12:28:03Z</time>
      </trkpt>
      <trkpt lat="44.12516" lon="5.86384">
        <ele>912</ele>
        <time>2022-09-22T12:28:04Z</time>
      </trkpt>
      <trkpt lat="44.12516" lon="5.86385">
        <ele>912</ele>
        <time>2022-09-22T12:28:05Z</time>
      </trkpt>
      <trkpt lat="44.12517" lon="5.86387">
        <ele>912</ele>
        <time>2022-09-22T12:28:06Z</time>
      </trkpt>
      <trkpt lat="44.12517" lon="5.86388">
        <ele>912</ele>
        <time>2022-09-22T12:28:07Z</time>
      </trkpt>
      <trkpt lat="44.12517" lon="5.8639">
        <ele>912</ele>
        <time>2022-09-22T12:28:08Z</time>
      </trkpt>
      <trkpt lat="44.12517" lon="5.86391">
        <ele>912</ele>
        <time>2022-09-22T12:28:09Z</time>
      </trkpt>
      <trkpt lat="44.12518" lon="5.86393">
        <ele>911</ele>
        <time>2022-09-22T12:28:10Z</time>
      </trkpt>
      <trkpt lat="44.12518" lon="5.86394">
        <ele>911</ele>
        <time>2022-09-22T12:28:11Z</time>
      </trkpt>
      <trkpt lat="44.12519" lon="5.86395">
        <ele>911</ele>
        <time>2022-09-22T12:28:12Z</time>
      </trkpt>
      <trkpt lat="44.12519" lon="5.86396">
        <ele>911</ele>
        <time>2022-09-22T12:28:13Z</time>
      </trkpt>
      <trkpt lat="44.12519" lon="5.86397">
        <ele>911</ele>
        <time>2022-09-22T12:28:14Z</time>
      </trkpt>
      <trkpt lat="44.1252" lon="5.86398">
        <ele>910</ele>
        <time>2022-09-22T12:28:15Z</time>
      </trkpt>
      <trkpt lat="44.1252" lon="5.86399">
        <ele>910</ele>
        <time>2022-09-22T12:28:16Z</time>
      </trkpt>
      <trkpt lat="44.1252" lon="5.864">
        <ele>910</ele>
        <time>2022-09-22T12:28:17Z</time>
      </trkpt>
      <trkpt lat="44.1252" lon="5.86401">
        <ele>910</ele>
        <time>2022-09-22T12:28:18Z</time>
      </trkpt>
      <trkpt lat="44.12521" lon="5.86402">
        <ele>910</ele>
        <time>2022-09-22T12:28:19Z</time>
      </trkpt>
      <trkpt lat="44.12521" lon="5.86403">
        <ele>910</ele>
        <time>2022-09-22T12:28:20Z</time>
      </trkpt>
      <trkpt lat="44.12521" lon="5.86404">
        <ele>910</ele>
        <time>2022-09-22T12:28:21Z</time>
      </trkpt>
      <trkpt lat="44.12522" lon="5.86406">
        <ele>910</ele>
        <time>2022-09-22T12:28:22Z</time>
      </trkpt>
      <trkpt lat="44.12522" lon="5.86407">
        <ele>910</ele>
        <time>2022-09-22T12:28:23Z</time>
      </trkpt>
      <trkpt lat="44.12523" lon="5.86409">
        <ele>910</ele>
        <time>2022-09-22T12:28:24Z</time>
      </trkpt>
      <trkpt lat="44.12523" lon="5.86411">
        <ele>909</ele>
        <time>2022-09-22T12:28:25Z</time>
      </trkpt>
      <trkpt lat="44.12524" lon="5.86412">
        <ele>909</ele>
        <time>2022-09-22T12:28:26Z</time>
      </trkpt>
      <trkpt lat="44.12524" lon="5.86414">
        <ele>909</ele>
        <time>2022-09-22T12:28:27Z</time>
      </trkpt>
      <trkpt lat="44.12524" lon="5.86415">
        <ele>909</ele>
        <time>2022-09-22T12:28:28Z</time>
      </trkpt>
      <trkpt lat="44.12524" lon="5.86415">
        <ele>909</ele>
        <time>2022-09-22T12:28:29Z</time>
      </trkpt>
      <trkpt lat="44.12524" lon="5.86417">
        <ele>908</ele>
        <time>2022-09-22T12:28:30Z</time>
      </trkpt>
      <trkpt lat="44.12525" lon="5.86418">
        <ele>908</ele>
        <time>2022-09-22T12:28:31Z</time>
      </trkpt>
      <trkpt lat="44.12525" lon="5.8642">
        <ele>908</ele>
        <time>2022-09-22T12:28:32Z</time>
      </trkpt>
      <trkpt lat="44.12525" lon="5.86421">
        <ele>908</ele>
        <time>2022-09-22T12:28:33Z</time>
      </trkpt>
      <trkpt lat="44.12525" lon="5.86422">
        <ele>908</ele>
        <time>2022-09-22T12:28:34Z</time>
      </trkpt>
      <trkpt lat="44.12525" lon="5.86423">
        <ele>907</ele>
        <time>2022-09-22T12:28:35Z</time>
      </trkpt>
      <trkpt lat="44.12525" lon="5.86424">
        <ele>907</ele>
        <time>2022-09-22T12:28:36Z</time>
      </trkpt>
      <trkpt lat="44.12525" lon="5.86426">
        <ele>907</ele>
        <time>2022-09-22T12:28:37Z</time>
      </trkpt>
      <trkpt lat="44.12525" lon="5.86427">
        <ele>907</ele>
        <time>2022-09-22T12:28:38Z</time>
      </trkpt>
      <trkpt lat="44.12525" lon="5.86428">
        <ele>907</ele>
        <time>2022-09-22T12:28:39Z</time>
      </trkpt>
      <trkpt lat="44.12525" lon="5.86429">
        <ele>906</ele>
        <time>2022-09-22T12:28:40Z</time>
      </trkpt>
      <trkpt lat="44.12525" lon="5.8643">
        <ele>906</ele>
        <time>2022-09-22T12:28:41Z</time>
      </trkpt>
      <trkpt lat="44.12525" lon="5.86431">
        <ele>906</ele>
        <time>2022-09-22T12:28:42Z</time>
      </trkpt>
      <trkpt lat="44.12525" lon="5.86432">
        <ele>906</ele>
        <time>2022-09-22T12:28:43Z</time>
      </trkpt>
      <trkpt lat="44.12524" lon="5.86434">
        <ele>906</ele>
        <time>2022-09-22T12:28:44Z</time>
      </trkpt>
      <trkpt lat="44.12524" lon="5.86435">
        <ele>905</ele>
        <time>2022-09-22T12:28:45Z</time>
      </trkpt>
      <trkpt lat="44.12524" lon="5.86436">
        <ele>905</ele>
        <time>2022-09-22T12:28:46Z</time>
      </trkpt>
      <trkpt lat="44.12524" lon="5.86437">
        <ele>905</ele>
        <time>2022-09-22T12:28:47Z</time>
      </trkpt>
      <trkpt lat="44.12524" lon="5.86437">
        <ele>905</ele>
        <time>2022-09-22T12:28:48Z</time>
      </trkpt>
      <trkpt lat="44.12524" lon="5.86438">
        <ele>905</ele>
        <time>2022-09-22T12:28:49Z</time>
      </trkpt>
      <trkpt lat="44.12523" lon="5.86439">
        <ele>904</ele>
        <time>2022-09-22T12:28:50Z</time>
      </trkpt>
      <trkpt lat="44.12523" lon="5.8644">
        <ele>904</ele>
        <time>2022-09-22T12:28:51Z</time>
      </trkpt>
      <trkpt lat="44.12523" lon="5.86442">
        <ele>904</ele>
        <time>2022-09-22T12:28:52Z</time>
      </trkpt>
      <trkpt lat="44.12523" lon="5.86443">
        <ele>904</ele>
        <time>2022-09-22T12:28:53Z</time>
      </trkpt>
      <trkpt lat="44.12524" lon="5.86445">
        <ele>904</ele>
        <time>2022-09-22T12:28:54Z</time>
      </trkpt>
      <trkpt lat="44.12524" lon="5.86446">
        <ele>903</ele>
        <time>2022-09-22T12:28:55Z</time>
      </trkpt>
      <trkpt lat="44.12525" lon="5.86448">
        <ele>903</ele>
        <time>2022-09-22T12:28:56Z</time>
      </trkpt>
      <trkpt lat="44.12525" lon="5.86449">
        <ele>903</ele>
        <time>2022-09-22T12:28:57Z</time>
      </trkpt>
      <trkpt lat="44.12526" lon="5.86451">
        <ele>903</ele>
        <time>2022-09-22T12:28:58Z</time>
      </trkpt>
      <trkpt lat="44.12526" lon="5.86452">
        <ele>903</ele>
        <time>2022-09-22T12:28:59Z</time>
      </trkpt>
      <trkpt lat="44.12527" lon="5.86452">
        <ele>902</ele>
        <time>2022-09-22T12:29:00Z</time>
      </trkpt>
      <trkpt lat="44.12527" lon="5.86454">
        <ele>902</ele>
        <time>2022-09-22T12:29:01Z</time>
      </trkpt>
      <trkpt lat="44.12527" lon="5.86455">
        <ele>902</ele>
        <time>2022-09-22T12:29:02Z</time>
      </trkpt>
      <trkpt lat="44.12528" lon="5.86457">
        <ele>902</ele>
        <time>2022-09-22T12:29:03Z</time>
      </trkpt>
      <trkpt lat="44.12528" lon="5.86458">
        <ele>902</ele>
        <time>2022-09-22T12:29:04Z</time>
      </trkpt>
      <trkpt lat="44.12528" lon="5.8646">
        <ele>902</ele>
        <time>2022-09-22T12:29:05Z</time>
      </trkpt>
      <trkpt lat="44.12529" lon="5.86462">
        <ele>902</ele>
        <time>2022-09-22T12:29:06Z</time>
      </trkpt>
      <trkpt lat="44.12529" lon="5.86464">
        <ele>902</ele>
        <time>2022-09-22T12:29:07Z</time>
      </trkpt>
      <trkpt lat="44.12529" lon="5.86466">
        <ele>902</ele>
        <time>2022-09-22T12:29:08Z</time>
      </trkpt>
      <trkpt lat="44.1253" lon="5.86467">
        <ele>902</ele>
        <time>2022-09-22T12:29:09Z</time>
      </trkpt>
      <trkpt lat="44.1253" lon="5.86469">
        <ele>901</ele>
        <time>2022-09-22T12:29:10Z</time>
      </trkpt>
      <trkpt lat="44.1253" lon="5.8647">
        <ele>901</ele>
        <time>2022-09-22T12:29:11Z</time>
      </trkpt>
      <trkpt lat="44.1253" lon="5.86471">
        <ele>901</ele>
        <time>2022-09-22T12:29:12Z</time>
      </trkpt>
      <trkpt lat="44.12531" lon="5.86472">
        <ele>901</ele>
        <time>2022-09-22T12:29:13Z</time>
      </trkpt>
      <trkpt lat="44.12531" lon="5.86473">
        <ele>901</ele>
        <time>2022-09-22T12:29:14Z</time>
      </trkpt>
      <trkpt lat="44.12532" lon="5.86474">
        <ele>900</ele>
        <time>2022-09-22T12:29:15Z</time>
      </trkpt>
      <trkpt lat="44.12532" lon="5.86475">
        <ele>900</ele>
        <time>2022-09-22T12:29:16Z</time>
      </trkpt>
      <trkpt lat="44.12533" lon="5.86476">
        <ele>900</ele>
        <time>2022-09-22T12:29:17Z</time>
      </trkpt>
      <trkpt lat="44.12533" lon="5.86477">
        <ele>900</ele>
        <time>2022-09-22T12:29:18Z</time>
      </trkpt>
      <trkpt lat="44.12534" lon="5.86479">
        <ele>900</ele>
        <time>2022-09-22T12:29:19Z</time>
      </trkpt>
      <trkpt lat="44.12534" lon="5.86481">
        <ele>899</ele>
        <time>2022-09-22T12:29:20Z</time>
      </trkpt>
      <trkpt lat="44.12534" lon="5.86483">
        <ele>899</ele>
        <time>2022-09-22T12:29:21Z</time>
      </trkpt>
      <trkpt lat="44.12534" lon="5.86484">
        <ele>899</ele>
        <time>2022-09-22T12:29:22Z</time>
      </trkpt>
      <trkpt lat="44.12533" lon="5.86486">
        <ele>899</ele>
        <time>2022-09-22T12:29:23Z</time>
      </trkpt>
      <trkpt lat="44.12533" lon="5.86488">
        <ele>899</ele>
        <time>2022-09-22T12:29:24Z</time>
      </trkpt>
      <trkpt lat="44.12533" lon="5.86489">
        <ele>899</ele>
        <time>2022-09-22T12:29:25Z</time>
      </trkpt>
      <trkpt lat="44.12533" lon="5.86491">
        <ele>899</ele>
        <time>2022-09-22T12:29:26Z</time>
      </trkpt>
      <trkpt lat="44.12533" lon="5.86492">
        <ele>899</ele>
        <time>2022-09-22T12:29:27Z</time>
      </trkpt>
      <trkpt lat="44.12533" lon="5.86493">
        <ele>899</ele>
        <time>2022-09-22T12:29:28Z</time>
      </trkpt>
      <trkpt lat="44.12532" lon="5.86494">
        <ele>899</ele>
        <time>2022-09-22T12:29:29Z</time>
      </trkpt>
      <trkpt lat="44.12532" lon="5.86495">
        <ele>899</ele>
        <time>2022-09-22T12:29:30Z</time>
      </trkpt>
      <trkpt lat="44.12532" lon="5.86496">
        <ele>899</ele>
        <time>2022-09-22T12:29:31Z</time>
      </trkpt>
      <trkpt lat="44.12532" lon="5.86498">
        <ele>898</ele>
        <time>2022-09-22T12:29:51Z</time>
      </trkpt>
      <trkpt lat="44.12532" lon="5.86499">
        <ele>898</ele>
        <time>2022-09-22T12:29:52Z</time>
      </trkpt>
      <trkpt lat="44.12533" lon="5.865">
        <ele>898</ele>
        <time>2022-09-22T12:29:53Z</time>
      </trkpt>
      <trkpt lat="44.12533" lon="5.86499">
        <ele>898</ele>
        <time>2022-09-22T12:29:54Z</time>
      </trkpt>
      <trkpt lat="44.12534" lon="5.86499">
        <ele>898</ele>
        <time>2022-09-22T12:29:55Z</time>
      </trkpt>
      <trkpt lat="44.12534" lon="5.86499">
        <ele>898</ele>
        <time>2022-09-22T12:29:56Z</time>
      </trkpt>
      <trkpt lat="44.12535" lon="5.86498">
        <ele>898</ele>
        <time>2022-09-22T12:29:57Z</time>
      </trkpt>
      <trkpt lat="44.12534" lon="5.86497">
        <ele>898</ele>
        <time>2022-09-22T12:32:34Z</time>
      </trkpt>
      <trkpt lat="44.12533" lon="5.86497">
        <ele>898</ele>
        <time>2022-09-22T12:32:35Z</time>
      </trkpt>
      <trkpt lat="44.12533" lon="5.86497">
        <ele>898</ele>
        <time>2022-09-22T12:32:36Z</time>
      </trkpt>
      <trkpt lat="44.12532" lon="5.86498">
        <ele>898</ele>
        <time>2022-09-22T12:32:37Z</time>
      </trkpt>
      <trkpt lat="44.12531" lon="5.86498">
        <ele>898</ele>
        <time>2022-09-22T12:32:38Z</time>
      </trkpt>
      <trkpt lat="44.12531" lon="5.865">
        <ele>898</ele>
        <time>2022-09-22T12:32:39Z</time>
      </trkpt>
      <trkpt lat="44.1253" lon="5.86501">
        <ele>898</ele>
        <time>2022-09-22T12:32:40Z</time>
      </trkpt>
      <trkpt lat="44.12529" lon="5.86503">
        <ele>898</ele>
        <time>2022-09-22T12:32:41Z</time>
      </trkpt>
      <trkpt lat="44.12528" lon="5.86505">
        <ele>898</ele>
        <time>2022-09-22T12:32:42Z</time>
      </trkpt>
      <trkpt lat="44.12527" lon="5.86506">
        <ele>898</ele>
        <time>2022-09-22T12:32:43Z</time>
      </trkpt>
      <trkpt lat="44.12526" lon="5.86508">
        <ele>898</ele>
        <time>2022-09-22T12:32:44Z</time>
      </trkpt>
      <trkpt lat="44.12526" lon="5.86509">
        <ele>897</ele>
        <time>2022-09-22T12:32:45Z</time>
      </trkpt>
      <trkpt lat="44.12525" lon="5.86511">
        <ele>897</ele>
        <time>2022-09-22T12:32:46Z</time>
      </trkpt>
      <trkpt lat="44.12525" lon="5.86512">
        <ele>897</ele>
        <time>2022-09-22T12:32:47Z</time>
      </trkpt>
      <trkpt lat="44.12525" lon="5.86513">
        <ele>897</ele>
        <time>2022-09-22T12:32:48Z</time>
      </trkpt>
      <trkpt lat="44.12524" lon="5.86514">
        <ele>897</ele>
        <time>2022-09-22T12:32:49Z</time>
      </trkpt>
      <trkpt lat="44.12524" lon="5.86515">
        <ele>897</ele>
        <time>2022-09-22T12:32:50Z</time>
      </trkpt>
      <trkpt lat="44.12524" lon="5.86516">
        <ele>897</ele>
        <time>2022-09-22T12:32:51Z</time>
      </trkpt>
      <trkpt lat="44.12524" lon="5.86517">
        <ele>897</ele>
        <time>2022-09-22T12:32:52Z</time>
      </trkpt>
      <trkpt lat="44.12524" lon="5.86519">
        <ele>897</ele>
        <time>2022-09-22T12:32:53Z</time>
      </trkpt>
      <trkpt lat="44.12525" lon="5.8652">
        <ele>897</ele>
        <time>2022-09-22T12:32:54Z</time>
      </trkpt>
      <trkpt lat="44.12525" lon="5.86521">
        <ele>896</ele>
        <time>2022-09-22T12:32:55Z</time>
      </trkpt>
      <trkpt lat="44.12525" lon="5.86522">
        <ele>896</ele>
        <time>2022-09-22T12:32:56Z</time>
      </trkpt>
      <trkpt lat="44.12525" lon="5.86523">
        <ele>896</ele>
        <time>2022-09-22T12:32:57Z</time>
      </trkpt>
      <trkpt lat="44.12526" lon="5.86525">
        <ele>896</ele>
        <time>2022-09-22T12:32:58Z</time>
      </trkpt>
      <trkpt lat="44.12526" lon="5.86526">
        <ele>896</ele>
        <time>2022-09-22T12:32:59Z</time>
      </trkpt>
      <trkpt lat="44.12526" lon="5.86528">
        <ele>896</ele>
        <time>2022-09-22T12:33:00Z</time>
      </trkpt>
      <trkpt lat="44.12527" lon="5.86529">
        <ele>896</ele>
        <time>2022-09-22T12:33:01Z</time>
      </trkpt>
      <trkpt lat="44.12527" lon="5.86531">
        <ele>896</ele>
        <time>2022-09-22T12:33:02Z</time>
      </trkpt>
      <trkpt lat="44.12527" lon="5.86533">
        <ele>896</ele>
        <time>2022-09-22T12:33:03Z</time>
      </trkpt>
      <trkpt lat="44.12527" lon="5.86534">
        <ele>896</ele>
        <time>2022-09-22T12:33:04Z</time>
      </trkpt>
      <trkpt lat="44.12528" lon="5.86536">
        <ele>895</ele>
        <time>2022-09-22T12:33:05Z</time>
      </trkpt>
      <trkpt lat="44.12528" lon="5.86537">
        <ele>895</ele>
        <time>2022-09-22T12:33:06Z</time>
      </trkpt>
      <trkpt lat="44.12528" lon="5.86538">
        <ele>895</ele>
        <time>2022-09-22T12:33:07Z</time>
      </trkpt>
      <trkpt lat="44.12528" lon="5.8654">
        <ele>895</ele>
        <time>2022-09-22T12:33:08Z</time>
      </trkpt>
      <trkpt lat="44.12529" lon="5.86541">
        <ele>895</ele>
        <time>2022-09-22T12:33:09Z</time>
      </trkpt>
      <trkpt lat="44.12529" lon="5.86543">
        <ele>895</ele>
        <time>2022-09-22T12:33:10Z</time>
      </trkpt>
      <trkpt lat="44.12529" lon="5.86544">
        <ele>895</ele>
        <time>2022-09-22T12:33:11Z</time>
      </trkpt>
      <trkpt lat="44.12529" lon="5.86546">
        <ele>895</ele>
        <time>2022-09-22T12:33:12Z</time>
      </trkpt>
      <trkpt lat="44.12529" lon="5.86547">
        <ele>895</ele>
        <time>2022-09-22T12:33:13Z</time>
      </trkpt>
      <trkpt lat="44.1253" lon="5.86548">
        <ele>895</ele>
        <time>2022-09-22T12:33:14Z</time>
      </trkpt>
      <trkpt lat="44.1253" lon="5.8655">
        <ele>894</ele>
        <time>2022-09-22T12:33:15Z</time>
      </trkpt>
      <trkpt lat="44.1253" lon="5.86551">
        <ele>894</ele>
        <time>2022-09-22T12:33:16Z</time>
      </trkpt>
      <trkpt lat="44.1253" lon="5.86552">
        <ele>894</ele>
        <time>2022-09-22T12:33:17Z</time>
      </trkpt>
      <trkpt lat="44.12531" lon="5.86554">
        <ele>894</ele>
        <time>2022-09-22T12:33:18Z</time>
      </trkpt>
      <trkpt lat="44.12531" lon="5.86555">
        <ele>894</ele>
        <time>2022-09-22T12:33:19Z</time>
      </trkpt>
      <trkpt lat="44.12531" lon="5.86556">
        <ele>894</ele>
        <time>2022-09-22T12:33:20Z</time>
      </trkpt>
      <trkpt lat="44.12531" lon="5.86557">
        <ele>894</ele>
        <time>2022-09-22T12:33:21Z</time>
      </trkpt>
      <trkpt lat="44.12532" lon="5.86559">
        <ele>894</ele>
        <time>2022-09-22T12:33:22Z</time>
      </trkpt>
      <trkpt lat="44.12532" lon="5.8656">
        <ele>894</ele>
        <time>2022-09-22T12:33:23Z</time>
      </trkpt>
      <trkpt lat="44.12533" lon="5.86562">
        <ele>894</ele>
        <time>2022-09-22T12:33:24Z</time>
      </trkpt>
      <trkpt lat="44.12533" lon="5.86563">
        <ele>894</ele>
        <time>2022-09-22T12:33:25Z</time>
      </trkpt>
      <trkpt lat="44.12534" lon="5.86564">
        <ele>894</ele>
        <time>2022-09-22T12:33:26Z</time>
      </trkpt>
      <trkpt lat="44.12535" lon="5.86566">
        <ele>894</ele>
        <time>2022-09-22T12:33:27Z</time>
      </trkpt>
      <trkpt lat="44.12536" lon="5.86567">
        <ele>894</ele>
        <time>2022-09-22T12:33:28Z</time>
      </trkpt>
      <trkpt lat="44.12538" lon="5.86568">
        <ele>894</ele>
        <time>2022-09-22T12:33:29Z</time>
      </trkpt>
      <trkpt lat="44.12539" lon="5.8657">
        <ele>894</ele>
        <time>2022-09-22T12:33:30Z</time>
      </trkpt>
      <trkpt lat="44.1254" lon="5.86571">
        <ele>894</ele>
        <time>2022-09-22T12:33:31Z</time>
      </trkpt>
      <trkpt lat="44.12541" lon="5.86572">
        <ele>894</ele>
        <time>2022-09-22T12:33:32Z</time>
      </trkpt>
      <trkpt lat="44.12542" lon="5.86574">
        <ele>894</ele>
        <time>2022-09-22T12:33:33Z</time>
      </trkpt>
      <trkpt lat="44.12542" lon="5.86575">
        <ele>894</ele>
        <time>2022-09-22T12:33:34Z</time>
      </trkpt>
      <trkpt lat="44.12542" lon="5.86577">
        <ele>893</ele>
        <time>2022-09-22T12:33:35Z</time>
      </trkpt>
      <trkpt lat="44.12543" lon="5.86578">
        <ele>893</ele>
        <time>2022-09-22T12:33:36Z</time>
      </trkpt>
      <trkpt lat="44.12543" lon="5.8658">
        <ele>893</ele>
        <time>2022-09-22T12:33:37Z</time>
      </trkpt>
      <trkpt lat="44.12544" lon="5.86582">
        <ele>893</ele>
        <time>2022-09-22T12:33:38Z</time>
      </trkpt>
      <trkpt lat="44.12544" lon="5.86583">
        <ele>893</ele>
        <time>2022-09-22T12:33:39Z</time>
      </trkpt>
      <trkpt lat="44.12545" lon="5.86585">
        <ele>893</ele>
        <time>2022-09-22T12:33:40Z</time>
      </trkpt>
      <trkpt lat="44.12546" lon="5.86586">
        <ele>893</ele>
        <time>2022-09-22T12:33:41Z</time>
      </trkpt>
      <trkpt lat="44.12547" lon="5.86588">
        <ele>893</ele>
        <time>2022-09-22T12:33:42Z</time>
      </trkpt>
      <trkpt lat="44.12547" lon="5.86589">
        <ele>893</ele>
        <time>2022-09-22T12:33:43Z</time>
      </trkpt>
      <trkpt lat="44.12548" lon="5.8659">
        <ele>894</ele>
        <time>2022-09-22T12:33:44Z</time>
      </trkpt>
      <trkpt lat="44.12549" lon="5.86592">
        <ele>894</ele>
        <time>2022-09-22T12:33:45Z</time>
      </trkpt>
      <trkpt lat="44.12549" lon="5.86593">
        <ele>894</ele>
        <time>2022-09-22T12:33:46Z</time>
      </trkpt>
      <trkpt lat="44.1255" lon="5.86594">
        <ele>894</ele>
        <time>2022-09-22T12:33:47Z</time>
      </trkpt>
      <trkpt lat="44.12551" lon="5.86595">
        <ele>894</ele>
        <time>2022-09-22T12:33:48Z</time>
      </trkpt>
      <trkpt lat="44.12551" lon="5.86596">
        <ele>894</ele>
        <time>2022-09-22T12:33:49Z</time>
      </trkpt>
      <trkpt lat="44.12552" lon="5.86597">
        <ele>894</ele>
        <time>2022-09-22T12:33:50Z</time>
      </trkpt>
      <trkpt lat="44.12552" lon="5.86598">
        <ele>894</ele>
        <time>2022-09-22T12:33:51Z</time>
      </trkpt>
      <trkpt lat="44.12553" lon="5.86599">
        <ele>894</ele>
        <time>2022-09-22T12:33:52Z</time>
      </trkpt>
      <trkpt lat="44.12553" lon="5.866">
        <ele>894</ele>
        <time>2022-09-22T12:33:53Z</time>
      </trkpt>
      <trkpt lat="44.12554" lon="5.86601">
        <ele>894</ele>
        <time>2022-09-22T12:33:54Z</time>
      </trkpt>
      <trkpt lat="44.12555" lon="5.86603">
        <ele>894</ele>
        <time>2022-09-22T12:33:55Z</time>
      </trkpt>
      <trkpt lat="44.12555" lon="5.86604">
        <ele>894</ele>
        <time>2022-09-22T12:33:56Z</time>
      </trkpt>
      <trkpt lat="44.12556" lon="5.86605">
        <ele>894</ele>
        <time>2022-09-22T12:33:57Z</time>
      </trkpt>
      <trkpt lat="44.12556" lon="5.86606">
        <ele>894</ele>
        <time>2022-09-22T12:33:58Z</time>
      </trkpt>
      <trkpt lat="44.12557" lon="5.86608">
        <ele>894</ele>
        <time>2022-09-22T12:33:59Z</time>
      </trkpt>
      <trkpt lat="44.12557" lon="5.86609">
        <ele>894</ele>
        <time>2022-09-22T12:34:00Z</time>
      </trkpt>
      <trkpt lat="44.12557" lon="5.8661">
        <ele>894</ele>
        <time>2022-09-22T12:34:01Z</time>
      </trkpt>
      <trkpt lat="44.12557" lon="5.86611">
        <ele>894</ele>
        <time>2022-09-22T12:34:02Z</time>
      </trkpt>
      <trkpt lat="44.12558" lon="5.86612">
        <ele>894</ele>
        <time>2022-09-22T12:34:03Z</time>
      </trkpt>
      <trkpt lat="44.12558" lon="5.86614">
        <ele>894</ele>
        <time>2022-09-22T12:34:04Z</time>
      </trkpt>
      <trkpt lat="44.12559" lon="5.86615">
        <ele>894</ele>
        <time>2022-09-22T12:34:05Z</time>
      </trkpt>
      <trkpt lat="44.12559" lon="5.86617">
        <ele>894</ele>
        <time>2022-09-22T12:34:06Z</time>
      </trkpt>
      <trkpt lat="44.1256" lon="5.86618">
        <ele>894</ele>
        <time>2022-09-22T12:34:07Z</time>
      </trkpt>
      <trkpt lat="44.12561" lon="5.8662">
        <ele>894</ele>
        <time>2022-09-22T12:34:08Z</time>
      </trkpt>
      <trkpt lat="44.12562" lon="5.86621">
        <ele>894</ele>
        <time>2022-09-22T12:34:09Z</time>
      </trkpt>
      <trkpt lat="44.12563" lon="5.86622">
        <ele>894</ele>
        <time>2022-09-22T12:34:10Z</time>
      </trkpt>
      <trkpt lat="44.12564" lon="5.86623">
        <ele>894</ele>
        <time>2022-09-22T12:34:11Z</time>
      </trkpt>
      <trkpt lat="44.12565" lon="5.86624">
        <ele>894</ele>
        <time>2022-09-22T12:34:12Z</time>
      </trkpt>
      <trkpt lat="44.12566" lon="5.86626">
        <ele>894</ele>
        <time>2022-09-22T12:34:13Z</time>
      </trkpt>
      <trkpt lat="44.12568" lon="5.86627">
        <ele>894</ele>
        <time>2022-09-22T12:34:14Z</time>
      </trkpt>
      <trkpt lat="44.12569" lon="5.86628">
        <ele>894</ele>
        <time>2022-09-22T12:34:15Z</time>
      </trkpt>
      <trkpt lat="44.1257" lon="5.86629">
        <ele>894</ele>
        <time>2022-09-22T12:34:16Z</time>
      </trkpt>
      <trkpt lat="44.12572" lon="5.8663">
        <ele>894</ele>
        <time>2022-09-22T12:34:17Z</time>
      </trkpt>
      <trkpt lat="44.12573" lon="5.86631">
        <ele>894</ele>
        <time>2022-09-22T12:34:18Z</time>
      </trkpt>
      <trkpt lat="44.12574" lon="5.86632">
        <ele>894</ele>
        <time>2022-09-22T12:34:19Z</time>
      </trkpt>
      <trkpt lat="44.12575" lon="5.86633">
        <ele>894</ele>
        <time>2022-09-22T12:34:20Z</time>
      </trkpt>
      <trkpt lat="44.12576" lon="5.86634">
        <ele>894</ele>
        <time>2022-09-22T12:34:21Z</time>
      </trkpt>
      <trkpt lat="44.12577" lon="5.86635">
        <ele>894</ele>
        <time>2022-09-22T12:34:22Z</time>
      </trkpt>
      <trkpt lat="44.12578" lon="5.86636">
        <ele>894</ele>
        <time>2022-09-22T12:34:23Z</time>
      </trkpt>
      <trkpt lat="44.12579" lon="5.86637">
        <ele>894</ele>
        <time>2022-09-22T12:34:24Z</time>
      </trkpt>
      <trkpt lat="44.1258" lon="5.86638">
        <ele>894</ele>
        <time>2022-09-22T12:34:25Z</time>
      </trkpt>
      <trkpt lat="44.12581" lon="5.86639">
        <ele>894</ele>
        <time>2022-09-22T12:34:26Z</time>
      </trkpt>
      <trkpt lat="44.12582" lon="5.8664">
        <ele>894</ele>
        <time>2022-09-22T12:34:27Z</time>
      </trkpt>
      <trkpt lat="44.12583" lon="5.86641">
        <ele>894</ele>
        <time>2022-09-22T12:34:28Z</time>
      </trkpt>
      <trkpt lat="44.12584" lon="5.86641">
        <ele>895</ele>
        <time>2022-09-22T12:34:29Z</time>
      </trkpt>
      <trkpt lat="44.12585" lon="5.86642">
        <ele>895</ele>
        <time>2022-09-22T12:34:30Z</time>
      </trkpt>
      <trkpt lat="44.12586" lon="5.86643">
        <ele>895</ele>
        <time>2022-09-22T12:34:31Z</time>
      </trkpt>
      <trkpt lat="44.12587" lon="5.86643">
        <ele>895</ele>
        <time>2022-09-22T12:34:32Z</time>
      </trkpt>
      <trkpt lat="44.12588" lon="5.86644">
        <ele>895</ele>
        <time>2022-09-22T12:34:33Z</time>
      </trkpt>
      <trkpt lat="44.12589" lon="5.86645">
        <ele>895</ele>
        <time>2022-09-22T12:34:34Z</time>
      </trkpt>
      <trkpt lat="44.12591" lon="5.86646">
        <ele>895</ele>
        <time>2022-09-22T12:34:35Z</time>
      </trkpt>
      <trkpt lat="44.12592" lon="5.86647">
        <ele>895</ele>
        <time>2022-09-22T12:34:36Z</time>
      </trkpt>
      <trkpt lat="44.12593" lon="5.86647">
        <ele>895</ele>
        <time>2022-09-22T12:34:37Z</time>
      </trkpt>
      <trkpt lat="44.12595" lon="5.86648">
        <ele>895</ele>
        <time>2022-09-22T12:34:38Z</time>
      </trkpt>
      <trkpt lat="44.12596" lon="5.86649">
        <ele>895</ele>
        <time>2022-09-22T12:34:39Z</time>
      </trkpt>
      <trkpt lat="44.12597" lon="5.8665">
        <ele>895</ele>
        <time>2022-09-22T12:34:40Z</time>
      </trkpt>
      <trkpt lat="44.12597" lon="5.86651">
        <ele>895</ele>
        <time>2022-09-22T12:34:41Z</time>
      </trkpt>
      <trkpt lat="44.12598" lon="5.86652">
        <ele>895</ele>
        <time>2022-09-22T12:34:42Z</time>
      </trkpt>
      <trkpt lat="44.12599" lon="5.86653">
        <ele>895</ele>
        <time>2022-09-22T12:34:43Z</time>
      </trkpt>
      <trkpt lat="44.12599" lon="5.86654">
        <ele>896</ele>
        <time>2022-09-22T12:34:44Z</time>
      </trkpt>
      <trkpt lat="44.126" lon="5.86655">
        <ele>896</ele>
        <time>2022-09-22T12:34:45Z</time>
      </trkpt>
      <trkpt lat="44.12601" lon="5.86656">
        <ele>896</ele>
        <time>2022-09-22T12:34:46Z</time>
      </trkpt>
      <trkpt lat="44.12602" lon="5.86657">
        <ele>896</ele>
        <time>2022-09-22T12:34:47Z</time>
      </trkpt>
      <trkpt lat="44.12603" lon="5.86658">
        <ele>896</ele>
        <time>2022-09-22T12:34:48Z</time>
      </trkpt>
      <trkpt lat="44.12604" lon="5.86659">
        <ele>896</ele>
        <time>2022-09-22T12:34:49Z</time>
      </trkpt>
      <trkpt lat="44.12605" lon="5.8666">
        <ele>896</ele>
        <time>2022-09-22T12:34:50Z</time>
      </trkpt>
      <trkpt lat="44.12606" lon="5.86661">
        <ele>896</ele>
        <time>2022-09-22T12:34:51Z</time>
      </trkpt>
      <trkpt lat="44.12607" lon="5.86662">
        <ele>896</ele>
        <time>2022-09-22T12:34:52Z</time>
      </trkpt>
      <trkpt lat="44.12608" lon="5.86663">
        <ele>896</ele>
        <time>2022-09-22T12:34:53Z</time>
      </trkpt>
      <trkpt lat="44.1261" lon="5.86664">
        <ele>896</ele>
        <time>2022-09-22T12:34:54Z</time>
      </trkpt>
      <trkpt lat="44.12611" lon="5.86665">
        <ele>896</ele>
        <time>2022-09-22T12:34:55Z</time>
      </trkpt>
      <trkpt lat="44.12612" lon="5.86666">
        <ele>896</ele>
        <time>2022-09-22T12:34:56Z</time>
      </trkpt>
      <trkpt lat="44.12613" lon="5.86667">
        <ele>896</ele>
        <time>2022-09-22T12:34:57Z</time>
      </trkpt>
      <trkpt lat="44.12614" lon="5.86667">
        <ele>896</ele>
        <time>2022-09-22T12:34:58Z</time>
      </trkpt>
      <trkpt lat="44.12615" lon="5.86668">
        <ele>897</ele>
        <time>2022-09-22T12:34:59Z</time>
      </trkpt>
      <trkpt lat="44.12616" lon="5.86669">
        <ele>897</ele>
        <time>2022-09-22T12:35:00Z</time>
      </trkpt>
      <trkpt lat="44.12616" lon="5.8667">
        <ele>897</ele>
        <time>2022-09-22T12:35:01Z</time>
      </trkpt>
      <trkpt lat="44.12617" lon="5.86671">
        <ele>897</ele>
        <time>2022-09-22T12:35:02Z</time>
      </trkpt>
      <trkpt lat="44.12618" lon="5.86672">
        <ele>897</ele>
        <time>2022-09-22T12:35:03Z</time>
      </trkpt>
      <trkpt lat="44.12619" lon="5.86673">
        <ele>897</ele>
        <time>2022-09-22T12:35:04Z</time>
      </trkpt>
      <trkpt lat="44.1262" lon="5.86674">
        <ele>897</ele>
        <time>2022-09-22T12:35:05Z</time>
      </trkpt>
      <trkpt lat="44.1262" lon="5.86675">
        <ele>897</ele>
        <time>2022-09-22T12:35:06Z</time>
      </trkpt>
      <trkpt lat="44.12621" lon="5.86676">
        <ele>897</ele>
        <time>2022-09-22T12:35:07Z</time>
      </trkpt>
      <trkpt lat="44.12622" lon="5.86677">
        <ele>897</ele>
        <time>2022-09-22T12:35:08Z</time>
      </trkpt>
      <trkpt lat="44.12622" lon="5.86678">
        <ele>897</ele>
        <time>2022-09-22T12:35:09Z</time>
      </trkpt>
      <trkpt lat="44.12623" lon="5.86679">
        <ele>897</ele>
        <time>2022-09-22T12:35:10Z</time>
      </trkpt>
      <trkpt lat="44.12623" lon="5.86681">
        <ele>897</ele>
        <time>2022-09-22T12:35:11Z</time>
      </trkpt>
      <trkpt lat="44.12624" lon="5.86682">
        <ele>897</ele>
        <time>2022-09-22T12:35:12Z</time>
      </trkpt>
      <trkpt lat="44.12625" lon="5.86683">
        <ele>897</ele>
        <time>2022-09-22T12:35:13Z</time>
      </trkpt>
      <trkpt lat="44.12626" lon="5.86685">
        <ele>898</ele>
        <time>2022-09-22T12:35:14Z</time>
      </trkpt>
      <trkpt lat="44.12626" lon="5.86686">
        <ele>898</ele>
        <time>2022-09-22T12:35:15Z</time>
      </trkpt>
      <trkpt lat="44.12627" lon="5.86687">
        <ele>898</ele>
        <time>2022-09-22T12:35:16Z</time>
      </trkpt>
      <trkpt lat="44.12627" lon="5.86689">
        <ele>898</ele>
        <time>2022-09-22T12:35:17Z</time>
      </trkpt>
      <trkpt lat="44.12628" lon="5.8669">
        <ele>898</ele>
        <time>2022-09-22T12:35:18Z</time>
      </trkpt>
      <trkpt lat="44.12628" lon="5.86691">
        <ele>898</ele>
        <time>2022-09-22T12:35:19Z</time>
      </trkpt>
      <trkpt lat="44.12628" lon="5.86692">
        <ele>898</ele>
        <time>2022-09-22T12:35:20Z</time>
      </trkpt>
      <trkpt lat="44.12629" lon="5.86693">
        <ele>898</ele>
        <time>2022-09-22T12:35:21Z</time>
      </trkpt>
      <trkpt lat="44.12629" lon="5.86694">
        <ele>898</ele>
        <time>2022-09-22T12:35:22Z</time>
      </trkpt>
      <trkpt lat="44.1263" lon="5.86695">
        <ele>898</ele>
        <time>2022-09-22T12:35:23Z</time>
      </trkpt>
      <trkpt lat="44.1263" lon="5.86696">
        <ele>898</ele>
        <time>2022-09-22T12:35:24Z</time>
      </trkpt>
      <trkpt lat="44.1263" lon="5.86697">
        <ele>898</ele>
        <time>2022-09-22T12:35:25Z</time>
      </trkpt>
      <trkpt lat="44.12631" lon="5.86698">
        <ele>898</ele>
        <time>2022-09-22T12:35:26Z</time>
      </trkpt>
      <trkpt lat="44.12631" lon="5.86698">
        <ele>898</ele>
        <time>2022-09-22T12:35:27Z</time>
      </trkpt>
      <trkpt lat="44.12632" lon="5.86699">
        <ele>898</ele>
        <time>2022-09-22T12:35:28Z</time>
      </trkpt>
      <trkpt lat="44.12632" lon="5.867">
        <ele>898</ele>
        <time>2022-09-22T12:35:29Z</time>
      </trkpt>
      <trkpt lat="44.12632" lon="5.86701">
        <ele>898</ele>
        <time>2022-09-22T12:35:30Z</time>
      </trkpt>
      <trkpt lat="44.12632" lon="5.86701">
        <ele>898</ele>
        <time>2022-09-22T12:35:31Z</time>
      </trkpt>
      <trkpt lat="44.12632" lon="5.86701">
        <ele>898</ele>
        <time>2022-09-22T12:35:32Z</time>
      </trkpt>
      <trkpt lat="44.12632" lon="5.86702">
        <ele>898</ele>
        <time>2022-09-22T12:35:33Z</time>
      </trkpt>
      <trkpt lat="44.12632" lon="5.86702">
        <ele>898</ele>
        <time>2022-09-22T12:35:34Z</time>
      </trkpt>
      <trkpt lat="44.12633" lon="5.86703">
        <ele>898</ele>
        <time>2022-09-22T12:35:35Z</time>
      </trkpt>
      <trkpt lat="44.12633" lon="5.86704">
        <ele>898</ele>
        <time>2022-09-22T12:35:36Z</time>
      </trkpt>
      <trkpt lat="44.12632" lon="5.86705">
        <ele>898</ele>
        <time>2022-09-22T12:35:37Z</time>
      </trkpt>
      <trkpt lat="44.12632" lon="5.86706">
        <ele>898</ele>
        <time>2022-09-22T12:35:38Z</time>
      </trkpt>
      <trkpt lat="44.12632" lon="5.86707">
        <ele>898</ele>
        <time>2022-09-22T12:35:39Z</time>
      </trkpt>
      <trkpt lat="44.12632" lon="5.86707">
        <ele>898</ele>
        <time>2022-09-22T12:35:40Z</time>
      </trkpt>
      <trkpt lat="44.12631" lon="5.86708">
        <ele>898</ele>
        <time>2022-09-22T12:35:41Z</time>
      </trkpt>
      <trkpt lat="44.12631" lon="5.86709">
        <ele>898</ele>
        <time>2022-09-22T12:35:42Z</time>
      </trkpt>
      <trkpt lat="44.1263" lon="5.8671">
        <ele>898</ele>
        <time>2022-09-22T12:35:43Z</time>
      </trkpt>
      <trkpt lat="44.12629" lon="5.86711">
        <ele>898</ele>
        <time>2022-09-22T12:35:44Z</time>
      </trkpt>
      <trkpt lat="44.12629" lon="5.86712">
        <ele>897</ele>
        <time>2022-09-22T12:35:45Z</time>
      </trkpt>
      <trkpt lat="44.12628" lon="5.86713">
        <ele>897</ele>
        <time>2022-09-22T12:35:46Z</time>
      </trkpt>
      <trkpt lat="44.12628" lon="5.86714">
        <ele>897</ele>
        <time>2022-09-22T12:35:47Z</time>
      </trkpt>
      <trkpt lat="44.12627" lon="5.86715">
        <ele>897</ele>
        <time>2022-09-22T12:35:48Z</time>
      </trkpt>
      <trkpt lat="44.12627" lon="5.86716">
        <ele>897</ele>
        <time>2022-09-22T12:35:49Z</time>
      </trkpt>
      <trkpt lat="44.12626" lon="5.86717">
        <ele>897</ele>
        <time>2022-09-22T12:35:50Z</time>
      </trkpt>
      <trkpt lat="44.12625" lon="5.86718">
        <ele>897</ele>
        <time>2022-09-22T12:35:51Z</time>
      </trkpt>
      <trkpt lat="44.12625" lon="5.86719">
        <ele>897</ele>
        <time>2022-09-22T12:35:52Z</time>
      </trkpt>
      <trkpt lat="44.12624" lon="5.8672">
        <ele>897</ele>
        <time>2022-09-22T12:35:53Z</time>
      </trkpt>
      <trkpt lat="44.12623" lon="5.86721">
        <ele>897</ele>
        <time>2022-09-22T12:35:54Z</time>
      </trkpt>
      <trkpt lat="44.12622" lon="5.86723">
        <ele>896</ele>
        <time>2022-09-22T12:35:55Z</time>
      </trkpt>
      <trkpt lat="44.12621" lon="5.86724">
        <ele>896</ele>
        <time>2022-09-22T12:35:56Z</time>
      </trkpt>
      <trkpt lat="44.1262" lon="5.86724">
        <ele>896</ele>
        <time>2022-09-22T12:35:57Z</time>
      </trkpt>
      <trkpt lat="44.12619" lon="5.86725">
        <ele>896</ele>
        <time>2022-09-22T12:35:58Z</time>
      </trkpt>
      <trkpt lat="44.12618" lon="5.86726">
        <ele>896</ele>
        <time>2022-09-22T12:35:59Z</time>
      </trkpt>
      <trkpt lat="44.12617" lon="5.86727">
        <ele>896</ele>
        <time>2022-09-22T12:36:00Z</time>
      </trkpt>
      <trkpt lat="44.12616" lon="5.86728">
        <ele>896</ele>
        <time>2022-09-22T12:36:01Z</time>
      </trkpt>
      <trkpt lat="44.12615" lon="5.86729">
        <ele>896</ele>
        <time>2022-09-22T12:36:02Z</time>
      </trkpt>
      <trkpt lat="44.12615" lon="5.8673">
        <ele>896</ele>
        <time>2022-09-22T12:36:03Z</time>
      </trkpt>
      <trkpt lat="44.12614" lon="5.86731">
        <ele>896</ele>
        <time>2022-09-22T12:36:04Z</time>
      </trkpt>
      <trkpt lat="44.12613" lon="5.86732">
        <ele>895</ele>
        <time>2022-09-22T12:36:05Z</time>
      </trkpt>
      <trkpt lat="44.12612" lon="5.86733">
        <ele>895</ele>
        <time>2022-09-22T12:36:06Z</time>
      </trkpt>
      <trkpt lat="44.12611" lon="5.86734">
        <ele>895</ele>
        <time>2022-09-22T12:36:07Z</time>
      </trkpt>
      <trkpt lat="44.1261" lon="5.86735">
        <ele>895</ele>
        <time>2022-09-22T12:36:08Z</time>
      </trkpt>
      <trkpt lat="44.12609" lon="5.86735">
        <ele>895</ele>
        <time>2022-09-22T12:36:09Z</time>
      </trkpt>
      <trkpt lat="44.12607" lon="5.86736">
        <ele>895</ele>
        <time>2022-09-22T12:36:10Z</time>
      </trkpt>
      <trkpt lat="44.12606" lon="5.86737">
        <ele>895</ele>
        <time>2022-09-22T12:36:11Z</time>
      </trkpt>
      <trkpt lat="44.12605" lon="5.86737">
        <ele>895</ele>
        <time>2022-09-22T12:36:12Z</time>
      </trkpt>
      <trkpt lat="44.12604" lon="5.86738">
        <ele>895</ele>
        <time>2022-09-22T12:36:13Z</time>
      </trkpt>
      <trkpt lat="44.12603" lon="5.86738">
        <ele>895</ele>
        <time>2022-09-22T12:36:14Z</time>
      </trkpt>
      <trkpt lat="44.12602" lon="5.86739">
        <ele>894</ele>
        <time>2022-09-22T12:36:15Z</time>
      </trkpt>
      <trkpt lat="44.12601" lon="5.86739">
        <ele>894</ele>
        <time>2022-09-22T12:36:16Z</time>
      </trkpt>
      <trkpt lat="44.126" lon="5.8674">
        <ele>894</ele>
        <time>2022-09-22T12:36:17Z</time>
      </trkpt>
      <trkpt lat="44.12599" lon="5.8674">
        <ele>894</ele>
        <time>2022-09-22T12:36:18Z</time>
      </trkpt>
      <trkpt lat="44.12599" lon="5.86741">
        <ele>894</ele>
        <time>2022-09-22T12:36:19Z</time>
      </trkpt>
      <trkpt lat="44.12598" lon="5.86741">
        <ele>894</ele>
        <time>2022-09-22T12:36:20Z</time>
      </trkpt>
      <trkpt lat="44.12597" lon="5.86742">
        <ele>894</ele>
        <time>2022-09-22T12:36:21Z</time>
      </trkpt>
      <trkpt lat="44.12597" lon="5.86742">
        <ele>894</ele>
        <time>2022-09-22T12:36:22Z</time>
      </trkpt>
      <trkpt lat="44.12596" lon="5.86743">
        <ele>894</ele>
        <time>2022-09-22T12:36:23Z</time>
      </trkpt>
      <trkpt lat="44.12595" lon="5.86743">
        <ele>894</ele>
        <time>2022-09-22T12:36:24Z</time>
      </trkpt>
      <trkpt lat="44.12595" lon="5.86744">
        <ele>893</ele>
        <time>2022-09-22T12:36:25Z</time>
      </trkpt>
      <trkpt lat="44.12594" lon="5.86745">
        <ele>893</ele>
        <time>2022-09-22T12:36:26Z</time>
      </trkpt>
      <trkpt lat="44.12594" lon="5.86746">
        <ele>893</ele>
        <time>2022-09-22T12:36:27Z</time>
      </trkpt>
      <trkpt lat="44.12594" lon="5.86746">
        <ele>893</ele>
        <time>2022-09-22T12:36:28Z</time>
      </trkpt>
      <trkpt lat="44.12594" lon="5.86747">
        <ele>893</ele>
        <time>2022-09-22T12:36:29Z</time>
      </trkpt>
      <trkpt lat="44.12594" lon="5.86748">
        <ele>893</ele>
        <time>2022-09-22T12:36:30Z</time>
      </trkpt>
      <trkpt lat="44.12594" lon="5.86749">
        <ele>893</ele>
        <time>2022-09-22T12:36:31Z</time>
      </trkpt>
      <trkpt lat="44.12594" lon="5.8675">
        <ele>893</ele>
        <time>2022-09-22T12:36:32Z</time>
      </trkpt>
      <trkpt lat="44.12593" lon="5.86752">
        <ele>893</ele>
        <time>2022-09-22T12:36:33Z</time>
      </trkpt>
      <trkpt lat="44.12593" lon="5.86753">
        <ele>893</ele>
        <time>2022-09-22T12:36:34Z</time>
      </trkpt>
      <trkpt lat="44.12593" lon="5.86754">
        <ele>892</ele>
        <time>2022-09-22T12:36:35Z</time>
      </trkpt>
      <trkpt lat="44.12593" lon="5.86755">
        <ele>892</ele>
        <time>2022-09-22T12:36:36Z</time>
      </trkpt>
      <trkpt lat="44.12593" lon="5.86756">
        <ele>892</ele>
        <time>2022-09-22T12:36:37Z</time>
      </trkpt>
      <trkpt lat="44.12592" lon="5.86758">
        <ele>892</ele>
        <time>2022-09-22T12:36:38Z</time>
      </trkpt>
      <trkpt lat="44.12592" lon="5.86759">
        <ele>892</ele>
        <time>2022-09-22T12:36:39Z</time>
      </trkpt>
      <trkpt lat="44.12591" lon="5.8676">
        <ele>891</ele>
        <time>2022-09-22T12:36:40Z</time>
      </trkpt>
      <trkpt lat="44.12591" lon="5.86761">
        <ele>891</ele>
        <time>2022-09-22T12:36:41Z</time>
      </trkpt>
      <trkpt lat="44.1259" lon="5.86762">
        <ele>891</ele>
        <time>2022-09-22T12:36:42Z</time>
      </trkpt>
      <trkpt lat="44.12589" lon="5.86763">
        <ele>891</ele>
        <time>2022-09-22T12:36:43Z</time>
      </trkpt>
      <trkpt lat="44.12589" lon="5.86764">
        <ele>891</ele>
        <time>2022-09-22T12:36:44Z</time>
      </trkpt>
      <trkpt lat="44.12588" lon="5.86764">
        <ele>891</ele>
        <time>2022-09-22T12:36:45Z</time>
      </trkpt>
      <trkpt lat="44.12587" lon="5.86765">
        <ele>891</ele>
        <time>2022-09-22T12:36:46Z</time>
      </trkpt>
      <trkpt lat="44.12586" lon="5.86766">
        <ele>891</ele>
        <time>2022-09-22T12:36:47Z</time>
      </trkpt>
      <trkpt lat="44.12586" lon="5.86767">
        <ele>891</ele>
        <time>2022-09-22T12:36:48Z</time>
      </trkpt>
      <trkpt lat="44.12585" lon="5.86768">
        <ele>891</ele>
        <time>2022-09-22T12:36:49Z</time>
      </trkpt>
      <trkpt lat="44.12584" lon="5.86768">
        <ele>890</ele>
        <time>2022-09-22T12:36:50Z</time>
      </trkpt>
      <trkpt lat="44.12583" lon="5.86769">
        <ele>890</ele>
        <time>2022-09-22T12:36:51Z</time>
      </trkpt>
      <trkpt lat="44.12583" lon="5.8677">
        <ele>890</ele>
        <time>2022-09-22T12:36:52Z</time>
      </trkpt>
      <trkpt lat="44.12582" lon="5.86771">
        <ele>890</ele>
        <time>2022-09-22T12:36:53Z</time>
      </trkpt>
      <trkpt lat="44.12581" lon="5.86772">
        <ele>890</ele>
        <time>2022-09-22T12:36:54Z</time>
      </trkpt>
      <trkpt lat="44.12581" lon="5.86773">
        <ele>890</ele>
        <time>2022-09-22T12:36:55Z</time>
      </trkpt>
      <trkpt lat="44.1258" lon="5.86774">
        <ele>890</ele>
        <time>2022-09-22T12:36:56Z</time>
      </trkpt>
      <trkpt lat="44.1258" lon="5.86775">
        <ele>890</ele>
        <time>2022-09-22T12:36:57Z</time>
      </trkpt>
      <trkpt lat="44.1258" lon="5.86776">
        <ele>890</ele>
        <time>2022-09-22T12:36:58Z</time>
      </trkpt>
      <trkpt lat="44.12579" lon="5.86777">
        <ele>890</ele>
        <time>2022-09-22T12:36:59Z</time>
      </trkpt>
      <trkpt lat="44.12579" lon="5.86779">
        <ele>890</ele>
        <time>2022-09-22T12:37:00Z</time>
      </trkpt>
      <trkpt lat="44.12579" lon="5.8678">
        <ele>890</ele>
        <time>2022-09-22T12:37:01Z</time>
      </trkpt>
      <trkpt lat="44.12579" lon="5.86782">
        <ele>890</ele>
        <time>2022-09-22T12:37:02Z</time>
      </trkpt>
      <trkpt lat="44.12579" lon="5.86784">
        <ele>890</ele>
        <time>2022-09-22T12:37:03Z</time>
      </trkpt>
      <trkpt lat="44.12579" lon="5.86785">
        <ele>890</ele>
        <time>2022-09-22T12:37:04Z</time>
      </trkpt>
      <trkpt lat="44.12579" lon="5.86787">
        <ele>890</ele>
        <time>2022-09-22T12:37:05Z</time>
      </trkpt>
      <trkpt lat="44.12579" lon="5.8679">
        <ele>890</ele>
        <time>2022-09-22T12:37:11Z</time>
      </trkpt>
      <trkpt lat="44.12579" lon="5.86791">
        <ele>890</ele>
        <time>2022-09-22T12:37:12Z</time>
      </trkpt>
      <trkpt lat="44.12578" lon="5.86792">
        <ele>890</ele>
        <time>2022-09-22T12:37:13Z</time>
      </trkpt>
      <trkpt lat="44.12578" lon="5.86793">
        <ele>890</ele>
        <time>2022-09-22T12:37:14Z</time>
      </trkpt>
      <trkpt lat="44.12578" lon="5.86793">
        <ele>890</ele>
        <time>2022-09-22T12:37:15Z</time>
      </trkpt>
      <trkpt lat="44.12578" lon="5.86794">
        <ele>890</ele>
        <time>2022-09-22T12:37:16Z</time>
      </trkpt>
      <trkpt lat="44.12577" lon="5.86796">
        <ele>891</ele>
        <time>2022-09-22T12:37:17Z</time>
      </trkpt>
      <trkpt lat="44.12577" lon="5.86797">
        <ele>891</ele>
        <time>2022-09-22T12:37:18Z</time>
      </trkpt>
      <trkpt lat="44.12577" lon="5.86798">
        <ele>892</ele>
        <time>2022-09-22T12:37:19Z</time>
      </trkpt>
      <trkpt lat="44.12577" lon="5.868">
        <ele>891</ele>
        <time>2022-09-22T12:37:20Z</time>
      </trkpt>
      <trkpt lat="44.12576" lon="5.86801">
        <ele>891</ele>
        <time>2022-09-22T12:37:21Z</time>
      </trkpt>
      <trkpt lat="44.12576" lon="5.86803">
        <ele>891</ele>
        <time>2022-09-22T12:37:22Z</time>
      </trkpt>
      <trkpt lat="44.12576" lon="5.86805">
        <ele>891</ele>
        <time>2022-09-22T12:37:23Z</time>
      </trkpt>
      <trkpt lat="44.12576" lon="5.86806">
        <ele>891</ele>
        <time>2022-09-22T12:37:24Z</time>
      </trkpt>
      <trkpt lat="44.12576" lon="5.86808">
        <ele>891</ele>
        <time>2022-09-22T12:37:25Z</time>
      </trkpt>
      <trkpt lat="44.12575" lon="5.86809">
        <ele>891</ele>
        <time>2022-09-22T12:37:26Z</time>
      </trkpt>
      <trkpt lat="44.12575" lon="5.86811">
        <ele>891</ele>
        <time>2022-09-22T12:37:27Z</time>
      </trkpt>
      <trkpt lat="44.12575" lon="5.86812">
        <ele>891</ele>
        <time>2022-09-22T12:37:28Z</time>
      </trkpt>
      <trkpt lat="44.12575" lon="5.86813">
        <ele>891</ele>
        <time>2022-09-22T12:37:29Z</time>
      </trkpt>
      <trkpt lat="44.12574" lon="5.86814">
        <ele>891</ele>
        <time>2022-09-22T12:37:30Z</time>
      </trkpt>
      <trkpt lat="44.12574" lon="5.86815">
        <ele>891</ele>
        <time>2022-09-22T12:37:31Z</time>
      </trkpt>
      <trkpt lat="44.12573" lon="5.86816">
        <ele>891</ele>
        <time>2022-09-22T12:37:32Z</time>
      </trkpt>
      <trkpt lat="44.12573" lon="5.86817">
        <ele>891</ele>
        <time>2022-09-22T12:37:33Z</time>
      </trkpt>
      <trkpt lat="44.12572" lon="5.86818">
        <ele>891</ele>
        <time>2022-09-22T12:37:34Z</time>
      </trkpt>
      <trkpt lat="44.12571" lon="5.86819">
        <ele>891</ele>
        <time>2022-09-22T12:37:35Z</time>
      </trkpt>
      <trkpt lat="44.12571" lon="5.86819">
        <ele>891</ele>
        <time>2022-09-22T12:37:36Z</time>
      </trkpt>
      <trkpt lat="44.1257" lon="5.8682">
        <ele>891</ele>
        <time>2022-09-22T12:37:37Z</time>
      </trkpt>
      <trkpt lat="44.1257" lon="5.86821">
        <ele>892</ele>
        <time>2022-09-22T12:38:12Z</time>
      </trkpt>
      <trkpt lat="44.1257" lon="5.86822">
        <ele>892</ele>
        <time>2022-09-22T12:38:13Z</time>
      </trkpt>
      <trkpt lat="44.1257" lon="5.86822">
        <ele>893</ele>
        <time>2022-09-22T12:38:14Z</time>
      </trkpt>
      <trkpt lat="44.12569" lon="5.86823">
        <ele>893</ele>
        <time>2022-09-22T12:39:45Z</time>
      </trkpt>
      <trkpt lat="44.12568" lon="5.86824">
        <ele>893</ele>
        <time>2022-09-22T12:39:46Z</time>
      </trkpt>
      <trkpt lat="44.12568" lon="5.86825">
        <ele>893</ele>
        <time>2022-09-22T12:39:47Z</time>
      </trkpt>
      <trkpt lat="44.12567" lon="5.86825">
        <ele>893</ele>
        <time>2022-09-22T12:39:48Z</time>
      </trkpt>
      <trkpt lat="44.12567" lon="5.86825">
        <ele>893</ele>
        <time>2022-09-22T12:39:49Z</time>
      </trkpt>
      <trkpt lat="44.12566" lon="5.86826">
        <ele>893</ele>
        <time>2022-09-22T12:39:50Z</time>
      </trkpt>
      <trkpt lat="44.12565" lon="5.86826">
        <ele>893</ele>
        <time>2022-09-22T12:39:51Z</time>
      </trkpt>
      <trkpt lat="44.12565" lon="5.86827">
        <ele>893</ele>
        <time>2022-09-22T12:39:52Z</time>
      </trkpt>
      <trkpt lat="44.12564" lon="5.86827">
        <ele>893</ele>
        <time>2022-09-22T12:39:53Z</time>
      </trkpt>
      <trkpt lat="44.12564" lon="5.86827">
        <ele>893</ele>
        <time>2022-09-22T12:39:54Z</time>
      </trkpt>
      <trkpt lat="44.12563" lon="5.86828">
        <ele>893</ele>
        <time>2022-09-22T12:39:55Z</time>
      </trkpt>
      <trkpt lat="44.12562" lon="5.86829">
        <ele>893</ele>
        <time>2022-09-22T12:39:56Z</time>
      </trkpt>
      <trkpt lat="44.12562" lon="5.8683">
        <ele>893</ele>
        <time>2022-09-22T12:39:57Z</time>
      </trkpt>
      <trkpt lat="44.12561" lon="5.86831">
        <ele>893</ele>
        <time>2022-09-22T12:39:58Z</time>
      </trkpt>
      <trkpt lat="44.12561" lon="5.86832">
        <ele>893</ele>
        <time>2022-09-22T12:39:59Z</time>
      </trkpt>
      <trkpt lat="44.1256" lon="5.86832">
        <ele>893</ele>
        <time>2022-09-22T12:40:00Z</time>
      </trkpt>
      <trkpt lat="44.1256" lon="5.86833">
        <ele>893</ele>
        <time>2022-09-22T12:40:01Z</time>
      </trkpt>
      <trkpt lat="44.12559" lon="5.86834">
        <ele>893</ele>
        <time>2022-09-22T12:40:02Z</time>
      </trkpt>
      <trkpt lat="44.12559" lon="5.86835">
        <ele>893</ele>
        <time>2022-09-22T12:40:03Z</time>
      </trkpt>
      <trkpt lat="44.12558" lon="5.86836">
        <ele>894</ele>
        <time>2022-09-22T12:40:04Z</time>
      </trkpt>
      <trkpt lat="44.12557" lon="5.86837">
        <ele>894</ele>
        <time>2022-09-22T12:40:05Z</time>
      </trkpt>
      <trkpt lat="44.12556" lon="5.86838">
        <ele>894</ele>
        <time>2022-09-22T12:40:06Z</time>
      </trkpt>
      <trkpt lat="44.12556" lon="5.86839">
        <ele>894</ele>
        <time>2022-09-22T12:40:07Z</time>
      </trkpt>
      <trkpt lat="44.12556" lon="5.8684">
        <ele>894</ele>
        <time>2022-09-22T12:40:08Z</time>
      </trkpt>
      <trkpt lat="44.12555" lon="5.86841">
        <ele>894</ele>
        <time>2022-09-22T12:40:09Z</time>
      </trkpt>
      <trkpt lat="44.12555" lon="5.86842">
        <ele>894</ele>
        <time>2022-09-22T12:40:10Z</time>
      </trkpt>
      <trkpt lat="44.12555" lon="5.86844">
        <ele>894</ele>
        <time>2022-09-22T12:40:11Z</time>
      </trkpt>
      <trkpt lat="44.12555" lon="5.86845">
        <ele>894</ele>
        <time>2022-09-22T12:40:12Z</time>
      </trkpt>
      <trkpt lat="44.12554" lon="5.86846">
        <ele>894</ele>
        <time>2022-09-22T12:40:13Z</time>
      </trkpt>
      <trkpt lat="44.12554" lon="5.86847">
        <ele>895</ele>
        <time>2022-09-22T12:40:14Z</time>
      </trkpt>
      <trkpt lat="44.12554" lon="5.86848">
        <ele>895</ele>
        <time>2022-09-22T12:40:15Z</time>
      </trkpt>
      <trkpt lat="44.12553" lon="5.86848">
        <ele>895</ele>
        <time>2022-09-22T12:40:16Z</time>
      </trkpt>
      <trkpt lat="44.12553" lon="5.86849">
        <ele>895</ele>
        <time>2022-09-22T12:40:17Z</time>
      </trkpt>
      <trkpt lat="44.12553" lon="5.8685">
        <ele>895</ele>
        <time>2022-09-22T12:40:18Z</time>
      </trkpt>
      <trkpt lat="44.12552" lon="5.86851">
        <ele>895</ele>
        <time>2022-09-22T12:40:19Z</time>
      </trkpt>
      <trkpt lat="44.12552" lon="5.86852">
        <ele>895</ele>
        <time>2022-09-22T12:40:20Z</time>
      </trkpt>
      <trkpt lat="44.12552" lon="5.86853">
        <ele>895</ele>
        <time>2022-09-22T12:40:21Z</time>
      </trkpt>
      <trkpt lat="44.12551" lon="5.86854">
        <ele>895</ele>
        <time>2022-09-22T12:40:22Z</time>
      </trkpt>
      <trkpt lat="44.12551" lon="5.86855">
        <ele>895</ele>
        <time>2022-09-22T12:40:23Z</time>
      </trkpt>
      <trkpt lat="44.1255" lon="5.86856">
        <ele>896</ele>
        <time>2022-09-22T12:40:24Z</time>
      </trkpt>
      <trkpt lat="44.1255" lon="5.86857">
        <ele>896</ele>
        <time>2022-09-22T12:40:25Z</time>
      </trkpt>
      <trkpt lat="44.12549" lon="5.86858">
        <ele>896</ele>
        <time>2022-09-22T12:40:26Z</time>
      </trkpt>
      <trkpt lat="44.12549" lon="5.86859">
        <ele>896</ele>
        <time>2022-09-22T12:40:27Z</time>
      </trkpt>
      <trkpt lat="44.12549" lon="5.8686">
        <ele>896</ele>
        <time>2022-09-22T12:40:28Z</time>
      </trkpt>
      <trkpt lat="44.12548" lon="5.86861">
        <ele>897</ele>
        <time>2022-09-22T12:40:29Z</time>
      </trkpt>
      <trkpt lat="44.12548" lon="5.86862">
        <ele>897</ele>
        <time>2022-09-22T12:40:30Z</time>
      </trkpt>
      <trkpt lat="44.12548" lon="5.86863">
        <ele>897</ele>
        <time>2022-09-22T12:40:31Z</time>
      </trkpt>
      <trkpt lat="44.12548" lon="5.86864">
        <ele>897</ele>
        <time>2022-09-22T12:40:32Z</time>
      </trkpt>
      <trkpt lat="44.12548" lon="5.86865">
        <ele>897</ele>
        <time>2022-09-22T12:40:33Z</time>
      </trkpt>
      <trkpt lat="44.12548" lon="5.86866">
        <ele>897</ele>
        <time>2022-09-22T12:40:34Z</time>
      </trkpt>
      <trkpt lat="44.12548" lon="5.86867">
        <ele>897</ele>
        <time>2022-09-22T12:40:35Z</time>
      </trkpt>
      <trkpt lat="44.12547" lon="5.86868">
        <ele>897</ele>
        <time>2022-09-22T12:40:36Z</time>
      </trkpt>
      <trkpt lat="44.12547" lon="5.86869">
        <ele>897</ele>
        <time>2022-09-22T12:40:37Z</time>
      </trkpt>
      <trkpt lat="44.12547" lon="5.8687">
        <ele>897</ele>
        <time>2022-09-22T12:40:38Z</time>
      </trkpt>
      <trkpt lat="44.12546" lon="5.8687">
        <ele>898</ele>
        <time>2022-09-22T12:40:39Z</time>
      </trkpt>
      <trkpt lat="44.12546" lon="5.86871">
        <ele>898</ele>
        <time>2022-09-22T12:40:40Z</time>
      </trkpt>
      <trkpt lat="44.12545" lon="5.86872">
        <ele>898</ele>
        <time>2022-09-22T12:40:41Z</time>
      </trkpt>
      <trkpt lat="44.12545" lon="5.86873">
        <ele>898</ele>
        <time>2022-09-22T12:40:42Z</time>
      </trkpt>
      <trkpt lat="44.12545" lon="5.86874">
        <ele>898</ele>
        <time>2022-09-22T12:40:43Z</time>
      </trkpt>
      <trkpt lat="44.12544" lon="5.86875">
        <ele>898</ele>
        <time>2022-09-22T12:40:44Z</time>
      </trkpt>
      <trkpt lat="44.12544" lon="5.86875">
        <ele>898</ele>
        <time>2022-09-22T12:40:45Z</time>
      </trkpt>
      <trkpt lat="44.12544" lon="5.86876">
        <ele>898</ele>
        <time>2022-09-22T12:40:46Z</time>
      </trkpt>
      <trkpt lat="44.12543" lon="5.86877">
        <ele>898</ele>
        <time>2022-09-22T12:40:47Z</time>
      </trkpt>
      <trkpt lat="44.12543" lon="5.86878">
        <ele>898</ele>
        <time>2022-09-22T12:40:48Z</time>
      </trkpt>
      <trkpt lat="44.12543" lon="5.86878">
        <ele>899</ele>
        <time>2022-09-22T12:40:49Z</time>
      </trkpt>
      <trkpt lat="44.12542" lon="5.86879">
        <ele>899</ele>
        <time>2022-09-22T12:40:50Z</time>
      </trkpt>
      <trkpt lat="44.12542" lon="5.8688">
        <ele>899</ele>
        <time>2022-09-22T12:40:51Z</time>
      </trkpt>
      <trkpt lat="44.12541" lon="5.8688">
        <ele>899</ele>
        <time>2022-09-22T12:40:52Z</time>
      </trkpt>
      <trkpt lat="44.12541" lon="5.86881">
        <ele>899</ele>
        <time>2022-09-22T12:40:53Z</time>
      </trkpt>
      <trkpt lat="44.1254" lon="5.86882">
        <ele>899</ele>
        <time>2022-09-22T12:40:54Z</time>
      </trkpt>
      <trkpt lat="44.1254" lon="5.86883">
        <ele>899</ele>
        <time>2022-09-22T12:40:55Z</time>
      </trkpt>
      <trkpt lat="44.1254" lon="5.86884">
        <ele>899</ele>
        <time>2022-09-22T12:40:56Z</time>
      </trkpt>
      <trkpt lat="44.12539" lon="5.86885">
        <ele>899</ele>
        <time>2022-09-22T12:40:57Z</time>
      </trkpt>
      <trkpt lat="44.12539" lon="5.86885">
        <ele>899</ele>
        <time>2022-09-22T12:40:58Z</time>
      </trkpt>
      <trkpt lat="44.12539" lon="5.86886">
        <ele>900</ele>
        <time>2022-09-22T12:40:59Z</time>
      </trkpt>
      <trkpt lat="44.12538" lon="5.86887">
        <ele>900</ele>
        <time>2022-09-22T12:41:00Z</time>
      </trkpt>
      <trkpt lat="44.12538" lon="5.86888">
        <ele>900</ele>
        <time>2022-09-22T12:41:01Z</time>
      </trkpt>
      <trkpt lat="44.12538" lon="5.86888">
        <ele>900</ele>
        <time>2022-09-22T12:41:02Z</time>
      </trkpt>
      <trkpt lat="44.12538" lon="5.86889">
        <ele>900</ele>
        <time>2022-09-22T12:41:03Z</time>
      </trkpt>
      <trkpt lat="44.12538" lon="5.8689">
        <ele>900</ele>
        <time>2022-09-22T12:41:04Z</time>
      </trkpt>
      <trkpt lat="44.12538" lon="5.86891">
        <ele>900</ele>
        <time>2022-09-22T12:41:05Z</time>
      </trkpt>
      <trkpt lat="44.12538" lon="5.86892">
        <ele>900</ele>
        <time>2022-09-22T12:41:06Z</time>
      </trkpt>
      <trkpt lat="44.12538" lon="5.86893">
        <ele>900</ele>
        <time>2022-09-22T12:41:07Z</time>
      </trkpt>
      <trkpt lat="44.12538" lon="5.86894">
        <ele>900</ele>
        <time>2022-09-22T12:41:08Z</time>
      </trkpt>
      <trkpt lat="44.12538" lon="5.86895">
        <ele>901</ele>
        <time>2022-09-22T12:41:09Z</time>
      </trkpt>
      <trkpt lat="44.12538" lon="5.86897">
        <ele>901</ele>
        <time>2022-09-22T12:41:10Z</time>
      </trkpt>
      <trkpt lat="44.12537" lon="5.86898">
        <ele>901</ele>
        <time>2022-09-22T12:41:11Z</time>
      </trkpt>
      <trkpt lat="44.12537" lon="5.86899">
        <ele>901</ele>
        <time>2022-09-22T12:41:12Z</time>
      </trkpt>
      <trkpt lat="44.12537" lon="5.869">
        <ele>901</ele>
        <time>2022-09-22T12:41:13Z</time>
      </trkpt>
      <trkpt lat="44.12536" lon="5.86901">
        <ele>901</ele>
        <time>2022-09-22T12:41:14Z</time>
      </trkpt>
      <trkpt lat="44.12536" lon="5.86902">
        <ele>901</ele>
        <time>2022-09-22T12:41:15Z</time>
      </trkpt>
      <trkpt lat="44.12536" lon="5.86903">
        <ele>901</ele>
        <time>2022-09-22T12:41:16Z</time>
      </trkpt>
      <trkpt lat="44.12535" lon="5.86903">
        <ele>901</ele>
        <time>2022-09-22T12:41:17Z</time>
      </trkpt>
      <trkpt lat="44.12535" lon="5.86904">
        <ele>901</ele>
        <time>2022-09-22T12:41:18Z</time>
      </trkpt>
      <trkpt lat="44.12535" lon="5.86905">
        <ele>902</ele>
        <time>2022-09-22T12:41:19Z</time>
      </trkpt>
      <trkpt lat="44.12534" lon="5.86905">
        <ele>902</ele>
        <time>2022-09-22T12:41:20Z</time>
      </trkpt>
      <trkpt lat="44.12534" lon="5.86906">
        <ele>902</ele>
        <time>2022-09-22T12:41:21Z</time>
      </trkpt>
      <trkpt lat="44.12534" lon="5.86907">
        <ele>902</ele>
        <time>2022-09-22T12:41:22Z</time>
      </trkpt>
      <trkpt lat="44.12534" lon="5.86909">
        <ele>902</ele>
        <time>2022-09-22T12:41:23Z</time>
      </trkpt>
      <trkpt lat="44.12534" lon="5.8691">
        <ele>903</ele>
        <time>2022-09-22T12:41:24Z</time>
      </trkpt>
      <trkpt lat="44.12534" lon="5.86911">
        <ele>903</ele>
        <time>2022-09-22T12:41:25Z</time>
      </trkpt>
      <trkpt lat="44.12534" lon="5.86911">
        <ele>903</ele>
        <time>2022-09-22T12:41:26Z</time>
      </trkpt>
      <trkpt lat="44.12534" lon="5.86913">
        <ele>903</ele>
        <time>2022-09-22T12:41:27Z</time>
      </trkpt>
      <trkpt lat="44.12534" lon="5.86914">
        <ele>903</ele>
        <time>2022-09-22T12:41:28Z</time>
      </trkpt>
      <trkpt lat="44.12534" lon="5.86915">
        <ele>903</ele>
        <time>2022-09-22T12:41:29Z</time>
      </trkpt>
      <trkpt lat="44.12533" lon="5.86916">
        <ele>903</ele>
        <time>2022-09-22T12:41:30Z</time>
      </trkpt>
      <trkpt lat="44.12533" lon="5.86917">
        <ele>903</ele>
        <time>2022-09-22T12:41:31Z</time>
      </trkpt>
      <trkpt lat="44.12533" lon="5.86918">
        <ele>903</ele>
        <time>2022-09-22T12:41:32Z</time>
      </trkpt>
      <trkpt lat="44.12533" lon="5.86919">
        <ele>903</ele>
        <time>2022-09-22T12:41:33Z</time>
      </trkpt>
      <trkpt lat="44.12533" lon="5.86921">
        <ele>904</ele>
        <time>2022-09-22T12:41:34Z</time>
      </trkpt>
      <trkpt lat="44.12533" lon="5.86922">
        <ele>904</ele>
        <time>2022-09-22T12:41:35Z</time>
      </trkpt>
      <trkpt lat="44.12533" lon="5.86923">
        <ele>904</ele>
        <time>2022-09-22T12:41:36Z</time>
      </trkpt>
      <trkpt lat="44.12532" lon="5.86925">
        <ele>904</ele>
        <time>2022-09-22T12:41:37Z</time>
      </trkpt>
      <trkpt lat="44.12532" lon="5.86926">
        <ele>904</ele>
        <time>2022-09-22T12:41:38Z</time>
      </trkpt>
      <trkpt lat="44.12532" lon="5.86927">
        <ele>904</ele>
        <time>2022-09-22T12:41:39Z</time>
      </trkpt>
      <trkpt lat="44.12532" lon="5.86928">
        <ele>904</ele>
        <time>2022-09-22T12:41:40Z</time>
      </trkpt>
      <trkpt lat="44.12532" lon="5.86929">
        <ele>904</ele>
        <time>2022-09-22T12:41:41Z</time>
      </trkpt>
      <trkpt lat="44.12532" lon="5.8693">
        <ele>904</ele>
        <time>2022-09-22T12:41:42Z</time>
      </trkpt>
      <trkpt lat="44.12532" lon="5.86931">
        <ele>904</ele>
        <time>2022-09-22T12:41:43Z</time>
      </trkpt>
      <trkpt lat="44.12532" lon="5.86932">
        <ele>904</ele>
        <time>2022-09-22T12:41:44Z</time>
      </trkpt>
      <trkpt lat="44.12532" lon="5.86934">
        <ele>904</ele>
        <time>2022-09-22T12:41:45Z</time>
      </trkpt>
      <trkpt lat="44.12532" lon="5.86935">
        <ele>904</ele>
        <time>2022-09-22T12:41:46Z</time>
      </trkpt>
      <trkpt lat="44.12533" lon="5.86936">
        <ele>904</ele>
        <time>2022-09-22T12:41:47Z</time>
      </trkpt>
      <trkpt lat="44.12533" lon="5.86938">
        <ele>904</ele>
        <time>2022-09-22T12:41:48Z</time>
      </trkpt>
      <trkpt lat="44.12534" lon="5.86938">
        <ele>905</ele>
        <time>2022-09-22T12:41:49Z</time>
      </trkpt>
      <trkpt lat="44.12535" lon="5.86939">
        <ele>905</ele>
        <time>2022-09-22T12:41:50Z</time>
      </trkpt>
      <trkpt lat="44.12536" lon="5.8694">
        <ele>905</ele>
        <time>2022-09-22T12:41:51Z</time>
      </trkpt>
      <trkpt lat="44.12537" lon="5.86941">
        <ele>905</ele>
        <time>2022-09-22T12:41:52Z</time>
      </trkpt>
      <trkpt lat="44.12537" lon="5.86942">
        <ele>905</ele>
        <time>2022-09-22T12:41:53Z</time>
      </trkpt>
      <trkpt lat="44.12538" lon="5.86942">
        <ele>906</ele>
        <time>2022-09-22T12:41:54Z</time>
      </trkpt>
      <trkpt lat="44.12538" lon="5.86943">
        <ele>906</ele>
        <time>2022-09-22T12:41:55Z</time>
      </trkpt>
      <trkpt lat="44.12538" lon="5.86944">
        <ele>906</ele>
        <time>2022-09-22T12:41:56Z</time>
      </trkpt>
      <trkpt lat="44.12539" lon="5.86945">
        <ele>906</ele>
        <time>2022-09-22T12:41:57Z</time>
      </trkpt>
      <trkpt lat="44.12539" lon="5.86946">
        <ele>906</ele>
        <time>2022-09-22T12:41:58Z</time>
      </trkpt>
      <trkpt lat="44.12539" lon="5.86947">
        <ele>906</ele>
        <time>2022-09-22T12:41:59Z</time>
      </trkpt>
      <trkpt lat="44.1254" lon="5.86948">
        <ele>906</ele>
        <time>2022-09-22T12:42:00Z</time>
      </trkpt>
      <trkpt lat="44.1254" lon="5.86949">
        <ele>906</ele>
        <time>2022-09-22T12:42:01Z</time>
      </trkpt>
      <trkpt lat="44.12541" lon="5.8695">
        <ele>906</ele>
        <time>2022-09-22T12:42:02Z</time>
      </trkpt>
      <trkpt lat="44.12541" lon="5.86951">
        <ele>906</ele>
        <time>2022-09-22T12:42:03Z</time>
      </trkpt>
      <trkpt lat="44.12542" lon="5.86952">
        <ele>907</ele>
        <time>2022-09-22T12:42:04Z</time>
      </trkpt>
      <trkpt lat="44.12542" lon="5.86954">
        <ele>907</ele>
        <time>2022-09-22T12:42:05Z</time>
      </trkpt>
      <trkpt lat="44.12542" lon="5.86955">
        <ele>907</ele>
        <time>2022-09-22T12:42:06Z</time>
      </trkpt>
      <trkpt lat="44.12543" lon="5.86956">
        <ele>907</ele>
        <time>2022-09-22T12:42:07Z</time>
      </trkpt>
      <trkpt lat="44.12543" lon="5.86956">
        <ele>907</ele>
        <time>2022-09-22T12:42:08Z</time>
      </trkpt>
      <trkpt lat="44.12543" lon="5.86957">
        <ele>908</ele>
        <time>2022-09-22T12:42:09Z</time>
      </trkpt>
      <trkpt lat="44.12543" lon="5.86958">
        <ele>908</ele>
        <time>2022-09-22T12:42:10Z</time>
      </trkpt>
      <trkpt lat="44.12543" lon="5.86959">
        <ele>908</ele>
        <time>2022-09-22T12:42:11Z</time>
      </trkpt>
      <trkpt lat="44.12543" lon="5.8696">
        <ele>908</ele>
        <time>2022-09-22T12:42:12Z</time>
      </trkpt>
      <trkpt lat="44.12543" lon="5.86961">
        <ele>908</ele>
        <time>2022-09-22T12:42:13Z</time>
      </trkpt>
      <trkpt lat="44.12543" lon="5.86962">
        <ele>908</ele>
        <time>2022-09-22T12:42:14Z</time>
      </trkpt>
      <trkpt lat="44.12543" lon="5.86964">
        <ele>909</ele>
        <time>2022-09-22T12:42:23Z</time>
      </trkpt>
      <trkpt lat="44.12543" lon="5.86965">
        <ele>910</ele>
        <time>2022-09-22T12:42:24Z</time>
      </trkpt>
      <trkpt lat="44.12544" lon="5.86966">
        <ele>910</ele>
        <time>2022-09-22T12:42:25Z</time>
      </trkpt>
      <trkpt lat="44.12543" lon="5.86967">
        <ele>910</ele>
        <time>2022-09-22T12:42:26Z</time>
      </trkpt>
      <trkpt lat="44.12543" lon="5.86968">
        <ele>910</ele>
        <time>2022-09-22T12:42:27Z</time>
      </trkpt>
      <trkpt lat="44.12543" lon="5.8697">
        <ele>910</ele>
        <time>2022-09-22T12:42:28Z</time>
      </trkpt>
      <trkpt lat="44.12543" lon="5.86971">
        <ele>911</ele>
        <time>2022-09-22T12:42:29Z</time>
      </trkpt>
      <trkpt lat="44.12544" lon="5.86972">
        <ele>911</ele>
        <time>2022-09-22T12:42:30Z</time>
      </trkpt>
      <trkpt lat="44.12544" lon="5.86973">
        <ele>911</ele>
        <time>2022-09-22T12:42:31Z</time>
      </trkpt>
      <trkpt lat="44.12544" lon="5.86974">
        <ele>911</ele>
        <time>2022-09-22T12:42:32Z</time>
      </trkpt>
      <trkpt lat="44.12545" lon="5.86976">
        <ele>911</ele>
        <time>2022-09-22T12:42:33Z</time>
      </trkpt>
      <trkpt lat="44.12546" lon="5.86977">
        <ele>913</ele>
        <time>2022-09-22T12:43:57Z</time>
      </trkpt>
      <trkpt lat="44.12547" lon="5.86977">
        <ele>913</ele>
        <time>2022-09-22T12:43:58Z</time>
      </trkpt>
      <trkpt lat="44.12548" lon="5.86978">
        <ele>913</ele>
        <time>2022-09-22T12:43:59Z</time>
      </trkpt>
      <trkpt lat="44.12548" lon="5.86979">
        <ele>913</ele>
        <time>2022-09-22T12:44:00Z</time>
      </trkpt>
      <trkpt lat="44.12548" lon="5.86979">
        <ele>913</ele>
        <time>2022-09-22T12:44:01Z</time>
      </trkpt>
      <trkpt lat="44.12548" lon="5.8698">
        <ele>913</ele>
        <time>2022-09-22T12:44:02Z</time>
      </trkpt>
      <trkpt lat="44.12548" lon="5.86981">
        <ele>913</ele>
        <time>2022-09-22T12:44:03Z</time>
      </trkpt>
      <trkpt lat="44.12549" lon="5.86983">
        <ele>913</ele>
        <time>2022-09-22T12:44:04Z</time>
      </trkpt>
      <trkpt lat="44.12549" lon="5.86984">
        <ele>913</ele>
        <time>2022-09-22T12:44:05Z</time>
      </trkpt>
      <trkpt lat="44.12549" lon="5.86985">
        <ele>913</ele>
        <time>2022-09-22T12:44:06Z</time>
      </trkpt>
      <trkpt lat="44.12549" lon="5.86987">
        <ele>913</ele>
        <time>2022-09-22T12:44:07Z</time>
      </trkpt>
      <trkpt lat="44.1255" lon="5.86988">
        <ele>913</ele>
        <time>2022-09-22T12:44:08Z</time>
      </trkpt>
      <trkpt lat="44.1255" lon="5.86989">
        <ele>914</ele>
        <time>2022-09-22T12:44:09Z</time>
      </trkpt>
      <trkpt lat="44.12551" lon="5.8699">
        <ele>914</ele>
        <time>2022-09-22T12:44:10Z</time>
      </trkpt>
      <trkpt lat="44.12551" lon="5.86992">
        <ele>914</ele>
        <time>2022-09-22T12:44:11Z</time>
      </trkpt>
      <trkpt lat="44.12551" lon="5.86993">
        <ele>914</ele>
        <time>2022-09-22T12:44:12Z</time>
      </trkpt>
      <trkpt lat="44.12552" lon="5.86994">
        <ele>914</ele>
        <time>2022-09-22T12:44:13Z</time>
      </trkpt>
      <trkpt lat="44.12552" lon="5.86995">
        <ele>914</ele>
        <time>2022-09-22T12:44:14Z</time>
      </trkpt>
      <trkpt lat="44.12552" lon="5.86996">
        <ele>914</ele>
        <time>2022-09-22T12:44:15Z</time>
      </trkpt>
      <trkpt lat="44.12552" lon="5.86997">
        <ele>914</ele>
        <time>2022-09-22T12:44:16Z</time>
      </trkpt>
      <trkpt lat="44.12552" lon="5.86998">
        <ele>914</ele>
        <time>2022-09-22T12:44:17Z</time>
      </trkpt>
      <trkpt lat="44.12552" lon="5.86999">
        <ele>914</ele>
        <time>2022-09-22T12:44:18Z</time>
      </trkpt>
      <trkpt lat="44.12552" lon="5.87">
        <ele>915</ele>
        <time>2022-09-22T12:44:19Z</time>
      </trkpt>
      <trkpt lat="44.12552" lon="5.87001">
        <ele>915</ele>
        <time>2022-09-22T12:44:20Z</time>
      </trkpt>
      <trkpt lat="44.12552" lon="5.87002">
        <ele>915</ele>
        <time>2022-09-22T12:44:21Z</time>
      </trkpt>
      <trkpt lat="44.12552" lon="5.87003">
        <ele>915</ele>
        <time>2022-09-22T12:44:22Z</time>
      </trkpt>
      <trkpt lat="44.12552" lon="5.87004">
        <ele>915</ele>
        <time>2022-09-22T12:44:23Z</time>
      </trkpt>
      <trkpt lat="44.12552" lon="5.87005">
        <ele>916</ele>
        <time>2022-09-22T12:44:24Z</time>
      </trkpt>
      <trkpt lat="44.12552" lon="5.87007">
        <ele>916</ele>
        <time>2022-09-22T12:44:25Z</time>
      </trkpt>
      <trkpt lat="44.12551" lon="5.87008">
        <ele>916</ele>
        <time>2022-09-22T12:44:26Z</time>
      </trkpt>
      <trkpt lat="44.12551" lon="5.87009">
        <ele>916</ele>
        <time>2022-09-22T12:44:27Z</time>
      </trkpt>
      <trkpt lat="44.12551" lon="5.87011">
        <ele>916</ele>
        <time>2022-09-22T12:44:28Z</time>
      </trkpt>
      <trkpt lat="44.12551" lon="5.87012">
        <ele>917</ele>
        <time>2022-09-22T12:44:29Z</time>
      </trkpt>
      <trkpt lat="44.12551" lon="5.87013">
        <ele>917</ele>
        <time>2022-09-22T12:44:30Z</time>
      </trkpt>
      <trkpt lat="44.12551" lon="5.87014">
        <ele>917</ele>
        <time>2022-09-22T12:44:31Z</time>
      </trkpt>
      <trkpt lat="44.12551" lon="5.87015">
        <ele>917</ele>
        <time>2022-09-22T12:44:32Z</time>
      </trkpt>
      <trkpt lat="44.12551" lon="5.87016">
        <ele>917</ele>
        <time>2022-09-22T12:44:33Z</time>
      </trkpt>
      <trkpt lat="44.12551" lon="5.87017">
        <ele>917</ele>
        <time>2022-09-22T12:44:34Z</time>
      </trkpt>
      <trkpt lat="44.1255" lon="5.87018">
        <ele>917</ele>
        <time>2022-09-22T12:44:35Z</time>
      </trkpt>
      <trkpt lat="44.1255" lon="5.8702">
        <ele>917</ele>
        <time>2022-09-22T12:44:36Z</time>
      </trkpt>
      <trkpt lat="44.1255" lon="5.87021">
        <ele>917</ele>
        <time>2022-09-22T12:44:37Z</time>
      </trkpt>
      <trkpt lat="44.1255" lon="5.87022">
        <ele>917</ele>
        <time>2022-09-22T12:44:38Z</time>
      </trkpt>
      <trkpt lat="44.12549" lon="5.87023">
        <ele>918</ele>
        <time>2022-09-22T12:44:39Z</time>
      </trkpt>
      <trkpt lat="44.12549" lon="5.87024">
        <ele>918</ele>
        <time>2022-09-22T12:44:40Z</time>
      </trkpt>
      <trkpt lat="44.12548" lon="5.87025">
        <ele>918</ele>
        <time>2022-09-22T12:44:41Z</time>
      </trkpt>
      <trkpt lat="44.12548" lon="5.87026">
        <ele>918</ele>
        <time>2022-09-22T12:44:42Z</time>
      </trkpt>
      <trkpt lat="44.12548" lon="5.87027">
        <ele>918</ele>
        <time>2022-09-22T12:44:43Z</time>
      </trkpt>
      <trkpt lat="44.12547" lon="5.87028">
        <ele>918</ele>
        <time>2022-09-22T12:44:44Z</time>
      </trkpt>
      <trkpt lat="44.12547" lon="5.87029">
        <ele>918</ele>
        <time>2022-09-22T12:44:45Z</time>
      </trkpt>
      <trkpt lat="44.12547" lon="5.8703">
        <ele>918</ele>
        <time>2022-09-22T12:44:46Z</time>
      </trkpt>
      <trkpt lat="44.12547" lon="5.87031">
        <ele>918</ele>
        <time>2022-09-22T12:44:47Z</time>
      </trkpt>
      <trkpt lat="44.12547" lon="5.87032">
        <ele>918</ele>
        <time>2022-09-22T12:44:48Z</time>
      </trkpt>
      <trkpt lat="44.12547" lon="5.87033">
        <ele>919</ele>
        <time>2022-09-22T12:44:49Z</time>
      </trkpt>
      <trkpt lat="44.12548" lon="5.87034">
        <ele>919</ele>
        <time>2022-09-22T12:44:50Z</time>
      </trkpt>
      <trkpt lat="44.12548" lon="5.87035">
        <ele>919</ele>
        <time>2022-09-22T12:44:51Z</time>
      </trkpt>
      <trkpt lat="44.12548" lon="5.87036">
        <ele>919</ele>
        <time>2022-09-22T12:44:52Z</time>
      </trkpt>
      <trkpt lat="44.12548" lon="5.87037">
        <ele>919</ele>
        <time>2022-09-22T12:44:53Z</time>
      </trkpt>
      <trkpt lat="44.12548" lon="5.87038">
        <ele>920</ele>
        <time>2022-09-22T12:44:54Z</time>
      </trkpt>
      <trkpt lat="44.12547" lon="5.87039">
        <ele>920</ele>
        <time>2022-09-22T12:44:55Z</time>
      </trkpt>
      <trkpt lat="44.12547" lon="5.8704">
        <ele>920</ele>
        <time>2022-09-22T12:44:56Z</time>
      </trkpt>
      <trkpt lat="44.12547" lon="5.87041">
        <ele>920</ele>
        <time>2022-09-22T12:44:57Z</time>
      </trkpt>
      <trkpt lat="44.12546" lon="5.87042">
        <ele>920</ele>
        <time>2022-09-22T12:44:58Z</time>
      </trkpt>
      <trkpt lat="44.12546" lon="5.87042">
        <ele>920</ele>
        <time>2022-09-22T12:44:59Z</time>
      </trkpt>
      <trkpt lat="44.12545" lon="5.87043">
        <ele>920</ele>
        <time>2022-09-22T12:45:00Z</time>
      </trkpt>
      <trkpt lat="44.12545" lon="5.87044">
        <ele>920</ele>
        <time>2022-09-22T12:45:01Z</time>
      </trkpt>
      <trkpt lat="44.12545" lon="5.87045">
        <ele>920</ele>
        <time>2022-09-22T12:45:02Z</time>
      </trkpt>
      <trkpt lat="44.12545" lon="5.87045">
        <ele>920</ele>
        <time>2022-09-22T12:45:03Z</time>
      </trkpt>
      <trkpt lat="44.12544" lon="5.87048">
        <ele>921</ele>
        <time>2022-09-22T12:47:41Z</time>
      </trkpt>
      <trkpt lat="44.12544" lon="5.8705">
        <ele>921</ele>
        <time>2022-09-22T12:47:42Z</time>
      </trkpt>
      <trkpt lat="44.12544" lon="5.87051">
        <ele>921</ele>
        <time>2022-09-22T12:47:43Z</time>
      </trkpt>
      <trkpt lat="44.12544" lon="5.87053">
        <ele>921</ele>
        <time>2022-09-22T12:47:44Z</time>
      </trkpt>
      <trkpt lat="44.12543" lon="5.87054">
        <ele>921</ele>
        <time>2022-09-22T12:47:45Z</time>
      </trkpt>
      <trkpt lat="44.12543" lon="5.87055">
        <ele>921</ele>
        <time>2022-09-22T12:47:46Z</time>
      </trkpt>
      <trkpt lat="44.12543" lon="5.87056">
        <ele>921</ele>
        <time>2022-09-22T12:47:47Z</time>
      </trkpt>
      <trkpt lat="44.12542" lon="5.87057">
        <ele>921</ele>
        <time>2022-09-22T12:47:48Z</time>
      </trkpt>
      <trkpt lat="44.12542" lon="5.87059">
        <ele>921</ele>
        <time>2022-09-22T12:47:49Z</time>
      </trkpt>
      <trkpt lat="44.12542" lon="5.8706">
        <ele>921</ele>
        <time>2022-09-22T12:47:50Z</time>
      </trkpt>
      <trkpt lat="44.12541" lon="5.87061">
        <ele>921</ele>
        <time>2022-09-22T12:47:51Z</time>
      </trkpt>
      <trkpt lat="44.12541" lon="5.87063">
        <ele>921</ele>
        <time>2022-09-22T12:47:52Z</time>
      </trkpt>
      <trkpt lat="44.1254" lon="5.87064">
        <ele>921</ele>
        <time>2022-09-22T12:47:53Z</time>
      </trkpt>
      <trkpt lat="44.12539" lon="5.87066">
        <ele>921</ele>
        <time>2022-09-22T12:47:54Z</time>
      </trkpt>
      <trkpt lat="44.12539" lon="5.87067">
        <ele>921</ele>
        <time>2022-09-22T12:47:55Z</time>
      </trkpt>
      <trkpt lat="44.12538" lon="5.87069">
        <ele>921</ele>
        <time>2022-09-22T12:47:56Z</time>
      </trkpt>
      <trkpt lat="44.12538" lon="5.8707">
        <ele>921</ele>
        <time>2022-09-22T12:47:57Z</time>
      </trkpt>
      <trkpt lat="44.12537" lon="5.87072">
        <ele>921</ele>
        <time>2022-09-22T12:47:58Z</time>
      </trkpt>
      <trkpt lat="44.12537" lon="5.87073">
        <ele>921</ele>
        <time>2022-09-22T12:47:59Z</time>
      </trkpt>
      <trkpt lat="44.12537" lon="5.87074">
        <ele>921</ele>
        <time>2022-09-22T12:48:00Z</time>
      </trkpt>
      <trkpt lat="44.12536" lon="5.87076">
        <ele>921</ele>
        <time>2022-09-22T12:48:01Z</time>
      </trkpt>
      <trkpt lat="44.12536" lon="5.87077">
        <ele>921</ele>
        <time>2022-09-22T12:48:02Z</time>
      </trkpt>
      <trkpt lat="44.12536" lon="5.87079">
        <ele>921</ele>
        <time>2022-09-22T12:48:03Z</time>
      </trkpt>
      <trkpt lat="44.12535" lon="5.8708">
        <ele>921</ele>
        <time>2022-09-22T12:48:04Z</time>
      </trkpt>
      <trkpt lat="44.12535" lon="5.87082">
        <ele>921</ele>
        <time>2022-09-22T12:48:05Z</time>
      </trkpt>
      <trkpt lat="44.12535" lon="5.87083">
        <ele>921</ele>
        <time>2022-09-22T12:48:06Z</time>
      </trkpt>
      <trkpt lat="44.12535" lon="5.87084">
        <ele>921</ele>
        <time>2022-09-22T12:48:07Z</time>
      </trkpt>
      <trkpt lat="44.12535" lon="5.87085">
        <ele>921</ele>
        <time>2022-09-22T12:48:08Z</time>
      </trkpt>
      <trkpt lat="44.12535" lon="5.87087">
        <ele>921</ele>
        <time>2022-09-22T12:48:09Z</time>
      </trkpt>
      <trkpt lat="44.12535" lon="5.87088">
        <ele>921</ele>
        <time>2022-09-22T12:48:10Z</time>
      </trkpt>
      <trkpt lat="44.12535" lon="5.8709">
        <ele>921</ele>
        <time>2022-09-22T12:48:11Z</time>
      </trkpt>
      <trkpt lat="44.12535" lon="5.87091">
        <ele>921</ele>
        <time>2022-09-22T12:48:12Z</time>
      </trkpt>
      <trkpt lat="44.12535" lon="5.87092">
        <ele>921</ele>
        <time>2022-09-22T12:48:13Z</time>
      </trkpt>
      <trkpt lat="44.12535" lon="5.87093">
        <ele>921</ele>
        <time>2022-09-22T12:48:14Z</time>
      </trkpt>
      <trkpt lat="44.12534" lon="5.87095">
        <ele>920</ele>
        <time>2022-09-22T12:48:15Z</time>
      </trkpt>
      <trkpt lat="44.12534" lon="5.87096">
        <ele>920</ele>
        <time>2022-09-22T12:48:16Z</time>
      </trkpt>
      <trkpt lat="44.12534" lon="5.87097">
        <ele>920</ele>
        <time>2022-09-22T12:48:17Z</time>
      </trkpt>
      <trkpt lat="44.12534" lon="5.87099">
        <ele>920</ele>
        <time>2022-09-22T12:48:18Z</time>
      </trkpt>
      <trkpt lat="44.12534" lon="5.871">
        <ele>920</ele>
        <time>2022-09-22T12:48:19Z</time>
      </trkpt>
      <trkpt lat="44.12534" lon="5.87101">
        <ele>920</ele>
        <time>2022-09-22T12:48:20Z</time>
      </trkpt>
      <trkpt lat="44.12534" lon="5.87103">
        <ele>920</ele>
        <time>2022-09-22T12:48:21Z</time>
      </trkpt>
      <trkpt lat="44.12534" lon="5.87104">
        <ele>920</ele>
        <time>2022-09-22T12:48:22Z</time>
      </trkpt>
      <trkpt lat="44.12534" lon="5.87106">
        <ele>920</ele>
        <time>2022-09-22T12:48:23Z</time>
      </trkpt>
      <trkpt lat="44.12534" lon="5.87107">
        <ele>920</ele>
        <time>2022-09-22T12:48:24Z</time>
      </trkpt>
      <trkpt lat="44.12534" lon="5.87109">
        <ele>920</ele>
        <time>2022-09-22T12:48:25Z</time>
      </trkpt>
      <trkpt lat="44.12534" lon="5.8711">
        <ele>920</ele>
        <time>2022-09-22T12:48:26Z</time>
      </trkpt>
      <trkpt lat="44.12534" lon="5.87111">
        <ele>920</ele>
        <time>2022-09-22T12:48:27Z</time>
      </trkpt>
      <trkpt lat="44.12534" lon="5.87113">
        <ele>920</ele>
        <time>2022-09-22T12:48:28Z</time>
      </trkpt>
      <trkpt lat="44.12534" lon="5.87114">
        <ele>920</ele>
        <time>2022-09-22T12:48:29Z</time>
      </trkpt>
      <trkpt lat="44.12534" lon="5.87115">
        <ele>920</ele>
        <time>2022-09-22T12:48:30Z</time>
      </trkpt>
      <trkpt lat="44.12534" lon="5.87117">
        <ele>920</ele>
        <time>2022-09-22T12:48:31Z</time>
      </trkpt>
      <trkpt lat="44.12534" lon="5.87118">
        <ele>920</ele>
        <time>2022-09-22T12:48:32Z</time>
      </trkpt>
      <trkpt lat="44.12534" lon="5.87119">
        <ele>920</ele>
        <time>2022-09-22T12:48:33Z</time>
      </trkpt>
      <trkpt lat="44.12534" lon="5.87121">
        <ele>920</ele>
        <time>2022-09-22T12:48:34Z</time>
      </trkpt>
      <trkpt lat="44.12534" lon="5.87122">
        <ele>920</ele>
        <time>2022-09-22T12:48:35Z</time>
      </trkpt>
      <trkpt lat="44.12534" lon="5.87123">
        <ele>920</ele>
        <time>2022-09-22T12:48:36Z</time>
      </trkpt>
      <trkpt lat="44.12534" lon="5.87124">
        <ele>920</ele>
        <time>2022-09-22T12:48:37Z</time>
      </trkpt>
      <trkpt lat="44.12534" lon="5.87126">
        <ele>920</ele>
        <time>2022-09-22T12:48:38Z</time>
      </trkpt>
      <trkpt lat="44.12534" lon="5.87127">
        <ele>920</ele>
        <time>2022-09-22T12:48:39Z</time>
      </trkpt>
      <trkpt lat="44.12534" lon="5.87128">
        <ele>919</ele>
        <time>2022-09-22T12:48:40Z</time>
      </trkpt>
      <trkpt lat="44.12534" lon="5.87129">
        <ele>919</ele>
        <time>2022-09-22T12:48:41Z</time>
      </trkpt>
      <trkpt lat="44.12534" lon="5.87131">
        <ele>919</ele>
        <time>2022-09-22T12:48:42Z</time>
      </trkpt>
      <trkpt lat="44.12534" lon="5.87132">
        <ele>919</ele>
        <time>2022-09-22T12:48:43Z</time>
      </trkpt>
      <trkpt lat="44.12534" lon="5.87133">
        <ele>919</ele>
        <time>2022-09-22T12:48:44Z</time>
      </trkpt>
      <trkpt lat="44.12534" lon="5.87135">
        <ele>919</ele>
        <time>2022-09-22T12:48:45Z</time>
      </trkpt>
      <trkpt lat="44.12533" lon="5.87136">
        <ele>919</ele>
        <time>2022-09-22T12:48:46Z</time>
      </trkpt>
      <trkpt lat="44.12533" lon="5.87137">
        <ele>919</ele>
        <time>2022-09-22T12:48:47Z</time>
      </trkpt>
      <trkpt lat="44.12533" lon="5.87139">
        <ele>919</ele>
        <time>2022-09-22T12:48:48Z</time>
      </trkpt>
      <trkpt lat="44.12533" lon="5.8714">
        <ele>919</ele>
        <time>2022-09-22T12:48:49Z</time>
      </trkpt>
      <trkpt lat="44.12533" lon="5.87141">
        <ele>919</ele>
        <time>2022-09-22T12:48:50Z</time>
      </trkpt>
      <trkpt lat="44.12532" lon="5.87142">
        <ele>919</ele>
        <time>2022-09-22T12:48:51Z</time>
      </trkpt>
      <trkpt lat="44.12532" lon="5.87144">
        <ele>919</ele>
        <time>2022-09-22T12:48:52Z</time>
      </trkpt>
      <trkpt lat="44.12532" lon="5.87145">
        <ele>919</ele>
        <time>2022-09-22T12:48:53Z</time>
      </trkpt>
      <trkpt lat="44.12532" lon="5.87146">
        <ele>919</ele>
        <time>2022-09-22T12:48:54Z</time>
      </trkpt>
      <trkpt lat="44.12532" lon="5.87147">
        <ele>918</ele>
        <time>2022-09-22T12:48:55Z</time>
      </trkpt>
      <trkpt lat="44.12532" lon="5.87148">
        <ele>918</ele>
        <time>2022-09-22T12:48:56Z</time>
      </trkpt>
      <trkpt lat="44.12532" lon="5.8715">
        <ele>918</ele>
        <time>2022-09-22T12:48:57Z</time>
      </trkpt>
      <trkpt lat="44.12532" lon="5.87151">
        <ele>918</ele>
        <time>2022-09-22T12:48:58Z</time>
      </trkpt>
      <trkpt lat="44.12532" lon="5.87152">
        <ele>918</ele>
        <time>2022-09-22T12:48:59Z</time>
      </trkpt>
      <trkpt lat="44.12532" lon="5.87153">
        <ele>918</ele>
        <time>2022-09-22T12:49:00Z</time>
      </trkpt>
      <trkpt lat="44.12532" lon="5.87154">
        <ele>918</ele>
        <time>2022-09-22T12:49:01Z</time>
      </trkpt>
      <trkpt lat="44.12531" lon="5.87155">
        <ele>918</ele>
        <time>2022-09-22T12:49:02Z</time>
      </trkpt>
      <trkpt lat="44.12531" lon="5.87156">
        <ele>918</ele>
        <time>2022-09-22T12:49:03Z</time>
      </trkpt>
      <trkpt lat="44.12531" lon="5.87157">
        <ele>918</ele>
        <time>2022-09-22T12:49:04Z</time>
      </trkpt>
      <trkpt lat="44.12531" lon="5.87159">
        <ele>918</ele>
        <time>2022-09-22T12:49:05Z</time>
      </trkpt>
      <trkpt lat="44.12531" lon="5.8716">
        <ele>918</ele>
        <time>2022-09-22T12:49:06Z</time>
      </trkpt>
      <trkpt lat="44.12531" lon="5.87161">
        <ele>918</ele>
        <time>2022-09-22T12:49:07Z</time>
      </trkpt>
      <trkpt lat="44.1253" lon="5.87163">
        <ele>918</ele>
        <time>2022-09-22T12:49:08Z</time>
      </trkpt>
      <trkpt lat="44.1253" lon="5.87165">
        <ele>918</ele>
        <time>2022-09-22T12:49:09Z</time>
      </trkpt>
      <trkpt lat="44.1253" lon="5.87167">
        <ele>918</ele>
        <time>2022-09-22T12:49:10Z</time>
      </trkpt>
      <trkpt lat="44.1253" lon="5.87169">
        <ele>918</ele>
        <time>2022-09-22T12:49:11Z</time>
      </trkpt>
      <trkpt lat="44.1253" lon="5.87171">
        <ele>918</ele>
        <time>2022-09-22T12:49:12Z</time>
      </trkpt>
      <trkpt lat="44.1253" lon="5.87173">
        <ele>918</ele>
        <time>2022-09-22T12:49:13Z</time>
      </trkpt>
      <trkpt lat="44.1253" lon="5.87175">
        <ele>918</ele>
        <time>2022-09-22T12:49:14Z</time>
      </trkpt>
      <trkpt lat="44.1253" lon="5.87176">
        <ele>917</ele>
        <time>2022-09-22T12:49:15Z</time>
      </trkpt>
      <trkpt lat="44.12529" lon="5.87178">
        <ele>917</ele>
        <time>2022-09-22T12:49:16Z</time>
      </trkpt>
      <trkpt lat="44.12529" lon="5.87179">
        <ele>917</ele>
        <time>2022-09-22T12:49:17Z</time>
      </trkpt>
      <trkpt lat="44.12529" lon="5.87181">
        <ele>917</ele>
        <time>2022-09-22T12:49:18Z</time>
      </trkpt>
      <trkpt lat="44.12528" lon="5.87182">
        <ele>917</ele>
        <time>2022-09-22T12:49:19Z</time>
      </trkpt>
      <trkpt lat="44.12528" lon="5.87184">
        <ele>917</ele>
        <time>2022-09-22T12:49:20Z</time>
      </trkpt>
      <trkpt lat="44.12528" lon="5.87185">
        <ele>917</ele>
        <time>2022-09-22T12:49:21Z</time>
      </trkpt>
      <trkpt lat="44.12528" lon="5.87186">
        <ele>917</ele>
        <time>2022-09-22T12:49:22Z</time>
      </trkpt>
      <trkpt lat="44.12528" lon="5.87188">
        <ele>917</ele>
        <time>2022-09-22T12:49:23Z</time>
      </trkpt>
      <trkpt lat="44.12527" lon="5.87189">
        <ele>917</ele>
        <time>2022-09-22T12:49:24Z</time>
      </trkpt>
      <trkpt lat="44.12527" lon="5.87191">
        <ele>917</ele>
        <time>2022-09-22T12:49:25Z</time>
      </trkpt>
      <trkpt lat="44.12527" lon="5.87192">
        <ele>917</ele>
        <time>2022-09-22T12:49:26Z</time>
      </trkpt>
      <trkpt lat="44.12527" lon="5.87193">
        <ele>917</ele>
        <time>2022-09-22T12:49:27Z</time>
      </trkpt>
      <trkpt lat="44.12527" lon="5.87195">
        <ele>917</ele>
        <time>2022-09-22T12:49:28Z</time>
      </trkpt>
      <trkpt lat="44.12527" lon="5.87196">
        <ele>917</ele>
        <time>2022-09-22T12:49:29Z</time>
      </trkpt>
      <trkpt lat="44.12527" lon="5.87198">
        <ele>916</ele>
        <time>2022-09-22T12:49:30Z</time>
      </trkpt>
      <trkpt lat="44.12527" lon="5.87199">
        <ele>916</ele>
        <time>2022-09-22T12:49:31Z</time>
      </trkpt>
      <trkpt lat="44.12527" lon="5.872">
        <ele>916</ele>
        <time>2022-09-22T12:49:32Z</time>
      </trkpt>
      <trkpt lat="44.12527" lon="5.87202">
        <ele>916</ele>
        <time>2022-09-22T12:49:33Z</time>
      </trkpt>
      <trkpt lat="44.12526" lon="5.87203">
        <ele>916</ele>
        <time>2022-09-22T12:49:34Z</time>
      </trkpt>
      <trkpt lat="44.12526" lon="5.87205">
        <ele>916</ele>
        <time>2022-09-22T12:49:35Z</time>
      </trkpt>
      <trkpt lat="44.12526" lon="5.87206">
        <ele>916</ele>
        <time>2022-09-22T12:49:36Z</time>
      </trkpt>
      <trkpt lat="44.12526" lon="5.87208">
        <ele>916</ele>
        <time>2022-09-22T12:49:37Z</time>
      </trkpt>
      <trkpt lat="44.12526" lon="5.8721">
        <ele>916</ele>
        <time>2022-09-22T12:49:38Z</time>
      </trkpt>
      <trkpt lat="44.12526" lon="5.87211">
        <ele>916</ele>
        <time>2022-09-22T12:49:39Z</time>
      </trkpt>
      <trkpt lat="44.12526" lon="5.87213">
        <ele>916</ele>
        <time>2022-09-22T12:49:40Z</time>
      </trkpt>
      <trkpt lat="44.12526" lon="5.87215">
        <ele>916</ele>
        <time>2022-09-22T12:49:41Z</time>
      </trkpt>
      <trkpt lat="44.12526" lon="5.87216">
        <ele>916</ele>
        <time>2022-09-22T12:49:42Z</time>
      </trkpt>
      <trkpt lat="44.12526" lon="5.87218">
        <ele>916</ele>
        <time>2022-09-22T12:49:43Z</time>
      </trkpt>
      <trkpt lat="44.12526" lon="5.87219">
        <ele>916</ele>
        <time>2022-09-22T12:49:44Z</time>
      </trkpt>
      <trkpt lat="44.12526" lon="5.8722">
        <ele>915</ele>
        <time>2022-09-22T12:49:45Z</time>
      </trkpt>
      <trkpt lat="44.12526" lon="5.87222">
        <ele>915</ele>
        <time>2022-09-22T12:49:46Z</time>
      </trkpt>
      <trkpt lat="44.12525" lon="5.87223">
        <ele>915</ele>
        <time>2022-09-22T12:49:47Z</time>
      </trkpt>
      <trkpt lat="44.12525" lon="5.87225">
        <ele>915</ele>
        <time>2022-09-22T12:49:48Z</time>
      </trkpt>
      <trkpt lat="44.12525" lon="5.87226">
        <ele>915</ele>
        <time>2022-09-22T12:49:49Z</time>
      </trkpt>
      <trkpt lat="44.12524" lon="5.87228">
        <ele>915</ele>
        <time>2022-09-22T12:49:50Z</time>
      </trkpt>
      <trkpt lat="44.12524" lon="5.87229">
        <ele>915</ele>
        <time>2022-09-22T12:49:51Z</time>
      </trkpt>
      <trkpt lat="44.12523" lon="5.87231">
        <ele>915</ele>
        <time>2022-09-22T12:49:52Z</time>
      </trkpt>
      <trkpt lat="44.12523" lon="5.87232">
        <ele>915</ele>
        <time>2022-09-22T12:49:53Z</time>
      </trkpt>
      <trkpt lat="44.12523" lon="5.87233">
        <ele>915</ele>
        <time>2022-09-22T12:49:54Z</time>
      </trkpt>
      <trkpt lat="44.12523" lon="5.87235">
        <ele>914</ele>
        <time>2022-09-22T12:49:55Z</time>
      </trkpt>
      <trkpt lat="44.12523" lon="5.87236">
        <ele>914</ele>
        <time>2022-09-22T12:49:56Z</time>
      </trkpt>
      <trkpt lat="44.12523" lon="5.87237">
        <ele>914</ele>
        <time>2022-09-22T12:49:57Z</time>
      </trkpt>
      <trkpt lat="44.12522" lon="5.87238">
        <ele>914</ele>
        <time>2022-09-22T12:49:58Z</time>
      </trkpt>
      <trkpt lat="44.12522" lon="5.87239">
        <ele>914</ele>
        <time>2022-09-22T12:49:59Z</time>
      </trkpt>
      <trkpt lat="44.12522" lon="5.8724">
        <ele>914</ele>
        <time>2022-09-22T12:50:00Z</time>
      </trkpt>
      <trkpt lat="44.12522" lon="5.87241">
        <ele>914</ele>
        <time>2022-09-22T12:50:01Z</time>
      </trkpt>
      <trkpt lat="44.12522" lon="5.87243">
        <ele>914</ele>
        <time>2022-09-22T12:50:02Z</time>
      </trkpt>
      <trkpt lat="44.12522" lon="5.87244">
        <ele>914</ele>
        <time>2022-09-22T12:50:03Z</time>
      </trkpt>
      <trkpt lat="44.12521" lon="5.87245">
        <ele>914</ele>
        <time>2022-09-22T12:50:04Z</time>
      </trkpt>
      <trkpt lat="44.12521" lon="5.87247">
        <ele>914</ele>
        <time>2022-09-22T12:50:05Z</time>
      </trkpt>
      <trkpt lat="44.12521" lon="5.87248">
        <ele>914</ele>
        <time>2022-09-22T12:50:06Z</time>
      </trkpt>
      <trkpt lat="44.12521" lon="5.8725">
        <ele>914</ele>
        <time>2022-09-22T12:50:07Z</time>
      </trkpt>
      <trkpt lat="44.1252" lon="5.87251">
        <ele>914</ele>
        <time>2022-09-22T12:50:08Z</time>
      </trkpt>
      <trkpt lat="44.1252" lon="5.87253">
        <ele>914</ele>
        <time>2022-09-22T12:50:09Z</time>
      </trkpt>
      <trkpt lat="44.1252" lon="5.87255">
        <ele>914</ele>
        <time>2022-09-22T12:50:10Z</time>
      </trkpt>
      <trkpt lat="44.1252" lon="5.87257">
        <ele>914</ele>
        <time>2022-09-22T12:50:11Z</time>
      </trkpt>
      <trkpt lat="44.1252" lon="5.87258">
        <ele>914</ele>
        <time>2022-09-22T12:50:12Z</time>
      </trkpt>
      <trkpt lat="44.1252" lon="5.8726">
        <ele>914</ele>
        <time>2022-09-22T12:50:13Z</time>
      </trkpt>
      <trkpt lat="44.1252" lon="5.87261">
        <ele>914</ele>
        <time>2022-09-22T12:50:14Z</time>
      </trkpt>
      <trkpt lat="44.1252" lon="5.87262">
        <ele>913</ele>
        <time>2022-09-22T12:50:15Z</time>
      </trkpt>
      <trkpt lat="44.12521" lon="5.87263">
        <ele>913</ele>
        <time>2022-09-22T12:50:16Z</time>
      </trkpt>
      <trkpt lat="44.12521" lon="5.87265">
        <ele>913</ele>
        <time>2022-09-22T12:50:17Z</time>
      </trkpt>
      <trkpt lat="44.12521" lon="5.87266">
        <ele>913</ele>
        <time>2022-09-22T12:50:18Z</time>
      </trkpt>
      <trkpt lat="44.12522" lon="5.87267">
        <ele>913</ele>
        <time>2022-09-22T12:50:19Z</time>
      </trkpt>
      <trkpt lat="44.12522" lon="5.87268">
        <ele>913</ele>
        <time>2022-09-22T12:50:20Z</time>
      </trkpt>
      <trkpt lat="44.12522" lon="5.87269">
        <ele>913</ele>
        <time>2022-09-22T12:50:21Z</time>
      </trkpt>
      <trkpt lat="44.12523" lon="5.8727">
        <ele>913</ele>
        <time>2022-09-22T12:50:22Z</time>
      </trkpt>
      <trkpt lat="44.12523" lon="5.87272">
        <ele>913</ele>
        <time>2022-09-22T12:50:23Z</time>
      </trkpt>
      <trkpt lat="44.12523" lon="5.87273">
        <ele>913</ele>
        <time>2022-09-22T12:50:24Z</time>
      </trkpt>
      <trkpt lat="44.12523" lon="5.87274">
        <ele>912</ele>
        <time>2022-09-22T12:50:25Z</time>
      </trkpt>
      <trkpt lat="44.12523" lon="5.87275">
        <ele>912</ele>
        <time>2022-09-22T12:50:26Z</time>
      </trkpt>
      <trkpt lat="44.12523" lon="5.87276">
        <ele>912</ele>
        <time>2022-09-22T12:50:27Z</time>
      </trkpt>
      <trkpt lat="44.12523" lon="5.87278">
        <ele>912</ele>
        <time>2022-09-22T12:50:28Z</time>
      </trkpt>
      <trkpt lat="44.12523" lon="5.87279">
        <ele>912</ele>
        <time>2022-09-22T12:50:29Z</time>
      </trkpt>
      <trkpt lat="44.12524" lon="5.8728">
        <ele>912</ele>
        <time>2022-09-22T12:50:30Z</time>
      </trkpt>
      <trkpt lat="44.12524" lon="5.87282">
        <ele>912</ele>
        <time>2022-09-22T12:50:31Z</time>
      </trkpt>
      <trkpt lat="44.12524" lon="5.87283">
        <ele>912</ele>
        <time>2022-09-22T12:50:32Z</time>
      </trkpt>
      <trkpt lat="44.12524" lon="5.87284">
        <ele>912</ele>
        <time>2022-09-22T12:50:33Z</time>
      </trkpt>
      <trkpt lat="44.12524" lon="5.87286">
        <ele>912</ele>
        <time>2022-09-22T12:50:34Z</time>
      </trkpt>
      <trkpt lat="44.12524" lon="5.87286">
        <ele>911</ele>
        <time>2022-09-22T12:50:35Z</time>
      </trkpt>
      <trkpt lat="44.12524" lon="5.87287">
        <ele>911</ele>
        <time>2022-09-22T12:50:36Z</time>
      </trkpt>
      <trkpt lat="44.12524" lon="5.87288">
        <ele>911</ele>
        <time>2022-09-22T12:50:37Z</time>
      </trkpt>
      <trkpt lat="44.12524" lon="5.87289">
        <ele>911</ele>
        <time>2022-09-22T12:50:38Z</time>
      </trkpt>
      <trkpt lat="44.12524" lon="5.8729">
        <ele>911</ele>
        <time>2022-09-22T12:50:39Z</time>
      </trkpt>
      <trkpt lat="44.12524" lon="5.87291">
        <ele>911</ele>
        <time>2022-09-22T12:50:40Z</time>
      </trkpt>
      <trkpt lat="44.12525" lon="5.87293">
        <ele>911</ele>
        <time>2022-09-22T12:50:41Z</time>
      </trkpt>
      <trkpt lat="44.12525" lon="5.87294">
        <ele>911</ele>
        <time>2022-09-22T12:50:42Z</time>
      </trkpt>
      <trkpt lat="44.12525" lon="5.87296">
        <ele>911</ele>
        <time>2022-09-22T12:50:43Z</time>
      </trkpt>
      <trkpt lat="44.12525" lon="5.87297">
        <ele>911</ele>
        <time>2022-09-22T12:50:44Z</time>
      </trkpt>
      <trkpt lat="44.12524" lon="5.87298">
        <ele>911</ele>
        <time>2022-09-22T12:50:45Z</time>
      </trkpt>
      <trkpt lat="44.12524" lon="5.87299">
        <ele>911</ele>
        <time>2022-09-22T12:50:46Z</time>
      </trkpt>
      <trkpt lat="44.12524" lon="5.87301">
        <ele>911</ele>
        <time>2022-09-22T12:50:47Z</time>
      </trkpt>
      <trkpt lat="44.12524" lon="5.87302">
        <ele>911</ele>
        <time>2022-09-22T12:50:48Z</time>
      </trkpt>
      <trkpt lat="44.12524" lon="5.87303">
        <ele>911</ele>
        <time>2022-09-22T12:50:49Z</time>
      </trkpt>
      <trkpt lat="44.12524" lon="5.87305">
        <ele>911</ele>
        <time>2022-09-22T12:50:50Z</time>
      </trkpt>
      <trkpt lat="44.12525" lon="5.87306">
        <ele>911</ele>
        <time>2022-09-22T12:50:51Z</time>
      </trkpt>
      <trkpt lat="44.12525" lon="5.87308">
        <ele>911</ele>
        <time>2022-09-22T12:50:52Z</time>
      </trkpt>
      <trkpt lat="44.12525" lon="5.87309">
        <ele>911</ele>
        <time>2022-09-22T12:50:53Z</time>
      </trkpt>
      <trkpt lat="44.12525" lon="5.87311">
        <ele>911</ele>
        <time>2022-09-22T12:50:54Z</time>
      </trkpt>
      <trkpt lat="44.12525" lon="5.87313">
        <ele>910</ele>
        <time>2022-09-22T12:50:55Z</time>
      </trkpt>
      <trkpt lat="44.12525" lon="5.87315">
        <ele>910</ele>
        <time>2022-09-22T12:50:56Z</time>
      </trkpt>
      <trkpt lat="44.12525" lon="5.87317">
        <ele>910</ele>
        <time>2022-09-22T12:50:57Z</time>
      </trkpt>
      <trkpt lat="44.12525" lon="5.87318">
        <ele>910</ele>
        <time>2022-09-22T12:50:58Z</time>
      </trkpt>
      <trkpt lat="44.12525" lon="5.8732">
        <ele>910</ele>
        <time>2022-09-22T12:50:59Z</time>
      </trkpt>
      <trkpt lat="44.12525" lon="5.87321">
        <ele>910</ele>
        <time>2022-09-22T12:51:00Z</time>
      </trkpt>
      <trkpt lat="44.12525" lon="5.87322">
        <ele>910</ele>
        <time>2022-09-22T12:51:01Z</time>
      </trkpt>
      <trkpt lat="44.12525" lon="5.87324">
        <ele>910</ele>
        <time>2022-09-22T12:51:02Z</time>
      </trkpt>
      <trkpt lat="44.12526" lon="5.87325">
        <ele>910</ele>
        <time>2022-09-22T12:51:03Z</time>
      </trkpt>
      <trkpt lat="44.12526" lon="5.87326">
        <ele>910</ele>
        <time>2022-09-22T12:51:04Z</time>
      </trkpt>
      <trkpt lat="44.12526" lon="5.87326">
        <ele>910</ele>
        <time>2022-09-22T12:51:05Z</time>
      </trkpt>
      <trkpt lat="44.12526" lon="5.87327">
        <ele>910</ele>
        <time>2022-09-22T12:51:06Z</time>
      </trkpt>
      <trkpt lat="44.12526" lon="5.87328">
        <ele>910</ele>
        <time>2022-09-22T12:51:07Z</time>
      </trkpt>
      <trkpt lat="44.12527" lon="5.87329">
        <ele>910</ele>
        <time>2022-09-22T12:51:08Z</time>
      </trkpt>
      <trkpt lat="44.12527" lon="5.8733">
        <ele>910</ele>
        <time>2022-09-22T12:51:09Z</time>
      </trkpt>
      <trkpt lat="44.12527" lon="5.87332">
        <ele>909</ele>
        <time>2022-09-22T12:51:10Z</time>
      </trkpt>
      <trkpt lat="44.12527" lon="5.87333">
        <ele>909</ele>
        <time>2022-09-22T12:51:11Z</time>
      </trkpt>
      <trkpt lat="44.12527" lon="5.87335">
        <ele>909</ele>
        <time>2022-09-22T12:51:12Z</time>
      </trkpt>
      <trkpt lat="44.12528" lon="5.87336">
        <ele>909</ele>
        <time>2022-09-22T12:51:13Z</time>
      </trkpt>
      <trkpt lat="44.12528" lon="5.87338">
        <ele>909</ele>
        <time>2022-09-22T12:51:14Z</time>
      </trkpt>
      <trkpt lat="44.12528" lon="5.87339">
        <ele>909</ele>
        <time>2022-09-22T12:51:15Z</time>
      </trkpt>
      <trkpt lat="44.12528" lon="5.87341">
        <ele>909</ele>
        <time>2022-09-22T12:51:16Z</time>
      </trkpt>
      <trkpt lat="44.12529" lon="5.87343">
        <ele>909</ele>
        <time>2022-09-22T12:51:17Z</time>
      </trkpt>
      <trkpt lat="44.12529" lon="5.87344">
        <ele>909</ele>
        <time>2022-09-22T12:51:18Z</time>
      </trkpt>
      <trkpt lat="44.1253" lon="5.87346">
        <ele>909</ele>
        <time>2022-09-22T12:51:19Z</time>
      </trkpt>
      <trkpt lat="44.1253" lon="5.87348">
        <ele>909</ele>
        <time>2022-09-22T12:51:20Z</time>
      </trkpt>
      <trkpt lat="44.12531" lon="5.87349">
        <ele>909</ele>
        <time>2022-09-22T12:51:21Z</time>
      </trkpt>
      <trkpt lat="44.12532" lon="5.87351">
        <ele>909</ele>
        <time>2022-09-22T12:51:22Z</time>
      </trkpt>
      <trkpt lat="44.12533" lon="5.87353">
        <ele>909</ele>
        <time>2022-09-22T12:51:23Z</time>
      </trkpt>
      <trkpt lat="44.12533" lon="5.87355">
        <ele>909</ele>
        <time>2022-09-22T12:51:24Z</time>
      </trkpt>
      <trkpt lat="44.12534" lon="5.87356">
        <ele>908</ele>
        <time>2022-09-22T12:51:25Z</time>
      </trkpt>
      <trkpt lat="44.12534" lon="5.87358">
        <ele>908</ele>
        <time>2022-09-22T12:51:26Z</time>
      </trkpt>
      <trkpt lat="44.12535" lon="5.8736">
        <ele>908</ele>
        <time>2022-09-22T12:51:27Z</time>
      </trkpt>
      <trkpt lat="44.12535" lon="5.87362">
        <ele>908</ele>
        <time>2022-09-22T12:51:28Z</time>
      </trkpt>
      <trkpt lat="44.12535" lon="5.87364">
        <ele>908</ele>
        <time>2022-09-22T12:51:29Z</time>
      </trkpt>
      <trkpt lat="44.12535" lon="5.87366">
        <ele>908</ele>
        <time>2022-09-22T12:51:30Z</time>
      </trkpt>
      <trkpt lat="44.12535" lon="5.87367">
        <ele>908</ele>
        <time>2022-09-22T12:51:31Z</time>
      </trkpt>
      <trkpt lat="44.12535" lon="5.87369">
        <ele>908</ele>
        <time>2022-09-22T12:51:32Z</time>
      </trkpt>
      <trkpt lat="44.12535" lon="5.87371">
        <ele>908</ele>
        <time>2022-09-22T12:51:33Z</time>
      </trkpt>
      <trkpt lat="44.12535" lon="5.87372">
        <ele>908</ele>
        <time>2022-09-22T12:51:34Z</time>
      </trkpt>
      <trkpt lat="44.12535" lon="5.87373">
        <ele>908</ele>
        <time>2022-09-22T12:51:35Z</time>
      </trkpt>
      <trkpt lat="44.12535" lon="5.87374">
        <ele>908</ele>
        <time>2022-09-22T12:51:36Z</time>
      </trkpt>
      <trkpt lat="44.12534" lon="5.87375">
        <ele>908</ele>
        <time>2022-09-22T12:51:37Z</time>
      </trkpt>
      <trkpt lat="44.12535" lon="5.87377">
        <ele>908</ele>
        <time>2022-09-22T12:51:38Z</time>
      </trkpt>
      <trkpt lat="44.12535" lon="5.87378">
        <ele>908</ele>
        <time>2022-09-22T12:51:39Z</time>
      </trkpt>
      <trkpt lat="44.12535" lon="5.8738">
        <ele>907</ele>
        <time>2022-09-22T12:51:40Z</time>
      </trkpt>
      <trkpt lat="44.12535" lon="5.87382">
        <ele>907</ele>
        <time>2022-09-22T12:51:41Z</time>
      </trkpt>
      <trkpt lat="44.12535" lon="5.87384">
        <ele>907</ele>
        <time>2022-09-22T12:51:42Z</time>
      </trkpt>
      <trkpt lat="44.12535" lon="5.87386">
        <ele>907</ele>
        <time>2022-09-22T12:51:43Z</time>
      </trkpt>
      <trkpt lat="44.12535" lon="5.87387">
        <ele>907</ele>
        <time>2022-09-22T12:51:44Z</time>
      </trkpt>
      <trkpt lat="44.12535" lon="5.87389">
        <ele>907</ele>
        <time>2022-09-22T12:51:45Z</time>
      </trkpt>
      <trkpt lat="44.12535" lon="5.8739">
        <ele>907</ele>
        <time>2022-09-22T12:51:46Z</time>
      </trkpt>
      <trkpt lat="44.12535" lon="5.87391">
        <ele>907</ele>
        <time>2022-09-22T12:51:47Z</time>
      </trkpt>
      <trkpt lat="44.12535" lon="5.87392">
        <ele>907</ele>
        <time>2022-09-22T12:51:48Z</time>
      </trkpt>
      <trkpt lat="44.12535" lon="5.87393">
        <ele>907</ele>
        <time>2022-09-22T12:51:49Z</time>
      </trkpt>
      <trkpt lat="44.12535" lon="5.87394">
        <ele>906</ele>
        <time>2022-09-22T12:51:50Z</time>
      </trkpt>
      <trkpt lat="44.12535" lon="5.87396">
        <ele>906</ele>
        <time>2022-09-22T12:51:51Z</time>
      </trkpt>
      <trkpt lat="44.12534" lon="5.87397">
        <ele>906</ele>
        <time>2022-09-22T12:51:52Z</time>
      </trkpt>
      <trkpt lat="44.12534" lon="5.87399">
        <ele>906</ele>
        <time>2022-09-22T12:51:53Z</time>
      </trkpt>
      <trkpt lat="44.12534" lon="5.87401">
        <ele>906</ele>
        <time>2022-09-22T12:51:54Z</time>
      </trkpt>
      <trkpt lat="44.12533" lon="5.87402">
        <ele>906</ele>
        <time>2022-09-22T12:51:55Z</time>
      </trkpt>
      <trkpt lat="44.12533" lon="5.87403">
        <ele>906</ele>
        <time>2022-09-22T12:51:56Z</time>
      </trkpt>
      <trkpt lat="44.12533" lon="5.87405">
        <ele>906</ele>
        <time>2022-09-22T12:51:57Z</time>
      </trkpt>
      <trkpt lat="44.12532" lon="5.87406">
        <ele>906</ele>
        <time>2022-09-22T12:51:58Z</time>
      </trkpt>
      <trkpt lat="44.12532" lon="5.87407">
        <ele>906</ele>
        <time>2022-09-22T12:51:59Z</time>
      </trkpt>
      <trkpt lat="44.12532" lon="5.87408">
        <ele>906</ele>
        <time>2022-09-22T12:52:00Z</time>
      </trkpt>
      <trkpt lat="44.12531" lon="5.87409">
        <ele>906</ele>
        <time>2022-09-22T12:52:01Z</time>
      </trkpt>
      <trkpt lat="44.12531" lon="5.8741">
        <ele>906</ele>
        <time>2022-09-22T12:52:02Z</time>
      </trkpt>
      <trkpt lat="44.12531" lon="5.87411">
        <ele>906</ele>
        <time>2022-09-22T12:52:03Z</time>
      </trkpt>
      <trkpt lat="44.12531" lon="5.87413">
        <ele>906</ele>
        <time>2022-09-22T12:52:04Z</time>
      </trkpt>
      <trkpt lat="44.12531" lon="5.87414">
        <ele>905</ele>
        <time>2022-09-22T12:52:05Z</time>
      </trkpt>
      <trkpt lat="44.12532" lon="5.87415">
        <ele>905</ele>
        <time>2022-09-22T12:52:06Z</time>
      </trkpt>
      <trkpt lat="44.12532" lon="5.87416">
        <ele>905</ele>
        <time>2022-09-22T12:52:07Z</time>
      </trkpt>
      <trkpt lat="44.12532" lon="5.87417">
        <ele>905</ele>
        <time>2022-09-22T12:52:08Z</time>
      </trkpt>
      <trkpt lat="44.12532" lon="5.87418">
        <ele>905</ele>
        <time>2022-09-22T12:52:09Z</time>
      </trkpt>
      <trkpt lat="44.12532" lon="5.87419">
        <ele>905</ele>
        <time>2022-09-22T12:52:10Z</time>
      </trkpt>
      <trkpt lat="44.12532" lon="5.8742">
        <ele>905</ele>
        <time>2022-09-22T12:52:11Z</time>
      </trkpt>
      <trkpt lat="44.12532" lon="5.87422">
        <ele>905</ele>
        <time>2022-09-22T12:52:12Z</time>
      </trkpt>
      <trkpt lat="44.12532" lon="5.87423">
        <ele>905</ele>
        <time>2022-09-22T12:52:13Z</time>
      </trkpt>
      <trkpt lat="44.12532" lon="5.87424">
        <ele>905</ele>
        <time>2022-09-22T12:52:14Z</time>
      </trkpt>
      <trkpt lat="44.12532" lon="5.87425">
        <ele>904</ele>
        <time>2022-09-22T12:52:15Z</time>
      </trkpt>
      <trkpt lat="44.12532" lon="5.87427">
        <ele>904</ele>
        <time>2022-09-22T12:52:16Z</time>
      </trkpt>
      <trkpt lat="44.12532" lon="5.87428">
        <ele>904</ele>
        <time>2022-09-22T12:52:17Z</time>
      </trkpt>
      <trkpt lat="44.12532" lon="5.87429">
        <ele>904</ele>
        <time>2022-09-22T12:52:18Z</time>
      </trkpt>
      <trkpt lat="44.12532" lon="5.8743">
        <ele>904</ele>
        <time>2022-09-22T12:52:19Z</time>
      </trkpt>
      <trkpt lat="44.12532" lon="5.87431">
        <ele>904</ele>
        <time>2022-09-22T12:52:20Z</time>
      </trkpt>
      <trkpt lat="44.12532" lon="5.87432">
        <ele>904</ele>
        <time>2022-09-22T12:52:21Z</time>
      </trkpt>
      <trkpt lat="44.12532" lon="5.87434">
        <ele>904</ele>
        <time>2022-09-22T12:52:22Z</time>
      </trkpt>
      <trkpt lat="44.12531" lon="5.87435">
        <ele>904</ele>
        <time>2022-09-22T12:52:23Z</time>
      </trkpt>
      <trkpt lat="44.12531" lon="5.87437">
        <ele>904</ele>
        <time>2022-09-22T12:52:24Z</time>
      </trkpt>
      <trkpt lat="44.12531" lon="5.87438">
        <ele>903</ele>
        <time>2022-09-22T12:52:25Z</time>
      </trkpt>
      <trkpt lat="44.12531" lon="5.8744">
        <ele>903</ele>
        <time>2022-09-22T12:52:26Z</time>
      </trkpt>
      <trkpt lat="44.12531" lon="5.87441">
        <ele>903</ele>
        <time>2022-09-22T12:52:27Z</time>
      </trkpt>
      <trkpt lat="44.12531" lon="5.87443">
        <ele>903</ele>
        <time>2022-09-22T12:52:28Z</time>
      </trkpt>
      <trkpt lat="44.12531" lon="5.87444">
        <ele>903</ele>
        <time>2022-09-22T12:52:29Z</time>
      </trkpt>
      <trkpt lat="44.12532" lon="5.87446">
        <ele>903</ele>
        <time>2022-09-22T12:52:30Z</time>
      </trkpt>
      <trkpt lat="44.12532" lon="5.87447">
        <ele>903</ele>
        <time>2022-09-22T12:52:31Z</time>
      </trkpt>
      <trkpt lat="44.12532" lon="5.87449">
        <ele>903</ele>
        <time>2022-09-22T12:52:32Z</time>
      </trkpt>
      <trkpt lat="44.12533" lon="5.8745">
        <ele>903</ele>
        <time>2022-09-22T12:52:33Z</time>
      </trkpt>
      <trkpt lat="44.12533" lon="5.87452">
        <ele>903</ele>
        <time>2022-09-22T12:52:34Z</time>
      </trkpt>
      <trkpt lat="44.12533" lon="5.87453">
        <ele>902</ele>
        <time>2022-09-22T12:52:35Z</time>
      </trkpt>
      <trkpt lat="44.12533" lon="5.87455">
        <ele>902</ele>
        <time>2022-09-22T12:52:36Z</time>
      </trkpt>
      <trkpt lat="44.12533" lon="5.87456">
        <ele>902</ele>
        <time>2022-09-22T12:52:37Z</time>
      </trkpt>
      <trkpt lat="44.12533" lon="5.87457">
        <ele>902</ele>
        <time>2022-09-22T12:52:38Z</time>
      </trkpt>
      <trkpt lat="44.12533" lon="5.87458">
        <ele>902</ele>
        <time>2022-09-22T12:52:39Z</time>
      </trkpt>
      <trkpt lat="44.12533" lon="5.87459">
        <ele>902</ele>
        <time>2022-09-22T12:52:40Z</time>
      </trkpt>
      <trkpt lat="44.12533" lon="5.87461">
        <ele>902</ele>
        <time>2022-09-22T12:52:41Z</time>
      </trkpt>
      <trkpt lat="44.12533" lon="5.87462">
        <ele>902</ele>
        <time>2022-09-22T12:52:42Z</time>
      </trkpt>
      <trkpt lat="44.12533" lon="5.87463">
        <ele>902</ele>
        <time>2022-09-22T12:52:43Z</time>
      </trkpt>
      <trkpt lat="44.12533" lon="5.87465">
        <ele>902</ele>
        <time>2022-09-22T12:52:44Z</time>
      </trkpt>
      <trkpt lat="44.12533" lon="5.87466">
        <ele>901</ele>
        <time>2022-09-22T12:52:45Z</time>
      </trkpt>
      <trkpt lat="44.12534" lon="5.87467">
        <ele>901</ele>
        <time>2022-09-22T12:52:46Z</time>
      </trkpt>
      <trkpt lat="44.12534" lon="5.87468">
        <ele>901</ele>
        <time>2022-09-22T12:52:47Z</time>
      </trkpt>
      <trkpt lat="44.12534" lon="5.8747">
        <ele>901</ele>
        <time>2022-09-22T12:52:48Z</time>
      </trkpt>
      <trkpt lat="44.12535" lon="5.87471">
        <ele>901</ele>
        <time>2022-09-22T12:52:49Z</time>
      </trkpt>
      <trkpt lat="44.12535" lon="5.87472">
        <ele>900</ele>
        <time>2022-09-22T12:52:50Z</time>
      </trkpt>
      <trkpt lat="44.12536" lon="5.87473">
        <ele>900</ele>
        <time>2022-09-22T12:52:51Z</time>
      </trkpt>
      <trkpt lat="44.12536" lon="5.87474">
        <ele>900</ele>
        <time>2022-09-22T12:52:52Z</time>
      </trkpt>
      <trkpt lat="44.12536" lon="5.87476">
        <ele>900</ele>
        <time>2022-09-22T12:52:53Z</time>
      </trkpt>
      <trkpt lat="44.12536" lon="5.87477">
        <ele>900</ele>
        <time>2022-09-22T12:52:54Z</time>
      </trkpt>
      <trkpt lat="44.12536" lon="5.87478">
        <ele>900</ele>
        <time>2022-09-22T12:52:55Z</time>
      </trkpt>
      <trkpt lat="44.12536" lon="5.87479">
        <ele>900</ele>
        <time>2022-09-22T12:52:56Z</time>
      </trkpt>
      <trkpt lat="44.12537" lon="5.87481">
        <ele>900</ele>
        <time>2022-09-22T12:52:57Z</time>
      </trkpt>
      <trkpt lat="44.12537" lon="5.87482">
        <ele>900</ele>
        <time>2022-09-22T12:52:58Z</time>
      </trkpt>
      <trkpt lat="44.12537" lon="5.87483">
        <ele>900</ele>
        <time>2022-09-22T12:52:59Z</time>
      </trkpt>
      <trkpt lat="44.12537" lon="5.87485">
        <ele>899</ele>
        <time>2022-09-22T12:53:00Z</time>
      </trkpt>
      <trkpt lat="44.12537" lon="5.87486">
        <ele>899</ele>
        <time>2022-09-22T12:53:01Z</time>
      </trkpt>
      <trkpt lat="44.12537" lon="5.87487">
        <ele>899</ele>
        <time>2022-09-22T12:53:02Z</time>
      </trkpt>
      <trkpt lat="44.12537" lon="5.87488">
        <ele>899</ele>
        <time>2022-09-22T12:53:03Z</time>
      </trkpt>
      <trkpt lat="44.12537" lon="5.87489">
        <ele>899</ele>
        <time>2022-09-22T12:53:04Z</time>
      </trkpt>
      <trkpt lat="44.12537" lon="5.8749">
        <ele>898</ele>
        <time>2022-09-22T12:53:05Z</time>
      </trkpt>
      <trkpt lat="44.12537" lon="5.87491">
        <ele>898</ele>
        <time>2022-09-22T12:53:06Z</time>
      </trkpt>
      <trkpt lat="44.12537" lon="5.87492">
        <ele>898</ele>
        <time>2022-09-22T12:53:07Z</time>
      </trkpt>
      <trkpt lat="44.12537" lon="5.87493">
        <ele>898</ele>
        <time>2022-09-22T12:53:08Z</time>
      </trkpt>
      <trkpt lat="44.12537" lon="5.87494">
        <ele>898</ele>
        <time>2022-09-22T12:53:09Z</time>
      </trkpt>
      <trkpt lat="44.12537" lon="5.87495">
        <ele>897</ele>
        <time>2022-09-22T12:53:10Z</time>
      </trkpt>
      <trkpt lat="44.12537" lon="5.87496">
        <ele>897</ele>
        <time>2022-09-22T12:53:11Z</time>
      </trkpt>
      <trkpt lat="44.12537" lon="5.87497">
        <ele>897</ele>
        <time>2022-09-22T12:53:12Z</time>
      </trkpt>
      <trkpt lat="44.12537" lon="5.87498">
        <ele>897</ele>
        <time>2022-09-22T12:53:13Z</time>
      </trkpt>
      <trkpt lat="44.12537" lon="5.87499">
        <ele>897</ele>
        <time>2022-09-22T12:53:14Z</time>
      </trkpt>
      <trkpt lat="44.12537" lon="5.875">
        <ele>897</ele>
        <time>2022-09-22T12:53:15Z</time>
      </trkpt>
      <trkpt lat="44.12537" lon="5.87501">
        <ele>897</ele>
        <time>2022-09-22T12:53:16Z</time>
      </trkpt>
      <trkpt lat="44.12537" lon="5.87502">
        <ele>897</ele>
        <time>2022-09-22T12:53:17Z</time>
      </trkpt>
      <trkpt lat="44.12537" lon="5.87504">
        <ele>897</ele>
        <time>2022-09-22T12:53:18Z</time>
      </trkpt>
      <trkpt lat="44.12538" lon="5.87505">
        <ele>897</ele>
        <time>2022-09-22T12:53:19Z</time>
      </trkpt>
      <trkpt lat="44.12538" lon="5.87507">
        <ele>896</ele>
        <time>2022-09-22T12:53:20Z</time>
      </trkpt>
      <trkpt lat="44.12538" lon="5.87508">
        <ele>896</ele>
        <time>2022-09-22T12:53:21Z</time>
      </trkpt>
      <trkpt lat="44.12539" lon="5.87509">
        <ele>896</ele>
        <time>2022-09-22T12:53:22Z</time>
      </trkpt>
      <trkpt lat="44.12539" lon="5.87511">
        <ele>896</ele>
        <time>2022-09-22T12:53:23Z</time>
      </trkpt>
      <trkpt lat="44.1254" lon="5.87512">
        <ele>896</ele>
        <time>2022-09-22T12:53:24Z</time>
      </trkpt>
      <trkpt lat="44.1254" lon="5.87513">
        <ele>895</ele>
        <time>2022-09-22T12:53:25Z</time>
      </trkpt>
      <trkpt lat="44.1254" lon="5.87515">
        <ele>895</ele>
        <time>2022-09-22T12:53:26Z</time>
      </trkpt>
      <trkpt lat="44.12541" lon="5.87516">
        <ele>895</ele>
        <time>2022-09-22T12:53:27Z</time>
      </trkpt>
      <trkpt lat="44.12541" lon="5.87518">
        <ele>895</ele>
        <time>2022-09-22T12:53:28Z</time>
      </trkpt>
      <trkpt lat="44.12541" lon="5.8752">
        <ele>895</ele>
        <time>2022-09-22T12:53:29Z</time>
      </trkpt>
      <trkpt lat="44.12542" lon="5.87521">
        <ele>895</ele>
        <time>2022-09-22T12:53:30Z</time>
      </trkpt>
      <trkpt lat="44.12542" lon="5.87522">
        <ele>895</ele>
        <time>2022-09-22T12:53:31Z</time>
      </trkpt>
      <trkpt lat="44.12543" lon="5.87524">
        <ele>895</ele>
        <time>2022-09-22T12:53:32Z</time>
      </trkpt>
      <trkpt lat="44.12543" lon="5.87525">
        <ele>895</ele>
        <time>2022-09-22T12:53:33Z</time>
      </trkpt>
      <trkpt lat="44.12544" lon="5.87526">
        <ele>895</ele>
        <time>2022-09-22T12:53:34Z</time>
      </trkpt>
      <trkpt lat="44.12545" lon="5.87528">
        <ele>894</ele>
        <time>2022-09-22T12:53:35Z</time>
      </trkpt>
      <trkpt lat="44.12545" lon="5.87529">
        <ele>894</ele>
        <time>2022-09-22T12:53:36Z</time>
      </trkpt>
      <trkpt lat="44.12546" lon="5.8753">
        <ele>894</ele>
        <time>2022-09-22T12:53:37Z</time>
      </trkpt>
      <trkpt lat="44.12547" lon="5.87532">
        <ele>894</ele>
        <time>2022-09-22T12:53:38Z</time>
      </trkpt>
      <trkpt lat="44.12548" lon="5.87533">
        <ele>894</ele>
        <time>2022-09-22T12:53:39Z</time>
      </trkpt>
      <trkpt lat="44.12548" lon="5.87534">
        <ele>894</ele>
        <time>2022-09-22T12:53:40Z</time>
      </trkpt>
      <trkpt lat="44.12549" lon="5.87536">
        <ele>894</ele>
        <time>2022-09-22T12:53:41Z</time>
      </trkpt>
      <trkpt lat="44.1255" lon="5.87537">
        <ele>894</ele>
        <time>2022-09-22T12:53:42Z</time>
      </trkpt>
      <trkpt lat="44.1255" lon="5.87538">
        <ele>894</ele>
        <time>2022-09-22T12:53:43Z</time>
      </trkpt>
      <trkpt lat="44.12551" lon="5.87539">
        <ele>894</ele>
        <time>2022-09-22T12:53:44Z</time>
      </trkpt>
      <trkpt lat="44.12551" lon="5.8754">
        <ele>894</ele>
        <time>2022-09-22T12:53:45Z</time>
      </trkpt>
      <trkpt lat="44.12551" lon="5.87541">
        <ele>894</ele>
        <time>2022-09-22T12:53:46Z</time>
      </trkpt>
      <trkpt lat="44.12552" lon="5.87543">
        <ele>894</ele>
        <time>2022-09-22T12:53:47Z</time>
      </trkpt>
      <trkpt lat="44.12552" lon="5.87544">
        <ele>894</ele>
        <time>2022-09-22T12:53:48Z</time>
      </trkpt>
      <trkpt lat="44.12552" lon="5.87546">
        <ele>894</ele>
        <time>2022-09-22T12:53:49Z</time>
      </trkpt>
      <trkpt lat="44.12553" lon="5.87547">
        <ele>893</ele>
        <time>2022-09-22T12:53:50Z</time>
      </trkpt>
      <trkpt lat="44.12553" lon="5.87548">
        <ele>893</ele>
        <time>2022-09-22T12:53:51Z</time>
      </trkpt>
      <trkpt lat="44.12553" lon="5.87549">
        <ele>893</ele>
        <time>2022-09-22T12:53:52Z</time>
      </trkpt>
      <trkpt lat="44.12554" lon="5.87551">
        <ele>893</ele>
        <time>2022-09-22T12:53:53Z</time>
      </trkpt>
      <trkpt lat="44.12554" lon="5.87553">
        <ele>893</ele>
        <time>2022-09-22T12:53:54Z</time>
      </trkpt>
      <trkpt lat="44.12554" lon="5.87555">
        <ele>893</ele>
        <time>2022-09-22T12:53:55Z</time>
      </trkpt>
      <trkpt lat="44.12554" lon="5.87556">
        <ele>893</ele>
        <time>2022-09-22T12:53:56Z</time>
      </trkpt>
      <trkpt lat="44.12555" lon="5.87558">
        <ele>893</ele>
        <time>2022-09-22T12:53:57Z</time>
      </trkpt>
      <trkpt lat="44.12555" lon="5.8756">
        <ele>893</ele>
        <time>2022-09-22T12:53:58Z</time>
      </trkpt>
      <trkpt lat="44.12555" lon="5.87561">
        <ele>893</ele>
        <time>2022-09-22T12:53:59Z</time>
      </trkpt>
      <trkpt lat="44.12556" lon="5.87563">
        <ele>893</ele>
        <time>2022-09-22T12:54:00Z</time>
      </trkpt>
      <trkpt lat="44.12556" lon="5.87564">
        <ele>893</ele>
        <time>2022-09-22T12:54:01Z</time>
      </trkpt>
      <trkpt lat="44.12556" lon="5.87566">
        <ele>893</ele>
        <time>2022-09-22T12:54:02Z</time>
      </trkpt>
      <trkpt lat="44.12557" lon="5.87567">
        <ele>893</ele>
        <time>2022-09-22T12:54:03Z</time>
      </trkpt>
      <trkpt lat="44.12557" lon="5.87568">
        <ele>893</ele>
        <time>2022-09-22T12:54:04Z</time>
      </trkpt>
      <trkpt lat="44.12557" lon="5.8757">
        <ele>893</ele>
        <time>2022-09-22T12:54:05Z</time>
      </trkpt>
      <trkpt lat="44.12557" lon="5.87571">
        <ele>893</ele>
        <time>2022-09-22T12:54:06Z</time>
      </trkpt>
      <trkpt lat="44.12557" lon="5.87572">
        <ele>893</ele>
        <time>2022-09-22T12:54:07Z</time>
      </trkpt>
      <trkpt lat="44.12558" lon="5.87573">
        <ele>893</ele>
        <time>2022-09-22T12:54:08Z</time>
      </trkpt>
      <trkpt lat="44.12558" lon="5.87575">
        <ele>893</ele>
        <time>2022-09-22T12:54:09Z</time>
      </trkpt>
      <trkpt lat="44.12558" lon="5.87576">
        <ele>892</ele>
        <time>2022-09-22T12:54:10Z</time>
      </trkpt>
      <trkpt lat="44.12557" lon="5.87577">
        <ele>892</ele>
        <time>2022-09-22T12:54:11Z</time>
      </trkpt>
      <trkpt lat="44.12557" lon="5.87578">
        <ele>892</ele>
        <time>2022-09-22T12:54:12Z</time>
      </trkpt>
      <trkpt lat="44.12556" lon="5.8758">
        <ele>892</ele>
        <time>2022-09-22T12:54:13Z</time>
      </trkpt>
      <trkpt lat="44.12556" lon="5.87582">
        <ele>892</ele>
        <time>2022-09-22T12:54:14Z</time>
      </trkpt>
      <trkpt lat="44.12555" lon="5.87584">
        <ele>892</ele>
        <time>2022-09-22T12:54:15Z</time>
      </trkpt>
      <trkpt lat="44.12555" lon="5.87586">
        <ele>892</ele>
        <time>2022-09-22T12:54:16Z</time>
      </trkpt>
      <trkpt lat="44.12555" lon="5.87587">
        <ele>892</ele>
        <time>2022-09-22T12:54:17Z</time>
      </trkpt>
      <trkpt lat="44.12555" lon="5.87589">
        <ele>892</ele>
        <time>2022-09-22T12:54:18Z</time>
      </trkpt>
      <trkpt lat="44.12555" lon="5.8759">
        <ele>892</ele>
        <time>2022-09-22T12:54:19Z</time>
      </trkpt>
      <trkpt lat="44.12555" lon="5.87591">
        <ele>891</ele>
        <time>2022-09-22T12:54:20Z</time>
      </trkpt>
      <trkpt lat="44.12555" lon="5.87592">
        <ele>891</ele>
        <time>2022-09-22T12:54:21Z</time>
      </trkpt>
      <trkpt lat="44.12555" lon="5.87594">
        <ele>891</ele>
        <time>2022-09-22T12:54:22Z</time>
      </trkpt>
      <trkpt lat="44.12555" lon="5.87595">
        <ele>891</ele>
        <time>2022-09-22T12:54:23Z</time>
      </trkpt>
      <trkpt lat="44.12555" lon="5.87596">
        <ele>891</ele>
        <time>2022-09-22T12:54:24Z</time>
      </trkpt>
      <trkpt lat="44.12555" lon="5.87597">
        <ele>891</ele>
        <time>2022-09-22T12:54:25Z</time>
      </trkpt>
      <trkpt lat="44.12556" lon="5.87597">
        <ele>891</ele>
        <time>2022-09-22T12:54:26Z</time>
      </trkpt>
      <trkpt lat="44.12556" lon="5.87599">
        <ele>891</ele>
        <time>2022-09-22T12:54:27Z</time>
      </trkpt>
      <trkpt lat="44.12556" lon="5.876">
        <ele>891</ele>
        <time>2022-09-22T12:54:28Z</time>
      </trkpt>
      <trkpt lat="44.12556" lon="5.87601">
        <ele>891</ele>
        <time>2022-09-22T12:54:29Z</time>
      </trkpt>
      <trkpt lat="44.12556" lon="5.87602">
        <ele>891</ele>
        <time>2022-09-22T12:54:30Z</time>
      </trkpt>
      <trkpt lat="44.12557" lon="5.87603">
        <ele>891</ele>
        <time>2022-09-22T12:54:31Z</time>
      </trkpt>
      <trkpt lat="44.12557" lon="5.87605">
        <ele>891</ele>
        <time>2022-09-22T12:54:32Z</time>
      </trkpt>
      <trkpt lat="44.12557" lon="5.87606">
        <ele>891</ele>
        <time>2022-09-22T12:54:33Z</time>
      </trkpt>
      <trkpt lat="44.12557" lon="5.87607">
        <ele>891</ele>
        <time>2022-09-22T12:54:34Z</time>
      </trkpt>
      <trkpt lat="44.12558" lon="5.87609">
        <ele>891</ele>
        <time>2022-09-22T12:54:35Z</time>
      </trkpt>
      <trkpt lat="44.12558" lon="5.8761">
        <ele>891</ele>
        <time>2022-09-22T12:54:36Z</time>
      </trkpt>
      <trkpt lat="44.12559" lon="5.87611">
        <ele>891</ele>
        <time>2022-09-22T12:54:37Z</time>
      </trkpt>
      <trkpt lat="44.1256" lon="5.87612">
        <ele>891</ele>
        <time>2022-09-22T12:54:38Z</time>
      </trkpt>
      <trkpt lat="44.1256" lon="5.87613">
        <ele>891</ele>
        <time>2022-09-22T12:54:39Z</time>
      </trkpt>
      <trkpt lat="44.12561" lon="5.87614">
        <ele>890</ele>
        <time>2022-09-22T12:54:40Z</time>
      </trkpt>
      <trkpt lat="44.12561" lon="5.87615">
        <ele>890</ele>
        <time>2022-09-22T12:54:41Z</time>
      </trkpt>
      <trkpt lat="44.12562" lon="5.87617">
        <ele>890</ele>
        <time>2022-09-22T12:54:42Z</time>
      </trkpt>
      <trkpt lat="44.12563" lon="5.87618">
        <ele>890</ele>
        <time>2022-09-22T12:54:43Z</time>
      </trkpt>
      <trkpt lat="44.12563" lon="5.87619">
        <ele>890</ele>
        <time>2022-09-22T12:54:44Z</time>
      </trkpt>
      <trkpt lat="44.12564" lon="5.8762">
        <ele>890</ele>
        <time>2022-09-22T12:54:45Z</time>
      </trkpt>
      <trkpt lat="44.12564" lon="5.87621">
        <ele>890</ele>
        <time>2022-09-22T12:54:46Z</time>
      </trkpt>
      <trkpt lat="44.12564" lon="5.87622">
        <ele>890</ele>
        <time>2022-09-22T12:54:47Z</time>
      </trkpt>
      <trkpt lat="44.12564" lon="5.87623">
        <ele>890</ele>
        <time>2022-09-22T12:54:48Z</time>
      </trkpt>
      <trkpt lat="44.12565" lon="5.87624">
        <ele>890</ele>
        <time>2022-09-22T12:54:49Z</time>
      </trkpt>
      <trkpt lat="44.12565" lon="5.87625">
        <ele>890</ele>
        <time>2022-09-22T12:54:50Z</time>
      </trkpt>
      <trkpt lat="44.12565" lon="5.87626">
        <ele>890</ele>
        <time>2022-09-22T12:54:51Z</time>
      </trkpt>
      <trkpt lat="44.12566" lon="5.87627">
        <ele>890</ele>
        <time>2022-09-22T12:54:52Z</time>
      </trkpt>
      <trkpt lat="44.12566" lon="5.87628">
        <ele>890</ele>
        <time>2022-09-22T12:54:53Z</time>
      </trkpt>
      <trkpt lat="44.12567" lon="5.87629">
        <ele>890</ele>
        <time>2022-09-22T12:54:54Z</time>
      </trkpt>
      <trkpt lat="44.12568" lon="5.87631">
        <ele>890</ele>
        <time>2022-09-22T12:54:55Z</time>
      </trkpt>
      <trkpt lat="44.12568" lon="5.87632">
        <ele>890</ele>
        <time>2022-09-22T12:54:56Z</time>
      </trkpt>
      <trkpt lat="44.12569" lon="5.87633">
        <ele>890</ele>
        <time>2022-09-22T12:54:57Z</time>
      </trkpt>
      <trkpt lat="44.12569" lon="5.87634">
        <ele>890</ele>
        <time>2022-09-22T12:54:58Z</time>
      </trkpt>
      <trkpt lat="44.12569" lon="5.87636">
        <ele>890</ele>
        <time>2022-09-22T12:54:59Z</time>
      </trkpt>
      <trkpt lat="44.12569" lon="5.87637">
        <ele>890</ele>
        <time>2022-09-22T12:55:00Z</time>
      </trkpt>
      <trkpt lat="44.1257" lon="5.87638">
        <ele>890</ele>
        <time>2022-09-22T12:55:01Z</time>
      </trkpt>
      <trkpt lat="44.1257" lon="5.8764">
        <ele>890</ele>
        <time>2022-09-22T12:55:02Z</time>
      </trkpt>
      <trkpt lat="44.1257" lon="5.87641">
        <ele>890</ele>
        <time>2022-09-22T12:55:03Z</time>
      </trkpt>
      <trkpt lat="44.1257" lon="5.87643">
        <ele>890</ele>
        <time>2022-09-22T12:55:04Z</time>
      </trkpt>
      <trkpt lat="44.12571" lon="5.87644">
        <ele>890</ele>
        <time>2022-09-22T12:55:05Z</time>
      </trkpt>
      <trkpt lat="44.12571" lon="5.87646">
        <ele>890</ele>
        <time>2022-09-22T12:55:06Z</time>
      </trkpt>
      <trkpt lat="44.12572" lon="5.87647">
        <ele>890</ele>
        <time>2022-09-22T12:55:07Z</time>
      </trkpt>
      <trkpt lat="44.12572" lon="5.87648">
        <ele>890</ele>
        <time>2022-09-22T12:55:08Z</time>
      </trkpt>
      <trkpt lat="44.12572" lon="5.87649">
        <ele>890</ele>
        <time>2022-09-22T12:55:09Z</time>
      </trkpt>
      <trkpt lat="44.12573" lon="5.8765">
        <ele>890</ele>
        <time>2022-09-22T12:55:10Z</time>
      </trkpt>
      <trkpt lat="44.12573" lon="5.87651">
        <ele>890</ele>
        <time>2022-09-22T12:55:11Z</time>
      </trkpt>
      <trkpt lat="44.12574" lon="5.87653">
        <ele>890</ele>
        <time>2022-09-22T12:55:12Z</time>
      </trkpt>
      <trkpt lat="44.12574" lon="5.87654">
        <ele>890</ele>
        <time>2022-09-22T12:55:13Z</time>
      </trkpt>
      <trkpt lat="44.12574" lon="5.87655">
        <ele>890</ele>
        <time>2022-09-22T12:55:14Z</time>
      </trkpt>
      <trkpt lat="44.12575" lon="5.87657">
        <ele>890</ele>
        <time>2022-09-22T12:55:15Z</time>
      </trkpt>
      <trkpt lat="44.12575" lon="5.87658">
        <ele>890</ele>
        <time>2022-09-22T12:55:16Z</time>
      </trkpt>
      <trkpt lat="44.12575" lon="5.8766">
        <ele>890</ele>
        <time>2022-09-22T12:55:17Z</time>
      </trkpt>
      <trkpt lat="44.12576" lon="5.87662">
        <ele>890</ele>
        <time>2022-09-22T12:55:18Z</time>
      </trkpt>
      <trkpt lat="44.12576" lon="5.87664">
        <ele>890</ele>
        <time>2022-09-22T12:55:19Z</time>
      </trkpt>
      <trkpt lat="44.12577" lon="5.87666">
        <ele>890</ele>
        <time>2022-09-22T12:55:20Z</time>
      </trkpt>
      <trkpt lat="44.12577" lon="5.87668">
        <ele>890</ele>
        <time>2022-09-22T12:55:21Z</time>
      </trkpt>
      <trkpt lat="44.12577" lon="5.8767">
        <ele>890</ele>
        <time>2022-09-22T12:55:22Z</time>
      </trkpt>
      <trkpt lat="44.12577" lon="5.87672">
        <ele>890</ele>
        <time>2022-09-22T12:55:23Z</time>
      </trkpt>
      <trkpt lat="44.12577" lon="5.87673">
        <ele>890</ele>
        <time>2022-09-22T12:55:24Z</time>
      </trkpt>
      <trkpt lat="44.12577" lon="5.87675">
        <ele>890</ele>
        <time>2022-09-22T12:55:25Z</time>
      </trkpt>
      <trkpt lat="44.12577" lon="5.87677">
        <ele>890</ele>
        <time>2022-09-22T12:55:26Z</time>
      </trkpt>
      <trkpt lat="44.12577" lon="5.87679">
        <ele>890</ele>
        <time>2022-09-22T12:55:27Z</time>
      </trkpt>
      <trkpt lat="44.12576" lon="5.8768">
        <ele>890</ele>
        <time>2022-09-22T12:55:28Z</time>
      </trkpt>
      <trkpt lat="44.12576" lon="5.87682">
        <ele>890</ele>
        <time>2022-09-22T12:55:29Z</time>
      </trkpt>
      <trkpt lat="44.12576" lon="5.87684">
        <ele>890</ele>
        <time>2022-09-22T12:55:30Z</time>
      </trkpt>
      <trkpt lat="44.12576" lon="5.87685">
        <ele>890</ele>
        <time>2022-09-22T12:55:31Z</time>
      </trkpt>
      <trkpt lat="44.12576" lon="5.87687">
        <ele>890</ele>
        <time>2022-09-22T12:55:32Z</time>
      </trkpt>
      <trkpt lat="44.12576" lon="5.87688">
        <ele>890</ele>
        <time>2022-09-22T12:55:33Z</time>
      </trkpt>
      <trkpt lat="44.12575" lon="5.8769">
        <ele>890</ele>
        <time>2022-09-22T12:55:34Z</time>
      </trkpt>
      <trkpt lat="44.12575" lon="5.87691">
        <ele>890</ele>
        <time>2022-09-22T12:55:35Z</time>
      </trkpt>
      <trkpt lat="44.12575" lon="5.87693">
        <ele>890</ele>
        <time>2022-09-22T12:55:36Z</time>
      </trkpt>
      <trkpt lat="44.12575" lon="5.87695">
        <ele>890</ele>
        <time>2022-09-22T12:55:37Z</time>
      </trkpt>
      <trkpt lat="44.12575" lon="5.87696">
        <ele>890</ele>
        <time>2022-09-22T12:55:38Z</time>
      </trkpt>
      <trkpt lat="44.12575" lon="5.87698">
        <ele>890</ele>
        <time>2022-09-22T12:55:39Z</time>
      </trkpt>
      <trkpt lat="44.12575" lon="5.87699">
        <ele>890</ele>
        <time>2022-09-22T12:55:40Z</time>
      </trkpt>
      <trkpt lat="44.12575" lon="5.87701">
        <ele>890</ele>
        <time>2022-09-22T12:55:41Z</time>
      </trkpt>
      <trkpt lat="44.12575" lon="5.87702">
        <ele>890</ele>
        <time>2022-09-22T12:55:42Z</time>
      </trkpt>
      <trkpt lat="44.12575" lon="5.87704">
        <ele>890</ele>
        <time>2022-09-22T12:55:43Z</time>
      </trkpt>
      <trkpt lat="44.12575" lon="5.87705">
        <ele>890</ele>
        <time>2022-09-22T12:55:44Z</time>
      </trkpt>
      <trkpt lat="44.12576" lon="5.87706">
        <ele>890</ele>
        <time>2022-09-22T12:55:45Z</time>
      </trkpt>
      <trkpt lat="44.12576" lon="5.87708">
        <ele>890</ele>
        <time>2022-09-22T12:55:46Z</time>
      </trkpt>
      <trkpt lat="44.12576" lon="5.87709">
        <ele>890</ele>
        <time>2022-09-22T12:55:47Z</time>
      </trkpt>
      <trkpt lat="44.12577" lon="5.8771">
        <ele>890</ele>
        <time>2022-09-22T12:55:48Z</time>
      </trkpt>
      <trkpt lat="44.12577" lon="5.87711">
        <ele>890</ele>
        <time>2022-09-22T12:55:49Z</time>
      </trkpt>
      <trkpt lat="44.12577" lon="5.87712">
        <ele>890</ele>
        <time>2022-09-22T12:55:50Z</time>
      </trkpt>
      <trkpt lat="44.12578" lon="5.87713">
        <ele>890</ele>
        <time>2022-09-22T12:55:51Z</time>
      </trkpt>
      <trkpt lat="44.12579" lon="5.87715">
        <ele>890</ele>
        <time>2022-09-22T12:55:52Z</time>
      </trkpt>
      <trkpt lat="44.12579" lon="5.87716">
        <ele>890</ele>
        <time>2022-09-22T12:55:53Z</time>
      </trkpt>
      <trkpt lat="44.1258" lon="5.87717">
        <ele>890</ele>
        <time>2022-09-22T12:55:54Z</time>
      </trkpt>
      <trkpt lat="44.12581" lon="5.87719">
        <ele>890</ele>
        <time>2022-09-22T12:55:55Z</time>
      </trkpt>
      <trkpt lat="44.12582" lon="5.8772">
        <ele>890</ele>
        <time>2022-09-22T12:55:56Z</time>
      </trkpt>
      <trkpt lat="44.12582" lon="5.87721">
        <ele>890</ele>
        <time>2022-09-22T12:55:57Z</time>
      </trkpt>
      <trkpt lat="44.12583" lon="5.87723">
        <ele>890</ele>
        <time>2022-09-22T12:55:58Z</time>
      </trkpt>
      <trkpt lat="44.12584" lon="5.87724">
        <ele>890</ele>
        <time>2022-09-22T12:55:59Z</time>
      </trkpt>
      <trkpt lat="44.12585" lon="5.87725">
        <ele>889</ele>
        <time>2022-09-22T12:56:00Z</time>
      </trkpt>
      <trkpt lat="44.12585" lon="5.87726">
        <ele>889</ele>
        <time>2022-09-22T12:56:01Z</time>
      </trkpt>
      <trkpt lat="44.12586" lon="5.87728">
        <ele>889</ele>
        <time>2022-09-22T12:56:02Z</time>
      </trkpt>
      <trkpt lat="44.12586" lon="5.87729">
        <ele>889</ele>
        <time>2022-09-22T12:56:03Z</time>
      </trkpt>
      <trkpt lat="44.12587" lon="5.8773">
        <ele>889</ele>
        <time>2022-09-22T12:56:04Z</time>
      </trkpt>
      <trkpt lat="44.12587" lon="5.87732">
        <ele>889</ele>
        <time>2022-09-22T12:56:05Z</time>
      </trkpt>
      <trkpt lat="44.12587" lon="5.87733">
        <ele>889</ele>
        <time>2022-09-22T12:56:06Z</time>
      </trkpt>
      <trkpt lat="44.12588" lon="5.87734">
        <ele>889</ele>
        <time>2022-09-22T12:56:07Z</time>
      </trkpt>
      <trkpt lat="44.12588" lon="5.87736">
        <ele>889</ele>
        <time>2022-09-22T12:56:08Z</time>
      </trkpt>
      <trkpt lat="44.12589" lon="5.87737">
        <ele>889</ele>
        <time>2022-09-22T12:56:09Z</time>
      </trkpt>
      <trkpt lat="44.12589" lon="5.87739">
        <ele>889</ele>
        <time>2022-09-22T12:56:10Z</time>
      </trkpt>
      <trkpt lat="44.1259" lon="5.8774">
        <ele>889</ele>
        <time>2022-09-22T12:56:11Z</time>
      </trkpt>
      <trkpt lat="44.1259" lon="5.87741">
        <ele>889</ele>
        <time>2022-09-22T12:56:12Z</time>
      </trkpt>
      <trkpt lat="44.12591" lon="5.87742">
        <ele>889</ele>
        <time>2022-09-22T12:56:13Z</time>
      </trkpt>
      <trkpt lat="44.12592" lon="5.87743">
        <ele>889</ele>
        <time>2022-09-22T12:56:14Z</time>
      </trkpt>
      <trkpt lat="44.12592" lon="5.87745">
        <ele>888</ele>
        <time>2022-09-22T12:56:15Z</time>
      </trkpt>
      <trkpt lat="44.12593" lon="5.87746">
        <ele>888</ele>
        <time>2022-09-22T12:56:16Z</time>
      </trkpt>
      <trkpt lat="44.12593" lon="5.87747">
        <ele>888</ele>
        <time>2022-09-22T12:56:17Z</time>
      </trkpt>
      <trkpt lat="44.12593" lon="5.87749">
        <ele>888</ele>
        <time>2022-09-22T12:56:18Z</time>
      </trkpt>
      <trkpt lat="44.12594" lon="5.8775">
        <ele>888</ele>
        <time>2022-09-22T12:56:19Z</time>
      </trkpt>
      <trkpt lat="44.12594" lon="5.87752">
        <ele>887</ele>
        <time>2022-09-22T12:56:20Z</time>
      </trkpt>
      <trkpt lat="44.12594" lon="5.87754">
        <ele>887</ele>
        <time>2022-09-22T12:56:21Z</time>
      </trkpt>
      <trkpt lat="44.12595" lon="5.87755">
        <ele>887</ele>
        <time>2022-09-22T12:56:22Z</time>
      </trkpt>
      <trkpt lat="44.12595" lon="5.87757">
        <ele>887</ele>
        <time>2022-09-22T12:56:23Z</time>
      </trkpt>
      <trkpt lat="44.12596" lon="5.87758">
        <ele>887</ele>
        <time>2022-09-22T12:56:24Z</time>
      </trkpt>
      <trkpt lat="44.12596" lon="5.8776">
        <ele>887</ele>
        <time>2022-09-22T12:56:25Z</time>
      </trkpt>
      <trkpt lat="44.12597" lon="5.87761">
        <ele>887</ele>
        <time>2022-09-22T12:56:26Z</time>
      </trkpt>
      <trkpt lat="44.12598" lon="5.87762">
        <ele>887</ele>
        <time>2022-09-22T12:56:27Z</time>
      </trkpt>
      <trkpt lat="44.12598" lon="5.87764">
        <ele>887</ele>
        <time>2022-09-22T12:56:28Z</time>
      </trkpt>
      <trkpt lat="44.12599" lon="5.87765">
        <ele>887</ele>
        <time>2022-09-22T12:56:29Z</time>
      </trkpt>
      <trkpt lat="44.12599" lon="5.87766">
        <ele>886</ele>
        <time>2022-09-22T12:56:30Z</time>
      </trkpt>
      <trkpt lat="44.12599" lon="5.87767">
        <ele>886</ele>
        <time>2022-09-22T12:56:31Z</time>
      </trkpt>
      <trkpt lat="44.126" lon="5.87769">
        <ele>885</ele>
        <time>2022-09-22T12:56:32Z</time>
      </trkpt>
      <trkpt lat="44.126" lon="5.8777">
        <ele>885</ele>
        <time>2022-09-22T12:56:33Z</time>
      </trkpt>
      <trkpt lat="44.12601" lon="5.87771">
        <ele>885</ele>
        <time>2022-09-22T12:56:34Z</time>
      </trkpt>
      <trkpt lat="44.12601" lon="5.87773">
        <ele>885</ele>
        <time>2022-09-22T12:56:35Z</time>
      </trkpt>
      <trkpt lat="44.12601" lon="5.87774">
        <ele>885</ele>
        <time>2022-09-22T12:56:36Z</time>
      </trkpt>
      <trkpt lat="44.12602" lon="5.87775">
        <ele>885</ele>
        <time>2022-09-22T12:56:37Z</time>
      </trkpt>
      <trkpt lat="44.12602" lon="5.87776">
        <ele>885</ele>
        <time>2022-09-22T12:56:38Z</time>
      </trkpt>
      <trkpt lat="44.12602" lon="5.87777">
        <ele>885</ele>
        <time>2022-09-22T12:56:39Z</time>
      </trkpt>
      <trkpt lat="44.12602" lon="5.87778">
        <ele>884</ele>
        <time>2022-09-22T12:56:40Z</time>
      </trkpt>
      <trkpt lat="44.12602" lon="5.87779">
        <ele>884</ele>
        <time>2022-09-22T12:56:41Z</time>
      </trkpt>
      <trkpt lat="44.12603" lon="5.8778">
        <ele>884</ele>
        <time>2022-09-22T12:56:42Z</time>
      </trkpt>
      <trkpt lat="44.12603" lon="5.87781">
        <ele>884</ele>
        <time>2022-09-22T12:56:43Z</time>
      </trkpt>
      <trkpt lat="44.12604" lon="5.87783">
        <ele>884</ele>
        <time>2022-09-22T12:56:44Z</time>
      </trkpt>
      <trkpt lat="44.12604" lon="5.87784">
        <ele>884</ele>
        <time>2022-09-22T12:56:45Z</time>
      </trkpt>
      <trkpt lat="44.12605" lon="5.87785">
        <ele>884</ele>
        <time>2022-09-22T12:56:46Z</time>
      </trkpt>
      <trkpt lat="44.12605" lon="5.87786">
        <ele>884</ele>
        <time>2022-09-22T12:56:47Z</time>
      </trkpt>
      <trkpt lat="44.12606" lon="5.87787">
        <ele>884</ele>
        <time>2022-09-22T12:56:48Z</time>
      </trkpt>
      <trkpt lat="44.12606" lon="5.87788">
        <ele>884</ele>
        <time>2022-09-22T12:56:49Z</time>
      </trkpt>
      <trkpt lat="44.12606" lon="5.87789">
        <ele>883</ele>
        <time>2022-09-22T12:56:50Z</time>
      </trkpt>
      <trkpt lat="44.12607" lon="5.8779">
        <ele>883</ele>
        <time>2022-09-22T12:56:51Z</time>
      </trkpt>
      <trkpt lat="44.12607" lon="5.87792">
        <ele>883</ele>
        <time>2022-09-22T12:56:52Z</time>
      </trkpt>
      <trkpt lat="44.12607" lon="5.87793">
        <ele>883</ele>
        <time>2022-09-22T12:56:53Z</time>
      </trkpt>
      <trkpt lat="44.12608" lon="5.87794">
        <ele>883</ele>
        <time>2022-09-22T12:56:54Z</time>
      </trkpt>
      <trkpt lat="44.12608" lon="5.87795">
        <ele>882</ele>
        <time>2022-09-22T12:56:55Z</time>
      </trkpt>
      <trkpt lat="44.12609" lon="5.87796">
        <ele>882</ele>
        <time>2022-09-22T12:56:56Z</time>
      </trkpt>
      <trkpt lat="44.12609" lon="5.87797">
        <ele>882</ele>
        <time>2022-09-22T12:56:57Z</time>
      </trkpt>
      <trkpt lat="44.12609" lon="5.87797">
        <ele>882</ele>
        <time>2022-09-22T12:56:58Z</time>
      </trkpt>
      <trkpt lat="44.12609" lon="5.87797">
        <ele>882</ele>
        <time>2022-09-22T12:56:59Z</time>
      </trkpt>
      <trkpt lat="44.1261" lon="5.87798">
        <ele>882</ele>
        <time>2022-09-22T12:57:00Z</time>
      </trkpt>
      <trkpt lat="44.1261" lon="5.87798">
        <ele>882</ele>
        <time>2022-09-22T12:57:01Z</time>
      </trkpt>
      <trkpt lat="44.1261" lon="5.87799">
        <ele>882</ele>
        <time>2022-09-22T12:57:02Z</time>
      </trkpt>
      <trkpt lat="44.1261" lon="5.878">
        <ele>882</ele>
        <time>2022-09-22T12:57:03Z</time>
      </trkpt>
      <trkpt lat="44.1261" lon="5.878">
        <ele>882</ele>
        <time>2022-09-22T12:57:04Z</time>
      </trkpt>
      <trkpt lat="44.1261" lon="5.87801">
        <ele>882</ele>
        <time>2022-09-22T12:57:05Z</time>
      </trkpt>
      <trkpt lat="44.1261" lon="5.87802">
        <ele>882</ele>
        <time>2022-09-22T12:57:06Z</time>
      </trkpt>
      <trkpt lat="44.12611" lon="5.87803">
        <ele>882</ele>
        <time>2022-09-22T12:57:07Z</time>
      </trkpt>
      <trkpt lat="44.12611" lon="5.87804">
        <ele>882</ele>
        <time>2022-09-22T12:57:08Z</time>
      </trkpt>
      <trkpt lat="44.12611" lon="5.87804">
        <ele>882</ele>
        <time>2022-09-22T12:57:09Z</time>
      </trkpt>
      <trkpt lat="44.12611" lon="5.87805">
        <ele>881</ele>
        <time>2022-09-22T12:57:10Z</time>
      </trkpt>
      <trkpt lat="44.12612" lon="5.87806">
        <ele>881</ele>
        <time>2022-09-22T12:57:11Z</time>
      </trkpt>
      <trkpt lat="44.12612" lon="5.87807">
        <ele>881</ele>
        <time>2022-09-22T12:57:12Z</time>
      </trkpt>
      <trkpt lat="44.12613" lon="5.87807">
        <ele>881</ele>
        <time>2022-09-22T12:57:13Z</time>
      </trkpt>
      <trkpt lat="44.12613" lon="5.87808">
        <ele>881</ele>
        <time>2022-09-22T12:57:14Z</time>
      </trkpt>
      <trkpt lat="44.12613" lon="5.87808">
        <ele>881</ele>
        <time>2022-09-22T12:57:15Z</time>
      </trkpt>
      <trkpt lat="44.12614" lon="5.87809">
        <ele>881</ele>
        <time>2022-09-22T12:57:16Z</time>
      </trkpt>
      <trkpt lat="44.12614" lon="5.8781">
        <ele>880</ele>
        <time>2022-09-22T13:00:36Z</time>
      </trkpt>
      <trkpt lat="44.12613" lon="5.8781">
        <ele>880</ele>
        <time>2022-09-22T13:00:37Z</time>
      </trkpt>
      <trkpt lat="44.12613" lon="5.87811">
        <ele>880</ele>
        <time>2022-09-22T13:00:38Z</time>
      </trkpt>
      <trkpt lat="44.12613" lon="5.87812">
        <ele>880</ele>
        <time>2022-09-22T13:00:39Z</time>
      </trkpt>
      <trkpt lat="44.12613" lon="5.87812">
        <ele>880</ele>
        <time>2022-09-22T13:00:40Z</time>
      </trkpt>
      <trkpt lat="44.12614" lon="5.87813">
        <ele>880</ele>
        <time>2022-09-22T13:00:41Z</time>
      </trkpt>
      <trkpt lat="44.12614" lon="5.87815">
        <ele>880</ele>
        <time>2022-09-22T13:00:42Z</time>
      </trkpt>
      <trkpt lat="44.12614" lon="5.87816">
        <ele>880</ele>
        <time>2022-09-22T13:00:43Z</time>
      </trkpt>
      <trkpt lat="44.12614" lon="5.87817">
        <ele>880</ele>
        <time>2022-09-22T13:00:44Z</time>
      </trkpt>
      <trkpt lat="44.12614" lon="5.87819">
        <ele>880</ele>
        <time>2022-09-22T13:00:45Z</time>
      </trkpt>
      <trkpt lat="44.12614" lon="5.8782">
        <ele>880</ele>
        <time>2022-09-22T13:00:46Z</time>
      </trkpt>
      <trkpt lat="44.12614" lon="5.87822">
        <ele>880</ele>
        <time>2022-09-22T13:00:47Z</time>
      </trkpt>
      <trkpt lat="44.12614" lon="5.87823">
        <ele>880</ele>
        <time>2022-09-22T13:00:48Z</time>
      </trkpt>
      <trkpt lat="44.12614" lon="5.87825">
        <ele>880</ele>
        <time>2022-09-22T13:00:49Z</time>
      </trkpt>
      <trkpt lat="44.12614" lon="5.87826">
        <ele>879</ele>
        <time>2022-09-22T13:00:50Z</time>
      </trkpt>
      <trkpt lat="44.12614" lon="5.87827">
        <ele>879</ele>
        <time>2022-09-22T13:00:51Z</time>
      </trkpt>
      <trkpt lat="44.12614" lon="5.87829">
        <ele>879</ele>
        <time>2022-09-22T13:00:52Z</time>
      </trkpt>
      <trkpt lat="44.12614" lon="5.8783">
        <ele>879</ele>
        <time>2022-09-22T13:00:53Z</time>
      </trkpt>
      <trkpt lat="44.12614" lon="5.87831">
        <ele>879</ele>
        <time>2022-09-22T13:00:54Z</time>
      </trkpt>
      <trkpt lat="44.12614" lon="5.87833">
        <ele>879</ele>
        <time>2022-09-22T13:00:55Z</time>
      </trkpt>
      <trkpt lat="44.12615" lon="5.87834">
        <ele>879</ele>
        <time>2022-09-22T13:00:56Z</time>
      </trkpt>
      <trkpt lat="44.12615" lon="5.87835">
        <ele>879</ele>
        <time>2022-09-22T13:00:57Z</time>
      </trkpt>
      <trkpt lat="44.12615" lon="5.87836">
        <ele>879</ele>
        <time>2022-09-22T13:00:58Z</time>
      </trkpt>
      <trkpt lat="44.12615" lon="5.87837">
        <ele>879</ele>
        <time>2022-09-22T13:00:59Z</time>
      </trkpt>
      <trkpt lat="44.12615" lon="5.87838">
        <ele>878</ele>
        <time>2022-09-22T13:01:00Z</time>
      </trkpt>
      <trkpt lat="44.12616" lon="5.87839">
        <ele>878</ele>
        <time>2022-09-22T13:01:01Z</time>
      </trkpt>
      <trkpt lat="44.12616" lon="5.87841">
        <ele>878</ele>
        <time>2022-09-22T13:01:02Z</time>
      </trkpt>
      <trkpt lat="44.12616" lon="5.87842">
        <ele>878</ele>
        <time>2022-09-22T13:01:03Z</time>
      </trkpt>
      <trkpt lat="44.12616" lon="5.87843">
        <ele>878</ele>
        <time>2022-09-22T13:01:04Z</time>
      </trkpt>
      <trkpt lat="44.12616" lon="5.87845">
        <ele>878</ele>
        <time>2022-09-22T13:01:05Z</time>
      </trkpt>
      <trkpt lat="44.12616" lon="5.87846">
        <ele>878</ele>
        <time>2022-09-22T13:01:06Z</time>
      </trkpt>
      <trkpt lat="44.12616" lon="5.87847">
        <ele>878</ele>
        <time>2022-09-22T13:01:07Z</time>
      </trkpt>
      <trkpt lat="44.12617" lon="5.87849">
        <ele>878</ele>
        <time>2022-09-22T13:01:08Z</time>
      </trkpt>
      <trkpt lat="44.12617" lon="5.8785">
        <ele>878</ele>
        <time>2022-09-22T13:01:09Z</time>
      </trkpt>
      <trkpt lat="44.12617" lon="5.87851">
        <ele>878</ele>
        <time>2022-09-22T13:01:10Z</time>
      </trkpt>
      <trkpt lat="44.12617" lon="5.87853">
        <ele>878</ele>
        <time>2022-09-22T13:01:11Z</time>
      </trkpt>
      <trkpt lat="44.12617" lon="5.87854">
        <ele>878</ele>
        <time>2022-09-22T13:01:12Z</time>
      </trkpt>
      <trkpt lat="44.12617" lon="5.87855">
        <ele>878</ele>
        <time>2022-09-22T13:01:13Z</time>
      </trkpt>
      <trkpt lat="44.12617" lon="5.87856">
        <ele>878</ele>
        <time>2022-09-22T13:01:14Z</time>
      </trkpt>
      <trkpt lat="44.12617" lon="5.87857">
        <ele>877</ele>
        <time>2022-09-22T13:01:15Z</time>
      </trkpt>
      <trkpt lat="44.12617" lon="5.87859">
        <ele>877</ele>
        <time>2022-09-22T13:01:16Z</time>
      </trkpt>
      <trkpt lat="44.12618" lon="5.8786">
        <ele>877</ele>
        <time>2022-09-22T13:01:17Z</time>
      </trkpt>
      <trkpt lat="44.12618" lon="5.87862">
        <ele>877</ele>
        <time>2022-09-22T13:01:18Z</time>
      </trkpt>
      <trkpt lat="44.12619" lon="5.87863">
        <ele>877</ele>
        <time>2022-09-22T13:01:19Z</time>
      </trkpt>
      <trkpt lat="44.12619" lon="5.87865">
        <ele>877</ele>
        <time>2022-09-22T13:01:20Z</time>
      </trkpt>
      <trkpt lat="44.12619" lon="5.87866">
        <ele>877</ele>
        <time>2022-09-22T13:01:21Z</time>
      </trkpt>
      <trkpt lat="44.12619" lon="5.87867">
        <ele>877</ele>
        <time>2022-09-22T13:01:22Z</time>
      </trkpt>
      <trkpt lat="44.1262" lon="5.87869">
        <ele>877</ele>
        <time>2022-09-22T13:01:23Z</time>
      </trkpt>
      <trkpt lat="44.1262" lon="5.8787">
        <ele>877</ele>
        <time>2022-09-22T13:01:24Z</time>
      </trkpt>
      <trkpt lat="44.1262" lon="5.87871">
        <ele>876</ele>
        <time>2022-09-22T13:01:25Z</time>
      </trkpt>
      <trkpt lat="44.12621" lon="5.87873">
        <ele>876</ele>
        <time>2022-09-22T13:01:26Z</time>
      </trkpt>
      <trkpt lat="44.12621" lon="5.87874">
        <ele>876</ele>
        <time>2022-09-22T13:01:27Z</time>
      </trkpt>
      <trkpt lat="44.12621" lon="5.87875">
        <ele>876</ele>
        <time>2022-09-22T13:01:28Z</time>
      </trkpt>
      <trkpt lat="44.12622" lon="5.87876">
        <ele>876</ele>
        <time>2022-09-22T13:01:29Z</time>
      </trkpt>
      <trkpt lat="44.12622" lon="5.87878">
        <ele>876</ele>
        <time>2022-09-22T13:01:30Z</time>
      </trkpt>
      <trkpt lat="44.12622" lon="5.87879">
        <ele>876</ele>
        <time>2022-09-22T13:01:31Z</time>
      </trkpt>
      <trkpt lat="44.12623" lon="5.8788">
        <ele>876</ele>
        <time>2022-09-22T13:01:32Z</time>
      </trkpt>
      <trkpt lat="44.12623" lon="5.87881">
        <ele>876</ele>
        <time>2022-09-22T13:01:33Z</time>
      </trkpt>
      <trkpt lat="44.12623" lon="5.87882">
        <ele>876</ele>
        <time>2022-09-22T13:01:34Z</time>
      </trkpt>
      <trkpt lat="44.12623" lon="5.87883">
        <ele>876</ele>
        <time>2022-09-22T13:01:35Z</time>
      </trkpt>
      <trkpt lat="44.12623" lon="5.87884">
        <ele>876</ele>
        <time>2022-09-22T13:01:36Z</time>
      </trkpt>
      <trkpt lat="44.12624" lon="5.87885">
        <ele>876</ele>
        <time>2022-09-22T13:01:37Z</time>
      </trkpt>
      <trkpt lat="44.12624" lon="5.87887">
        <ele>876</ele>
        <time>2022-09-22T13:01:38Z</time>
      </trkpt>
      <trkpt lat="44.12624" lon="5.87888">
        <ele>876</ele>
        <time>2022-09-22T13:01:39Z</time>
      </trkpt>
      <trkpt lat="44.12625" lon="5.87889">
        <ele>875</ele>
        <time>2022-09-22T13:01:40Z</time>
      </trkpt>
      <trkpt lat="44.12625" lon="5.8789">
        <ele>875</ele>
        <time>2022-09-22T13:01:41Z</time>
      </trkpt>
      <trkpt lat="44.12625" lon="5.87891">
        <ele>875</ele>
        <time>2022-09-22T13:01:42Z</time>
      </trkpt>
      <trkpt lat="44.12626" lon="5.87892">
        <ele>875</ele>
        <time>2022-09-22T13:01:43Z</time>
      </trkpt>
      <trkpt lat="44.12626" lon="5.87893">
        <ele>875</ele>
        <time>2022-09-22T13:01:44Z</time>
      </trkpt>
      <trkpt lat="44.12627" lon="5.87894">
        <ele>875</ele>
        <time>2022-09-22T13:01:45Z</time>
      </trkpt>
      <trkpt lat="44.12627" lon="5.87895">
        <ele>875</ele>
        <time>2022-09-22T13:01:46Z</time>
      </trkpt>
      <trkpt lat="44.12628" lon="5.87896">
        <ele>875</ele>
        <time>2022-09-22T13:01:47Z</time>
      </trkpt>
      <trkpt lat="44.12629" lon="5.87897">
        <ele>875</ele>
        <time>2022-09-22T13:01:48Z</time>
      </trkpt>
      <trkpt lat="44.12629" lon="5.87899">
        <ele>875</ele>
        <time>2022-09-22T13:01:49Z</time>
      </trkpt>
      <trkpt lat="44.1263" lon="5.879">
        <ele>875</ele>
        <time>2022-09-22T13:01:50Z</time>
      </trkpt>
      <trkpt lat="44.12631" lon="5.87901">
        <ele>875</ele>
        <time>2022-09-22T13:01:51Z</time>
      </trkpt>
      <trkpt lat="44.12631" lon="5.87902">
        <ele>875</ele>
        <time>2022-09-22T13:01:52Z</time>
      </trkpt>
      <trkpt lat="44.12632" lon="5.87903">
        <ele>875</ele>
        <time>2022-09-22T13:01:53Z</time>
      </trkpt>
      <trkpt lat="44.12633" lon="5.87904">
        <ele>875</ele>
        <time>2022-09-22T13:01:54Z</time>
      </trkpt>
      <trkpt lat="44.12633" lon="5.87904">
        <ele>875</ele>
        <time>2022-09-22T13:01:55Z</time>
      </trkpt>
      <trkpt lat="44.12634" lon="5.87905">
        <ele>875</ele>
        <time>2022-09-22T13:01:56Z</time>
      </trkpt>
      <trkpt lat="44.12634" lon="5.87906">
        <ele>875</ele>
        <time>2022-09-22T13:01:57Z</time>
      </trkpt>
      <trkpt lat="44.12635" lon="5.87907">
        <ele>875</ele>
        <time>2022-09-22T13:01:58Z</time>
      </trkpt>
      <trkpt lat="44.12636" lon="5.87907">
        <ele>875</ele>
        <time>2022-09-22T13:01:59Z</time>
      </trkpt>
      <trkpt lat="44.12636" lon="5.87908">
        <ele>874</ele>
        <time>2022-09-22T13:02:00Z</time>
      </trkpt>
      <trkpt lat="44.12637" lon="5.87909">
        <ele>874</ele>
        <time>2022-09-22T13:02:01Z</time>
      </trkpt>
      <trkpt lat="44.12638" lon="5.8791">
        <ele>874</ele>
        <time>2022-09-22T13:02:02Z</time>
      </trkpt>
      <trkpt lat="44.12639" lon="5.87911">
        <ele>874</ele>
        <time>2022-09-22T13:02:03Z</time>
      </trkpt>
      <trkpt lat="44.1264" lon="5.87912">
        <ele>874</ele>
        <time>2022-09-22T13:02:04Z</time>
      </trkpt>
      <trkpt lat="44.1264" lon="5.87913">
        <ele>874</ele>
        <time>2022-09-22T13:02:05Z</time>
      </trkpt>
      <trkpt lat="44.12641" lon="5.87914">
        <ele>874</ele>
        <time>2022-09-22T13:02:06Z</time>
      </trkpt>
      <trkpt lat="44.12641" lon="5.87915">
        <ele>874</ele>
        <time>2022-09-22T13:02:07Z</time>
      </trkpt>
      <trkpt lat="44.12642" lon="5.87916">
        <ele>874</ele>
        <time>2022-09-22T13:02:08Z</time>
      </trkpt>
      <trkpt lat="44.12642" lon="5.87917">
        <ele>874</ele>
        <time>2022-09-22T13:02:09Z</time>
      </trkpt>
      <trkpt lat="44.12643" lon="5.87918">
        <ele>874</ele>
        <time>2022-09-22T13:02:10Z</time>
      </trkpt>
      <trkpt lat="44.12643" lon="5.87919">
        <ele>874</ele>
        <time>2022-09-22T13:02:11Z</time>
      </trkpt>
      <trkpt lat="44.12644" lon="5.8792">
        <ele>874</ele>
        <time>2022-09-22T13:02:12Z</time>
      </trkpt>
      <trkpt lat="44.12645" lon="5.87921">
        <ele>874</ele>
        <time>2022-09-22T13:02:13Z</time>
      </trkpt>
      <trkpt lat="44.12645" lon="5.87923">
        <ele>874</ele>
        <time>2022-09-22T13:02:14Z</time>
      </trkpt>
      <trkpt lat="44.12646" lon="5.87924">
        <ele>873</ele>
        <time>2022-09-22T13:02:15Z</time>
      </trkpt>
      <trkpt lat="44.12646" lon="5.87925">
        <ele>873</ele>
        <time>2022-09-22T13:02:16Z</time>
      </trkpt>
      <trkpt lat="44.12647" lon="5.87926">
        <ele>873</ele>
        <time>2022-09-22T13:02:17Z</time>
      </trkpt>
      <trkpt lat="44.12648" lon="5.87927">
        <ele>873</ele>
        <time>2022-09-22T13:02:18Z</time>
      </trkpt>
      <trkpt lat="44.12648" lon="5.87929">
        <ele>873</ele>
        <time>2022-09-22T13:02:19Z</time>
      </trkpt>
      <trkpt lat="44.12649" lon="5.8793">
        <ele>873</ele>
        <time>2022-09-22T13:02:20Z</time>
      </trkpt>
      <trkpt lat="44.12649" lon="5.87931">
        <ele>873</ele>
        <time>2022-09-22T13:02:21Z</time>
      </trkpt>
      <trkpt lat="44.12649" lon="5.87932">
        <ele>873</ele>
        <time>2022-09-22T13:02:22Z</time>
      </trkpt>
      <trkpt lat="44.1265" lon="5.87933">
        <ele>873</ele>
        <time>2022-09-22T13:02:23Z</time>
      </trkpt>
      <trkpt lat="44.1265" lon="5.87935">
        <ele>873</ele>
        <time>2022-09-22T13:02:24Z</time>
      </trkpt>
      <trkpt lat="44.12651" lon="5.87936">
        <ele>873</ele>
        <time>2022-09-22T13:02:25Z</time>
      </trkpt>
      <trkpt lat="44.12651" lon="5.87938">
        <ele>873</ele>
        <time>2022-09-22T13:02:26Z</time>
      </trkpt>
      <trkpt lat="44.12651" lon="5.87939">
        <ele>873</ele>
        <time>2022-09-22T13:02:27Z</time>
      </trkpt>
      <trkpt lat="44.12651" lon="5.87941">
        <ele>873</ele>
        <time>2022-09-22T13:02:28Z</time>
      </trkpt>
      <trkpt lat="44.12651" lon="5.87942">
        <ele>873</ele>
        <time>2022-09-22T13:02:29Z</time>
      </trkpt>
      <trkpt lat="44.12651" lon="5.87944">
        <ele>873</ele>
        <time>2022-09-22T13:02:30Z</time>
      </trkpt>
      <trkpt lat="44.12652" lon="5.87945">
        <ele>873</ele>
        <time>2022-09-22T13:02:31Z</time>
      </trkpt>
      <trkpt lat="44.12652" lon="5.87947">
        <ele>873</ele>
        <time>2022-09-22T13:02:32Z</time>
      </trkpt>
      <trkpt lat="44.12652" lon="5.87948">
        <ele>873</ele>
        <time>2022-09-22T13:02:33Z</time>
      </trkpt>
      <trkpt lat="44.12652" lon="5.87949">
        <ele>873</ele>
        <time>2022-09-22T13:02:34Z</time>
      </trkpt>
      <trkpt lat="44.12652" lon="5.87951">
        <ele>872</ele>
        <time>2022-09-22T13:02:35Z</time>
      </trkpt>
      <trkpt lat="44.12653" lon="5.87952">
        <ele>872</ele>
        <time>2022-09-22T13:02:36Z</time>
      </trkpt>
      <trkpt lat="44.12653" lon="5.87953">
        <ele>872</ele>
        <time>2022-09-22T13:02:37Z</time>
      </trkpt>
      <trkpt lat="44.12654" lon="5.87954">
        <ele>872</ele>
        <time>2022-09-22T13:02:38Z</time>
      </trkpt>
      <trkpt lat="44.12655" lon="5.87955">
        <ele>872</ele>
        <time>2022-09-22T13:02:39Z</time>
      </trkpt>
      <trkpt lat="44.12655" lon="5.87956">
        <ele>872</ele>
        <time>2022-09-22T13:02:40Z</time>
      </trkpt>
      <trkpt lat="44.12656" lon="5.87957">
        <ele>872</ele>
        <time>2022-09-22T13:02:41Z</time>
      </trkpt>
      <trkpt lat="44.12657" lon="5.87957">
        <ele>872</ele>
        <time>2022-09-22T13:02:42Z</time>
      </trkpt>
      <trkpt lat="44.12658" lon="5.87958">
        <ele>872</ele>
        <time>2022-09-22T13:02:43Z</time>
      </trkpt>
      <trkpt lat="44.12659" lon="5.87959">
        <ele>872</ele>
        <time>2022-09-22T13:02:44Z</time>
      </trkpt>
      <trkpt lat="44.1266" lon="5.8796">
        <ele>872</ele>
        <time>2022-09-22T13:02:45Z</time>
      </trkpt>
      <trkpt lat="44.12661" lon="5.87961">
        <ele>872</ele>
        <time>2022-09-22T13:02:46Z</time>
      </trkpt>
      <trkpt lat="44.12662" lon="5.87962">
        <ele>872</ele>
        <time>2022-09-22T13:02:47Z</time>
      </trkpt>
      <trkpt lat="44.12663" lon="5.87963">
        <ele>872</ele>
        <time>2022-09-22T13:02:48Z</time>
      </trkpt>
      <trkpt lat="44.12664" lon="5.87964">
        <ele>872</ele>
        <time>2022-09-22T13:02:49Z</time>
      </trkpt>
      <trkpt lat="44.12665" lon="5.87965">
        <ele>872</ele>
        <time>2022-09-22T13:02:50Z</time>
      </trkpt>
      <trkpt lat="44.12666" lon="5.87967">
        <ele>872</ele>
        <time>2022-09-22T13:02:51Z</time>
      </trkpt>
      <trkpt lat="44.12667" lon="5.87968">
        <ele>872</ele>
        <time>2022-09-22T13:02:52Z</time>
      </trkpt>
      <trkpt lat="44.12668" lon="5.8797">
        <ele>872</ele>
        <time>2022-09-22T13:02:53Z</time>
      </trkpt>
      <trkpt lat="44.12669" lon="5.87971">
        <ele>872</ele>
        <time>2022-09-22T13:02:54Z</time>
      </trkpt>
      <trkpt lat="44.1267" lon="5.87973">
        <ele>872</ele>
        <time>2022-09-22T13:02:55Z</time>
      </trkpt>
      <trkpt lat="44.1267" lon="5.87974">
        <ele>872</ele>
        <time>2022-09-22T13:02:56Z</time>
      </trkpt>
      <trkpt lat="44.12671" lon="5.87975">
        <ele>872</ele>
        <time>2022-09-22T13:02:57Z</time>
      </trkpt>
      <trkpt lat="44.12672" lon="5.87976">
        <ele>872</ele>
        <time>2022-09-22T13:02:58Z</time>
      </trkpt>
      <trkpt lat="44.12672" lon="5.87977">
        <ele>872</ele>
        <time>2022-09-22T13:02:59Z</time>
      </trkpt>
      <trkpt lat="44.12673" lon="5.87979">
        <ele>872</ele>
        <time>2022-09-22T13:03:00Z</time>
      </trkpt>
      <trkpt lat="44.12673" lon="5.8798">
        <ele>872</ele>
        <time>2022-09-22T13:03:01Z</time>
      </trkpt>
      <trkpt lat="44.12673" lon="5.8798">
        <ele>872</ele>
        <time>2022-09-22T13:03:02Z</time>
      </trkpt>
      <trkpt lat="44.12673" lon="5.87981">
        <ele>872</ele>
        <time>2022-09-22T13:03:03Z</time>
      </trkpt>
      <trkpt lat="44.12674" lon="5.87982">
        <ele>872</ele>
        <time>2022-09-22T13:03:04Z</time>
      </trkpt>
      <trkpt lat="44.12674" lon="5.87983">
        <ele>872</ele>
        <time>2022-09-22T13:03:05Z</time>
      </trkpt>
      <trkpt lat="44.12674" lon="5.87984">
        <ele>872</ele>
        <time>2022-09-22T13:03:06Z</time>
      </trkpt>
      <trkpt lat="44.12675" lon="5.87984">
        <ele>872</ele>
        <time>2022-09-22T13:03:07Z</time>
      </trkpt>
      <trkpt lat="44.12675" lon="5.87985">
        <ele>872</ele>
        <time>2022-09-22T13:03:08Z</time>
      </trkpt>
      <trkpt lat="44.12676" lon="5.87985">
        <ele>872</ele>
        <time>2022-09-22T13:03:09Z</time>
      </trkpt>
      <trkpt lat="44.12676" lon="5.87986">
        <ele>871</ele>
        <time>2022-09-22T13:03:10Z</time>
      </trkpt>
      <trkpt lat="44.12677" lon="5.87987">
        <ele>871</ele>
        <time>2022-09-22T13:03:11Z</time>
      </trkpt>
      <trkpt lat="44.12678" lon="5.87988">
        <ele>871</ele>
        <time>2022-09-22T13:03:12Z</time>
      </trkpt>
      <trkpt lat="44.12678" lon="5.8799">
        <ele>871</ele>
        <time>2022-09-22T13:03:13Z</time>
      </trkpt>
      <trkpt lat="44.12679" lon="5.87991">
        <ele>871</ele>
        <time>2022-09-22T13:03:14Z</time>
      </trkpt>
      <trkpt lat="44.1268" lon="5.87992">
        <ele>871</ele>
        <time>2022-09-22T13:03:15Z</time>
      </trkpt>
      <trkpt lat="44.1268" lon="5.87994">
        <ele>871</ele>
        <time>2022-09-22T13:03:16Z</time>
      </trkpt>
      <trkpt lat="44.12681" lon="5.87995">
        <ele>871</ele>
        <time>2022-09-22T13:03:17Z</time>
      </trkpt>
      <trkpt lat="44.12681" lon="5.87997">
        <ele>871</ele>
        <time>2022-09-22T13:03:18Z</time>
      </trkpt>
      <trkpt lat="44.12682" lon="5.87998">
        <ele>872</ele>
        <time>2022-09-22T13:03:19Z</time>
      </trkpt>
      <trkpt lat="44.12682" lon="5.88">
        <ele>872</ele>
        <time>2022-09-22T13:03:20Z</time>
      </trkpt>
      <trkpt lat="44.12683" lon="5.88001">
        <ele>872</ele>
        <time>2022-09-22T13:03:21Z</time>
      </trkpt>
      <trkpt lat="44.12683" lon="5.88003">
        <ele>872</ele>
        <time>2022-09-22T13:03:22Z</time>
      </trkpt>
      <trkpt lat="44.12684" lon="5.88004">
        <ele>872</ele>
        <time>2022-09-22T13:03:23Z</time>
      </trkpt>
      <trkpt lat="44.12684" lon="5.88005">
        <ele>872</ele>
        <time>2022-09-22T13:03:24Z</time>
      </trkpt>
      <trkpt lat="44.12684" lon="5.88007">
        <ele>872</ele>
        <time>2022-09-22T13:03:25Z</time>
      </trkpt>
      <trkpt lat="44.12684" lon="5.88008">
        <ele>872</ele>
        <time>2022-09-22T13:03:26Z</time>
      </trkpt>
      <trkpt lat="44.12685" lon="5.8801">
        <ele>872</ele>
        <time>2022-09-22T13:03:27Z</time>
      </trkpt>
      <trkpt lat="44.12685" lon="5.88011">
        <ele>872</ele>
        <time>2022-09-22T13:03:28Z</time>
      </trkpt>
      <trkpt lat="44.12685" lon="5.88012">
        <ele>872</ele>
        <time>2022-09-22T13:03:29Z</time>
      </trkpt>
      <trkpt lat="44.12686" lon="5.88013">
        <ele>872</ele>
        <time>2022-09-22T13:03:30Z</time>
      </trkpt>
      <trkpt lat="44.12686" lon="5.88015">
        <ele>872</ele>
        <time>2022-09-22T13:03:31Z</time>
      </trkpt>
      <trkpt lat="44.12686" lon="5.88016">
        <ele>872</ele>
        <time>2022-09-22T13:03:32Z</time>
      </trkpt>
      <trkpt lat="44.12687" lon="5.88018">
        <ele>872</ele>
        <time>2022-09-22T13:03:33Z</time>
      </trkpt>
      <trkpt lat="44.12687" lon="5.88019">
        <ele>872</ele>
        <time>2022-09-22T13:03:34Z</time>
      </trkpt>
      <trkpt lat="44.12688" lon="5.8802">
        <ele>872</ele>
        <time>2022-09-22T13:03:35Z</time>
      </trkpt>
      <trkpt lat="44.12688" lon="5.88022">
        <ele>872</ele>
        <time>2022-09-22T13:03:36Z</time>
      </trkpt>
      <trkpt lat="44.12689" lon="5.88023">
        <ele>872</ele>
        <time>2022-09-22T13:03:37Z</time>
      </trkpt>
      <trkpt lat="44.12689" lon="5.88024">
        <ele>872</ele>
        <time>2022-09-22T13:03:38Z</time>
      </trkpt>
      <trkpt lat="44.1269" lon="5.88026">
        <ele>873</ele>
        <time>2022-09-22T13:03:39Z</time>
      </trkpt>
      <trkpt lat="44.1269" lon="5.88027">
        <ele>873</ele>
        <time>2022-09-22T13:03:40Z</time>
      </trkpt>
      <trkpt lat="44.1269" lon="5.88028">
        <ele>873</ele>
        <time>2022-09-22T13:03:41Z</time>
      </trkpt>
      <trkpt lat="44.12691" lon="5.88029">
        <ele>873</ele>
        <time>2022-09-22T13:03:42Z</time>
      </trkpt>
      <trkpt lat="44.12691" lon="5.8803">
        <ele>873</ele>
        <time>2022-09-22T13:03:43Z</time>
      </trkpt>
      <trkpt lat="44.12692" lon="5.88032">
        <ele>873</ele>
        <time>2022-09-22T13:03:44Z</time>
      </trkpt>
      <trkpt lat="44.12692" lon="5.88033">
        <ele>873</ele>
        <time>2022-09-22T13:03:45Z</time>
      </trkpt>
      <trkpt lat="44.12693" lon="5.88035">
        <ele>873</ele>
        <time>2022-09-22T13:03:46Z</time>
      </trkpt>
      <trkpt lat="44.12693" lon="5.88036">
        <ele>873</ele>
        <time>2022-09-22T13:03:47Z</time>
      </trkpt>
      <trkpt lat="44.12694" lon="5.88037">
        <ele>873</ele>
        <time>2022-09-22T13:03:48Z</time>
      </trkpt>
      <trkpt lat="44.12694" lon="5.88038">
        <ele>873</ele>
        <time>2022-09-22T13:03:49Z</time>
      </trkpt>
      <trkpt lat="44.12695" lon="5.8804">
        <ele>873</ele>
        <time>2022-09-22T13:03:50Z</time>
      </trkpt>
      <trkpt lat="44.12695" lon="5.88041">
        <ele>873</ele>
        <time>2022-09-22T13:03:51Z</time>
      </trkpt>
      <trkpt lat="44.12696" lon="5.88043">
        <ele>873</ele>
        <time>2022-09-22T13:03:52Z</time>
      </trkpt>
      <trkpt lat="44.12696" lon="5.88044">
        <ele>873</ele>
        <time>2022-09-22T13:03:53Z</time>
      </trkpt>
      <trkpt lat="44.12697" lon="5.88045">
        <ele>874</ele>
        <time>2022-09-22T13:03:54Z</time>
      </trkpt>
      <trkpt lat="44.12697" lon="5.88047">
        <ele>874</ele>
        <time>2022-09-22T13:03:55Z</time>
      </trkpt>
      <trkpt lat="44.12698" lon="5.88048">
        <ele>874</ele>
        <time>2022-09-22T13:03:56Z</time>
      </trkpt>
      <trkpt lat="44.12698" lon="5.88049">
        <ele>874</ele>
        <time>2022-09-22T13:03:57Z</time>
      </trkpt>
      <trkpt lat="44.12698" lon="5.88051">
        <ele>874</ele>
        <time>2022-09-22T13:03:58Z</time>
      </trkpt>
      <trkpt lat="44.12699" lon="5.88052">
        <ele>874</ele>
        <time>2022-09-22T13:03:59Z</time>
      </trkpt>
      <trkpt lat="44.12699" lon="5.88053">
        <ele>874</ele>
        <time>2022-09-22T13:04:00Z</time>
      </trkpt>
      <trkpt lat="44.12699" lon="5.88054">
        <ele>874</ele>
        <time>2022-09-22T13:04:01Z</time>
      </trkpt>
      <trkpt lat="44.127" lon="5.88056">
        <ele>874</ele>
        <time>2022-09-22T13:04:02Z</time>
      </trkpt>
      <trkpt lat="44.12701" lon="5.88057">
        <ele>874</ele>
        <time>2022-09-22T13:04:03Z</time>
      </trkpt>
      <trkpt lat="44.12701" lon="5.88058">
        <ele>874</ele>
        <time>2022-09-22T13:04:04Z</time>
      </trkpt>
      <trkpt lat="44.12702" lon="5.88059">
        <ele>874</ele>
        <time>2022-09-22T13:04:05Z</time>
      </trkpt>
      <trkpt lat="44.12702" lon="5.8806">
        <ele>874</ele>
        <time>2022-09-22T13:04:06Z</time>
      </trkpt>
      <trkpt lat="44.12702" lon="5.88062">
        <ele>874</ele>
        <time>2022-09-22T13:04:07Z</time>
      </trkpt>
      <trkpt lat="44.12703" lon="5.88063">
        <ele>874</ele>
        <time>2022-09-22T13:04:08Z</time>
      </trkpt>
      <trkpt lat="44.12703" lon="5.88064">
        <ele>875</ele>
        <time>2022-09-22T13:04:09Z</time>
      </trkpt>
      <trkpt lat="44.12703" lon="5.88065">
        <ele>875</ele>
        <time>2022-09-22T13:04:10Z</time>
      </trkpt>
      <trkpt lat="44.12703" lon="5.88066">
        <ele>875</ele>
        <time>2022-09-22T13:04:11Z</time>
      </trkpt>
      <trkpt lat="44.12704" lon="5.88067">
        <ele>875</ele>
        <time>2022-09-22T13:04:12Z</time>
      </trkpt>
      <trkpt lat="44.12704" lon="5.88068">
        <ele>875</ele>
        <time>2022-09-22T13:04:13Z</time>
      </trkpt>
      <trkpt lat="44.12705" lon="5.88069">
        <ele>875</ele>
        <time>2022-09-22T13:04:14Z</time>
      </trkpt>
      <trkpt lat="44.12705" lon="5.8807">
        <ele>875</ele>
        <time>2022-09-22T13:04:15Z</time>
      </trkpt>
      <trkpt lat="44.12706" lon="5.88071">
        <ele>875</ele>
        <time>2022-09-22T13:04:16Z</time>
      </trkpt>
      <trkpt lat="44.12706" lon="5.88072">
        <ele>875</ele>
        <time>2022-09-22T13:04:17Z</time>
      </trkpt>
      <trkpt lat="44.12707" lon="5.88073">
        <ele>875</ele>
        <time>2022-09-22T13:04:18Z</time>
      </trkpt>
      <trkpt lat="44.12708" lon="5.88075">
        <ele>875</ele>
        <time>2022-09-22T13:04:19Z</time>
      </trkpt>
      <trkpt lat="44.12708" lon="5.88076">
        <ele>875</ele>
        <time>2022-09-22T13:04:20Z</time>
      </trkpt>
      <trkpt lat="44.12709" lon="5.88077">
        <ele>875</ele>
        <time>2022-09-22T13:04:21Z</time>
      </trkpt>
      <trkpt lat="44.12709" lon="5.88079">
        <ele>875</ele>
        <time>2022-09-22T13:04:22Z</time>
      </trkpt>
      <trkpt lat="44.1271" lon="5.8808">
        <ele>875</ele>
        <time>2022-09-22T13:04:23Z</time>
      </trkpt>
      <trkpt lat="44.1271" lon="5.88081">
        <ele>875</ele>
        <time>2022-09-22T13:04:24Z</time>
      </trkpt>
      <trkpt lat="44.12711" lon="5.88083">
        <ele>875</ele>
        <time>2022-09-22T13:04:25Z</time>
      </trkpt>
      <trkpt lat="44.12711" lon="5.88084">
        <ele>875</ele>
        <time>2022-09-22T13:04:26Z</time>
      </trkpt>
      <trkpt lat="44.12712" lon="5.88085">
        <ele>875</ele>
        <time>2022-09-22T13:04:27Z</time>
      </trkpt>
      <trkpt lat="44.12713" lon="5.88086">
        <ele>875</ele>
        <time>2022-09-22T13:04:28Z</time>
      </trkpt>
      <trkpt lat="44.12713" lon="5.88087">
        <ele>876</ele>
        <time>2022-09-22T13:04:29Z</time>
      </trkpt>
      <trkpt lat="44.12714" lon="5.88088">
        <ele>876</ele>
        <time>2022-09-22T13:04:30Z</time>
      </trkpt>
      <trkpt lat="44.12714" lon="5.88089">
        <ele>876</ele>
        <time>2022-09-22T13:04:31Z</time>
      </trkpt>
      <trkpt lat="44.12715" lon="5.8809">
        <ele>876</ele>
        <time>2022-09-22T13:04:32Z</time>
      </trkpt>
      <trkpt lat="44.12716" lon="5.88091">
        <ele>876</ele>
        <time>2022-09-22T13:04:33Z</time>
      </trkpt>
      <trkpt lat="44.12717" lon="5.88092">
        <ele>876</ele>
        <time>2022-09-22T13:04:34Z</time>
      </trkpt>
      <trkpt lat="44.12718" lon="5.88093">
        <ele>875</ele>
        <time>2022-09-22T13:04:35Z</time>
      </trkpt>
      <trkpt lat="44.12718" lon="5.88094">
        <ele>875</ele>
        <time>2022-09-22T13:04:36Z</time>
      </trkpt>
      <trkpt lat="44.12719" lon="5.88095">
        <ele>875</ele>
        <time>2022-09-22T13:04:37Z</time>
      </trkpt>
      <trkpt lat="44.1272" lon="5.88096">
        <ele>875</ele>
        <time>2022-09-22T13:04:38Z</time>
      </trkpt>
      <trkpt lat="44.12721" lon="5.88097">
        <ele>875</ele>
        <time>2022-09-22T13:04:39Z</time>
      </trkpt>
      <trkpt lat="44.12722" lon="5.88098">
        <ele>875</ele>
        <time>2022-09-22T13:04:40Z</time>
      </trkpt>
      <trkpt lat="44.12723" lon="5.88099">
        <ele>875</ele>
        <time>2022-09-22T13:04:41Z</time>
      </trkpt>
      <trkpt lat="44.12724" lon="5.881">
        <ele>875</ele>
        <time>2022-09-22T13:04:42Z</time>
      </trkpt>
      <trkpt lat="44.12725" lon="5.88101">
        <ele>875</ele>
        <time>2022-09-22T13:04:43Z</time>
      </trkpt>
      <trkpt lat="44.12725" lon="5.88102">
        <ele>876</ele>
        <time>2022-09-22T13:04:44Z</time>
      </trkpt>
      <trkpt lat="44.12726" lon="5.88103">
        <ele>876</ele>
        <time>2022-09-22T13:04:45Z</time>
      </trkpt>
      <trkpt lat="44.12727" lon="5.88104">
        <ele>876</ele>
        <time>2022-09-22T13:04:46Z</time>
      </trkpt>
      <trkpt lat="44.12728" lon="5.88105">
        <ele>876</ele>
        <time>2022-09-22T13:04:47Z</time>
      </trkpt>
      <trkpt lat="44.12729" lon="5.88106">
        <ele>876</ele>
        <time>2022-09-22T13:04:48Z</time>
      </trkpt>
      <trkpt lat="44.12729" lon="5.88107">
        <ele>876</ele>
        <time>2022-09-22T13:04:49Z</time>
      </trkpt>
      <trkpt lat="44.1273" lon="5.88108">
        <ele>876</ele>
        <time>2022-09-22T13:04:50Z</time>
      </trkpt>
      <trkpt lat="44.12731" lon="5.88109">
        <ele>876</ele>
        <time>2022-09-22T13:04:51Z</time>
      </trkpt>
      <trkpt lat="44.12731" lon="5.8811">
        <ele>876</ele>
        <time>2022-09-22T13:04:52Z</time>
      </trkpt>
      <trkpt lat="44.12732" lon="5.8811">
        <ele>876</ele>
        <time>2022-09-22T13:04:53Z</time>
      </trkpt>
      <trkpt lat="44.12733" lon="5.88111">
        <ele>876</ele>
        <time>2022-09-22T13:04:54Z</time>
      </trkpt>
      <trkpt lat="44.12733" lon="5.88112">
        <ele>876</ele>
        <time>2022-09-22T13:04:55Z</time>
      </trkpt>
      <trkpt lat="44.12734" lon="5.88113">
        <ele>876</ele>
        <time>2022-09-22T13:04:56Z</time>
      </trkpt>
      <trkpt lat="44.12735" lon="5.88114">
        <ele>876</ele>
        <time>2022-09-22T13:04:57Z</time>
      </trkpt>
      <trkpt lat="44.12736" lon="5.88115">
        <ele>876</ele>
        <time>2022-09-22T13:04:58Z</time>
      </trkpt>
      <trkpt lat="44.12736" lon="5.88116">
        <ele>876</ele>
        <time>2022-09-22T13:04:59Z</time>
      </trkpt>
      <trkpt lat="44.12737" lon="5.88117">
        <ele>876</ele>
        <time>2022-09-22T13:05:00Z</time>
      </trkpt>
      <trkpt lat="44.12738" lon="5.88118">
        <ele>876</ele>
        <time>2022-09-22T13:05:01Z</time>
      </trkpt>
      <trkpt lat="44.12739" lon="5.88119">
        <ele>876</ele>
        <time>2022-09-22T13:05:02Z</time>
      </trkpt>
      <trkpt lat="44.12739" lon="5.8812">
        <ele>876</ele>
        <time>2022-09-22T13:05:03Z</time>
      </trkpt>
      <trkpt lat="44.1274" lon="5.88121">
        <ele>876</ele>
        <time>2022-09-22T13:05:04Z</time>
      </trkpt>
      <trkpt lat="44.12741" lon="5.88121">
        <ele>876</ele>
        <time>2022-09-22T13:05:05Z</time>
      </trkpt>
      <trkpt lat="44.12742" lon="5.88122">
        <ele>876</ele>
        <time>2022-09-22T13:05:06Z</time>
      </trkpt>
      <trkpt lat="44.12743" lon="5.88123">
        <ele>876</ele>
        <time>2022-09-22T13:05:07Z</time>
      </trkpt>
      <trkpt lat="44.12743" lon="5.88124">
        <ele>876</ele>
        <time>2022-09-22T13:05:08Z</time>
      </trkpt>
      <trkpt lat="44.12744" lon="5.88124">
        <ele>876</ele>
        <time>2022-09-22T13:05:09Z</time>
      </trkpt>
      <trkpt lat="44.12745" lon="5.88125">
        <ele>876</ele>
        <time>2022-09-22T13:05:10Z</time>
      </trkpt>
      <trkpt lat="44.12746" lon="5.88126">
        <ele>876</ele>
        <time>2022-09-22T13:05:11Z</time>
      </trkpt>
      <trkpt lat="44.12746" lon="5.88127">
        <ele>876</ele>
        <time>2022-09-22T13:05:12Z</time>
      </trkpt>
      <trkpt lat="44.12747" lon="5.88128">
        <ele>876</ele>
        <time>2022-09-22T13:05:13Z</time>
      </trkpt>
      <trkpt lat="44.12748" lon="5.88129">
        <ele>877</ele>
        <time>2022-09-22T13:05:14Z</time>
      </trkpt>
      <trkpt lat="44.12748" lon="5.8813">
        <ele>877</ele>
        <time>2022-09-22T13:05:15Z</time>
      </trkpt>
      <trkpt lat="44.12749" lon="5.88131">
        <ele>877</ele>
        <time>2022-09-22T13:05:16Z</time>
      </trkpt>
      <trkpt lat="44.12749" lon="5.88132">
        <ele>877</ele>
        <time>2022-09-22T13:05:17Z</time>
      </trkpt>
      <trkpt lat="44.1275" lon="5.88133">
        <ele>877</ele>
        <time>2022-09-22T13:05:18Z</time>
      </trkpt>
      <trkpt lat="44.12751" lon="5.88134">
        <ele>877</ele>
        <time>2022-09-22T13:05:19Z</time>
      </trkpt>
      <trkpt lat="44.12751" lon="5.88135">
        <ele>877</ele>
        <time>2022-09-22T13:05:20Z</time>
      </trkpt>
      <trkpt lat="44.12752" lon="5.88136">
        <ele>877</ele>
        <time>2022-09-22T13:05:21Z</time>
      </trkpt>
      <trkpt lat="44.12752" lon="5.88137">
        <ele>877</ele>
        <time>2022-09-22T13:05:22Z</time>
      </trkpt>
      <trkpt lat="44.12753" lon="5.88138">
        <ele>877</ele>
        <time>2022-09-22T13:05:23Z</time>
      </trkpt>
      <trkpt lat="44.12754" lon="5.88139">
        <ele>877</ele>
        <time>2022-09-22T13:05:24Z</time>
      </trkpt>
      <trkpt lat="44.12754" lon="5.8814">
        <ele>877</ele>
        <time>2022-09-22T13:05:25Z</time>
      </trkpt>
      <trkpt lat="44.12755" lon="5.88141">
        <ele>877</ele>
        <time>2022-09-22T13:05:26Z</time>
      </trkpt>
      <trkpt lat="44.12756" lon="5.88143">
        <ele>877</ele>
        <time>2022-09-22T13:05:27Z</time>
      </trkpt>
      <trkpt lat="44.12756" lon="5.88144">
        <ele>877</ele>
        <time>2022-09-22T13:05:28Z</time>
      </trkpt>
      <trkpt lat="44.12757" lon="5.88145">
        <ele>877</ele>
        <time>2022-09-22T13:05:29Z</time>
      </trkpt>
      <trkpt lat="44.12758" lon="5.88146">
        <ele>877</ele>
        <time>2022-09-22T13:05:30Z</time>
      </trkpt>
      <trkpt lat="44.12758" lon="5.88147">
        <ele>877</ele>
        <time>2022-09-22T13:05:31Z</time>
      </trkpt>
      <trkpt lat="44.12759" lon="5.88148">
        <ele>877</ele>
        <time>2022-09-22T13:05:32Z</time>
      </trkpt>
      <trkpt lat="44.1276" lon="5.88149">
        <ele>877</ele>
        <time>2022-09-22T13:05:33Z</time>
      </trkpt>
      <trkpt lat="44.1276" lon="5.88151">
        <ele>877</ele>
        <time>2022-09-22T13:05:34Z</time>
      </trkpt>
      <trkpt lat="44.12761" lon="5.88152">
        <ele>877</ele>
        <time>2022-09-22T13:05:35Z</time>
      </trkpt>
      <trkpt lat="44.12762" lon="5.88153">
        <ele>877</ele>
        <time>2022-09-22T13:05:36Z</time>
      </trkpt>
      <trkpt lat="44.12763" lon="5.88154">
        <ele>877</ele>
        <time>2022-09-22T13:05:37Z</time>
      </trkpt>
      <trkpt lat="44.12763" lon="5.88155">
        <ele>877</ele>
        <time>2022-09-22T13:05:38Z</time>
      </trkpt>
      <trkpt lat="44.12764" lon="5.88157">
        <ele>877</ele>
        <time>2022-09-22T13:05:39Z</time>
      </trkpt>
      <trkpt lat="44.12765" lon="5.88158">
        <ele>877</ele>
        <time>2022-09-22T13:05:40Z</time>
      </trkpt>
      <trkpt lat="44.12766" lon="5.88159">
        <ele>877</ele>
        <time>2022-09-22T13:05:41Z</time>
      </trkpt>
      <trkpt lat="44.12766" lon="5.8816">
        <ele>877</ele>
        <time>2022-09-22T13:05:42Z</time>
      </trkpt>
      <trkpt lat="44.12767" lon="5.88161">
        <ele>877</ele>
        <time>2022-09-22T13:05:43Z</time>
      </trkpt>
      <trkpt lat="44.12767" lon="5.88162">
        <ele>878</ele>
        <time>2022-09-22T13:05:44Z</time>
      </trkpt>
      <trkpt lat="44.12768" lon="5.88163">
        <ele>878</ele>
        <time>2022-09-22T13:05:45Z</time>
      </trkpt>
      <trkpt lat="44.12768" lon="5.88164">
        <ele>878</ele>
        <time>2022-09-22T13:05:46Z</time>
      </trkpt>
      <trkpt lat="44.12769" lon="5.88165">
        <ele>878</ele>
        <time>2022-09-22T13:05:47Z</time>
      </trkpt>
      <trkpt lat="44.12769" lon="5.88166">
        <ele>878</ele>
        <time>2022-09-22T13:05:48Z</time>
      </trkpt>
      <trkpt lat="44.12769" lon="5.88167">
        <ele>878</ele>
        <time>2022-09-22T13:05:49Z</time>
      </trkpt>
      <trkpt lat="44.1277" lon="5.88168">
        <ele>877</ele>
        <time>2022-09-22T13:05:50Z</time>
      </trkpt>
      <trkpt lat="44.1277" lon="5.8817">
        <ele>877</ele>
        <time>2022-09-22T13:05:51Z</time>
      </trkpt>
      <trkpt lat="44.12771" lon="5.88171">
        <ele>877</ele>
        <time>2022-09-22T13:05:52Z</time>
      </trkpt>
      <trkpt lat="44.12771" lon="5.88172">
        <ele>877</ele>
        <time>2022-09-22T13:05:53Z</time>
      </trkpt>
      <trkpt lat="44.12772" lon="5.88174">
        <ele>877</ele>
        <time>2022-09-22T13:05:54Z</time>
      </trkpt>
      <trkpt lat="44.12773" lon="5.88175">
        <ele>877</ele>
        <time>2022-09-22T13:05:55Z</time>
      </trkpt>
      <trkpt lat="44.12773" lon="5.88177">
        <ele>877</ele>
        <time>2022-09-22T13:05:56Z</time>
      </trkpt>
      <trkpt lat="44.12774" lon="5.88178">
        <ele>877</ele>
        <time>2022-09-22T13:05:57Z</time>
      </trkpt>
      <trkpt lat="44.12774" lon="5.8818">
        <ele>877</ele>
        <time>2022-09-22T13:05:58Z</time>
      </trkpt>
      <trkpt lat="44.12774" lon="5.88181">
        <ele>877</ele>
        <time>2022-09-22T13:05:59Z</time>
      </trkpt>
      <trkpt lat="44.12775" lon="5.88182">
        <ele>876</ele>
        <time>2022-09-22T13:06:00Z</time>
      </trkpt>
      <trkpt lat="44.12775" lon="5.88184">
        <ele>876</ele>
        <time>2022-09-22T13:06:01Z</time>
      </trkpt>
      <trkpt lat="44.12776" lon="5.88185">
        <ele>876</ele>
        <time>2022-09-22T13:06:02Z</time>
      </trkpt>
      <trkpt lat="44.12777" lon="5.88186">
        <ele>876</ele>
        <time>2022-09-22T13:06:03Z</time>
      </trkpt>
      <trkpt lat="44.12777" lon="5.88188">
        <ele>876</ele>
        <time>2022-09-22T13:06:04Z</time>
      </trkpt>
      <trkpt lat="44.12778" lon="5.88189">
        <ele>876</ele>
        <time>2022-09-22T13:06:05Z</time>
      </trkpt>
      <trkpt lat="44.12778" lon="5.8819">
        <ele>876</ele>
        <time>2022-09-22T13:06:06Z</time>
      </trkpt>
      <trkpt lat="44.12779" lon="5.88191">
        <ele>876</ele>
        <time>2022-09-22T13:06:07Z</time>
      </trkpt>
      <trkpt lat="44.1278" lon="5.88193">
        <ele>876</ele>
        <time>2022-09-22T13:06:08Z</time>
      </trkpt>
      <trkpt lat="44.1278" lon="5.88194">
        <ele>876</ele>
        <time>2022-09-22T13:06:09Z</time>
      </trkpt>
      <trkpt lat="44.12781" lon="5.88195">
        <ele>876</ele>
        <time>2022-09-22T13:06:10Z</time>
      </trkpt>
      <trkpt lat="44.12782" lon="5.88196">
        <ele>876</ele>
        <time>2022-09-22T13:06:11Z</time>
      </trkpt>
      <trkpt lat="44.12783" lon="5.88197">
        <ele>876</ele>
        <time>2022-09-22T13:06:12Z</time>
      </trkpt>
      <trkpt lat="44.12784" lon="5.88198">
        <ele>876</ele>
        <time>2022-09-22T13:06:13Z</time>
      </trkpt>
      <trkpt lat="44.12785" lon="5.88199">
        <ele>876</ele>
        <time>2022-09-22T13:06:14Z</time>
      </trkpt>
      <trkpt lat="44.12785" lon="5.882">
        <ele>875</ele>
        <time>2022-09-22T13:06:15Z</time>
      </trkpt>
      <trkpt lat="44.12786" lon="5.88201">
        <ele>875</ele>
        <time>2022-09-22T13:06:16Z</time>
      </trkpt>
      <trkpt lat="44.12787" lon="5.88202">
        <ele>875</ele>
        <time>2022-09-22T13:06:17Z</time>
      </trkpt>
      <trkpt lat="44.12788" lon="5.88203">
        <ele>875</ele>
        <time>2022-09-22T13:06:18Z</time>
      </trkpt>
      <trkpt lat="44.12788" lon="5.88204">
        <ele>875</ele>
        <time>2022-09-22T13:06:19Z</time>
      </trkpt>
      <trkpt lat="44.12789" lon="5.88205">
        <ele>875</ele>
        <time>2022-09-22T13:06:20Z</time>
      </trkpt>
      <trkpt lat="44.12789" lon="5.88206">
        <ele>875</ele>
        <time>2022-09-22T13:06:21Z</time>
      </trkpt>
      <trkpt lat="44.1279" lon="5.88207">
        <ele>875</ele>
        <time>2022-09-22T13:06:22Z</time>
      </trkpt>
      <trkpt lat="44.12791" lon="5.88208">
        <ele>875</ele>
        <time>2022-09-22T13:06:23Z</time>
      </trkpt>
      <trkpt lat="44.12792" lon="5.8821">
        <ele>875</ele>
        <time>2022-09-22T13:06:24Z</time>
      </trkpt>
      <trkpt lat="44.12792" lon="5.88211">
        <ele>874</ele>
        <time>2022-09-22T13:06:25Z</time>
      </trkpt>
      <trkpt lat="44.12793" lon="5.88213">
        <ele>874</ele>
        <time>2022-09-22T13:06:26Z</time>
      </trkpt>
      <trkpt lat="44.12794" lon="5.88214">
        <ele>874</ele>
        <time>2022-09-22T13:06:27Z</time>
      </trkpt>
      <trkpt lat="44.12794" lon="5.88216">
        <ele>874</ele>
        <time>2022-09-22T13:06:28Z</time>
      </trkpt>
      <trkpt lat="44.12795" lon="5.88218">
        <ele>874</ele>
        <time>2022-09-22T13:06:29Z</time>
      </trkpt>
      <trkpt lat="44.12795" lon="5.88219">
        <ele>873</ele>
        <time>2022-09-22T13:06:30Z</time>
      </trkpt>
      <trkpt lat="44.12796" lon="5.8822">
        <ele>873</ele>
        <time>2022-09-22T13:06:31Z</time>
      </trkpt>
      <trkpt lat="44.12796" lon="5.8822">
        <ele>873</ele>
        <time>2022-09-22T13:06:32Z</time>
      </trkpt>
      <trkpt lat="44.12797" lon="5.88222">
        <ele>873</ele>
        <time>2022-09-22T13:06:33Z</time>
      </trkpt>
      <trkpt lat="44.12798" lon="5.88223">
        <ele>873</ele>
        <time>2022-09-22T13:06:34Z</time>
      </trkpt>
      <trkpt lat="44.12798" lon="5.88224">
        <ele>873</ele>
        <time>2022-09-22T13:06:35Z</time>
      </trkpt>
      <trkpt lat="44.12799" lon="5.88225">
        <ele>873</ele>
        <time>2022-09-22T13:06:36Z</time>
      </trkpt>
      <trkpt lat="44.128" lon="5.88226">
        <ele>873</ele>
        <time>2022-09-22T13:06:37Z</time>
      </trkpt>
      <trkpt lat="44.128" lon="5.88228">
        <ele>873</ele>
        <time>2022-09-22T13:06:38Z</time>
      </trkpt>
      <trkpt lat="44.12801" lon="5.88229">
        <ele>873</ele>
        <time>2022-09-22T13:06:39Z</time>
      </trkpt>
      <trkpt lat="44.12801" lon="5.88231">
        <ele>873</ele>
        <time>2022-09-22T13:06:40Z</time>
      </trkpt>
      <trkpt lat="44.12802" lon="5.88232">
        <ele>873</ele>
        <time>2022-09-22T13:06:41Z</time>
      </trkpt>
      <trkpt lat="44.12802" lon="5.88233">
        <ele>873</ele>
        <time>2022-09-22T13:06:42Z</time>
      </trkpt>
      <trkpt lat="44.12803" lon="5.88235">
        <ele>873</ele>
        <time>2022-09-22T13:06:43Z</time>
      </trkpt>
      <trkpt lat="44.12803" lon="5.88236">
        <ele>873</ele>
        <time>2022-09-22T13:06:44Z</time>
      </trkpt>
      <trkpt lat="44.12804" lon="5.88237">
        <ele>872</ele>
        <time>2022-09-22T13:06:45Z</time>
      </trkpt>
      <trkpt lat="44.12804" lon="5.88238">
        <ele>872</ele>
        <time>2022-09-22T13:06:46Z</time>
      </trkpt>
      <trkpt lat="44.12804" lon="5.8824">
        <ele>872</ele>
        <time>2022-09-22T13:06:47Z</time>
      </trkpt>
      <trkpt lat="44.12805" lon="5.88241">
        <ele>872</ele>
        <time>2022-09-22T13:06:48Z</time>
      </trkpt>
      <trkpt lat="44.12805" lon="5.88243">
        <ele>872</ele>
        <time>2022-09-22T13:06:49Z</time>
      </trkpt>
      <trkpt lat="44.12805" lon="5.88244">
        <ele>872</ele>
        <time>2022-09-22T13:06:50Z</time>
      </trkpt>
      <trkpt lat="44.12805" lon="5.88246">
        <ele>872</ele>
        <time>2022-09-22T13:06:51Z</time>
      </trkpt>
      <trkpt lat="44.12805" lon="5.88247">
        <ele>872</ele>
        <time>2022-09-22T13:06:52Z</time>
      </trkpt>
      <trkpt lat="44.12805" lon="5.88249">
        <ele>872</ele>
        <time>2022-09-22T13:06:53Z</time>
      </trkpt>
      <trkpt lat="44.12805" lon="5.8825">
        <ele>872</ele>
        <time>2022-09-22T13:06:54Z</time>
      </trkpt>
      <trkpt lat="44.12806" lon="5.88251">
        <ele>872</ele>
        <time>2022-09-22T13:06:55Z</time>
      </trkpt>
      <trkpt lat="44.12806" lon="5.88253">
        <ele>872</ele>
        <time>2022-09-22T13:06:56Z</time>
      </trkpt>
      <trkpt lat="44.12806" lon="5.88254">
        <ele>872</ele>
        <time>2022-09-22T13:06:57Z</time>
      </trkpt>
      <trkpt lat="44.12807" lon="5.88256">
        <ele>872</ele>
        <time>2022-09-22T13:06:58Z</time>
      </trkpt>
      <trkpt lat="44.12807" lon="5.88257">
        <ele>872</ele>
        <time>2022-09-22T13:06:59Z</time>
      </trkpt>
      <trkpt lat="44.12808" lon="5.88258">
        <ele>872</ele>
        <time>2022-09-22T13:07:00Z</time>
      </trkpt>
      <trkpt lat="44.12808" lon="5.8826">
        <ele>872</ele>
        <time>2022-09-22T13:07:01Z</time>
      </trkpt>
      <trkpt lat="44.12809" lon="5.88261">
        <ele>872</ele>
        <time>2022-09-22T13:07:02Z</time>
      </trkpt>
      <trkpt lat="44.12809" lon="5.88263">
        <ele>872</ele>
        <time>2022-09-22T13:07:03Z</time>
      </trkpt>
      <trkpt lat="44.1281" lon="5.88264">
        <ele>872</ele>
        <time>2022-09-22T13:07:04Z</time>
      </trkpt>
      <trkpt lat="44.12811" lon="5.88266">
        <ele>872</ele>
        <time>2022-09-22T13:07:05Z</time>
      </trkpt>
      <trkpt lat="44.12811" lon="5.88267">
        <ele>872</ele>
        <time>2022-09-22T13:07:06Z</time>
      </trkpt>
      <trkpt lat="44.12812" lon="5.88269">
        <ele>872</ele>
        <time>2022-09-22T13:07:07Z</time>
      </trkpt>
      <trkpt lat="44.12813" lon="5.8827">
        <ele>872</ele>
        <time>2022-09-22T13:07:08Z</time>
      </trkpt>
      <trkpt lat="44.12814" lon="5.88272">
        <ele>872</ele>
        <time>2022-09-22T13:07:09Z</time>
      </trkpt>
      <trkpt lat="44.12814" lon="5.88273">
        <ele>872</ele>
        <time>2022-09-22T13:07:10Z</time>
      </trkpt>
      <trkpt lat="44.12815" lon="5.88274">
        <ele>872</ele>
        <time>2022-09-22T13:07:11Z</time>
      </trkpt>
      <trkpt lat="44.12816" lon="5.88275">
        <ele>872</ele>
        <time>2022-09-22T13:07:12Z</time>
      </trkpt>
      <trkpt lat="44.12816" lon="5.88277">
        <ele>872</ele>
        <time>2022-09-22T13:07:13Z</time>
      </trkpt>
      <trkpt lat="44.12817" lon="5.88278">
        <ele>872</ele>
        <time>2022-09-22T13:07:14Z</time>
      </trkpt>
      <trkpt lat="44.12818" lon="5.8828">
        <ele>872</ele>
        <time>2022-09-22T13:07:15Z</time>
      </trkpt>
      <trkpt lat="44.12818" lon="5.88281">
        <ele>872</ele>
        <time>2022-09-22T13:07:16Z</time>
      </trkpt>
      <trkpt lat="44.12819" lon="5.88282">
        <ele>872</ele>
        <time>2022-09-22T13:07:17Z</time>
      </trkpt>
      <trkpt lat="44.12819" lon="5.88284">
        <ele>872</ele>
        <time>2022-09-22T13:07:18Z</time>
      </trkpt>
      <trkpt lat="44.1282" lon="5.88285">
        <ele>872</ele>
        <time>2022-09-22T13:07:19Z</time>
      </trkpt>
      <trkpt lat="44.12821" lon="5.88286">
        <ele>872</ele>
        <time>2022-09-22T13:07:20Z</time>
      </trkpt>
      <trkpt lat="44.12822" lon="5.88288">
        <ele>872</ele>
        <time>2022-09-22T13:07:21Z</time>
      </trkpt>
      <trkpt lat="44.12822" lon="5.88289">
        <ele>872</ele>
        <time>2022-09-22T13:07:22Z</time>
      </trkpt>
      <trkpt lat="44.12823" lon="5.8829">
        <ele>872</ele>
        <time>2022-09-22T13:07:23Z</time>
      </trkpt>
      <trkpt lat="44.12824" lon="5.88292">
        <ele>872</ele>
        <time>2022-09-22T13:07:24Z</time>
      </trkpt>
      <trkpt lat="44.12824" lon="5.88293">
        <ele>872</ele>
        <time>2022-09-22T13:07:25Z</time>
      </trkpt>
      <trkpt lat="44.12825" lon="5.88295">
        <ele>872</ele>
        <time>2022-09-22T13:07:26Z</time>
      </trkpt>
      <trkpt lat="44.12825" lon="5.88296">
        <ele>872</ele>
        <time>2022-09-22T13:07:27Z</time>
      </trkpt>
      <trkpt lat="44.12826" lon="5.88298">
        <ele>872</ele>
        <time>2022-09-22T13:07:28Z</time>
      </trkpt>
      <trkpt lat="44.12827" lon="5.883">
        <ele>872</ele>
        <time>2022-09-22T13:07:29Z</time>
      </trkpt>
      <trkpt lat="44.12828" lon="5.88301">
        <ele>872</ele>
        <time>2022-09-22T13:07:30Z</time>
      </trkpt>
      <trkpt lat="44.12828" lon="5.88303">
        <ele>872</ele>
        <time>2022-09-22T13:07:31Z</time>
      </trkpt>
      <trkpt lat="44.12829" lon="5.88304">
        <ele>872</ele>
        <time>2022-09-22T13:07:32Z</time>
      </trkpt>
      <trkpt lat="44.1283" lon="5.88305">
        <ele>872</ele>
        <time>2022-09-22T13:07:33Z</time>
      </trkpt>
      <trkpt lat="44.12831" lon="5.88307">
        <ele>873</ele>
        <time>2022-09-22T13:07:34Z</time>
      </trkpt>
      <trkpt lat="44.12832" lon="5.88308">
        <ele>873</ele>
        <time>2022-09-22T13:07:35Z</time>
      </trkpt>
      <trkpt lat="44.12832" lon="5.88309">
        <ele>873</ele>
        <time>2022-09-22T13:07:36Z</time>
      </trkpt>
      <trkpt lat="44.12833" lon="5.8831">
        <ele>873</ele>
        <time>2022-09-22T13:07:37Z</time>
      </trkpt>
      <trkpt lat="44.12834" lon="5.88311">
        <ele>873</ele>
        <time>2022-09-22T13:07:38Z</time>
      </trkpt>
      <trkpt lat="44.12834" lon="5.88312">
        <ele>873</ele>
        <time>2022-09-22T13:07:39Z</time>
      </trkpt>
      <trkpt lat="44.12835" lon="5.88313">
        <ele>873</ele>
        <time>2022-09-22T13:07:40Z</time>
      </trkpt>
      <trkpt lat="44.12836" lon="5.88314">
        <ele>873</ele>
        <time>2022-09-22T13:07:41Z</time>
      </trkpt>
      <trkpt lat="44.12837" lon="5.88316">
        <ele>873</ele>
        <time>2022-09-22T13:07:42Z</time>
      </trkpt>
      <trkpt lat="44.12837" lon="5.88317">
        <ele>873</ele>
        <time>2022-09-22T13:07:43Z</time>
      </trkpt>
      <trkpt lat="44.12838" lon="5.88318">
        <ele>873</ele>
        <time>2022-09-22T13:07:44Z</time>
      </trkpt>
      <trkpt lat="44.12839" lon="5.8832">
        <ele>873</ele>
        <time>2022-09-22T13:07:45Z</time>
      </trkpt>
      <trkpt lat="44.12839" lon="5.88321">
        <ele>873</ele>
        <time>2022-09-22T13:07:46Z</time>
      </trkpt>
      <trkpt lat="44.1284" lon="5.88322">
        <ele>873</ele>
        <time>2022-09-22T13:07:47Z</time>
      </trkpt>
      <trkpt lat="44.12841" lon="5.88323">
        <ele>873</ele>
        <time>2022-09-22T13:07:48Z</time>
      </trkpt>
      <trkpt lat="44.12842" lon="5.88324">
        <ele>873</ele>
        <time>2022-09-22T13:07:49Z</time>
      </trkpt>
      <trkpt lat="44.12843" lon="5.88326">
        <ele>873</ele>
        <time>2022-09-22T13:07:50Z</time>
      </trkpt>
      <trkpt lat="44.12843" lon="5.88327">
        <ele>873</ele>
        <time>2022-09-22T13:07:51Z</time>
      </trkpt>
      <trkpt lat="44.12844" lon="5.88328">
        <ele>873</ele>
        <time>2022-09-22T13:07:52Z</time>
      </trkpt>
      <trkpt lat="44.12845" lon="5.88329">
        <ele>873</ele>
        <time>2022-09-22T13:07:53Z</time>
      </trkpt>
      <trkpt lat="44.12845" lon="5.8833">
        <ele>874</ele>
        <time>2022-09-22T13:07:54Z</time>
      </trkpt>
      <trkpt lat="44.12846" lon="5.88332">
        <ele>874</ele>
        <time>2022-09-22T13:07:55Z</time>
      </trkpt>
      <trkpt lat="44.12846" lon="5.88333">
        <ele>874</ele>
        <time>2022-09-22T13:07:56Z</time>
      </trkpt>
      <trkpt lat="44.12847" lon="5.88334">
        <ele>874</ele>
        <time>2022-09-22T13:07:57Z</time>
      </trkpt>
      <trkpt lat="44.12848" lon="5.88335">
        <ele>874</ele>
        <time>2022-09-22T13:07:58Z</time>
      </trkpt>
      <trkpt lat="44.12848" lon="5.88336">
        <ele>874</ele>
        <time>2022-09-22T13:07:59Z</time>
      </trkpt>
      <trkpt lat="44.12849" lon="5.88337">
        <ele>874</ele>
        <time>2022-09-22T13:08:00Z</time>
      </trkpt>
      <trkpt lat="44.1285" lon="5.88338">
        <ele>874</ele>
        <time>2022-09-22T13:08:01Z</time>
      </trkpt>
      <trkpt lat="44.1285" lon="5.88339">
        <ele>874</ele>
        <time>2022-09-22T13:08:02Z</time>
      </trkpt>
      <trkpt lat="44.12851" lon="5.88341">
        <ele>874</ele>
        <time>2022-09-22T13:08:03Z</time>
      </trkpt>
      <trkpt lat="44.12852" lon="5.88342">
        <ele>874</ele>
        <time>2022-09-22T13:08:04Z</time>
      </trkpt>
      <trkpt lat="44.12852" lon="5.88343">
        <ele>874</ele>
        <time>2022-09-22T13:08:05Z</time>
      </trkpt>
      <trkpt lat="44.12853" lon="5.88344">
        <ele>874</ele>
        <time>2022-09-22T13:08:06Z</time>
      </trkpt>
      <trkpt lat="44.12854" lon="5.88345">
        <ele>874</ele>
        <time>2022-09-22T13:08:07Z</time>
      </trkpt>
      <trkpt lat="44.12854" lon="5.88346">
        <ele>874</ele>
        <time>2022-09-22T13:08:08Z</time>
      </trkpt>
      <trkpt lat="44.12855" lon="5.88347">
        <ele>874</ele>
        <time>2022-09-22T13:08:09Z</time>
      </trkpt>
      <trkpt lat="44.12855" lon="5.88348">
        <ele>874</ele>
        <time>2022-09-22T13:08:10Z</time>
      </trkpt>
      <trkpt lat="44.12856" lon="5.88349">
        <ele>874</ele>
        <time>2022-09-22T13:08:11Z</time>
      </trkpt>
      <trkpt lat="44.12857" lon="5.8835">
        <ele>874</ele>
        <time>2022-09-22T13:08:12Z</time>
      </trkpt>
      <trkpt lat="44.12858" lon="5.88351">
        <ele>874</ele>
        <time>2022-09-22T13:08:13Z</time>
      </trkpt>
      <trkpt lat="44.12858" lon="5.88352">
        <ele>874</ele>
        <time>2022-09-22T13:08:14Z</time>
      </trkpt>
      <trkpt lat="44.12859" lon="5.88353">
        <ele>874</ele>
        <time>2022-09-22T13:08:15Z</time>
      </trkpt>
      <trkpt lat="44.12861" lon="5.88355">
        <ele>874</ele>
        <time>2022-09-22T13:08:16Z</time>
      </trkpt>
      <trkpt lat="44.12861" lon="5.88356">
        <ele>874</ele>
        <time>2022-09-22T13:08:17Z</time>
      </trkpt>
      <trkpt lat="44.12862" lon="5.88357">
        <ele>874</ele>
        <time>2022-09-22T13:08:18Z</time>
      </trkpt>
      <trkpt lat="44.12863" lon="5.88358">
        <ele>874</ele>
        <time>2022-09-22T13:08:19Z</time>
      </trkpt>
      <trkpt lat="44.12864" lon="5.8836">
        <ele>874</ele>
        <time>2022-09-22T13:08:20Z</time>
      </trkpt>
      <trkpt lat="44.12864" lon="5.88361">
        <ele>874</ele>
        <time>2022-09-22T13:08:21Z</time>
      </trkpt>
      <trkpt lat="44.12865" lon="5.88363">
        <ele>874</ele>
        <time>2022-09-22T13:08:22Z</time>
      </trkpt>
      <trkpt lat="44.12866" lon="5.88364">
        <ele>874</ele>
        <time>2022-09-22T13:08:23Z</time>
      </trkpt>
      <trkpt lat="44.12867" lon="5.88365">
        <ele>874</ele>
        <time>2022-09-22T13:08:24Z</time>
      </trkpt>
      <trkpt lat="44.12868" lon="5.88366">
        <ele>874</ele>
        <time>2022-09-22T13:08:25Z</time>
      </trkpt>
      <trkpt lat="44.12869" lon="5.88367">
        <ele>874</ele>
        <time>2022-09-22T13:08:26Z</time>
      </trkpt>
      <trkpt lat="44.1287" lon="5.88368">
        <ele>874</ele>
        <time>2022-09-22T13:08:27Z</time>
      </trkpt>
      <trkpt lat="44.12871" lon="5.88368">
        <ele>874</ele>
        <time>2022-09-22T13:08:28Z</time>
      </trkpt>
      <trkpt lat="44.12872" lon="5.88369">
        <ele>874</ele>
        <time>2022-09-22T13:08:29Z</time>
      </trkpt>
      <trkpt lat="44.12873" lon="5.88369">
        <ele>874</ele>
        <time>2022-09-22T13:08:30Z</time>
      </trkpt>
      <trkpt lat="44.12873" lon="5.88369">
        <ele>874</ele>
        <time>2022-09-22T13:08:31Z</time>
      </trkpt>
      <trkpt lat="44.12874" lon="5.8837">
        <ele>874</ele>
        <time>2022-09-22T13:08:32Z</time>
      </trkpt>
      <trkpt lat="44.12875" lon="5.8837">
        <ele>874</ele>
        <time>2022-09-22T13:08:33Z</time>
      </trkpt>
      <trkpt lat="44.12875" lon="5.8837">
        <ele>874</ele>
        <time>2022-09-22T13:08:34Z</time>
      </trkpt>
      <trkpt lat="44.12876" lon="5.8837">
        <ele>874</ele>
        <time>2022-09-22T13:08:35Z</time>
      </trkpt>
      <trkpt lat="44.12877" lon="5.8837">
        <ele>874</ele>
        <time>2022-09-22T13:08:36Z</time>
      </trkpt>
      <trkpt lat="44.12878" lon="5.8837">
        <ele>874</ele>
        <time>2022-09-22T13:08:37Z</time>
      </trkpt>
      <trkpt lat="44.12878" lon="5.8837">
        <ele>874</ele>
        <time>2022-09-22T13:08:38Z</time>
      </trkpt>
      <trkpt lat="44.12879" lon="5.8837">
        <ele>874</ele>
        <time>2022-09-22T13:08:39Z</time>
      </trkpt>
      <trkpt lat="44.1288" lon="5.8837">
        <ele>873</ele>
        <time>2022-09-22T13:08:40Z</time>
      </trkpt>
      <trkpt lat="44.1288" lon="5.8837">
        <ele>873</ele>
        <time>2022-09-22T13:08:54Z</time>
      </trkpt>
      <trkpt lat="44.1288" lon="5.8837">
        <ele>873</ele>
        <time>2022-09-22T13:08:55Z</time>
      </trkpt>
      <trkpt lat="44.1288" lon="5.88371">
        <ele>873</ele>
        <time>2022-09-22T13:08:56Z</time>
      </trkpt>
      <trkpt lat="44.12881" lon="5.88371">
        <ele>873</ele>
        <time>2022-09-22T13:08:57Z</time>
      </trkpt>
      <trkpt lat="44.12882" lon="5.88371">
        <ele>873</ele>
        <time>2022-09-22T13:08:58Z</time>
      </trkpt>
      <trkpt lat="44.12883" lon="5.88372">
        <ele>873</ele>
        <time>2022-09-22T13:08:59Z</time>
      </trkpt>
      <trkpt lat="44.12884" lon="5.88373">
        <ele>873</ele>
        <time>2022-09-22T13:09:00Z</time>
      </trkpt>
      <trkpt lat="44.12885" lon="5.88373">
        <ele>873</ele>
        <time>2022-09-22T13:09:01Z</time>
      </trkpt>
      <trkpt lat="44.12887" lon="5.88374">
        <ele>873</ele>
        <time>2022-09-22T13:09:02Z</time>
      </trkpt>
      <trkpt lat="44.12888" lon="5.88375">
        <ele>873</ele>
        <time>2022-09-22T13:09:03Z</time>
      </trkpt>
      <trkpt lat="44.12889" lon="5.88376">
        <ele>874</ele>
        <time>2022-09-22T13:09:04Z</time>
      </trkpt>
      <trkpt lat="44.1289" lon="5.88376">
        <ele>874</ele>
        <time>2022-09-22T13:09:05Z</time>
      </trkpt>
      <trkpt lat="44.12891" lon="5.88377">
        <ele>874</ele>
        <time>2022-09-22T13:09:06Z</time>
      </trkpt>
      <trkpt lat="44.12892" lon="5.88377">
        <ele>874</ele>
        <time>2022-09-22T13:09:07Z</time>
      </trkpt>
      <trkpt lat="44.12893" lon="5.88378">
        <ele>874</ele>
        <time>2022-09-22T13:09:08Z</time>
      </trkpt>
      <trkpt lat="44.12894" lon="5.88379">
        <ele>874</ele>
        <time>2022-09-22T13:09:09Z</time>
      </trkpt>
      <trkpt lat="44.12895" lon="5.88379">
        <ele>874</ele>
        <time>2022-09-22T13:09:10Z</time>
      </trkpt>
      <trkpt lat="44.12896" lon="5.8838">
        <ele>874</ele>
        <time>2022-09-22T13:09:11Z</time>
      </trkpt>
      <trkpt lat="44.12897" lon="5.88381">
        <ele>874</ele>
        <time>2022-09-22T13:09:12Z</time>
      </trkpt>
      <trkpt lat="44.12898" lon="5.88382">
        <ele>874</ele>
        <time>2022-09-22T13:09:13Z</time>
      </trkpt>
      <trkpt lat="44.12899" lon="5.88382">
        <ele>874</ele>
        <time>2022-09-22T13:09:14Z</time>
      </trkpt>
      <trkpt lat="44.129" lon="5.88383">
        <ele>874</ele>
        <time>2022-09-22T13:09:15Z</time>
      </trkpt>
      <trkpt lat="44.12901" lon="5.88384">
        <ele>874</ele>
        <time>2022-09-22T13:09:16Z</time>
      </trkpt>
      <trkpt lat="44.12902" lon="5.88385">
        <ele>874</ele>
        <time>2022-09-22T13:09:17Z</time>
      </trkpt>
      <trkpt lat="44.12903" lon="5.88386">
        <ele>874</ele>
        <time>2022-09-22T13:09:18Z</time>
      </trkpt>
      <trkpt lat="44.12903" lon="5.88387">
        <ele>874</ele>
        <time>2022-09-22T13:09:19Z</time>
      </trkpt>
      <trkpt lat="44.12904" lon="5.88388">
        <ele>874</ele>
        <time>2022-09-22T13:09:20Z</time>
      </trkpt>
      <trkpt lat="44.12905" lon="5.88389">
        <ele>874</ele>
        <time>2022-09-22T13:09:21Z</time>
      </trkpt>
      <trkpt lat="44.12906" lon="5.8839">
        <ele>874</ele>
        <time>2022-09-22T13:09:22Z</time>
      </trkpt>
      <trkpt lat="44.12907" lon="5.8839">
        <ele>874</ele>
        <time>2022-09-22T13:09:23Z</time>
      </trkpt>
      <trkpt lat="44.12907" lon="5.88391">
        <ele>874</ele>
        <time>2022-09-22T13:09:24Z</time>
      </trkpt>
      <trkpt lat="44.12908" lon="5.88392">
        <ele>874</ele>
        <time>2022-09-22T13:09:25Z</time>
      </trkpt>
      <trkpt lat="44.12909" lon="5.88393">
        <ele>874</ele>
        <time>2022-09-22T13:09:26Z</time>
      </trkpt>
      <trkpt lat="44.12909" lon="5.88394">
        <ele>874</ele>
        <time>2022-09-22T13:09:27Z</time>
      </trkpt>
      <trkpt lat="44.1291" lon="5.88395">
        <ele>874</ele>
        <time>2022-09-22T13:09:28Z</time>
      </trkpt>
      <trkpt lat="44.12911" lon="5.88397">
        <ele>874</ele>
        <time>2022-09-22T13:09:29Z</time>
      </trkpt>
      <trkpt lat="44.12912" lon="5.88398">
        <ele>874</ele>
        <time>2022-09-22T13:09:30Z</time>
      </trkpt>
      <trkpt lat="44.12913" lon="5.88399">
        <ele>874</ele>
        <time>2022-09-22T13:09:31Z</time>
      </trkpt>
      <trkpt lat="44.12914" lon="5.88401">
        <ele>874</ele>
        <time>2022-09-22T13:09:32Z</time>
      </trkpt>
      <trkpt lat="44.12915" lon="5.88402">
        <ele>874</ele>
        <time>2022-09-22T13:09:33Z</time>
      </trkpt>
      <trkpt lat="44.12916" lon="5.88403">
        <ele>874</ele>
        <time>2022-09-22T13:09:34Z</time>
      </trkpt>
      <trkpt lat="44.12916" lon="5.88404">
        <ele>874</ele>
        <time>2022-09-22T13:09:35Z</time>
      </trkpt>
      <trkpt lat="44.12917" lon="5.88405">
        <ele>874</ele>
        <time>2022-09-22T13:09:36Z</time>
      </trkpt>
      <trkpt lat="44.12918" lon="5.88406">
        <ele>874</ele>
        <time>2022-09-22T13:09:37Z</time>
      </trkpt>
      <trkpt lat="44.12919" lon="5.88407">
        <ele>874</ele>
        <time>2022-09-22T13:09:38Z</time>
      </trkpt>
      <trkpt lat="44.1292" lon="5.88408">
        <ele>874</ele>
        <time>2022-09-22T13:09:39Z</time>
      </trkpt>
      <trkpt lat="44.12921" lon="5.88409">
        <ele>874</ele>
        <time>2022-09-22T13:09:40Z</time>
      </trkpt>
      <trkpt lat="44.12922" lon="5.88409">
        <ele>874</ele>
        <time>2022-09-22T13:09:41Z</time>
      </trkpt>
      <trkpt lat="44.12923" lon="5.8841">
        <ele>874</ele>
        <time>2022-09-22T13:09:42Z</time>
      </trkpt>
      <trkpt lat="44.12924" lon="5.88411">
        <ele>874</ele>
        <time>2022-09-22T13:09:43Z</time>
      </trkpt>
      <trkpt lat="44.12925" lon="5.88411">
        <ele>874</ele>
        <time>2022-09-22T13:09:44Z</time>
      </trkpt>
      <trkpt lat="44.12926" lon="5.88412">
        <ele>874</ele>
        <time>2022-09-22T13:09:45Z</time>
      </trkpt>
      <trkpt lat="44.12927" lon="5.88413">
        <ele>874</ele>
        <time>2022-09-22T13:09:46Z</time>
      </trkpt>
      <trkpt lat="44.12927" lon="5.88414">
        <ele>874</ele>
        <time>2022-09-22T13:09:47Z</time>
      </trkpt>
      <trkpt lat="44.12928" lon="5.88415">
        <ele>874</ele>
        <time>2022-09-22T13:09:48Z</time>
      </trkpt>
      <trkpt lat="44.12929" lon="5.88416">
        <ele>874</ele>
        <time>2022-09-22T13:09:49Z</time>
      </trkpt>
      <trkpt lat="44.1293" lon="5.88417">
        <ele>874</ele>
        <time>2022-09-22T13:09:50Z</time>
      </trkpt>
      <trkpt lat="44.12931" lon="5.88418">
        <ele>874</ele>
        <time>2022-09-22T13:09:51Z</time>
      </trkpt>
      <trkpt lat="44.12931" lon="5.88419">
        <ele>874</ele>
        <time>2022-09-22T13:09:52Z</time>
      </trkpt>
      <trkpt lat="44.12932" lon="5.8842">
        <ele>874</ele>
        <time>2022-09-22T13:09:53Z</time>
      </trkpt>
      <trkpt lat="44.12933" lon="5.88421">
        <ele>874</ele>
        <time>2022-09-22T13:09:54Z</time>
      </trkpt>
      <trkpt lat="44.12934" lon="5.88422">
        <ele>873</ele>
        <time>2022-09-22T13:09:55Z</time>
      </trkpt>
      <trkpt lat="44.12935" lon="5.88424">
        <ele>873</ele>
        <time>2022-09-22T13:09:56Z</time>
      </trkpt>
      <trkpt lat="44.12936" lon="5.88425">
        <ele>873</ele>
        <time>2022-09-22T13:09:57Z</time>
      </trkpt>
      <trkpt lat="44.12937" lon="5.88426">
        <ele>873</ele>
        <time>2022-09-22T13:09:58Z</time>
      </trkpt>
      <trkpt lat="44.12938" lon="5.88427">
        <ele>873</ele>
        <time>2022-09-22T13:09:59Z</time>
      </trkpt>
      <trkpt lat="44.12938" lon="5.88428">
        <ele>873</ele>
        <time>2022-09-22T13:10:00Z</time>
      </trkpt>
      <trkpt lat="44.12939" lon="5.88429">
        <ele>873</ele>
        <time>2022-09-22T13:10:01Z</time>
      </trkpt>
      <trkpt lat="44.1294" lon="5.88431">
        <ele>873</ele>
        <time>2022-09-22T13:10:02Z</time>
      </trkpt>
      <trkpt lat="44.12941" lon="5.88432">
        <ele>873</ele>
        <time>2022-09-22T13:10:03Z</time>
      </trkpt>
      <trkpt lat="44.12941" lon="5.88433">
        <ele>873</ele>
        <time>2022-09-22T13:10:04Z</time>
      </trkpt>
      <trkpt lat="44.12942" lon="5.88435">
        <ele>873</ele>
        <time>2022-09-22T13:10:05Z</time>
      </trkpt>
      <trkpt lat="44.12942" lon="5.88436">
        <ele>873</ele>
        <time>2022-09-22T13:10:06Z</time>
      </trkpt>
      <trkpt lat="44.12943" lon="5.88438">
        <ele>873</ele>
        <time>2022-09-22T13:10:07Z</time>
      </trkpt>
      <trkpt lat="44.12944" lon="5.88439">
        <ele>873</ele>
        <time>2022-09-22T13:10:08Z</time>
      </trkpt>
      <trkpt lat="44.12944" lon="5.88441">
        <ele>873</ele>
        <time>2022-09-22T13:10:09Z</time>
      </trkpt>
      <trkpt lat="44.12945" lon="5.88442">
        <ele>873</ele>
        <time>2022-09-22T13:10:10Z</time>
      </trkpt>
      <trkpt lat="44.12946" lon="5.88444">
        <ele>873</ele>
        <time>2022-09-22T13:10:11Z</time>
      </trkpt>
      <trkpt lat="44.12946" lon="5.88445">
        <ele>873</ele>
        <time>2022-09-22T13:10:12Z</time>
      </trkpt>
      <trkpt lat="44.12947" lon="5.88446">
        <ele>873</ele>
        <time>2022-09-22T13:10:13Z</time>
      </trkpt>
      <trkpt lat="44.12948" lon="5.88448">
        <ele>873</ele>
        <time>2022-09-22T13:10:14Z</time>
      </trkpt>
      <trkpt lat="44.12948" lon="5.88449">
        <ele>873</ele>
        <time>2022-09-22T13:10:15Z</time>
      </trkpt>
      <trkpt lat="44.12949" lon="5.88451">
        <ele>873</ele>
        <time>2022-09-22T13:10:16Z</time>
      </trkpt>
      <trkpt lat="44.12949" lon="5.88452">
        <ele>873</ele>
        <time>2022-09-22T13:10:17Z</time>
      </trkpt>
      <trkpt lat="44.1295" lon="5.88453">
        <ele>873</ele>
        <time>2022-09-22T13:10:18Z</time>
      </trkpt>
      <trkpt lat="44.1295" lon="5.88455">
        <ele>873</ele>
        <time>2022-09-22T13:10:19Z</time>
      </trkpt>
      <trkpt lat="44.12951" lon="5.88456">
        <ele>873</ele>
        <time>2022-09-22T13:10:20Z</time>
      </trkpt>
      <trkpt lat="44.12951" lon="5.88458">
        <ele>873</ele>
        <time>2022-09-22T13:10:21Z</time>
      </trkpt>
      <trkpt lat="44.12952" lon="5.88459">
        <ele>873</ele>
        <time>2022-09-22T13:10:22Z</time>
      </trkpt>
      <trkpt lat="44.12952" lon="5.88461">
        <ele>873</ele>
        <time>2022-09-22T13:10:23Z</time>
      </trkpt>
      <trkpt lat="44.12952" lon="5.88462">
        <ele>873</ele>
        <time>2022-09-22T13:10:24Z</time>
      </trkpt>
      <trkpt lat="44.12952" lon="5.88464">
        <ele>872</ele>
        <time>2022-09-22T13:10:25Z</time>
      </trkpt>
      <trkpt lat="44.12952" lon="5.88465">
        <ele>872</ele>
        <time>2022-09-22T13:10:26Z</time>
      </trkpt>
      <trkpt lat="44.12952" lon="5.88466">
        <ele>872</ele>
        <time>2022-09-22T13:10:27Z</time>
      </trkpt>
      <trkpt lat="44.12952" lon="5.88468">
        <ele>872</ele>
        <time>2022-09-22T13:10:28Z</time>
      </trkpt>
      <trkpt lat="44.12952" lon="5.88469">
        <ele>872</ele>
        <time>2022-09-22T13:10:29Z</time>
      </trkpt>
      <trkpt lat="44.12952" lon="5.88471">
        <ele>872</ele>
        <time>2022-09-22T13:10:30Z</time>
      </trkpt>
      <trkpt lat="44.12951" lon="5.88472">
        <ele>872</ele>
        <time>2022-09-22T13:10:31Z</time>
      </trkpt>
      <trkpt lat="44.12951" lon="5.88474">
        <ele>872</ele>
        <time>2022-09-22T13:10:32Z</time>
      </trkpt>
      <trkpt lat="44.12951" lon="5.88475">
        <ele>872</ele>
        <time>2022-09-22T13:10:33Z</time>
      </trkpt>
      <trkpt lat="44.12951" lon="5.88476">
        <ele>872</ele>
        <time>2022-09-22T13:10:34Z</time>
      </trkpt>
      <trkpt lat="44.12951" lon="5.88478">
        <ele>872</ele>
        <time>2022-09-22T13:10:35Z</time>
      </trkpt>
      <trkpt lat="44.12951" lon="5.88479">
        <ele>872</ele>
        <time>2022-09-22T13:10:36Z</time>
      </trkpt>
      <trkpt lat="44.12951" lon="5.88481">
        <ele>872</ele>
        <time>2022-09-22T13:10:37Z</time>
      </trkpt>
      <trkpt lat="44.12951" lon="5.88482">
        <ele>872</ele>
        <time>2022-09-22T13:10:38Z</time>
      </trkpt>
      <trkpt lat="44.12952" lon="5.88484">
        <ele>872</ele>
        <time>2022-09-22T13:10:39Z</time>
      </trkpt>
      <trkpt lat="44.12952" lon="5.88486">
        <ele>872</ele>
        <time>2022-09-22T13:10:40Z</time>
      </trkpt>
      <trkpt lat="44.12952" lon="5.88487">
        <ele>872</ele>
        <time>2022-09-22T13:10:41Z</time>
      </trkpt>
      <trkpt lat="44.12953" lon="5.88488">
        <ele>872</ele>
        <time>2022-09-22T13:10:42Z</time>
      </trkpt>
      <trkpt lat="44.12953" lon="5.8849">
        <ele>872</ele>
        <time>2022-09-22T13:10:43Z</time>
      </trkpt>
      <trkpt lat="44.12953" lon="5.88491">
        <ele>872</ele>
        <time>2022-09-22T13:10:44Z</time>
      </trkpt>
      <trkpt lat="44.12953" lon="5.88493">
        <ele>872</ele>
        <time>2022-09-22T13:10:45Z</time>
      </trkpt>
      <trkpt lat="44.12954" lon="5.88494">
        <ele>872</ele>
        <time>2022-09-22T13:10:46Z</time>
      </trkpt>
      <trkpt lat="44.12954" lon="5.88496">
        <ele>872</ele>
        <time>2022-09-22T13:10:47Z</time>
      </trkpt>
      <trkpt lat="44.12954" lon="5.88497">
        <ele>872</ele>
        <time>2022-09-22T13:10:48Z</time>
      </trkpt>
      <trkpt lat="44.12954" lon="5.88498">
        <ele>872</ele>
        <time>2022-09-22T13:10:49Z</time>
      </trkpt>
      <trkpt lat="44.12955" lon="5.885">
        <ele>871</ele>
        <time>2022-09-22T13:10:50Z</time>
      </trkpt>
      <trkpt lat="44.12955" lon="5.88501">
        <ele>871</ele>
        <time>2022-09-22T13:10:51Z</time>
      </trkpt>
      <trkpt lat="44.12955" lon="5.88502">
        <ele>871</ele>
        <time>2022-09-22T13:10:52Z</time>
      </trkpt>
      <trkpt lat="44.12956" lon="5.88504">
        <ele>871</ele>
        <time>2022-09-22T13:10:53Z</time>
      </trkpt>
      <trkpt lat="44.12956" lon="5.88505">
        <ele>871</ele>
        <time>2022-09-22T13:10:54Z</time>
      </trkpt>
      <trkpt lat="44.12957" lon="5.88507">
        <ele>871</ele>
        <time>2022-09-22T13:10:55Z</time>
      </trkpt>
      <trkpt lat="44.12957" lon="5.88508">
        <ele>871</ele>
        <time>2022-09-22T13:10:56Z</time>
      </trkpt>
      <trkpt lat="44.12957" lon="5.88509">
        <ele>871</ele>
        <time>2022-09-22T13:10:57Z</time>
      </trkpt>
      <trkpt lat="44.12957" lon="5.88511">
        <ele>871</ele>
        <time>2022-09-22T13:10:58Z</time>
      </trkpt>
      <trkpt lat="44.12958" lon="5.88512">
        <ele>871</ele>
        <time>2022-09-22T13:10:59Z</time>
      </trkpt>
      <trkpt lat="44.12958" lon="5.88513">
        <ele>871</ele>
        <time>2022-09-22T13:11:00Z</time>
      </trkpt>
      <trkpt lat="44.12959" lon="5.88514">
        <ele>871</ele>
        <time>2022-09-22T13:11:01Z</time>
      </trkpt>
      <trkpt lat="44.12959" lon="5.88515">
        <ele>871</ele>
        <time>2022-09-22T13:11:02Z</time>
      </trkpt>
      <trkpt lat="44.1296" lon="5.88516">
        <ele>871</ele>
        <time>2022-09-22T13:11:03Z</time>
      </trkpt>
      <trkpt lat="44.1296" lon="5.88517">
        <ele>871</ele>
        <time>2022-09-22T13:11:04Z</time>
      </trkpt>
      <trkpt lat="44.1296" lon="5.88519">
        <ele>870</ele>
        <time>2022-09-22T13:11:05Z</time>
      </trkpt>
      <trkpt lat="44.12961" lon="5.8852">
        <ele>870</ele>
        <time>2022-09-22T13:11:06Z</time>
      </trkpt>
      <trkpt lat="44.12961" lon="5.88522">
        <ele>870</ele>
        <time>2022-09-22T13:11:17Z</time>
      </trkpt>
      <trkpt lat="44.12961" lon="5.88523">
        <ele>870</ele>
        <time>2022-09-22T13:11:18Z</time>
      </trkpt>
      <trkpt lat="44.12962" lon="5.88524">
        <ele>870</ele>
        <time>2022-09-22T13:11:19Z</time>
      </trkpt>
      <trkpt lat="44.12962" lon="5.88524">
        <ele>870</ele>
        <time>2022-09-22T13:11:20Z</time>
      </trkpt>
      <trkpt lat="44.12962" lon="5.88525">
        <ele>870</ele>
        <time>2022-09-22T13:11:21Z</time>
      </trkpt>
      <trkpt lat="44.12963" lon="5.88526">
        <ele>870</ele>
        <time>2022-09-22T13:11:22Z</time>
      </trkpt>
      <trkpt lat="44.12963" lon="5.88527">
        <ele>870</ele>
        <time>2022-09-22T13:11:23Z</time>
      </trkpt>
      <trkpt lat="44.12963" lon="5.88528">
        <ele>871</ele>
        <time>2022-09-22T13:11:24Z</time>
      </trkpt>
      <trkpt lat="44.12963" lon="5.88528">
        <ele>870</ele>
        <time>2022-09-22T13:11:25Z</time>
      </trkpt>
      <trkpt lat="44.12963" lon="5.88529">
        <ele>870</ele>
        <time>2022-09-22T13:11:26Z</time>
      </trkpt>
      <trkpt lat="44.12962" lon="5.8853">
        <ele>870</ele>
        <time>2022-09-22T13:11:27Z</time>
      </trkpt>
      <trkpt lat="44.12962" lon="5.88531">
        <ele>870</ele>
        <time>2022-09-22T13:11:28Z</time>
      </trkpt>
      <trkpt lat="44.12961" lon="5.88532">
        <ele>870</ele>
        <time>2022-09-22T13:11:29Z</time>
      </trkpt>
      <trkpt lat="44.12961" lon="5.88532">
        <ele>870</ele>
        <time>2022-09-22T13:11:30Z</time>
      </trkpt>
      <trkpt lat="44.12961" lon="5.88533">
        <ele>870</ele>
        <time>2022-09-22T13:11:31Z</time>
      </trkpt>
      <trkpt lat="44.12961" lon="5.88534">
        <ele>870</ele>
        <time>2022-09-22T13:11:32Z</time>
      </trkpt>
      <trkpt lat="44.1296" lon="5.88535">
        <ele>870</ele>
        <time>2022-09-22T13:11:33Z</time>
      </trkpt>
      <trkpt lat="44.1296" lon="5.88536">
        <ele>870</ele>
        <time>2022-09-22T13:11:34Z</time>
      </trkpt>
      <trkpt lat="44.1296" lon="5.88537">
        <ele>870</ele>
        <time>2022-09-22T13:11:35Z</time>
      </trkpt>
      <trkpt lat="44.12959" lon="5.88538">
        <ele>870</ele>
        <time>2022-09-22T13:11:36Z</time>
      </trkpt>
      <trkpt lat="44.12959" lon="5.8854">
        <ele>870</ele>
        <time>2022-09-22T13:11:37Z</time>
      </trkpt>
      <trkpt lat="44.12959" lon="5.88541">
        <ele>870</ele>
        <time>2022-09-22T13:11:38Z</time>
      </trkpt>
      <trkpt lat="44.12959" lon="5.88542">
        <ele>870</ele>
        <time>2022-09-22T13:11:39Z</time>
      </trkpt>
      <trkpt lat="44.12959" lon="5.88544">
        <ele>870</ele>
        <time>2022-09-22T13:11:40Z</time>
      </trkpt>
      <trkpt lat="44.12958" lon="5.88545">
        <ele>870</ele>
        <time>2022-09-22T13:11:41Z</time>
      </trkpt>
      <trkpt lat="44.12958" lon="5.88546">
        <ele>870</ele>
        <time>2022-09-22T13:11:42Z</time>
      </trkpt>
      <trkpt lat="44.12958" lon="5.88547">
        <ele>870</ele>
        <time>2022-09-22T13:11:43Z</time>
      </trkpt>
      <trkpt lat="44.12957" lon="5.88549">
        <ele>870</ele>
        <time>2022-09-22T13:11:44Z</time>
      </trkpt>
      <trkpt lat="44.12957" lon="5.8855">
        <ele>869</ele>
        <time>2022-09-22T13:11:45Z</time>
      </trkpt>
      <trkpt lat="44.12956" lon="5.88551">
        <ele>869</ele>
        <time>2022-09-22T13:11:46Z</time>
      </trkpt>
      <trkpt lat="44.12956" lon="5.88552">
        <ele>869</ele>
        <time>2022-09-22T13:11:47Z</time>
      </trkpt>
      <trkpt lat="44.12956" lon="5.88553">
        <ele>869</ele>
        <time>2022-09-22T13:11:48Z</time>
      </trkpt>
      <trkpt lat="44.12956" lon="5.88555">
        <ele>869</ele>
        <time>2022-09-22T13:11:49Z</time>
      </trkpt>
      <trkpt lat="44.12956" lon="5.88556">
        <ele>869</ele>
        <time>2022-09-22T13:11:50Z</time>
      </trkpt>
      <trkpt lat="44.12956" lon="5.88557">
        <ele>869</ele>
        <time>2022-09-22T13:11:51Z</time>
      </trkpt>
      <trkpt lat="44.12956" lon="5.88559">
        <ele>869</ele>
        <time>2022-09-22T13:11:52Z</time>
      </trkpt>
      <trkpt lat="44.12956" lon="5.8856">
        <ele>869</ele>
        <time>2022-09-22T13:11:53Z</time>
      </trkpt>
      <trkpt lat="44.12956" lon="5.88562">
        <ele>869</ele>
        <time>2022-09-22T13:11:54Z</time>
      </trkpt>
      <trkpt lat="44.12956" lon="5.88563">
        <ele>869</ele>
        <time>2022-09-22T13:11:55Z</time>
      </trkpt>
      <trkpt lat="44.12955" lon="5.88564">
        <ele>869</ele>
        <time>2022-09-22T13:11:56Z</time>
      </trkpt>
      <trkpt lat="44.12955" lon="5.88566">
        <ele>869</ele>
        <time>2022-09-22T13:11:57Z</time>
      </trkpt>
      <trkpt lat="44.12955" lon="5.88567">
        <ele>869</ele>
        <time>2022-09-22T13:11:58Z</time>
      </trkpt>
      <trkpt lat="44.12955" lon="5.88568">
        <ele>869</ele>
        <time>2022-09-22T13:11:59Z</time>
      </trkpt>
      <trkpt lat="44.12955" lon="5.8857">
        <ele>868</ele>
        <time>2022-09-22T13:12:00Z</time>
      </trkpt>
      <trkpt lat="44.12955" lon="5.88571">
        <ele>868</ele>
        <time>2022-09-22T13:12:01Z</time>
      </trkpt>
      <trkpt lat="44.12955" lon="5.88573">
        <ele>868</ele>
        <time>2022-09-22T13:12:02Z</time>
      </trkpt>
      <trkpt lat="44.12955" lon="5.88574">
        <ele>868</ele>
        <time>2022-09-22T13:12:03Z</time>
      </trkpt>
      <trkpt lat="44.12955" lon="5.88576">
        <ele>868</ele>
        <time>2022-09-22T13:12:04Z</time>
      </trkpt>
      <trkpt lat="44.12955" lon="5.88577">
        <ele>868</ele>
        <time>2022-09-22T13:12:05Z</time>
      </trkpt>
      <trkpt lat="44.12955" lon="5.88579">
        <ele>868</ele>
        <time>2022-09-22T13:12:06Z</time>
      </trkpt>
      <trkpt lat="44.12954" lon="5.8858">
        <ele>868</ele>
        <time>2022-09-22T13:12:07Z</time>
      </trkpt>
      <trkpt lat="44.12954" lon="5.88581">
        <ele>868</ele>
        <time>2022-09-22T13:12:08Z</time>
      </trkpt>
      <trkpt lat="44.12954" lon="5.88583">
        <ele>868</ele>
        <time>2022-09-22T13:12:09Z</time>
      </trkpt>
      <trkpt lat="44.12954" lon="5.88584">
        <ele>867</ele>
        <time>2022-09-22T13:12:10Z</time>
      </trkpt>
      <trkpt lat="44.12954" lon="5.88585">
        <ele>867</ele>
        <time>2022-09-22T13:12:11Z</time>
      </trkpt>
      <trkpt lat="44.12953" lon="5.88587">
        <ele>867</ele>
        <time>2022-09-22T13:12:12Z</time>
      </trkpt>
      <trkpt lat="44.12953" lon="5.88588">
        <ele>867</ele>
        <time>2022-09-22T13:12:13Z</time>
      </trkpt>
      <trkpt lat="44.12953" lon="5.88589">
        <ele>867</ele>
        <time>2022-09-22T13:12:14Z</time>
      </trkpt>
      <trkpt lat="44.12953" lon="5.88591">
        <ele>867</ele>
        <time>2022-09-22T13:12:15Z</time>
      </trkpt>
      <trkpt lat="44.12953" lon="5.88592">
        <ele>867</ele>
        <time>2022-09-22T13:12:16Z</time>
      </trkpt>
      <trkpt lat="44.12953" lon="5.88594">
        <ele>867</ele>
        <time>2022-09-22T13:12:17Z</time>
      </trkpt>
      <trkpt lat="44.12953" lon="5.88595">
        <ele>867</ele>
        <time>2022-09-22T13:12:18Z</time>
      </trkpt>
      <trkpt lat="44.12953" lon="5.88596">
        <ele>867</ele>
        <time>2022-09-22T13:12:19Z</time>
      </trkpt>
      <trkpt lat="44.12953" lon="5.88598">
        <ele>866</ele>
        <time>2022-09-22T13:12:20Z</time>
      </trkpt>
      <trkpt lat="44.12953" lon="5.88599">
        <ele>866</ele>
        <time>2022-09-22T13:12:21Z</time>
      </trkpt>
      <trkpt lat="44.12953" lon="5.886">
        <ele>866</ele>
        <time>2022-09-22T13:12:22Z</time>
      </trkpt>
      <trkpt lat="44.12952" lon="5.88601">
        <ele>866</ele>
        <time>2022-09-22T13:12:23Z</time>
      </trkpt>
      <trkpt lat="44.12952" lon="5.88603">
        <ele>866</ele>
        <time>2022-09-22T13:12:24Z</time>
      </trkpt>
      <trkpt lat="44.12952" lon="5.88604">
        <ele>865</ele>
        <time>2022-09-22T13:12:25Z</time>
      </trkpt>
      <trkpt lat="44.12951" lon="5.88605">
        <ele>865</ele>
        <time>2022-09-22T13:12:26Z</time>
      </trkpt>
      <trkpt lat="44.12951" lon="5.88606">
        <ele>865</ele>
        <time>2022-09-22T13:12:27Z</time>
      </trkpt>
      <trkpt lat="44.12951" lon="5.88607">
        <ele>865</ele>
        <time>2022-09-22T13:12:28Z</time>
      </trkpt>
      <trkpt lat="44.12951" lon="5.88608">
        <ele>865</ele>
        <time>2022-09-22T13:12:29Z</time>
      </trkpt>
      <trkpt lat="44.12951" lon="5.8861">
        <ele>865</ele>
        <time>2022-09-22T13:12:30Z</time>
      </trkpt>
      <trkpt lat="44.12951" lon="5.88611">
        <ele>865</ele>
        <time>2022-09-22T13:12:31Z</time>
      </trkpt>
      <trkpt lat="44.12951" lon="5.88612">
        <ele>865</ele>
        <time>2022-09-22T13:12:32Z</time>
      </trkpt>
      <trkpt lat="44.12951" lon="5.88614">
        <ele>865</ele>
        <time>2022-09-22T13:12:33Z</time>
      </trkpt>
      <trkpt lat="44.12951" lon="5.88615">
        <ele>865</ele>
        <time>2022-09-22T13:12:34Z</time>
      </trkpt>
      <trkpt lat="44.12951" lon="5.88617">
        <ele>864</ele>
        <time>2022-09-22T13:12:35Z</time>
      </trkpt>
      <trkpt lat="44.12952" lon="5.88618">
        <ele>864</ele>
        <time>2022-09-22T13:12:36Z</time>
      </trkpt>
      <trkpt lat="44.12952" lon="5.8862">
        <ele>864</ele>
        <time>2022-09-22T13:12:37Z</time>
      </trkpt>
      <trkpt lat="44.12952" lon="5.88622">
        <ele>864</ele>
        <time>2022-09-22T13:12:38Z</time>
      </trkpt>
      <trkpt lat="44.12952" lon="5.88624">
        <ele>864</ele>
        <time>2022-09-22T13:12:39Z</time>
      </trkpt>
      <trkpt lat="44.12952" lon="5.88625">
        <ele>864</ele>
        <time>2022-09-22T13:12:40Z</time>
      </trkpt>
      <trkpt lat="44.12952" lon="5.88627">
        <ele>864</ele>
        <time>2022-09-22T13:12:41Z</time>
      </trkpt>
      <trkpt lat="44.12952" lon="5.88628">
        <ele>864</ele>
        <time>2022-09-22T13:12:42Z</time>
      </trkpt>
      <trkpt lat="44.12952" lon="5.8863">
        <ele>864</ele>
        <time>2022-09-22T13:12:43Z</time>
      </trkpt>
      <trkpt lat="44.12953" lon="5.88631">
        <ele>864</ele>
        <time>2022-09-22T13:12:44Z</time>
      </trkpt>
      <trkpt lat="44.12953" lon="5.88633">
        <ele>863</ele>
        <time>2022-09-22T13:12:45Z</time>
      </trkpt>
      <trkpt lat="44.12953" lon="5.88634">
        <ele>863</ele>
        <time>2022-09-22T13:12:46Z</time>
      </trkpt>
      <trkpt lat="44.12954" lon="5.88636">
        <ele>863</ele>
        <time>2022-09-22T13:12:47Z</time>
      </trkpt>
      <trkpt lat="44.12954" lon="5.88637">
        <ele>863</ele>
        <time>2022-09-22T13:12:48Z</time>
      </trkpt>
      <trkpt lat="44.12954" lon="5.88638">
        <ele>863</ele>
        <time>2022-09-22T13:12:49Z</time>
      </trkpt>
      <trkpt lat="44.12954" lon="5.8864">
        <ele>863</ele>
        <time>2022-09-22T13:12:50Z</time>
      </trkpt>
      <trkpt lat="44.12954" lon="5.88641">
        <ele>863</ele>
        <time>2022-09-22T13:12:51Z</time>
      </trkpt>
      <trkpt lat="44.12954" lon="5.88642">
        <ele>863</ele>
        <time>2022-09-22T13:12:52Z</time>
      </trkpt>
      <trkpt lat="44.12955" lon="5.88644">
        <ele>863</ele>
        <time>2022-09-22T13:12:53Z</time>
      </trkpt>
      <trkpt lat="44.12955" lon="5.88645">
        <ele>863</ele>
        <time>2022-09-22T13:12:54Z</time>
      </trkpt>
      <trkpt lat="44.12955" lon="5.88647">
        <ele>862</ele>
        <time>2022-09-22T13:12:55Z</time>
      </trkpt>
      <trkpt lat="44.12955" lon="5.88649">
        <ele>862</ele>
        <time>2022-09-22T13:12:56Z</time>
      </trkpt>
      <trkpt lat="44.12955" lon="5.8865">
        <ele>862</ele>
        <time>2022-09-22T13:12:57Z</time>
      </trkpt>
      <trkpt lat="44.12955" lon="5.88652">
        <ele>862</ele>
        <time>2022-09-22T13:12:58Z</time>
      </trkpt>
      <trkpt lat="44.12955" lon="5.88653">
        <ele>862</ele>
        <time>2022-09-22T13:12:59Z</time>
      </trkpt>
      <trkpt lat="44.12955" lon="5.88655">
        <ele>862</ele>
        <time>2022-09-22T13:13:00Z</time>
      </trkpt>
      <trkpt lat="44.12955" lon="5.88656">
        <ele>862</ele>
        <time>2022-09-22T13:13:01Z</time>
      </trkpt>
      <trkpt lat="44.12955" lon="5.88658">
        <ele>862</ele>
        <time>2022-09-22T13:13:02Z</time>
      </trkpt>
      <trkpt lat="44.12955" lon="5.88659">
        <ele>862</ele>
        <time>2022-09-22T13:13:03Z</time>
      </trkpt>
      <trkpt lat="44.12955" lon="5.88661">
        <ele>862</ele>
        <time>2022-09-22T13:13:04Z</time>
      </trkpt>
      <trkpt lat="44.12956" lon="5.88662">
        <ele>861</ele>
        <time>2022-09-22T13:13:05Z</time>
      </trkpt>
      <trkpt lat="44.12956" lon="5.88663">
        <ele>861</ele>
        <time>2022-09-22T13:13:06Z</time>
      </trkpt>
      <trkpt lat="44.12956" lon="5.88665">
        <ele>861</ele>
        <time>2022-09-22T13:13:07Z</time>
      </trkpt>
      <trkpt lat="44.12956" lon="5.88666">
        <ele>861</ele>
        <time>2022-09-22T13:13:08Z</time>
      </trkpt>
      <trkpt lat="44.12956" lon="5.88667">
        <ele>861</ele>
        <time>2022-09-22T13:13:09Z</time>
      </trkpt>
      <trkpt lat="44.12956" lon="5.88668">
        <ele>861</ele>
        <time>2022-09-22T13:13:10Z</time>
      </trkpt>
      <trkpt lat="44.12956" lon="5.8867">
        <ele>861</ele>
        <time>2022-09-22T13:13:11Z</time>
      </trkpt>
      <trkpt lat="44.12957" lon="5.88671">
        <ele>861</ele>
        <time>2022-09-22T13:13:12Z</time>
      </trkpt>
      <trkpt lat="44.12957" lon="5.88672">
        <ele>861</ele>
        <time>2022-09-22T13:13:13Z</time>
      </trkpt>
      <trkpt lat="44.12957" lon="5.88674">
        <ele>861</ele>
        <time>2022-09-22T13:13:14Z</time>
      </trkpt>
      <trkpt lat="44.12958" lon="5.88675">
        <ele>860</ele>
        <time>2022-09-22T13:13:15Z</time>
      </trkpt>
      <trkpt lat="44.12958" lon="5.88676">
        <ele>860</ele>
        <time>2022-09-22T13:13:16Z</time>
      </trkpt>
      <trkpt lat="44.12958" lon="5.88678">
        <ele>860</ele>
        <time>2022-09-22T13:13:17Z</time>
      </trkpt>
      <trkpt lat="44.12959" lon="5.88679">
        <ele>860</ele>
        <time>2022-09-22T13:13:18Z</time>
      </trkpt>
      <trkpt lat="44.12959" lon="5.88681">
        <ele>860</ele>
        <time>2022-09-22T13:13:19Z</time>
      </trkpt>
      <trkpt lat="44.1296" lon="5.88682">
        <ele>860</ele>
        <time>2022-09-22T13:13:20Z</time>
      </trkpt>
      <trkpt lat="44.1296" lon="5.88684">
        <ele>860</ele>
        <time>2022-09-22T13:13:21Z</time>
      </trkpt>
      <trkpt lat="44.12961" lon="5.88685">
        <ele>860</ele>
        <time>2022-09-22T13:13:22Z</time>
      </trkpt>
      <trkpt lat="44.12961" lon="5.88686">
        <ele>860</ele>
        <time>2022-09-22T13:13:23Z</time>
      </trkpt>
      <trkpt lat="44.12961" lon="5.88688">
        <ele>860</ele>
        <time>2022-09-22T13:13:24Z</time>
      </trkpt>
      <trkpt lat="44.12961" lon="5.88689">
        <ele>859</ele>
        <time>2022-09-22T13:13:25Z</time>
      </trkpt>
      <trkpt lat="44.12961" lon="5.8869">
        <ele>859</ele>
        <time>2022-09-22T13:13:26Z</time>
      </trkpt>
      <trkpt lat="44.12961" lon="5.88691">
        <ele>859</ele>
        <time>2022-09-22T13:13:27Z</time>
      </trkpt>
      <trkpt lat="44.12961" lon="5.88693">
        <ele>859</ele>
        <time>2022-09-22T13:13:28Z</time>
      </trkpt>
      <trkpt lat="44.12962" lon="5.88694">
        <ele>859</ele>
        <time>2022-09-22T13:13:29Z</time>
      </trkpt>
      <trkpt lat="44.12962" lon="5.88695">
        <ele>859</ele>
        <time>2022-09-22T13:13:30Z</time>
      </trkpt>
      <trkpt lat="44.12962" lon="5.88696">
        <ele>859</ele>
        <time>2022-09-22T13:13:31Z</time>
      </trkpt>
      <trkpt lat="44.12962" lon="5.88698">
        <ele>859</ele>
        <time>2022-09-22T13:13:32Z</time>
      </trkpt>
      <trkpt lat="44.12962" lon="5.88699">
        <ele>859</ele>
        <time>2022-09-22T13:13:33Z</time>
      </trkpt>
      <trkpt lat="44.12962" lon="5.88701">
        <ele>859</ele>
        <time>2022-09-22T13:13:34Z</time>
      </trkpt>
      <trkpt lat="44.12961" lon="5.88702">
        <ele>859</ele>
        <time>2022-09-22T13:13:35Z</time>
      </trkpt>
      <trkpt lat="44.12961" lon="5.88704">
        <ele>859</ele>
        <time>2022-09-22T13:13:36Z</time>
      </trkpt>
      <trkpt lat="44.12961" lon="5.88705">
        <ele>859</ele>
        <time>2022-09-22T13:13:37Z</time>
      </trkpt>
      <trkpt lat="44.12961" lon="5.88707">
        <ele>859</ele>
        <time>2022-09-22T13:13:38Z</time>
      </trkpt>
      <trkpt lat="44.12962" lon="5.88708">
        <ele>859</ele>
        <time>2022-09-22T13:13:39Z</time>
      </trkpt>
      <trkpt lat="44.12962" lon="5.8871">
        <ele>858</ele>
        <time>2022-09-22T13:13:40Z</time>
      </trkpt>
      <trkpt lat="44.12962" lon="5.88711">
        <ele>858</ele>
        <time>2022-09-22T13:13:41Z</time>
      </trkpt>
      <trkpt lat="44.12963" lon="5.88713">
        <ele>858</ele>
        <time>2022-09-22T13:13:42Z</time>
      </trkpt>
      <trkpt lat="44.12963" lon="5.88714">
        <ele>858</ele>
        <time>2022-09-22T13:13:43Z</time>
      </trkpt>
      <trkpt lat="44.12963" lon="5.88716">
        <ele>858</ele>
        <time>2022-09-22T13:13:44Z</time>
      </trkpt>
      <trkpt lat="44.12963" lon="5.88717">
        <ele>858</ele>
        <time>2022-09-22T13:13:45Z</time>
      </trkpt>
      <trkpt lat="44.12963" lon="5.88719">
        <ele>858</ele>
        <time>2022-09-22T13:13:46Z</time>
      </trkpt>
      <trkpt lat="44.12962" lon="5.8872">
        <ele>858</ele>
        <time>2022-09-22T13:13:47Z</time>
      </trkpt>
      <trkpt lat="44.12962" lon="5.88722">
        <ele>858</ele>
        <time>2022-09-22T13:13:48Z</time>
      </trkpt>
      <trkpt lat="44.12963" lon="5.88723">
        <ele>858</ele>
        <time>2022-09-22T13:13:49Z</time>
      </trkpt>
      <trkpt lat="44.12963" lon="5.88724">
        <ele>857</ele>
        <time>2022-09-22T13:13:50Z</time>
      </trkpt>
      <trkpt lat="44.12963" lon="5.88725">
        <ele>857</ele>
        <time>2022-09-22T13:13:51Z</time>
      </trkpt>
      <trkpt lat="44.12964" lon="5.88726">
        <ele>857</ele>
        <time>2022-09-22T13:13:52Z</time>
      </trkpt>
      <trkpt lat="44.12964" lon="5.88727">
        <ele>857</ele>
        <time>2022-09-22T13:13:53Z</time>
      </trkpt>
      <trkpt lat="44.12965" lon="5.88728">
        <ele>857</ele>
        <time>2022-09-22T13:13:54Z</time>
      </trkpt>
      <trkpt lat="44.12965" lon="5.8873">
        <ele>857</ele>
        <time>2022-09-22T13:13:55Z</time>
      </trkpt>
      <trkpt lat="44.12966" lon="5.88731">
        <ele>857</ele>
        <time>2022-09-22T13:13:56Z</time>
      </trkpt>
      <trkpt lat="44.12966" lon="5.88733">
        <ele>857</ele>
        <time>2022-09-22T13:13:57Z</time>
      </trkpt>
      <trkpt lat="44.12966" lon="5.88734">
        <ele>857</ele>
        <time>2022-09-22T13:13:58Z</time>
      </trkpt>
      <trkpt lat="44.12967" lon="5.88736">
        <ele>857</ele>
        <time>2022-09-22T13:13:59Z</time>
      </trkpt>
      <trkpt lat="44.12967" lon="5.88737">
        <ele>856</ele>
        <time>2022-09-22T13:14:00Z</time>
      </trkpt>
      <trkpt lat="44.12968" lon="5.88739">
        <ele>856</ele>
        <time>2022-09-22T13:14:01Z</time>
      </trkpt>
      <trkpt lat="44.12969" lon="5.88741">
        <ele>856</ele>
        <time>2022-09-22T13:14:02Z</time>
      </trkpt>
      <trkpt lat="44.12969" lon="5.88742">
        <ele>856</ele>
        <time>2022-09-22T13:14:03Z</time>
      </trkpt>
      <trkpt lat="44.1297" lon="5.88744">
        <ele>856</ele>
        <time>2022-09-22T13:14:04Z</time>
      </trkpt>
      <trkpt lat="44.12971" lon="5.88745">
        <ele>856</ele>
        <time>2022-09-22T13:14:05Z</time>
      </trkpt>
      <trkpt lat="44.12971" lon="5.88747">
        <ele>856</ele>
        <time>2022-09-22T13:14:06Z</time>
      </trkpt>
      <trkpt lat="44.12972" lon="5.88748">
        <ele>856</ele>
        <time>2022-09-22T13:14:07Z</time>
      </trkpt>
      <trkpt lat="44.12973" lon="5.88749">
        <ele>856</ele>
        <time>2022-09-22T13:14:08Z</time>
      </trkpt>
      <trkpt lat="44.12973" lon="5.8875">
        <ele>856</ele>
        <time>2022-09-22T13:14:09Z</time>
      </trkpt>
      <trkpt lat="44.12974" lon="5.88751">
        <ele>855</ele>
        <time>2022-09-22T13:14:10Z</time>
      </trkpt>
      <trkpt lat="44.12974" lon="5.88753">
        <ele>855</ele>
        <time>2022-09-22T13:14:11Z</time>
      </trkpt>
      <trkpt lat="44.12975" lon="5.88754">
        <ele>855</ele>
        <time>2022-09-22T13:14:12Z</time>
      </trkpt>
      <trkpt lat="44.12975" lon="5.88755">
        <ele>855</ele>
        <time>2022-09-22T13:14:13Z</time>
      </trkpt>
      <trkpt lat="44.12976" lon="5.88757">
        <ele>855</ele>
        <time>2022-09-22T13:14:14Z</time>
      </trkpt>
      <trkpt lat="44.12976" lon="5.88758">
        <ele>854</ele>
        <time>2022-09-22T13:14:15Z</time>
      </trkpt>
      <trkpt lat="44.12977" lon="5.88759">
        <ele>854</ele>
        <time>2022-09-22T13:14:16Z</time>
      </trkpt>
      <trkpt lat="44.12977" lon="5.8876">
        <ele>854</ele>
        <time>2022-09-22T13:14:17Z</time>
      </trkpt>
      <trkpt lat="44.12978" lon="5.88762">
        <ele>854</ele>
        <time>2022-09-22T13:14:18Z</time>
      </trkpt>
      <trkpt lat="44.12978" lon="5.88763">
        <ele>854</ele>
        <time>2022-09-22T13:14:19Z</time>
      </trkpt>
      <trkpt lat="44.12979" lon="5.88764">
        <ele>854</ele>
        <time>2022-09-22T13:14:20Z</time>
      </trkpt>
      <trkpt lat="44.1298" lon="5.88765">
        <ele>854</ele>
        <time>2022-09-22T13:14:21Z</time>
      </trkpt>
      <trkpt lat="44.1298" lon="5.88767">
        <ele>854</ele>
        <time>2022-09-22T13:14:22Z</time>
      </trkpt>
      <trkpt lat="44.12981" lon="5.88768">
        <ele>854</ele>
        <time>2022-09-22T13:14:23Z</time>
      </trkpt>
      <trkpt lat="44.12982" lon="5.88769">
        <ele>854</ele>
        <time>2022-09-22T13:14:24Z</time>
      </trkpt>
      <trkpt lat="44.12982" lon="5.8877">
        <ele>854</ele>
        <time>2022-09-22T13:14:25Z</time>
      </trkpt>
      <trkpt lat="44.12983" lon="5.88772">
        <ele>854</ele>
        <time>2022-09-22T13:14:26Z</time>
      </trkpt>
      <trkpt lat="44.12983" lon="5.88773">
        <ele>854</ele>
        <time>2022-09-22T13:14:27Z</time>
      </trkpt>
      <trkpt lat="44.12984" lon="5.88774">
        <ele>854</ele>
        <time>2022-09-22T13:14:28Z</time>
      </trkpt>
      <trkpt lat="44.12985" lon="5.88775">
        <ele>854</ele>
        <time>2022-09-22T13:14:29Z</time>
      </trkpt>
      <trkpt lat="44.12985" lon="5.88777">
        <ele>854</ele>
        <time>2022-09-22T13:14:30Z</time>
      </trkpt>
      <trkpt lat="44.12986" lon="5.88777">
        <ele>854</ele>
        <time>2022-09-22T13:14:31Z</time>
      </trkpt>
      <trkpt lat="44.12987" lon="5.88778">
        <ele>854</ele>
        <time>2022-09-22T13:14:32Z</time>
      </trkpt>
      <trkpt lat="44.12988" lon="5.88779">
        <ele>854</ele>
        <time>2022-09-22T13:14:33Z</time>
      </trkpt>
      <trkpt lat="44.12988" lon="5.8878">
        <ele>854</ele>
        <time>2022-09-22T13:14:34Z</time>
      </trkpt>
      <trkpt lat="44.12989" lon="5.88781">
        <ele>853</ele>
        <time>2022-09-22T13:14:35Z</time>
      </trkpt>
      <trkpt lat="44.1299" lon="5.88782">
        <ele>853</ele>
        <time>2022-09-22T13:14:36Z</time>
      </trkpt>
      <trkpt lat="44.12991" lon="5.88783">
        <ele>853</ele>
        <time>2022-09-22T13:14:37Z</time>
      </trkpt>
      <trkpt lat="44.12992" lon="5.88784">
        <ele>853</ele>
        <time>2022-09-22T13:14:38Z</time>
      </trkpt>
      <trkpt lat="44.12993" lon="5.88785">
        <ele>853</ele>
        <time>2022-09-22T13:14:39Z</time>
      </trkpt>
      <trkpt lat="44.12994" lon="5.88785">
        <ele>852</ele>
        <time>2022-09-22T13:14:40Z</time>
      </trkpt>
      <trkpt lat="44.12994" lon="5.88786">
        <ele>852</ele>
        <time>2022-09-22T13:14:41Z</time>
      </trkpt>
      <trkpt lat="44.12995" lon="5.88786">
        <ele>852</ele>
        <time>2022-09-22T13:14:42Z</time>
      </trkpt>
      <trkpt lat="44.12996" lon="5.88787">
        <ele>852</ele>
        <time>2022-09-22T13:14:43Z</time>
      </trkpt>
      <trkpt lat="44.12997" lon="5.88787">
        <ele>852</ele>
        <time>2022-09-22T13:14:44Z</time>
      </trkpt>
      <trkpt lat="44.12998" lon="5.88788">
        <ele>852</ele>
        <time>2022-09-22T13:14:45Z</time>
      </trkpt>
      <trkpt lat="44.12999" lon="5.88788">
        <ele>852</ele>
        <time>2022-09-22T13:14:46Z</time>
      </trkpt>
      <trkpt lat="44.12999" lon="5.88789">
        <ele>852</ele>
        <time>2022-09-22T13:14:47Z</time>
      </trkpt>
      <trkpt lat="44.13" lon="5.88789">
        <ele>852</ele>
        <time>2022-09-22T13:14:48Z</time>
      </trkpt>
      <trkpt lat="44.13001" lon="5.88789">
        <ele>852</ele>
        <time>2022-09-22T13:14:49Z</time>
      </trkpt>
      <trkpt lat="44.13002" lon="5.88789">
        <ele>851</ele>
        <time>2022-09-22T13:14:50Z</time>
      </trkpt>
      <trkpt lat="44.13003" lon="5.8879">
        <ele>851</ele>
        <time>2022-09-22T13:14:51Z</time>
      </trkpt>
      <trkpt lat="44.13004" lon="5.8879">
        <ele>851</ele>
        <time>2022-09-22T13:14:52Z</time>
      </trkpt>
      <trkpt lat="44.13004" lon="5.8879">
        <ele>851</ele>
        <time>2022-09-22T13:14:53Z</time>
      </trkpt>
      <trkpt lat="44.13005" lon="5.88791">
        <ele>851</ele>
        <time>2022-09-22T13:14:54Z</time>
      </trkpt>
      <trkpt lat="44.13006" lon="5.88792">
        <ele>850</ele>
        <time>2022-09-22T13:14:55Z</time>
      </trkpt>
      <trkpt lat="44.13007" lon="5.88793">
        <ele>850</ele>
        <time>2022-09-22T13:14:56Z</time>
      </trkpt>
      <trkpt lat="44.13008" lon="5.88794">
        <ele>850</ele>
        <time>2022-09-22T13:14:57Z</time>
      </trkpt>
      <trkpt lat="44.13009" lon="5.88795">
        <ele>850</ele>
        <time>2022-09-22T13:14:58Z</time>
      </trkpt>
      <trkpt lat="44.1301" lon="5.88796">
        <ele>850</ele>
        <time>2022-09-22T13:14:59Z</time>
      </trkpt>
      <trkpt lat="44.1301" lon="5.88797">
        <ele>850</ele>
        <time>2022-09-22T13:15:00Z</time>
      </trkpt>
      <trkpt lat="44.13011" lon="5.88798">
        <ele>850</ele>
        <time>2022-09-22T13:15:01Z</time>
      </trkpt>
      <trkpt lat="44.13012" lon="5.888">
        <ele>850</ele>
        <time>2022-09-22T13:15:02Z</time>
      </trkpt>
      <trkpt lat="44.13012" lon="5.88801">
        <ele>850</ele>
        <time>2022-09-22T13:15:03Z</time>
      </trkpt>
      <trkpt lat="44.13013" lon="5.88802">
        <ele>850</ele>
        <time>2022-09-22T13:15:04Z</time>
      </trkpt>
      <trkpt lat="44.13014" lon="5.88803">
        <ele>849</ele>
        <time>2022-09-22T13:15:05Z</time>
      </trkpt>
      <trkpt lat="44.13014" lon="5.88804">
        <ele>849</ele>
        <time>2022-09-22T13:15:06Z</time>
      </trkpt>
      <trkpt lat="44.13015" lon="5.88806">
        <ele>849</ele>
        <time>2022-09-22T13:15:07Z</time>
      </trkpt>
      <trkpt lat="44.13015" lon="5.88807">
        <ele>849</ele>
        <time>2022-09-22T13:15:08Z</time>
      </trkpt>
      <trkpt lat="44.13016" lon="5.88808">
        <ele>849</ele>
        <time>2022-09-22T13:15:09Z</time>
      </trkpt>
      <trkpt lat="44.13016" lon="5.88809">
        <ele>848</ele>
        <time>2022-09-22T13:15:10Z</time>
      </trkpt>
      <trkpt lat="44.13017" lon="5.88811">
        <ele>848</ele>
        <time>2022-09-22T13:15:11Z</time>
      </trkpt>
      <trkpt lat="44.13017" lon="5.88812">
        <ele>848</ele>
        <time>2022-09-22T13:15:12Z</time>
      </trkpt>
      <trkpt lat="44.13018" lon="5.88813">
        <ele>848</ele>
        <time>2022-09-22T13:15:13Z</time>
      </trkpt>
      <trkpt lat="44.13018" lon="5.88814">
        <ele>848</ele>
        <time>2022-09-22T13:15:14Z</time>
      </trkpt>
      <trkpt lat="44.13019" lon="5.88815">
        <ele>848</ele>
        <time>2022-09-22T13:15:15Z</time>
      </trkpt>
      <trkpt lat="44.13019" lon="5.88815">
        <ele>848</ele>
        <time>2022-09-22T13:15:16Z</time>
      </trkpt>
      <trkpt lat="44.13019" lon="5.88816">
        <ele>848</ele>
        <time>2022-09-22T13:15:17Z</time>
      </trkpt>
      <trkpt lat="44.1302" lon="5.88817">
        <ele>848</ele>
        <time>2022-09-22T13:15:18Z</time>
      </trkpt>
      <trkpt lat="44.1302" lon="5.88818">
        <ele>848</ele>
        <time>2022-09-22T13:15:19Z</time>
      </trkpt>
      <trkpt lat="44.1302" lon="5.88819">
        <ele>847</ele>
        <time>2022-09-22T13:15:20Z</time>
      </trkpt>
      <trkpt lat="44.13021" lon="5.8882">
        <ele>847</ele>
        <time>2022-09-22T13:15:21Z</time>
      </trkpt>
      <trkpt lat="44.13021" lon="5.88821">
        <ele>847</ele>
        <time>2022-09-22T13:15:22Z</time>
      </trkpt>
      <trkpt lat="44.13021" lon="5.88822">
        <ele>847</ele>
        <time>2022-09-22T13:15:23Z</time>
      </trkpt>
      <trkpt lat="44.13021" lon="5.88823">
        <ele>847</ele>
        <time>2022-09-22T13:15:24Z</time>
      </trkpt>
      <trkpt lat="44.13022" lon="5.88824">
        <ele>847</ele>
        <time>2022-09-22T13:15:25Z</time>
      </trkpt>
      <trkpt lat="44.13022" lon="5.88825">
        <ele>847</ele>
        <time>2022-09-22T13:15:26Z</time>
      </trkpt>
      <trkpt lat="44.13023" lon="5.88827">
        <ele>847</ele>
        <time>2022-09-22T13:15:27Z</time>
      </trkpt>
      <trkpt lat="44.13023" lon="5.88828">
        <ele>847</ele>
        <time>2022-09-22T13:15:28Z</time>
      </trkpt>
      <trkpt lat="44.13024" lon="5.88829">
        <ele>847</ele>
        <time>2022-09-22T13:15:29Z</time>
      </trkpt>
      <trkpt lat="44.13024" lon="5.8883">
        <ele>846</ele>
        <time>2022-09-22T13:15:30Z</time>
      </trkpt>
      <trkpt lat="44.13025" lon="5.88831">
        <ele>846</ele>
        <time>2022-09-22T13:15:31Z</time>
      </trkpt>
      <trkpt lat="44.13025" lon="5.88832">
        <ele>846</ele>
        <time>2022-09-22T13:15:32Z</time>
      </trkpt>
      <trkpt lat="44.13026" lon="5.88834">
        <ele>846</ele>
        <time>2022-09-22T13:15:33Z</time>
      </trkpt>
      <trkpt lat="44.13026" lon="5.88835">
        <ele>846</ele>
        <time>2022-09-22T13:15:34Z</time>
      </trkpt>
      <trkpt lat="44.13026" lon="5.88836">
        <ele>846</ele>
        <time>2022-09-22T13:15:35Z</time>
      </trkpt>
      <trkpt lat="44.13027" lon="5.88837">
        <ele>846</ele>
        <time>2022-09-22T13:15:36Z</time>
      </trkpt>
      <trkpt lat="44.13027" lon="5.88839">
        <ele>846</ele>
        <time>2022-09-22T13:15:37Z</time>
      </trkpt>
      <trkpt lat="44.13028" lon="5.8884">
        <ele>846</ele>
        <time>2022-09-22T13:15:38Z</time>
      </trkpt>
      <trkpt lat="44.13028" lon="5.88841">
        <ele>846</ele>
        <time>2022-09-22T13:15:39Z</time>
      </trkpt>
      <trkpt lat="44.13029" lon="5.88842">
        <ele>845</ele>
        <time>2022-09-22T13:15:40Z</time>
      </trkpt>
      <trkpt lat="44.1303" lon="5.88844">
        <ele>845</ele>
        <time>2022-09-22T13:15:41Z</time>
      </trkpt>
      <trkpt lat="44.1303" lon="5.88845">
        <ele>845</ele>
        <time>2022-09-22T13:15:42Z</time>
      </trkpt>
      <trkpt lat="44.1303" lon="5.88846">
        <ele>845</ele>
        <time>2022-09-22T13:15:43Z</time>
      </trkpt>
      <trkpt lat="44.13031" lon="5.88847">
        <ele>845</ele>
        <time>2022-09-22T13:15:44Z</time>
      </trkpt>
      <trkpt lat="44.13031" lon="5.88848">
        <ele>845</ele>
        <time>2022-09-22T13:15:45Z</time>
      </trkpt>
      <trkpt lat="44.13031" lon="5.88849">
        <ele>845</ele>
        <time>2022-09-22T13:15:46Z</time>
      </trkpt>
      <trkpt lat="44.13032" lon="5.8885">
        <ele>845</ele>
        <time>2022-09-22T13:15:47Z</time>
      </trkpt>
      <trkpt lat="44.13032" lon="5.88851">
        <ele>845</ele>
        <time>2022-09-22T13:15:48Z</time>
      </trkpt>
      <trkpt lat="44.13033" lon="5.88852">
        <ele>845</ele>
        <time>2022-09-22T13:15:49Z</time>
      </trkpt>
      <trkpt lat="44.13033" lon="5.88853">
        <ele>844</ele>
        <time>2022-09-22T13:15:50Z</time>
      </trkpt>
      <trkpt lat="44.13034" lon="5.88854">
        <ele>844</ele>
        <time>2022-09-22T13:15:51Z</time>
      </trkpt>
      <trkpt lat="44.13034" lon="5.88855">
        <ele>844</ele>
        <time>2022-09-22T13:15:52Z</time>
      </trkpt>
      <trkpt lat="44.13035" lon="5.88856">
        <ele>844</ele>
        <time>2022-09-22T13:15:53Z</time>
      </trkpt>
      <trkpt lat="44.13035" lon="5.88857">
        <ele>844</ele>
        <time>2022-09-22T13:15:54Z</time>
      </trkpt>
      <trkpt lat="44.13036" lon="5.88858">
        <ele>844</ele>
        <time>2022-09-22T13:15:55Z</time>
      </trkpt>
      <trkpt lat="44.13036" lon="5.88859">
        <ele>844</ele>
        <time>2022-09-22T13:15:56Z</time>
      </trkpt>
      <trkpt lat="44.13037" lon="5.8886">
        <ele>844</ele>
        <time>2022-09-22T13:15:57Z</time>
      </trkpt>
      <trkpt lat="44.13038" lon="5.88862">
        <ele>844</ele>
        <time>2022-09-22T13:15:58Z</time>
      </trkpt>
      <trkpt lat="44.13038" lon="5.88863">
        <ele>844</ele>
        <time>2022-09-22T13:15:59Z</time>
      </trkpt>
      <trkpt lat="44.13039" lon="5.88864">
        <ele>843</ele>
        <time>2022-09-22T13:16:00Z</time>
      </trkpt>
      <trkpt lat="44.13039" lon="5.88866">
        <ele>843</ele>
        <time>2022-09-22T13:16:01Z</time>
      </trkpt>
      <trkpt lat="44.1304" lon="5.88867">
        <ele>842</ele>
        <time>2022-09-22T13:16:02Z</time>
      </trkpt>
      <trkpt lat="44.1304" lon="5.88869">
        <ele>842</ele>
        <time>2022-09-22T13:16:03Z</time>
      </trkpt>
      <trkpt lat="44.13041" lon="5.8887">
        <ele>842</ele>
        <time>2022-09-22T13:16:04Z</time>
      </trkpt>
      <trkpt lat="44.13041" lon="5.88872">
        <ele>842</ele>
        <time>2022-09-22T13:16:05Z</time>
      </trkpt>
      <trkpt lat="44.13042" lon="5.88873">
        <ele>842</ele>
        <time>2022-09-22T13:16:06Z</time>
      </trkpt>
      <trkpt lat="44.13042" lon="5.88874">
        <ele>842</ele>
        <time>2022-09-22T13:16:07Z</time>
      </trkpt>
      <trkpt lat="44.13043" lon="5.88876">
        <ele>842</ele>
        <time>2022-09-22T13:16:08Z</time>
      </trkpt>
      <trkpt lat="44.13043" lon="5.88877">
        <ele>842</ele>
        <time>2022-09-22T13:16:09Z</time>
      </trkpt>
      <trkpt lat="44.13043" lon="5.88878">
        <ele>841</ele>
        <time>2022-09-22T13:16:10Z</time>
      </trkpt>
      <trkpt lat="44.13044" lon="5.88879">
        <ele>841</ele>
        <time>2022-09-22T13:16:11Z</time>
      </trkpt>
      <trkpt lat="44.13044" lon="5.8888">
        <ele>841</ele>
        <time>2022-09-22T13:16:12Z</time>
      </trkpt>
      <trkpt lat="44.13045" lon="5.88881">
        <ele>841</ele>
        <time>2022-09-22T13:16:13Z</time>
      </trkpt>
      <trkpt lat="44.13045" lon="5.88882">
        <ele>841</ele>
        <time>2022-09-22T13:16:14Z</time>
      </trkpt>
      <trkpt lat="44.13046" lon="5.88884">
        <ele>841</ele>
        <time>2022-09-22T13:16:15Z</time>
      </trkpt>
      <trkpt lat="44.13046" lon="5.88885">
        <ele>841</ele>
        <time>2022-09-22T13:16:16Z</time>
      </trkpt>
      <trkpt lat="44.13047" lon="5.88886">
        <ele>841</ele>
        <time>2022-09-22T13:16:17Z</time>
      </trkpt>
      <trkpt lat="44.13048" lon="5.88888">
        <ele>841</ele>
        <time>2022-09-22T13:16:18Z</time>
      </trkpt>
      <trkpt lat="44.13048" lon="5.88889">
        <ele>841</ele>
        <time>2022-09-22T13:16:19Z</time>
      </trkpt>
      <trkpt lat="44.13049" lon="5.8889">
        <ele>840</ele>
        <time>2022-09-22T13:16:20Z</time>
      </trkpt>
      <trkpt lat="44.13049" lon="5.88892">
        <ele>840</ele>
        <time>2022-09-22T13:16:21Z</time>
      </trkpt>
      <trkpt lat="44.1305" lon="5.88893">
        <ele>840</ele>
        <time>2022-09-22T13:16:22Z</time>
      </trkpt>
      <trkpt lat="44.13051" lon="5.88894">
        <ele>840</ele>
        <time>2022-09-22T13:16:23Z</time>
      </trkpt>
      <trkpt lat="44.13051" lon="5.88896">
        <ele>840</ele>
        <time>2022-09-22T13:16:24Z</time>
      </trkpt>
      <trkpt lat="44.13052" lon="5.88897">
        <ele>840</ele>
        <time>2022-09-22T13:16:25Z</time>
      </trkpt>
      <trkpt lat="44.13052" lon="5.88898">
        <ele>840</ele>
        <time>2022-09-22T13:16:26Z</time>
      </trkpt>
      <trkpt lat="44.13053" lon="5.889">
        <ele>840</ele>
        <time>2022-09-22T13:16:27Z</time>
      </trkpt>
      <trkpt lat="44.13053" lon="5.88901">
        <ele>840</ele>
        <time>2022-09-22T13:16:28Z</time>
      </trkpt>
      <trkpt lat="44.13054" lon="5.88902">
        <ele>840</ele>
        <time>2022-09-22T13:16:29Z</time>
      </trkpt>
      <trkpt lat="44.13054" lon="5.88903">
        <ele>839</ele>
        <time>2022-09-22T13:16:30Z</time>
      </trkpt>
      <trkpt lat="44.13055" lon="5.88904">
        <ele>839</ele>
        <time>2022-09-22T13:16:31Z</time>
      </trkpt>
      <trkpt lat="44.13056" lon="5.88906">
        <ele>839</ele>
        <time>2022-09-22T13:16:32Z</time>
      </trkpt>
      <trkpt lat="44.13056" lon="5.88907">
        <ele>839</ele>
        <time>2022-09-22T13:16:33Z</time>
      </trkpt>
      <trkpt lat="44.13057" lon="5.88908">
        <ele>839</ele>
        <time>2022-09-22T13:16:34Z</time>
      </trkpt>
      <trkpt lat="44.13058" lon="5.88909">
        <ele>839</ele>
        <time>2022-09-22T13:16:35Z</time>
      </trkpt>
      <trkpt lat="44.13058" lon="5.8891">
        <ele>839</ele>
        <time>2022-09-22T13:16:36Z</time>
      </trkpt>
      <trkpt lat="44.13059" lon="5.88911">
        <ele>839</ele>
        <time>2022-09-22T13:16:37Z</time>
      </trkpt>
      <trkpt lat="44.1306" lon="5.88912">
        <ele>839</ele>
        <time>2022-09-22T13:16:38Z</time>
      </trkpt>
      <trkpt lat="44.13061" lon="5.88913">
        <ele>839</ele>
        <time>2022-09-22T13:16:39Z</time>
      </trkpt>
      <trkpt lat="44.13062" lon="5.88914">
        <ele>838</ele>
        <time>2022-09-22T13:16:40Z</time>
      </trkpt>
      <trkpt lat="44.13062" lon="5.88915">
        <ele>838</ele>
        <time>2022-09-22T13:16:41Z</time>
      </trkpt>
      <trkpt lat="44.13063" lon="5.88916">
        <ele>838</ele>
        <time>2022-09-22T13:16:42Z</time>
      </trkpt>
      <trkpt lat="44.13064" lon="5.88917">
        <ele>838</ele>
        <time>2022-09-22T13:16:43Z</time>
      </trkpt>
      <trkpt lat="44.13065" lon="5.88918">
        <ele>838</ele>
        <time>2022-09-22T13:16:44Z</time>
      </trkpt>
      <trkpt lat="44.13066" lon="5.88919">
        <ele>838</ele>
        <time>2022-09-22T13:16:45Z</time>
      </trkpt>
      <trkpt lat="44.13067" lon="5.8892">
        <ele>838</ele>
        <time>2022-09-22T13:16:46Z</time>
      </trkpt>
      <trkpt lat="44.13068" lon="5.88921">
        <ele>838</ele>
        <time>2022-09-22T13:16:47Z</time>
      </trkpt>
      <trkpt lat="44.13068" lon="5.88923">
        <ele>838</ele>
        <time>2022-09-22T13:16:48Z</time>
      </trkpt>
      <trkpt lat="44.13069" lon="5.88924">
        <ele>838</ele>
        <time>2022-09-22T13:16:49Z</time>
      </trkpt>
      <trkpt lat="44.1307" lon="5.88925">
        <ele>837</ele>
        <time>2022-09-22T13:16:50Z</time>
      </trkpt>
      <trkpt lat="44.13071" lon="5.88926">
        <ele>837</ele>
        <time>2022-09-22T13:16:51Z</time>
      </trkpt>
      <trkpt lat="44.13072" lon="5.88927">
        <ele>837</ele>
        <time>2022-09-22T13:16:52Z</time>
      </trkpt>
      <trkpt lat="44.13073" lon="5.88928">
        <ele>837</ele>
        <time>2022-09-22T13:16:53Z</time>
      </trkpt>
      <trkpt lat="44.13073" lon="5.8893">
        <ele>837</ele>
        <time>2022-09-22T13:16:54Z</time>
      </trkpt>
      <trkpt lat="44.13073" lon="5.88931">
        <ele>837</ele>
        <time>2022-09-22T13:16:55Z</time>
      </trkpt>
      <trkpt lat="44.13074" lon="5.88932">
        <ele>837</ele>
        <time>2022-09-22T13:16:56Z</time>
      </trkpt>
      <trkpt lat="44.13074" lon="5.88934">
        <ele>837</ele>
        <time>2022-09-22T13:16:57Z</time>
      </trkpt>
      <trkpt lat="44.13074" lon="5.88935">
        <ele>837</ele>
        <time>2022-09-22T13:16:58Z</time>
      </trkpt>
      <trkpt lat="44.13075" lon="5.88936">
        <ele>837</ele>
        <time>2022-09-22T13:16:59Z</time>
      </trkpt>
      <trkpt lat="44.13075" lon="5.88938">
        <ele>836</ele>
        <time>2022-09-22T13:17:00Z</time>
      </trkpt>
      <trkpt lat="44.13075" lon="5.88939">
        <ele>836</ele>
        <time>2022-09-22T13:17:01Z</time>
      </trkpt>
      <trkpt lat="44.13075" lon="5.8894">
        <ele>836</ele>
        <time>2022-09-22T13:17:02Z</time>
      </trkpt>
      <trkpt lat="44.13076" lon="5.88941">
        <ele>836</ele>
        <time>2022-09-22T13:17:03Z</time>
      </trkpt>
      <trkpt lat="44.13076" lon="5.88942">
        <ele>836</ele>
        <time>2022-09-22T13:17:04Z</time>
      </trkpt>
      <trkpt lat="44.13077" lon="5.88944">
        <ele>836</ele>
        <time>2022-09-22T13:17:05Z</time>
      </trkpt>
      <trkpt lat="44.13077" lon="5.88945">
        <ele>836</ele>
        <time>2022-09-22T13:17:06Z</time>
      </trkpt>
      <trkpt lat="44.13078" lon="5.88947">
        <ele>836</ele>
        <time>2022-09-22T13:17:07Z</time>
      </trkpt>
      <trkpt lat="44.13078" lon="5.88948">
        <ele>836</ele>
        <time>2022-09-22T13:17:08Z</time>
      </trkpt>
      <trkpt lat="44.13079" lon="5.8895">
        <ele>836</ele>
        <time>2022-09-22T13:17:09Z</time>
      </trkpt>
      <trkpt lat="44.13079" lon="5.88951">
        <ele>835</ele>
        <time>2022-09-22T13:17:10Z</time>
      </trkpt>
      <trkpt lat="44.1308" lon="5.88952">
        <ele>835</ele>
        <time>2022-09-22T13:17:11Z</time>
      </trkpt>
      <trkpt lat="44.13081" lon="5.88954">
        <ele>835</ele>
        <time>2022-09-22T13:17:12Z</time>
      </trkpt>
      <trkpt lat="44.13081" lon="5.88955">
        <ele>835</ele>
        <time>2022-09-22T13:17:13Z</time>
      </trkpt>
      <trkpt lat="44.13081" lon="5.88957">
        <ele>835</ele>
        <time>2022-09-22T13:17:14Z</time>
      </trkpt>
      <trkpt lat="44.13081" lon="5.88958">
        <ele>835</ele>
        <time>2022-09-22T13:17:15Z</time>
      </trkpt>
      <trkpt lat="44.13081" lon="5.88959">
        <ele>835</ele>
        <time>2022-09-22T13:17:16Z</time>
      </trkpt>
      <trkpt lat="44.13081" lon="5.88961">
        <ele>835</ele>
        <time>2022-09-22T13:17:17Z</time>
      </trkpt>
      <trkpt lat="44.13081" lon="5.88962">
        <ele>835</ele>
        <time>2022-09-22T13:17:18Z</time>
      </trkpt>
      <trkpt lat="44.13081" lon="5.88964">
        <ele>835</ele>
        <time>2022-09-22T13:17:19Z</time>
      </trkpt>
      <trkpt lat="44.13082" lon="5.88965">
        <ele>835</ele>
        <time>2022-09-22T13:17:20Z</time>
      </trkpt>
      <trkpt lat="44.13082" lon="5.88967">
        <ele>835</ele>
        <time>2022-09-22T13:17:21Z</time>
      </trkpt>
      <trkpt lat="44.13082" lon="5.88968">
        <ele>835</ele>
        <time>2022-09-22T13:17:22Z</time>
      </trkpt>
      <trkpt lat="44.13082" lon="5.8897">
        <ele>835</ele>
        <time>2022-09-22T13:17:23Z</time>
      </trkpt>
      <trkpt lat="44.13082" lon="5.88971">
        <ele>835</ele>
        <time>2022-09-22T13:17:24Z</time>
      </trkpt>
      <trkpt lat="44.13083" lon="5.88973">
        <ele>834</ele>
        <time>2022-09-22T13:17:25Z</time>
      </trkpt>
      <trkpt lat="44.13083" lon="5.88975">
        <ele>834</ele>
        <time>2022-09-22T13:17:26Z</time>
      </trkpt>
      <trkpt lat="44.13083" lon="5.88977">
        <ele>834</ele>
        <time>2022-09-22T13:17:27Z</time>
      </trkpt>
      <trkpt lat="44.13083" lon="5.88978">
        <ele>834</ele>
        <time>2022-09-22T13:17:28Z</time>
      </trkpt>
      <trkpt lat="44.13083" lon="5.8898">
        <ele>834</ele>
        <time>2022-09-22T13:17:29Z</time>
      </trkpt>
      <trkpt lat="44.13083" lon="5.88982">
        <ele>834</ele>
        <time>2022-09-22T13:17:30Z</time>
      </trkpt>
      <trkpt lat="44.13083" lon="5.88983">
        <ele>834</ele>
        <time>2022-09-22T13:17:31Z</time>
      </trkpt>
      <trkpt lat="44.13083" lon="5.88985">
        <ele>834</ele>
        <time>2022-09-22T13:17:32Z</time>
      </trkpt>
      <trkpt lat="44.13082" lon="5.88987">
        <ele>834</ele>
        <time>2022-09-22T13:17:33Z</time>
      </trkpt>
      <trkpt lat="44.13082" lon="5.88988">
        <ele>834</ele>
        <time>2022-09-22T13:17:34Z</time>
      </trkpt>
      <trkpt lat="44.13082" lon="5.88989">
        <ele>834</ele>
        <time>2022-09-22T13:17:35Z</time>
      </trkpt>
      <trkpt lat="44.13082" lon="5.88991">
        <ele>834</ele>
        <time>2022-09-22T13:17:36Z</time>
      </trkpt>
      <trkpt lat="44.13082" lon="5.88992">
        <ele>834</ele>
        <time>2022-09-22T13:17:37Z</time>
      </trkpt>
      <trkpt lat="44.13082" lon="5.88994">
        <ele>834</ele>
        <time>2022-09-22T13:17:38Z</time>
      </trkpt>
      <trkpt lat="44.13081" lon="5.88995">
        <ele>834</ele>
        <time>2022-09-22T13:17:39Z</time>
      </trkpt>
      <trkpt lat="44.13081" lon="5.88997">
        <ele>834</ele>
        <time>2022-09-22T13:17:40Z</time>
      </trkpt>
      <trkpt lat="44.1308" lon="5.88998">
        <ele>834</ele>
        <time>2022-09-22T13:17:41Z</time>
      </trkpt>
      <trkpt lat="44.1308" lon="5.89">
        <ele>834</ele>
        <time>2022-09-22T13:17:42Z</time>
      </trkpt>
      <trkpt lat="44.13079" lon="5.89001">
        <ele>834</ele>
        <time>2022-09-22T13:17:43Z</time>
      </trkpt>
      <trkpt lat="44.13079" lon="5.89003">
        <ele>834</ele>
        <time>2022-09-22T13:17:44Z</time>
      </trkpt>
      <trkpt lat="44.13078" lon="5.89004">
        <ele>834</ele>
        <time>2022-09-22T13:17:45Z</time>
      </trkpt>
      <trkpt lat="44.13078" lon="5.89006">
        <ele>834</ele>
        <time>2022-09-22T13:17:46Z</time>
      </trkpt>
      <trkpt lat="44.13077" lon="5.89007">
        <ele>834</ele>
        <time>2022-09-22T13:17:47Z</time>
      </trkpt>
      <trkpt lat="44.13077" lon="5.89008">
        <ele>834</ele>
        <time>2022-09-22T13:17:48Z</time>
      </trkpt>
      <trkpt lat="44.13076" lon="5.8901">
        <ele>835</ele>
        <time>2022-09-22T13:17:49Z</time>
      </trkpt>
      <trkpt lat="44.13076" lon="5.89011">
        <ele>835</ele>
        <time>2022-09-22T13:17:50Z</time>
      </trkpt>
      <trkpt lat="44.13075" lon="5.89012">
        <ele>835</ele>
        <time>2022-09-22T13:17:51Z</time>
      </trkpt>
      <trkpt lat="44.13075" lon="5.89014">
        <ele>835</ele>
        <time>2022-09-22T13:17:52Z</time>
      </trkpt>
      <trkpt lat="44.13074" lon="5.89015">
        <ele>835</ele>
        <time>2022-09-22T13:17:53Z</time>
      </trkpt>
      <trkpt lat="44.13074" lon="5.89016">
        <ele>835</ele>
        <time>2022-09-22T13:17:54Z</time>
      </trkpt>
      <trkpt lat="44.13073" lon="5.89017">
        <ele>835</ele>
        <time>2022-09-22T13:17:55Z</time>
      </trkpt>
      <trkpt lat="44.13073" lon="5.89019">
        <ele>835</ele>
        <time>2022-09-22T13:17:56Z</time>
      </trkpt>
      <trkpt lat="44.13073" lon="5.8902">
        <ele>835</ele>
        <time>2022-09-22T13:17:57Z</time>
      </trkpt>
      <trkpt lat="44.13073" lon="5.89021">
        <ele>835</ele>
        <time>2022-09-22T13:17:58Z</time>
      </trkpt>
      <trkpt lat="44.13073" lon="5.89023">
        <ele>835</ele>
        <time>2022-09-22T13:17:59Z</time>
      </trkpt>
      <trkpt lat="44.13073" lon="5.89024">
        <ele>834</ele>
        <time>2022-09-22T13:18:00Z</time>
      </trkpt>
      <trkpt lat="44.13073" lon="5.89026">
        <ele>834</ele>
        <time>2022-09-22T13:18:01Z</time>
      </trkpt>
      <trkpt lat="44.13073" lon="5.89027">
        <ele>834</ele>
        <time>2022-09-22T13:18:02Z</time>
      </trkpt>
      <trkpt lat="44.13073" lon="5.89028">
        <ele>834</ele>
        <time>2022-09-22T13:18:03Z</time>
      </trkpt>
      <trkpt lat="44.13073" lon="5.8903">
        <ele>834</ele>
        <time>2022-09-22T13:18:04Z</time>
      </trkpt>
      <trkpt lat="44.13073" lon="5.89031">
        <ele>834</ele>
        <time>2022-09-22T13:18:05Z</time>
      </trkpt>
      <trkpt lat="44.13073" lon="5.89033">
        <ele>834</ele>
        <time>2022-09-22T13:18:06Z</time>
      </trkpt>
      <trkpt lat="44.13073" lon="5.89034">
        <ele>834</ele>
        <time>2022-09-22T13:18:07Z</time>
      </trkpt>
      <trkpt lat="44.13073" lon="5.89036">
        <ele>834</ele>
        <time>2022-09-22T13:18:08Z</time>
      </trkpt>
      <trkpt lat="44.13073" lon="5.89037">
        <ele>834</ele>
        <time>2022-09-22T13:18:09Z</time>
      </trkpt>
      <trkpt lat="44.13074" lon="5.89039">
        <ele>834</ele>
        <time>2022-09-22T13:18:10Z</time>
      </trkpt>
      <trkpt lat="44.13074" lon="5.8904">
        <ele>834</ele>
        <time>2022-09-22T13:18:11Z</time>
      </trkpt>
      <trkpt lat="44.13074" lon="5.89042">
        <ele>834</ele>
        <time>2022-09-22T13:18:12Z</time>
      </trkpt>
      <trkpt lat="44.13074" lon="5.89044">
        <ele>834</ele>
        <time>2022-09-22T13:18:13Z</time>
      </trkpt>
      <trkpt lat="44.13075" lon="5.89045">
        <ele>834</ele>
        <time>2022-09-22T13:18:14Z</time>
      </trkpt>
      <trkpt lat="44.13075" lon="5.89047">
        <ele>834</ele>
        <time>2022-09-22T13:18:15Z</time>
      </trkpt>
      <trkpt lat="44.13076" lon="5.89048">
        <ele>834</ele>
        <time>2022-09-22T13:18:16Z</time>
      </trkpt>
      <trkpt lat="44.13076" lon="5.8905">
        <ele>834</ele>
        <time>2022-09-22T13:18:17Z</time>
      </trkpt>
      <trkpt lat="44.13076" lon="5.89051">
        <ele>834</ele>
        <time>2022-09-22T13:18:18Z</time>
      </trkpt>
      <trkpt lat="44.13077" lon="5.89053">
        <ele>834</ele>
        <time>2022-09-22T13:18:19Z</time>
      </trkpt>
      <trkpt lat="44.13077" lon="5.89054">
        <ele>834</ele>
        <time>2022-09-22T13:18:20Z</time>
      </trkpt>
      <trkpt lat="44.13078" lon="5.89055">
        <ele>834</ele>
        <time>2022-09-22T13:18:21Z</time>
      </trkpt>
      <trkpt lat="44.13079" lon="5.89056">
        <ele>834</ele>
        <time>2022-09-22T13:18:22Z</time>
      </trkpt>
      <trkpt lat="44.13079" lon="5.89057">
        <ele>834</ele>
        <time>2022-09-22T13:18:23Z</time>
      </trkpt>
      <trkpt lat="44.1308" lon="5.89058">
        <ele>834</ele>
        <time>2022-09-22T13:18:24Z</time>
      </trkpt>
      <trkpt lat="44.1308" lon="5.89059">
        <ele>833</ele>
        <time>2022-09-22T13:18:25Z</time>
      </trkpt>
      <trkpt lat="44.13081" lon="5.8906">
        <ele>833</ele>
        <time>2022-09-22T13:18:26Z</time>
      </trkpt>
      <trkpt lat="44.13081" lon="5.89061">
        <ele>833</ele>
        <time>2022-09-22T13:18:27Z</time>
      </trkpt>
      <trkpt lat="44.13082" lon="5.89063">
        <ele>833</ele>
        <time>2022-09-22T13:18:28Z</time>
      </trkpt>
      <trkpt lat="44.13082" lon="5.89064">
        <ele>833</ele>
        <time>2022-09-22T13:18:29Z</time>
      </trkpt>
      <trkpt lat="44.13082" lon="5.89065">
        <ele>833</ele>
        <time>2022-09-22T13:18:30Z</time>
      </trkpt>
      <trkpt lat="44.13083" lon="5.89066">
        <ele>833</ele>
        <time>2022-09-22T13:18:31Z</time>
      </trkpt>
      <trkpt lat="44.13083" lon="5.89067">
        <ele>833</ele>
        <time>2022-09-22T13:18:32Z</time>
      </trkpt>
      <trkpt lat="44.13083" lon="5.89068">
        <ele>833</ele>
        <time>2022-09-22T13:18:33Z</time>
      </trkpt>
      <trkpt lat="44.13083" lon="5.8907">
        <ele>833</ele>
        <time>2022-09-22T13:18:34Z</time>
      </trkpt>
      <trkpt lat="44.13083" lon="5.89071">
        <ele>833</ele>
        <time>2022-09-22T13:18:35Z</time>
      </trkpt>
      <trkpt lat="44.13084" lon="5.89073">
        <ele>833</ele>
        <time>2022-09-22T13:18:36Z</time>
      </trkpt>
      <trkpt lat="44.13084" lon="5.89074">
        <ele>833</ele>
        <time>2022-09-22T13:18:37Z</time>
      </trkpt>
      <trkpt lat="44.13084" lon="5.89076">
        <ele>833</ele>
        <time>2022-09-22T13:18:38Z</time>
      </trkpt>
      <trkpt lat="44.13085" lon="5.89077">
        <ele>833</ele>
        <time>2022-09-22T13:18:39Z</time>
      </trkpt>
      <trkpt lat="44.13085" lon="5.89079">
        <ele>832</ele>
        <time>2022-09-22T13:18:40Z</time>
      </trkpt>
      <trkpt lat="44.13086" lon="5.8908">
        <ele>832</ele>
        <time>2022-09-22T13:18:41Z</time>
      </trkpt>
      <trkpt lat="44.13086" lon="5.89081">
        <ele>832</ele>
        <time>2022-09-22T13:18:42Z</time>
      </trkpt>
      <trkpt lat="44.13087" lon="5.89083">
        <ele>832</ele>
        <time>2022-09-22T13:18:43Z</time>
      </trkpt>
      <trkpt lat="44.13087" lon="5.89084">
        <ele>832</ele>
        <time>2022-09-22T13:18:44Z</time>
      </trkpt>
      <trkpt lat="44.13088" lon="5.89086">
        <ele>831</ele>
        <time>2022-09-22T13:18:45Z</time>
      </trkpt>
      <trkpt lat="44.13088" lon="5.89087">
        <ele>831</ele>
        <time>2022-09-22T13:18:46Z</time>
      </trkpt>
      <trkpt lat="44.13088" lon="5.89088">
        <ele>831</ele>
        <time>2022-09-22T13:18:47Z</time>
      </trkpt>
      <trkpt lat="44.13089" lon="5.8909">
        <ele>831</ele>
        <time>2022-09-22T13:18:48Z</time>
      </trkpt>
      <trkpt lat="44.13089" lon="5.89091">
        <ele>831</ele>
        <time>2022-09-22T13:18:49Z</time>
      </trkpt>
      <trkpt lat="44.13089" lon="5.89093">
        <ele>831</ele>
        <time>2022-09-22T13:18:50Z</time>
      </trkpt>
      <trkpt lat="44.1309" lon="5.89094">
        <ele>831</ele>
        <time>2022-09-22T13:18:51Z</time>
      </trkpt>
      <trkpt lat="44.1309" lon="5.89095">
        <ele>831</ele>
        <time>2022-09-22T13:18:52Z</time>
      </trkpt>
      <trkpt lat="44.13091" lon="5.89096">
        <ele>831</ele>
        <time>2022-09-22T13:18:53Z</time>
      </trkpt>
      <trkpt lat="44.13091" lon="5.89097">
        <ele>831</ele>
        <time>2022-09-22T13:18:54Z</time>
      </trkpt>
      <trkpt lat="44.13091" lon="5.89098">
        <ele>830</ele>
        <time>2022-09-22T13:18:55Z</time>
      </trkpt>
      <trkpt lat="44.13092" lon="5.891">
        <ele>830</ele>
        <time>2022-09-22T13:18:56Z</time>
      </trkpt>
      <trkpt lat="44.13092" lon="5.89101">
        <ele>830</ele>
        <time>2022-09-22T13:18:57Z</time>
      </trkpt>
      <trkpt lat="44.13093" lon="5.89102">
        <ele>830</ele>
        <time>2022-09-22T13:18:58Z</time>
      </trkpt>
      <trkpt lat="44.13093" lon="5.89103">
        <ele>830</ele>
        <time>2022-09-22T13:18:59Z</time>
      </trkpt>
      <trkpt lat="44.13094" lon="5.89104">
        <ele>829</ele>
        <time>2022-09-22T13:19:00Z</time>
      </trkpt>
      <trkpt lat="44.13094" lon="5.89105">
        <ele>829</ele>
        <time>2022-09-22T13:19:01Z</time>
      </trkpt>
      <trkpt lat="44.13095" lon="5.89106">
        <ele>829</ele>
        <time>2022-09-22T13:19:02Z</time>
      </trkpt>
      <trkpt lat="44.13095" lon="5.89108">
        <ele>829</ele>
        <time>2022-09-22T13:19:03Z</time>
      </trkpt>
      <trkpt lat="44.13096" lon="5.89109">
        <ele>829</ele>
        <time>2022-09-22T13:19:04Z</time>
      </trkpt>
      <trkpt lat="44.13096" lon="5.8911">
        <ele>829</ele>
        <time>2022-09-22T13:19:05Z</time>
      </trkpt>
      <trkpt lat="44.13097" lon="5.89111">
        <ele>829</ele>
        <time>2022-09-22T13:19:06Z</time>
      </trkpt>
      <trkpt lat="44.13097" lon="5.89112">
        <ele>829</ele>
        <time>2022-09-22T13:19:07Z</time>
      </trkpt>
      <trkpt lat="44.13098" lon="5.89113">
        <ele>829</ele>
        <time>2022-09-22T13:19:08Z</time>
      </trkpt>
      <trkpt lat="44.13098" lon="5.89115">
        <ele>829</ele>
        <time>2022-09-22T13:19:09Z</time>
      </trkpt>
      <trkpt lat="44.13099" lon="5.89116">
        <ele>828</ele>
        <time>2022-09-22T13:19:10Z</time>
      </trkpt>
      <trkpt lat="44.131" lon="5.89117">
        <ele>828</ele>
        <time>2022-09-22T13:19:11Z</time>
      </trkpt>
      <trkpt lat="44.131" lon="5.89118">
        <ele>828</ele>
        <time>2022-09-22T13:19:12Z</time>
      </trkpt>
      <trkpt lat="44.13101" lon="5.8912">
        <ele>828</ele>
        <time>2022-09-22T13:19:13Z</time>
      </trkpt>
      <trkpt lat="44.13102" lon="5.89121">
        <ele>828</ele>
        <time>2022-09-22T13:19:14Z</time>
      </trkpt>
      <trkpt lat="44.13103" lon="5.89122">
        <ele>827</ele>
        <time>2022-09-22T13:19:15Z</time>
      </trkpt>
      <trkpt lat="44.13103" lon="5.89123">
        <ele>827</ele>
        <time>2022-09-22T13:19:16Z</time>
      </trkpt>
      <trkpt lat="44.13104" lon="5.89124">
        <ele>827</ele>
        <time>2022-09-22T13:19:17Z</time>
      </trkpt>
      <trkpt lat="44.13105" lon="5.89125">
        <ele>827</ele>
        <time>2022-09-22T13:19:18Z</time>
      </trkpt>
      <trkpt lat="44.13106" lon="5.89126">
        <ele>827</ele>
        <time>2022-09-22T13:19:19Z</time>
      </trkpt>
      <trkpt lat="44.13106" lon="5.89127">
        <ele>827</ele>
        <time>2022-09-22T13:19:20Z</time>
      </trkpt>
      <trkpt lat="44.13107" lon="5.89128">
        <ele>827</ele>
        <time>2022-09-22T13:19:21Z</time>
      </trkpt>
      <trkpt lat="44.13108" lon="5.89129">
        <ele>827</ele>
        <time>2022-09-22T13:19:22Z</time>
      </trkpt>
      <trkpt lat="44.13108" lon="5.8913">
        <ele>827</ele>
        <time>2022-09-22T13:19:23Z</time>
      </trkpt>
      <trkpt lat="44.13109" lon="5.89132">
        <ele>827</ele>
        <time>2022-09-22T13:19:24Z</time>
      </trkpt>
      <trkpt lat="44.1311" lon="5.89133">
        <ele>826</ele>
        <time>2022-09-22T13:19:25Z</time>
      </trkpt>
      <trkpt lat="44.13111" lon="5.89134">
        <ele>826</ele>
        <time>2022-09-22T13:19:26Z</time>
      </trkpt>
      <trkpt lat="44.13111" lon="5.89135">
        <ele>826</ele>
        <time>2022-09-22T13:19:27Z</time>
      </trkpt>
      <trkpt lat="44.13112" lon="5.89137">
        <ele>826</ele>
        <time>2022-09-22T13:19:28Z</time>
      </trkpt>
      <trkpt lat="44.13113" lon="5.89138">
        <ele>826</ele>
        <time>2022-09-22T13:19:29Z</time>
      </trkpt>
      <trkpt lat="44.13114" lon="5.89139">
        <ele>826</ele>
        <time>2022-09-22T13:19:30Z</time>
      </trkpt>
      <trkpt lat="44.13114" lon="5.8914">
        <ele>826</ele>
        <time>2022-09-22T13:19:31Z</time>
      </trkpt>
      <trkpt lat="44.13115" lon="5.89142">
        <ele>826</ele>
        <time>2022-09-22T13:19:32Z</time>
      </trkpt>
      <trkpt lat="44.13115" lon="5.89142">
        <ele>826</ele>
        <time>2022-09-22T13:19:33Z</time>
      </trkpt>
      <trkpt lat="44.13116" lon="5.89143">
        <ele>826</ele>
        <time>2022-09-22T13:19:34Z</time>
      </trkpt>
      <trkpt lat="44.13118" lon="5.89144">
        <ele>825</ele>
        <time>2022-09-22T13:21:40Z</time>
      </trkpt>
      <trkpt lat="44.13119" lon="5.89145">
        <ele>825</ele>
        <time>2022-09-22T13:21:41Z</time>
      </trkpt>
      <trkpt lat="44.13121" lon="5.89145">
        <ele>825</ele>
        <time>2022-09-22T13:21:42Z</time>
      </trkpt>
      <trkpt lat="44.13121" lon="5.89145">
        <ele>825</ele>
        <time>2022-09-22T13:21:43Z</time>
      </trkpt>
      <trkpt lat="44.13122" lon="5.89146">
        <ele>825</ele>
        <time>2022-09-22T13:21:44Z</time>
      </trkpt>
      <trkpt lat="44.13123" lon="5.89146">
        <ele>825</ele>
        <time>2022-09-22T13:21:45Z</time>
      </trkpt>
      <trkpt lat="44.13123" lon="5.89146">
        <ele>825</ele>
        <time>2022-09-22T13:21:46Z</time>
      </trkpt>
      <trkpt lat="44.13124" lon="5.89146">
        <ele>825</ele>
        <time>2022-09-22T13:21:47Z</time>
      </trkpt>
      <trkpt lat="44.13125" lon="5.89147">
        <ele>825</ele>
        <time>2022-09-22T13:21:48Z</time>
      </trkpt>
      <trkpt lat="44.13126" lon="5.89147">
        <ele>825</ele>
        <time>2022-09-22T13:21:49Z</time>
      </trkpt>
      <trkpt lat="44.13126" lon="5.89147">
        <ele>825</ele>
        <time>2022-09-22T13:21:50Z</time>
      </trkpt>
      <trkpt lat="44.13127" lon="5.89148">
        <ele>825</ele>
        <time>2022-09-22T13:21:51Z</time>
      </trkpt>
      <trkpt lat="44.13127" lon="5.89148">
        <ele>825</ele>
        <time>2022-09-22T13:21:52Z</time>
      </trkpt>
      <trkpt lat="44.13128" lon="5.89149">
        <ele>825</ele>
        <time>2022-09-22T13:21:53Z</time>
      </trkpt>
      <trkpt lat="44.13128" lon="5.89149">
        <ele>825</ele>
        <time>2022-09-22T13:21:54Z</time>
      </trkpt>
      <trkpt lat="44.13129" lon="5.8915">
        <ele>825</ele>
        <time>2022-09-22T13:21:55Z</time>
      </trkpt>
      <trkpt lat="44.1313" lon="5.89151">
        <ele>825</ele>
        <time>2022-09-22T13:21:56Z</time>
      </trkpt>
      <trkpt lat="44.13131" lon="5.89151">
        <ele>825</ele>
        <time>2022-09-22T13:21:57Z</time>
      </trkpt>
      <trkpt lat="44.13131" lon="5.89152">
        <ele>825</ele>
        <time>2022-09-22T13:21:58Z</time>
      </trkpt>
      <trkpt lat="44.13132" lon="5.89152">
        <ele>825</ele>
        <time>2022-09-22T13:21:59Z</time>
      </trkpt>
      <trkpt lat="44.13133" lon="5.89153">
        <ele>824</ele>
        <time>2022-09-22T13:22:00Z</time>
      </trkpt>
      <trkpt lat="44.13133" lon="5.89153">
        <ele>824</ele>
        <time>2022-09-22T13:22:01Z</time>
      </trkpt>
      <trkpt lat="44.13134" lon="5.89154">
        <ele>824</ele>
        <time>2022-09-22T13:22:02Z</time>
      </trkpt>
      <trkpt lat="44.13135" lon="5.89154">
        <ele>824</ele>
        <time>2022-09-22T13:22:03Z</time>
      </trkpt>
      <trkpt lat="44.13135" lon="5.89155">
        <ele>824</ele>
        <time>2022-09-22T13:22:04Z</time>
      </trkpt>
      <trkpt lat="44.13136" lon="5.89156">
        <ele>824</ele>
        <time>2022-09-22T13:22:05Z</time>
      </trkpt>
      <trkpt lat="44.13137" lon="5.89157">
        <ele>824</ele>
        <time>2022-09-22T13:22:06Z</time>
      </trkpt>
      <trkpt lat="44.13137" lon="5.89157">
        <ele>824</ele>
        <time>2022-09-22T13:22:07Z</time>
      </trkpt>
      <trkpt lat="44.13138" lon="5.89158">
        <ele>824</ele>
        <time>2022-09-22T13:22:08Z</time>
      </trkpt>
      <trkpt lat="44.13138" lon="5.89159">
        <ele>824</ele>
        <time>2022-09-22T13:22:09Z</time>
      </trkpt>
      <trkpt lat="44.13139" lon="5.8916">
        <ele>824</ele>
        <time>2022-09-22T13:22:10Z</time>
      </trkpt>
      <trkpt lat="44.1314" lon="5.8916">
        <ele>824</ele>
        <time>2022-09-22T13:22:11Z</time>
      </trkpt>
      <trkpt lat="44.13141" lon="5.89161">
        <ele>824</ele>
        <time>2022-09-22T13:22:12Z</time>
      </trkpt>
      <trkpt lat="44.13142" lon="5.89162">
        <ele>824</ele>
        <time>2022-09-22T13:22:13Z</time>
      </trkpt>
      <trkpt lat="44.13142" lon="5.89163">
        <ele>824</ele>
        <time>2022-09-22T13:22:14Z</time>
      </trkpt>
      <trkpt lat="44.13143" lon="5.89163">
        <ele>824</ele>
        <time>2022-09-22T13:22:15Z</time>
      </trkpt>
      <trkpt lat="44.13144" lon="5.89164">
        <ele>824</ele>
        <time>2022-09-22T13:22:16Z</time>
      </trkpt>
      <trkpt lat="44.13145" lon="5.89165">
        <ele>824</ele>
        <time>2022-09-22T13:22:17Z</time>
      </trkpt>
      <trkpt lat="44.13146" lon="5.89167">
        <ele>824</ele>
        <time>2022-09-22T13:22:18Z</time>
      </trkpt>
      <trkpt lat="44.13146" lon="5.89168">
        <ele>824</ele>
        <time>2022-09-22T13:22:19Z</time>
      </trkpt>
      <trkpt lat="44.13147" lon="5.89169">
        <ele>823</ele>
        <time>2022-09-22T13:22:20Z</time>
      </trkpt>
      <trkpt lat="44.13148" lon="5.8917">
        <ele>823</ele>
        <time>2022-09-22T13:22:21Z</time>
      </trkpt>
      <trkpt lat="44.13148" lon="5.89171">
        <ele>823</ele>
        <time>2022-09-22T13:22:22Z</time>
      </trkpt>
      <trkpt lat="44.13149" lon="5.89173">
        <ele>823</ele>
        <time>2022-09-22T13:22:23Z</time>
      </trkpt>
      <trkpt lat="44.13149" lon="5.89174">
        <ele>823</ele>
        <time>2022-09-22T13:22:24Z</time>
      </trkpt>
      <trkpt lat="44.1315" lon="5.89175">
        <ele>823</ele>
        <time>2022-09-22T13:22:25Z</time>
      </trkpt>
      <trkpt lat="44.1315" lon="5.89176">
        <ele>823</ele>
        <time>2022-09-22T13:22:26Z</time>
      </trkpt>
      <trkpt lat="44.1315" lon="5.89178">
        <ele>823</ele>
        <time>2022-09-22T13:22:27Z</time>
      </trkpt>
      <trkpt lat="44.13151" lon="5.89179">
        <ele>823</ele>
        <time>2022-09-22T13:22:28Z</time>
      </trkpt>
      <trkpt lat="44.13151" lon="5.8918">
        <ele>823</ele>
        <time>2022-09-22T13:22:29Z</time>
      </trkpt>
      <trkpt lat="44.13151" lon="5.89182">
        <ele>823</ele>
        <time>2022-09-22T13:22:30Z</time>
      </trkpt>
      <trkpt lat="44.13152" lon="5.89183">
        <ele>823</ele>
        <time>2022-09-22T13:22:31Z</time>
      </trkpt>
      <trkpt lat="44.13152" lon="5.89185">
        <ele>823</ele>
        <time>2022-09-22T13:22:32Z</time>
      </trkpt>
      <trkpt lat="44.13153" lon="5.89186">
        <ele>823</ele>
        <time>2022-09-22T13:22:33Z</time>
      </trkpt>
      <trkpt lat="44.13153" lon="5.89187">
        <ele>823</ele>
        <time>2022-09-22T13:22:34Z</time>
      </trkpt>
      <trkpt lat="44.13154" lon="5.89189">
        <ele>823</ele>
        <time>2022-09-22T13:22:35Z</time>
      </trkpt>
      <trkpt lat="44.13155" lon="5.8919">
        <ele>823</ele>
        <time>2022-09-22T13:22:36Z</time>
      </trkpt>
      <trkpt lat="44.13155" lon="5.89191">
        <ele>823</ele>
        <time>2022-09-22T13:22:37Z</time>
      </trkpt>
      <trkpt lat="44.13156" lon="5.89193">
        <ele>823</ele>
        <time>2022-09-22T13:22:38Z</time>
      </trkpt>
      <trkpt lat="44.13156" lon="5.89194">
        <ele>823</ele>
        <time>2022-09-22T13:22:39Z</time>
      </trkpt>
      <trkpt lat="44.13156" lon="5.89196">
        <ele>823</ele>
        <time>2022-09-22T13:22:40Z</time>
      </trkpt>
      <trkpt lat="44.13157" lon="5.89197">
        <ele>823</ele>
        <time>2022-09-22T13:22:41Z</time>
      </trkpt>
      <trkpt lat="44.13157" lon="5.89198">
        <ele>823</ele>
        <time>2022-09-22T13:22:42Z</time>
      </trkpt>
      <trkpt lat="44.13158" lon="5.89199">
        <ele>823</ele>
        <time>2022-09-22T13:22:43Z</time>
      </trkpt>
      <trkpt lat="44.13158" lon="5.892">
        <ele>823</ele>
        <time>2022-09-22T13:22:44Z</time>
      </trkpt>
      <trkpt lat="44.13159" lon="5.89201">
        <ele>823</ele>
        <time>2022-09-22T13:22:45Z</time>
      </trkpt>
      <trkpt lat="44.1316" lon="5.89202">
        <ele>823</ele>
        <time>2022-09-22T13:22:46Z</time>
      </trkpt>
      <trkpt lat="44.1316" lon="5.89202">
        <ele>823</ele>
        <time>2022-09-22T13:22:47Z</time>
      </trkpt>
      <trkpt lat="44.13161" lon="5.89203">
        <ele>823</ele>
        <time>2022-09-22T13:22:48Z</time>
      </trkpt>
      <trkpt lat="44.13161" lon="5.89204">
        <ele>823</ele>
        <time>2022-09-22T13:22:49Z</time>
      </trkpt>
      <trkpt lat="44.13162" lon="5.89204">
        <ele>823</ele>
        <time>2022-09-22T13:22:50Z</time>
      </trkpt>
      <trkpt lat="44.13163" lon="5.89205">
        <ele>823</ele>
        <time>2022-09-22T13:22:51Z</time>
      </trkpt>
      <trkpt lat="44.13163" lon="5.89206">
        <ele>823</ele>
        <time>2022-09-22T13:22:52Z</time>
      </trkpt>
      <trkpt lat="44.13164" lon="5.89206">
        <ele>823</ele>
        <time>2022-09-22T13:22:53Z</time>
      </trkpt>
      <trkpt lat="44.13164" lon="5.89207">
        <ele>823</ele>
        <time>2022-09-22T13:22:54Z</time>
      </trkpt>
      <trkpt lat="44.13165" lon="5.89208">
        <ele>823</ele>
        <time>2022-09-22T13:22:55Z</time>
      </trkpt>
      <trkpt lat="44.13165" lon="5.89209">
        <ele>823</ele>
        <time>2022-09-22T13:22:56Z</time>
      </trkpt>
      <trkpt lat="44.13166" lon="5.8921">
        <ele>823</ele>
        <time>2022-09-22T13:22:57Z</time>
      </trkpt>
      <trkpt lat="44.13167" lon="5.89211">
        <ele>823</ele>
        <time>2022-09-22T13:22:58Z</time>
      </trkpt>
      <trkpt lat="44.13168" lon="5.89212">
        <ele>823</ele>
        <time>2022-09-22T13:22:59Z</time>
      </trkpt>
      <trkpt lat="44.13168" lon="5.89214">
        <ele>823</ele>
        <time>2022-09-22T13:23:00Z</time>
      </trkpt>
      <trkpt lat="44.13169" lon="5.89215">
        <ele>823</ele>
        <time>2022-09-22T13:23:01Z</time>
      </trkpt>
      <trkpt lat="44.1317" lon="5.89216">
        <ele>823</ele>
        <time>2022-09-22T13:23:02Z</time>
      </trkpt>
      <trkpt lat="44.1317" lon="5.89217">
        <ele>823</ele>
        <time>2022-09-22T13:23:03Z</time>
      </trkpt>
      <trkpt lat="44.13171" lon="5.89218">
        <ele>823</ele>
        <time>2022-09-22T13:23:04Z</time>
      </trkpt>
      <trkpt lat="44.13172" lon="5.89219">
        <ele>823</ele>
        <time>2022-09-22T13:23:05Z</time>
      </trkpt>
      <trkpt lat="44.13172" lon="5.89221">
        <ele>823</ele>
        <time>2022-09-22T13:23:06Z</time>
      </trkpt>
      <trkpt lat="44.13172" lon="5.89222">
        <ele>823</ele>
        <time>2022-09-22T13:23:07Z</time>
      </trkpt>
      <trkpt lat="44.13173" lon="5.89223">
        <ele>823</ele>
        <time>2022-09-22T13:23:08Z</time>
      </trkpt>
      <trkpt lat="44.13174" lon="5.89224">
        <ele>823</ele>
        <time>2022-09-22T13:23:09Z</time>
      </trkpt>
      <trkpt lat="44.13174" lon="5.89225">
        <ele>823</ele>
        <time>2022-09-22T13:23:10Z</time>
      </trkpt>
      <trkpt lat="44.13174" lon="5.89226">
        <ele>823</ele>
        <time>2022-09-22T13:23:11Z</time>
      </trkpt>
      <trkpt lat="44.13175" lon="5.89227">
        <ele>823</ele>
        <time>2022-09-22T13:23:12Z</time>
      </trkpt>
      <trkpt lat="44.13175" lon="5.89228">
        <ele>823</ele>
        <time>2022-09-22T13:23:13Z</time>
      </trkpt>
      <trkpt lat="44.13176" lon="5.8923">
        <ele>824</ele>
        <time>2022-09-22T13:23:14Z</time>
      </trkpt>
      <trkpt lat="44.13177" lon="5.89231">
        <ele>824</ele>
        <time>2022-09-22T13:23:15Z</time>
      </trkpt>
      <trkpt lat="44.13177" lon="5.89232">
        <ele>824</ele>
        <time>2022-09-22T13:23:16Z</time>
      </trkpt>
      <trkpt lat="44.13178" lon="5.89233">
        <ele>824</ele>
        <time>2022-09-22T13:23:17Z</time>
      </trkpt>
      <trkpt lat="44.13178" lon="5.89234">
        <ele>824</ele>
        <time>2022-09-22T13:23:18Z</time>
      </trkpt>
      <trkpt lat="44.13179" lon="5.89235">
        <ele>824</ele>
        <time>2022-09-22T13:23:19Z</time>
      </trkpt>
      <trkpt lat="44.13179" lon="5.89236">
        <ele>824</ele>
        <time>2022-09-22T13:23:20Z</time>
      </trkpt>
      <trkpt lat="44.1318" lon="5.89237">
        <ele>824</ele>
        <time>2022-09-22T13:23:21Z</time>
      </trkpt>
      <trkpt lat="44.1318" lon="5.89238">
        <ele>824</ele>
        <time>2022-09-22T13:23:22Z</time>
      </trkpt>
      <trkpt lat="44.13181" lon="5.89239">
        <ele>824</ele>
        <time>2022-09-22T13:23:23Z</time>
      </trkpt>
      <trkpt lat="44.13181" lon="5.8924">
        <ele>824</ele>
        <time>2022-09-22T13:23:24Z</time>
      </trkpt>
      <trkpt lat="44.13182" lon="5.89241">
        <ele>824</ele>
        <time>2022-09-22T13:23:25Z</time>
      </trkpt>
      <trkpt lat="44.13183" lon="5.89242">
        <ele>824</ele>
        <time>2022-09-22T13:23:26Z</time>
      </trkpt>
      <trkpt lat="44.13183" lon="5.89242">
        <ele>824</ele>
        <time>2022-09-22T13:23:27Z</time>
      </trkpt>
      <trkpt lat="44.13184" lon="5.89243">
        <ele>824</ele>
        <time>2022-09-22T13:23:28Z</time>
      </trkpt>
      <trkpt lat="44.13185" lon="5.89244">
        <ele>824</ele>
        <time>2022-09-22T13:23:29Z</time>
      </trkpt>
      <trkpt lat="44.13186" lon="5.89245">
        <ele>824</ele>
        <time>2022-09-22T13:23:30Z</time>
      </trkpt>
      <trkpt lat="44.13186" lon="5.89246">
        <ele>824</ele>
        <time>2022-09-22T13:23:31Z</time>
      </trkpt>
      <trkpt lat="44.13187" lon="5.89247">
        <ele>824</ele>
        <time>2022-09-22T13:23:32Z</time>
      </trkpt>
      <trkpt lat="44.13188" lon="5.89247">
        <ele>824</ele>
        <time>2022-09-22T13:23:33Z</time>
      </trkpt>
      <trkpt lat="44.13189" lon="5.89248">
        <ele>825</ele>
        <time>2022-09-22T13:23:34Z</time>
      </trkpt>
      <trkpt lat="44.1319" lon="5.89249">
        <ele>825</ele>
        <time>2022-09-22T13:23:35Z</time>
      </trkpt>
      <trkpt lat="44.1319" lon="5.8925">
        <ele>825</ele>
        <time>2022-09-22T13:23:36Z</time>
      </trkpt>
      <trkpt lat="44.13191" lon="5.89251">
        <ele>825</ele>
        <time>2022-09-22T13:23:37Z</time>
      </trkpt>
      <trkpt lat="44.13192" lon="5.89252">
        <ele>825</ele>
        <time>2022-09-22T13:23:38Z</time>
      </trkpt>
      <trkpt lat="44.13192" lon="5.89252">
        <ele>825</ele>
        <time>2022-09-22T13:23:39Z</time>
      </trkpt>
      <trkpt lat="44.13193" lon="5.89253">
        <ele>825</ele>
        <time>2022-09-22T13:23:40Z</time>
      </trkpt>
      <trkpt lat="44.13194" lon="5.89254">
        <ele>825</ele>
        <time>2022-09-22T13:23:41Z</time>
      </trkpt>
      <trkpt lat="44.13195" lon="5.89255">
        <ele>825</ele>
        <time>2022-09-22T13:23:42Z</time>
      </trkpt>
      <trkpt lat="44.13196" lon="5.89256">
        <ele>825</ele>
        <time>2022-09-22T13:23:43Z</time>
      </trkpt>
      <trkpt lat="44.13197" lon="5.89257">
        <ele>825</ele>
        <time>2022-09-22T13:23:44Z</time>
      </trkpt>
      <trkpt lat="44.13198" lon="5.89258">
        <ele>825</ele>
        <time>2022-09-22T13:23:45Z</time>
      </trkpt>
      <trkpt lat="44.13199" lon="5.89259">
        <ele>825</ele>
        <time>2022-09-22T13:23:46Z</time>
      </trkpt>
      <trkpt lat="44.13199" lon="5.8926">
        <ele>825</ele>
        <time>2022-09-22T13:23:47Z</time>
      </trkpt>
      <trkpt lat="44.132" lon="5.8926">
        <ele>825</ele>
        <time>2022-09-22T13:23:48Z</time>
      </trkpt>
      <trkpt lat="44.13201" lon="5.89261">
        <ele>826</ele>
        <time>2022-09-22T13:23:49Z</time>
      </trkpt>
      <trkpt lat="44.13202" lon="5.89262">
        <ele>826</ele>
        <time>2022-09-22T13:23:50Z</time>
      </trkpt>
      <trkpt lat="44.13202" lon="5.89263">
        <ele>826</ele>
        <time>2022-09-22T13:23:51Z</time>
      </trkpt>
      <trkpt lat="44.13203" lon="5.89264">
        <ele>826</ele>
        <time>2022-09-22T13:23:52Z</time>
      </trkpt>
      <trkpt lat="44.13203" lon="5.89265">
        <ele>826</ele>
        <time>2022-09-22T13:23:53Z</time>
      </trkpt>
      <trkpt lat="44.13204" lon="5.89266">
        <ele>826</ele>
        <time>2022-09-22T13:23:54Z</time>
      </trkpt>
      <trkpt lat="44.13204" lon="5.89267">
        <ele>826</ele>
        <time>2022-09-22T13:23:55Z</time>
      </trkpt>
      <trkpt lat="44.13205" lon="5.89268">
        <ele>826</ele>
        <time>2022-09-22T13:23:56Z</time>
      </trkpt>
      <trkpt lat="44.13206" lon="5.89269">
        <ele>826</ele>
        <time>2022-09-22T13:23:57Z</time>
      </trkpt>
      <trkpt lat="44.13207" lon="5.89271">
        <ele>826</ele>
        <time>2022-09-22T13:23:58Z</time>
      </trkpt>
      <trkpt lat="44.13208" lon="5.89272">
        <ele>826</ele>
        <time>2022-09-22T13:23:59Z</time>
      </trkpt>
      <trkpt lat="44.13209" lon="5.89273">
        <ele>826</ele>
        <time>2022-09-22T13:24:00Z</time>
      </trkpt>
      <trkpt lat="44.13209" lon="5.89274">
        <ele>826</ele>
        <time>2022-09-22T13:24:01Z</time>
      </trkpt>
      <trkpt lat="44.1321" lon="5.89275">
        <ele>826</ele>
        <time>2022-09-22T13:24:02Z</time>
      </trkpt>
      <trkpt lat="44.13211" lon="5.89276">
        <ele>826</ele>
        <time>2022-09-22T13:24:03Z</time>
      </trkpt>
      <trkpt lat="44.13211" lon="5.89278">
        <ele>826</ele>
        <time>2022-09-22T13:24:04Z</time>
      </trkpt>
      <trkpt lat="44.13212" lon="5.89279">
        <ele>826</ele>
        <time>2022-09-22T13:24:05Z</time>
      </trkpt>
      <trkpt lat="44.13212" lon="5.8928">
        <ele>826</ele>
        <time>2022-09-22T13:24:06Z</time>
      </trkpt>
      <trkpt lat="44.13213" lon="5.89281">
        <ele>826</ele>
        <time>2022-09-22T13:24:07Z</time>
      </trkpt>
      <trkpt lat="44.13213" lon="5.89282">
        <ele>826</ele>
        <time>2022-09-22T13:24:08Z</time>
      </trkpt>
      <trkpt lat="44.13214" lon="5.89284">
        <ele>827</ele>
        <time>2022-09-22T13:24:09Z</time>
      </trkpt>
      <trkpt lat="44.13214" lon="5.89285">
        <ele>827</ele>
        <time>2022-09-22T13:24:10Z</time>
      </trkpt>
      <trkpt lat="44.13215" lon="5.89286">
        <ele>827</ele>
        <time>2022-09-22T13:24:11Z</time>
      </trkpt>
      <trkpt lat="44.13215" lon="5.89287">
        <ele>827</ele>
        <time>2022-09-22T13:24:12Z</time>
      </trkpt>
      <trkpt lat="44.13216" lon="5.89288">
        <ele>827</ele>
        <time>2022-09-22T13:24:13Z</time>
      </trkpt>
      <trkpt lat="44.13216" lon="5.89289">
        <ele>827</ele>
        <time>2022-09-22T13:24:14Z</time>
      </trkpt>
      <trkpt lat="44.13217" lon="5.8929">
        <ele>827</ele>
        <time>2022-09-22T13:24:15Z</time>
      </trkpt>
      <trkpt lat="44.13217" lon="5.89291">
        <ele>827</ele>
        <time>2022-09-22T13:24:16Z</time>
      </trkpt>
      <trkpt lat="44.13218" lon="5.89293">
        <ele>827</ele>
        <time>2022-09-22T13:24:17Z</time>
      </trkpt>
      <trkpt lat="44.13218" lon="5.89294">
        <ele>827</ele>
        <time>2022-09-22T13:24:18Z</time>
      </trkpt>
      <trkpt lat="44.13219" lon="5.89295">
        <ele>827</ele>
        <time>2022-09-22T13:24:19Z</time>
      </trkpt>
      <trkpt lat="44.1322" lon="5.89296">
        <ele>827</ele>
        <time>2022-09-22T13:24:20Z</time>
      </trkpt>
      <trkpt lat="44.1322" lon="5.89298">
        <ele>827</ele>
        <time>2022-09-22T13:24:21Z</time>
      </trkpt>
      <trkpt lat="44.13221" lon="5.89299">
        <ele>827</ele>
        <time>2022-09-22T13:24:22Z</time>
      </trkpt>
      <trkpt lat="44.13221" lon="5.89301">
        <ele>827</ele>
        <time>2022-09-22T13:24:23Z</time>
      </trkpt>
      <trkpt lat="44.13222" lon="5.89302">
        <ele>827</ele>
        <time>2022-09-22T13:24:24Z</time>
      </trkpt>
      <trkpt lat="44.13222" lon="5.89303">
        <ele>827</ele>
        <time>2022-09-22T13:24:25Z</time>
      </trkpt>
      <trkpt lat="44.13222" lon="5.89305">
        <ele>827</ele>
        <time>2022-09-22T13:24:26Z</time>
      </trkpt>
      <trkpt lat="44.13223" lon="5.89306">
        <ele>827</ele>
        <time>2022-09-22T13:24:27Z</time>
      </trkpt>
      <trkpt lat="44.13223" lon="5.89307">
        <ele>827</ele>
        <time>2022-09-22T13:24:28Z</time>
      </trkpt>
      <trkpt lat="44.13223" lon="5.89309">
        <ele>827</ele>
        <time>2022-09-22T13:24:29Z</time>
      </trkpt>
      <trkpt lat="44.13223" lon="5.8931">
        <ele>827</ele>
        <time>2022-09-22T13:24:30Z</time>
      </trkpt>
      <trkpt lat="44.13224" lon="5.89312">
        <ele>827</ele>
        <time>2022-09-22T13:24:31Z</time>
      </trkpt>
      <trkpt lat="44.13224" lon="5.89313">
        <ele>827</ele>
        <time>2022-09-22T13:24:32Z</time>
      </trkpt>
      <trkpt lat="44.13225" lon="5.89314">
        <ele>827</ele>
        <time>2022-09-22T13:24:33Z</time>
      </trkpt>
      <trkpt lat="44.13225" lon="5.89316">
        <ele>827</ele>
        <time>2022-09-22T13:24:34Z</time>
      </trkpt>
      <trkpt lat="44.13226" lon="5.89317">
        <ele>827</ele>
        <time>2022-09-22T13:24:35Z</time>
      </trkpt>
      <trkpt lat="44.13227" lon="5.89319">
        <ele>827</ele>
        <time>2022-09-22T13:24:36Z</time>
      </trkpt>
      <trkpt lat="44.13227" lon="5.89321">
        <ele>827</ele>
        <time>2022-09-22T13:24:37Z</time>
      </trkpt>
      <trkpt lat="44.13228" lon="5.89322">
        <ele>827</ele>
        <time>2022-09-22T13:24:38Z</time>
      </trkpt>
      <trkpt lat="44.13228" lon="5.89324">
        <ele>828</ele>
        <time>2022-09-22T13:24:39Z</time>
      </trkpt>
      <trkpt lat="44.13229" lon="5.89325">
        <ele>828</ele>
        <time>2022-09-22T13:24:40Z</time>
      </trkpt>
      <trkpt lat="44.13229" lon="5.89326">
        <ele>828</ele>
        <time>2022-09-22T13:24:41Z</time>
      </trkpt>
      <trkpt lat="44.13229" lon="5.89328">
        <ele>828</ele>
        <time>2022-09-22T13:24:42Z</time>
      </trkpt>
      <trkpt lat="44.1323" lon="5.89329">
        <ele>828</ele>
        <time>2022-09-22T13:24:43Z</time>
      </trkpt>
      <trkpt lat="44.1323" lon="5.8933">
        <ele>828</ele>
        <time>2022-09-22T13:24:44Z</time>
      </trkpt>
      <trkpt lat="44.1323" lon="5.89332">
        <ele>828</ele>
        <time>2022-09-22T13:24:45Z</time>
      </trkpt>
      <trkpt lat="44.1323" lon="5.89333">
        <ele>828</ele>
        <time>2022-09-22T13:24:46Z</time>
      </trkpt>
      <trkpt lat="44.13231" lon="5.89335">
        <ele>828</ele>
        <time>2022-09-22T13:24:47Z</time>
      </trkpt>
      <trkpt lat="44.13231" lon="5.89336">
        <ele>828</ele>
        <time>2022-09-22T13:24:48Z</time>
      </trkpt>
      <trkpt lat="44.13231" lon="5.89338">
        <ele>828</ele>
        <time>2022-09-22T13:24:49Z</time>
      </trkpt>
      <trkpt lat="44.13231" lon="5.89339">
        <ele>828</ele>
        <time>2022-09-22T13:24:50Z</time>
      </trkpt>
      <trkpt lat="44.13231" lon="5.89341">
        <ele>828</ele>
        <time>2022-09-22T13:24:51Z</time>
      </trkpt>
      <trkpt lat="44.13232" lon="5.89342">
        <ele>828</ele>
        <time>2022-09-22T13:24:52Z</time>
      </trkpt>
      <trkpt lat="44.13231" lon="5.89344">
        <ele>828</ele>
        <time>2022-09-22T13:24:53Z</time>
      </trkpt>
      <trkpt lat="44.13231" lon="5.89345">
        <ele>828</ele>
        <time>2022-09-22T13:24:54Z</time>
      </trkpt>
      <trkpt lat="44.1323" lon="5.89347">
        <ele>828</ele>
        <time>2022-09-22T13:24:55Z</time>
      </trkpt>
      <trkpt lat="44.1323" lon="5.89349">
        <ele>828</ele>
        <time>2022-09-22T13:24:56Z</time>
      </trkpt>
      <trkpt lat="44.13229" lon="5.8935">
        <ele>828</ele>
        <time>2022-09-22T13:24:57Z</time>
      </trkpt>
      <trkpt lat="44.13229" lon="5.89352">
        <ele>828</ele>
        <time>2022-09-22T13:24:58Z</time>
      </trkpt>
      <trkpt lat="44.13228" lon="5.89353">
        <ele>829</ele>
        <time>2022-09-22T13:24:59Z</time>
      </trkpt>
      <trkpt lat="44.13228" lon="5.89355">
        <ele>829</ele>
        <time>2022-09-22T13:25:00Z</time>
      </trkpt>
      <trkpt lat="44.13228" lon="5.89356">
        <ele>829</ele>
        <time>2022-09-22T13:25:01Z</time>
      </trkpt>
      <trkpt lat="44.13227" lon="5.89358">
        <ele>829</ele>
        <time>2022-09-22T13:25:02Z</time>
      </trkpt>
      <trkpt lat="44.13227" lon="5.89359">
        <ele>829</ele>
        <time>2022-09-22T13:25:03Z</time>
      </trkpt>
      <trkpt lat="44.13227" lon="5.8936">
        <ele>829</ele>
        <time>2022-09-22T13:25:04Z</time>
      </trkpt>
      <trkpt lat="44.13227" lon="5.89362">
        <ele>829</ele>
        <time>2022-09-22T13:25:05Z</time>
      </trkpt>
      <trkpt lat="44.13226" lon="5.89363">
        <ele>829</ele>
        <time>2022-09-22T13:25:06Z</time>
      </trkpt>
      <trkpt lat="44.13226" lon="5.89365">
        <ele>829</ele>
        <time>2022-09-22T13:25:07Z</time>
      </trkpt>
      <trkpt lat="44.13226" lon="5.89366">
        <ele>829</ele>
        <time>2022-09-22T13:25:08Z</time>
      </trkpt>
      <trkpt lat="44.13225" lon="5.89368">
        <ele>829</ele>
        <time>2022-09-22T13:25:09Z</time>
      </trkpt>
      <trkpt lat="44.13225" lon="5.89369">
        <ele>829</ele>
        <time>2022-09-22T13:25:10Z</time>
      </trkpt>
      <trkpt lat="44.13224" lon="5.8937">
        <ele>829</ele>
        <time>2022-09-22T13:25:11Z</time>
      </trkpt>
      <trkpt lat="44.13224" lon="5.89371">
        <ele>829</ele>
        <time>2022-09-22T13:25:12Z</time>
      </trkpt>
      <trkpt lat="44.13223" lon="5.89373">
        <ele>829</ele>
        <time>2022-09-22T13:25:13Z</time>
      </trkpt>
      <trkpt lat="44.13223" lon="5.89374">
        <ele>829</ele>
        <time>2022-09-22T13:25:14Z</time>
      </trkpt>
      <trkpt lat="44.13222" lon="5.89375">
        <ele>829</ele>
        <time>2022-09-22T13:25:15Z</time>
      </trkpt>
      <trkpt lat="44.13222" lon="5.89376">
        <ele>829</ele>
        <time>2022-09-22T13:25:16Z</time>
      </trkpt>
      <trkpt lat="44.13222" lon="5.89377">
        <ele>829</ele>
        <time>2022-09-22T13:25:17Z</time>
      </trkpt>
      <trkpt lat="44.13221" lon="5.89379">
        <ele>829</ele>
        <time>2022-09-22T13:25:18Z</time>
      </trkpt>
      <trkpt lat="44.13221" lon="5.8938">
        <ele>829</ele>
        <time>2022-09-22T13:25:19Z</time>
      </trkpt>
      <trkpt lat="44.13221" lon="5.89381">
        <ele>829</ele>
        <time>2022-09-22T13:25:20Z</time>
      </trkpt>
      <trkpt lat="44.1322" lon="5.89382">
        <ele>829</ele>
        <time>2022-09-22T13:25:21Z</time>
      </trkpt>
      <trkpt lat="44.1322" lon="5.89383">
        <ele>829</ele>
        <time>2022-09-22T13:25:22Z</time>
      </trkpt>
      <trkpt lat="44.1322" lon="5.89385">
        <ele>829</ele>
        <time>2022-09-22T13:25:23Z</time>
      </trkpt>
      <trkpt lat="44.1322" lon="5.89386">
        <ele>829</ele>
        <time>2022-09-22T13:25:24Z</time>
      </trkpt>
      <trkpt lat="44.1322" lon="5.89387">
        <ele>829</ele>
        <time>2022-09-22T13:25:25Z</time>
      </trkpt>
      <trkpt lat="44.13221" lon="5.89388">
        <ele>829</ele>
        <time>2022-09-22T13:25:26Z</time>
      </trkpt>
      <trkpt lat="44.13221" lon="5.89389">
        <ele>829</ele>
        <time>2022-09-22T13:25:27Z</time>
      </trkpt>
      <trkpt lat="44.13221" lon="5.8939">
        <ele>829</ele>
        <time>2022-09-22T13:25:28Z</time>
      </trkpt>
      <trkpt lat="44.13221" lon="5.89391">
        <ele>829</ele>
        <time>2022-09-22T13:25:29Z</time>
      </trkpt>
      <trkpt lat="44.13221" lon="5.89392">
        <ele>829</ele>
        <time>2022-09-22T13:25:30Z</time>
      </trkpt>
      <trkpt lat="44.13221" lon="5.89393">
        <ele>829</ele>
        <time>2022-09-22T13:25:31Z</time>
      </trkpt>
      <trkpt lat="44.13222" lon="5.89395">
        <ele>829</ele>
        <time>2022-09-22T13:25:32Z</time>
      </trkpt>
      <trkpt lat="44.13222" lon="5.89396">
        <ele>829</ele>
        <time>2022-09-22T13:25:33Z</time>
      </trkpt>
      <trkpt lat="44.13222" lon="5.89397">
        <ele>829</ele>
        <time>2022-09-22T13:25:34Z</time>
      </trkpt>
      <trkpt lat="44.13222" lon="5.89399">
        <ele>828</ele>
        <time>2022-09-22T13:25:35Z</time>
      </trkpt>
      <trkpt lat="44.13222" lon="5.894">
        <ele>828</ele>
        <time>2022-09-22T13:25:36Z</time>
      </trkpt>
      <trkpt lat="44.13222" lon="5.89402">
        <ele>828</ele>
        <time>2022-09-22T13:25:37Z</time>
      </trkpt>
      <trkpt lat="44.13223" lon="5.89403">
        <ele>828</ele>
        <time>2022-09-22T13:25:38Z</time>
      </trkpt>
      <trkpt lat="44.13223" lon="5.89405">
        <ele>828</ele>
        <time>2022-09-22T13:25:39Z</time>
      </trkpt>
      <trkpt lat="44.13223" lon="5.89406">
        <ele>828</ele>
        <time>2022-09-22T13:25:40Z</time>
      </trkpt>
      <trkpt lat="44.13223" lon="5.89408">
        <ele>828</ele>
        <time>2022-09-22T13:25:41Z</time>
      </trkpt>
      <trkpt lat="44.13223" lon="5.89409">
        <ele>828</ele>
        <time>2022-09-22T13:25:42Z</time>
      </trkpt>
      <trkpt lat="44.13224" lon="5.89411">
        <ele>828</ele>
        <time>2022-09-22T13:25:43Z</time>
      </trkpt>
      <trkpt lat="44.13224" lon="5.89412">
        <ele>828</ele>
        <time>2022-09-22T13:25:44Z</time>
      </trkpt>
      <trkpt lat="44.13224" lon="5.89413">
        <ele>828</ele>
        <time>2022-09-22T13:25:45Z</time>
      </trkpt>
      <trkpt lat="44.13224" lon="5.89415">
        <ele>828</ele>
        <time>2022-09-22T13:25:46Z</time>
      </trkpt>
      <trkpt lat="44.13224" lon="5.89416">
        <ele>828</ele>
        <time>2022-09-22T13:25:47Z</time>
      </trkpt>
      <trkpt lat="44.13225" lon="5.89417">
        <ele>828</ele>
        <time>2022-09-22T13:25:48Z</time>
      </trkpt>
      <trkpt lat="44.13225" lon="5.89418">
        <ele>828</ele>
        <time>2022-09-22T13:25:49Z</time>
      </trkpt>
      <trkpt lat="44.13225" lon="5.8942">
        <ele>827</ele>
        <time>2022-09-22T13:25:50Z</time>
      </trkpt>
      <trkpt lat="44.13226" lon="5.89421">
        <ele>827</ele>
        <time>2022-09-22T13:25:51Z</time>
      </trkpt>
      <trkpt lat="44.13226" lon="5.89422">
        <ele>827</ele>
        <time>2022-09-22T13:25:52Z</time>
      </trkpt>
      <trkpt lat="44.13227" lon="5.89423">
        <ele>827</ele>
        <time>2022-09-22T13:25:53Z</time>
      </trkpt>
      <trkpt lat="44.13228" lon="5.89424">
        <ele>827</ele>
        <time>2022-09-22T13:25:54Z</time>
      </trkpt>
      <trkpt lat="44.13228" lon="5.89425">
        <ele>827</ele>
        <time>2022-09-22T13:25:55Z</time>
      </trkpt>
      <trkpt lat="44.13229" lon="5.89426">
        <ele>827</ele>
        <time>2022-09-22T13:25:56Z</time>
      </trkpt>
      <trkpt lat="44.1323" lon="5.89426">
        <ele>827</ele>
        <time>2022-09-22T13:25:57Z</time>
      </trkpt>
      <trkpt lat="44.1323" lon="5.89427">
        <ele>827</ele>
        <time>2022-09-22T13:25:58Z</time>
      </trkpt>
      <trkpt lat="44.13231" lon="5.89427">
        <ele>827</ele>
        <time>2022-09-22T13:25:59Z</time>
      </trkpt>
      <trkpt lat="44.13232" lon="5.89427">
        <ele>826</ele>
        <time>2022-09-22T13:26:00Z</time>
      </trkpt>
      <trkpt lat="44.13233" lon="5.89428">
        <ele>826</ele>
        <time>2022-09-22T13:26:01Z</time>
      </trkpt>
      <trkpt lat="44.13233" lon="5.89428">
        <ele>826</ele>
        <time>2022-09-22T13:26:02Z</time>
      </trkpt>
      <trkpt lat="44.13234" lon="5.89428">
        <ele>826</ele>
        <time>2022-09-22T13:26:03Z</time>
      </trkpt>
      <trkpt lat="44.13235" lon="5.89428">
        <ele>826</ele>
        <time>2022-09-22T13:26:04Z</time>
      </trkpt>
      <trkpt lat="44.13236" lon="5.89428">
        <ele>826</ele>
        <time>2022-09-22T13:26:05Z</time>
      </trkpt>
      <trkpt lat="44.13237" lon="5.89428">
        <ele>826</ele>
        <time>2022-09-22T13:26:06Z</time>
      </trkpt>
      <trkpt lat="44.13238" lon="5.89428">
        <ele>826</ele>
        <time>2022-09-22T13:26:07Z</time>
      </trkpt>
      <trkpt lat="44.13238" lon="5.89428">
        <ele>826</ele>
        <time>2022-09-22T13:26:08Z</time>
      </trkpt>
      <trkpt lat="44.13239" lon="5.89428">
        <ele>826</ele>
        <time>2022-09-22T13:26:09Z</time>
      </trkpt>
      <trkpt lat="44.1324" lon="5.89428">
        <ele>825</ele>
        <time>2022-09-22T13:26:10Z</time>
      </trkpt>
      <trkpt lat="44.13241" lon="5.89429">
        <ele>825</ele>
        <time>2022-09-22T13:26:11Z</time>
      </trkpt>
      <trkpt lat="44.13242" lon="5.89429">
        <ele>825</ele>
        <time>2022-09-22T13:26:12Z</time>
      </trkpt>
      <trkpt lat="44.13243" lon="5.8943">
        <ele>825</ele>
        <time>2022-09-22T13:26:13Z</time>
      </trkpt>
      <trkpt lat="44.13243" lon="5.89431">
        <ele>825</ele>
        <time>2022-09-22T13:26:14Z</time>
      </trkpt>
      <trkpt lat="44.13244" lon="5.89431">
        <ele>824</ele>
        <time>2022-09-22T13:26:15Z</time>
      </trkpt>
      <trkpt lat="44.13245" lon="5.89432">
        <ele>824</ele>
        <time>2022-09-22T13:26:16Z</time>
      </trkpt>
      <trkpt lat="44.13245" lon="5.89433">
        <ele>824</ele>
        <time>2022-09-22T13:26:17Z</time>
      </trkpt>
      <trkpt lat="44.13246" lon="5.89434">
        <ele>824</ele>
        <time>2022-09-22T13:26:18Z</time>
      </trkpt>
      <trkpt lat="44.13246" lon="5.89435">
        <ele>824</ele>
        <time>2022-09-22T13:26:19Z</time>
      </trkpt>
      <trkpt lat="44.13247" lon="5.89436">
        <ele>824</ele>
        <time>2022-09-22T13:26:20Z</time>
      </trkpt>
      <trkpt lat="44.13247" lon="5.89437">
        <ele>824</ele>
        <time>2022-09-22T13:26:21Z</time>
      </trkpt>
      <trkpt lat="44.13247" lon="5.89438">
        <ele>824</ele>
        <time>2022-09-22T13:26:22Z</time>
      </trkpt>
      <trkpt lat="44.13247" lon="5.89439">
        <ele>824</ele>
        <time>2022-09-22T13:26:23Z</time>
      </trkpt>
      <trkpt lat="44.13247" lon="5.8944">
        <ele>824</ele>
        <time>2022-09-22T13:26:24Z</time>
      </trkpt>
      <trkpt lat="44.13247" lon="5.89441">
        <ele>823</ele>
        <time>2022-09-22T13:26:25Z</time>
      </trkpt>
      <trkpt lat="44.13247" lon="5.89442">
        <ele>823</ele>
        <time>2022-09-22T13:26:26Z</time>
      </trkpt>
      <trkpt lat="44.13247" lon="5.89443">
        <ele>823</ele>
        <time>2022-09-22T13:26:27Z</time>
      </trkpt>
      <trkpt lat="44.13247" lon="5.89445">
        <ele>823</ele>
        <time>2022-09-22T13:26:28Z</time>
      </trkpt>
      <trkpt lat="44.13247" lon="5.89446">
        <ele>823</ele>
        <time>2022-09-22T13:26:29Z</time>
      </trkpt>
      <trkpt lat="44.13247" lon="5.89447">
        <ele>822</ele>
        <time>2022-09-22T13:26:30Z</time>
      </trkpt>
      <trkpt lat="44.13247" lon="5.89448">
        <ele>822</ele>
        <time>2022-09-22T13:26:31Z</time>
      </trkpt>
      <trkpt lat="44.13246" lon="5.8945">
        <ele>822</ele>
        <time>2022-09-22T13:26:32Z</time>
      </trkpt>
      <trkpt lat="44.13246" lon="5.89451">
        <ele>822</ele>
        <time>2022-09-22T13:26:33Z</time>
      </trkpt>
      <trkpt lat="44.13246" lon="5.89452">
        <ele>822</ele>
        <time>2022-09-22T13:26:34Z</time>
      </trkpt>
      <trkpt lat="44.13246" lon="5.89453">
        <ele>821</ele>
        <time>2022-09-22T13:26:35Z</time>
      </trkpt>
      <trkpt lat="44.13246" lon="5.89454">
        <ele>821</ele>
        <time>2022-09-22T13:26:36Z</time>
      </trkpt>
      <trkpt lat="44.13246" lon="5.89456">
        <ele>821</ele>
        <time>2022-09-22T13:26:37Z</time>
      </trkpt>
      <trkpt lat="44.13246" lon="5.89457">
        <ele>821</ele>
        <time>2022-09-22T13:26:38Z</time>
      </trkpt>
      <trkpt lat="44.13246" lon="5.89458">
        <ele>821</ele>
        <time>2022-09-22T13:26:39Z</time>
      </trkpt>
      <trkpt lat="44.13245" lon="5.89459">
        <ele>821</ele>
        <time>2022-09-22T13:26:40Z</time>
      </trkpt>
      <trkpt lat="44.13245" lon="5.8946">
        <ele>821</ele>
        <time>2022-09-22T13:26:41Z</time>
      </trkpt>
      <trkpt lat="44.13245" lon="5.89461">
        <ele>821</ele>
        <time>2022-09-22T13:26:42Z</time>
      </trkpt>
      <trkpt lat="44.13245" lon="5.89463">
        <ele>821</ele>
        <time>2022-09-22T13:26:43Z</time>
      </trkpt>
      <trkpt lat="44.13245" lon="5.89464">
        <ele>821</ele>
        <time>2022-09-22T13:26:44Z</time>
      </trkpt>
      <trkpt lat="44.13246" lon="5.89465">
        <ele>820</ele>
        <time>2022-09-22T13:26:45Z</time>
      </trkpt>
      <trkpt lat="44.13246" lon="5.89466">
        <ele>820</ele>
        <time>2022-09-22T13:26:46Z</time>
      </trkpt>
      <trkpt lat="44.13246" lon="5.89468">
        <ele>820</ele>
        <time>2022-09-22T13:26:47Z</time>
      </trkpt>
      <trkpt lat="44.13246" lon="5.89469">
        <ele>820</ele>
        <time>2022-09-22T13:26:48Z</time>
      </trkpt>
      <trkpt lat="44.13246" lon="5.89471">
        <ele>820</ele>
        <time>2022-09-22T13:26:49Z</time>
      </trkpt>
      <trkpt lat="44.13246" lon="5.89472">
        <ele>819</ele>
        <time>2022-09-22T13:26:50Z</time>
      </trkpt>
      <trkpt lat="44.13247" lon="5.89474">
        <ele>819</ele>
        <time>2022-09-22T13:26:51Z</time>
      </trkpt>
      <trkpt lat="44.13247" lon="5.89475">
        <ele>819</ele>
        <time>2022-09-22T13:26:52Z</time>
      </trkpt>
      <trkpt lat="44.13248" lon="5.89476">
        <ele>819</ele>
        <time>2022-09-22T13:26:53Z</time>
      </trkpt>
      <trkpt lat="44.13249" lon="5.89478">
        <ele>819</ele>
        <time>2022-09-22T13:26:54Z</time>
      </trkpt>
      <trkpt lat="44.13249" lon="5.89479">
        <ele>819</ele>
        <time>2022-09-22T13:26:55Z</time>
      </trkpt>
      <trkpt lat="44.1325" lon="5.89481">
        <ele>819</ele>
        <time>2022-09-22T13:26:56Z</time>
      </trkpt>
      <trkpt lat="44.13251" lon="5.89482">
        <ele>819</ele>
        <time>2022-09-22T13:26:57Z</time>
      </trkpt>
      <trkpt lat="44.13251" lon="5.89484">
        <ele>819</ele>
        <time>2022-09-22T13:26:58Z</time>
      </trkpt>
      <trkpt lat="44.13252" lon="5.89485">
        <ele>819</ele>
        <time>2022-09-22T13:26:59Z</time>
      </trkpt>
      <trkpt lat="44.13252" lon="5.89486">
        <ele>818</ele>
        <time>2022-09-22T13:27:00Z</time>
      </trkpt>
      <trkpt lat="44.13252" lon="5.89487">
        <ele>818</ele>
        <time>2022-09-22T13:27:01Z</time>
      </trkpt>
      <trkpt lat="44.13253" lon="5.89489">
        <ele>818</ele>
        <time>2022-09-22T13:27:02Z</time>
      </trkpt>
      <trkpt lat="44.13253" lon="5.8949">
        <ele>818</ele>
        <time>2022-09-22T13:27:03Z</time>
      </trkpt>
      <trkpt lat="44.13253" lon="5.89491">
        <ele>818</ele>
        <time>2022-09-22T13:27:04Z</time>
      </trkpt>
      <trkpt lat="44.13254" lon="5.89492">
        <ele>818</ele>
        <time>2022-09-22T13:27:05Z</time>
      </trkpt>
      <trkpt lat="44.13255" lon="5.89493">
        <ele>818</ele>
        <time>2022-09-22T13:27:06Z</time>
      </trkpt>
      <trkpt lat="44.13255" lon="5.89494">
        <ele>818</ele>
        <time>2022-09-22T13:27:07Z</time>
      </trkpt>
      <trkpt lat="44.13256" lon="5.89496">
        <ele>818</ele>
        <time>2022-09-22T13:27:08Z</time>
      </trkpt>
      <trkpt lat="44.13257" lon="5.89497">
        <ele>818</ele>
        <time>2022-09-22T13:27:09Z</time>
      </trkpt>
      <trkpt lat="44.13257" lon="5.89498">
        <ele>817</ele>
        <time>2022-09-22T13:27:10Z</time>
      </trkpt>
      <trkpt lat="44.13258" lon="5.89499">
        <ele>817</ele>
        <time>2022-09-22T13:27:11Z</time>
      </trkpt>
      <trkpt lat="44.13259" lon="5.89501">
        <ele>817</ele>
        <time>2022-09-22T13:27:12Z</time>
      </trkpt>
      <trkpt lat="44.13259" lon="5.89502">
        <ele>817</ele>
        <time>2022-09-22T13:27:13Z</time>
      </trkpt>
      <trkpt lat="44.1326" lon="5.89504">
        <ele>817</ele>
        <time>2022-09-22T13:27:14Z</time>
      </trkpt>
      <trkpt lat="44.13261" lon="5.89505">
        <ele>817</ele>
        <time>2022-09-22T13:27:15Z</time>
      </trkpt>
      <trkpt lat="44.13261" lon="5.89506">
        <ele>817</ele>
        <time>2022-09-22T13:27:16Z</time>
      </trkpt>
      <trkpt lat="44.13262" lon="5.89507">
        <ele>817</ele>
        <time>2022-09-22T13:27:17Z</time>
      </trkpt>
      <trkpt lat="44.13263" lon="5.89508">
        <ele>817</ele>
        <time>2022-09-22T13:27:18Z</time>
      </trkpt>
      <trkpt lat="44.13264" lon="5.89509">
        <ele>817</ele>
        <time>2022-09-22T13:27:19Z</time>
      </trkpt>
      <trkpt lat="44.13264" lon="5.89509">
        <ele>817</ele>
        <time>2022-09-22T13:27:20Z</time>
      </trkpt>
      <trkpt lat="44.13265" lon="5.8951">
        <ele>817</ele>
        <time>2022-09-22T13:27:21Z</time>
      </trkpt>
      <trkpt lat="44.13266" lon="5.89511">
        <ele>817</ele>
        <time>2022-09-22T13:27:22Z</time>
      </trkpt>
      <trkpt lat="44.13267" lon="5.89512">
        <ele>817</ele>
        <time>2022-09-22T13:27:23Z</time>
      </trkpt>
      <trkpt lat="44.13268" lon="5.89513">
        <ele>817</ele>
        <time>2022-09-22T13:27:24Z</time>
      </trkpt>
      <trkpt lat="44.13269" lon="5.89514">
        <ele>816</ele>
        <time>2022-09-22T13:27:25Z</time>
      </trkpt>
      <trkpt lat="44.1327" lon="5.89515">
        <ele>816</ele>
        <time>2022-09-22T13:27:26Z</time>
      </trkpt>
      <trkpt lat="44.13271" lon="5.89516">
        <ele>816</ele>
        <time>2022-09-22T13:27:27Z</time>
      </trkpt>
      <trkpt lat="44.13271" lon="5.89517">
        <ele>816</ele>
        <time>2022-09-22T13:27:28Z</time>
      </trkpt>
      <trkpt lat="44.13272" lon="5.89517">
        <ele>816</ele>
        <time>2022-09-22T13:27:29Z</time>
      </trkpt>
      <trkpt lat="44.13273" lon="5.89518">
        <ele>816</ele>
        <time>2022-09-22T13:27:30Z</time>
      </trkpt>
      <trkpt lat="44.13273" lon="5.89519">
        <ele>816</ele>
        <time>2022-09-22T13:27:31Z</time>
      </trkpt>
      <trkpt lat="44.13274" lon="5.89519">
        <ele>816</ele>
        <time>2022-09-22T13:27:32Z</time>
      </trkpt>
      <trkpt lat="44.13275" lon="5.8952">
        <ele>816</ele>
        <time>2022-09-22T13:27:33Z</time>
      </trkpt>
      <trkpt lat="44.13275" lon="5.89521">
        <ele>816</ele>
        <time>2022-09-22T13:27:34Z</time>
      </trkpt>
      <trkpt lat="44.13276" lon="5.89522">
        <ele>816</ele>
        <time>2022-09-22T13:27:35Z</time>
      </trkpt>
      <trkpt lat="44.13277" lon="5.89523">
        <ele>816</ele>
        <time>2022-09-22T13:27:36Z</time>
      </trkpt>
      <trkpt lat="44.13278" lon="5.89524">
        <ele>816</ele>
        <time>2022-09-22T13:27:37Z</time>
      </trkpt>
      <trkpt lat="44.13279" lon="5.89525">
        <ele>816</ele>
        <time>2022-09-22T13:27:38Z</time>
      </trkpt>
      <trkpt lat="44.13279" lon="5.89526">
        <ele>816</ele>
        <time>2022-09-22T13:27:39Z</time>
      </trkpt>
      <trkpt lat="44.1328" lon="5.89526">
        <ele>815</ele>
        <time>2022-09-22T13:27:40Z</time>
      </trkpt>
      <trkpt lat="44.13281" lon="5.89527">
        <ele>815</ele>
        <time>2022-09-22T13:27:41Z</time>
      </trkpt>
      <trkpt lat="44.13282" lon="5.89528">
        <ele>815</ele>
        <time>2022-09-22T13:27:42Z</time>
      </trkpt>
      <trkpt lat="44.13283" lon="5.89528">
        <ele>815</ele>
        <time>2022-09-22T13:27:43Z</time>
      </trkpt>
      <trkpt lat="44.13284" lon="5.89529">
        <ele>815</ele>
        <time>2022-09-22T13:27:44Z</time>
      </trkpt>
      <trkpt lat="44.13285" lon="5.8953">
        <ele>815</ele>
        <time>2022-09-22T13:27:45Z</time>
      </trkpt>
      <trkpt lat="44.13286" lon="5.8953">
        <ele>815</ele>
        <time>2022-09-22T13:27:46Z</time>
      </trkpt>
      <trkpt lat="44.13287" lon="5.89531">
        <ele>815</ele>
        <time>2022-09-22T13:27:47Z</time>
      </trkpt>
      <trkpt lat="44.13288" lon="5.89531">
        <ele>815</ele>
        <time>2022-09-22T13:27:48Z</time>
      </trkpt>
      <trkpt lat="44.13289" lon="5.89532">
        <ele>815</ele>
        <time>2022-09-22T13:27:49Z</time>
      </trkpt>
      <trkpt lat="44.13289" lon="5.89532">
        <ele>815</ele>
        <time>2022-09-22T13:27:50Z</time>
      </trkpt>
      <trkpt lat="44.1329" lon="5.89533">
        <ele>815</ele>
        <time>2022-09-22T13:27:51Z</time>
      </trkpt>
      <trkpt lat="44.13291" lon="5.89533">
        <ele>815</ele>
        <time>2022-09-22T13:27:52Z</time>
      </trkpt>
      <trkpt lat="44.13292" lon="5.89534">
        <ele>815</ele>
        <time>2022-09-22T13:27:53Z</time>
      </trkpt>
      <trkpt lat="44.13293" lon="5.89534">
        <ele>815</ele>
        <time>2022-09-22T13:27:54Z</time>
      </trkpt>
      <trkpt lat="44.13294" lon="5.89535">
        <ele>814</ele>
        <time>2022-09-22T13:27:55Z</time>
      </trkpt>
      <trkpt lat="44.13295" lon="5.89535">
        <ele>814</ele>
        <time>2022-09-22T13:27:56Z</time>
      </trkpt>
      <trkpt lat="44.13296" lon="5.89535">
        <ele>814</ele>
        <time>2022-09-22T13:27:57Z</time>
      </trkpt>
      <trkpt lat="44.13297" lon="5.89536">
        <ele>814</ele>
        <time>2022-09-22T13:27:58Z</time>
      </trkpt>
      <trkpt lat="44.13298" lon="5.89536">
        <ele>814</ele>
        <time>2022-09-22T13:27:59Z</time>
      </trkpt>
      <trkpt lat="44.13299" lon="5.89537">
        <ele>814</ele>
        <time>2022-09-22T13:28:00Z</time>
      </trkpt>
      <trkpt lat="44.133" lon="5.89537">
        <ele>814</ele>
        <time>2022-09-22T13:28:01Z</time>
      </trkpt>
      <trkpt lat="44.13301" lon="5.89537">
        <ele>814</ele>
        <time>2022-09-22T13:28:02Z</time>
      </trkpt>
      <trkpt lat="44.13302" lon="5.89538">
        <ele>814</ele>
        <time>2022-09-22T13:28:03Z</time>
      </trkpt>
      <trkpt lat="44.13303" lon="5.89538">
        <ele>814</ele>
        <time>2022-09-22T13:28:04Z</time>
      </trkpt>
      <trkpt lat="44.13304" lon="5.89538">
        <ele>814</ele>
        <time>2022-09-22T13:28:05Z</time>
      </trkpt>
      <trkpt lat="44.13305" lon="5.89539">
        <ele>814</ele>
        <time>2022-09-22T13:28:06Z</time>
      </trkpt>
      <trkpt lat="44.13306" lon="5.89539">
        <ele>814</ele>
        <time>2022-09-22T13:28:07Z</time>
      </trkpt>
      <trkpt lat="44.13307" lon="5.89539">
        <ele>814</ele>
        <time>2022-09-22T13:28:08Z</time>
      </trkpt>
      <trkpt lat="44.13308" lon="5.8954">
        <ele>814</ele>
        <time>2022-09-22T13:28:09Z</time>
      </trkpt>
      <trkpt lat="44.13309" lon="5.8954">
        <ele>814</ele>
        <time>2022-09-22T13:28:10Z</time>
      </trkpt>
      <trkpt lat="44.1331" lon="5.8954">
        <ele>814</ele>
        <time>2022-09-22T13:28:11Z</time>
      </trkpt>
      <trkpt lat="44.13312" lon="5.8954">
        <ele>814</ele>
        <time>2022-09-22T13:28:12Z</time>
      </trkpt>
      <trkpt lat="44.13313" lon="5.89541">
        <ele>814</ele>
        <time>2022-09-22T13:28:13Z</time>
      </trkpt>
      <trkpt lat="44.13314" lon="5.89541">
        <ele>814</ele>
        <time>2022-09-22T13:28:14Z</time>
      </trkpt>
      <trkpt lat="44.13316" lon="5.89541">
        <ele>814</ele>
        <time>2022-09-22T13:28:15Z</time>
      </trkpt>
      <trkpt lat="44.13317" lon="5.89541">
        <ele>814</ele>
        <time>2022-09-22T13:28:16Z</time>
      </trkpt>
      <trkpt lat="44.13319" lon="5.89541">
        <ele>814</ele>
        <time>2022-09-22T13:28:17Z</time>
      </trkpt>
      <trkpt lat="44.1332" lon="5.89542">
        <ele>814</ele>
        <time>2022-09-22T13:28:18Z</time>
      </trkpt>
      <trkpt lat="44.13321" lon="5.89542">
        <ele>814</ele>
        <time>2022-09-22T13:28:19Z</time>
      </trkpt>
      <trkpt lat="44.13322" lon="5.89542">
        <ele>813</ele>
        <time>2022-09-22T13:28:20Z</time>
      </trkpt>
      <trkpt lat="44.13323" lon="5.89542">
        <ele>813</ele>
        <time>2022-09-22T13:28:21Z</time>
      </trkpt>
      <trkpt lat="44.13324" lon="5.89543">
        <ele>813</ele>
        <time>2022-09-22T13:28:22Z</time>
      </trkpt>
      <trkpt lat="44.13325" lon="5.89543">
        <ele>813</ele>
        <time>2022-09-22T13:28:23Z</time>
      </trkpt>
      <trkpt lat="44.13326" lon="5.89543">
        <ele>813</ele>
        <time>2022-09-22T13:28:24Z</time>
      </trkpt>
      <trkpt lat="44.13328" lon="5.89543">
        <ele>813</ele>
        <time>2022-09-22T13:28:25Z</time>
      </trkpt>
      <trkpt lat="44.13329" lon="5.89543">
        <ele>813</ele>
        <time>2022-09-22T13:28:26Z</time>
      </trkpt>
      <trkpt lat="44.13331" lon="5.89543">
        <ele>813</ele>
        <time>2022-09-22T13:28:27Z</time>
      </trkpt>
      <trkpt lat="44.13332" lon="5.89543">
        <ele>813</ele>
        <time>2022-09-22T13:28:28Z</time>
      </trkpt>
      <trkpt lat="44.13334" lon="5.89542">
        <ele>813</ele>
        <time>2022-09-22T13:28:29Z</time>
      </trkpt>
      <trkpt lat="44.13335" lon="5.89542">
        <ele>813</ele>
        <time>2022-09-22T13:28:30Z</time>
      </trkpt>
      <trkpt lat="44.13336" lon="5.89542">
        <ele>813</ele>
        <time>2022-09-22T13:28:31Z</time>
      </trkpt>
      <trkpt lat="44.13337" lon="5.89542">
        <ele>813</ele>
        <time>2022-09-22T13:28:32Z</time>
      </trkpt>
      <trkpt lat="44.13338" lon="5.89542">
        <ele>813</ele>
        <time>2022-09-22T13:28:33Z</time>
      </trkpt>
      <trkpt lat="44.13339" lon="5.89542">
        <ele>813</ele>
        <time>2022-09-22T13:28:34Z</time>
      </trkpt>
      <trkpt lat="44.13339" lon="5.89542">
        <ele>813</ele>
        <time>2022-09-22T13:28:35Z</time>
      </trkpt>
      <trkpt lat="44.1334" lon="5.89543">
        <ele>813</ele>
        <time>2022-09-22T13:28:36Z</time>
      </trkpt>
      <trkpt lat="44.13341" lon="5.89543">
        <ele>813</ele>
        <time>2022-09-22T13:28:37Z</time>
      </trkpt>
      <trkpt lat="44.13342" lon="5.89543">
        <ele>813</ele>
        <time>2022-09-22T13:28:38Z</time>
      </trkpt>
      <trkpt lat="44.13343" lon="5.89543">
        <ele>813</ele>
        <time>2022-09-22T13:28:39Z</time>
      </trkpt>
      <trkpt lat="44.13343" lon="5.89543">
        <ele>812</ele>
        <time>2022-09-22T13:28:40Z</time>
      </trkpt>
      <trkpt lat="44.13344" lon="5.89543">
        <ele>812</ele>
        <time>2022-09-22T13:28:41Z</time>
      </trkpt>
      <trkpt lat="44.13345" lon="5.89543">
        <ele>812</ele>
        <time>2022-09-22T13:28:42Z</time>
      </trkpt>
      <trkpt lat="44.13346" lon="5.89542">
        <ele>812</ele>
        <time>2022-09-22T13:28:43Z</time>
      </trkpt>
      <trkpt lat="44.13346" lon="5.89542">
        <ele>812</ele>
        <time>2022-09-22T13:28:44Z</time>
      </trkpt>
      <trkpt lat="44.13347" lon="5.89542">
        <ele>812</ele>
        <time>2022-09-22T13:28:45Z</time>
      </trkpt>
      <trkpt lat="44.13347" lon="5.89543">
        <ele>812</ele>
        <time>2022-09-22T13:28:46Z</time>
      </trkpt>
      <trkpt lat="44.13348" lon="5.89543">
        <ele>812</ele>
        <time>2022-09-22T13:28:47Z</time>
      </trkpt>
      <trkpt lat="44.13349" lon="5.89543">
        <ele>812</ele>
        <time>2022-09-22T13:28:48Z</time>
      </trkpt>
      <trkpt lat="44.1335" lon="5.89544">
        <ele>812</ele>
        <time>2022-09-22T13:28:49Z</time>
      </trkpt>
      <trkpt lat="44.1335" lon="5.89544">
        <ele>812</ele>
        <time>2022-09-22T13:28:50Z</time>
      </trkpt>
      <trkpt lat="44.13351" lon="5.89545">
        <ele>812</ele>
        <time>2022-09-22T13:28:51Z</time>
      </trkpt>
      <trkpt lat="44.13352" lon="5.89545">
        <ele>812</ele>
        <time>2022-09-22T13:28:52Z</time>
      </trkpt>
      <trkpt lat="44.13353" lon="5.89546">
        <ele>812</ele>
        <time>2022-09-22T13:28:53Z</time>
      </trkpt>
      <trkpt lat="44.13354" lon="5.89546">
        <ele>812</ele>
        <time>2022-09-22T13:28:54Z</time>
      </trkpt>
      <trkpt lat="44.13354" lon="5.89547">
        <ele>811</ele>
        <time>2022-09-22T13:28:55Z</time>
      </trkpt>
      <trkpt lat="44.13356" lon="5.89547">
        <ele>811</ele>
        <time>2022-09-22T13:28:56Z</time>
      </trkpt>
      <trkpt lat="44.13357" lon="5.89548">
        <ele>811</ele>
        <time>2022-09-22T13:28:57Z</time>
      </trkpt>
      <trkpt lat="44.13358" lon="5.89549">
        <ele>811</ele>
        <time>2022-09-22T13:28:58Z</time>
      </trkpt>
      <trkpt lat="44.13359" lon="5.89549">
        <ele>811</ele>
        <time>2022-09-22T13:28:59Z</time>
      </trkpt>
      <trkpt lat="44.1336" lon="5.8955">
        <ele>810</ele>
        <time>2022-09-22T13:29:00Z</time>
      </trkpt>
      <trkpt lat="44.13361" lon="5.8955">
        <ele>810</ele>
        <time>2022-09-22T13:29:01Z</time>
      </trkpt>
      <trkpt lat="44.13362" lon="5.89551">
        <ele>810</ele>
        <time>2022-09-22T13:29:02Z</time>
      </trkpt>
      <trkpt lat="44.13363" lon="5.89551">
        <ele>810</ele>
        <time>2022-09-22T13:29:03Z</time>
      </trkpt>
      <trkpt lat="44.13364" lon="5.89552">
        <ele>810</ele>
        <time>2022-09-22T13:29:04Z</time>
      </trkpt>
      <trkpt lat="44.13365" lon="5.89552">
        <ele>810</ele>
        <time>2022-09-22T13:29:05Z</time>
      </trkpt>
      <trkpt lat="44.13366" lon="5.89553">
        <ele>810</ele>
        <time>2022-09-22T13:29:06Z</time>
      </trkpt>
      <trkpt lat="44.13366" lon="5.89554">
        <ele>810</ele>
        <time>2022-09-22T13:29:07Z</time>
      </trkpt>
      <trkpt lat="44.13367" lon="5.89554">
        <ele>810</ele>
        <time>2022-09-22T13:29:08Z</time>
      </trkpt>
      <trkpt lat="44.13368" lon="5.89555">
        <ele>810</ele>
        <time>2022-09-22T13:29:09Z</time>
      </trkpt>
      <trkpt lat="44.13368" lon="5.89556">
        <ele>809</ele>
        <time>2022-09-22T13:29:10Z</time>
      </trkpt>
      <trkpt lat="44.13369" lon="5.89557">
        <ele>809</ele>
        <time>2022-09-22T13:29:11Z</time>
      </trkpt>
      <trkpt lat="44.1337" lon="5.89557">
        <ele>809</ele>
        <time>2022-09-22T13:29:12Z</time>
      </trkpt>
      <trkpt lat="44.13371" lon="5.89558">
        <ele>809</ele>
        <time>2022-09-22T13:29:13Z</time>
      </trkpt>
      <trkpt lat="44.13372" lon="5.89559">
        <ele>809</ele>
        <time>2022-09-22T13:29:14Z</time>
      </trkpt>
      <trkpt lat="44.13373" lon="5.8956">
        <ele>809</ele>
        <time>2022-09-22T13:29:15Z</time>
      </trkpt>
      <trkpt lat="44.13374" lon="5.89561">
        <ele>809</ele>
        <time>2022-09-22T13:29:16Z</time>
      </trkpt>
      <trkpt lat="44.13375" lon="5.89562">
        <ele>809</ele>
        <time>2022-09-22T13:29:17Z</time>
      </trkpt>
      <trkpt lat="44.13376" lon="5.89562">
        <ele>809</ele>
        <time>2022-09-22T13:29:18Z</time>
      </trkpt>
      <trkpt lat="44.13377" lon="5.89562">
        <ele>809</ele>
        <time>2022-09-22T13:29:19Z</time>
      </trkpt>
      <trkpt lat="44.13378" lon="5.89563">
        <ele>808</ele>
        <time>2022-09-22T13:29:20Z</time>
      </trkpt>
      <trkpt lat="44.13379" lon="5.89563">
        <ele>808</ele>
        <time>2022-09-22T13:29:21Z</time>
      </trkpt>
      <trkpt lat="44.13381" lon="5.89563">
        <ele>808</ele>
        <time>2022-09-22T13:29:22Z</time>
      </trkpt>
      <trkpt lat="44.13382" lon="5.89563">
        <ele>808</ele>
        <time>2022-09-22T13:29:23Z</time>
      </trkpt>
      <trkpt lat="44.13383" lon="5.89562">
        <ele>808</ele>
        <time>2022-09-22T13:29:24Z</time>
      </trkpt>
      <trkpt lat="44.13385" lon="5.89563">
        <ele>808</ele>
        <time>2022-09-22T13:29:25Z</time>
      </trkpt>
      <trkpt lat="44.13386" lon="5.89563">
        <ele>808</ele>
        <time>2022-09-22T13:29:26Z</time>
      </trkpt>
      <trkpt lat="44.13387" lon="5.89563">
        <ele>808</ele>
        <time>2022-09-22T13:29:27Z</time>
      </trkpt>
      <trkpt lat="44.13388" lon="5.89563">
        <ele>808</ele>
        <time>2022-09-22T13:29:28Z</time>
      </trkpt>
      <trkpt lat="44.13389" lon="5.89564">
        <ele>808</ele>
        <time>2022-09-22T13:29:29Z</time>
      </trkpt>
      <trkpt lat="44.1339" lon="5.89564">
        <ele>807</ele>
        <time>2022-09-22T13:29:30Z</time>
      </trkpt>
      <trkpt lat="44.13391" lon="5.89564">
        <ele>807</ele>
        <time>2022-09-22T13:29:31Z</time>
      </trkpt>
      <trkpt lat="44.13392" lon="5.89565">
        <ele>807</ele>
        <time>2022-09-22T13:29:32Z</time>
      </trkpt>
      <trkpt lat="44.13394" lon="5.89565">
        <ele>807</ele>
        <time>2022-09-22T13:29:33Z</time>
      </trkpt>
      <trkpt lat="44.13395" lon="5.89565">
        <ele>807</ele>
        <time>2022-09-22T13:29:34Z</time>
      </trkpt>
      <trkpt lat="44.13396" lon="5.89565">
        <ele>807</ele>
        <time>2022-09-22T13:29:35Z</time>
      </trkpt>
      <trkpt lat="44.13397" lon="5.89565">
        <ele>807</ele>
        <time>2022-09-22T13:29:36Z</time>
      </trkpt>
      <trkpt lat="44.13399" lon="5.89565">
        <ele>807</ele>
        <time>2022-09-22T13:29:37Z</time>
      </trkpt>
      <trkpt lat="44.134" lon="5.89566">
        <ele>807</ele>
        <time>2022-09-22T13:29:38Z</time>
      </trkpt>
      <trkpt lat="44.13401" lon="5.89566">
        <ele>807</ele>
        <time>2022-09-22T13:29:39Z</time>
      </trkpt>
      <trkpt lat="44.13402" lon="5.89566">
        <ele>806</ele>
        <time>2022-09-22T13:29:40Z</time>
      </trkpt>
      <trkpt lat="44.13403" lon="5.89566">
        <ele>806</ele>
        <time>2022-09-22T13:29:41Z</time>
      </trkpt>
      <trkpt lat="44.13404" lon="5.89567">
        <ele>806</ele>
        <time>2022-09-22T13:29:42Z</time>
      </trkpt>
      <trkpt lat="44.13404" lon="5.89567">
        <ele>806</ele>
        <time>2022-09-22T13:29:43Z</time>
      </trkpt>
      <trkpt lat="44.13405" lon="5.89568">
        <ele>806</ele>
        <time>2022-09-22T13:29:44Z</time>
      </trkpt>
      <trkpt lat="44.13406" lon="5.89568">
        <ele>806</ele>
        <time>2022-09-22T13:29:45Z</time>
      </trkpt>
      <trkpt lat="44.13407" lon="5.89568">
        <ele>806</ele>
        <time>2022-09-22T13:29:46Z</time>
      </trkpt>
      <trkpt lat="44.13408" lon="5.89569">
        <ele>806</ele>
        <time>2022-09-22T13:29:47Z</time>
      </trkpt>
      <trkpt lat="44.13408" lon="5.89569">
        <ele>806</ele>
        <time>2022-09-22T13:29:48Z</time>
      </trkpt>
      <trkpt lat="44.13409" lon="5.8957">
        <ele>806</ele>
        <time>2022-09-22T13:29:49Z</time>
      </trkpt>
      <trkpt lat="44.1341" lon="5.8957">
        <ele>805</ele>
        <time>2022-09-22T13:29:50Z</time>
      </trkpt>
      <trkpt lat="44.13411" lon="5.8957">
        <ele>805</ele>
        <time>2022-09-22T13:29:51Z</time>
      </trkpt>
      <trkpt lat="44.13412" lon="5.8957">
        <ele>805</ele>
        <time>2022-09-22T13:29:52Z</time>
      </trkpt>
      <trkpt lat="44.13413" lon="5.89571">
        <ele>805</ele>
        <time>2022-09-22T13:29:53Z</time>
      </trkpt>
      <trkpt lat="44.13414" lon="5.89571">
        <ele>805</ele>
        <time>2022-09-22T13:29:54Z</time>
      </trkpt>
      <trkpt lat="44.13415" lon="5.89571">
        <ele>805</ele>
        <time>2022-09-22T13:29:55Z</time>
      </trkpt>
      <trkpt lat="44.13415" lon="5.89571">
        <ele>805</ele>
        <time>2022-09-22T13:29:56Z</time>
      </trkpt>
      <trkpt lat="44.13416" lon="5.89571">
        <ele>805</ele>
        <time>2022-09-22T13:29:57Z</time>
      </trkpt>
      <trkpt lat="44.13417" lon="5.89571">
        <ele>805</ele>
        <time>2022-09-22T13:29:58Z</time>
      </trkpt>
      <trkpt lat="44.13418" lon="5.89571">
        <ele>805</ele>
        <time>2022-09-22T13:29:59Z</time>
      </trkpt>
      <trkpt lat="44.13419" lon="5.89571">
        <ele>804</ele>
        <time>2022-09-22T13:30:00Z</time>
      </trkpt>
      <trkpt lat="44.1342" lon="5.89572">
        <ele>804</ele>
        <time>2022-09-22T13:30:01Z</time>
      </trkpt>
      <trkpt lat="44.13421" lon="5.89572">
        <ele>804</ele>
        <time>2022-09-22T13:30:02Z</time>
      </trkpt>
      <trkpt lat="44.13421" lon="5.89572">
        <ele>804</ele>
        <time>2022-09-22T13:30:03Z</time>
      </trkpt>
      <trkpt lat="44.13422" lon="5.89572">
        <ele>804</ele>
        <time>2022-09-22T13:30:04Z</time>
      </trkpt>
      <trkpt lat="44.13423" lon="5.89572">
        <ele>804</ele>
        <time>2022-09-22T13:30:05Z</time>
      </trkpt>
      <trkpt lat="44.13424" lon="5.89572">
        <ele>804</ele>
        <time>2022-09-22T13:30:06Z</time>
      </trkpt>
      <trkpt lat="44.13425" lon="5.89571">
        <ele>804</ele>
        <time>2022-09-22T13:30:07Z</time>
      </trkpt>
      <trkpt lat="44.13426" lon="5.89571">
        <ele>804</ele>
        <time>2022-09-22T13:30:08Z</time>
      </trkpt>
      <trkpt lat="44.13426" lon="5.89571">
        <ele>804</ele>
        <time>2022-09-22T13:30:09Z</time>
      </trkpt>
      <trkpt lat="44.13427" lon="5.89571">
        <ele>803</ele>
        <time>2022-09-22T13:30:10Z</time>
      </trkpt>
      <trkpt lat="44.13428" lon="5.8957">
        <ele>803</ele>
        <time>2022-09-22T13:30:11Z</time>
      </trkpt>
      <trkpt lat="44.13429" lon="5.8957">
        <ele>803</ele>
        <time>2022-09-22T13:30:12Z</time>
      </trkpt>
      <trkpt lat="44.1343" lon="5.8957">
        <ele>803</ele>
        <time>2022-09-22T13:30:13Z</time>
      </trkpt>
      <trkpt lat="44.13432" lon="5.8957">
        <ele>803</ele>
        <time>2022-09-22T13:30:14Z</time>
      </trkpt>
      <trkpt lat="44.13434" lon="5.89569">
        <ele>803</ele>
        <time>2022-09-22T13:30:15Z</time>
      </trkpt>
      <trkpt lat="44.13436" lon="5.89569">
        <ele>803</ele>
        <time>2022-09-22T13:30:16Z</time>
      </trkpt>
      <trkpt lat="44.13438" lon="5.89568">
        <ele>803</ele>
        <time>2022-09-22T13:30:17Z</time>
      </trkpt>
      <trkpt lat="44.13439" lon="5.89568">
        <ele>803</ele>
        <time>2022-09-22T13:30:18Z</time>
      </trkpt>
      <trkpt lat="44.13441" lon="5.89567">
        <ele>803</ele>
        <time>2022-09-22T13:30:19Z</time>
      </trkpt>
      <trkpt lat="44.13442" lon="5.89566">
        <ele>803</ele>
        <time>2022-09-22T13:30:20Z</time>
      </trkpt>
      <trkpt lat="44.13443" lon="5.89566">
        <ele>803</ele>
        <time>2022-09-22T13:30:21Z</time>
      </trkpt>
      <trkpt lat="44.13444" lon="5.89565">
        <ele>803</ele>
        <time>2022-09-22T13:30:22Z</time>
      </trkpt>
      <trkpt lat="44.13445" lon="5.89564">
        <ele>803</ele>
        <time>2022-09-22T13:30:23Z</time>
      </trkpt>
      <trkpt lat="44.13446" lon="5.89564">
        <ele>803</ele>
        <time>2022-09-22T13:30:24Z</time>
      </trkpt>
      <trkpt lat="44.13447" lon="5.89563">
        <ele>802</ele>
        <time>2022-09-22T13:30:25Z</time>
      </trkpt>
      <trkpt lat="44.13448" lon="5.89563">
        <ele>802</ele>
        <time>2022-09-22T13:30:26Z</time>
      </trkpt>
      <trkpt lat="44.13449" lon="5.89562">
        <ele>802</ele>
        <time>2022-09-22T13:30:27Z</time>
      </trkpt>
      <trkpt lat="44.13449" lon="5.89561">
        <ele>802</ele>
        <time>2022-09-22T13:30:28Z</time>
      </trkpt>
      <trkpt lat="44.1345" lon="5.89561">
        <ele>802</ele>
        <time>2022-09-22T13:30:29Z</time>
      </trkpt>
      <trkpt lat="44.13451" lon="5.8956">
        <ele>802</ele>
        <time>2022-09-22T13:30:30Z</time>
      </trkpt>
      <trkpt lat="44.13452" lon="5.8956">
        <ele>802</ele>
        <time>2022-09-22T13:30:31Z</time>
      </trkpt>
      <trkpt lat="44.13453" lon="5.89559">
        <ele>802</ele>
        <time>2022-09-22T13:30:32Z</time>
      </trkpt>
      <trkpt lat="44.13453" lon="5.89559">
        <ele>802</ele>
        <time>2022-09-22T13:30:33Z</time>
      </trkpt>
      <trkpt lat="44.13454" lon="5.89558">
        <ele>802</ele>
        <time>2022-09-22T13:30:34Z</time>
      </trkpt>
      <trkpt lat="44.13455" lon="5.89558">
        <ele>802</ele>
        <time>2022-09-22T13:30:35Z</time>
      </trkpt>
      <trkpt lat="44.13455" lon="5.89557">
        <ele>802</ele>
        <time>2022-09-22T13:30:36Z</time>
      </trkpt>
      <trkpt lat="44.13456" lon="5.89557">
        <ele>802</ele>
        <time>2022-09-22T13:30:37Z</time>
      </trkpt>
      <trkpt lat="44.13457" lon="5.89556">
        <ele>802</ele>
        <time>2022-09-22T13:30:38Z</time>
      </trkpt>
      <trkpt lat="44.13458" lon="5.89555">
        <ele>802</ele>
        <time>2022-09-22T13:30:39Z</time>
      </trkpt>
      <trkpt lat="44.13459" lon="5.89554">
        <ele>801</ele>
        <time>2022-09-22T13:30:40Z</time>
      </trkpt>
      <trkpt lat="44.1346" lon="5.89553">
        <ele>801</ele>
        <time>2022-09-22T13:30:41Z</time>
      </trkpt>
      <trkpt lat="44.13461" lon="5.89552">
        <ele>801</ele>
        <time>2022-09-22T13:30:42Z</time>
      </trkpt>
      <trkpt lat="44.13461" lon="5.89551">
        <ele>801</ele>
        <time>2022-09-22T13:30:43Z</time>
      </trkpt>
      <trkpt lat="44.13462" lon="5.89551">
        <ele>801</ele>
        <time>2022-09-22T13:30:44Z</time>
      </trkpt>
      <trkpt lat="44.13463" lon="5.8955">
        <ele>801</ele>
        <time>2022-09-22T13:30:45Z</time>
      </trkpt>
      <trkpt lat="44.13463" lon="5.89549">
        <ele>801</ele>
        <time>2022-09-22T13:30:46Z</time>
      </trkpt>
      <trkpt lat="44.13464" lon="5.89548">
        <ele>801</ele>
        <time>2022-09-22T13:30:47Z</time>
      </trkpt>
      <trkpt lat="44.13465" lon="5.89547">
        <ele>801</ele>
        <time>2022-09-22T13:30:48Z</time>
      </trkpt>
      <trkpt lat="44.13466" lon="5.89546">
        <ele>801</ele>
        <time>2022-09-22T13:30:49Z</time>
      </trkpt>
      <trkpt lat="44.13467" lon="5.89545">
        <ele>801</ele>
        <time>2022-09-22T13:30:50Z</time>
      </trkpt>
      <trkpt lat="44.13467" lon="5.89544">
        <ele>801</ele>
        <time>2022-09-22T13:30:51Z</time>
      </trkpt>
      <trkpt lat="44.13468" lon="5.89544">
        <ele>801</ele>
        <time>2022-09-22T13:30:52Z</time>
      </trkpt>
      <trkpt lat="44.13469" lon="5.89543">
        <ele>801</ele>
        <time>2022-09-22T13:30:53Z</time>
      </trkpt>
      <trkpt lat="44.1347" lon="5.89542">
        <ele>801</ele>
        <time>2022-09-22T13:30:54Z</time>
      </trkpt>
      <trkpt lat="44.1347" lon="5.89542">
        <ele>800</ele>
        <time>2022-09-22T13:30:55Z</time>
      </trkpt>
      <trkpt lat="44.1347" lon="5.89541">
        <ele>800</ele>
        <time>2022-09-22T13:30:56Z</time>
      </trkpt>
      <trkpt lat="44.13471" lon="5.8954">
        <ele>799</ele>
        <time>2022-09-22T13:30:57Z</time>
      </trkpt>
      <trkpt lat="44.13472" lon="5.8954">
        <ele>799</ele>
        <time>2022-09-22T13:30:58Z</time>
      </trkpt>
      <trkpt lat="44.13473" lon="5.89539">
        <ele>799</ele>
        <time>2022-09-22T13:30:59Z</time>
      </trkpt>
      <trkpt lat="44.13475" lon="5.89538">
        <ele>799</ele>
        <time>2022-09-22T13:31:00Z</time>
      </trkpt>
      <trkpt lat="44.13476" lon="5.89537">
        <ele>799</ele>
        <time>2022-09-22T13:31:01Z</time>
      </trkpt>
      <trkpt lat="44.13477" lon="5.89536">
        <ele>799</ele>
        <time>2022-09-22T13:31:02Z</time>
      </trkpt>
      <trkpt lat="44.13479" lon="5.89536">
        <ele>799</ele>
        <time>2022-09-22T13:31:03Z</time>
      </trkpt>
      <trkpt lat="44.1348" lon="5.89535">
        <ele>799</ele>
        <time>2022-09-22T13:31:04Z</time>
      </trkpt>
      <trkpt lat="44.13481" lon="5.89533">
        <ele>798</ele>
        <time>2022-09-22T13:31:05Z</time>
      </trkpt>
      <trkpt lat="44.13481" lon="5.89532">
        <ele>798</ele>
        <time>2022-09-22T13:31:06Z</time>
      </trkpt>
      <trkpt lat="44.13482" lon="5.89531">
        <ele>798</ele>
        <time>2022-09-22T13:31:07Z</time>
      </trkpt>
      <trkpt lat="44.13483" lon="5.8953">
        <ele>798</ele>
        <time>2022-09-22T13:31:08Z</time>
      </trkpt>
      <trkpt lat="44.13483" lon="5.89528">
        <ele>798</ele>
        <time>2022-09-22T13:31:09Z</time>
      </trkpt>
      <trkpt lat="44.13484" lon="5.89527">
        <ele>798</ele>
        <time>2022-09-22T13:31:10Z</time>
      </trkpt>
      <trkpt lat="44.13485" lon="5.89526">
        <ele>798</ele>
        <time>2022-09-22T13:31:11Z</time>
      </trkpt>
      <trkpt lat="44.13485" lon="5.89525">
        <ele>798</ele>
        <time>2022-09-22T13:31:12Z</time>
      </trkpt>
      <trkpt lat="44.13486" lon="5.89524">
        <ele>798</ele>
        <time>2022-09-22T13:31:13Z</time>
      </trkpt>
      <trkpt lat="44.13486" lon="5.89523">
        <ele>798</ele>
        <time>2022-09-22T13:31:14Z</time>
      </trkpt>
      <trkpt lat="44.13487" lon="5.89522">
        <ele>797</ele>
        <time>2022-09-22T13:31:15Z</time>
      </trkpt>
      <trkpt lat="44.13488" lon="5.89521">
        <ele>797</ele>
        <time>2022-09-22T13:31:16Z</time>
      </trkpt>
      <trkpt lat="44.13489" lon="5.8952">
        <ele>797</ele>
        <time>2022-09-22T13:31:17Z</time>
      </trkpt>
      <trkpt lat="44.1349" lon="5.8952">
        <ele>797</ele>
        <time>2022-09-22T13:31:18Z</time>
      </trkpt>
      <trkpt lat="44.13491" lon="5.89519">
        <ele>797</ele>
        <time>2022-09-22T13:31:19Z</time>
      </trkpt>
      <trkpt lat="44.13492" lon="5.89518">
        <ele>797</ele>
        <time>2022-09-22T13:31:20Z</time>
      </trkpt>
      <trkpt lat="44.13493" lon="5.89517">
        <ele>797</ele>
        <time>2022-09-22T13:31:21Z</time>
      </trkpt>
      <trkpt lat="44.13494" lon="5.89516">
        <ele>797</ele>
        <time>2022-09-22T13:31:22Z</time>
      </trkpt>
      <trkpt lat="44.13496" lon="5.89515">
        <ele>797</ele>
        <time>2022-09-22T13:31:23Z</time>
      </trkpt>
      <trkpt lat="44.13497" lon="5.89513">
        <ele>797</ele>
        <time>2022-09-22T13:31:24Z</time>
      </trkpt>
      <trkpt lat="44.13498" lon="5.89512">
        <ele>797</ele>
        <time>2022-09-22T13:31:25Z</time>
      </trkpt>
      <trkpt lat="44.13499" lon="5.89511">
        <ele>797</ele>
        <time>2022-09-22T13:31:26Z</time>
      </trkpt>
      <trkpt lat="44.13499" lon="5.89509">
        <ele>797</ele>
        <time>2022-09-22T13:31:27Z</time>
      </trkpt>
      <trkpt lat="44.135" lon="5.89508">
        <ele>797</ele>
        <time>2022-09-22T13:31:28Z</time>
      </trkpt>
      <trkpt lat="44.13501" lon="5.89507">
        <ele>797</ele>
        <time>2022-09-22T13:31:29Z</time>
      </trkpt>
      <trkpt lat="44.13501" lon="5.89506">
        <ele>797</ele>
        <time>2022-09-22T13:31:30Z</time>
      </trkpt>
      <trkpt lat="44.13502" lon="5.89505">
        <ele>797</ele>
        <time>2022-09-22T13:31:31Z</time>
      </trkpt>
      <trkpt lat="44.13502" lon="5.89504">
        <ele>797</ele>
        <time>2022-09-22T13:31:32Z</time>
      </trkpt>
      <trkpt lat="44.13503" lon="5.89502">
        <ele>797</ele>
        <time>2022-09-22T13:31:33Z</time>
      </trkpt>
      <trkpt lat="44.13503" lon="5.89501">
        <ele>797</ele>
        <time>2022-09-22T13:31:34Z</time>
      </trkpt>
      <trkpt lat="44.13504" lon="5.895">
        <ele>796</ele>
        <time>2022-09-22T13:31:35Z</time>
      </trkpt>
      <trkpt lat="44.13504" lon="5.89498">
        <ele>796</ele>
        <time>2022-09-22T13:31:36Z</time>
      </trkpt>
      <trkpt lat="44.13504" lon="5.89497">
        <ele>796</ele>
        <time>2022-09-22T13:31:37Z</time>
      </trkpt>
      <trkpt lat="44.13505" lon="5.89495">
        <ele>796</ele>
        <time>2022-09-22T13:31:38Z</time>
      </trkpt>
      <trkpt lat="44.13505" lon="5.89494">
        <ele>796</ele>
        <time>2022-09-22T13:31:39Z</time>
      </trkpt>
      <trkpt lat="44.13505" lon="5.89492">
        <ele>796</ele>
        <time>2022-09-22T13:31:40Z</time>
      </trkpt>
      <trkpt lat="44.13505" lon="5.89491">
        <ele>796</ele>
        <time>2022-09-22T13:31:41Z</time>
      </trkpt>
      <trkpt lat="44.13506" lon="5.8949">
        <ele>796</ele>
        <time>2022-09-22T13:31:42Z</time>
      </trkpt>
      <trkpt lat="44.13506" lon="5.89489">
        <ele>796</ele>
        <time>2022-09-22T13:31:43Z</time>
      </trkpt>
      <trkpt lat="44.13506" lon="5.89488">
        <ele>796</ele>
        <time>2022-09-22T13:31:44Z</time>
      </trkpt>
      <trkpt lat="44.13507" lon="5.89487">
        <ele>796</ele>
        <time>2022-09-22T13:31:45Z</time>
      </trkpt>
      <trkpt lat="44.13507" lon="5.89486">
        <ele>796</ele>
        <time>2022-09-22T13:31:46Z</time>
      </trkpt>
      <trkpt lat="44.13507" lon="5.89485">
        <ele>796</ele>
        <time>2022-09-22T13:31:47Z</time>
      </trkpt>
      <trkpt lat="44.13508" lon="5.89484">
        <ele>796</ele>
        <time>2022-09-22T13:31:48Z</time>
      </trkpt>
      <trkpt lat="44.13508" lon="5.89483">
        <ele>796</ele>
        <time>2022-09-22T13:31:49Z</time>
      </trkpt>
      <trkpt lat="44.13509" lon="5.89481">
        <ele>795</ele>
        <time>2022-09-22T13:31:50Z</time>
      </trkpt>
      <trkpt lat="44.13509" lon="5.8948">
        <ele>795</ele>
        <time>2022-09-22T13:31:51Z</time>
      </trkpt>
      <trkpt lat="44.13509" lon="5.89478">
        <ele>795</ele>
        <time>2022-09-22T13:31:52Z</time>
      </trkpt>
      <trkpt lat="44.1351" lon="5.89476">
        <ele>795</ele>
        <time>2022-09-22T13:31:53Z</time>
      </trkpt>
      <trkpt lat="44.1351" lon="5.89475">
        <ele>795</ele>
        <time>2022-09-22T13:31:54Z</time>
      </trkpt>
      <trkpt lat="44.1351" lon="5.89473">
        <ele>795</ele>
        <time>2022-09-22T13:31:55Z</time>
      </trkpt>
      <trkpt lat="44.13511" lon="5.89472">
        <ele>795</ele>
        <time>2022-09-22T13:31:56Z</time>
      </trkpt>
      <trkpt lat="44.13511" lon="5.89471">
        <ele>795</ele>
        <time>2022-09-22T13:31:57Z</time>
      </trkpt>
      <trkpt lat="44.13512" lon="5.8947">
        <ele>795</ele>
        <time>2022-09-22T13:31:58Z</time>
      </trkpt>
      <trkpt lat="44.13513" lon="5.89469">
        <ele>795</ele>
        <time>2022-09-22T13:31:59Z</time>
      </trkpt>
      <trkpt lat="44.13513" lon="5.89468">
        <ele>795</ele>
        <time>2022-09-22T13:32:00Z</time>
      </trkpt>
      <trkpt lat="44.13514" lon="5.89466">
        <ele>795</ele>
        <time>2022-09-22T13:32:01Z</time>
      </trkpt>
      <trkpt lat="44.13515" lon="5.89465">
        <ele>795</ele>
        <time>2022-09-22T13:32:02Z</time>
      </trkpt>
      <trkpt lat="44.13515" lon="5.89464">
        <ele>795</ele>
        <time>2022-09-22T13:32:03Z</time>
      </trkpt>
      <trkpt lat="44.13515" lon="5.89462">
        <ele>795</ele>
        <time>2022-09-22T13:32:04Z</time>
      </trkpt>
      <trkpt lat="44.13516" lon="5.89461">
        <ele>795</ele>
        <time>2022-09-22T13:32:05Z</time>
      </trkpt>
      <trkpt lat="44.13516" lon="5.8946">
        <ele>795</ele>
        <time>2022-09-22T13:32:06Z</time>
      </trkpt>
      <trkpt lat="44.13517" lon="5.89458">
        <ele>795</ele>
        <time>2022-09-22T13:32:07Z</time>
      </trkpt>
      <trkpt lat="44.13517" lon="5.89457">
        <ele>795</ele>
        <time>2022-09-22T13:32:08Z</time>
      </trkpt>
      <trkpt lat="44.13518" lon="5.89456">
        <ele>795</ele>
        <time>2022-09-22T13:32:09Z</time>
      </trkpt>
      <trkpt lat="44.13518" lon="5.89455">
        <ele>794</ele>
        <time>2022-09-22T13:32:10Z</time>
      </trkpt>
      <trkpt lat="44.13518" lon="5.89453">
        <ele>794</ele>
        <time>2022-09-22T13:32:11Z</time>
      </trkpt>
      <trkpt lat="44.13518" lon="5.89452">
        <ele>794</ele>
        <time>2022-09-22T13:32:12Z</time>
      </trkpt>
      <trkpt lat="44.13519" lon="5.8945">
        <ele>794</ele>
        <time>2022-09-22T13:32:13Z</time>
      </trkpt>
      <trkpt lat="44.13519" lon="5.89449">
        <ele>794</ele>
        <time>2022-09-22T13:32:14Z</time>
      </trkpt>
      <trkpt lat="44.13519" lon="5.89447">
        <ele>794</ele>
        <time>2022-09-22T13:32:15Z</time>
      </trkpt>
      <trkpt lat="44.13519" lon="5.89446">
        <ele>794</ele>
        <time>2022-09-22T13:32:16Z</time>
      </trkpt>
      <trkpt lat="44.13519" lon="5.89444">
        <ele>794</ele>
        <time>2022-09-22T13:32:17Z</time>
      </trkpt>
      <trkpt lat="44.13519" lon="5.89442">
        <ele>794</ele>
        <time>2022-09-22T13:32:18Z</time>
      </trkpt>
      <trkpt lat="44.13519" lon="5.89441">
        <ele>794</ele>
        <time>2022-09-22T13:32:19Z</time>
      </trkpt>
      <trkpt lat="44.13519" lon="5.89439">
        <ele>794</ele>
        <time>2022-09-22T13:32:20Z</time>
      </trkpt>
      <trkpt lat="44.13519" lon="5.89437">
        <ele>794</ele>
        <time>2022-09-22T13:32:21Z</time>
      </trkpt>
      <trkpt lat="44.1352" lon="5.89436">
        <ele>794</ele>
        <time>2022-09-22T13:32:22Z</time>
      </trkpt>
      <trkpt lat="44.1352" lon="5.89434">
        <ele>794</ele>
        <time>2022-09-22T13:32:23Z</time>
      </trkpt>
      <trkpt lat="44.13521" lon="5.89432">
        <ele>794</ele>
        <time>2022-09-22T13:32:24Z</time>
      </trkpt>
      <trkpt lat="44.13522" lon="5.8943">
        <ele>794</ele>
        <time>2022-09-22T13:32:25Z</time>
      </trkpt>
      <trkpt lat="44.13523" lon="5.89428">
        <ele>794</ele>
        <time>2022-09-22T13:32:26Z</time>
      </trkpt>
      <trkpt lat="44.13523" lon="5.89426">
        <ele>794</ele>
        <time>2022-09-22T13:32:27Z</time>
      </trkpt>
      <trkpt lat="44.13524" lon="5.89424">
        <ele>794</ele>
        <time>2022-09-22T13:32:28Z</time>
      </trkpt>
      <trkpt lat="44.13525" lon="5.89422">
        <ele>794</ele>
        <time>2022-09-22T13:32:29Z</time>
      </trkpt>
      <trkpt lat="44.13525" lon="5.89421">
        <ele>793</ele>
        <time>2022-09-22T13:32:30Z</time>
      </trkpt>
      <trkpt lat="44.13526" lon="5.89419">
        <ele>793</ele>
        <time>2022-09-22T13:32:31Z</time>
      </trkpt>
      <trkpt lat="44.13526" lon="5.89418">
        <ele>793</ele>
        <time>2022-09-22T13:32:32Z</time>
      </trkpt>
      <trkpt lat="44.13527" lon="5.89417">
        <ele>793</ele>
        <time>2022-09-22T13:32:33Z</time>
      </trkpt>
      <trkpt lat="44.13527" lon="5.89415">
        <ele>793</ele>
        <time>2022-09-22T13:32:34Z</time>
      </trkpt>
      <trkpt lat="44.13527" lon="5.89414">
        <ele>793</ele>
        <time>2022-09-22T13:32:35Z</time>
      </trkpt>
      <trkpt lat="44.13527" lon="5.89413">
        <ele>793</ele>
        <time>2022-09-22T13:32:36Z</time>
      </trkpt>
      <trkpt lat="44.13527" lon="5.89411">
        <ele>793</ele>
        <time>2022-09-22T13:32:37Z</time>
      </trkpt>
      <trkpt lat="44.13527" lon="5.8941">
        <ele>793</ele>
        <time>2022-09-22T13:32:38Z</time>
      </trkpt>
      <trkpt lat="44.13527" lon="5.89408">
        <ele>793</ele>
        <time>2022-09-22T13:32:39Z</time>
      </trkpt>
      <trkpt lat="44.13527" lon="5.89407">
        <ele>793</ele>
        <time>2022-09-22T13:32:40Z</time>
      </trkpt>
      <trkpt lat="44.13527" lon="5.89406">
        <ele>793</ele>
        <time>2022-09-22T13:32:41Z</time>
      </trkpt>
      <trkpt lat="44.13527" lon="5.89404">
        <ele>793</ele>
        <time>2022-09-22T13:32:42Z</time>
      </trkpt>
      <trkpt lat="44.13527" lon="5.89403">
        <ele>793</ele>
        <time>2022-09-22T13:32:43Z</time>
      </trkpt>
      <trkpt lat="44.13527" lon="5.89401">
        <ele>793</ele>
        <time>2022-09-22T13:32:44Z</time>
      </trkpt>
      <trkpt lat="44.13527" lon="5.894">
        <ele>793</ele>
        <time>2022-09-22T13:32:45Z</time>
      </trkpt>
      <trkpt lat="44.13527" lon="5.89398">
        <ele>793</ele>
        <time>2022-09-22T13:32:46Z</time>
      </trkpt>
      <trkpt lat="44.13527" lon="5.89396">
        <ele>793</ele>
        <time>2022-09-22T13:32:47Z</time>
      </trkpt>
      <trkpt lat="44.13528" lon="5.89395">
        <ele>793</ele>
        <time>2022-09-22T13:32:48Z</time>
      </trkpt>
      <trkpt lat="44.13528" lon="5.89392">
        <ele>793</ele>
        <time>2022-09-22T13:32:49Z</time>
      </trkpt>
      <trkpt lat="44.13528" lon="5.8939">
        <ele>793</ele>
        <time>2022-09-22T13:32:50Z</time>
      </trkpt>
      <trkpt lat="44.13529" lon="5.89388">
        <ele>793</ele>
        <time>2022-09-22T13:32:51Z</time>
      </trkpt>
      <trkpt lat="44.1353" lon="5.89386">
        <ele>793</ele>
        <time>2022-09-22T13:32:52Z</time>
      </trkpt>
      <trkpt lat="44.1353" lon="5.89384">
        <ele>793</ele>
        <time>2022-09-22T13:32:53Z</time>
      </trkpt>
      <trkpt lat="44.1353" lon="5.89382">
        <ele>793</ele>
        <time>2022-09-22T13:32:54Z</time>
      </trkpt>
      <trkpt lat="44.1353" lon="5.8938">
        <ele>793</ele>
        <time>2022-09-22T13:32:55Z</time>
      </trkpt>
      <trkpt lat="44.1353" lon="5.89379">
        <ele>793</ele>
        <time>2022-09-22T13:32:56Z</time>
      </trkpt>
      <trkpt lat="44.1353" lon="5.89377">
        <ele>793</ele>
        <time>2022-09-22T13:32:57Z</time>
      </trkpt>
      <trkpt lat="44.1353" lon="5.89376">
        <ele>793</ele>
        <time>2022-09-22T13:32:58Z</time>
      </trkpt>
      <trkpt lat="44.13531" lon="5.89375">
        <ele>793</ele>
        <time>2022-09-22T13:32:59Z</time>
      </trkpt>
      <trkpt lat="44.13531" lon="5.89373">
        <ele>792</ele>
        <time>2022-09-22T13:33:00Z</time>
      </trkpt>
      <trkpt lat="44.13531" lon="5.89372">
        <ele>792</ele>
        <time>2022-09-22T13:33:01Z</time>
      </trkpt>
      <trkpt lat="44.13531" lon="5.89371">
        <ele>792</ele>
        <time>2022-09-22T13:33:02Z</time>
      </trkpt>
      <trkpt lat="44.13531" lon="5.89369">
        <ele>792</ele>
        <time>2022-09-22T13:33:03Z</time>
      </trkpt>
      <trkpt lat="44.13531" lon="5.89368">
        <ele>792</ele>
        <time>2022-09-22T13:33:04Z</time>
      </trkpt>
      <trkpt lat="44.13532" lon="5.89367">
        <ele>792</ele>
        <time>2022-09-22T13:33:05Z</time>
      </trkpt>
      <trkpt lat="44.13532" lon="5.89366">
        <ele>792</ele>
        <time>2022-09-22T13:33:06Z</time>
      </trkpt>
      <trkpt lat="44.13532" lon="5.89365">
        <ele>792</ele>
        <time>2022-09-22T13:33:07Z</time>
      </trkpt>
      <trkpt lat="44.13532" lon="5.89364">
        <ele>792</ele>
        <time>2022-09-22T13:33:08Z</time>
      </trkpt>
      <trkpt lat="44.13532" lon="5.89363">
        <ele>792</ele>
        <time>2022-09-22T13:33:09Z</time>
      </trkpt>
      <trkpt lat="44.13533" lon="5.89362">
        <ele>792</ele>
        <time>2022-09-22T13:33:10Z</time>
      </trkpt>
      <trkpt lat="44.13533" lon="5.89361">
        <ele>792</ele>
        <time>2022-09-22T13:33:11Z</time>
      </trkpt>
      <trkpt lat="44.13534" lon="5.8936">
        <ele>792</ele>
        <time>2022-09-22T13:33:12Z</time>
      </trkpt>
      <trkpt lat="44.13534" lon="5.89359">
        <ele>792</ele>
        <time>2022-09-22T13:33:13Z</time>
      </trkpt>
      <trkpt lat="44.13535" lon="5.89358">
        <ele>792</ele>
        <time>2022-09-22T13:33:14Z</time>
      </trkpt>
      <trkpt lat="44.13535" lon="5.89357">
        <ele>791</ele>
        <time>2022-09-22T13:33:15Z</time>
      </trkpt>
      <trkpt lat="44.13536" lon="5.89356">
        <ele>791</ele>
        <time>2022-09-22T13:33:16Z</time>
      </trkpt>
      <trkpt lat="44.13536" lon="5.89354">
        <ele>791</ele>
        <time>2022-09-22T13:33:17Z</time>
      </trkpt>
      <trkpt lat="44.13537" lon="5.89352">
        <ele>791</ele>
        <time>2022-09-22T13:33:18Z</time>
      </trkpt>
      <trkpt lat="44.13538" lon="5.89351">
        <ele>791</ele>
        <time>2022-09-22T13:33:19Z</time>
      </trkpt>
      <trkpt lat="44.13538" lon="5.89349">
        <ele>791</ele>
        <time>2022-09-22T13:33:20Z</time>
      </trkpt>
      <trkpt lat="44.13539" lon="5.89347">
        <ele>791</ele>
        <time>2022-09-22T13:33:21Z</time>
      </trkpt>
      <trkpt lat="44.13539" lon="5.89346">
        <ele>791</ele>
        <time>2022-09-22T13:33:22Z</time>
      </trkpt>
      <trkpt lat="44.13539" lon="5.89345">
        <ele>791</ele>
        <time>2022-09-22T13:33:23Z</time>
      </trkpt>
      <trkpt lat="44.1354" lon="5.89344">
        <ele>791</ele>
        <time>2022-09-22T13:33:24Z</time>
      </trkpt>
      <trkpt lat="44.1354" lon="5.89343">
        <ele>790</ele>
        <time>2022-09-22T13:33:25Z</time>
      </trkpt>
      <trkpt lat="44.1354" lon="5.89342">
        <ele>790</ele>
        <time>2022-09-22T13:33:26Z</time>
      </trkpt>
      <trkpt lat="44.1354" lon="5.89341">
        <ele>790</ele>
        <time>2022-09-22T13:33:27Z</time>
      </trkpt>
      <trkpt lat="44.13541" lon="5.8934">
        <ele>790</ele>
        <time>2022-09-22T13:33:28Z</time>
      </trkpt>
      <trkpt lat="44.13541" lon="5.89339">
        <ele>790</ele>
        <time>2022-09-22T13:33:29Z</time>
      </trkpt>
      <trkpt lat="44.13541" lon="5.89338">
        <ele>790</ele>
        <time>2022-09-22T13:33:30Z</time>
      </trkpt>
      <trkpt lat="44.13542" lon="5.89336">
        <ele>790</ele>
        <time>2022-09-22T13:33:31Z</time>
      </trkpt>
      <trkpt lat="44.13542" lon="5.89335">
        <ele>790</ele>
        <time>2022-09-22T13:33:32Z</time>
      </trkpt>
      <trkpt lat="44.13543" lon="5.89334">
        <ele>790</ele>
        <time>2022-09-22T13:33:33Z</time>
      </trkpt>
      <trkpt lat="44.13543" lon="5.89332">
        <ele>790</ele>
        <time>2022-09-22T13:33:34Z</time>
      </trkpt>
      <trkpt lat="44.13544" lon="5.89331">
        <ele>789</ele>
        <time>2022-09-22T13:33:35Z</time>
      </trkpt>
      <trkpt lat="44.13544" lon="5.8933">
        <ele>789</ele>
        <time>2022-09-22T13:33:36Z</time>
      </trkpt>
      <trkpt lat="44.13545" lon="5.89329">
        <ele>789</ele>
        <time>2022-09-22T13:33:37Z</time>
      </trkpt>
      <trkpt lat="44.13545" lon="5.89328">
        <ele>789</ele>
        <time>2022-09-22T13:33:38Z</time>
      </trkpt>
      <trkpt lat="44.13546" lon="5.89326">
        <ele>789</ele>
        <time>2022-09-22T13:33:39Z</time>
      </trkpt>
      <trkpt lat="44.13547" lon="5.89325">
        <ele>788</ele>
        <time>2022-09-22T13:33:40Z</time>
      </trkpt>
      <trkpt lat="44.13547" lon="5.89324">
        <ele>788</ele>
        <time>2022-09-22T13:33:41Z</time>
      </trkpt>
      <trkpt lat="44.13548" lon="5.89323">
        <ele>788</ele>
        <time>2022-09-22T13:33:42Z</time>
      </trkpt>
      <trkpt lat="44.13548" lon="5.89321">
        <ele>788</ele>
        <time>2022-09-22T13:33:43Z</time>
      </trkpt>
      <trkpt lat="44.13549" lon="5.8932">
        <ele>788</ele>
        <time>2022-09-22T13:33:44Z</time>
      </trkpt>
      <trkpt lat="44.13549" lon="5.89319">
        <ele>788</ele>
        <time>2022-09-22T13:33:45Z</time>
      </trkpt>
      <trkpt lat="44.1355" lon="5.89318">
        <ele>788</ele>
        <time>2022-09-22T13:33:46Z</time>
      </trkpt>
      <trkpt lat="44.1355" lon="5.89317">
        <ele>788</ele>
        <time>2022-09-22T13:33:47Z</time>
      </trkpt>
      <trkpt lat="44.1355" lon="5.89316">
        <ele>788</ele>
        <time>2022-09-22T13:33:48Z</time>
      </trkpt>
      <trkpt lat="44.1355" lon="5.89314">
        <ele>788</ele>
        <time>2022-09-22T13:33:49Z</time>
      </trkpt>
      <trkpt lat="44.13551" lon="5.89313">
        <ele>787</ele>
        <time>2022-09-22T13:33:50Z</time>
      </trkpt>
      <trkpt lat="44.13551" lon="5.89311">
        <ele>787</ele>
        <time>2022-09-22T13:33:51Z</time>
      </trkpt>
      <trkpt lat="44.13551" lon="5.8931">
        <ele>787</ele>
        <time>2022-09-22T13:33:52Z</time>
      </trkpt>
      <trkpt lat="44.13551" lon="5.89309">
        <ele>787</ele>
        <time>2022-09-22T13:33:53Z</time>
      </trkpt>
      <trkpt lat="44.13551" lon="5.89308">
        <ele>787</ele>
        <time>2022-09-22T13:33:54Z</time>
      </trkpt>
      <trkpt lat="44.13552" lon="5.89306">
        <ele>786</ele>
        <time>2022-09-22T13:33:55Z</time>
      </trkpt>
      <trkpt lat="44.13552" lon="5.89305">
        <ele>786</ele>
        <time>2022-09-22T13:33:56Z</time>
      </trkpt>
      <trkpt lat="44.13552" lon="5.89304">
        <ele>786</ele>
        <time>2022-09-22T13:33:57Z</time>
      </trkpt>
      <trkpt lat="44.13552" lon="5.89302">
        <ele>786</ele>
        <time>2022-09-22T13:33:58Z</time>
      </trkpt>
      <trkpt lat="44.13553" lon="5.89301">
        <ele>786</ele>
        <time>2022-09-22T13:33:59Z</time>
      </trkpt>
      <trkpt lat="44.13553" lon="5.893">
        <ele>786</ele>
        <time>2022-09-22T13:34:00Z</time>
      </trkpt>
      <trkpt lat="44.13553" lon="5.89299">
        <ele>786</ele>
        <time>2022-09-22T13:34:01Z</time>
      </trkpt>
      <trkpt lat="44.13554" lon="5.89298">
        <ele>786</ele>
        <time>2022-09-22T13:34:02Z</time>
      </trkpt>
      <trkpt lat="44.13554" lon="5.89296">
        <ele>786</ele>
        <time>2022-09-22T13:34:03Z</time>
      </trkpt>
      <trkpt lat="44.13554" lon="5.89295">
        <ele>786</ele>
        <time>2022-09-22T13:34:04Z</time>
      </trkpt>
      <trkpt lat="44.13554" lon="5.89293">
        <ele>785</ele>
        <time>2022-09-22T13:34:05Z</time>
      </trkpt>
      <trkpt lat="44.13555" lon="5.89292">
        <ele>785</ele>
        <time>2022-09-22T13:34:06Z</time>
      </trkpt>
      <trkpt lat="44.13555" lon="5.89291">
        <ele>785</ele>
        <time>2022-09-22T13:34:07Z</time>
      </trkpt>
      <trkpt lat="44.13555" lon="5.8929">
        <ele>785</ele>
        <time>2022-09-22T13:34:08Z</time>
      </trkpt>
      <trkpt lat="44.13556" lon="5.89288">
        <ele>785</ele>
        <time>2022-09-22T13:34:09Z</time>
      </trkpt>
      <trkpt lat="44.13556" lon="5.89287">
        <ele>785</ele>
        <time>2022-09-22T13:34:10Z</time>
      </trkpt>
      <trkpt lat="44.13556" lon="5.89286">
        <ele>785</ele>
        <time>2022-09-22T13:34:11Z</time>
      </trkpt>
      <trkpt lat="44.13556" lon="5.89285">
        <ele>785</ele>
        <time>2022-09-22T13:34:12Z</time>
      </trkpt>
      <trkpt lat="44.13556" lon="5.89284">
        <ele>785</ele>
        <time>2022-09-22T13:34:13Z</time>
      </trkpt>
      <trkpt lat="44.13557" lon="5.89283">
        <ele>785</ele>
        <time>2022-09-22T13:34:14Z</time>
      </trkpt>
      <trkpt lat="44.13557" lon="5.89281">
        <ele>784</ele>
        <time>2022-09-22T13:34:15Z</time>
      </trkpt>
      <trkpt lat="44.13557" lon="5.8928">
        <ele>784</ele>
        <time>2022-09-22T13:34:16Z</time>
      </trkpt>
      <trkpt lat="44.13557" lon="5.89279">
        <ele>784</ele>
        <time>2022-09-22T13:34:17Z</time>
      </trkpt>
      <trkpt lat="44.13558" lon="5.89277">
        <ele>784</ele>
        <time>2022-09-22T13:34:18Z</time>
      </trkpt>
      <trkpt lat="44.13558" lon="5.89275">
        <ele>784</ele>
        <time>2022-09-22T13:34:19Z</time>
      </trkpt>
      <trkpt lat="44.13558" lon="5.89274">
        <ele>783</ele>
        <time>2022-09-22T13:34:20Z</time>
      </trkpt>
      <trkpt lat="44.13558" lon="5.89272">
        <ele>783</ele>
        <time>2022-09-22T13:34:21Z</time>
      </trkpt>
      <trkpt lat="44.13558" lon="5.89271">
        <ele>783</ele>
        <time>2022-09-22T13:34:22Z</time>
      </trkpt>
      <trkpt lat="44.13558" lon="5.89269">
        <ele>783</ele>
        <time>2022-09-22T13:34:23Z</time>
      </trkpt>
      <trkpt lat="44.13558" lon="5.89268">
        <ele>783</ele>
        <time>2022-09-22T13:34:24Z</time>
      </trkpt>
      <trkpt lat="44.13559" lon="5.89266">
        <ele>783</ele>
        <time>2022-09-22T13:34:25Z</time>
      </trkpt>
      <trkpt lat="44.13559" lon="5.89265">
        <ele>783</ele>
        <time>2022-09-22T13:34:26Z</time>
      </trkpt>
      <trkpt lat="44.1356" lon="5.89263">
        <ele>783</ele>
        <time>2022-09-22T13:34:27Z</time>
      </trkpt>
      <trkpt lat="44.1356" lon="5.89262">
        <ele>783</ele>
        <time>2022-09-22T13:34:28Z</time>
      </trkpt>
      <trkpt lat="44.1356" lon="5.8926">
        <ele>783</ele>
        <time>2022-09-22T13:34:29Z</time>
      </trkpt>
      <trkpt lat="44.13561" lon="5.89259">
        <ele>782</ele>
        <time>2022-09-22T13:34:30Z</time>
      </trkpt>
      <trkpt lat="44.13561" lon="5.89257">
        <ele>782</ele>
        <time>2022-09-22T13:34:31Z</time>
      </trkpt>
      <trkpt lat="44.13561" lon="5.89256">
        <ele>782</ele>
        <time>2022-09-22T13:34:32Z</time>
      </trkpt>
      <trkpt lat="44.1356" lon="5.89255">
        <ele>782</ele>
        <time>2022-09-22T13:34:33Z</time>
      </trkpt>
      <trkpt lat="44.1356" lon="5.89254">
        <ele>782</ele>
        <time>2022-09-22T13:34:34Z</time>
      </trkpt>
      <trkpt lat="44.1356" lon="5.89252">
        <ele>781</ele>
        <time>2022-09-22T13:34:35Z</time>
      </trkpt>
      <trkpt lat="44.1356" lon="5.89251">
        <ele>781</ele>
        <time>2022-09-22T13:34:36Z</time>
      </trkpt>
      <trkpt lat="44.1356" lon="5.8925">
        <ele>781</ele>
        <time>2022-09-22T13:34:37Z</time>
      </trkpt>
      <trkpt lat="44.13561" lon="5.89248">
        <ele>781</ele>
        <time>2022-09-22T13:34:38Z</time>
      </trkpt>
      <trkpt lat="44.13561" lon="5.89246">
        <ele>781</ele>
        <time>2022-09-22T13:34:39Z</time>
      </trkpt>
      <trkpt lat="44.13561" lon="5.89244">
        <ele>780</ele>
        <time>2022-09-22T13:34:40Z</time>
      </trkpt>
      <trkpt lat="44.13561" lon="5.89242">
        <ele>780</ele>
        <time>2022-09-22T13:34:41Z</time>
      </trkpt>
      <trkpt lat="44.13562" lon="5.8924">
        <ele>780</ele>
        <time>2022-09-22T13:34:42Z</time>
      </trkpt>
      <trkpt lat="44.13562" lon="5.89239">
        <ele>780</ele>
        <time>2022-09-22T13:34:43Z</time>
      </trkpt>
      <trkpt lat="44.13563" lon="5.89237">
        <ele>780</ele>
        <time>2022-09-22T13:34:44Z</time>
      </trkpt>
      <trkpt lat="44.13563" lon="5.89235">
        <ele>779</ele>
        <time>2022-09-22T13:34:45Z</time>
      </trkpt>
      <trkpt lat="44.13564" lon="5.89234">
        <ele>779</ele>
        <time>2022-09-22T13:34:46Z</time>
      </trkpt>
      <trkpt lat="44.13564" lon="5.89233">
        <ele>779</ele>
        <time>2022-09-22T13:34:47Z</time>
      </trkpt>
      <trkpt lat="44.13564" lon="5.89231">
        <ele>779</ele>
        <time>2022-09-22T13:34:48Z</time>
      </trkpt>
      <trkpt lat="44.13563" lon="5.8923">
        <ele>779</ele>
        <time>2022-09-22T13:34:49Z</time>
      </trkpt>
      <trkpt lat="44.13563" lon="5.89229">
        <ele>779</ele>
        <time>2022-09-22T13:34:50Z</time>
      </trkpt>
      <trkpt lat="44.13563" lon="5.89228">
        <ele>779</ele>
        <time>2022-09-22T13:34:51Z</time>
      </trkpt>
      <trkpt lat="44.13563" lon="5.89227">
        <ele>779</ele>
        <time>2022-09-22T13:34:52Z</time>
      </trkpt>
      <trkpt lat="44.13563" lon="5.89226">
        <ele>779</ele>
        <time>2022-09-22T13:34:53Z</time>
      </trkpt>
      <trkpt lat="44.13563" lon="5.89224">
        <ele>779</ele>
        <time>2022-09-22T13:34:54Z</time>
      </trkpt>
      <trkpt lat="44.13564" lon="5.89223">
        <ele>778</ele>
        <time>2022-09-22T13:34:55Z</time>
      </trkpt>
      <trkpt lat="44.13564" lon="5.89222">
        <ele>778</ele>
        <time>2022-09-22T13:34:56Z</time>
      </trkpt>
      <trkpt lat="44.13564" lon="5.89221">
        <ele>778</ele>
        <time>2022-09-22T13:34:57Z</time>
      </trkpt>
      <trkpt lat="44.13564" lon="5.89219">
        <ele>778</ele>
        <time>2022-09-22T13:34:58Z</time>
      </trkpt>
      <trkpt lat="44.13565" lon="5.89218">
        <ele>778</ele>
        <time>2022-09-22T13:34:59Z</time>
      </trkpt>
      <trkpt lat="44.13565" lon="5.89217">
        <ele>777</ele>
        <time>2022-09-22T13:35:00Z</time>
      </trkpt>
      <trkpt lat="44.13565" lon="5.89216">
        <ele>777</ele>
        <time>2022-09-22T13:35:01Z</time>
      </trkpt>
      <trkpt lat="44.13565" lon="5.89214">
        <ele>777</ele>
        <time>2022-09-22T13:35:02Z</time>
      </trkpt>
      <trkpt lat="44.13566" lon="5.89213">
        <ele>777</ele>
        <time>2022-09-22T13:35:03Z</time>
      </trkpt>
      <trkpt lat="44.13566" lon="5.89212">
        <ele>777</ele>
        <time>2022-09-22T13:35:04Z</time>
      </trkpt>
      <trkpt lat="44.13566" lon="5.8921">
        <ele>776</ele>
        <time>2022-09-22T13:35:05Z</time>
      </trkpt>
      <trkpt lat="44.13566" lon="5.89209">
        <ele>776</ele>
        <time>2022-09-22T13:35:06Z</time>
      </trkpt>
      <trkpt lat="44.13566" lon="5.89207">
        <ele>776</ele>
        <time>2022-09-22T13:35:07Z</time>
      </trkpt>
      <trkpt lat="44.13566" lon="5.89206">
        <ele>776</ele>
        <time>2022-09-22T13:35:08Z</time>
      </trkpt>
      <trkpt lat="44.13566" lon="5.89205">
        <ele>776</ele>
        <time>2022-09-22T13:35:09Z</time>
      </trkpt>
      <trkpt lat="44.13566" lon="5.89203">
        <ele>775</ele>
        <time>2022-09-22T13:35:10Z</time>
      </trkpt>
      <trkpt lat="44.13566" lon="5.89202">
        <ele>775</ele>
        <time>2022-09-22T13:35:11Z</time>
      </trkpt>
      <trkpt lat="44.13566" lon="5.89201">
        <ele>775</ele>
        <time>2022-09-22T13:35:12Z</time>
      </trkpt>
      <trkpt lat="44.13565" lon="5.892">
        <ele>775</ele>
        <time>2022-09-22T13:35:13Z</time>
      </trkpt>
      <trkpt lat="44.13565" lon="5.89198">
        <ele>775</ele>
        <time>2022-09-22T13:35:14Z</time>
      </trkpt>
      <trkpt lat="44.13565" lon="5.89197">
        <ele>774</ele>
        <time>2022-09-22T13:35:15Z</time>
      </trkpt>
      <trkpt lat="44.13565" lon="5.89195">
        <ele>774</ele>
        <time>2022-09-22T13:35:16Z</time>
      </trkpt>
      <trkpt lat="44.13565" lon="5.89193">
        <ele>774</ele>
        <time>2022-09-22T13:35:17Z</time>
      </trkpt>
      <trkpt lat="44.13566" lon="5.89192">
        <ele>774</ele>
        <time>2022-09-22T13:35:18Z</time>
      </trkpt>
      <trkpt lat="44.13566" lon="5.8919">
        <ele>774</ele>
        <time>2022-09-22T13:35:19Z</time>
      </trkpt>
      <trkpt lat="44.13567" lon="5.89189">
        <ele>774</ele>
        <time>2022-09-22T13:35:20Z</time>
      </trkpt>
      <trkpt lat="44.13567" lon="5.89187">
        <ele>774</ele>
        <time>2022-09-22T13:35:21Z</time>
      </trkpt>
      <trkpt lat="44.13567" lon="5.89186">
        <ele>774</ele>
        <time>2022-09-22T13:35:22Z</time>
      </trkpt>
      <trkpt lat="44.13568" lon="5.89185">
        <ele>774</ele>
        <time>2022-09-22T13:35:23Z</time>
      </trkpt>
      <trkpt lat="44.13568" lon="5.89184">
        <ele>774</ele>
        <time>2022-09-22T13:35:24Z</time>
      </trkpt>
      <trkpt lat="44.13568" lon="5.89182">
        <ele>773</ele>
        <time>2022-09-22T13:35:25Z</time>
      </trkpt>
      <trkpt lat="44.13569" lon="5.89181">
        <ele>773</ele>
        <time>2022-09-22T13:35:26Z</time>
      </trkpt>
      <trkpt lat="44.1357" lon="5.8918">
        <ele>773</ele>
        <time>2022-09-22T13:35:27Z</time>
      </trkpt>
      <trkpt lat="44.13571" lon="5.89178">
        <ele>773</ele>
        <time>2022-09-22T13:35:28Z</time>
      </trkpt>
      <trkpt lat="44.13572" lon="5.89177">
        <ele>773</ele>
        <time>2022-09-22T13:35:29Z</time>
      </trkpt>
      <trkpt lat="44.13573" lon="5.89176">
        <ele>772</ele>
        <time>2022-09-22T13:35:30Z</time>
      </trkpt>
      <trkpt lat="44.13574" lon="5.89175">
        <ele>772</ele>
        <time>2022-09-22T13:35:31Z</time>
      </trkpt>
      <trkpt lat="44.13575" lon="5.89174">
        <ele>772</ele>
        <time>2022-09-22T13:35:32Z</time>
      </trkpt>
      <trkpt lat="44.13576" lon="5.89173">
        <ele>772</ele>
        <time>2022-09-22T13:35:33Z</time>
      </trkpt>
      <trkpt lat="44.13576" lon="5.89172">
        <ele>772</ele>
        <time>2022-09-22T13:35:34Z</time>
      </trkpt>
      <trkpt lat="44.13577" lon="5.8917">
        <ele>772</ele>
        <time>2022-09-22T13:35:35Z</time>
      </trkpt>
      <trkpt lat="44.13578" lon="5.89169">
        <ele>772</ele>
        <time>2022-09-22T13:35:36Z</time>
      </trkpt>
      <trkpt lat="44.13578" lon="5.89168">
        <ele>772</ele>
        <time>2022-09-22T13:35:37Z</time>
      </trkpt>
      <trkpt lat="44.13578" lon="5.89167">
        <ele>772</ele>
        <time>2022-09-22T13:35:38Z</time>
      </trkpt>
      <trkpt lat="44.13579" lon="5.89166">
        <ele>772</ele>
        <time>2022-09-22T13:35:39Z</time>
      </trkpt>
      <trkpt lat="44.13579" lon="5.89165">
        <ele>772</ele>
        <time>2022-09-22T13:35:40Z</time>
      </trkpt>
      <trkpt lat="44.1358" lon="5.89164">
        <ele>772</ele>
        <time>2022-09-22T13:35:41Z</time>
      </trkpt>
      <trkpt lat="44.1358" lon="5.89163">
        <ele>772</ele>
        <time>2022-09-22T13:35:42Z</time>
      </trkpt>
      <trkpt lat="44.13581" lon="5.89163">
        <ele>772</ele>
        <time>2022-09-22T13:35:43Z</time>
      </trkpt>
      <trkpt lat="44.13582" lon="5.89162">
        <ele>772</ele>
        <time>2022-09-22T13:35:44Z</time>
      </trkpt>
      <trkpt lat="44.13582" lon="5.89161">
        <ele>771</ele>
        <time>2022-09-22T13:35:45Z</time>
      </trkpt>
      <trkpt lat="44.13583" lon="5.8916">
        <ele>771</ele>
        <time>2022-09-22T13:35:46Z</time>
      </trkpt>
      <trkpt lat="44.13584" lon="5.8916">
        <ele>771</ele>
        <time>2022-09-22T13:35:47Z</time>
      </trkpt>
      <trkpt lat="44.13585" lon="5.89159">
        <ele>771</ele>
        <time>2022-09-22T13:35:48Z</time>
      </trkpt>
      <trkpt lat="44.13586" lon="5.89158">
        <ele>771</ele>
        <time>2022-09-22T13:35:49Z</time>
      </trkpt>
      <trkpt lat="44.13586" lon="5.89158">
        <ele>770</ele>
        <time>2022-09-22T13:35:50Z</time>
      </trkpt>
      <trkpt lat="44.13587" lon="5.89157">
        <ele>770</ele>
        <time>2022-09-22T13:35:51Z</time>
      </trkpt>
      <trkpt lat="44.13588" lon="5.89157">
        <ele>770</ele>
        <time>2022-09-22T13:35:52Z</time>
      </trkpt>
      <trkpt lat="44.13588" lon="5.89156">
        <ele>770</ele>
        <time>2022-09-22T13:35:53Z</time>
      </trkpt>
      <trkpt lat="44.13589" lon="5.89156">
        <ele>770</ele>
        <time>2022-09-22T13:35:54Z</time>
      </trkpt>
      <trkpt lat="44.13589" lon="5.89155">
        <ele>770</ele>
        <time>2022-09-22T13:35:55Z</time>
      </trkpt>
      <trkpt lat="44.13589" lon="5.89155">
        <ele>770</ele>
        <time>2022-09-22T13:35:56Z</time>
      </trkpt>
      <trkpt lat="44.1359" lon="5.89154">
        <ele>770</ele>
        <time>2022-09-22T13:35:57Z</time>
      </trkpt>
      <trkpt lat="44.1359" lon="5.89153">
        <ele>770</ele>
        <time>2022-09-22T13:35:58Z</time>
      </trkpt>
      <trkpt lat="44.1359" lon="5.89153">
        <ele>770</ele>
        <time>2022-09-22T13:35:59Z</time>
      </trkpt>
      <trkpt lat="44.13591" lon="5.89152">
        <ele>769</ele>
        <time>2022-09-22T13:36:00Z</time>
      </trkpt>
      <trkpt lat="44.13591" lon="5.89151">
        <ele>769</ele>
        <time>2022-09-22T13:36:01Z</time>
      </trkpt>
      <trkpt lat="44.13592" lon="5.89149">
        <ele>769</ele>
        <time>2022-09-22T13:36:02Z</time>
      </trkpt>
      <trkpt lat="44.13593" lon="5.89148">
        <ele>769</ele>
        <time>2022-09-22T13:36:03Z</time>
      </trkpt>
      <trkpt lat="44.13594" lon="5.89147">
        <ele>769</ele>
        <time>2022-09-22T13:36:04Z</time>
      </trkpt>
      <trkpt lat="44.13594" lon="5.89146">
        <ele>768</ele>
        <time>2022-09-22T13:36:05Z</time>
      </trkpt>
      <trkpt lat="44.13595" lon="5.89146">
        <ele>768</ele>
        <time>2022-09-22T13:36:06Z</time>
      </trkpt>
      <trkpt lat="44.13596" lon="5.89145">
        <ele>768</ele>
        <time>2022-09-22T13:36:07Z</time>
      </trkpt>
      <trkpt lat="44.13597" lon="5.89144">
        <ele>768</ele>
        <time>2022-09-22T13:36:08Z</time>
      </trkpt>
      <trkpt lat="44.13598" lon="5.89144">
        <ele>768</ele>
        <time>2022-09-22T13:36:09Z</time>
      </trkpt>
      <trkpt lat="44.13598" lon="5.89143">
        <ele>768</ele>
        <time>2022-09-22T13:36:10Z</time>
      </trkpt>
      <trkpt lat="44.13599" lon="5.89143">
        <ele>768</ele>
        <time>2022-09-22T13:36:11Z</time>
      </trkpt>
      <trkpt lat="44.136" lon="5.89143">
        <ele>768</ele>
        <time>2022-09-22T13:36:12Z</time>
      </trkpt>
      <trkpt lat="44.13601" lon="5.89142">
        <ele>766</ele>
        <time>2022-09-22T13:37:47Z</time>
      </trkpt>
      <trkpt lat="44.13601" lon="5.89142">
        <ele>766</ele>
        <time>2022-09-22T13:37:48Z</time>
      </trkpt>
      <trkpt lat="44.13602" lon="5.89142">
        <ele>766</ele>
        <time>2022-09-22T13:37:49Z</time>
      </trkpt>
      <trkpt lat="44.13602" lon="5.89141">
        <ele>766</ele>
        <time>2022-09-22T13:37:50Z</time>
      </trkpt>
      <trkpt lat="44.13603" lon="5.89141">
        <ele>766</ele>
        <time>2022-09-22T13:37:51Z</time>
      </trkpt>
      <trkpt lat="44.13604" lon="5.89141">
        <ele>766</ele>
        <time>2022-09-22T13:37:52Z</time>
      </trkpt>
      <trkpt lat="44.13605" lon="5.8914">
        <ele>766</ele>
        <time>2022-09-22T13:37:53Z</time>
      </trkpt>
      <trkpt lat="44.13606" lon="5.8914">
        <ele>766</ele>
        <time>2022-09-22T13:37:54Z</time>
      </trkpt>
      <trkpt lat="44.13607" lon="5.8914">
        <ele>766</ele>
        <time>2022-09-22T13:37:55Z</time>
      </trkpt>
      <trkpt lat="44.13607" lon="5.89139">
        <ele>766</ele>
        <time>2022-09-22T13:37:56Z</time>
      </trkpt>
      <trkpt lat="44.13608" lon="5.89139">
        <ele>766</ele>
        <time>2022-09-22T13:37:57Z</time>
      </trkpt>
      <trkpt lat="44.13609" lon="5.89139">
        <ele>766</ele>
        <time>2022-09-22T13:37:58Z</time>
      </trkpt>
      <trkpt lat="44.13609" lon="5.89139">
        <ele>766</ele>
        <time>2022-09-22T13:37:59Z</time>
      </trkpt>
      <trkpt lat="44.1361" lon="5.89138">
        <ele>765</ele>
        <time>2022-09-22T13:38:00Z</time>
      </trkpt>
      <trkpt lat="44.13611" lon="5.89137">
        <ele>765</ele>
        <time>2022-09-22T13:38:01Z</time>
      </trkpt>
      <trkpt lat="44.13612" lon="5.89136">
        <ele>765</ele>
        <time>2022-09-22T13:38:02Z</time>
      </trkpt>
      <trkpt lat="44.13612" lon="5.89135">
        <ele>765</ele>
        <time>2022-09-22T13:38:03Z</time>
      </trkpt>
      <trkpt lat="44.13613" lon="5.89134">
        <ele>765</ele>
        <time>2022-09-22T13:38:04Z</time>
      </trkpt>
      <trkpt lat="44.13614" lon="5.89133">
        <ele>765</ele>
        <time>2022-09-22T13:38:05Z</time>
      </trkpt>
      <trkpt lat="44.13615" lon="5.89132">
        <ele>765</ele>
        <time>2022-09-22T13:38:06Z</time>
      </trkpt>
      <trkpt lat="44.13617" lon="5.8913">
        <ele>765</ele>
        <time>2022-09-22T13:38:07Z</time>
      </trkpt>
      <trkpt lat="44.13617" lon="5.8913">
        <ele>765</ele>
        <time>2022-09-22T13:38:08Z</time>
      </trkpt>
      <trkpt lat="44.13617" lon="5.89129">
        <ele>765</ele>
        <time>2022-09-22T13:38:09Z</time>
      </trkpt>
      <trkpt lat="44.13618" lon="5.89129">
        <ele>764</ele>
        <time>2022-09-22T13:38:10Z</time>
      </trkpt>
      <trkpt lat="44.13618" lon="5.89128">
        <ele>764</ele>
        <time>2022-09-22T13:38:11Z</time>
      </trkpt>
      <trkpt lat="44.13619" lon="5.89128">
        <ele>764</ele>
        <time>2022-09-22T13:38:12Z</time>
      </trkpt>
      <trkpt lat="44.1362" lon="5.89127">
        <ele>764</ele>
        <time>2022-09-22T13:38:13Z</time>
      </trkpt>
      <trkpt lat="44.13621" lon="5.89127">
        <ele>764</ele>
        <time>2022-09-22T13:38:14Z</time>
      </trkpt>
      <trkpt lat="44.13622" lon="5.89126">
        <ele>763</ele>
        <time>2022-09-22T13:38:15Z</time>
      </trkpt>
      <trkpt lat="44.13622" lon="5.89125">
        <ele>763</ele>
        <time>2022-09-22T13:38:16Z</time>
      </trkpt>
      <trkpt lat="44.13623" lon="5.89125">
        <ele>763</ele>
        <time>2022-09-22T13:38:17Z</time>
      </trkpt>
      <trkpt lat="44.13623" lon="5.89124">
        <ele>763</ele>
        <time>2022-09-22T13:38:18Z</time>
      </trkpt>
      <trkpt lat="44.13624" lon="5.89123">
        <ele>763</ele>
        <time>2022-09-22T13:38:19Z</time>
      </trkpt>
      <trkpt lat="44.13625" lon="5.89122">
        <ele>762</ele>
        <time>2022-09-22T13:38:20Z</time>
      </trkpt>
      <trkpt lat="44.13625" lon="5.89121">
        <ele>762</ele>
        <time>2022-09-22T13:38:21Z</time>
      </trkpt>
      <trkpt lat="44.13626" lon="5.89121">
        <ele>762</ele>
        <time>2022-09-22T13:38:22Z</time>
      </trkpt>
      <trkpt lat="44.13627" lon="5.8912">
        <ele>762</ele>
        <time>2022-09-22T13:38:23Z</time>
      </trkpt>
      <trkpt lat="44.13628" lon="5.8912">
        <ele>762</ele>
        <time>2022-09-22T13:38:24Z</time>
      </trkpt>
      <trkpt lat="44.13629" lon="5.8912">
        <ele>762</ele>
        <time>2022-09-22T13:38:25Z</time>
      </trkpt>
      <trkpt lat="44.13629" lon="5.89119">
        <ele>762</ele>
        <time>2022-09-22T13:38:26Z</time>
      </trkpt>
      <trkpt lat="44.1363" lon="5.89119">
        <ele>762</ele>
        <time>2022-09-22T13:38:27Z</time>
      </trkpt>
      <trkpt lat="44.13631" lon="5.89118">
        <ele>762</ele>
        <time>2022-09-22T13:38:28Z</time>
      </trkpt>
      <trkpt lat="44.13632" lon="5.89118">
        <ele>762</ele>
        <time>2022-09-22T13:38:29Z</time>
      </trkpt>
      <trkpt lat="44.13633" lon="5.89117">
        <ele>761</ele>
        <time>2022-09-22T13:38:30Z</time>
      </trkpt>
      <trkpt lat="44.13633" lon="5.89116">
        <ele>761</ele>
        <time>2022-09-22T13:38:31Z</time>
      </trkpt>
      <trkpt lat="44.13634" lon="5.89115">
        <ele>761</ele>
        <time>2022-09-22T13:38:32Z</time>
      </trkpt>
      <trkpt lat="44.13634" lon="5.89115">
        <ele>761</ele>
        <time>2022-09-22T13:38:33Z</time>
      </trkpt>
      <trkpt lat="44.13636" lon="5.89113">
        <ele>760</ele>
        <time>2022-09-22T13:38:46Z</time>
      </trkpt>
      <trkpt lat="44.13637" lon="5.89112">
        <ele>760</ele>
        <time>2022-09-22T13:38:47Z</time>
      </trkpt>
      <trkpt lat="44.13638" lon="5.89111">
        <ele>760</ele>
        <time>2022-09-22T13:38:48Z</time>
      </trkpt>
      <trkpt lat="44.13639" lon="5.89111">
        <ele>760</ele>
        <time>2022-09-22T13:38:49Z</time>
      </trkpt>
      <trkpt lat="44.1364" lon="5.8911">
        <ele>759</ele>
        <time>2022-09-22T13:38:50Z</time>
      </trkpt>
      <trkpt lat="44.13641" lon="5.89109">
        <ele>759</ele>
        <time>2022-09-22T13:38:51Z</time>
      </trkpt>
      <trkpt lat="44.13642" lon="5.89109">
        <ele>759</ele>
        <time>2022-09-22T13:38:52Z</time>
      </trkpt>
      <trkpt lat="44.13644" lon="5.89108">
        <ele>759</ele>
        <time>2022-09-22T13:38:53Z</time>
      </trkpt>
      <trkpt lat="44.13645" lon="5.89108">
        <ele>759</ele>
        <time>2022-09-22T13:38:54Z</time>
      </trkpt>
      <trkpt lat="44.13646" lon="5.89107">
        <ele>759</ele>
        <time>2022-09-22T13:38:55Z</time>
      </trkpt>
      <trkpt lat="44.13647" lon="5.89106">
        <ele>759</ele>
        <time>2022-09-22T13:38:56Z</time>
      </trkpt>
      <trkpt lat="44.13648" lon="5.89106">
        <ele>759</ele>
        <time>2022-09-22T13:38:57Z</time>
      </trkpt>
      <trkpt lat="44.13649" lon="5.89106">
        <ele>759</ele>
        <time>2022-09-22T13:38:58Z</time>
      </trkpt>
      <trkpt lat="44.1365" lon="5.89105">
        <ele>759</ele>
        <time>2022-09-22T13:38:59Z</time>
      </trkpt>
      <trkpt lat="44.13651" lon="5.89105">
        <ele>758</ele>
        <time>2022-09-22T13:39:00Z</time>
      </trkpt>
      <trkpt lat="44.13652" lon="5.89105">
        <ele>758</ele>
        <time>2022-09-22T13:39:01Z</time>
      </trkpt>
      <trkpt lat="44.13653" lon="5.89104">
        <ele>758</ele>
        <time>2022-09-22T13:39:02Z</time>
      </trkpt>
      <trkpt lat="44.13653" lon="5.89104">
        <ele>758</ele>
        <time>2022-09-22T13:39:03Z</time>
      </trkpt>
      <trkpt lat="44.13654" lon="5.89103">
        <ele>758</ele>
        <time>2022-09-22T13:39:04Z</time>
      </trkpt>
      <trkpt lat="44.13655" lon="5.89102">
        <ele>757</ele>
        <time>2022-09-22T13:39:05Z</time>
      </trkpt>
      <trkpt lat="44.13655" lon="5.89102">
        <ele>757</ele>
        <time>2022-09-22T13:39:06Z</time>
      </trkpt>
      <trkpt lat="44.13656" lon="5.89101">
        <ele>756</ele>
        <time>2022-09-22T13:39:07Z</time>
      </trkpt>
      <trkpt lat="44.13656" lon="5.89101">
        <ele>756</ele>
        <time>2022-09-22T13:39:08Z</time>
      </trkpt>
      <trkpt lat="44.13657" lon="5.891">
        <ele>756</ele>
        <time>2022-09-22T13:39:09Z</time>
      </trkpt>
      <trkpt lat="44.13658" lon="5.891">
        <ele>756</ele>
        <time>2022-09-22T13:39:10Z</time>
      </trkpt>
      <trkpt lat="44.13658" lon="5.89099">
        <ele>756</ele>
        <time>2022-09-22T13:39:11Z</time>
      </trkpt>
      <trkpt lat="44.13659" lon="5.89099">
        <ele>756</ele>
        <time>2022-09-22T13:39:12Z</time>
      </trkpt>
      <trkpt lat="44.1366" lon="5.89098">
        <ele>756</ele>
        <time>2022-09-22T13:39:13Z</time>
      </trkpt>
      <trkpt lat="44.13661" lon="5.89097">
        <ele>756</ele>
        <time>2022-09-22T13:39:14Z</time>
      </trkpt>
      <trkpt lat="44.13662" lon="5.89096">
        <ele>755</ele>
        <time>2022-09-22T13:39:15Z</time>
      </trkpt>
      <trkpt lat="44.13662" lon="5.89096">
        <ele>755</ele>
        <time>2022-09-22T13:39:16Z</time>
      </trkpt>
      <trkpt lat="44.13663" lon="5.89095">
        <ele>755</ele>
        <time>2022-09-22T13:39:17Z</time>
      </trkpt>
      <trkpt lat="44.13664" lon="5.89094">
        <ele>755</ele>
        <time>2022-09-22T13:39:18Z</time>
      </trkpt>
      <trkpt lat="44.13665" lon="5.89093">
        <ele>755</ele>
        <time>2022-09-22T13:39:19Z</time>
      </trkpt>
      <trkpt lat="44.13666" lon="5.89092">
        <ele>755</ele>
        <time>2022-09-22T13:39:20Z</time>
      </trkpt>
      <trkpt lat="44.13667" lon="5.89091">
        <ele>755</ele>
        <time>2022-09-22T13:39:21Z</time>
      </trkpt>
      <trkpt lat="44.13668" lon="5.89091">
        <ele>755</ele>
        <time>2022-09-22T13:39:22Z</time>
      </trkpt>
      <trkpt lat="44.13669" lon="5.8909">
        <ele>755</ele>
        <time>2022-09-22T13:39:23Z</time>
      </trkpt>
      <trkpt lat="44.1367" lon="5.89089">
        <ele>755</ele>
        <time>2022-09-22T13:39:24Z</time>
      </trkpt>
      <trkpt lat="44.13671" lon="5.89088">
        <ele>754</ele>
        <time>2022-09-22T13:39:25Z</time>
      </trkpt>
      <trkpt lat="44.13671" lon="5.89087">
        <ele>754</ele>
        <time>2022-09-22T13:39:26Z</time>
      </trkpt>
      <trkpt lat="44.13672" lon="5.89086">
        <ele>754</ele>
        <time>2022-09-22T13:39:27Z</time>
      </trkpt>
      <trkpt lat="44.13673" lon="5.89086">
        <ele>754</ele>
        <time>2022-09-22T13:39:28Z</time>
      </trkpt>
      <trkpt lat="44.13674" lon="5.89085">
        <ele>754</ele>
        <time>2022-09-22T13:39:29Z</time>
      </trkpt>
      <trkpt lat="44.13675" lon="5.89084">
        <ele>754</ele>
        <time>2022-09-22T13:39:30Z</time>
      </trkpt>
      <trkpt lat="44.13676" lon="5.89083">
        <ele>754</ele>
        <time>2022-09-22T13:39:31Z</time>
      </trkpt>
      <trkpt lat="44.13677" lon="5.89083">
        <ele>754</ele>
        <time>2022-09-22T13:39:32Z</time>
      </trkpt>
      <trkpt lat="44.13677" lon="5.89082">
        <ele>754</ele>
        <time>2022-09-22T13:39:33Z</time>
      </trkpt>
      <trkpt lat="44.13678" lon="5.89081">
        <ele>754</ele>
        <time>2022-09-22T13:39:34Z</time>
      </trkpt>
      <trkpt lat="44.13679" lon="5.8908">
        <ele>753</ele>
        <time>2022-09-22T13:39:35Z</time>
      </trkpt>
      <trkpt lat="44.1368" lon="5.8908">
        <ele>753</ele>
        <time>2022-09-22T13:39:36Z</time>
      </trkpt>
      <trkpt lat="44.13681" lon="5.89079">
        <ele>753</ele>
        <time>2022-09-22T13:39:37Z</time>
      </trkpt>
      <trkpt lat="44.13681" lon="5.89078">
        <ele>753</ele>
        <time>2022-09-22T13:39:38Z</time>
      </trkpt>
      <trkpt lat="44.13682" lon="5.89078">
        <ele>753</ele>
        <time>2022-09-22T13:39:39Z</time>
      </trkpt>
      <trkpt lat="44.13683" lon="5.89077">
        <ele>753</ele>
        <time>2022-09-22T13:39:40Z</time>
      </trkpt>
      <trkpt lat="44.13684" lon="5.89076">
        <ele>753</ele>
        <time>2022-09-22T13:39:41Z</time>
      </trkpt>
      <trkpt lat="44.13685" lon="5.89075">
        <ele>753</ele>
        <time>2022-09-22T13:39:42Z</time>
      </trkpt>
      <trkpt lat="44.13686" lon="5.89074">
        <ele>753</ele>
        <time>2022-09-22T13:39:43Z</time>
      </trkpt>
      <trkpt lat="44.13687" lon="5.89073">
        <ele>753</ele>
        <time>2022-09-22T13:39:44Z</time>
      </trkpt>
      <trkpt lat="44.13688" lon="5.89072">
        <ele>753</ele>
        <time>2022-09-22T13:39:45Z</time>
      </trkpt>
      <trkpt lat="44.13688" lon="5.89071">
        <ele>753</ele>
        <time>2022-09-22T13:39:46Z</time>
      </trkpt>
      <trkpt lat="44.13689" lon="5.89071">
        <ele>753</ele>
        <time>2022-09-22T13:39:47Z</time>
      </trkpt>
      <trkpt lat="44.1369" lon="5.8907">
        <ele>753</ele>
        <time>2022-09-22T13:39:48Z</time>
      </trkpt>
      <trkpt lat="44.1369" lon="5.8907">
        <ele>753</ele>
        <time>2022-09-22T13:39:49Z</time>
      </trkpt>
      <trkpt lat="44.13691" lon="5.8907">
        <ele>752</ele>
        <time>2022-09-22T13:39:50Z</time>
      </trkpt>
      <trkpt lat="44.13692" lon="5.89069">
        <ele>752</ele>
        <time>2022-09-22T13:39:51Z</time>
      </trkpt>
      <trkpt lat="44.13692" lon="5.89069">
        <ele>752</ele>
        <time>2022-09-22T13:39:52Z</time>
      </trkpt>
      <trkpt lat="44.13693" lon="5.89069">
        <ele>752</ele>
        <time>2022-09-22T13:39:53Z</time>
      </trkpt>
      <trkpt lat="44.13693" lon="5.89069">
        <ele>752</ele>
        <time>2022-09-22T13:39:54Z</time>
      </trkpt>
      <trkpt lat="44.13694" lon="5.89069">
        <ele>751</ele>
        <time>2022-09-22T13:39:55Z</time>
      </trkpt>
      <trkpt lat="44.13695" lon="5.89068">
        <ele>751</ele>
        <time>2022-09-22T13:39:56Z</time>
      </trkpt>
      <trkpt lat="44.13696" lon="5.89068">
        <ele>751</ele>
        <time>2022-09-22T13:39:57Z</time>
      </trkpt>
      <trkpt lat="44.13697" lon="5.89067">
        <ele>751</ele>
        <time>2022-09-22T13:39:58Z</time>
      </trkpt>
      <trkpt lat="44.13698" lon="5.89066">
        <ele>751</ele>
        <time>2022-09-22T13:39:59Z</time>
      </trkpt>
      <trkpt lat="44.13699" lon="5.89066">
        <ele>751</ele>
        <time>2022-09-22T13:40:00Z</time>
      </trkpt>
      <trkpt lat="44.137" lon="5.89066">
        <ele>751</ele>
        <time>2022-09-22T13:40:01Z</time>
      </trkpt>
      <trkpt lat="44.13701" lon="5.89065">
        <ele>751</ele>
        <time>2022-09-22T13:40:02Z</time>
      </trkpt>
      <trkpt lat="44.13702" lon="5.89065">
        <ele>751</ele>
        <time>2022-09-22T13:40:03Z</time>
      </trkpt>
      <trkpt lat="44.13703" lon="5.89065">
        <ele>751</ele>
        <time>2022-09-22T13:40:04Z</time>
      </trkpt>
      <trkpt lat="44.13704" lon="5.89064">
        <ele>750</ele>
        <time>2022-09-22T13:40:05Z</time>
      </trkpt>
      <trkpt lat="44.13705" lon="5.89064">
        <ele>750</ele>
        <time>2022-09-22T13:40:06Z</time>
      </trkpt>
      <trkpt lat="44.13706" lon="5.89063">
        <ele>750</ele>
        <time>2022-09-22T13:40:07Z</time>
      </trkpt>
      <trkpt lat="44.13708" lon="5.89063">
        <ele>750</ele>
        <time>2022-09-22T13:40:08Z</time>
      </trkpt>
      <trkpt lat="44.13709" lon="5.89062">
        <ele>750</ele>
        <time>2022-09-22T13:40:09Z</time>
      </trkpt>
      <trkpt lat="44.1371" lon="5.89061">
        <ele>749</ele>
        <time>2022-09-22T13:40:10Z</time>
      </trkpt>
      <trkpt lat="44.13711" lon="5.8906">
        <ele>749</ele>
        <time>2022-09-22T13:40:11Z</time>
      </trkpt>
      <trkpt lat="44.13712" lon="5.8906">
        <ele>749</ele>
        <time>2022-09-22T13:40:12Z</time>
      </trkpt>
      <trkpt lat="44.13713" lon="5.89059">
        <ele>749</ele>
        <time>2022-09-22T13:40:13Z</time>
      </trkpt>
      <trkpt lat="44.13714" lon="5.89058">
        <ele>749</ele>
        <time>2022-09-22T13:40:14Z</time>
      </trkpt>
      <trkpt lat="44.13715" lon="5.89057">
        <ele>749</ele>
        <time>2022-09-22T13:40:15Z</time>
      </trkpt>
      <trkpt lat="44.13716" lon="5.89056">
        <ele>749</ele>
        <time>2022-09-22T13:40:16Z</time>
      </trkpt>
      <trkpt lat="44.13717" lon="5.89056">
        <ele>749</ele>
        <time>2022-09-22T13:40:17Z</time>
      </trkpt>
      <trkpt lat="44.13718" lon="5.89055">
        <ele>749</ele>
        <time>2022-09-22T13:40:18Z</time>
      </trkpt>
      <trkpt lat="44.13719" lon="5.89055">
        <ele>749</ele>
        <time>2022-09-22T13:40:19Z</time>
      </trkpt>
      <trkpt lat="44.1372" lon="5.89054">
        <ele>748</ele>
        <time>2022-09-22T13:40:20Z</time>
      </trkpt>
      <trkpt lat="44.13721" lon="5.89053">
        <ele>748</ele>
        <time>2022-09-22T13:40:21Z</time>
      </trkpt>
      <trkpt lat="44.13722" lon="5.89053">
        <ele>748</ele>
        <time>2022-09-22T13:40:22Z</time>
      </trkpt>
      <trkpt lat="44.13723" lon="5.89052">
        <ele>748</ele>
        <time>2022-09-22T13:40:23Z</time>
      </trkpt>
      <trkpt lat="44.13724" lon="5.89051">
        <ele>748</ele>
        <time>2022-09-22T13:40:24Z</time>
      </trkpt>
      <trkpt lat="44.13725" lon="5.8905">
        <ele>747</ele>
        <time>2022-09-22T13:40:25Z</time>
      </trkpt>
      <trkpt lat="44.13726" lon="5.89049">
        <ele>747</ele>
        <time>2022-09-22T13:40:26Z</time>
      </trkpt>
      <trkpt lat="44.13726" lon="5.89048">
        <ele>747</ele>
        <time>2022-09-22T13:40:27Z</time>
      </trkpt>
      <trkpt lat="44.13727" lon="5.89047">
        <ele>747</ele>
        <time>2022-09-22T13:40:28Z</time>
      </trkpt>
      <trkpt lat="44.13728" lon="5.89046">
        <ele>747</ele>
        <time>2022-09-22T13:40:29Z</time>
      </trkpt>
      <trkpt lat="44.13729" lon="5.89045">
        <ele>747</ele>
        <time>2022-09-22T13:40:30Z</time>
      </trkpt>
      <trkpt lat="44.1373" lon="5.89044">
        <ele>747</ele>
        <time>2022-09-22T13:40:31Z</time>
      </trkpt>
      <trkpt lat="44.13731" lon="5.89044">
        <ele>747</ele>
        <time>2022-09-22T13:40:32Z</time>
      </trkpt>
      <trkpt lat="44.13732" lon="5.89043">
        <ele>747</ele>
        <time>2022-09-22T13:40:33Z</time>
      </trkpt>
      <trkpt lat="44.13733" lon="5.89042">
        <ele>747</ele>
        <time>2022-09-22T13:40:34Z</time>
      </trkpt>
      <trkpt lat="44.13734" lon="5.89042">
        <ele>746</ele>
        <time>2022-09-22T13:40:35Z</time>
      </trkpt>
      <trkpt lat="44.13734" lon="5.89042">
        <ele>746</ele>
        <time>2022-09-22T13:40:36Z</time>
      </trkpt>
      <trkpt lat="44.13735" lon="5.89041">
        <ele>746</ele>
        <time>2022-09-22T13:40:37Z</time>
      </trkpt>
      <trkpt lat="44.13736" lon="5.89041">
        <ele>746</ele>
        <time>2022-09-22T13:40:38Z</time>
      </trkpt>
      <trkpt lat="44.13736" lon="5.8904">
        <ele>746</ele>
        <time>2022-09-22T13:40:39Z</time>
      </trkpt>
      <trkpt lat="44.13737" lon="5.8904">
        <ele>746</ele>
        <time>2022-09-22T13:40:40Z</time>
      </trkpt>
      <trkpt lat="44.13738" lon="5.89039">
        <ele>746</ele>
        <time>2022-09-22T13:40:41Z</time>
      </trkpt>
      <trkpt lat="44.13738" lon="5.89038">
        <ele>746</ele>
        <time>2022-09-22T13:40:42Z</time>
      </trkpt>
      <trkpt lat="44.13739" lon="5.89037">
        <ele>746</ele>
        <time>2022-09-22T13:40:43Z</time>
      </trkpt>
      <trkpt lat="44.1374" lon="5.89036">
        <ele>746</ele>
        <time>2022-09-22T13:40:44Z</time>
      </trkpt>
      <trkpt lat="44.13741" lon="5.89035">
        <ele>745</ele>
        <time>2022-09-22T13:40:45Z</time>
      </trkpt>
      <trkpt lat="44.13742" lon="5.89034">
        <ele>745</ele>
        <time>2022-09-22T13:40:46Z</time>
      </trkpt>
      <trkpt lat="44.13743" lon="5.89033">
        <ele>745</ele>
        <time>2022-09-22T13:40:47Z</time>
      </trkpt>
      <trkpt lat="44.13743" lon="5.89031">
        <ele>745</ele>
        <time>2022-09-22T13:40:48Z</time>
      </trkpt>
      <trkpt lat="44.13744" lon="5.8903">
        <ele>745</ele>
        <time>2022-09-22T13:40:49Z</time>
      </trkpt>
      <trkpt lat="44.13745" lon="5.89029">
        <ele>744</ele>
        <time>2022-09-22T13:40:50Z</time>
      </trkpt>
      <trkpt lat="44.13745" lon="5.89028">
        <ele>744</ele>
        <time>2022-09-22T13:40:51Z</time>
      </trkpt>
      <trkpt lat="44.13746" lon="5.89027">
        <ele>744</ele>
        <time>2022-09-22T13:40:52Z</time>
      </trkpt>
      <trkpt lat="44.13746" lon="5.89026">
        <ele>744</ele>
        <time>2022-09-22T13:40:53Z</time>
      </trkpt>
      <trkpt lat="44.13747" lon="5.89025">
        <ele>744</ele>
        <time>2022-09-22T13:40:54Z</time>
      </trkpt>
      <trkpt lat="44.13747" lon="5.89024">
        <ele>744</ele>
        <time>2022-09-22T13:40:55Z</time>
      </trkpt>
      <trkpt lat="44.13747" lon="5.89023">
        <ele>744</ele>
        <time>2022-09-22T13:40:56Z</time>
      </trkpt>
      <trkpt lat="44.13748" lon="5.89022">
        <ele>745</ele>
        <time>2022-09-22T13:40:57Z</time>
      </trkpt>
      <trkpt lat="44.13748" lon="5.89021">
        <ele>745</ele>
        <time>2022-09-22T13:40:58Z</time>
      </trkpt>
      <trkpt lat="44.13749" lon="5.8902">
        <ele>746</ele>
        <time>2022-09-22T13:40:59Z</time>
      </trkpt>
      <trkpt lat="44.1375" lon="5.89019">
        <ele>746</ele>
        <time>2022-09-22T13:41:00Z</time>
      </trkpt>
      <trkpt lat="44.1375" lon="5.89018">
        <ele>746</ele>
        <time>2022-09-22T13:41:01Z</time>
      </trkpt>
      <trkpt lat="44.13751" lon="5.89017">
        <ele>746</ele>
        <time>2022-09-22T13:41:02Z</time>
      </trkpt>
      <trkpt lat="44.13752" lon="5.89016">
        <ele>746</ele>
        <time>2022-09-22T13:41:03Z</time>
      </trkpt>
      <trkpt lat="44.13752" lon="5.89015">
        <ele>746</ele>
        <time>2022-09-22T13:41:04Z</time>
      </trkpt>
      <trkpt lat="44.13753" lon="5.89014">
        <ele>745</ele>
        <time>2022-09-22T13:41:05Z</time>
      </trkpt>
      <trkpt lat="44.13753" lon="5.89012">
        <ele>745</ele>
        <time>2022-09-22T13:41:06Z</time>
      </trkpt>
      <trkpt lat="44.13754" lon="5.89011">
        <ele>744</ele>
        <time>2022-09-22T13:41:07Z</time>
      </trkpt>
      <trkpt lat="44.13754" lon="5.8901">
        <ele>744</ele>
        <time>2022-09-22T13:41:08Z</time>
      </trkpt>
      <trkpt lat="44.13755" lon="5.89009">
        <ele>744</ele>
        <time>2022-09-22T13:41:09Z</time>
      </trkpt>
      <trkpt lat="44.13755" lon="5.89007">
        <ele>743</ele>
        <time>2022-09-22T13:41:10Z</time>
      </trkpt>
      <trkpt lat="44.13756" lon="5.89006">
        <ele>743</ele>
        <time>2022-09-22T13:41:11Z</time>
      </trkpt>
      <trkpt lat="44.13756" lon="5.89005">
        <ele>743</ele>
        <time>2022-09-22T13:41:12Z</time>
      </trkpt>
      <trkpt lat="44.13757" lon="5.89004">
        <ele>743</ele>
        <time>2022-09-22T13:41:13Z</time>
      </trkpt>
      <trkpt lat="44.13758" lon="5.89003">
        <ele>743</ele>
        <time>2022-09-22T13:41:14Z</time>
      </trkpt>
      <trkpt lat="44.13758" lon="5.89002">
        <ele>742</ele>
        <time>2022-09-22T13:41:15Z</time>
      </trkpt>
      <trkpt lat="44.13759" lon="5.89001">
        <ele>742</ele>
        <time>2022-09-22T13:41:16Z</time>
      </trkpt>
      <trkpt lat="44.1376" lon="5.89">
        <ele>742</ele>
        <time>2022-09-22T13:41:17Z</time>
      </trkpt>
      <trkpt lat="44.13761" lon="5.88999">
        <ele>742</ele>
        <time>2022-09-22T13:41:18Z</time>
      </trkpt>
      <trkpt lat="44.13762" lon="5.88998">
        <ele>742</ele>
        <time>2022-09-22T13:41:19Z</time>
      </trkpt>
      <trkpt lat="44.13763" lon="5.88998">
        <ele>741</ele>
        <time>2022-09-22T13:41:20Z</time>
      </trkpt>
      <trkpt lat="44.13764" lon="5.88997">
        <ele>741</ele>
        <time>2022-09-22T13:41:21Z</time>
      </trkpt>
      <trkpt lat="44.13765" lon="5.88996">
        <ele>741</ele>
        <time>2022-09-22T13:41:22Z</time>
      </trkpt>
      <trkpt lat="44.13766" lon="5.88997">
        <ele>741</ele>
        <time>2022-09-22T13:41:23Z</time>
      </trkpt>
      <trkpt lat="44.13766" lon="5.88997">
        <ele>741</ele>
        <time>2022-09-22T13:41:24Z</time>
      </trkpt>
      <trkpt lat="44.13767" lon="5.88997">
        <ele>740</ele>
        <time>2022-09-22T13:41:25Z</time>
      </trkpt>
      <trkpt lat="44.13768" lon="5.88998">
        <ele>740</ele>
        <time>2022-09-22T13:41:26Z</time>
      </trkpt>
      <trkpt lat="44.13769" lon="5.88999">
        <ele>740</ele>
        <time>2022-09-22T13:41:27Z</time>
      </trkpt>
      <trkpt lat="44.13769" lon="5.89">
        <ele>740</ele>
        <time>2022-09-22T13:41:28Z</time>
      </trkpt>
      <trkpt lat="44.1377" lon="5.89001">
        <ele>740</ele>
        <time>2022-09-22T13:41:29Z</time>
      </trkpt>
      <trkpt lat="44.1377" lon="5.89002">
        <ele>739</ele>
        <time>2022-09-22T13:41:30Z</time>
      </trkpt>
      <trkpt lat="44.1377" lon="5.89003">
        <ele>739</ele>
        <time>2022-09-22T13:41:31Z</time>
      </trkpt>
      <trkpt lat="44.1377" lon="5.89005">
        <ele>739</ele>
        <time>2022-09-22T13:41:32Z</time>
      </trkpt>
      <trkpt lat="44.1377" lon="5.89006">
        <ele>739</ele>
        <time>2022-09-22T13:41:33Z</time>
      </trkpt>
      <trkpt lat="44.13771" lon="5.89008">
        <ele>739</ele>
        <time>2022-09-22T13:41:34Z</time>
      </trkpt>
      <trkpt lat="44.13771" lon="5.89009">
        <ele>739</ele>
        <time>2022-09-22T13:41:35Z</time>
      </trkpt>
      <trkpt lat="44.13771" lon="5.89011">
        <ele>739</ele>
        <time>2022-09-22T13:41:36Z</time>
      </trkpt>
      <trkpt lat="44.13771" lon="5.89012">
        <ele>739</ele>
        <time>2022-09-22T13:41:37Z</time>
      </trkpt>
      <trkpt lat="44.13771" lon="5.89013">
        <ele>739</ele>
        <time>2022-09-22T13:41:38Z</time>
      </trkpt>
      <trkpt lat="44.1377" lon="5.89014">
        <ele>739</ele>
        <time>2022-09-22T13:41:39Z</time>
      </trkpt>
      <trkpt lat="44.1377" lon="5.89016">
        <ele>738</ele>
        <time>2022-09-22T13:41:40Z</time>
      </trkpt>
      <trkpt lat="44.1377" lon="5.89017">
        <ele>738</ele>
        <time>2022-09-22T13:41:41Z</time>
      </trkpt>
      <trkpt lat="44.13769" lon="5.89018">
        <ele>738</ele>
        <time>2022-09-22T13:41:42Z</time>
      </trkpt>
      <trkpt lat="44.13769" lon="5.8902">
        <ele>738</ele>
        <time>2022-09-22T13:41:43Z</time>
      </trkpt>
      <trkpt lat="44.13769" lon="5.89021">
        <ele>738</ele>
        <time>2022-09-22T13:41:44Z</time>
      </trkpt>
      <trkpt lat="44.13769" lon="5.89022">
        <ele>738</ele>
        <time>2022-09-22T13:41:45Z</time>
      </trkpt>
      <trkpt lat="44.13769" lon="5.89023">
        <ele>738</ele>
        <time>2022-09-22T13:41:46Z</time>
      </trkpt>
      <trkpt lat="44.13769" lon="5.89024">
        <ele>738</ele>
        <time>2022-09-22T13:41:47Z</time>
      </trkpt>
      <trkpt lat="44.13769" lon="5.89025">
        <ele>738</ele>
        <time>2022-09-22T13:41:48Z</time>
      </trkpt>
      <trkpt lat="44.13769" lon="5.89027">
        <ele>738</ele>
        <time>2022-09-22T13:41:49Z</time>
      </trkpt>
      <trkpt lat="44.13769" lon="5.89028">
        <ele>737</ele>
        <time>2022-09-22T13:41:50Z</time>
      </trkpt>
      <trkpt lat="44.13769" lon="5.8903">
        <ele>737</ele>
        <time>2022-09-22T13:41:51Z</time>
      </trkpt>
      <trkpt lat="44.13769" lon="5.89031">
        <ele>737</ele>
        <time>2022-09-22T13:41:52Z</time>
      </trkpt>
      <trkpt lat="44.13769" lon="5.89033">
        <ele>737</ele>
        <time>2022-09-22T13:41:53Z</time>
      </trkpt>
      <trkpt lat="44.13768" lon="5.89034">
        <ele>737</ele>
        <time>2022-09-22T13:41:54Z</time>
      </trkpt>
      <trkpt lat="44.13768" lon="5.89036">
        <ele>736</ele>
        <time>2022-09-22T13:41:55Z</time>
      </trkpt>
      <trkpt lat="44.13768" lon="5.89037">
        <ele>736</ele>
        <time>2022-09-22T13:41:56Z</time>
      </trkpt>
      <trkpt lat="44.13768" lon="5.89039">
        <ele>736</ele>
        <time>2022-09-22T13:41:57Z</time>
      </trkpt>
      <trkpt lat="44.13767" lon="5.8904">
        <ele>736</ele>
        <time>2022-09-22T13:41:58Z</time>
      </trkpt>
      <trkpt lat="44.13767" lon="5.89041">
        <ele>736</ele>
        <time>2022-09-22T13:41:59Z</time>
      </trkpt>
      <trkpt lat="44.13767" lon="5.89043">
        <ele>736</ele>
        <time>2022-09-22T13:42:00Z</time>
      </trkpt>
      <trkpt lat="44.13766" lon="5.89044">
        <ele>736</ele>
        <time>2022-09-22T13:42:01Z</time>
      </trkpt>
      <trkpt lat="44.13766" lon="5.89045">
        <ele>736</ele>
        <time>2022-09-22T13:42:02Z</time>
      </trkpt>
      <trkpt lat="44.13765" lon="5.89047">
        <ele>736</ele>
        <time>2022-09-22T13:42:03Z</time>
      </trkpt>
      <trkpt lat="44.13764" lon="5.89048">
        <ele>736</ele>
        <time>2022-09-22T13:42:04Z</time>
      </trkpt>
      <trkpt lat="44.13764" lon="5.8905">
        <ele>736</ele>
        <time>2022-09-22T13:42:05Z</time>
      </trkpt>
      <trkpt lat="44.13764" lon="5.89051">
        <ele>736</ele>
        <time>2022-09-22T13:42:06Z</time>
      </trkpt>
      <trkpt lat="44.13763" lon="5.89053">
        <ele>736</ele>
        <time>2022-09-22T13:42:07Z</time>
      </trkpt>
      <trkpt lat="44.13763" lon="5.89054">
        <ele>736</ele>
        <time>2022-09-22T13:42:08Z</time>
      </trkpt>
      <trkpt lat="44.13762" lon="5.89056">
        <ele>736</ele>
        <time>2022-09-22T13:42:09Z</time>
      </trkpt>
      <trkpt lat="44.13761" lon="5.89057">
        <ele>735</ele>
        <time>2022-09-22T13:42:10Z</time>
      </trkpt>
      <trkpt lat="44.13761" lon="5.89059">
        <ele>735</ele>
        <time>2022-09-22T13:42:11Z</time>
      </trkpt>
      <trkpt lat="44.1376" lon="5.8906">
        <ele>735</ele>
        <time>2022-09-22T13:42:12Z</time>
      </trkpt>
      <trkpt lat="44.13759" lon="5.89061">
        <ele>735</ele>
        <time>2022-09-22T13:42:13Z</time>
      </trkpt>
      <trkpt lat="44.13759" lon="5.89063">
        <ele>735</ele>
        <time>2022-09-22T13:42:14Z</time>
      </trkpt>
      <trkpt lat="44.13758" lon="5.89064">
        <ele>735</ele>
        <time>2022-09-22T13:42:15Z</time>
      </trkpt>
      <trkpt lat="44.13757" lon="5.89065">
        <ele>735</ele>
        <time>2022-09-22T13:42:16Z</time>
      </trkpt>
      <trkpt lat="44.13756" lon="5.89066">
        <ele>735</ele>
        <time>2022-09-22T13:42:17Z</time>
      </trkpt>
      <trkpt lat="44.13755" lon="5.89067">
        <ele>735</ele>
        <time>2022-09-22T13:42:18Z</time>
      </trkpt>
      <trkpt lat="44.13754" lon="5.89068">
        <ele>735</ele>
        <time>2022-09-22T13:42:19Z</time>
      </trkpt>
      <trkpt lat="44.13754" lon="5.89069">
        <ele>734</ele>
        <time>2022-09-22T13:42:20Z</time>
      </trkpt>
      <trkpt lat="44.13753" lon="5.89071">
        <ele>734</ele>
        <time>2022-09-22T13:42:21Z</time>
      </trkpt>
      <trkpt lat="44.13752" lon="5.89072">
        <ele>734</ele>
        <time>2022-09-22T13:42:22Z</time>
      </trkpt>
      <trkpt lat="44.13751" lon="5.89073">
        <ele>734</ele>
        <time>2022-09-22T13:42:23Z</time>
      </trkpt>
      <trkpt lat="44.13751" lon="5.89075">
        <ele>734</ele>
        <time>2022-09-22T13:42:24Z</time>
      </trkpt>
      <trkpt lat="44.1375" lon="5.89076">
        <ele>733</ele>
        <time>2022-09-22T13:42:25Z</time>
      </trkpt>
      <trkpt lat="44.1375" lon="5.89077">
        <ele>733</ele>
        <time>2022-09-22T13:42:26Z</time>
      </trkpt>
      <trkpt lat="44.13749" lon="5.89079">
        <ele>733</ele>
        <time>2022-09-22T13:42:27Z</time>
      </trkpt>
      <trkpt lat="44.13748" lon="5.8908">
        <ele>733</ele>
        <time>2022-09-22T13:42:28Z</time>
      </trkpt>
      <trkpt lat="44.13748" lon="5.89082">
        <ele>733</ele>
        <time>2022-09-22T13:42:29Z</time>
      </trkpt>
      <trkpt lat="44.13747" lon="5.89083">
        <ele>733</ele>
        <time>2022-09-22T13:42:30Z</time>
      </trkpt>
      <trkpt lat="44.13746" lon="5.89084">
        <ele>733</ele>
        <time>2022-09-22T13:42:31Z</time>
      </trkpt>
      <trkpt lat="44.13746" lon="5.89085">
        <ele>733</ele>
        <time>2022-09-22T13:42:32Z</time>
      </trkpt>
      <trkpt lat="44.13745" lon="5.89086">
        <ele>733</ele>
        <time>2022-09-22T13:42:33Z</time>
      </trkpt>
      <trkpt lat="44.13745" lon="5.89088">
        <ele>733</ele>
        <time>2022-09-22T13:42:34Z</time>
      </trkpt>
      <trkpt lat="44.13744" lon="5.89089">
        <ele>732</ele>
        <time>2022-09-22T13:42:35Z</time>
      </trkpt>
      <trkpt lat="44.13744" lon="5.8909">
        <ele>732</ele>
        <time>2022-09-22T13:42:36Z</time>
      </trkpt>
      <trkpt lat="44.13743" lon="5.89091">
        <ele>732</ele>
        <time>2022-09-22T13:42:37Z</time>
      </trkpt>
      <trkpt lat="44.13742" lon="5.89092">
        <ele>732</ele>
        <time>2022-09-22T13:42:38Z</time>
      </trkpt>
      <trkpt lat="44.13742" lon="5.89093">
        <ele>732</ele>
        <time>2022-09-22T13:42:39Z</time>
      </trkpt>
      <trkpt lat="44.13741" lon="5.89094">
        <ele>731</ele>
        <time>2022-09-22T13:42:40Z</time>
      </trkpt>
      <trkpt lat="44.1374" lon="5.89096">
        <ele>731</ele>
        <time>2022-09-22T13:42:41Z</time>
      </trkpt>
      <trkpt lat="44.13739" lon="5.89097">
        <ele>731</ele>
        <time>2022-09-22T13:42:42Z</time>
      </trkpt>
      <trkpt lat="44.13738" lon="5.89098">
        <ele>731</ele>
        <time>2022-09-22T13:42:43Z</time>
      </trkpt>
      <trkpt lat="44.13737" lon="5.89099">
        <ele>731</ele>
        <time>2022-09-22T13:42:44Z</time>
      </trkpt>
      <trkpt lat="44.13737" lon="5.891">
        <ele>731</ele>
        <time>2022-09-22T13:42:45Z</time>
      </trkpt>
      <trkpt lat="44.13736" lon="5.89101">
        <ele>731</ele>
        <time>2022-09-22T13:42:46Z</time>
      </trkpt>
      <trkpt lat="44.13735" lon="5.89102">
        <ele>731</ele>
        <time>2022-09-22T13:42:47Z</time>
      </trkpt>
      <trkpt lat="44.13735" lon="5.89103">
        <ele>731</ele>
        <time>2022-09-22T13:42:48Z</time>
      </trkpt>
      <trkpt lat="44.13735" lon="5.89104">
        <ele>731</ele>
        <time>2022-09-22T13:42:49Z</time>
      </trkpt>
      <trkpt lat="44.13735" lon="5.89105">
        <ele>730</ele>
        <time>2022-09-22T13:42:50Z</time>
      </trkpt>
      <trkpt lat="44.13735" lon="5.89106">
        <ele>730</ele>
        <time>2022-09-22T13:42:51Z</time>
      </trkpt>
      <trkpt lat="44.13736" lon="5.89107">
        <ele>730</ele>
        <time>2022-09-22T13:42:52Z</time>
      </trkpt>
      <trkpt lat="44.13736" lon="5.89108">
        <ele>730</ele>
        <time>2022-09-22T13:42:53Z</time>
      </trkpt>
      <trkpt lat="44.13737" lon="5.89108">
        <ele>730</ele>
        <time>2022-09-22T13:42:54Z</time>
      </trkpt>
      <trkpt lat="44.13737" lon="5.89108">
        <ele>729</ele>
        <time>2022-09-22T13:42:55Z</time>
      </trkpt>
      <trkpt lat="44.13738" lon="5.89108">
        <ele>729</ele>
        <time>2022-09-22T13:42:56Z</time>
      </trkpt>
      <trkpt lat="44.13738" lon="5.89108">
        <ele>729</ele>
        <time>2022-09-22T13:42:57Z</time>
      </trkpt>
      <trkpt lat="44.13739" lon="5.89108">
        <ele>729</ele>
        <time>2022-09-22T13:42:58Z</time>
      </trkpt>
      <trkpt lat="44.1374" lon="5.89107">
        <ele>729</ele>
        <time>2022-09-22T13:42:59Z</time>
      </trkpt>
      <trkpt lat="44.13741" lon="5.89107">
        <ele>729</ele>
        <time>2022-09-22T13:43:00Z</time>
      </trkpt>
      <trkpt lat="44.13741" lon="5.89106">
        <ele>729</ele>
        <time>2022-09-22T13:43:01Z</time>
      </trkpt>
      <trkpt lat="44.13742" lon="5.89106">
        <ele>729</ele>
        <time>2022-09-22T13:43:02Z</time>
      </trkpt>
      <trkpt lat="44.13743" lon="5.89105">
        <ele>729</ele>
        <time>2022-09-22T13:43:03Z</time>
      </trkpt>
      <trkpt lat="44.13744" lon="5.89105">
        <ele>729</ele>
        <time>2022-09-22T13:43:04Z</time>
      </trkpt>
      <trkpt lat="44.13744" lon="5.89105">
        <ele>728</ele>
        <time>2022-09-22T13:43:05Z</time>
      </trkpt>
      <trkpt lat="44.13745" lon="5.89104">
        <ele>728</ele>
        <time>2022-09-22T13:43:06Z</time>
      </trkpt>
      <trkpt lat="44.13746" lon="5.89104">
        <ele>728</ele>
        <time>2022-09-22T13:43:07Z</time>
      </trkpt>
      <trkpt lat="44.13747" lon="5.89104">
        <ele>728</ele>
        <time>2022-09-22T13:43:08Z</time>
      </trkpt>
      <trkpt lat="44.13748" lon="5.89103">
        <ele>728</ele>
        <time>2022-09-22T13:43:09Z</time>
      </trkpt>
      <trkpt lat="44.13749" lon="5.89103">
        <ele>727</ele>
        <time>2022-09-22T13:43:10Z</time>
      </trkpt>
      <trkpt lat="44.1375" lon="5.89103">
        <ele>727</ele>
        <time>2022-09-22T13:43:11Z</time>
      </trkpt>
      <trkpt lat="44.13751" lon="5.89102">
        <ele>727</ele>
        <time>2022-09-22T13:43:12Z</time>
      </trkpt>
      <trkpt lat="44.13752" lon="5.89102">
        <ele>727</ele>
        <time>2022-09-22T13:43:13Z</time>
      </trkpt>
      <trkpt lat="44.13753" lon="5.89102">
        <ele>727</ele>
        <time>2022-09-22T13:43:14Z</time>
      </trkpt>
      <trkpt lat="44.13753" lon="5.89102">
        <ele>727</ele>
        <time>2022-09-22T13:43:15Z</time>
      </trkpt>
      <trkpt lat="44.13754" lon="5.89101">
        <ele>727</ele>
        <time>2022-09-22T13:43:16Z</time>
      </trkpt>
      <trkpt lat="44.13755" lon="5.89101">
        <ele>727</ele>
        <time>2022-09-22T13:43:17Z</time>
      </trkpt>
      <trkpt lat="44.13756" lon="5.891">
        <ele>727</ele>
        <time>2022-09-22T13:43:18Z</time>
      </trkpt>
      <trkpt lat="44.13757" lon="5.891">
        <ele>727</ele>
        <time>2022-09-22T13:43:19Z</time>
      </trkpt>
      <trkpt lat="44.13758" lon="5.89099">
        <ele>726</ele>
        <time>2022-09-22T13:43:20Z</time>
      </trkpt>
      <trkpt lat="44.13759" lon="5.89099">
        <ele>726</ele>
        <time>2022-09-22T13:43:21Z</time>
      </trkpt>
      <trkpt lat="44.13759" lon="5.89099">
        <ele>726</ele>
        <time>2022-09-22T13:43:22Z</time>
      </trkpt>
      <trkpt lat="44.1376" lon="5.89098">
        <ele>726</ele>
        <time>2022-09-22T13:43:23Z</time>
      </trkpt>
      <trkpt lat="44.13761" lon="5.89098">
        <ele>726</ele>
        <time>2022-09-22T13:43:24Z</time>
      </trkpt>
      <trkpt lat="44.13762" lon="5.89097">
        <ele>725</ele>
        <time>2022-09-22T13:43:25Z</time>
      </trkpt>
      <trkpt lat="44.13764" lon="5.89097">
        <ele>725</ele>
        <time>2022-09-22T13:43:26Z</time>
      </trkpt>
      <trkpt lat="44.13765" lon="5.89097">
        <ele>725</ele>
        <time>2022-09-22T13:43:27Z</time>
      </trkpt>
      <trkpt lat="44.13766" lon="5.89096">
        <ele>725</ele>
        <time>2022-09-22T13:43:28Z</time>
      </trkpt>
      <trkpt lat="44.13766" lon="5.89096">
        <ele>725</ele>
        <time>2022-09-22T13:43:29Z</time>
      </trkpt>
      <trkpt lat="44.13767" lon="5.89095">
        <ele>724</ele>
        <time>2022-09-22T13:43:30Z</time>
      </trkpt>
      <trkpt lat="44.13768" lon="5.89094">
        <ele>724</ele>
        <time>2022-09-22T13:43:31Z</time>
      </trkpt>
      <trkpt lat="44.13769" lon="5.89094">
        <ele>724</ele>
        <time>2022-09-22T13:43:32Z</time>
      </trkpt>
      <trkpt lat="44.1377" lon="5.89093">
        <ele>724</ele>
        <time>2022-09-22T13:43:33Z</time>
      </trkpt>
      <trkpt lat="44.13771" lon="5.89093">
        <ele>724</ele>
        <time>2022-09-22T13:43:34Z</time>
      </trkpt>
      <trkpt lat="44.13772" lon="5.89092">
        <ele>724</ele>
        <time>2022-09-22T13:43:35Z</time>
      </trkpt>
      <trkpt lat="44.13772" lon="5.89092">
        <ele>724</ele>
        <time>2022-09-22T13:43:36Z</time>
      </trkpt>
      <trkpt lat="44.13773" lon="5.89091">
        <ele>724</ele>
        <time>2022-09-22T13:43:37Z</time>
      </trkpt>
      <trkpt lat="44.13774" lon="5.89091">
        <ele>724</ele>
        <time>2022-09-22T13:43:38Z</time>
      </trkpt>
      <trkpt lat="44.13775" lon="5.8909">
        <ele>724</ele>
        <time>2022-09-22T13:43:39Z</time>
      </trkpt>
      <trkpt lat="44.13776" lon="5.8909">
        <ele>723</ele>
        <time>2022-09-22T13:43:40Z</time>
      </trkpt>
      <trkpt lat="44.13777" lon="5.8909">
        <ele>723</ele>
        <time>2022-09-22T13:43:41Z</time>
      </trkpt>
      <trkpt lat="44.13777" lon="5.89089">
        <ele>723</ele>
        <time>2022-09-22T13:43:42Z</time>
      </trkpt>
      <trkpt lat="44.13778" lon="5.89089">
        <ele>723</ele>
        <time>2022-09-22T13:43:43Z</time>
      </trkpt>
      <trkpt lat="44.13779" lon="5.89088">
        <ele>723</ele>
        <time>2022-09-22T13:43:44Z</time>
      </trkpt>
      <trkpt lat="44.1378" lon="5.89087">
        <ele>723</ele>
        <time>2022-09-22T13:43:45Z</time>
      </trkpt>
      <trkpt lat="44.13781" lon="5.89087">
        <ele>723</ele>
        <time>2022-09-22T13:43:46Z</time>
      </trkpt>
      <trkpt lat="44.13782" lon="5.89086">
        <ele>723</ele>
        <time>2022-09-22T13:43:47Z</time>
      </trkpt>
      <trkpt lat="44.13783" lon="5.89085">
        <ele>723</ele>
        <time>2022-09-22T13:43:48Z</time>
      </trkpt>
      <trkpt lat="44.13784" lon="5.89085">
        <ele>723</ele>
        <time>2022-09-22T13:43:49Z</time>
      </trkpt>
      <trkpt lat="44.13784" lon="5.89084">
        <ele>722</ele>
        <time>2022-09-22T13:43:50Z</time>
      </trkpt>
      <trkpt lat="44.13785" lon="5.89083">
        <ele>722</ele>
        <time>2022-09-22T13:43:51Z</time>
      </trkpt>
      <trkpt lat="44.13786" lon="5.89082">
        <ele>722</ele>
        <time>2022-09-22T13:43:52Z</time>
      </trkpt>
      <trkpt lat="44.13787" lon="5.89082">
        <ele>722</ele>
        <time>2022-09-22T13:43:53Z</time>
      </trkpt>
      <trkpt lat="44.13788" lon="5.89081">
        <ele>722</ele>
        <time>2022-09-22T13:43:54Z</time>
      </trkpt>
      <trkpt lat="44.13789" lon="5.8908">
        <ele>722</ele>
        <time>2022-09-22T13:43:55Z</time>
      </trkpt>
      <trkpt lat="44.1379" lon="5.89079">
        <ele>722</ele>
        <time>2022-09-22T13:43:56Z</time>
      </trkpt>
      <trkpt lat="44.13791" lon="5.89078">
        <ele>722</ele>
        <time>2022-09-22T13:43:57Z</time>
      </trkpt>
      <trkpt lat="44.13792" lon="5.89077">
        <ele>722</ele>
        <time>2022-09-22T13:43:58Z</time>
      </trkpt>
      <trkpt lat="44.13793" lon="5.89076">
        <ele>722</ele>
        <time>2022-09-22T13:43:59Z</time>
      </trkpt>
      <trkpt lat="44.13794" lon="5.89076">
        <ele>721</ele>
        <time>2022-09-22T13:44:00Z</time>
      </trkpt>
      <trkpt lat="44.13795" lon="5.89075">
        <ele>721</ele>
        <time>2022-09-22T13:44:01Z</time>
      </trkpt>
      <trkpt lat="44.13796" lon="5.89075">
        <ele>721</ele>
        <time>2022-09-22T13:44:02Z</time>
      </trkpt>
      <trkpt lat="44.13797" lon="5.89074">
        <ele>721</ele>
        <time>2022-09-22T13:44:03Z</time>
      </trkpt>
      <trkpt lat="44.13798" lon="5.89074">
        <ele>721</ele>
        <time>2022-09-22T13:44:04Z</time>
      </trkpt>
      <trkpt lat="44.13798" lon="5.89073">
        <ele>720</ele>
        <time>2022-09-22T13:44:05Z</time>
      </trkpt>
      <trkpt lat="44.13799" lon="5.89073">
        <ele>720</ele>
        <time>2022-09-22T13:44:06Z</time>
      </trkpt>
      <trkpt lat="44.138" lon="5.89073">
        <ele>720</ele>
        <time>2022-09-22T13:44:07Z</time>
      </trkpt>
      <trkpt lat="44.138" lon="5.89072">
        <ele>720</ele>
        <time>2022-09-22T13:44:08Z</time>
      </trkpt>
      <trkpt lat="44.13801" lon="5.89072">
        <ele>720</ele>
        <time>2022-09-22T13:44:09Z</time>
      </trkpt>
      <trkpt lat="44.13802" lon="5.89072">
        <ele>719</ele>
        <time>2022-09-22T13:44:10Z</time>
      </trkpt>
      <trkpt lat="44.13803" lon="5.89071">
        <ele>719</ele>
        <time>2022-09-22T13:44:11Z</time>
      </trkpt>
      <trkpt lat="44.13804" lon="5.8907">
        <ele>719</ele>
        <time>2022-09-22T13:44:12Z</time>
      </trkpt>
      <trkpt lat="44.13805" lon="5.8907">
        <ele>719</ele>
        <time>2022-09-22T13:44:13Z</time>
      </trkpt>
      <trkpt lat="44.13806" lon="5.89069">
        <ele>719</ele>
        <time>2022-09-22T13:44:14Z</time>
      </trkpt>
      <trkpt lat="44.13807" lon="5.89068">
        <ele>718</ele>
        <time>2022-09-22T13:44:15Z</time>
      </trkpt>
      <trkpt lat="44.13807" lon="5.89068">
        <ele>718</ele>
        <time>2022-09-22T13:44:16Z</time>
      </trkpt>
      <trkpt lat="44.13808" lon="5.89067">
        <ele>718</ele>
        <time>2022-09-22T13:44:17Z</time>
      </trkpt>
      <trkpt lat="44.13809" lon="5.89066">
        <ele>718</ele>
        <time>2022-09-22T13:44:18Z</time>
      </trkpt>
      <trkpt lat="44.13809" lon="5.89065">
        <ele>718</ele>
        <time>2022-09-22T13:44:19Z</time>
      </trkpt>
      <trkpt lat="44.1381" lon="5.89065">
        <ele>718</ele>
        <time>2022-09-22T13:44:20Z</time>
      </trkpt>
      <trkpt lat="44.13811" lon="5.89063">
        <ele>718</ele>
        <time>2022-09-22T13:44:21Z</time>
      </trkpt>
      <trkpt lat="44.13812" lon="5.89062">
        <ele>718</ele>
        <time>2022-09-22T13:44:22Z</time>
      </trkpt>
      <trkpt lat="44.13813" lon="5.89061">
        <ele>718</ele>
        <time>2022-09-22T13:44:23Z</time>
      </trkpt>
      <trkpt lat="44.13815" lon="5.8906">
        <ele>718</ele>
        <time>2022-09-22T13:44:24Z</time>
      </trkpt>
      <trkpt lat="44.13816" lon="5.89059">
        <ele>717</ele>
        <time>2022-09-22T13:44:25Z</time>
      </trkpt>
      <trkpt lat="44.13817" lon="5.89058">
        <ele>717</ele>
        <time>2022-09-22T13:44:26Z</time>
      </trkpt>
      <trkpt lat="44.13818" lon="5.89057">
        <ele>717</ele>
        <time>2022-09-22T13:44:27Z</time>
      </trkpt>
      <trkpt lat="44.13819" lon="5.89056">
        <ele>717</ele>
        <time>2022-09-22T13:44:28Z</time>
      </trkpt>
      <trkpt lat="44.13819" lon="5.89055">
        <ele>717</ele>
        <time>2022-09-22T13:44:29Z</time>
      </trkpt>
      <trkpt lat="44.1382" lon="5.89055">
        <ele>717</ele>
        <time>2022-09-22T13:44:30Z</time>
      </trkpt>
      <trkpt lat="44.1382" lon="5.89054">
        <ele>717</ele>
        <time>2022-09-22T13:44:31Z</time>
      </trkpt>
      <trkpt lat="44.13821" lon="5.89053">
        <ele>717</ele>
        <time>2022-09-22T13:44:32Z</time>
      </trkpt>
      <trkpt lat="44.13821" lon="5.89053">
        <ele>717</ele>
        <time>2022-09-22T13:44:33Z</time>
      </trkpt>
      <trkpt lat="44.13822" lon="5.89052">
        <ele>717</ele>
        <time>2022-09-22T13:44:34Z</time>
      </trkpt>
      <trkpt lat="44.13822" lon="5.89051">
        <ele>716</ele>
        <time>2022-09-22T13:44:35Z</time>
      </trkpt>
      <trkpt lat="44.13823" lon="5.8905">
        <ele>716</ele>
        <time>2022-09-22T13:44:36Z</time>
      </trkpt>
      <trkpt lat="44.13824" lon="5.89049">
        <ele>716</ele>
        <time>2022-09-22T13:44:37Z</time>
      </trkpt>
      <trkpt lat="44.13825" lon="5.89048">
        <ele>716</ele>
        <time>2022-09-22T13:44:38Z</time>
      </trkpt>
      <trkpt lat="44.13825" lon="5.89047">
        <ele>716</ele>
        <time>2022-09-22T13:44:39Z</time>
      </trkpt>
      <trkpt lat="44.13825" lon="5.89046">
        <ele>715</ele>
        <time>2022-09-22T13:44:40Z</time>
      </trkpt>
      <trkpt lat="44.13826" lon="5.89045">
        <ele>715</ele>
        <time>2022-09-22T13:44:41Z</time>
      </trkpt>
      <trkpt lat="44.13826" lon="5.89044">
        <ele>715</ele>
        <time>2022-09-22T13:44:42Z</time>
      </trkpt>
      <trkpt lat="44.13826" lon="5.89043">
        <ele>715</ele>
        <time>2022-09-22T13:44:43Z</time>
      </trkpt>
      <trkpt lat="44.13827" lon="5.89042">
        <ele>715</ele>
        <time>2022-09-22T13:44:44Z</time>
      </trkpt>
      <trkpt lat="44.13827" lon="5.89041">
        <ele>715</ele>
        <time>2022-09-22T13:44:45Z</time>
      </trkpt>
      <trkpt lat="44.13828" lon="5.89039">
        <ele>715</ele>
        <time>2022-09-22T13:44:46Z</time>
      </trkpt>
      <trkpt lat="44.13829" lon="5.89038">
        <ele>715</ele>
        <time>2022-09-22T13:44:47Z</time>
      </trkpt>
      <trkpt lat="44.1383" lon="5.89037">
        <ele>715</ele>
        <time>2022-09-22T13:44:48Z</time>
      </trkpt>
      <trkpt lat="44.13831" lon="5.89036">
        <ele>715</ele>
        <time>2022-09-22T13:44:49Z</time>
      </trkpt>
      <trkpt lat="44.13832" lon="5.89034">
        <ele>714</ele>
        <time>2022-09-22T13:44:50Z</time>
      </trkpt>
      <trkpt lat="44.13833" lon="5.89034">
        <ele>714</ele>
        <time>2022-09-22T13:44:51Z</time>
      </trkpt>
      <trkpt lat="44.13833" lon="5.89033">
        <ele>713</ele>
        <time>2022-09-22T13:44:52Z</time>
      </trkpt>
      <trkpt lat="44.13834" lon="5.89032">
        <ele>713</ele>
        <time>2022-09-22T13:44:53Z</time>
      </trkpt>
      <trkpt lat="44.13834" lon="5.89031">
        <ele>713</ele>
        <time>2022-09-22T13:44:54Z</time>
      </trkpt>
      <trkpt lat="44.13834" lon="5.8903">
        <ele>712</ele>
        <time>2022-09-22T13:44:55Z</time>
      </trkpt>
      <trkpt lat="44.13835" lon="5.8903">
        <ele>712</ele>
        <time>2022-09-22T13:44:56Z</time>
      </trkpt>
      <trkpt lat="44.13835" lon="5.89029">
        <ele>712</ele>
        <time>2022-09-22T13:44:57Z</time>
      </trkpt>
      <trkpt lat="44.13836" lon="5.89028">
        <ele>712</ele>
        <time>2022-09-22T13:44:58Z</time>
      </trkpt>
      <trkpt lat="44.13837" lon="5.89028">
        <ele>712</ele>
        <time>2022-09-22T13:44:59Z</time>
      </trkpt>
      <trkpt lat="44.13837" lon="5.89027">
        <ele>712</ele>
        <time>2022-09-22T13:45:00Z</time>
      </trkpt>
      <trkpt lat="44.13838" lon="5.89027">
        <ele>712</ele>
        <time>2022-09-22T13:45:01Z</time>
      </trkpt>
      <trkpt lat="44.13839" lon="5.89026">
        <ele>712</ele>
        <time>2022-09-22T13:45:02Z</time>
      </trkpt>
      <trkpt lat="44.13839" lon="5.89025">
        <ele>712</ele>
        <time>2022-09-22T13:45:03Z</time>
      </trkpt>
      <trkpt lat="44.1384" lon="5.89024">
        <ele>712</ele>
        <time>2022-09-22T13:45:04Z</time>
      </trkpt>
      <trkpt lat="44.13842" lon="5.89023">
        <ele>711</ele>
        <time>2022-09-22T13:45:05Z</time>
      </trkpt>
      <trkpt lat="44.13843" lon="5.89022">
        <ele>711</ele>
        <time>2022-09-22T13:45:06Z</time>
      </trkpt>
      <trkpt lat="44.13844" lon="5.8902">
        <ele>711</ele>
        <time>2022-09-22T13:45:07Z</time>
      </trkpt>
      <trkpt lat="44.13845" lon="5.89018">
        <ele>711</ele>
        <time>2022-09-22T13:45:08Z</time>
      </trkpt>
      <trkpt lat="44.13847" lon="5.89017">
        <ele>711</ele>
        <time>2022-09-22T13:45:09Z</time>
      </trkpt>
      <trkpt lat="44.13848" lon="5.89015">
        <ele>711</ele>
        <time>2022-09-22T13:45:10Z</time>
      </trkpt>
      <trkpt lat="44.13849" lon="5.89014">
        <ele>711</ele>
        <time>2022-09-22T13:45:11Z</time>
      </trkpt>
      <trkpt lat="44.13849" lon="5.89014">
        <ele>711</ele>
        <time>2022-09-22T13:45:12Z</time>
      </trkpt>
      <trkpt lat="44.1385" lon="5.89013">
        <ele>711</ele>
        <time>2022-09-22T13:45:13Z</time>
      </trkpt>
      <trkpt lat="44.1385" lon="5.89013">
        <ele>711</ele>
        <time>2022-09-22T13:45:14Z</time>
      </trkpt>
      <trkpt lat="44.13851" lon="5.89012">
        <ele>710</ele>
        <time>2022-09-22T13:45:15Z</time>
      </trkpt>
      <trkpt lat="44.13851" lon="5.89011">
        <ele>710</ele>
        <time>2022-09-22T13:45:16Z</time>
      </trkpt>
      <trkpt lat="44.13852" lon="5.89011">
        <ele>710</ele>
        <time>2022-09-22T13:45:17Z</time>
      </trkpt>
      <trkpt lat="44.13852" lon="5.8901">
        <ele>710</ele>
        <time>2022-09-22T13:45:18Z</time>
      </trkpt>
      <trkpt lat="44.13852" lon="5.89008">
        <ele>710</ele>
        <time>2022-09-22T13:45:19Z</time>
      </trkpt>
      <trkpt lat="44.13852" lon="5.89007">
        <ele>710</ele>
        <time>2022-09-22T13:45:20Z</time>
      </trkpt>
      <trkpt lat="44.13853" lon="5.89005">
        <ele>710</ele>
        <time>2022-09-22T13:45:21Z</time>
      </trkpt>
      <trkpt lat="44.13854" lon="5.89004">
        <ele>710</ele>
        <time>2022-09-22T13:45:22Z</time>
      </trkpt>
      <trkpt lat="44.13855" lon="5.89002">
        <ele>710</ele>
        <time>2022-09-22T13:45:23Z</time>
      </trkpt>
      <trkpt lat="44.13856" lon="5.89001">
        <ele>710</ele>
        <time>2022-09-22T13:45:24Z</time>
      </trkpt>
      <trkpt lat="44.13858" lon="5.89">
        <ele>709</ele>
        <time>2022-09-22T13:45:25Z</time>
      </trkpt>
      <trkpt lat="44.13859" lon="5.88999">
        <ele>709</ele>
        <time>2022-09-22T13:45:26Z</time>
      </trkpt>
      <trkpt lat="44.1386" lon="5.88997">
        <ele>709</ele>
        <time>2022-09-22T13:45:27Z</time>
      </trkpt>
      <trkpt lat="44.13861" lon="5.88996">
        <ele>709</ele>
        <time>2022-09-22T13:45:28Z</time>
      </trkpt>
      <trkpt lat="44.13862" lon="5.88995">
        <ele>709</ele>
        <time>2022-09-22T13:45:29Z</time>
      </trkpt>
      <trkpt lat="44.13863" lon="5.88994">
        <ele>709</ele>
        <time>2022-09-22T13:45:30Z</time>
      </trkpt>
      <trkpt lat="44.13863" lon="5.88994">
        <ele>709</ele>
        <time>2022-09-22T13:45:31Z</time>
      </trkpt>
      <trkpt lat="44.13864" lon="5.88993">
        <ele>709</ele>
        <time>2022-09-22T13:45:32Z</time>
      </trkpt>
      <trkpt lat="44.13864" lon="5.88992">
        <ele>709</ele>
        <time>2022-09-22T13:45:33Z</time>
      </trkpt>
      <trkpt lat="44.13865" lon="5.88992">
        <ele>709</ele>
        <time>2022-09-22T13:45:34Z</time>
      </trkpt>
      <trkpt lat="44.13865" lon="5.88991">
        <ele>709</ele>
        <time>2022-09-22T13:45:35Z</time>
      </trkpt>
      <trkpt lat="44.13865" lon="5.88991">
        <ele>709</ele>
        <time>2022-09-22T13:45:36Z</time>
      </trkpt>
      <trkpt lat="44.13865" lon="5.8899">
        <ele>709</ele>
        <time>2022-09-22T13:45:37Z</time>
      </trkpt>
      <trkpt lat="44.13865" lon="5.8899">
        <ele>709</ele>
        <time>2022-09-22T13:45:38Z</time>
      </trkpt>
      <trkpt lat="44.13866" lon="5.88989">
        <ele>709</ele>
        <time>2022-09-22T13:45:39Z</time>
      </trkpt>
      <trkpt lat="44.13866" lon="5.88988">
        <ele>708</ele>
        <time>2022-09-22T13:45:40Z</time>
      </trkpt>
      <trkpt lat="44.13867" lon="5.88987">
        <ele>708</ele>
        <time>2022-09-22T13:45:41Z</time>
      </trkpt>
      <trkpt lat="44.13867" lon="5.88987">
        <ele>708</ele>
        <time>2022-09-22T13:45:42Z</time>
      </trkpt>
      <trkpt lat="44.13867" lon="5.88986">
        <ele>708</ele>
        <time>2022-09-22T13:45:43Z</time>
      </trkpt>
      <trkpt lat="44.13868" lon="5.88985">
        <ele>708</ele>
        <time>2022-09-22T13:45:44Z</time>
      </trkpt>
      <trkpt lat="44.13868" lon="5.88984">
        <ele>708</ele>
        <time>2022-09-22T13:45:45Z</time>
      </trkpt>
      <trkpt lat="44.13869" lon="5.88983">
        <ele>708</ele>
        <time>2022-09-22T13:45:46Z</time>
      </trkpt>
      <trkpt lat="44.13869" lon="5.88983">
        <ele>708</ele>
        <time>2022-09-22T13:45:47Z</time>
      </trkpt>
      <trkpt lat="44.1387" lon="5.88982">
        <ele>708</ele>
        <time>2022-09-22T13:45:48Z</time>
      </trkpt>
      <trkpt lat="44.13871" lon="5.88982">
        <ele>707</ele>
        <time>2022-09-22T13:46:02Z</time>
      </trkpt>
      <trkpt lat="44.13872" lon="5.88982">
        <ele>707</ele>
        <time>2022-09-22T13:46:03Z</time>
      </trkpt>
      <trkpt lat="44.13872" lon="5.88981">
        <ele>707</ele>
        <time>2022-09-22T13:46:04Z</time>
      </trkpt>
      <trkpt lat="44.13873" lon="5.88981">
        <ele>707</ele>
        <time>2022-09-22T13:47:54Z</time>
      </trkpt>
      <trkpt lat="44.13874" lon="5.88982">
        <ele>707</ele>
        <time>2022-09-22T13:47:55Z</time>
      </trkpt>
      <trkpt lat="44.13874" lon="5.88983">
        <ele>707</ele>
        <time>2022-09-22T13:47:56Z</time>
      </trkpt>
      <trkpt lat="44.13874" lon="5.88983">
        <ele>707</ele>
        <time>2022-09-22T13:47:57Z</time>
      </trkpt>
      <trkpt lat="44.13875" lon="5.88984">
        <ele>707</ele>
        <time>2022-09-22T13:47:58Z</time>
      </trkpt>
      <trkpt lat="44.13875" lon="5.88986">
        <ele>707</ele>
        <time>2022-09-22T13:47:59Z</time>
      </trkpt>
      <trkpt lat="44.13876" lon="5.88987">
        <ele>706</ele>
        <time>2022-09-22T13:48:00Z</time>
      </trkpt>
      <trkpt lat="44.13876" lon="5.88989">
        <ele>706</ele>
        <time>2022-09-22T13:48:01Z</time>
      </trkpt>
      <trkpt lat="44.13876" lon="5.8899">
        <ele>706</ele>
        <time>2022-09-22T13:48:02Z</time>
      </trkpt>
      <trkpt lat="44.13876" lon="5.88991">
        <ele>706</ele>
        <time>2022-09-22T13:48:03Z</time>
      </trkpt>
      <trkpt lat="44.13876" lon="5.88993">
        <ele>706</ele>
        <time>2022-09-22T13:48:04Z</time>
      </trkpt>
      <trkpt lat="44.13876" lon="5.88994">
        <ele>706</ele>
        <time>2022-09-22T13:48:05Z</time>
      </trkpt>
      <trkpt lat="44.13876" lon="5.88995">
        <ele>706</ele>
        <time>2022-09-22T13:48:06Z</time>
      </trkpt>
      <trkpt lat="44.13876" lon="5.88996">
        <ele>706</ele>
        <time>2022-09-22T13:48:07Z</time>
      </trkpt>
      <trkpt lat="44.13875" lon="5.88997">
        <ele>706</ele>
        <time>2022-09-22T13:48:08Z</time>
      </trkpt>
      <trkpt lat="44.13875" lon="5.88998">
        <ele>706</ele>
        <time>2022-09-22T13:48:09Z</time>
      </trkpt>
      <trkpt lat="44.13875" lon="5.88999">
        <ele>706</ele>
        <time>2022-09-22T13:48:10Z</time>
      </trkpt>
      <trkpt lat="44.13875" lon="5.89">
        <ele>706</ele>
        <time>2022-09-22T13:48:11Z</time>
      </trkpt>
      <trkpt lat="44.13875" lon="5.89002">
        <ele>706</ele>
        <time>2022-09-22T13:48:12Z</time>
      </trkpt>
      <trkpt lat="44.13875" lon="5.89003">
        <ele>706</ele>
        <time>2022-09-22T13:48:13Z</time>
      </trkpt>
      <trkpt lat="44.13875" lon="5.89004">
        <ele>706</ele>
        <time>2022-09-22T13:48:14Z</time>
      </trkpt>
      <trkpt lat="44.13875" lon="5.89004">
        <ele>705</ele>
        <time>2022-09-22T13:48:15Z</time>
      </trkpt>
      <trkpt lat="44.13875" lon="5.89005">
        <ele>705</ele>
        <time>2022-09-22T13:48:16Z</time>
      </trkpt>
      <trkpt lat="44.13875" lon="5.89006">
        <ele>705</ele>
        <time>2022-09-22T13:48:17Z</time>
      </trkpt>
      <trkpt lat="44.13875" lon="5.89007">
        <ele>705</ele>
        <time>2022-09-22T13:48:18Z</time>
      </trkpt>
      <trkpt lat="44.13875" lon="5.89008">
        <ele>705</ele>
        <time>2022-09-22T13:48:19Z</time>
      </trkpt>
      <trkpt lat="44.13875" lon="5.89009">
        <ele>704</ele>
        <time>2022-09-22T13:48:20Z</time>
      </trkpt>
      <trkpt lat="44.13875" lon="5.8901">
        <ele>704</ele>
        <time>2022-09-22T13:48:21Z</time>
      </trkpt>
      <trkpt lat="44.13874" lon="5.89011">
        <ele>704</ele>
        <time>2022-09-22T13:48:22Z</time>
      </trkpt>
      <trkpt lat="44.13874" lon="5.89012">
        <ele>704</ele>
        <time>2022-09-22T13:48:23Z</time>
      </trkpt>
      <trkpt lat="44.13874" lon="5.89013">
        <ele>704</ele>
        <time>2022-09-22T13:48:24Z</time>
      </trkpt>
      <trkpt lat="44.13873" lon="5.89015">
        <ele>704</ele>
        <time>2022-09-22T13:48:25Z</time>
      </trkpt>
      <trkpt lat="44.13873" lon="5.89016">
        <ele>704</ele>
        <time>2022-09-22T13:48:26Z</time>
      </trkpt>
      <trkpt lat="44.13873" lon="5.89017">
        <ele>704</ele>
        <time>2022-09-22T13:48:27Z</time>
      </trkpt>
      <trkpt lat="44.13873" lon="5.89018">
        <ele>704</ele>
        <time>2022-09-22T13:48:28Z</time>
      </trkpt>
      <trkpt lat="44.13874" lon="5.8902">
        <ele>704</ele>
        <time>2022-09-22T13:48:29Z</time>
      </trkpt>
      <trkpt lat="44.13874" lon="5.89021">
        <ele>704</ele>
        <time>2022-09-22T13:48:30Z</time>
      </trkpt>
      <trkpt lat="44.13874" lon="5.89023">
        <ele>704</ele>
        <time>2022-09-22T13:48:31Z</time>
      </trkpt>
      <trkpt lat="44.13873" lon="5.89024">
        <ele>704</ele>
        <time>2022-09-22T13:48:32Z</time>
      </trkpt>
      <trkpt lat="44.13873" lon="5.89026">
        <ele>704</ele>
        <time>2022-09-22T13:48:33Z</time>
      </trkpt>
      <trkpt lat="44.13873" lon="5.89027">
        <ele>704</ele>
        <time>2022-09-22T13:48:34Z</time>
      </trkpt>
      <trkpt lat="44.13872" lon="5.89029">
        <ele>703</ele>
        <time>2022-09-22T13:48:35Z</time>
      </trkpt>
      <trkpt lat="44.13871" lon="5.8903">
        <ele>703</ele>
        <time>2022-09-22T13:48:36Z</time>
      </trkpt>
      <trkpt lat="44.13871" lon="5.89032">
        <ele>703</ele>
        <time>2022-09-22T13:48:37Z</time>
      </trkpt>
      <trkpt lat="44.1387" lon="5.89033">
        <ele>703</ele>
        <time>2022-09-22T13:48:38Z</time>
      </trkpt>
      <trkpt lat="44.1387" lon="5.89035">
        <ele>703</ele>
        <time>2022-09-22T13:48:39Z</time>
      </trkpt>
      <trkpt lat="44.13869" lon="5.89036">
        <ele>703</ele>
        <time>2022-09-22T13:48:40Z</time>
      </trkpt>
      <trkpt lat="44.13869" lon="5.89037">
        <ele>703</ele>
        <time>2022-09-22T13:48:41Z</time>
      </trkpt>
      <trkpt lat="44.13869" lon="5.89039">
        <ele>703</ele>
        <time>2022-09-22T13:48:42Z</time>
      </trkpt>
      <trkpt lat="44.13868" lon="5.8904">
        <ele>703</ele>
        <time>2022-09-22T13:48:43Z</time>
      </trkpt>
      <trkpt lat="44.13868" lon="5.89041">
        <ele>703</ele>
        <time>2022-09-22T13:48:44Z</time>
      </trkpt>
      <trkpt lat="44.13868" lon="5.89043">
        <ele>703</ele>
        <time>2022-09-22T13:48:45Z</time>
      </trkpt>
      <trkpt lat="44.13868" lon="5.89044">
        <ele>703</ele>
        <time>2022-09-22T13:48:46Z</time>
      </trkpt>
      <trkpt lat="44.13868" lon="5.89045">
        <ele>703</ele>
        <time>2022-09-22T13:48:47Z</time>
      </trkpt>
      <trkpt lat="44.13868" lon="5.89046">
        <ele>703</ele>
        <time>2022-09-22T13:48:48Z</time>
      </trkpt>
      <trkpt lat="44.13868" lon="5.89048">
        <ele>703</ele>
        <time>2022-09-22T13:48:49Z</time>
      </trkpt>
      <trkpt lat="44.13868" lon="5.8905">
        <ele>702</ele>
        <time>2022-09-22T13:48:50Z</time>
      </trkpt>
      <trkpt lat="44.13869" lon="5.89051">
        <ele>702</ele>
        <time>2022-09-22T13:48:51Z</time>
      </trkpt>
      <trkpt lat="44.13868" lon="5.89053">
        <ele>702</ele>
        <time>2022-09-22T13:48:52Z</time>
      </trkpt>
      <trkpt lat="44.13868" lon="5.89054">
        <ele>702</ele>
        <time>2022-09-22T13:48:53Z</time>
      </trkpt>
      <trkpt lat="44.13868" lon="5.89055">
        <ele>702</ele>
        <time>2022-09-22T13:48:54Z</time>
      </trkpt>
      <trkpt lat="44.13867" lon="5.89056">
        <ele>702</ele>
        <time>2022-09-22T13:48:55Z</time>
      </trkpt>
      <trkpt lat="44.13867" lon="5.89057">
        <ele>702</ele>
        <time>2022-09-22T13:48:56Z</time>
      </trkpt>
      <trkpt lat="44.13867" lon="5.89058">
        <ele>702</ele>
        <time>2022-09-22T13:48:57Z</time>
      </trkpt>
      <trkpt lat="44.13867" lon="5.89059">
        <ele>702</ele>
        <time>2022-09-22T13:48:58Z</time>
      </trkpt>
      <trkpt lat="44.13867" lon="5.8906">
        <ele>702</ele>
        <time>2022-09-22T13:48:59Z</time>
      </trkpt>
      <trkpt lat="44.13867" lon="5.89061">
        <ele>701</ele>
        <time>2022-09-22T13:49:00Z</time>
      </trkpt>
      <trkpt lat="44.13867" lon="5.89062">
        <ele>701</ele>
        <time>2022-09-22T13:49:01Z</time>
      </trkpt>
      <trkpt lat="44.13867" lon="5.89063">
        <ele>701</ele>
        <time>2022-09-22T13:49:02Z</time>
      </trkpt>
      <trkpt lat="44.13867" lon="5.89064">
        <ele>701</ele>
        <time>2022-09-22T13:49:03Z</time>
      </trkpt>
      <trkpt lat="44.13867" lon="5.89065">
        <ele>701</ele>
        <time>2022-09-22T13:49:04Z</time>
      </trkpt>
      <trkpt lat="44.13867" lon="5.89066">
        <ele>700</ele>
        <time>2022-09-22T13:49:05Z</time>
      </trkpt>
      <trkpt lat="44.13867" lon="5.89068">
        <ele>700</ele>
        <time>2022-09-22T13:49:06Z</time>
      </trkpt>
      <trkpt lat="44.13868" lon="5.89069">
        <ele>700</ele>
        <time>2022-09-22T13:49:07Z</time>
      </trkpt>
      <trkpt lat="44.13868" lon="5.8907">
        <ele>700</ele>
        <time>2022-09-22T13:49:08Z</time>
      </trkpt>
      <trkpt lat="44.13869" lon="5.89071">
        <ele>700</ele>
        <time>2022-09-22T13:49:09Z</time>
      </trkpt>
      <trkpt lat="44.13869" lon="5.89073">
        <ele>700</ele>
        <time>2022-09-22T13:49:10Z</time>
      </trkpt>
      <trkpt lat="44.13869" lon="5.89074">
        <ele>700</ele>
        <time>2022-09-22T13:49:11Z</time>
      </trkpt>
      <trkpt lat="44.1387" lon="5.89076">
        <ele>700</ele>
        <time>2022-09-22T13:49:12Z</time>
      </trkpt>
      <trkpt lat="44.1387" lon="5.89077">
        <ele>700</ele>
        <time>2022-09-22T13:49:13Z</time>
      </trkpt>
      <trkpt lat="44.1387" lon="5.89078">
        <ele>700</ele>
        <time>2022-09-22T13:49:14Z</time>
      </trkpt>
      <trkpt lat="44.1387" lon="5.89079">
        <ele>699</ele>
        <time>2022-09-22T13:49:15Z</time>
      </trkpt>
      <trkpt lat="44.13871" lon="5.8908">
        <ele>699</ele>
        <time>2022-09-22T13:49:16Z</time>
      </trkpt>
      <trkpt lat="44.13871" lon="5.89081">
        <ele>699</ele>
        <time>2022-09-22T13:49:17Z</time>
      </trkpt>
      <trkpt lat="44.13871" lon="5.89082">
        <ele>699</ele>
        <time>2022-09-22T13:49:18Z</time>
      </trkpt>
      <trkpt lat="44.13872" lon="5.89083">
        <ele>699</ele>
        <time>2022-09-22T13:49:19Z</time>
      </trkpt>
      <trkpt lat="44.13872" lon="5.89083">
        <ele>699</ele>
        <time>2022-09-22T13:49:20Z</time>
      </trkpt>
      <trkpt lat="44.13872" lon="5.89084">
        <ele>699</ele>
        <time>2022-09-22T13:49:21Z</time>
      </trkpt>
      <trkpt lat="44.13872" lon="5.89084">
        <ele>699</ele>
        <time>2022-09-22T13:49:22Z</time>
      </trkpt>
      <trkpt lat="44.13873" lon="5.89085">
        <ele>699</ele>
        <time>2022-09-22T13:49:23Z</time>
      </trkpt>
      <trkpt lat="44.13873" lon="5.89085">
        <ele>699</ele>
        <time>2022-09-22T13:49:24Z</time>
      </trkpt>
      <trkpt lat="44.13874" lon="5.89086">
        <ele>698</ele>
        <time>2022-09-22T13:49:25Z</time>
      </trkpt>
      <trkpt lat="44.13874" lon="5.89087">
        <ele>698</ele>
        <time>2022-09-22T13:49:26Z</time>
      </trkpt>
      <trkpt lat="44.13875" lon="5.89087">
        <ele>698</ele>
        <time>2022-09-22T13:49:27Z</time>
      </trkpt>
      <trkpt lat="44.13876" lon="5.89088">
        <ele>698</ele>
        <time>2022-09-22T13:49:28Z</time>
      </trkpt>
      <trkpt lat="44.13877" lon="5.89089">
        <ele>698</ele>
        <time>2022-09-22T13:49:29Z</time>
      </trkpt>
      <trkpt lat="44.13877" lon="5.89089">
        <ele>697</ele>
        <time>2022-09-22T13:49:30Z</time>
      </trkpt>
      <trkpt lat="44.13878" lon="5.8909">
        <ele>697</ele>
        <time>2022-09-22T13:49:31Z</time>
      </trkpt>
      <trkpt lat="44.1388" lon="5.89091">
        <ele>697</ele>
        <time>2022-09-22T13:49:32Z</time>
      </trkpt>
      <trkpt lat="44.13881" lon="5.89092">
        <ele>697</ele>
        <time>2022-09-22T13:49:33Z</time>
      </trkpt>
      <trkpt lat="44.13882" lon="5.89093">
        <ele>697</ele>
        <time>2022-09-22T13:49:34Z</time>
      </trkpt>
      <trkpt lat="44.13883" lon="5.89094">
        <ele>696</ele>
        <time>2022-09-22T13:49:35Z</time>
      </trkpt>
      <trkpt lat="44.13884" lon="5.89094">
        <ele>696</ele>
        <time>2022-09-22T13:49:36Z</time>
      </trkpt>
      <trkpt lat="44.13885" lon="5.89095">
        <ele>696</ele>
        <time>2022-09-22T13:49:37Z</time>
      </trkpt>
      <trkpt lat="44.13887" lon="5.89096">
        <ele>696</ele>
        <time>2022-09-22T13:49:38Z</time>
      </trkpt>
      <trkpt lat="44.13888" lon="5.89096">
        <ele>696</ele>
        <time>2022-09-22T13:49:39Z</time>
      </trkpt>
      <trkpt lat="44.13889" lon="5.89097">
        <ele>696</ele>
        <time>2022-09-22T13:49:40Z</time>
      </trkpt>
      <trkpt lat="44.13889" lon="5.89098">
        <ele>696</ele>
        <time>2022-09-22T13:49:41Z</time>
      </trkpt>
      <trkpt lat="44.1389" lon="5.89098">
        <ele>696</ele>
        <time>2022-09-22T13:49:42Z</time>
      </trkpt>
      <trkpt lat="44.13891" lon="5.89099">
        <ele>696</ele>
        <time>2022-09-22T13:49:43Z</time>
      </trkpt>
      <trkpt lat="44.13891" lon="5.891">
        <ele>696</ele>
        <time>2022-09-22T13:49:44Z</time>
      </trkpt>
      <trkpt lat="44.13892" lon="5.89101">
        <ele>695</ele>
        <time>2022-09-22T13:49:45Z</time>
      </trkpt>
      <trkpt lat="44.13893" lon="5.89101">
        <ele>695</ele>
        <time>2022-09-22T13:49:46Z</time>
      </trkpt>
      <trkpt lat="44.13893" lon="5.89102">
        <ele>695</ele>
        <time>2022-09-22T13:49:47Z</time>
      </trkpt>
      <trkpt lat="44.13894" lon="5.89102">
        <ele>695</ele>
        <time>2022-09-22T13:49:48Z</time>
      </trkpt>
      <trkpt lat="44.13894" lon="5.89103">
        <ele>695</ele>
        <time>2022-09-22T13:49:49Z</time>
      </trkpt>
      <trkpt lat="44.13895" lon="5.89104">
        <ele>695</ele>
        <time>2022-09-22T13:49:50Z</time>
      </trkpt>
      <trkpt lat="44.13895" lon="5.89104">
        <ele>695</ele>
        <time>2022-09-22T13:49:51Z</time>
      </trkpt>
      <trkpt lat="44.13896" lon="5.89104">
        <ele>695</ele>
        <time>2022-09-22T13:49:52Z</time>
      </trkpt>
      <trkpt lat="44.13897" lon="5.89105">
        <ele>695</ele>
        <time>2022-09-22T13:49:53Z</time>
      </trkpt>
      <trkpt lat="44.13898" lon="5.89105">
        <ele>695</ele>
        <time>2022-09-22T13:49:54Z</time>
      </trkpt>
      <trkpt lat="44.13898" lon="5.89105">
        <ele>694</ele>
        <time>2022-09-22T13:49:55Z</time>
      </trkpt>
      <trkpt lat="44.13899" lon="5.89106">
        <ele>694</ele>
        <time>2022-09-22T13:49:56Z</time>
      </trkpt>
      <trkpt lat="44.139" lon="5.89106">
        <ele>694</ele>
        <time>2022-09-22T13:49:57Z</time>
      </trkpt>
      <trkpt lat="44.13901" lon="5.89106">
        <ele>694</ele>
        <time>2022-09-22T13:49:58Z</time>
      </trkpt>
      <trkpt lat="44.13902" lon="5.89106">
        <ele>694</ele>
        <time>2022-09-22T13:49:59Z</time>
      </trkpt>
      <trkpt lat="44.13902" lon="5.89107">
        <ele>693</ele>
        <time>2022-09-22T13:50:00Z</time>
      </trkpt>
      <trkpt lat="44.13903" lon="5.89107">
        <ele>693</ele>
        <time>2022-09-22T13:50:01Z</time>
      </trkpt>
      <trkpt lat="44.13904" lon="5.89107">
        <ele>693</ele>
        <time>2022-09-22T13:50:02Z</time>
      </trkpt>
      <trkpt lat="44.13904" lon="5.89107">
        <ele>693</ele>
        <time>2022-09-22T13:50:03Z</time>
      </trkpt>
      <trkpt lat="44.13905" lon="5.89107">
        <ele>693</ele>
        <time>2022-09-22T13:50:04Z</time>
      </trkpt>
      <trkpt lat="44.13906" lon="5.89108">
        <ele>693</ele>
        <time>2022-09-22T13:50:05Z</time>
      </trkpt>
      <trkpt lat="44.13907" lon="5.89108">
        <ele>693</ele>
        <time>2022-09-22T13:50:06Z</time>
      </trkpt>
      <trkpt lat="44.13908" lon="5.89107">
        <ele>693</ele>
        <time>2022-09-22T13:50:07Z</time>
      </trkpt>
      <trkpt lat="44.13909" lon="5.89107">
        <ele>693</ele>
        <time>2022-09-22T13:50:08Z</time>
      </trkpt>
      <trkpt lat="44.13911" lon="5.89107">
        <ele>693</ele>
        <time>2022-09-22T13:50:09Z</time>
      </trkpt>
      <trkpt lat="44.13912" lon="5.89107">
        <ele>692</ele>
        <time>2022-09-22T13:50:10Z</time>
      </trkpt>
      <trkpt lat="44.13913" lon="5.89107">
        <ele>692</ele>
        <time>2022-09-22T13:50:11Z</time>
      </trkpt>
      <trkpt lat="44.13914" lon="5.89107">
        <ele>692</ele>
        <time>2022-09-22T13:50:12Z</time>
      </trkpt>
      <trkpt lat="44.13915" lon="5.89107">
        <ele>692</ele>
        <time>2022-09-22T13:50:13Z</time>
      </trkpt>
      <trkpt lat="44.13917" lon="5.89108">
        <ele>692</ele>
        <time>2022-09-22T13:50:14Z</time>
      </trkpt>
      <trkpt lat="44.13918" lon="5.89108">
        <ele>692</ele>
        <time>2022-09-22T13:50:15Z</time>
      </trkpt>
      <trkpt lat="44.13919" lon="5.89109">
        <ele>692</ele>
        <time>2022-09-22T13:50:16Z</time>
      </trkpt>
      <trkpt lat="44.1392" lon="5.89109">
        <ele>692</ele>
        <time>2022-09-22T13:50:17Z</time>
      </trkpt>
      <trkpt lat="44.13921" lon="5.8911">
        <ele>692</ele>
        <time>2022-09-22T13:50:18Z</time>
      </trkpt>
      <trkpt lat="44.13922" lon="5.8911">
        <ele>692</ele>
        <time>2022-09-22T13:50:19Z</time>
      </trkpt>
      <trkpt lat="44.13923" lon="5.89111">
        <ele>691</ele>
        <time>2022-09-22T13:50:20Z</time>
      </trkpt>
      <trkpt lat="44.13924" lon="5.89111">
        <ele>691</ele>
        <time>2022-09-22T13:50:21Z</time>
      </trkpt>
      <trkpt lat="44.13925" lon="5.89112">
        <ele>691</ele>
        <time>2022-09-22T13:50:22Z</time>
      </trkpt>
      <trkpt lat="44.13926" lon="5.89112">
        <ele>691</ele>
        <time>2022-09-22T13:50:23Z</time>
      </trkpt>
      <trkpt lat="44.13927" lon="5.89112">
        <ele>691</ele>
        <time>2022-09-22T13:50:24Z</time>
      </trkpt>
      <trkpt lat="44.13928" lon="5.89112">
        <ele>691</ele>
        <time>2022-09-22T13:50:25Z</time>
      </trkpt>
      <trkpt lat="44.13929" lon="5.89112">
        <ele>691</ele>
        <time>2022-09-22T13:50:26Z</time>
      </trkpt>
      <trkpt lat="44.1393" lon="5.89112">
        <ele>691</ele>
        <time>2022-09-22T13:50:27Z</time>
      </trkpt>
      <trkpt lat="44.13931" lon="5.89112">
        <ele>691</ele>
        <time>2022-09-22T13:50:28Z</time>
      </trkpt>
      <trkpt lat="44.13932" lon="5.89112">
        <ele>691</ele>
        <time>2022-09-22T13:50:29Z</time>
      </trkpt>
      <trkpt lat="44.13933" lon="5.89112">
        <ele>691</ele>
        <time>2022-09-22T13:50:30Z</time>
      </trkpt>
      <trkpt lat="44.13934" lon="5.89112">
        <ele>691</ele>
        <time>2022-09-22T13:50:31Z</time>
      </trkpt>
      <trkpt lat="44.13934" lon="5.89112">
        <ele>691</ele>
        <time>2022-09-22T13:50:32Z</time>
      </trkpt>
      <trkpt lat="44.13935" lon="5.89113">
        <ele>691</ele>
        <time>2022-09-22T13:50:33Z</time>
      </trkpt>
      <trkpt lat="44.13936" lon="5.89114">
        <ele>691</ele>
        <time>2022-09-22T13:50:34Z</time>
      </trkpt>
      <trkpt lat="44.13937" lon="5.89114">
        <ele>690</ele>
        <time>2022-09-22T13:50:35Z</time>
      </trkpt>
      <trkpt lat="44.13938" lon="5.89115">
        <ele>690</ele>
        <time>2022-09-22T13:50:36Z</time>
      </trkpt>
      <trkpt lat="44.1394" lon="5.89115">
        <ele>690</ele>
        <time>2022-09-22T13:50:43Z</time>
      </trkpt>
      <trkpt lat="44.13941" lon="5.89115">
        <ele>690</ele>
        <time>2022-09-22T13:50:44Z</time>
      </trkpt>
      <trkpt lat="44.13942" lon="5.89115">
        <ele>690</ele>
        <time>2022-09-22T13:50:45Z</time>
      </trkpt>
      <trkpt lat="44.13943" lon="5.89114">
        <ele>690</ele>
        <time>2022-09-22T13:50:46Z</time>
      </trkpt>
      <trkpt lat="44.13944" lon="5.89114">
        <ele>690</ele>
        <time>2022-09-22T13:50:47Z</time>
      </trkpt>
      <trkpt lat="44.13945" lon="5.89114">
        <ele>690</ele>
        <time>2022-09-22T13:50:48Z</time>
      </trkpt>
      <trkpt lat="44.13946" lon="5.89113">
        <ele>690</ele>
        <time>2022-09-22T13:50:49Z</time>
      </trkpt>
      <trkpt lat="44.13947" lon="5.89113">
        <ele>690</ele>
        <time>2022-09-22T13:50:50Z</time>
      </trkpt>
      <trkpt lat="44.13948" lon="5.89113">
        <ele>690</ele>
        <time>2022-09-22T13:50:51Z</time>
      </trkpt>
      <trkpt lat="44.13949" lon="5.89113">
        <ele>690</ele>
        <time>2022-09-22T13:50:52Z</time>
      </trkpt>
      <trkpt lat="44.1395" lon="5.89113">
        <ele>690</ele>
        <time>2022-09-22T13:50:53Z</time>
      </trkpt>
      <trkpt lat="44.13951" lon="5.89113">
        <ele>690</ele>
        <time>2022-09-22T13:50:54Z</time>
      </trkpt>
      <trkpt lat="44.13951" lon="5.89113">
        <ele>690</ele>
        <time>2022-09-22T13:50:55Z</time>
      </trkpt>
      <trkpt lat="44.13952" lon="5.89113">
        <ele>690</ele>
        <time>2022-09-22T13:50:56Z</time>
      </trkpt>
      <trkpt lat="44.13953" lon="5.89113">
        <ele>690</ele>
        <time>2022-09-22T13:50:57Z</time>
      </trkpt>
      <trkpt lat="44.13954" lon="5.89112">
        <ele>690</ele>
        <time>2022-09-22T13:50:58Z</time>
      </trkpt>
      <trkpt lat="44.13955" lon="5.89112">
        <ele>690</ele>
        <time>2022-09-22T13:50:59Z</time>
      </trkpt>
      <trkpt lat="44.13957" lon="5.89111">
        <ele>689</ele>
        <time>2022-09-22T13:51:00Z</time>
      </trkpt>
      <trkpt lat="44.13958" lon="5.89111">
        <ele>689</ele>
        <time>2022-09-22T13:51:01Z</time>
      </trkpt>
      <trkpt lat="44.13958" lon="5.8911">
        <ele>689</ele>
        <time>2022-09-22T13:51:02Z</time>
      </trkpt>
      <trkpt lat="44.13959" lon="5.89109">
        <ele>689</ele>
        <time>2022-09-22T13:51:03Z</time>
      </trkpt>
      <trkpt lat="44.1396" lon="5.89109">
        <ele>689</ele>
        <time>2022-09-22T13:51:04Z</time>
      </trkpt>
      <trkpt lat="44.1396" lon="5.89108">
        <ele>689</ele>
        <time>2022-09-22T13:51:05Z</time>
      </trkpt>
      <trkpt lat="44.13961" lon="5.89108">
        <ele>689</ele>
        <time>2022-09-22T13:51:06Z</time>
      </trkpt>
      <trkpt lat="44.13961" lon="5.89107">
        <ele>689</ele>
        <time>2022-09-22T13:51:07Z</time>
      </trkpt>
      <trkpt lat="44.13962" lon="5.89107">
        <ele>689</ele>
        <time>2022-09-22T13:51:08Z</time>
      </trkpt>
      <trkpt lat="44.13963" lon="5.89107">
        <ele>689</ele>
        <time>2022-09-22T13:51:09Z</time>
      </trkpt>
      <trkpt lat="44.13963" lon="5.89107">
        <ele>688</ele>
        <time>2022-09-22T13:51:10Z</time>
      </trkpt>
      <trkpt lat="44.13964" lon="5.89106">
        <ele>688</ele>
        <time>2022-09-22T13:51:11Z</time>
      </trkpt>
      <trkpt lat="44.13965" lon="5.89106">
        <ele>688</ele>
        <time>2022-09-22T13:51:12Z</time>
      </trkpt>
      <trkpt lat="44.13966" lon="5.89106">
        <ele>688</ele>
        <time>2022-09-22T13:51:13Z</time>
      </trkpt>
      <trkpt lat="44.13967" lon="5.89106">
        <ele>688</ele>
        <time>2022-09-22T13:51:14Z</time>
      </trkpt>
      <trkpt lat="44.13968" lon="5.89105">
        <ele>688</ele>
        <time>2022-09-22T13:51:15Z</time>
      </trkpt>
      <trkpt lat="44.13969" lon="5.89105">
        <ele>688</ele>
        <time>2022-09-22T13:51:16Z</time>
      </trkpt>
      <trkpt lat="44.1397" lon="5.89104">
        <ele>688</ele>
        <time>2022-09-22T13:51:17Z</time>
      </trkpt>
      <trkpt lat="44.13971" lon="5.89104">
        <ele>688</ele>
        <time>2022-09-22T13:51:18Z</time>
      </trkpt>
      <trkpt lat="44.13971" lon="5.89104">
        <ele>688</ele>
        <time>2022-09-22T13:51:19Z</time>
      </trkpt>
      <trkpt lat="44.13972" lon="5.89103">
        <ele>688</ele>
        <time>2022-09-22T13:51:20Z</time>
      </trkpt>
      <trkpt lat="44.13973" lon="5.89103">
        <ele>688</ele>
        <time>2022-09-22T13:51:21Z</time>
      </trkpt>
      <trkpt lat="44.13974" lon="5.89103">
        <ele>688</ele>
        <time>2022-09-22T13:51:22Z</time>
      </trkpt>
      <trkpt lat="44.13974" lon="5.89103">
        <ele>688</ele>
        <time>2022-09-22T13:51:23Z</time>
      </trkpt>
      <trkpt lat="44.13975" lon="5.89103">
        <ele>688</ele>
        <time>2022-09-22T13:51:24Z</time>
      </trkpt>
      <trkpt lat="44.13976" lon="5.89103">
        <ele>687</ele>
        <time>2022-09-22T13:51:25Z</time>
      </trkpt>
      <trkpt lat="44.13977" lon="5.89103">
        <ele>687</ele>
        <time>2022-09-22T13:51:26Z</time>
      </trkpt>
      <trkpt lat="44.13977" lon="5.89102">
        <ele>687</ele>
        <time>2022-09-22T13:51:27Z</time>
      </trkpt>
      <trkpt lat="44.13978" lon="5.89102">
        <ele>687</ele>
        <time>2022-09-22T13:51:28Z</time>
      </trkpt>
      <trkpt lat="44.1398" lon="5.89102">
        <ele>687</ele>
        <time>2022-09-22T13:51:29Z</time>
      </trkpt>
      <trkpt lat="44.13981" lon="5.89101">
        <ele>686</ele>
        <time>2022-09-22T13:51:30Z</time>
      </trkpt>
      <trkpt lat="44.13982" lon="5.891">
        <ele>686</ele>
        <time>2022-09-22T13:51:31Z</time>
      </trkpt>
      <trkpt lat="44.13983" lon="5.891">
        <ele>686</ele>
        <time>2022-09-22T13:51:32Z</time>
      </trkpt>
      <trkpt lat="44.13984" lon="5.89099">
        <ele>686</ele>
        <time>2022-09-22T13:51:33Z</time>
      </trkpt>
      <trkpt lat="44.13985" lon="5.89098">
        <ele>686</ele>
        <time>2022-09-22T13:51:34Z</time>
      </trkpt>
      <trkpt lat="44.13986" lon="5.89097">
        <ele>686</ele>
        <time>2022-09-22T13:51:35Z</time>
      </trkpt>
      <trkpt lat="44.13988" lon="5.89096">
        <ele>686</ele>
        <time>2022-09-22T13:51:36Z</time>
      </trkpt>
      <trkpt lat="44.13989" lon="5.89096">
        <ele>686</ele>
        <time>2022-09-22T13:51:37Z</time>
      </trkpt>
      <trkpt lat="44.1399" lon="5.89095">
        <ele>686</ele>
        <time>2022-09-22T13:51:38Z</time>
      </trkpt>
      <trkpt lat="44.13991" lon="5.89094">
        <ele>686</ele>
        <time>2022-09-22T13:51:39Z</time>
      </trkpt>
      <trkpt lat="44.13992" lon="5.89093">
        <ele>685</ele>
        <time>2022-09-22T13:51:40Z</time>
      </trkpt>
      <trkpt lat="44.13993" lon="5.89092">
        <ele>685</ele>
        <time>2022-09-22T13:51:41Z</time>
      </trkpt>
      <trkpt lat="44.13994" lon="5.89091">
        <ele>685</ele>
        <time>2022-09-22T13:51:42Z</time>
      </trkpt>
      <trkpt lat="44.13995" lon="5.8909">
        <ele>685</ele>
        <time>2022-09-22T13:51:43Z</time>
      </trkpt>
      <trkpt lat="44.13996" lon="5.8909">
        <ele>685</ele>
        <time>2022-09-22T13:51:44Z</time>
      </trkpt>
      <trkpt lat="44.13997" lon="5.89089">
        <ele>685</ele>
        <time>2022-09-22T13:51:45Z</time>
      </trkpt>
      <trkpt lat="44.13998" lon="5.89088">
        <ele>685</ele>
        <time>2022-09-22T13:51:46Z</time>
      </trkpt>
      <trkpt lat="44.13999" lon="5.89088">
        <ele>685</ele>
        <time>2022-09-22T13:51:47Z</time>
      </trkpt>
      <trkpt lat="44.14" lon="5.89086">
        <ele>685</ele>
        <time>2022-09-22T13:51:48Z</time>
      </trkpt>
      <trkpt lat="44.14001" lon="5.89085">
        <ele>685</ele>
        <time>2022-09-22T13:51:49Z</time>
      </trkpt>
      <trkpt lat="44.14002" lon="5.89084">
        <ele>684</ele>
        <time>2022-09-22T13:51:50Z</time>
      </trkpt>
      <trkpt lat="44.14003" lon="5.89083">
        <ele>684</ele>
        <time>2022-09-22T13:51:51Z</time>
      </trkpt>
      <trkpt lat="44.14004" lon="5.89082">
        <ele>684</ele>
        <time>2022-09-22T13:51:52Z</time>
      </trkpt>
      <trkpt lat="44.14006" lon="5.89081">
        <ele>684</ele>
        <time>2022-09-22T13:51:53Z</time>
      </trkpt>
      <trkpt lat="44.14007" lon="5.89079">
        <ele>684</ele>
        <time>2022-09-22T13:51:54Z</time>
      </trkpt>
      <trkpt lat="44.14008" lon="5.89078">
        <ele>684</ele>
        <time>2022-09-22T13:51:55Z</time>
      </trkpt>
      <trkpt lat="44.14009" lon="5.89077">
        <ele>684</ele>
        <time>2022-09-22T13:51:56Z</time>
      </trkpt>
      <trkpt lat="44.1401" lon="5.89076">
        <ele>684</ele>
        <time>2022-09-22T13:51:57Z</time>
      </trkpt>
      <trkpt lat="44.1401" lon="5.89074">
        <ele>684</ele>
        <time>2022-09-22T13:51:58Z</time>
      </trkpt>
      <trkpt lat="44.1401" lon="5.89072">
        <ele>684</ele>
        <time>2022-09-22T13:51:59Z</time>
      </trkpt>
      <trkpt lat="44.14011" lon="5.89071">
        <ele>683</ele>
        <time>2022-09-22T13:52:00Z</time>
      </trkpt>
      <trkpt lat="44.14011" lon="5.89069">
        <ele>683</ele>
        <time>2022-09-22T13:52:01Z</time>
      </trkpt>
      <trkpt lat="44.14011" lon="5.89068">
        <ele>683</ele>
        <time>2022-09-22T13:52:02Z</time>
      </trkpt>
      <trkpt lat="44.14012" lon="5.89067">
        <ele>683</ele>
        <time>2022-09-22T13:52:03Z</time>
      </trkpt>
      <trkpt lat="44.14013" lon="5.89067">
        <ele>683</ele>
        <time>2022-09-22T13:52:04Z</time>
      </trkpt>
      <trkpt lat="44.14014" lon="5.89066">
        <ele>683</ele>
        <time>2022-09-22T13:52:05Z</time>
      </trkpt>
      <trkpt lat="44.14014" lon="5.89066">
        <ele>683</ele>
        <time>2022-09-22T13:52:06Z</time>
      </trkpt>
      <trkpt lat="44.14015" lon="5.89065">
        <ele>683</ele>
        <time>2022-09-22T13:52:07Z</time>
      </trkpt>
      <trkpt lat="44.14016" lon="5.89065">
        <ele>683</ele>
        <time>2022-09-22T13:52:08Z</time>
      </trkpt>
      <trkpt lat="44.14017" lon="5.89065">
        <ele>683</ele>
        <time>2022-09-22T13:52:09Z</time>
      </trkpt>
      <trkpt lat="44.14018" lon="5.89064">
        <ele>682</ele>
        <time>2022-09-22T13:52:10Z</time>
      </trkpt>
      <trkpt lat="44.14019" lon="5.89064">
        <ele>682</ele>
        <time>2022-09-22T13:52:11Z</time>
      </trkpt>
      <trkpt lat="44.1402" lon="5.89063">
        <ele>682</ele>
        <time>2022-09-22T13:52:12Z</time>
      </trkpt>
      <trkpt lat="44.14021" lon="5.89063">
        <ele>682</ele>
        <time>2022-09-22T13:52:13Z</time>
      </trkpt>
      <trkpt lat="44.14022" lon="5.89062">
        <ele>682</ele>
        <time>2022-09-22T13:52:14Z</time>
      </trkpt>
      <trkpt lat="44.14023" lon="5.89062">
        <ele>682</ele>
        <time>2022-09-22T13:52:15Z</time>
      </trkpt>
      <trkpt lat="44.14023" lon="5.89061">
        <ele>682</ele>
        <time>2022-09-22T13:52:16Z</time>
      </trkpt>
      <trkpt lat="44.14024" lon="5.89061">
        <ele>682</ele>
        <time>2022-09-22T13:52:17Z</time>
      </trkpt>
      <trkpt lat="44.14025" lon="5.8906">
        <ele>682</ele>
        <time>2022-09-22T13:52:18Z</time>
      </trkpt>
      <trkpt lat="44.14026" lon="5.8906">
        <ele>682</ele>
        <time>2022-09-22T13:52:19Z</time>
      </trkpt>
      <trkpt lat="44.14027" lon="5.89059">
        <ele>681</ele>
        <time>2022-09-22T13:52:20Z</time>
      </trkpt>
      <trkpt lat="44.14028" lon="5.89059">
        <ele>681</ele>
        <time>2022-09-22T13:52:21Z</time>
      </trkpt>
      <trkpt lat="44.14029" lon="5.89058">
        <ele>681</ele>
        <time>2022-09-22T13:52:22Z</time>
      </trkpt>
      <trkpt lat="44.1403" lon="5.89058">
        <ele>681</ele>
        <time>2022-09-22T13:52:23Z</time>
      </trkpt>
      <trkpt lat="44.14031" lon="5.89057">
        <ele>681</ele>
        <time>2022-09-22T13:52:24Z</time>
      </trkpt>
      <trkpt lat="44.14032" lon="5.89056">
        <ele>681</ele>
        <time>2022-09-22T13:52:25Z</time>
      </trkpt>
      <trkpt lat="44.14033" lon="5.89056">
        <ele>681</ele>
        <time>2022-09-22T13:52:26Z</time>
      </trkpt>
      <trkpt lat="44.14034" lon="5.89055">
        <ele>681</ele>
        <time>2022-09-22T13:52:27Z</time>
      </trkpt>
      <trkpt lat="44.14035" lon="5.89054">
        <ele>681</ele>
        <time>2022-09-22T13:52:28Z</time>
      </trkpt>
      <trkpt lat="44.14036" lon="5.89053">
        <ele>681</ele>
        <time>2022-09-22T13:52:29Z</time>
      </trkpt>
      <trkpt lat="44.14037" lon="5.89053">
        <ele>680</ele>
        <time>2022-09-22T13:52:30Z</time>
      </trkpt>
      <trkpt lat="44.14037" lon="5.89052">
        <ele>680</ele>
        <time>2022-09-22T13:52:31Z</time>
      </trkpt>
      <trkpt lat="44.14038" lon="5.89051">
        <ele>680</ele>
        <time>2022-09-22T13:52:32Z</time>
      </trkpt>
      <trkpt lat="44.14039" lon="5.8905">
        <ele>680</ele>
        <time>2022-09-22T13:52:33Z</time>
      </trkpt>
      <trkpt lat="44.1404" lon="5.89049">
        <ele>680</ele>
        <time>2022-09-22T13:52:34Z</time>
      </trkpt>
      <trkpt lat="44.14041" lon="5.89049">
        <ele>680</ele>
        <time>2022-09-22T13:52:35Z</time>
      </trkpt>
      <trkpt lat="44.14042" lon="5.89048">
        <ele>680</ele>
        <time>2022-09-22T13:52:36Z</time>
      </trkpt>
      <trkpt lat="44.14043" lon="5.89047">
        <ele>680</ele>
        <time>2022-09-22T13:52:37Z</time>
      </trkpt>
      <trkpt lat="44.14044" lon="5.89046">
        <ele>680</ele>
        <time>2022-09-22T13:52:38Z</time>
      </trkpt>
      <trkpt lat="44.14045" lon="5.89046">
        <ele>680</ele>
        <time>2022-09-22T13:52:39Z</time>
      </trkpt>
      <trkpt lat="44.14046" lon="5.89045">
        <ele>679</ele>
        <time>2022-09-22T13:52:40Z</time>
      </trkpt>
      <trkpt lat="44.14047" lon="5.89043">
        <ele>679</ele>
        <time>2022-09-22T13:52:41Z</time>
      </trkpt>
      <trkpt lat="44.14048" lon="5.89043">
        <ele>679</ele>
        <time>2022-09-22T13:52:42Z</time>
      </trkpt>
      <trkpt lat="44.14049" lon="5.89042">
        <ele>679</ele>
        <time>2022-09-22T13:52:43Z</time>
      </trkpt>
      <trkpt lat="44.14051" lon="5.89041">
        <ele>679</ele>
        <time>2022-09-22T13:52:44Z</time>
      </trkpt>
      <trkpt lat="44.14052" lon="5.8904">
        <ele>679</ele>
        <time>2022-09-22T13:52:45Z</time>
      </trkpt>
      <trkpt lat="44.14053" lon="5.8904">
        <ele>679</ele>
        <time>2022-09-22T13:52:46Z</time>
      </trkpt>
      <trkpt lat="44.14054" lon="5.89039">
        <ele>679</ele>
        <time>2022-09-22T13:52:47Z</time>
      </trkpt>
      <trkpt lat="44.14055" lon="5.89038">
        <ele>679</ele>
        <time>2022-09-22T13:52:48Z</time>
      </trkpt>
      <trkpt lat="44.14056" lon="5.89037">
        <ele>679</ele>
        <time>2022-09-22T13:52:49Z</time>
      </trkpt>
      <trkpt lat="44.14057" lon="5.89037">
        <ele>678</ele>
        <time>2022-09-22T13:52:50Z</time>
      </trkpt>
      <trkpt lat="44.14057" lon="5.89036">
        <ele>678</ele>
        <time>2022-09-22T13:52:51Z</time>
      </trkpt>
      <trkpt lat="44.14058" lon="5.89035">
        <ele>678</ele>
        <time>2022-09-22T13:52:52Z</time>
      </trkpt>
      <trkpt lat="44.14059" lon="5.89034">
        <ele>678</ele>
        <time>2022-09-22T13:52:53Z</time>
      </trkpt>
      <trkpt lat="44.1406" lon="5.89032">
        <ele>678</ele>
        <time>2022-09-22T13:52:54Z</time>
      </trkpt>
      <trkpt lat="44.14061" lon="5.89031">
        <ele>678</ele>
        <time>2022-09-22T13:52:55Z</time>
      </trkpt>
      <trkpt lat="44.14062" lon="5.89029">
        <ele>678</ele>
        <time>2022-09-22T13:52:56Z</time>
      </trkpt>
      <trkpt lat="44.14064" lon="5.89029">
        <ele>678</ele>
        <time>2022-09-22T13:52:57Z</time>
      </trkpt>
      <trkpt lat="44.14065" lon="5.89028">
        <ele>678</ele>
        <time>2022-09-22T13:52:58Z</time>
      </trkpt>
      <trkpt lat="44.14066" lon="5.89027">
        <ele>678</ele>
        <time>2022-09-22T13:52:59Z</time>
      </trkpt>
      <trkpt lat="44.14067" lon="5.89027">
        <ele>678</ele>
        <time>2022-09-22T13:53:00Z</time>
      </trkpt>
      <trkpt lat="44.14068" lon="5.89026">
        <ele>678</ele>
        <time>2022-09-22T13:53:01Z</time>
      </trkpt>
      <trkpt lat="44.14069" lon="5.89026">
        <ele>678</ele>
        <time>2022-09-22T13:53:02Z</time>
      </trkpt>
      <trkpt lat="44.1407" lon="5.89026">
        <ele>678</ele>
        <time>2022-09-22T13:53:03Z</time>
      </trkpt>
      <trkpt lat="44.14071" lon="5.89025">
        <ele>678</ele>
        <time>2022-09-22T13:53:04Z</time>
      </trkpt>
      <trkpt lat="44.14071" lon="5.89025">
        <ele>677</ele>
        <time>2022-09-22T13:53:05Z</time>
      </trkpt>
      <trkpt lat="44.14072" lon="5.89025">
        <ele>677</ele>
        <time>2022-09-22T13:53:06Z</time>
      </trkpt>
      <trkpt lat="44.14073" lon="5.89024">
        <ele>677</ele>
        <time>2022-09-22T13:53:07Z</time>
      </trkpt>
      <trkpt lat="44.14074" lon="5.89024">
        <ele>677</ele>
        <time>2022-09-22T13:53:08Z</time>
      </trkpt>
      <trkpt lat="44.14075" lon="5.89023">
        <ele>677</ele>
        <time>2022-09-22T13:53:09Z</time>
      </trkpt>
      <trkpt lat="44.14076" lon="5.89022">
        <ele>677</ele>
        <time>2022-09-22T13:53:10Z</time>
      </trkpt>
      <trkpt lat="44.14077" lon="5.89022">
        <ele>677</ele>
        <time>2022-09-22T13:53:11Z</time>
      </trkpt>
      <trkpt lat="44.14078" lon="5.89021">
        <ele>677</ele>
        <time>2022-09-22T13:53:12Z</time>
      </trkpt>
      <trkpt lat="44.14079" lon="5.8902">
        <ele>677</ele>
        <time>2022-09-22T13:53:13Z</time>
      </trkpt>
      <trkpt lat="44.1408" lon="5.89019">
        <ele>677</ele>
        <time>2022-09-22T13:53:14Z</time>
      </trkpt>
      <trkpt lat="44.14081" lon="5.89018">
        <ele>676</ele>
        <time>2022-09-22T13:53:15Z</time>
      </trkpt>
      <trkpt lat="44.14082" lon="5.89017">
        <ele>676</ele>
        <time>2022-09-22T13:53:16Z</time>
      </trkpt>
      <trkpt lat="44.14084" lon="5.89015">
        <ele>676</ele>
        <time>2022-09-22T13:53:17Z</time>
      </trkpt>
      <trkpt lat="44.14085" lon="5.89014">
        <ele>676</ele>
        <time>2022-09-22T13:53:18Z</time>
      </trkpt>
      <trkpt lat="44.14086" lon="5.89013">
        <ele>676</ele>
        <time>2022-09-22T13:53:19Z</time>
      </trkpt>
      <trkpt lat="44.14087" lon="5.89011">
        <ele>676</ele>
        <time>2022-09-22T13:53:20Z</time>
      </trkpt>
      <trkpt lat="44.14088" lon="5.8901">
        <ele>676</ele>
        <time>2022-09-22T13:53:21Z</time>
      </trkpt>
      <trkpt lat="44.14089" lon="5.89009">
        <ele>676</ele>
        <time>2022-09-22T13:53:22Z</time>
      </trkpt>
      <trkpt lat="44.14091" lon="5.89007">
        <ele>676</ele>
        <time>2022-09-22T13:53:23Z</time>
      </trkpt>
      <trkpt lat="44.14092" lon="5.89005">
        <ele>676</ele>
        <time>2022-09-22T13:53:24Z</time>
      </trkpt>
      <trkpt lat="44.14093" lon="5.89004">
        <ele>676</ele>
        <time>2022-09-22T13:53:25Z</time>
      </trkpt>
      <trkpt lat="44.14094" lon="5.89003">
        <ele>676</ele>
        <time>2022-09-22T13:53:26Z</time>
      </trkpt>
      <trkpt lat="44.14095" lon="5.89002">
        <ele>676</ele>
        <time>2022-09-22T13:53:27Z</time>
      </trkpt>
      <trkpt lat="44.14096" lon="5.89001">
        <ele>676</ele>
        <time>2022-09-22T13:53:28Z</time>
      </trkpt>
      <trkpt lat="44.14097" lon="5.89">
        <ele>676</ele>
        <time>2022-09-22T13:53:29Z</time>
      </trkpt>
      <trkpt lat="44.14098" lon="5.89">
        <ele>676</ele>
        <time>2022-09-22T13:53:30Z</time>
      </trkpt>
      <trkpt lat="44.14099" lon="5.88999">
        <ele>676</ele>
        <time>2022-09-22T13:53:31Z</time>
      </trkpt>
      <trkpt lat="44.141" lon="5.88998">
        <ele>676</ele>
        <time>2022-09-22T13:53:32Z</time>
      </trkpt>
      <trkpt lat="44.14101" lon="5.88997">
        <ele>676</ele>
        <time>2022-09-22T13:53:33Z</time>
      </trkpt>
      <trkpt lat="44.14102" lon="5.88997">
        <ele>676</ele>
        <time>2022-09-22T13:53:34Z</time>
      </trkpt>
      <trkpt lat="44.14103" lon="5.88996">
        <ele>676</ele>
        <time>2022-09-22T13:53:35Z</time>
      </trkpt>
      <trkpt lat="44.14104" lon="5.88995">
        <ele>676</ele>
        <time>2022-09-22T13:53:36Z</time>
      </trkpt>
      <trkpt lat="44.14105" lon="5.88994">
        <ele>676</ele>
        <time>2022-09-22T13:53:37Z</time>
      </trkpt>
      <trkpt lat="44.14106" lon="5.88993">
        <ele>676</ele>
        <time>2022-09-22T13:53:38Z</time>
      </trkpt>
      <trkpt lat="44.14106" lon="5.88991">
        <ele>676</ele>
        <time>2022-09-22T13:53:39Z</time>
      </trkpt>
      <trkpt lat="44.14107" lon="5.8899">
        <ele>676</ele>
        <time>2022-09-22T13:53:40Z</time>
      </trkpt>
      <trkpt lat="44.14108" lon="5.88989">
        <ele>676</ele>
        <time>2022-09-22T13:53:41Z</time>
      </trkpt>
      <trkpt lat="44.14109" lon="5.88988">
        <ele>676</ele>
        <time>2022-09-22T13:53:42Z</time>
      </trkpt>
      <trkpt lat="44.1411" lon="5.88987">
        <ele>676</ele>
        <time>2022-09-22T13:53:43Z</time>
      </trkpt>
      <trkpt lat="44.1411" lon="5.88987">
        <ele>676</ele>
        <time>2022-09-22T13:53:44Z</time>
      </trkpt>
      <trkpt lat="44.14111" lon="5.88986">
        <ele>676</ele>
        <time>2022-09-22T13:53:45Z</time>
      </trkpt>
      <trkpt lat="44.14112" lon="5.88985">
        <ele>676</ele>
        <time>2022-09-22T13:53:46Z</time>
      </trkpt>
      <trkpt lat="44.14112" lon="5.88984">
        <ele>676</ele>
        <time>2022-09-22T13:53:47Z</time>
      </trkpt>
      <trkpt lat="44.14113" lon="5.88983">
        <ele>676</ele>
        <time>2022-09-22T13:53:48Z</time>
      </trkpt>
      <trkpt lat="44.14114" lon="5.88983">
        <ele>676</ele>
        <time>2022-09-22T13:53:49Z</time>
      </trkpt>
      <trkpt lat="44.14115" lon="5.88982">
        <ele>676</ele>
        <time>2022-09-22T13:53:50Z</time>
      </trkpt>
      <trkpt lat="44.14116" lon="5.88981">
        <ele>676</ele>
        <time>2022-09-22T13:53:51Z</time>
      </trkpt>
      <trkpt lat="44.14117" lon="5.8898">
        <ele>676</ele>
        <time>2022-09-22T13:53:52Z</time>
      </trkpt>
      <trkpt lat="44.14117" lon="5.88979">
        <ele>676</ele>
        <time>2022-09-22T13:53:53Z</time>
      </trkpt>
      <trkpt lat="44.14118" lon="5.88978">
        <ele>676</ele>
        <time>2022-09-22T13:53:54Z</time>
      </trkpt>
      <trkpt lat="44.14119" lon="5.88977">
        <ele>675</ele>
        <time>2022-09-22T13:53:55Z</time>
      </trkpt>
      <trkpt lat="44.1412" lon="5.88976">
        <ele>675</ele>
        <time>2022-09-22T13:53:56Z</time>
      </trkpt>
      <trkpt lat="44.14121" lon="5.88975">
        <ele>675</ele>
        <time>2022-09-22T13:53:57Z</time>
      </trkpt>
      <trkpt lat="44.14122" lon="5.88975">
        <ele>675</ele>
        <time>2022-09-22T13:53:58Z</time>
      </trkpt>
      <trkpt lat="44.14123" lon="5.88974">
        <ele>675</ele>
        <time>2022-09-22T13:53:59Z</time>
      </trkpt>
      <trkpt lat="44.14123" lon="5.88973">
        <ele>675</ele>
        <time>2022-09-22T13:54:00Z</time>
      </trkpt>
      <trkpt lat="44.14124" lon="5.88973">
        <ele>675</ele>
        <time>2022-09-22T13:54:01Z</time>
      </trkpt>
      <trkpt lat="44.14125" lon="5.88972">
        <ele>675</ele>
        <time>2022-09-22T13:54:02Z</time>
      </trkpt>
      <trkpt lat="44.14126" lon="5.88971">
        <ele>675</ele>
        <time>2022-09-22T13:54:03Z</time>
      </trkpt>
      <trkpt lat="44.14127" lon="5.88971">
        <ele>675</ele>
        <time>2022-09-22T13:54:04Z</time>
      </trkpt>
      <trkpt lat="44.14129" lon="5.88969">
        <ele>675</ele>
        <time>2022-09-22T13:54:05Z</time>
      </trkpt>
      <trkpt lat="44.1413" lon="5.88968">
        <ele>675</ele>
        <time>2022-09-22T13:54:06Z</time>
      </trkpt>
      <trkpt lat="44.14131" lon="5.88967">
        <ele>675</ele>
        <time>2022-09-22T13:54:07Z</time>
      </trkpt>
      <trkpt lat="44.14131" lon="5.88966">
        <ele>675</ele>
        <time>2022-09-22T13:54:08Z</time>
      </trkpt>
      <trkpt lat="44.14132" lon="5.88965">
        <ele>675</ele>
        <time>2022-09-22T13:54:09Z</time>
      </trkpt>
      <trkpt lat="44.14133" lon="5.88963">
        <ele>675</ele>
        <time>2022-09-22T13:54:10Z</time>
      </trkpt>
      <trkpt lat="44.14134" lon="5.88962">
        <ele>675</ele>
        <time>2022-09-22T13:54:11Z</time>
      </trkpt>
      <trkpt lat="44.14135" lon="5.88961">
        <ele>675</ele>
        <time>2022-09-22T13:54:12Z</time>
      </trkpt>
      <trkpt lat="44.14136" lon="5.8896">
        <ele>675</ele>
        <time>2022-09-22T13:54:13Z</time>
      </trkpt>
      <trkpt lat="44.14137" lon="5.88958">
        <ele>675</ele>
        <time>2022-09-22T13:54:14Z</time>
      </trkpt>
      <trkpt lat="44.14138" lon="5.88958">
        <ele>675</ele>
        <time>2022-09-22T13:54:15Z</time>
      </trkpt>
      <trkpt lat="44.14139" lon="5.88957">
        <ele>675</ele>
        <time>2022-09-22T13:54:16Z</time>
      </trkpt>
      <trkpt lat="44.1414" lon="5.88956">
        <ele>675</ele>
        <time>2022-09-22T13:54:17Z</time>
      </trkpt>
      <trkpt lat="44.1414" lon="5.88955">
        <ele>675</ele>
        <time>2022-09-22T13:54:18Z</time>
      </trkpt>
      <trkpt lat="44.14141" lon="5.88955">
        <ele>675</ele>
        <time>2022-09-22T13:54:19Z</time>
      </trkpt>
      <trkpt lat="44.14142" lon="5.88954">
        <ele>675</ele>
        <time>2022-09-22T13:54:20Z</time>
      </trkpt>
      <trkpt lat="44.14143" lon="5.88953">
        <ele>675</ele>
        <time>2022-09-22T13:54:21Z</time>
      </trkpt>
      <trkpt lat="44.14144" lon="5.88953">
        <ele>675</ele>
        <time>2022-09-22T13:54:22Z</time>
      </trkpt>
      <trkpt lat="44.14145" lon="5.88952">
        <ele>675</ele>
        <time>2022-09-22T13:54:23Z</time>
      </trkpt>
      <trkpt lat="44.14147" lon="5.88951">
        <ele>675</ele>
        <time>2022-09-22T13:54:24Z</time>
      </trkpt>
      <trkpt lat="44.14148" lon="5.8895">
        <ele>675</ele>
        <time>2022-09-22T13:54:25Z</time>
      </trkpt>
      <trkpt lat="44.14149" lon="5.88949">
        <ele>675</ele>
        <time>2022-09-22T13:54:26Z</time>
      </trkpt>
      <trkpt lat="44.1415" lon="5.88949">
        <ele>675</ele>
        <time>2022-09-22T13:54:27Z</time>
      </trkpt>
      <trkpt lat="44.14151" lon="5.88948">
        <ele>675</ele>
        <time>2022-09-22T13:54:28Z</time>
      </trkpt>
      <trkpt lat="44.14151" lon="5.88947">
        <ele>675</ele>
        <time>2022-09-22T13:54:29Z</time>
      </trkpt>
      <trkpt lat="44.14152" lon="5.88947">
        <ele>674</ele>
        <time>2022-09-22T13:54:30Z</time>
      </trkpt>
      <trkpt lat="44.14153" lon="5.88946">
        <ele>674</ele>
        <time>2022-09-22T13:54:31Z</time>
      </trkpt>
      <trkpt lat="44.14153" lon="5.88945">
        <ele>674</ele>
        <time>2022-09-22T13:54:32Z</time>
      </trkpt>
      <trkpt lat="44.14154" lon="5.88945">
        <ele>674</ele>
        <time>2022-09-22T13:54:33Z</time>
      </trkpt>
      <trkpt lat="44.14155" lon="5.88944">
        <ele>674</ele>
        <time>2022-09-22T13:54:34Z</time>
      </trkpt>
      <trkpt lat="44.14156" lon="5.88943">
        <ele>674</ele>
        <time>2022-09-22T13:54:35Z</time>
      </trkpt>
      <trkpt lat="44.14157" lon="5.88942">
        <ele>674</ele>
        <time>2022-09-22T13:54:36Z</time>
      </trkpt>
      <trkpt lat="44.14158" lon="5.88941">
        <ele>674</ele>
        <time>2022-09-22T13:54:37Z</time>
      </trkpt>
      <trkpt lat="44.14159" lon="5.8894">
        <ele>674</ele>
        <time>2022-09-22T13:54:38Z</time>
      </trkpt>
      <trkpt lat="44.1416" lon="5.88939">
        <ele>674</ele>
        <time>2022-09-22T13:54:39Z</time>
      </trkpt>
      <trkpt lat="44.14161" lon="5.88938">
        <ele>674</ele>
        <time>2022-09-22T13:54:40Z</time>
      </trkpt>
      <trkpt lat="44.14162" lon="5.88937">
        <ele>674</ele>
        <time>2022-09-22T13:54:41Z</time>
      </trkpt>
      <trkpt lat="44.14163" lon="5.88936">
        <ele>674</ele>
        <time>2022-09-22T13:54:42Z</time>
      </trkpt>
      <trkpt lat="44.14164" lon="5.88935">
        <ele>674</ele>
        <time>2022-09-22T13:54:43Z</time>
      </trkpt>
      <trkpt lat="44.14165" lon="5.88935">
        <ele>674</ele>
        <time>2022-09-22T13:54:44Z</time>
      </trkpt>
      <trkpt lat="44.14166" lon="5.88934">
        <ele>674</ele>
        <time>2022-09-22T13:54:45Z</time>
      </trkpt>
      <trkpt lat="44.14167" lon="5.88934">
        <ele>674</ele>
        <time>2022-09-22T13:54:46Z</time>
      </trkpt>
      <trkpt lat="44.14168" lon="5.88933">
        <ele>674</ele>
        <time>2022-09-22T13:54:47Z</time>
      </trkpt>
      <trkpt lat="44.14169" lon="5.88932">
        <ele>674</ele>
        <time>2022-09-22T13:54:48Z</time>
      </trkpt>
      <trkpt lat="44.1417" lon="5.88931">
        <ele>674</ele>
        <time>2022-09-22T13:54:49Z</time>
      </trkpt>
      <trkpt lat="44.14171" lon="5.8893">
        <ele>674</ele>
        <time>2022-09-22T13:54:50Z</time>
      </trkpt>
      <trkpt lat="44.14172" lon="5.8893">
        <ele>674</ele>
        <time>2022-09-22T13:54:51Z</time>
      </trkpt>
      <trkpt lat="44.14173" lon="5.88929">
        <ele>674</ele>
        <time>2022-09-22T13:54:52Z</time>
      </trkpt>
      <trkpt lat="44.14174" lon="5.88928">
        <ele>674</ele>
        <time>2022-09-22T13:54:53Z</time>
      </trkpt>
      <trkpt lat="44.14175" lon="5.88928">
        <ele>674</ele>
        <time>2022-09-22T13:54:54Z</time>
      </trkpt>
      <trkpt lat="44.14176" lon="5.88927">
        <ele>673</ele>
        <time>2022-09-22T13:54:55Z</time>
      </trkpt>
      <trkpt lat="44.14177" lon="5.88926">
        <ele>673</ele>
        <time>2022-09-22T13:54:56Z</time>
      </trkpt>
      <trkpt lat="44.14178" lon="5.88925">
        <ele>673</ele>
        <time>2022-09-22T13:54:57Z</time>
      </trkpt>
      <trkpt lat="44.14179" lon="5.88924">
        <ele>673</ele>
        <time>2022-09-22T13:54:58Z</time>
      </trkpt>
      <trkpt lat="44.1418" lon="5.88923">
        <ele>673</ele>
        <time>2022-09-22T13:54:59Z</time>
      </trkpt>
      <trkpt lat="44.14181" lon="5.88922">
        <ele>673</ele>
        <time>2022-09-22T13:55:00Z</time>
      </trkpt>
      <trkpt lat="44.14181" lon="5.88921">
        <ele>673</ele>
        <time>2022-09-22T13:55:01Z</time>
      </trkpt>
      <trkpt lat="44.14182" lon="5.8892">
        <ele>673</ele>
        <time>2022-09-22T13:55:02Z</time>
      </trkpt>
      <trkpt lat="44.14183" lon="5.88919">
        <ele>673</ele>
        <time>2022-09-22T13:55:03Z</time>
      </trkpt>
      <trkpt lat="44.14184" lon="5.88919">
        <ele>673</ele>
        <time>2022-09-22T13:55:04Z</time>
      </trkpt>
      <trkpt lat="44.14185" lon="5.88918">
        <ele>673</ele>
        <time>2022-09-22T13:55:05Z</time>
      </trkpt>
      <trkpt lat="44.14186" lon="5.88917">
        <ele>673</ele>
        <time>2022-09-22T13:55:06Z</time>
      </trkpt>
      <trkpt lat="44.14187" lon="5.88916">
        <ele>674</ele>
        <time>2022-09-22T13:55:07Z</time>
      </trkpt>
      <trkpt lat="44.14188" lon="5.88915">
        <ele>674</ele>
        <time>2022-09-22T13:55:08Z</time>
      </trkpt>
      <trkpt lat="44.14188" lon="5.88913">
        <ele>675</ele>
        <time>2022-09-22T13:55:09Z</time>
      </trkpt>
      <trkpt lat="44.14189" lon="5.88912">
        <ele>674</ele>
        <time>2022-09-22T13:55:10Z</time>
      </trkpt>
      <trkpt lat="44.1419" lon="5.88911">
        <ele>674</ele>
        <time>2022-09-22T13:55:11Z</time>
      </trkpt>
      <trkpt lat="44.14191" lon="5.88909">
        <ele>674</ele>
        <time>2022-09-22T13:55:12Z</time>
      </trkpt>
      <trkpt lat="44.14192" lon="5.88908">
        <ele>674</ele>
        <time>2022-09-22T13:55:13Z</time>
      </trkpt>
      <trkpt lat="44.14192" lon="5.88906">
        <ele>674</ele>
        <time>2022-09-22T13:55:14Z</time>
      </trkpt>
      <trkpt lat="44.14193" lon="5.88905">
        <ele>673</ele>
        <time>2022-09-22T13:55:15Z</time>
      </trkpt>
      <trkpt lat="44.14194" lon="5.88904">
        <ele>673</ele>
        <time>2022-09-22T13:55:16Z</time>
      </trkpt>
      <trkpt lat="44.14195" lon="5.88902">
        <ele>673</ele>
        <time>2022-09-22T13:55:17Z</time>
      </trkpt>
      <trkpt lat="44.14197" lon="5.88901">
        <ele>673</ele>
        <time>2022-09-22T13:55:18Z</time>
      </trkpt>
      <trkpt lat="44.14197" lon="5.889">
        <ele>673</ele>
        <time>2022-09-22T13:55:19Z</time>
      </trkpt>
      <trkpt lat="44.14198" lon="5.88899">
        <ele>673</ele>
        <time>2022-09-22T13:55:20Z</time>
      </trkpt>
      <trkpt lat="44.14199" lon="5.88899">
        <ele>673</ele>
        <time>2022-09-22T13:55:21Z</time>
      </trkpt>
      <trkpt lat="44.142" lon="5.88898">
        <ele>673</ele>
        <time>2022-09-22T13:55:22Z</time>
      </trkpt>
      <trkpt lat="44.14201" lon="5.88897">
        <ele>673</ele>
        <time>2022-09-22T13:55:23Z</time>
      </trkpt>
      <trkpt lat="44.14201" lon="5.88896">
        <ele>673</ele>
        <time>2022-09-22T13:55:24Z</time>
      </trkpt>
      <trkpt lat="44.14202" lon="5.88895">
        <ele>673</ele>
        <time>2022-09-22T13:55:25Z</time>
      </trkpt>
      <trkpt lat="44.14203" lon="5.88894">
        <ele>673</ele>
        <time>2022-09-22T13:55:26Z</time>
      </trkpt>
      <trkpt lat="44.14204" lon="5.88893">
        <ele>673</ele>
        <time>2022-09-22T13:55:27Z</time>
      </trkpt>
      <trkpt lat="44.14205" lon="5.88892">
        <ele>673</ele>
        <time>2022-09-22T13:55:28Z</time>
      </trkpt>
      <trkpt lat="44.14206" lon="5.88891">
        <ele>673</ele>
        <time>2022-09-22T13:55:29Z</time>
      </trkpt>
      <trkpt lat="44.14207" lon="5.8889">
        <ele>672</ele>
        <time>2022-09-22T13:55:30Z</time>
      </trkpt>
      <trkpt lat="44.14208" lon="5.88889">
        <ele>672</ele>
        <time>2022-09-22T13:55:31Z</time>
      </trkpt>
      <trkpt lat="44.14209" lon="5.88888">
        <ele>672</ele>
        <time>2022-09-22T13:55:32Z</time>
      </trkpt>
      <trkpt lat="44.14209" lon="5.88887">
        <ele>672</ele>
        <time>2022-09-22T13:55:33Z</time>
      </trkpt>
      <trkpt lat="44.1421" lon="5.88885">
        <ele>672</ele>
        <time>2022-09-22T13:55:34Z</time>
      </trkpt>
      <trkpt lat="44.14211" lon="5.88884">
        <ele>672</ele>
        <time>2022-09-22T13:55:35Z</time>
      </trkpt>
      <trkpt lat="44.14212" lon="5.88883">
        <ele>672</ele>
        <time>2022-09-22T13:55:36Z</time>
      </trkpt>
      <trkpt lat="44.14213" lon="5.88882">
        <ele>672</ele>
        <time>2022-09-22T13:55:37Z</time>
      </trkpt>
      <trkpt lat="44.14215" lon="5.88881">
        <ele>672</ele>
        <time>2022-09-22T13:55:38Z</time>
      </trkpt>
      <trkpt lat="44.14216" lon="5.8888">
        <ele>672</ele>
        <time>2022-09-22T13:55:39Z</time>
      </trkpt>
      <trkpt lat="44.14217" lon="5.88879">
        <ele>672</ele>
        <time>2022-09-22T13:55:40Z</time>
      </trkpt>
      <trkpt lat="44.14218" lon="5.88878">
        <ele>672</ele>
        <time>2022-09-22T13:55:41Z</time>
      </trkpt>
      <trkpt lat="44.14219" lon="5.88878">
        <ele>672</ele>
        <time>2022-09-22T13:55:42Z</time>
      </trkpt>
      <trkpt lat="44.1422" lon="5.88877">
        <ele>672</ele>
        <time>2022-09-22T13:55:43Z</time>
      </trkpt>
      <trkpt lat="44.14221" lon="5.88876">
        <ele>672</ele>
        <time>2022-09-22T13:55:44Z</time>
      </trkpt>
      <trkpt lat="44.14222" lon="5.88875">
        <ele>672</ele>
        <time>2022-09-22T13:55:45Z</time>
      </trkpt>
      <trkpt lat="44.14223" lon="5.88874">
        <ele>672</ele>
        <time>2022-09-22T13:55:46Z</time>
      </trkpt>
      <trkpt lat="44.14224" lon="5.88874">
        <ele>672</ele>
        <time>2022-09-22T13:55:47Z</time>
      </trkpt>
      <trkpt lat="44.14225" lon="5.88873">
        <ele>672</ele>
        <time>2022-09-22T13:55:48Z</time>
      </trkpt>
      <trkpt lat="44.14226" lon="5.88872">
        <ele>672</ele>
        <time>2022-09-22T13:55:49Z</time>
      </trkpt>
      <trkpt lat="44.14227" lon="5.88871">
        <ele>671</ele>
        <time>2022-09-22T13:55:50Z</time>
      </trkpt>
      <trkpt lat="44.14228" lon="5.8887">
        <ele>671</ele>
        <time>2022-09-22T13:55:51Z</time>
      </trkpt>
      <trkpt lat="44.1423" lon="5.8887">
        <ele>670</ele>
        <time>2022-09-22T13:55:52Z</time>
      </trkpt>
      <trkpt lat="44.14231" lon="5.88869">
        <ele>670</ele>
        <time>2022-09-22T13:55:53Z</time>
      </trkpt>
      <trkpt lat="44.14232" lon="5.88868">
        <ele>670</ele>
        <time>2022-09-22T13:55:54Z</time>
      </trkpt>
      <trkpt lat="44.14233" lon="5.88867">
        <ele>670</ele>
        <time>2022-09-22T13:55:55Z</time>
      </trkpt>
      <trkpt lat="44.14234" lon="5.88866">
        <ele>670</ele>
        <time>2022-09-22T13:55:56Z</time>
      </trkpt>
      <trkpt lat="44.14235" lon="5.88865">
        <ele>670</ele>
        <time>2022-09-22T13:55:57Z</time>
      </trkpt>
      <trkpt lat="44.14236" lon="5.88864">
        <ele>670</ele>
        <time>2022-09-22T13:55:58Z</time>
      </trkpt>
      <trkpt lat="44.14236" lon="5.88863">
        <ele>670</ele>
        <time>2022-09-22T13:55:59Z</time>
      </trkpt>
      <trkpt lat="44.14237" lon="5.88862">
        <ele>670</ele>
        <time>2022-09-22T13:56:00Z</time>
      </trkpt>
      <trkpt lat="44.14238" lon="5.88861">
        <ele>670</ele>
        <time>2022-09-22T13:56:01Z</time>
      </trkpt>
      <trkpt lat="44.14239" lon="5.8886">
        <ele>670</ele>
        <time>2022-09-22T13:56:02Z</time>
      </trkpt>
      <trkpt lat="44.1424" lon="5.88859">
        <ele>670</ele>
        <time>2022-09-22T13:56:03Z</time>
      </trkpt>
      <trkpt lat="44.14241" lon="5.88859">
        <ele>670</ele>
        <time>2022-09-22T13:56:04Z</time>
      </trkpt>
      <trkpt lat="44.14241" lon="5.88858">
        <ele>669</ele>
        <time>2022-09-22T13:56:05Z</time>
      </trkpt>
      <trkpt lat="44.14242" lon="5.88857">
        <ele>669</ele>
        <time>2022-09-22T13:56:06Z</time>
      </trkpt>
      <trkpt lat="44.14242" lon="5.88855">
        <ele>669</ele>
        <time>2022-09-22T13:56:07Z</time>
      </trkpt>
      <trkpt lat="44.14243" lon="5.88854">
        <ele>669</ele>
        <time>2022-09-22T13:56:08Z</time>
      </trkpt>
      <trkpt lat="44.14243" lon="5.88853">
        <ele>669</ele>
        <time>2022-09-22T13:56:09Z</time>
      </trkpt>
      <trkpt lat="44.14244" lon="5.88852">
        <ele>669</ele>
        <time>2022-09-22T13:56:10Z</time>
      </trkpt>
      <trkpt lat="44.14244" lon="5.8885">
        <ele>669</ele>
        <time>2022-09-22T13:56:11Z</time>
      </trkpt>
      <trkpt lat="44.14245" lon="5.88848">
        <ele>669</ele>
        <time>2022-09-22T13:56:12Z</time>
      </trkpt>
      <trkpt lat="44.14246" lon="5.88847">
        <ele>669</ele>
        <time>2022-09-22T13:56:13Z</time>
      </trkpt>
      <trkpt lat="44.14247" lon="5.88845">
        <ele>669</ele>
        <time>2022-09-22T13:56:14Z</time>
      </trkpt>
      <trkpt lat="44.14247" lon="5.88844">
        <ele>669</ele>
        <time>2022-09-22T13:56:15Z</time>
      </trkpt>
      <trkpt lat="44.14248" lon="5.88843">
        <ele>669</ele>
        <time>2022-09-22T13:56:16Z</time>
      </trkpt>
      <trkpt lat="44.14249" lon="5.88842">
        <ele>669</ele>
        <time>2022-09-22T13:56:17Z</time>
      </trkpt>
      <trkpt lat="44.1425" lon="5.88841">
        <ele>669</ele>
        <time>2022-09-22T13:56:18Z</time>
      </trkpt>
      <trkpt lat="44.14251" lon="5.8884">
        <ele>669</ele>
        <time>2022-09-22T13:56:19Z</time>
      </trkpt>
      <trkpt lat="44.14252" lon="5.88839">
        <ele>669</ele>
        <time>2022-09-22T13:56:20Z</time>
      </trkpt>
      <trkpt lat="44.14253" lon="5.88838">
        <ele>669</ele>
        <time>2022-09-22T13:56:21Z</time>
      </trkpt>
      <trkpt lat="44.14254" lon="5.88837">
        <ele>669</ele>
        <time>2022-09-22T13:56:22Z</time>
      </trkpt>
      <trkpt lat="44.14255" lon="5.88837">
        <ele>669</ele>
        <time>2022-09-22T13:56:23Z</time>
      </trkpt>
      <trkpt lat="44.14256" lon="5.88836">
        <ele>669</ele>
        <time>2022-09-22T13:56:24Z</time>
      </trkpt>
      <trkpt lat="44.14256" lon="5.88835">
        <ele>668</ele>
        <time>2022-09-22T13:56:25Z</time>
      </trkpt>
      <trkpt lat="44.14257" lon="5.88834">
        <ele>668</ele>
        <time>2022-09-22T13:56:26Z</time>
      </trkpt>
      <trkpt lat="44.14258" lon="5.88834">
        <ele>668</ele>
        <time>2022-09-22T13:56:27Z</time>
      </trkpt>
      <trkpt lat="44.14259" lon="5.88833">
        <ele>668</ele>
        <time>2022-09-22T13:56:28Z</time>
      </trkpt>
      <trkpt lat="44.1426" lon="5.88832">
        <ele>668</ele>
        <time>2022-09-22T13:56:29Z</time>
      </trkpt>
      <trkpt lat="44.14261" lon="5.88831">
        <ele>668</ele>
        <time>2022-09-22T13:56:30Z</time>
      </trkpt>
      <trkpt lat="44.14262" lon="5.88831">
        <ele>668</ele>
        <time>2022-09-22T13:56:31Z</time>
      </trkpt>
      <trkpt lat="44.14262" lon="5.8883">
        <ele>668</ele>
        <time>2022-09-22T13:56:32Z</time>
      </trkpt>
      <trkpt lat="44.14263" lon="5.88829">
        <ele>668</ele>
        <time>2022-09-22T13:56:33Z</time>
      </trkpt>
      <trkpt lat="44.14264" lon="5.88828">
        <ele>668</ele>
        <time>2022-09-22T13:56:34Z</time>
      </trkpt>
      <trkpt lat="44.14265" lon="5.88827">
        <ele>667</ele>
        <time>2022-09-22T13:56:35Z</time>
      </trkpt>
      <trkpt lat="44.14266" lon="5.88827">
        <ele>667</ele>
        <time>2022-09-22T13:56:36Z</time>
      </trkpt>
      <trkpt lat="44.14266" lon="5.88826">
        <ele>667</ele>
        <time>2022-09-22T13:56:37Z</time>
      </trkpt>
      <trkpt lat="44.14267" lon="5.88825">
        <ele>667</ele>
        <time>2022-09-22T13:56:38Z</time>
      </trkpt>
      <trkpt lat="44.14268" lon="5.88825">
        <ele>667</ele>
        <time>2022-09-22T13:56:39Z</time>
      </trkpt>
      <trkpt lat="44.14269" lon="5.88824">
        <ele>667</ele>
        <time>2022-09-22T13:56:40Z</time>
      </trkpt>
      <trkpt lat="44.1427" lon="5.88823">
        <ele>667</ele>
        <time>2022-09-22T13:56:41Z</time>
      </trkpt>
      <trkpt lat="44.14271" lon="5.88823">
        <ele>667</ele>
        <time>2022-09-22T13:56:42Z</time>
      </trkpt>
      <trkpt lat="44.14272" lon="5.88821">
        <ele>667</ele>
        <time>2022-09-22T13:56:51Z</time>
      </trkpt>
      <trkpt lat="44.14273" lon="5.88821">
        <ele>667</ele>
        <time>2022-09-22T13:56:52Z</time>
      </trkpt>
      <trkpt lat="44.14273" lon="5.8882">
        <ele>667</ele>
        <time>2022-09-22T13:56:53Z</time>
      </trkpt>
      <trkpt lat="44.14273" lon="5.8882">
        <ele>667</ele>
        <time>2022-09-22T13:56:54Z</time>
      </trkpt>
      <trkpt lat="44.14274" lon="5.88819">
        <ele>666</ele>
        <time>2022-09-22T13:56:55Z</time>
      </trkpt>
      <trkpt lat="44.14274" lon="5.88818">
        <ele>666</ele>
        <time>2022-09-22T13:56:56Z</time>
      </trkpt>
      <trkpt lat="44.14275" lon="5.88818">
        <ele>666</ele>
        <time>2022-09-22T13:56:57Z</time>
      </trkpt>
      <trkpt lat="44.14275" lon="5.88817">
        <ele>666</ele>
        <time>2022-09-22T13:56:58Z</time>
      </trkpt>
      <trkpt lat="44.14276" lon="5.88817">
        <ele>666</ele>
        <time>2022-09-22T13:56:59Z</time>
      </trkpt>
      <trkpt lat="44.14276" lon="5.88816">
        <ele>666</ele>
        <time>2022-09-22T13:57:00Z</time>
      </trkpt>
      <trkpt lat="44.14276" lon="5.88816">
        <ele>666</ele>
        <time>2022-09-22T13:57:01Z</time>
      </trkpt>
      <trkpt lat="44.14278" lon="5.88814">
        <ele>666</ele>
        <time>2022-09-22T13:57:07Z</time>
      </trkpt>
      <trkpt lat="44.14279" lon="5.88814">
        <ele>666</ele>
        <time>2022-09-22T13:57:08Z</time>
      </trkpt>
      <trkpt lat="44.14279" lon="5.88813">
        <ele>666</ele>
        <time>2022-09-22T13:57:09Z</time>
      </trkpt>
      <trkpt lat="44.1428" lon="5.88813">
        <ele>666</ele>
        <time>2022-09-22T13:57:10Z</time>
      </trkpt>
      <trkpt lat="44.1428" lon="5.88812">
        <ele>666</ele>
        <time>2022-09-22T13:57:11Z</time>
      </trkpt>
      <trkpt lat="44.14281" lon="5.88812">
        <ele>666</ele>
        <time>2022-09-22T13:57:12Z</time>
      </trkpt>
      <trkpt lat="44.14282" lon="5.88812">
        <ele>666</ele>
        <time>2022-09-22T13:57:13Z</time>
      </trkpt>
      <trkpt lat="44.14283" lon="5.8881">
        <ele>666</ele>
        <time>2022-09-22T13:59:16Z</time>
      </trkpt>
      <trkpt lat="44.14283" lon="5.88809">
        <ele>666</ele>
        <time>2022-09-22T13:59:17Z</time>
      </trkpt>
      <trkpt lat="44.14284" lon="5.88808">
        <ele>666</ele>
        <time>2022-09-22T13:59:18Z</time>
      </trkpt>
      <trkpt lat="44.14284" lon="5.88808">
        <ele>666</ele>
        <time>2022-09-22T13:59:19Z</time>
      </trkpt>
      <trkpt lat="44.14285" lon="5.88807">
        <ele>665</ele>
        <time>2022-09-22T13:59:20Z</time>
      </trkpt>
      <trkpt lat="44.14285" lon="5.88807">
        <ele>665</ele>
        <time>2022-09-22T13:59:21Z</time>
      </trkpt>
      <trkpt lat="44.14285" lon="5.88806">
        <ele>665</ele>
        <time>2022-09-22T13:59:22Z</time>
      </trkpt>
      <trkpt lat="44.14286" lon="5.88806">
        <ele>665</ele>
        <time>2022-09-22T13:59:23Z</time>
      </trkpt>
      <trkpt lat="44.14287" lon="5.88805">
        <ele>665</ele>
        <time>2022-09-22T13:59:24Z</time>
      </trkpt>
      <trkpt lat="44.14287" lon="5.88805">
        <ele>665</ele>
        <time>2022-09-22T13:59:25Z</time>
      </trkpt>
      <trkpt lat="44.14288" lon="5.88804">
        <ele>665</ele>
        <time>2022-09-22T13:59:26Z</time>
      </trkpt>
      <trkpt lat="44.14289" lon="5.88803">
        <ele>665</ele>
        <time>2022-09-22T14:00:31Z</time>
      </trkpt>
      <trkpt lat="44.1429" lon="5.88803">
        <ele>665</ele>
        <time>2022-09-22T14:00:32Z</time>
      </trkpt>
      <trkpt lat="44.1429" lon="5.88802">
        <ele>665</ele>
        <time>2022-09-22T14:00:33Z</time>
      </trkpt>
      <trkpt lat="44.14291" lon="5.88802">
        <ele>665</ele>
        <time>2022-09-22T14:00:34Z</time>
      </trkpt>
      <trkpt lat="44.14292" lon="5.88802">
        <ele>665</ele>
        <time>2022-09-22T14:00:35Z</time>
      </trkpt>
      <trkpt lat="44.14293" lon="5.88802">
        <ele>665</ele>
        <time>2022-09-22T14:00:41Z</time>
      </trkpt>
      <trkpt lat="44.14294" lon="5.88802">
        <ele>665</ele>
        <time>2022-09-22T14:00:42Z</time>
      </trkpt>
      <trkpt lat="44.14295" lon="5.88801">
        <ele>665</ele>
        <time>2022-09-22T14:00:43Z</time>
      </trkpt>
      <trkpt lat="44.14296" lon="5.88801">
        <ele>666</ele>
        <time>2022-09-22T14:00:44Z</time>
      </trkpt>
      <trkpt lat="44.14297" lon="5.88801">
        <ele>666</ele>
        <time>2022-09-22T14:00:45Z</time>
      </trkpt>
      <trkpt lat="44.14298" lon="5.888">
        <ele>666</ele>
        <time>2022-09-22T14:00:46Z</time>
      </trkpt>
      <trkpt lat="44.14298" lon="5.88799">
        <ele>666</ele>
        <time>2022-09-22T14:00:47Z</time>
      </trkpt>
      <trkpt lat="44.14299" lon="5.88798">
        <ele>666</ele>
        <time>2022-09-22T14:00:48Z</time>
      </trkpt>
      <trkpt lat="44.143" lon="5.88798">
        <ele>666</ele>
        <time>2022-09-22T14:00:49Z</time>
      </trkpt>
      <trkpt lat="44.143" lon="5.88797">
        <ele>666</ele>
        <time>2022-09-22T14:00:50Z</time>
      </trkpt>
      <trkpt lat="44.14301" lon="5.88796">
        <ele>666</ele>
        <time>2022-09-22T14:00:51Z</time>
      </trkpt>
      <trkpt lat="44.14302" lon="5.88795">
        <ele>666</ele>
        <time>2022-09-22T14:00:52Z</time>
      </trkpt>
      <trkpt lat="44.14303" lon="5.88795">
        <ele>666</ele>
        <time>2022-09-22T14:00:53Z</time>
      </trkpt>
      <trkpt lat="44.14304" lon="5.88794">
        <ele>666</ele>
        <time>2022-09-22T14:00:54Z</time>
      </trkpt>
      <trkpt lat="44.14304" lon="5.88794">
        <ele>666</ele>
        <time>2022-09-22T14:00:55Z</time>
      </trkpt>
      <trkpt lat="44.14305" lon="5.88793">
        <ele>666</ele>
        <time>2022-09-22T14:00:56Z</time>
      </trkpt>
      <trkpt lat="44.14306" lon="5.88792">
        <ele>666</ele>
        <time>2022-09-22T14:00:57Z</time>
      </trkpt>
      <trkpt lat="44.14307" lon="5.88791">
        <ele>666</ele>
        <time>2022-09-22T14:00:58Z</time>
      </trkpt>
      <trkpt lat="44.14308" lon="5.88791">
        <ele>666</ele>
        <time>2022-09-22T14:00:59Z</time>
      </trkpt>
      <trkpt lat="44.14309" lon="5.88789">
        <ele>666</ele>
        <time>2022-09-22T14:01:00Z</time>
      </trkpt>
      <trkpt lat="44.14309" lon="5.88788">
        <ele>666</ele>
        <time>2022-09-22T14:01:01Z</time>
      </trkpt>
      <trkpt lat="44.1431" lon="5.88787">
        <ele>666</ele>
        <time>2022-09-22T14:01:02Z</time>
      </trkpt>
      <trkpt lat="44.14311" lon="5.88786">
        <ele>666</ele>
        <time>2022-09-22T14:01:03Z</time>
      </trkpt>
      <trkpt lat="44.14312" lon="5.88785">
        <ele>667</ele>
        <time>2022-09-22T14:01:04Z</time>
      </trkpt>
      <trkpt lat="44.14313" lon="5.88785">
        <ele>667</ele>
        <time>2022-09-22T14:01:05Z</time>
      </trkpt>
      <trkpt lat="44.14314" lon="5.88784">
        <ele>667</ele>
        <time>2022-09-22T14:01:06Z</time>
      </trkpt>
      <trkpt lat="44.14315" lon="5.88783">
        <ele>667</ele>
        <time>2022-09-22T14:01:07Z</time>
      </trkpt>
      <trkpt lat="44.14316" lon="5.88783">
        <ele>667</ele>
        <time>2022-09-22T14:01:08Z</time>
      </trkpt>
      <trkpt lat="44.14317" lon="5.88782">
        <ele>667</ele>
        <time>2022-09-22T14:01:09Z</time>
      </trkpt>
      <trkpt lat="44.14318" lon="5.88781">
        <ele>667</ele>
        <time>2022-09-22T14:01:10Z</time>
      </trkpt>
      <trkpt lat="44.14319" lon="5.88781">
        <ele>667</ele>
        <time>2022-09-22T14:01:11Z</time>
      </trkpt>
      <trkpt lat="44.1432" lon="5.8878">
        <ele>667</ele>
        <time>2022-09-22T14:01:12Z</time>
      </trkpt>
      <trkpt lat="44.1432" lon="5.88779">
        <ele>667</ele>
        <time>2022-09-22T14:01:13Z</time>
      </trkpt>
      <trkpt lat="44.14321" lon="5.88779">
        <ele>667</ele>
        <time>2022-09-22T14:01:14Z</time>
      </trkpt>
      <trkpt lat="44.14322" lon="5.88778">
        <ele>667</ele>
        <time>2022-09-22T14:01:15Z</time>
      </trkpt>
      <trkpt lat="44.14322" lon="5.88778">
        <ele>667</ele>
        <time>2022-09-22T14:01:16Z</time>
      </trkpt>
      <trkpt lat="44.14323" lon="5.88777">
        <ele>667</ele>
        <time>2022-09-22T14:01:17Z</time>
      </trkpt>
      <trkpt lat="44.14323" lon="5.88776">
        <ele>667</ele>
        <time>2022-09-22T14:01:18Z</time>
      </trkpt>
      <trkpt lat="44.14324" lon="5.88776">
        <ele>667</ele>
        <time>2022-09-22T14:01:19Z</time>
      </trkpt>
      <trkpt lat="44.14324" lon="5.88775">
        <ele>667</ele>
        <time>2022-09-22T14:01:20Z</time>
      </trkpt>
      <trkpt lat="44.14325" lon="5.88774">
        <ele>667</ele>
        <time>2022-09-22T14:01:21Z</time>
      </trkpt>
      <trkpt lat="44.14326" lon="5.88774">
        <ele>667</ele>
        <time>2022-09-22T14:01:22Z</time>
      </trkpt>
      <trkpt lat="44.14327" lon="5.88773">
        <ele>667</ele>
        <time>2022-09-22T14:01:23Z</time>
      </trkpt>
      <trkpt lat="44.14328" lon="5.88773">
        <ele>667</ele>
        <time>2022-09-22T14:01:24Z</time>
      </trkpt>
      <trkpt lat="44.14329" lon="5.88772">
        <ele>666</ele>
        <time>2022-09-22T14:01:25Z</time>
      </trkpt>
      <trkpt lat="44.1433" lon="5.88771">
        <ele>666</ele>
        <time>2022-09-22T14:01:26Z</time>
      </trkpt>
      <trkpt lat="44.1433" lon="5.8877">
        <ele>666</ele>
        <time>2022-09-22T14:01:27Z</time>
      </trkpt>
      <trkpt lat="44.14331" lon="5.88769">
        <ele>666</ele>
        <time>2022-09-22T14:01:28Z</time>
      </trkpt>
      <trkpt lat="44.14332" lon="5.88768">
        <ele>666</ele>
        <time>2022-09-22T14:01:29Z</time>
      </trkpt>
      <trkpt lat="44.14333" lon="5.88767">
        <ele>666</ele>
        <time>2022-09-22T14:01:30Z</time>
      </trkpt>
      <trkpt lat="44.14334" lon="5.88766">
        <ele>666</ele>
        <time>2022-09-22T14:01:31Z</time>
      </trkpt>
      <trkpt lat="44.14335" lon="5.88765">
        <ele>666</ele>
        <time>2022-09-22T14:01:32Z</time>
      </trkpt>
      <trkpt lat="44.14336" lon="5.88764">
        <ele>666</ele>
        <time>2022-09-22T14:01:33Z</time>
      </trkpt>
      <trkpt lat="44.14337" lon="5.88764">
        <ele>666</ele>
        <time>2022-09-22T14:01:34Z</time>
      </trkpt>
      <trkpt lat="44.14338" lon="5.88763">
        <ele>666</ele>
        <time>2022-09-22T14:01:35Z</time>
      </trkpt>
      <trkpt lat="44.14338" lon="5.88763">
        <ele>666</ele>
        <time>2022-09-22T14:01:36Z</time>
      </trkpt>
      <trkpt lat="44.14339" lon="5.88763">
        <ele>666</ele>
        <time>2022-09-22T14:01:37Z</time>
      </trkpt>
      <trkpt lat="44.1434" lon="5.88763">
        <ele>666</ele>
        <time>2022-09-22T14:01:38Z</time>
      </trkpt>
      <trkpt lat="44.14341" lon="5.88763">
        <ele>666</ele>
        <time>2022-09-22T14:01:39Z</time>
      </trkpt>
      <trkpt lat="44.14342" lon="5.88763">
        <ele>666</ele>
        <time>2022-09-22T14:01:40Z</time>
      </trkpt>
      <trkpt lat="44.14343" lon="5.88762">
        <ele>666</ele>
        <time>2022-09-22T14:01:41Z</time>
      </trkpt>
      <trkpt lat="44.14343" lon="5.88762">
        <ele>666</ele>
        <time>2022-09-22T14:01:42Z</time>
      </trkpt>
      <trkpt lat="44.14344" lon="5.88762">
        <ele>666</ele>
        <time>2022-09-22T14:01:43Z</time>
      </trkpt>
      <trkpt lat="44.14345" lon="5.88762">
        <ele>666</ele>
        <time>2022-09-22T14:01:44Z</time>
      </trkpt>
      <trkpt lat="44.14346" lon="5.88762">
        <ele>665</ele>
        <time>2022-09-22T14:01:45Z</time>
      </trkpt>
      <trkpt lat="44.14347" lon="5.88761">
        <ele>665</ele>
        <time>2022-09-22T14:01:46Z</time>
      </trkpt>
      <trkpt lat="44.14348" lon="5.88761">
        <ele>665</ele>
        <time>2022-09-22T14:01:47Z</time>
      </trkpt>
      <trkpt lat="44.14349" lon="5.8876">
        <ele>665</ele>
        <time>2022-09-22T14:01:48Z</time>
      </trkpt>
      <trkpt lat="44.1435" lon="5.88759">
        <ele>665</ele>
        <time>2022-09-22T14:01:49Z</time>
      </trkpt>
      <trkpt lat="44.1435" lon="5.88758">
        <ele>665</ele>
        <time>2022-09-22T14:01:50Z</time>
      </trkpt>
      <trkpt lat="44.1435" lon="5.88756">
        <ele>665</ele>
        <time>2022-09-22T14:01:51Z</time>
      </trkpt>
      <trkpt lat="44.1435" lon="5.88756">
        <ele>665</ele>
        <time>2022-09-22T14:01:52Z</time>
      </trkpt>
      <trkpt lat="44.1435" lon="5.88755">
        <ele>665</ele>
        <time>2022-09-22T14:01:53Z</time>
      </trkpt>
      <trkpt lat="44.14349" lon="5.88754">
        <ele>665</ele>
        <time>2022-09-22T14:01:54Z</time>
      </trkpt>
      <trkpt lat="44.14349" lon="5.88754">
        <ele>665</ele>
        <time>2022-09-22T14:01:55Z</time>
      </trkpt>
      <trkpt lat="44.14349" lon="5.88754">
        <ele>665</ele>
        <time>2022-09-22T14:04:40Z</time>
      </trkpt>
      <trkpt lat="44.14349" lon="5.88754">
        <ele>665</ele>
        <time>2022-09-22T14:04:41Z</time>
      </trkpt>
      <trkpt lat="44.1435" lon="5.88753">
        <ele>665</ele>
        <time>2022-09-22T14:04:42Z</time>
      </trkpt>
      <trkpt lat="44.1435" lon="5.88753">
        <ele>665</ele>
        <time>2022-09-22T14:04:43Z</time>
      </trkpt>
      <trkpt lat="44.1435" lon="5.88753">
        <ele>665</ele>
        <time>2022-09-22T14:04:44Z</time>
      </trkpt>
      <trkpt lat="44.14351" lon="5.88752">
        <ele>665</ele>
        <time>2022-09-22T14:04:45Z</time>
      </trkpt>
      <trkpt lat="44.14352" lon="5.88752">
        <ele>665</ele>
        <time>2022-09-22T14:04:46Z</time>
      </trkpt>
      <trkpt lat="44.14352" lon="5.88751">
        <ele>665</ele>
        <time>2022-09-22T14:04:47Z</time>
      </trkpt>
      <trkpt lat="44.14353" lon="5.88751">
        <ele>665</ele>
        <time>2022-09-22T14:04:48Z</time>
      </trkpt>
      <trkpt lat="44.14354" lon="5.8875">
        <ele>665</ele>
        <time>2022-09-22T14:04:49Z</time>
      </trkpt>
      <trkpt lat="44.14355" lon="5.8875">
        <ele>664</ele>
        <time>2022-09-22T14:04:50Z</time>
      </trkpt>
      <trkpt lat="44.14356" lon="5.88749">
        <ele>664</ele>
        <time>2022-09-22T14:04:51Z</time>
      </trkpt>
      <trkpt lat="44.14356" lon="5.88748">
        <ele>664</ele>
        <time>2022-09-22T14:04:52Z</time>
      </trkpt>
      <trkpt lat="44.14357" lon="5.88748">
        <ele>664</ele>
        <time>2022-09-22T14:04:53Z</time>
      </trkpt>
      <trkpt lat="44.14358" lon="5.88747">
        <ele>664</ele>
        <time>2022-09-22T14:04:54Z</time>
      </trkpt>
      <trkpt lat="44.14359" lon="5.88746">
        <ele>664</ele>
        <time>2022-09-22T14:04:55Z</time>
      </trkpt>
      <trkpt lat="44.14359" lon="5.88745">
        <ele>664</ele>
        <time>2022-09-22T14:04:56Z</time>
      </trkpt>
      <trkpt lat="44.1436" lon="5.88744">
        <ele>664</ele>
        <time>2022-09-22T14:04:57Z</time>
      </trkpt>
      <trkpt lat="44.14361" lon="5.88743">
        <ele>664</ele>
        <time>2022-09-22T14:04:58Z</time>
      </trkpt>
      <trkpt lat="44.14361" lon="5.88742">
        <ele>664</ele>
        <time>2022-09-22T14:04:59Z</time>
      </trkpt>
      <trkpt lat="44.14362" lon="5.88742">
        <ele>664</ele>
        <time>2022-09-22T14:05:00Z</time>
      </trkpt>
      <trkpt lat="44.14363" lon="5.88741">
        <ele>664</ele>
        <time>2022-09-22T14:05:01Z</time>
      </trkpt>
      <trkpt lat="44.14363" lon="5.8874">
        <ele>664</ele>
        <time>2022-09-22T14:05:02Z</time>
      </trkpt>
      <trkpt lat="44.14364" lon="5.88739">
        <ele>664</ele>
        <time>2022-09-22T14:05:03Z</time>
      </trkpt>
      <trkpt lat="44.14364" lon="5.88738">
        <ele>665</ele>
        <time>2022-09-22T14:05:04Z</time>
      </trkpt>
      <trkpt lat="44.14365" lon="5.88737">
        <ele>664</ele>
        <time>2022-09-22T14:05:05Z</time>
      </trkpt>
      <trkpt lat="44.14365" lon="5.88737">
        <ele>664</ele>
        <time>2022-09-22T14:05:06Z</time>
      </trkpt>
      <trkpt lat="44.14366" lon="5.88736">
        <ele>664</ele>
        <time>2022-09-22T14:05:07Z</time>
      </trkpt>
      <trkpt lat="44.14367" lon="5.88735">
        <ele>664</ele>
        <time>2022-09-22T14:05:08Z</time>
      </trkpt>
      <trkpt lat="44.14367" lon="5.88734">
        <ele>662</ele>
        <time>2022-09-22T14:05:26Z</time>
      </trkpt>
      <trkpt lat="44.14367" lon="5.88733">
        <ele>662</ele>
        <time>2022-09-22T14:05:27Z</time>
      </trkpt>
      <trkpt lat="44.14368" lon="5.88733">
        <ele>662</ele>
        <time>2022-09-22T14:05:28Z</time>
      </trkpt>
      <trkpt lat="44.14368" lon="5.88733">
        <ele>662</ele>
        <time>2022-09-22T14:05:29Z</time>
      </trkpt>
      <trkpt lat="44.14368" lon="5.88733">
        <ele>662</ele>
        <time>2022-09-22T14:05:30Z</time>
      </trkpt>
      <trkpt lat="44.14367" lon="5.88734">
        <ele>662</ele>
        <time>2022-09-22T14:05:31Z</time>
      </trkpt>
      <trkpt lat="44.14367" lon="5.88734">
        <ele>662</ele>
        <time>2022-09-22T14:05:32Z</time>
      </trkpt>
      <trkpt lat="44.14371" lon="5.88735">
        <ele>654</ele>
        <time>2022-09-22T14:06:56Z</time>
      </trkpt>
      <trkpt lat="44.14374" lon="5.88735">
        <ele>654</ele>
        <time>2022-09-22T14:06:57Z</time>
      </trkpt>
      <trkpt lat="44.14376" lon="5.88736">
        <ele>654</ele>
        <time>2022-09-22T14:06:58Z</time>
      </trkpt>
      <trkpt lat="44.14377" lon="5.88736">
        <ele>654</ele>
        <time>2022-09-22T14:06:59Z</time>
      </trkpt>
      <trkpt lat="44.14379" lon="5.88737">
        <ele>653</ele>
        <time>2022-09-22T14:07:00Z</time>
      </trkpt>
      <trkpt lat="44.14379" lon="5.88737">
        <ele>653</ele>
        <time>2022-09-22T14:07:01Z</time>
      </trkpt>
      <trkpt lat="44.1438" lon="5.88738">
        <ele>653</ele>
        <time>2022-09-22T14:07:02Z</time>
      </trkpt>
      <trkpt lat="44.14381" lon="5.88738">
        <ele>653</ele>
        <time>2022-09-22T14:07:03Z</time>
      </trkpt>
      <trkpt lat="44.14381" lon="5.88738">
        <ele>653</ele>
        <time>2022-09-22T14:07:04Z</time>
      </trkpt>
      <trkpt lat="44.14382" lon="5.88738">
        <ele>653</ele>
        <time>2022-09-22T14:07:05Z</time>
      </trkpt>
      <trkpt lat="44.14382" lon="5.88738">
        <ele>653</ele>
        <time>2022-09-22T14:07:06Z</time>
      </trkpt>
      <trkpt lat="44.14383" lon="5.88739">
        <ele>653</ele>
        <time>2022-09-22T14:07:07Z</time>
      </trkpt>
      <trkpt lat="44.14384" lon="5.88739">
        <ele>653</ele>
        <time>2022-09-22T14:07:08Z</time>
      </trkpt>
      <trkpt lat="44.14385" lon="5.88739">
        <ele>653</ele>
        <time>2022-09-22T14:07:09Z</time>
      </trkpt>
      <trkpt lat="44.14385" lon="5.8874">
        <ele>652</ele>
        <time>2022-09-22T14:07:10Z</time>
      </trkpt>
      <trkpt lat="44.14386" lon="5.8874">
        <ele>652</ele>
        <time>2022-09-22T14:07:11Z</time>
      </trkpt>
      <trkpt lat="44.14387" lon="5.8874">
        <ele>652</ele>
        <time>2022-09-22T14:07:12Z</time>
      </trkpt>
      <trkpt lat="44.14388" lon="5.88741">
        <ele>651</ele>
        <time>2022-09-22T14:07:19Z</time>
      </trkpt>
      <trkpt lat="44.14389" lon="5.8874">
        <ele>651</ele>
        <time>2022-09-22T14:07:20Z</time>
      </trkpt>
      <trkpt lat="44.1439" lon="5.8874">
        <ele>651</ele>
        <time>2022-09-22T14:07:21Z</time>
      </trkpt>
      <trkpt lat="44.1439" lon="5.8874">
        <ele>651</ele>
        <time>2022-09-22T14:07:22Z</time>
      </trkpt>
      <trkpt lat="44.1439" lon="5.8874">
        <ele>651</ele>
        <time>2022-09-22T14:07:23Z</time>
      </trkpt>
      <trkpt lat="44.1439" lon="5.8874">
        <ele>651</ele>
        <time>2022-09-22T14:07:24Z</time>
      </trkpt>
      <trkpt lat="44.14391" lon="5.8874">
        <ele>650</ele>
        <time>2022-09-22T14:07:25Z</time>
      </trkpt>
      <trkpt lat="44.14391" lon="5.88739">
        <ele>650</ele>
        <time>2022-09-22T14:07:26Z</time>
      </trkpt>
      <trkpt lat="44.14392" lon="5.88739">
        <ele>650</ele>
        <time>2022-09-22T14:07:27Z</time>
      </trkpt>
      <trkpt lat="44.14392" lon="5.88739">
        <ele>650</ele>
        <time>2022-09-22T14:07:28Z</time>
      </trkpt>
      <trkpt lat="44.14393" lon="5.88739">
        <ele>650</ele>
        <time>2022-09-22T14:07:29Z</time>
      </trkpt>
      <trkpt lat="44.14394" lon="5.88739">
        <ele>648</ele>
        <time>2022-09-22T14:07:35Z</time>
      </trkpt>
      <trkpt lat="44.14394" lon="5.88739">
        <ele>648</ele>
        <time>2022-09-22T14:07:36Z</time>
      </trkpt>
      <trkpt lat="44.14394" lon="5.88739">
        <ele>648</ele>
        <time>2022-09-22T14:07:37Z</time>
      </trkpt>
      <trkpt lat="44.14394" lon="5.88738">
        <ele>648</ele>
        <time>2022-09-22T14:07:38Z</time>
      </trkpt>
      <trkpt lat="44.14394" lon="5.88738">
        <ele>648</ele>
        <time>2022-09-22T14:07:39Z</time>
      </trkpt>
      <trkpt lat="44.14394" lon="5.88737">
        <ele>648</ele>
        <time>2022-09-22T14:07:40Z</time>
      </trkpt>
      <trkpt lat="44.14394" lon="5.88736">
        <ele>648</ele>
        <time>2022-09-22T14:07:41Z</time>
      </trkpt>
      <trkpt lat="44.14395" lon="5.88736">
        <ele>648</ele>
        <time>2022-09-22T14:07:42Z</time>
      </trkpt>
      <trkpt lat="44.14395" lon="5.88735">
        <ele>648</ele>
        <time>2022-09-22T14:07:43Z</time>
      </trkpt>
      <trkpt lat="44.14396" lon="5.88735">
        <ele>648</ele>
        <time>2022-09-22T14:07:44Z</time>
      </trkpt>
      <trkpt lat="44.14396" lon="5.88734">
        <ele>647</ele>
        <time>2022-09-22T14:07:45Z</time>
      </trkpt>
      <trkpt lat="44.14397" lon="5.88735">
        <ele>646</ele>
        <time>2022-09-22T14:08:11Z</time>
      </trkpt>
      <trkpt lat="44.14397" lon="5.88735">
        <ele>646</ele>
        <time>2022-09-22T14:08:12Z</time>
      </trkpt>
      <trkpt lat="44.14398" lon="5.88735">
        <ele>646</ele>
        <time>2022-09-22T14:08:13Z</time>
      </trkpt>
      <trkpt lat="44.14398" lon="5.88736">
        <ele>646</ele>
        <time>2022-09-22T14:08:14Z</time>
      </trkpt>
      <trkpt lat="44.14398" lon="5.88736">
        <ele>646</ele>
        <time>2022-09-22T14:08:15Z</time>
      </trkpt>
      <trkpt lat="44.14399" lon="5.88737">
        <ele>646</ele>
        <time>2022-09-22T14:08:16Z</time>
      </trkpt>
      <trkpt lat="44.14399" lon="5.88738">
        <ele>646</ele>
        <time>2022-09-22T14:08:17Z</time>
      </trkpt>
      <trkpt lat="44.14399" lon="5.88738">
        <ele>646</ele>
        <time>2022-09-22T14:08:18Z</time>
      </trkpt>
      <trkpt lat="44.14399" lon="5.88739">
        <ele>646</ele>
        <time>2022-09-22T14:08:19Z</time>
      </trkpt>
      <trkpt lat="44.144" lon="5.8874">
        <ele>646</ele>
        <time>2022-09-22T14:08:20Z</time>
      </trkpt>
      <trkpt lat="44.144" lon="5.88741">
        <ele>646</ele>
        <time>2022-09-22T14:08:21Z</time>
      </trkpt>
      <trkpt lat="44.144" lon="5.88741">
        <ele>646</ele>
        <time>2022-09-22T14:08:22Z</time>
      </trkpt>
      <trkpt lat="44.144" lon="5.88742">
        <ele>646</ele>
        <time>2022-09-22T14:08:23Z</time>
      </trkpt>
      <trkpt lat="44.144" lon="5.88743">
        <ele>646</ele>
        <time>2022-09-22T14:08:24Z</time>
      </trkpt>
      <trkpt lat="44.144" lon="5.88744">
        <ele>645</ele>
        <time>2022-09-22T14:08:25Z</time>
      </trkpt>
      <trkpt lat="44.144" lon="5.88745">
        <ele>645</ele>
        <time>2022-09-22T14:08:26Z</time>
      </trkpt>
      <trkpt lat="44.144" lon="5.88746">
        <ele>645</ele>
        <time>2022-09-22T14:08:34Z</time>
      </trkpt>
      <trkpt lat="44.144" lon="5.88746">
        <ele>645</ele>
        <time>2022-09-22T14:08:35Z</time>
      </trkpt>
      <trkpt lat="44.144" lon="5.88747">
        <ele>645</ele>
        <time>2022-09-22T14:08:36Z</time>
      </trkpt>
      <trkpt lat="44.144" lon="5.88748">
        <ele>645</ele>
        <time>2022-09-22T14:08:37Z</time>
      </trkpt>
      <trkpt lat="44.144" lon="5.88748">
        <ele>645</ele>
        <time>2022-09-22T14:08:38Z</time>
      </trkpt>
      <trkpt lat="44.144" lon="5.88749">
        <ele>645</ele>
        <time>2022-09-22T14:08:39Z</time>
      </trkpt>
      <trkpt lat="44.144" lon="5.8875">
        <ele>645</ele>
        <time>2022-09-22T14:08:40Z</time>
      </trkpt>
      <trkpt lat="44.144" lon="5.88751">
        <ele>645</ele>
        <time>2022-09-22T14:08:41Z</time>
      </trkpt>
      <trkpt lat="44.14401" lon="5.88752">
        <ele>645</ele>
        <time>2022-09-22T14:08:42Z</time>
      </trkpt>
      <trkpt lat="44.144" lon="5.88753">
        <ele>645</ele>
        <time>2022-09-22T14:08:43Z</time>
      </trkpt>
      <trkpt lat="44.144" lon="5.88754">
        <ele>645</ele>
        <time>2022-09-22T14:08:44Z</time>
      </trkpt>
      <trkpt lat="44.14399" lon="5.88756">
        <ele>645</ele>
        <time>2022-09-22T14:08:52Z</time>
      </trkpt>
      <trkpt lat="44.14399" lon="5.88757">
        <ele>645</ele>
        <time>2022-09-22T14:08:53Z</time>
      </trkpt>
      <trkpt lat="44.14399" lon="5.88758">
        <ele>645</ele>
        <time>2022-09-22T14:08:54Z</time>
      </trkpt>
      <trkpt lat="44.14398" lon="5.88759">
        <ele>644</ele>
        <time>2022-09-22T14:08:55Z</time>
      </trkpt>
      <trkpt lat="44.14398" lon="5.8876">
        <ele>644</ele>
        <time>2022-09-22T14:08:56Z</time>
      </trkpt>
      <trkpt lat="44.14398" lon="5.88761">
        <ele>644</ele>
        <time>2022-09-22T14:08:57Z</time>
      </trkpt>
      <trkpt lat="44.14397" lon="5.88762">
        <ele>644</ele>
        <time>2022-09-22T14:08:58Z</time>
      </trkpt>
      <trkpt lat="44.14397" lon="5.88763">
        <ele>644</ele>
        <time>2022-09-22T14:08:59Z</time>
      </trkpt>
      <trkpt lat="44.14396" lon="5.88764">
        <ele>644</ele>
        <time>2022-09-22T14:09:00Z</time>
      </trkpt>
      <trkpt lat="44.14396" lon="5.88765">
        <ele>644</ele>
        <time>2022-09-22T14:09:01Z</time>
      </trkpt>
      <trkpt lat="44.14395" lon="5.88766">
        <ele>644</ele>
        <time>2022-09-22T14:09:02Z</time>
      </trkpt>
      <trkpt lat="44.14395" lon="5.88767">
        <ele>644</ele>
        <time>2022-09-22T14:09:03Z</time>
      </trkpt>
      <trkpt lat="44.14394" lon="5.88768">
        <ele>644</ele>
        <time>2022-09-22T14:09:04Z</time>
      </trkpt>
      <trkpt lat="44.14393" lon="5.88769">
        <ele>644</ele>
        <time>2022-09-22T14:09:05Z</time>
      </trkpt>
      <trkpt lat="44.14393" lon="5.8877">
        <ele>644</ele>
        <time>2022-09-22T14:09:06Z</time>
      </trkpt>
      <trkpt lat="44.14392" lon="5.88771">
        <ele>644</ele>
        <time>2022-09-22T14:09:07Z</time>
      </trkpt>
      <trkpt lat="44.14392" lon="5.88772">
        <ele>644</ele>
        <time>2022-09-22T14:09:08Z</time>
      </trkpt>
      <trkpt lat="44.14392" lon="5.88773">
        <ele>644</ele>
        <time>2022-09-22T14:09:09Z</time>
      </trkpt>
      <trkpt lat="44.14391" lon="5.88774">
        <ele>644</ele>
        <time>2022-09-22T14:09:10Z</time>
      </trkpt>
      <trkpt lat="44.14391" lon="5.88776">
        <ele>644</ele>
        <time>2022-09-22T14:09:11Z</time>
      </trkpt>
      <trkpt lat="44.1439" lon="5.88777">
        <ele>644</ele>
        <time>2022-09-22T14:09:12Z</time>
      </trkpt>
      <trkpt lat="44.14389" lon="5.88778">
        <ele>644</ele>
        <time>2022-09-22T14:09:13Z</time>
      </trkpt>
      <trkpt lat="44.14388" lon="5.88779">
        <ele>644</ele>
        <time>2022-09-22T14:09:14Z</time>
      </trkpt>
      <trkpt lat="44.14388" lon="5.8878">
        <ele>644</ele>
        <time>2022-09-22T14:09:15Z</time>
      </trkpt>
      <trkpt lat="44.14387" lon="5.88781">
        <ele>644</ele>
        <time>2022-09-22T14:09:16Z</time>
      </trkpt>
      <trkpt lat="44.14386" lon="5.88782">
        <ele>644</ele>
        <time>2022-09-22T14:09:17Z</time>
      </trkpt>
      <trkpt lat="44.14386" lon="5.88783">
        <ele>644</ele>
        <time>2022-09-22T14:09:18Z</time>
      </trkpt>
      <trkpt lat="44.14386" lon="5.88786">
        <ele>643</ele>
        <time>2022-09-22T14:09:24Z</time>
      </trkpt>
      <trkpt lat="44.14386" lon="5.88786">
        <ele>643</ele>
        <time>2022-09-22T14:09:25Z</time>
      </trkpt>
      <trkpt lat="44.14386" lon="5.88787">
        <ele>643</ele>
        <time>2022-09-22T14:09:26Z</time>
      </trkpt>
      <trkpt lat="44.14387" lon="5.88786">
        <ele>643</ele>
        <time>2022-09-22T14:09:27Z</time>
      </trkpt>
      <trkpt lat="44.14388" lon="5.88786">
        <ele>643</ele>
        <time>2022-09-22T14:09:28Z</time>
      </trkpt>
      <trkpt lat="44.14388" lon="5.88786">
        <ele>643</ele>
        <time>2022-09-22T14:09:29Z</time>
      </trkpt>
      <trkpt lat="44.14389" lon="5.88785">
        <ele>642</ele>
        <time>2022-09-22T14:09:30Z</time>
      </trkpt>
      <trkpt lat="44.1439" lon="5.88785">
        <ele>642</ele>
        <time>2022-09-22T14:09:31Z</time>
      </trkpt>
      <trkpt lat="44.14391" lon="5.88784">
        <ele>642</ele>
        <time>2022-09-22T14:09:32Z</time>
      </trkpt>
      <trkpt lat="44.14392" lon="5.88783">
        <ele>642</ele>
        <time>2022-09-22T14:09:33Z</time>
      </trkpt>
      <trkpt lat="44.14392" lon="5.88783">
        <ele>642</ele>
        <time>2022-09-22T14:09:34Z</time>
      </trkpt>
      <trkpt lat="44.14393" lon="5.88782">
        <ele>642</ele>
        <time>2022-09-22T14:09:35Z</time>
      </trkpt>
      <trkpt lat="44.14394" lon="5.88782">
        <ele>642</ele>
        <time>2022-09-22T14:09:36Z</time>
      </trkpt>
      <trkpt lat="44.14395" lon="5.88781">
        <ele>642</ele>
        <time>2022-09-22T14:09:37Z</time>
      </trkpt>
      <trkpt lat="44.14396" lon="5.88781">
        <ele>642</ele>
        <time>2022-09-22T14:09:38Z</time>
      </trkpt>
      <trkpt lat="44.14397" lon="5.8878">
        <ele>642</ele>
        <time>2022-09-22T14:09:39Z</time>
      </trkpt>
      <trkpt lat="44.14398" lon="5.88779">
        <ele>641</ele>
        <time>2022-09-22T14:09:40Z</time>
      </trkpt>
      <trkpt lat="44.14399" lon="5.88779">
        <ele>641</ele>
        <time>2022-09-22T14:09:41Z</time>
      </trkpt>
      <trkpt lat="44.144" lon="5.88778">
        <ele>641</ele>
        <time>2022-09-22T14:09:42Z</time>
      </trkpt>
      <trkpt lat="44.144" lon="5.88777">
        <ele>641</ele>
        <time>2022-09-22T14:09:43Z</time>
      </trkpt>
      <trkpt lat="44.14401" lon="5.88777">
        <ele>641</ele>
        <time>2022-09-22T14:09:44Z</time>
      </trkpt>
      <trkpt lat="44.14402" lon="5.88776">
        <ele>641</ele>
        <time>2022-09-22T14:09:45Z</time>
      </trkpt>
      <trkpt lat="44.14403" lon="5.88775">
        <ele>641</ele>
        <time>2022-09-22T14:09:46Z</time>
      </trkpt>
      <trkpt lat="44.14404" lon="5.88774">
        <ele>641</ele>
        <time>2022-09-22T14:09:47Z</time>
      </trkpt>
      <trkpt lat="44.14405" lon="5.88773">
        <ele>641</ele>
        <time>2022-09-22T14:09:48Z</time>
      </trkpt>
      <trkpt lat="44.14406" lon="5.88772">
        <ele>641</ele>
        <time>2022-09-22T14:09:49Z</time>
      </trkpt>
      <trkpt lat="44.14407" lon="5.88771">
        <ele>640</ele>
        <time>2022-09-22T14:09:50Z</time>
      </trkpt>
      <trkpt lat="44.14408" lon="5.88771">
        <ele>640</ele>
        <time>2022-09-22T14:09:51Z</time>
      </trkpt>
      <trkpt lat="44.14409" lon="5.8877">
        <ele>640</ele>
        <time>2022-09-22T14:09:52Z</time>
      </trkpt>
      <trkpt lat="44.1441" lon="5.88769">
        <ele>640</ele>
        <time>2022-09-22T14:09:53Z</time>
      </trkpt>
      <trkpt lat="44.14411" lon="5.88768">
        <ele>640</ele>
        <time>2022-09-22T14:09:54Z</time>
      </trkpt>
      <trkpt lat="44.14412" lon="5.88767">
        <ele>639</ele>
        <time>2022-09-22T14:09:55Z</time>
      </trkpt>
      <trkpt lat="44.14413" lon="5.88767">
        <ele>639</ele>
        <time>2022-09-22T14:09:56Z</time>
      </trkpt>
      <trkpt lat="44.14414" lon="5.88766">
        <ele>639</ele>
        <time>2022-09-22T14:09:57Z</time>
      </trkpt>
      <trkpt lat="44.14415" lon="5.88765">
        <ele>639</ele>
        <time>2022-09-22T14:09:58Z</time>
      </trkpt>
      <trkpt lat="44.14416" lon="5.88764">
        <ele>639</ele>
        <time>2022-09-22T14:09:59Z</time>
      </trkpt>
      <trkpt lat="44.14416" lon="5.88763">
        <ele>639</ele>
        <time>2022-09-22T14:10:00Z</time>
      </trkpt>
      <trkpt lat="44.14417" lon="5.88762">
        <ele>639</ele>
        <time>2022-09-22T14:10:01Z</time>
      </trkpt>
      <trkpt lat="44.14418" lon="5.88762">
        <ele>639</ele>
        <time>2022-09-22T14:10:02Z</time>
      </trkpt>
      <trkpt lat="44.14419" lon="5.88761">
        <ele>639</ele>
        <time>2022-09-22T14:10:03Z</time>
      </trkpt>
      <trkpt lat="44.14419" lon="5.8876">
        <ele>639</ele>
        <time>2022-09-22T14:10:04Z</time>
      </trkpt>
      <trkpt lat="44.1442" lon="5.88759">
        <ele>639</ele>
        <time>2022-09-22T14:10:05Z</time>
      </trkpt>
      <trkpt lat="44.14421" lon="5.88758">
        <ele>639</ele>
        <time>2022-09-22T14:10:06Z</time>
      </trkpt>
      <trkpt lat="44.14422" lon="5.88757">
        <ele>639</ele>
        <time>2022-09-22T14:10:07Z</time>
      </trkpt>
      <trkpt lat="44.14423" lon="5.88756">
        <ele>639</ele>
        <time>2022-09-22T14:10:08Z</time>
      </trkpt>
      <trkpt lat="44.14424" lon="5.88754">
        <ele>639</ele>
        <time>2022-09-22T14:10:09Z</time>
      </trkpt>
      <trkpt lat="44.14424" lon="5.88753">
        <ele>638</ele>
        <time>2022-09-22T14:10:10Z</time>
      </trkpt>
      <trkpt lat="44.14425" lon="5.88752">
        <ele>638</ele>
        <time>2022-09-22T14:10:11Z</time>
      </trkpt>
      <trkpt lat="44.14426" lon="5.88751">
        <ele>638</ele>
        <time>2022-09-22T14:10:12Z</time>
      </trkpt>
      <trkpt lat="44.14426" lon="5.88751">
        <ele>638</ele>
        <time>2022-09-22T14:10:13Z</time>
      </trkpt>
      <trkpt lat="44.14427" lon="5.8875">
        <ele>638</ele>
        <time>2022-09-22T14:10:14Z</time>
      </trkpt>
      <trkpt lat="44.14428" lon="5.88749">
        <ele>638</ele>
        <time>2022-09-22T14:10:15Z</time>
      </trkpt>
      <trkpt lat="44.14429" lon="5.88748">
        <ele>638</ele>
        <time>2022-09-22T14:10:16Z</time>
      </trkpt>
      <trkpt lat="44.14429" lon="5.88747">
        <ele>638</ele>
        <time>2022-09-22T14:10:17Z</time>
      </trkpt>
      <trkpt lat="44.1443" lon="5.88747">
        <ele>638</ele>
        <time>2022-09-22T14:10:18Z</time>
      </trkpt>
      <trkpt lat="44.1443" lon="5.88746">
        <ele>638</ele>
        <time>2022-09-22T14:10:19Z</time>
      </trkpt>
      <trkpt lat="44.1443" lon="5.88745">
        <ele>637</ele>
        <time>2022-09-22T14:10:20Z</time>
      </trkpt>
      <trkpt lat="44.1443" lon="5.88743">
        <ele>637</ele>
        <time>2022-09-22T14:10:21Z</time>
      </trkpt>
      <trkpt lat="44.1443" lon="5.88742">
        <ele>637</ele>
        <time>2022-09-22T14:10:22Z</time>
      </trkpt>
      <trkpt lat="44.1443" lon="5.88741">
        <ele>637</ele>
        <time>2022-09-22T14:10:23Z</time>
      </trkpt>
      <trkpt lat="44.14429" lon="5.8874">
        <ele>637</ele>
        <time>2022-09-22T14:10:24Z</time>
      </trkpt>
      <trkpt lat="44.14429" lon="5.88738">
        <ele>637</ele>
        <time>2022-09-22T14:10:25Z</time>
      </trkpt>
      <trkpt lat="44.14429" lon="5.88737">
        <ele>637</ele>
        <time>2022-09-22T14:10:26Z</time>
      </trkpt>
      <trkpt lat="44.14429" lon="5.88736">
        <ele>637</ele>
        <time>2022-09-22T14:10:27Z</time>
      </trkpt>
      <trkpt lat="44.14429" lon="5.88734">
        <ele>637</ele>
        <time>2022-09-22T14:10:28Z</time>
      </trkpt>
      <trkpt lat="44.14429" lon="5.88733">
        <ele>637</ele>
        <time>2022-09-22T14:10:29Z</time>
      </trkpt>
      <trkpt lat="44.14428" lon="5.88731">
        <ele>636</ele>
        <time>2022-09-22T14:10:30Z</time>
      </trkpt>
      <trkpt lat="44.14428" lon="5.8873">
        <ele>636</ele>
        <time>2022-09-22T14:10:31Z</time>
      </trkpt>
      <trkpt lat="44.14428" lon="5.88729">
        <ele>636</ele>
        <time>2022-09-22T14:10:32Z</time>
      </trkpt>
      <trkpt lat="44.14429" lon="5.88728">
        <ele>636</ele>
        <time>2022-09-22T14:10:33Z</time>
      </trkpt>
      <trkpt lat="44.14429" lon="5.88726">
        <ele>636</ele>
        <time>2022-09-22T14:10:34Z</time>
      </trkpt>
      <trkpt lat="44.14429" lon="5.88725">
        <ele>636</ele>
        <time>2022-09-22T14:10:35Z</time>
      </trkpt>
      <trkpt lat="44.14429" lon="5.88724">
        <ele>636</ele>
        <time>2022-09-22T14:10:36Z</time>
      </trkpt>
      <trkpt lat="44.14429" lon="5.88723">
        <ele>636</ele>
        <time>2022-09-22T14:10:37Z</time>
      </trkpt>
      <trkpt lat="44.1443" lon="5.88721">
        <ele>636</ele>
        <time>2022-09-22T14:10:38Z</time>
      </trkpt>
      <trkpt lat="44.1443" lon="5.8872">
        <ele>636</ele>
        <time>2022-09-22T14:10:39Z</time>
      </trkpt>
      <trkpt lat="44.1443" lon="5.88719">
        <ele>635</ele>
        <time>2022-09-22T14:10:40Z</time>
      </trkpt>
      <trkpt lat="44.14431" lon="5.88718">
        <ele>635</ele>
        <time>2022-09-22T14:10:41Z</time>
      </trkpt>
      <trkpt lat="44.14431" lon="5.88717">
        <ele>635</ele>
        <time>2022-09-22T14:10:42Z</time>
      </trkpt>
      <trkpt lat="44.14432" lon="5.88716">
        <ele>635</ele>
        <time>2022-09-22T14:10:43Z</time>
      </trkpt>
      <trkpt lat="44.14432" lon="5.88715">
        <ele>635</ele>
        <time>2022-09-22T14:10:44Z</time>
      </trkpt>
      <trkpt lat="44.14433" lon="5.88714">
        <ele>634</ele>
        <time>2022-09-22T14:10:45Z</time>
      </trkpt>
      <trkpt lat="44.14434" lon="5.88714">
        <ele>634</ele>
        <time>2022-09-22T14:10:46Z</time>
      </trkpt>
      <trkpt lat="44.14434" lon="5.88713">
        <ele>634</ele>
        <time>2022-09-22T14:10:47Z</time>
      </trkpt>
      <trkpt lat="44.14435" lon="5.88712">
        <ele>634</ele>
        <time>2022-09-22T14:10:48Z</time>
      </trkpt>
      <trkpt lat="44.14436" lon="5.88712">
        <ele>634</ele>
        <time>2022-09-22T14:10:49Z</time>
      </trkpt>
      <trkpt lat="44.14436" lon="5.88711">
        <ele>634</ele>
        <time>2022-09-22T14:10:50Z</time>
      </trkpt>
      <trkpt lat="44.14437" lon="5.8871">
        <ele>634</ele>
        <time>2022-09-22T14:10:51Z</time>
      </trkpt>
      <trkpt lat="44.14437" lon="5.8871">
        <ele>634</ele>
        <time>2022-09-22T14:10:52Z</time>
      </trkpt>
      <trkpt lat="44.14438" lon="5.88709">
        <ele>634</ele>
        <time>2022-09-22T14:10:53Z</time>
      </trkpt>
      <trkpt lat="44.14438" lon="5.88708">
        <ele>634</ele>
        <time>2022-09-22T14:10:54Z</time>
      </trkpt>
      <trkpt lat="44.14439" lon="5.88707">
        <ele>633</ele>
        <time>2022-09-22T14:10:55Z</time>
      </trkpt>
      <trkpt lat="44.14439" lon="5.88706">
        <ele>633</ele>
        <time>2022-09-22T14:10:56Z</time>
      </trkpt>
      <trkpt lat="44.14439" lon="5.88705">
        <ele>633</ele>
        <time>2022-09-22T14:10:57Z</time>
      </trkpt>
      <trkpt lat="44.14439" lon="5.88704">
        <ele>633</ele>
        <time>2022-09-22T14:10:58Z</time>
      </trkpt>
      <trkpt lat="44.14439" lon="5.88702">
        <ele>633</ele>
        <time>2022-09-22T14:10:59Z</time>
      </trkpt>
      <trkpt lat="44.14439" lon="5.88701">
        <ele>633</ele>
        <time>2022-09-22T14:11:00Z</time>
      </trkpt>
      <trkpt lat="44.14439" lon="5.887">
        <ele>633</ele>
        <time>2022-09-22T14:11:01Z</time>
      </trkpt>
      <trkpt lat="44.1444" lon="5.88699">
        <ele>633</ele>
        <time>2022-09-22T14:11:02Z</time>
      </trkpt>
      <trkpt lat="44.1444" lon="5.88698">
        <ele>633</ele>
        <time>2022-09-22T14:11:03Z</time>
      </trkpt>
      <trkpt lat="44.1444" lon="5.88697">
        <ele>633</ele>
        <time>2022-09-22T14:11:04Z</time>
      </trkpt>
      <trkpt lat="44.1444" lon="5.88696">
        <ele>633</ele>
        <time>2022-09-22T14:11:05Z</time>
      </trkpt>
      <trkpt lat="44.1444" lon="5.88695">
        <ele>633</ele>
        <time>2022-09-22T14:11:06Z</time>
      </trkpt>
      <trkpt lat="44.1444" lon="5.88695">
        <ele>633</ele>
        <time>2022-09-22T14:11:07Z</time>
      </trkpt>
      <trkpt lat="44.1444" lon="5.88695">
        <ele>633</ele>
        <time>2022-09-22T14:11:08Z</time>
      </trkpt>
      <trkpt lat="44.1444" lon="5.88695">
        <ele>633</ele>
        <time>2022-09-22T14:11:09Z</time>
      </trkpt>
      <trkpt lat="44.14441" lon="5.88695">
        <ele>632</ele>
        <time>2022-09-22T14:11:10Z</time>
      </trkpt>
      <trkpt lat="44.14441" lon="5.88694">
        <ele>632</ele>
        <time>2022-09-22T14:11:11Z</time>
      </trkpt>
      <trkpt lat="44.14441" lon="5.88694">
        <ele>632</ele>
        <time>2022-09-22T14:11:12Z</time>
      </trkpt>
      <trkpt lat="44.14442" lon="5.88693">
        <ele>632</ele>
        <time>2022-09-22T14:11:13Z</time>
      </trkpt>
      <trkpt lat="44.14442" lon="5.88692">
        <ele>632</ele>
        <time>2022-09-22T14:11:14Z</time>
      </trkpt>
      <trkpt lat="44.14443" lon="5.88692">
        <ele>632</ele>
        <time>2022-09-22T14:11:15Z</time>
      </trkpt>
      <trkpt lat="44.14443" lon="5.88691">
        <ele>632</ele>
        <time>2022-09-22T14:11:16Z</time>
      </trkpt>
      <trkpt lat="44.14444" lon="5.8869">
        <ele>632</ele>
        <time>2022-09-22T14:11:17Z</time>
      </trkpt>
      <trkpt lat="44.14444" lon="5.88689">
        <ele>632</ele>
        <time>2022-09-22T14:11:18Z</time>
      </trkpt>
      <trkpt lat="44.14445" lon="5.88688">
        <ele>632</ele>
        <time>2022-09-22T14:11:19Z</time>
      </trkpt>
      <trkpt lat="44.14446" lon="5.88688">
        <ele>632</ele>
        <time>2022-09-22T14:11:20Z</time>
      </trkpt>
      <trkpt lat="44.14446" lon="5.88687">
        <ele>632</ele>
        <time>2022-09-22T14:11:21Z</time>
      </trkpt>
      <trkpt lat="44.14447" lon="5.88686">
        <ele>632</ele>
        <time>2022-09-22T14:11:22Z</time>
      </trkpt>
      <trkpt lat="44.14447" lon="5.88685">
        <ele>632</ele>
        <time>2022-09-22T14:11:23Z</time>
      </trkpt>
      <trkpt lat="44.14448" lon="5.88684">
        <ele>632</ele>
        <time>2022-09-22T14:11:24Z</time>
      </trkpt>
      <trkpt lat="44.14448" lon="5.88684">
        <ele>631</ele>
        <time>2022-09-22T14:11:25Z</time>
      </trkpt>
      <trkpt lat="44.14449" lon="5.88683">
        <ele>631</ele>
        <time>2022-09-22T14:11:26Z</time>
      </trkpt>
      <trkpt lat="44.14449" lon="5.88682">
        <ele>631</ele>
        <time>2022-09-22T14:11:27Z</time>
      </trkpt>
      <trkpt lat="44.14449" lon="5.88682">
        <ele>631</ele>
        <time>2022-09-22T14:11:28Z</time>
      </trkpt>
      <trkpt lat="44.14449" lon="5.88681">
        <ele>631</ele>
        <time>2022-09-22T14:11:29Z</time>
      </trkpt>
      <trkpt lat="44.14449" lon="5.8868">
        <ele>631</ele>
        <time>2022-09-22T14:11:30Z</time>
      </trkpt>
      <trkpt lat="44.14449" lon="5.88679">
        <ele>631</ele>
        <time>2022-09-22T14:11:31Z</time>
      </trkpt>
      <trkpt lat="44.14449" lon="5.88678">
        <ele>631</ele>
        <time>2022-09-22T14:11:32Z</time>
      </trkpt>
      <trkpt lat="44.1445" lon="5.88677">
        <ele>631</ele>
        <time>2022-09-22T14:11:33Z</time>
      </trkpt>
      <trkpt lat="44.1445" lon="5.88676">
        <ele>631</ele>
        <time>2022-09-22T14:11:34Z</time>
      </trkpt>
      <trkpt lat="44.1445" lon="5.88675">
        <ele>631</ele>
        <time>2022-09-22T14:11:35Z</time>
      </trkpt>
      <trkpt lat="44.1445" lon="5.88674">
        <ele>631</ele>
        <time>2022-09-22T14:11:36Z</time>
      </trkpt>
      <trkpt lat="44.14451" lon="5.88674">
        <ele>631</ele>
        <time>2022-09-22T14:11:37Z</time>
      </trkpt>
      <trkpt lat="44.14451" lon="5.88673">
        <ele>631</ele>
        <time>2022-09-22T14:11:38Z</time>
      </trkpt>
      <trkpt lat="44.14451" lon="5.88672">
        <ele>631</ele>
        <time>2022-09-22T14:11:39Z</time>
      </trkpt>
      <trkpt lat="44.14452" lon="5.88672">
        <ele>630</ele>
        <time>2022-09-22T14:11:40Z</time>
      </trkpt>
      <trkpt lat="44.14453" lon="5.88671">
        <ele>630</ele>
        <time>2022-09-22T14:11:41Z</time>
      </trkpt>
      <trkpt lat="44.14453" lon="5.8867">
        <ele>630</ele>
        <time>2022-09-22T14:11:42Z</time>
      </trkpt>
      <trkpt lat="44.14454" lon="5.88669">
        <ele>630</ele>
        <time>2022-09-22T14:11:43Z</time>
      </trkpt>
      <trkpt lat="44.14454" lon="5.88669">
        <ele>630</ele>
        <time>2022-09-22T14:11:44Z</time>
      </trkpt>
      <trkpt lat="44.14454" lon="5.88669">
        <ele>629</ele>
        <time>2022-09-22T14:11:45Z</time>
      </trkpt>
      <trkpt lat="44.14455" lon="5.88668">
        <ele>629</ele>
        <time>2022-09-22T14:11:46Z</time>
      </trkpt>
      <trkpt lat="44.14455" lon="5.88667">
        <ele>629</ele>
        <time>2022-09-22T14:11:47Z</time>
      </trkpt>
      <trkpt lat="44.14456" lon="5.88667">
        <ele>629</ele>
        <time>2022-09-22T14:11:48Z</time>
      </trkpt>
      <trkpt lat="44.14456" lon="5.88666">
        <ele>629</ele>
        <time>2022-09-22T14:11:49Z</time>
      </trkpt>
      <trkpt lat="44.14457" lon="5.88666">
        <ele>629</ele>
        <time>2022-09-22T14:11:50Z</time>
      </trkpt>
      <trkpt lat="44.14457" lon="5.88665">
        <ele>629</ele>
        <time>2022-09-22T14:11:51Z</time>
      </trkpt>
      <trkpt lat="44.14457" lon="5.88665">
        <ele>629</ele>
        <time>2022-09-22T14:11:52Z</time>
      </trkpt>
      <trkpt lat="44.14458" lon="5.88664">
        <ele>629</ele>
        <time>2022-09-22T14:11:53Z</time>
      </trkpt>
      <trkpt lat="44.14458" lon="5.88663">
        <ele>629</ele>
        <time>2022-09-22T14:11:54Z</time>
      </trkpt>
      <trkpt lat="44.14459" lon="5.88662">
        <ele>628</ele>
        <time>2022-09-22T14:11:55Z</time>
      </trkpt>
      <trkpt lat="44.14459" lon="5.88662">
        <ele>628</ele>
        <time>2022-09-22T14:11:56Z</time>
      </trkpt>
      <trkpt lat="44.1446" lon="5.88661">
        <ele>627</ele>
        <time>2022-09-22T14:11:57Z</time>
      </trkpt>
      <trkpt lat="44.1446" lon="5.88659">
        <ele>627</ele>
        <time>2022-09-22T14:12:04Z</time>
      </trkpt>
      <trkpt lat="44.1446" lon="5.88658">
        <ele>626</ele>
        <time>2022-09-22T14:12:05Z</time>
      </trkpt>
      <trkpt lat="44.14461" lon="5.88657">
        <ele>626</ele>
        <time>2022-09-22T14:12:06Z</time>
      </trkpt>
      <trkpt lat="44.14461" lon="5.88656">
        <ele>626</ele>
        <time>2022-09-22T14:12:07Z</time>
      </trkpt>
      <trkpt lat="44.14462" lon="5.88655">
        <ele>626</ele>
        <time>2022-09-22T14:12:08Z</time>
      </trkpt>
      <trkpt lat="44.14462" lon="5.88654">
        <ele>626</ele>
        <time>2022-09-22T14:12:09Z</time>
      </trkpt>
      <trkpt lat="44.14463" lon="5.88654">
        <ele>626</ele>
        <time>2022-09-22T14:12:10Z</time>
      </trkpt>
      <trkpt lat="44.14464" lon="5.88653">
        <ele>626</ele>
        <time>2022-09-22T14:12:11Z</time>
      </trkpt>
      <trkpt lat="44.14464" lon="5.88653">
        <ele>626</ele>
        <time>2022-09-22T14:12:12Z</time>
      </trkpt>
      <trkpt lat="44.14465" lon="5.88652">
        <ele>626</ele>
        <time>2022-09-22T14:12:13Z</time>
      </trkpt>
      <trkpt lat="44.14466" lon="5.88652">
        <ele>626</ele>
        <time>2022-09-22T14:12:14Z</time>
      </trkpt>
      <trkpt lat="44.14467" lon="5.88652">
        <ele>625</ele>
        <time>2022-09-22T14:12:15Z</time>
      </trkpt>
      <trkpt lat="44.14467" lon="5.88652">
        <ele>625</ele>
        <time>2022-09-22T14:12:16Z</time>
      </trkpt>
      <trkpt lat="44.14468" lon="5.88652">
        <ele>625</ele>
        <time>2022-09-22T14:12:17Z</time>
      </trkpt>
      <trkpt lat="44.14469" lon="5.88652">
        <ele>625</ele>
        <time>2022-09-22T14:12:18Z</time>
      </trkpt>
      <trkpt lat="44.14469" lon="5.88652">
        <ele>625</ele>
        <time>2022-09-22T14:12:19Z</time>
      </trkpt>
      <trkpt lat="44.1447" lon="5.88653">
        <ele>625</ele>
        <time>2022-09-22T14:12:20Z</time>
      </trkpt>
      <trkpt lat="44.14472" lon="5.88653">
        <ele>625</ele>
        <time>2022-09-22T14:12:38Z</time>
      </trkpt>
      <trkpt lat="44.14473" lon="5.88653">
        <ele>625</ele>
        <time>2022-09-22T14:12:39Z</time>
      </trkpt>
      <trkpt lat="44.14474" lon="5.88653">
        <ele>625</ele>
        <time>2022-09-22T14:12:40Z</time>
      </trkpt>
      <trkpt lat="44.14475" lon="5.88654">
        <ele>625</ele>
        <time>2022-09-22T14:12:41Z</time>
      </trkpt>
      <trkpt lat="44.14476" lon="5.88654">
        <ele>625</ele>
        <time>2022-09-22T14:12:42Z</time>
      </trkpt>
      <trkpt lat="44.14477" lon="5.88655">
        <ele>625</ele>
        <time>2022-09-22T14:12:43Z</time>
      </trkpt>
      <trkpt lat="44.14478" lon="5.88655">
        <ele>625</ele>
        <time>2022-09-22T14:12:44Z</time>
      </trkpt>
      <trkpt lat="44.14478" lon="5.88656">
        <ele>624</ele>
        <time>2022-09-22T14:12:45Z</time>
      </trkpt>
      <trkpt lat="44.14479" lon="5.88657">
        <ele>624</ele>
        <time>2022-09-22T14:12:46Z</time>
      </trkpt>
      <trkpt lat="44.1448" lon="5.88658">
        <ele>624</ele>
        <time>2022-09-22T14:12:47Z</time>
      </trkpt>
      <trkpt lat="44.1448" lon="5.88659">
        <ele>624</ele>
        <time>2022-09-22T14:12:48Z</time>
      </trkpt>
      <trkpt lat="44.14481" lon="5.88659">
        <ele>624</ele>
        <time>2022-09-22T14:12:49Z</time>
      </trkpt>
      <trkpt lat="44.14482" lon="5.8866">
        <ele>624</ele>
        <time>2022-09-22T14:12:50Z</time>
      </trkpt>
      <trkpt lat="44.14482" lon="5.88661">
        <ele>624</ele>
        <time>2022-09-22T14:12:51Z</time>
      </trkpt>
      <trkpt lat="44.14483" lon="5.88661">
        <ele>624</ele>
        <time>2022-09-22T14:12:52Z</time>
      </trkpt>
      <trkpt lat="44.14484" lon="5.88662">
        <ele>624</ele>
        <time>2022-09-22T14:12:53Z</time>
      </trkpt>
      <trkpt lat="44.14484" lon="5.88663">
        <ele>624</ele>
        <time>2022-09-22T14:12:54Z</time>
      </trkpt>
      <trkpt lat="44.14485" lon="5.88663">
        <ele>624</ele>
        <time>2022-09-22T14:12:55Z</time>
      </trkpt>
      <trkpt lat="44.14486" lon="5.88664">
        <ele>624</ele>
        <time>2022-09-22T14:12:56Z</time>
      </trkpt>
      <trkpt lat="44.14486" lon="5.88664">
        <ele>624</ele>
        <time>2022-09-22T14:12:57Z</time>
      </trkpt>
      <trkpt lat="44.14487" lon="5.88665">
        <ele>624</ele>
        <time>2022-09-22T14:12:58Z</time>
      </trkpt>
      <trkpt lat="44.14487" lon="5.88666">
        <ele>624</ele>
        <time>2022-09-22T14:12:59Z</time>
      </trkpt>
      <trkpt lat="44.14488" lon="5.88666">
        <ele>624</ele>
        <time>2022-09-22T14:13:00Z</time>
      </trkpt>
      <trkpt lat="44.14489" lon="5.88667">
        <ele>624</ele>
        <time>2022-09-22T14:13:01Z</time>
      </trkpt>
      <trkpt lat="44.14489" lon="5.88668">
        <ele>624</ele>
        <time>2022-09-22T14:13:02Z</time>
      </trkpt>
      <trkpt lat="44.1449" lon="5.88668">
        <ele>624</ele>
        <time>2022-09-22T14:13:03Z</time>
      </trkpt>
      <trkpt lat="44.14491" lon="5.88669">
        <ele>624</ele>
        <time>2022-09-22T14:13:04Z</time>
      </trkpt>
      <trkpt lat="44.14492" lon="5.8867">
        <ele>623</ele>
        <time>2022-09-22T14:13:05Z</time>
      </trkpt>
      <trkpt lat="44.14492" lon="5.88671">
        <ele>623</ele>
        <time>2022-09-22T14:13:06Z</time>
      </trkpt>
      <trkpt lat="44.14493" lon="5.88672">
        <ele>623</ele>
        <time>2022-09-22T14:13:07Z</time>
      </trkpt>
      <trkpt lat="44.14494" lon="5.88672">
        <ele>623</ele>
        <time>2022-09-22T14:13:08Z</time>
      </trkpt>
      <trkpt lat="44.14494" lon="5.88673">
        <ele>623</ele>
        <time>2022-09-22T14:13:09Z</time>
      </trkpt>
      <trkpt lat="44.14495" lon="5.88674">
        <ele>623</ele>
        <time>2022-09-22T14:13:10Z</time>
      </trkpt>
      <trkpt lat="44.14496" lon="5.88675">
        <ele>623</ele>
        <time>2022-09-22T14:13:11Z</time>
      </trkpt>
      <trkpt lat="44.14497" lon="5.88676">
        <ele>623</ele>
        <time>2022-09-22T14:13:12Z</time>
      </trkpt>
      <trkpt lat="44.14497" lon="5.88676">
        <ele>623</ele>
        <time>2022-09-22T14:13:13Z</time>
      </trkpt>
      <trkpt lat="44.14498" lon="5.88677">
        <ele>623</ele>
        <time>2022-09-22T14:13:14Z</time>
      </trkpt>
      <trkpt lat="44.14499" lon="5.88677">
        <ele>622</ele>
        <time>2022-09-22T14:13:15Z</time>
      </trkpt>
      <trkpt lat="44.145" lon="5.88678">
        <ele>622</ele>
        <time>2022-09-22T14:13:16Z</time>
      </trkpt>
      <trkpt lat="44.145" lon="5.88678">
        <ele>622</ele>
        <time>2022-09-22T14:13:17Z</time>
      </trkpt>
      <trkpt lat="44.14501" lon="5.88679">
        <ele>622</ele>
        <time>2022-09-22T14:13:18Z</time>
      </trkpt>
      <trkpt lat="44.14501" lon="5.88679">
        <ele>622</ele>
        <time>2022-09-22T14:13:19Z</time>
      </trkpt>
      <trkpt lat="44.14501" lon="5.88679">
        <ele>622</ele>
        <time>2022-09-22T14:13:20Z</time>
      </trkpt>
      <trkpt lat="44.14502" lon="5.88679">
        <ele>622</ele>
        <time>2022-09-22T14:13:21Z</time>
      </trkpt>
      <trkpt lat="44.14503" lon="5.8868">
        <ele>622</ele>
        <time>2022-09-22T14:13:22Z</time>
      </trkpt>
      <trkpt lat="44.14503" lon="5.8868">
        <ele>622</ele>
        <time>2022-09-22T14:13:23Z</time>
      </trkpt>
      <trkpt lat="44.14504" lon="5.8868">
        <ele>622</ele>
        <time>2022-09-22T14:13:24Z</time>
      </trkpt>
      <trkpt lat="44.14504" lon="5.8868">
        <ele>622</ele>
        <time>2022-09-22T14:13:25Z</time>
      </trkpt>
      <trkpt lat="44.14505" lon="5.8868">
        <ele>622</ele>
        <time>2022-09-22T14:13:26Z</time>
      </trkpt>
      <trkpt lat="44.14505" lon="5.88681">
        <ele>622</ele>
        <time>2022-09-22T14:13:27Z</time>
      </trkpt>
      <trkpt lat="44.14506" lon="5.88681">
        <ele>622</ele>
        <time>2022-09-22T14:13:28Z</time>
      </trkpt>
      <trkpt lat="44.14506" lon="5.88682">
        <ele>622</ele>
        <time>2022-09-22T14:13:29Z</time>
      </trkpt>
      <trkpt lat="44.14507" lon="5.88682">
        <ele>621</ele>
        <time>2022-09-22T14:13:30Z</time>
      </trkpt>
      <trkpt lat="44.14507" lon="5.88683">
        <ele>621</ele>
        <time>2022-09-22T14:13:31Z</time>
      </trkpt>
      <trkpt lat="44.14508" lon="5.88684">
        <ele>621</ele>
        <time>2022-09-22T14:13:32Z</time>
      </trkpt>
      <trkpt lat="44.14508" lon="5.88685">
        <ele>621</ele>
        <time>2022-09-22T14:13:33Z</time>
      </trkpt>
      <trkpt lat="44.14508" lon="5.88686">
        <ele>621</ele>
        <time>2022-09-22T14:13:34Z</time>
      </trkpt>
      <trkpt lat="44.14509" lon="5.88686">
        <ele>621</ele>
        <time>2022-09-22T14:13:35Z</time>
      </trkpt>
      <trkpt lat="44.1451" lon="5.88687">
        <ele>621</ele>
        <time>2022-09-22T14:13:36Z</time>
      </trkpt>
      <trkpt lat="44.1451" lon="5.88688">
        <ele>621</ele>
        <time>2022-09-22T14:13:37Z</time>
      </trkpt>
      <trkpt lat="44.14511" lon="5.88689">
        <ele>621</ele>
        <time>2022-09-22T14:13:38Z</time>
      </trkpt>
      <trkpt lat="44.14511" lon="5.8869">
        <ele>621</ele>
        <time>2022-09-22T14:13:39Z</time>
      </trkpt>
      <trkpt lat="44.14512" lon="5.88691">
        <ele>620</ele>
        <time>2022-09-22T14:13:40Z</time>
      </trkpt>
      <trkpt lat="44.14513" lon="5.88691">
        <ele>620</ele>
        <time>2022-09-22T14:13:41Z</time>
      </trkpt>
      <trkpt lat="44.14513" lon="5.88692">
        <ele>620</ele>
        <time>2022-09-22T14:13:42Z</time>
      </trkpt>
      <trkpt lat="44.14514" lon="5.88693">
        <ele>620</ele>
        <time>2022-09-22T14:13:43Z</time>
      </trkpt>
      <trkpt lat="44.14514" lon="5.88693">
        <ele>620</ele>
        <time>2022-09-22T14:13:44Z</time>
      </trkpt>
      <trkpt lat="44.14515" lon="5.88694">
        <ele>620</ele>
        <time>2022-09-22T14:13:45Z</time>
      </trkpt>
      <trkpt lat="44.14516" lon="5.88694">
        <ele>620</ele>
        <time>2022-09-22T14:13:46Z</time>
      </trkpt>
      <trkpt lat="44.14516" lon="5.88695">
        <ele>620</ele>
        <time>2022-09-22T14:13:47Z</time>
      </trkpt>
      <trkpt lat="44.14517" lon="5.88695">
        <ele>620</ele>
        <time>2022-09-22T14:13:48Z</time>
      </trkpt>
      <trkpt lat="44.14518" lon="5.88695">
        <ele>620</ele>
        <time>2022-09-22T14:13:49Z</time>
      </trkpt>
      <trkpt lat="44.14519" lon="5.88696">
        <ele>619</ele>
        <time>2022-09-22T14:13:50Z</time>
      </trkpt>
      <trkpt lat="44.14519" lon="5.88696">
        <ele>619</ele>
        <time>2022-09-22T14:13:51Z</time>
      </trkpt>
      <trkpt lat="44.1452" lon="5.88696">
        <ele>619</ele>
        <time>2022-09-22T14:13:52Z</time>
      </trkpt>
      <trkpt lat="44.1452" lon="5.88696">
        <ele>619</ele>
        <time>2022-09-22T14:13:53Z</time>
      </trkpt>
      <trkpt lat="44.14521" lon="5.88697">
        <ele>619</ele>
        <time>2022-09-22T14:13:54Z</time>
      </trkpt>
      <trkpt lat="44.14522" lon="5.88696">
        <ele>619</ele>
        <time>2022-09-22T14:13:55Z</time>
      </trkpt>
      <trkpt lat="44.14522" lon="5.88696">
        <ele>619</ele>
        <time>2022-09-22T14:13:56Z</time>
      </trkpt>
      <trkpt lat="44.14523" lon="5.88696">
        <ele>619</ele>
        <time>2022-09-22T14:13:57Z</time>
      </trkpt>
      <trkpt lat="44.14523" lon="5.88696">
        <ele>619</ele>
        <time>2022-09-22T14:13:58Z</time>
      </trkpt>
      <trkpt lat="44.14524" lon="5.88696">
        <ele>619</ele>
        <time>2022-09-22T14:13:59Z</time>
      </trkpt>
      <trkpt lat="44.14525" lon="5.88695">
        <ele>618</ele>
        <time>2022-09-22T14:14:00Z</time>
      </trkpt>
      <trkpt lat="44.14526" lon="5.88695">
        <ele>618</ele>
        <time>2022-09-22T14:14:01Z</time>
      </trkpt>
      <trkpt lat="44.14526" lon="5.88694">
        <ele>618</ele>
        <time>2022-09-22T14:14:02Z</time>
      </trkpt>
      <trkpt lat="44.14527" lon="5.88694">
        <ele>618</ele>
        <time>2022-09-22T14:14:03Z</time>
      </trkpt>
      <trkpt lat="44.14528" lon="5.88693">
        <ele>618</ele>
        <time>2022-09-22T14:14:04Z</time>
      </trkpt>
      <trkpt lat="44.14529" lon="5.88693">
        <ele>617</ele>
        <time>2022-09-22T14:14:05Z</time>
      </trkpt>
      <trkpt lat="44.14529" lon="5.88692">
        <ele>617</ele>
        <time>2022-09-22T14:14:06Z</time>
      </trkpt>
      <trkpt lat="44.1453" lon="5.88692">
        <ele>617</ele>
        <time>2022-09-22T14:14:07Z</time>
      </trkpt>
      <trkpt lat="44.14531" lon="5.88691">
        <ele>617</ele>
        <time>2022-09-22T14:14:08Z</time>
      </trkpt>
      <trkpt lat="44.14532" lon="5.88691">
        <ele>617</ele>
        <time>2022-09-22T14:14:09Z</time>
      </trkpt>
      <trkpt lat="44.14533" lon="5.8869">
        <ele>617</ele>
        <time>2022-09-22T14:14:10Z</time>
      </trkpt>
      <trkpt lat="44.14533" lon="5.8869">
        <ele>617</ele>
        <time>2022-09-22T14:14:11Z</time>
      </trkpt>
      <trkpt lat="44.14534" lon="5.88689">
        <ele>617</ele>
        <time>2022-09-22T14:14:12Z</time>
      </trkpt>
      <trkpt lat="44.14535" lon="5.88689">
        <ele>617</ele>
        <time>2022-09-22T14:14:13Z</time>
      </trkpt>
      <trkpt lat="44.14536" lon="5.88689">
        <ele>617</ele>
        <time>2022-09-22T14:14:14Z</time>
      </trkpt>
      <trkpt lat="44.14537" lon="5.88689">
        <ele>616</ele>
        <time>2022-09-22T14:14:15Z</time>
      </trkpt>
      <trkpt lat="44.14538" lon="5.88689">
        <ele>616</ele>
        <time>2022-09-22T14:14:16Z</time>
      </trkpt>
      <trkpt lat="44.14539" lon="5.8869">
        <ele>616</ele>
        <time>2022-09-22T14:14:17Z</time>
      </trkpt>
      <trkpt lat="44.14539" lon="5.8869">
        <ele>616</ele>
        <time>2022-09-22T14:14:18Z</time>
      </trkpt>
      <trkpt lat="44.1454" lon="5.8869">
        <ele>616</ele>
        <time>2022-09-22T14:14:19Z</time>
      </trkpt>
      <trkpt lat="44.14541" lon="5.8869">
        <ele>616</ele>
        <time>2022-09-22T14:14:20Z</time>
      </trkpt>
      <trkpt lat="44.14541" lon="5.88691">
        <ele>616</ele>
        <time>2022-09-22T14:14:21Z</time>
      </trkpt>
      <trkpt lat="44.14542" lon="5.88691">
        <ele>616</ele>
        <time>2022-09-22T14:14:22Z</time>
      </trkpt>
      <trkpt lat="44.14543" lon="5.88691">
        <ele>616</ele>
        <time>2022-09-22T14:14:23Z</time>
      </trkpt>
      <trkpt lat="44.14543" lon="5.8869">
        <ele>616</ele>
        <time>2022-09-22T14:14:24Z</time>
      </trkpt>
      <trkpt lat="44.14544" lon="5.8869">
        <ele>615</ele>
        <time>2022-09-22T14:14:25Z</time>
      </trkpt>
      <trkpt lat="44.14545" lon="5.8869">
        <ele>615</ele>
        <time>2022-09-22T14:14:26Z</time>
      </trkpt>
      <trkpt lat="44.14546" lon="5.88689">
        <ele>615</ele>
        <time>2022-09-22T14:14:27Z</time>
      </trkpt>
      <trkpt lat="44.14546" lon="5.88688">
        <ele>615</ele>
        <time>2022-09-22T14:14:28Z</time>
      </trkpt>
      <trkpt lat="44.14547" lon="5.88687">
        <ele>615</ele>
        <time>2022-09-22T14:14:29Z</time>
      </trkpt>
      <trkpt lat="44.14548" lon="5.88687">
        <ele>615</ele>
        <time>2022-09-22T14:14:30Z</time>
      </trkpt>
      <trkpt lat="44.14549" lon="5.88686">
        <ele>615</ele>
        <time>2022-09-22T14:14:31Z</time>
      </trkpt>
      <trkpt lat="44.14549" lon="5.88685">
        <ele>615</ele>
        <time>2022-09-22T14:14:32Z</time>
      </trkpt>
      <trkpt lat="44.1455" lon="5.88684">
        <ele>615</ele>
        <time>2022-09-22T14:14:33Z</time>
      </trkpt>
      <trkpt lat="44.14551" lon="5.88683">
        <ele>615</ele>
        <time>2022-09-22T14:14:34Z</time>
      </trkpt>
      <trkpt lat="44.14551" lon="5.88682">
        <ele>614</ele>
        <time>2022-09-22T14:14:35Z</time>
      </trkpt>
      <trkpt lat="44.14552" lon="5.88681">
        <ele>614</ele>
        <time>2022-09-22T14:14:36Z</time>
      </trkpt>
      <trkpt lat="44.14553" lon="5.8868">
        <ele>614</ele>
        <time>2022-09-22T14:14:37Z</time>
      </trkpt>
      <trkpt lat="44.14554" lon="5.88679">
        <ele>614</ele>
        <time>2022-09-22T14:14:38Z</time>
      </trkpt>
      <trkpt lat="44.14554" lon="5.88678">
        <ele>614</ele>
        <time>2022-09-22T14:14:39Z</time>
      </trkpt>
      <trkpt lat="44.14555" lon="5.88677">
        <ele>613</ele>
        <time>2022-09-22T14:14:40Z</time>
      </trkpt>
      <trkpt lat="44.14556" lon="5.88676">
        <ele>613</ele>
        <time>2022-09-22T14:14:41Z</time>
      </trkpt>
      <trkpt lat="44.14556" lon="5.88675">
        <ele>613</ele>
        <time>2022-09-22T14:14:42Z</time>
      </trkpt>
      <trkpt lat="44.14557" lon="5.88674">
        <ele>613</ele>
        <time>2022-09-22T14:14:43Z</time>
      </trkpt>
      <trkpt lat="44.14557" lon="5.88674">
        <ele>613</ele>
        <time>2022-09-22T14:14:44Z</time>
      </trkpt>
      <trkpt lat="44.14558" lon="5.88673">
        <ele>612</ele>
        <time>2022-09-22T14:14:45Z</time>
      </trkpt>
      <trkpt lat="44.14558" lon="5.88672">
        <ele>612</ele>
        <time>2022-09-22T14:14:46Z</time>
      </trkpt>
      <trkpt lat="44.14559" lon="5.88671">
        <ele>612</ele>
        <time>2022-09-22T14:14:47Z</time>
      </trkpt>
      <trkpt lat="44.1456" lon="5.88671">
        <ele>612</ele>
        <time>2022-09-22T14:14:48Z</time>
      </trkpt>
      <trkpt lat="44.1456" lon="5.8867">
        <ele>612</ele>
        <time>2022-09-22T14:14:49Z</time>
      </trkpt>
      <trkpt lat="44.14561" lon="5.88669">
        <ele>612</ele>
        <time>2022-09-22T14:14:50Z</time>
      </trkpt>
      <trkpt lat="44.14562" lon="5.88669">
        <ele>612</ele>
        <time>2022-09-22T14:14:51Z</time>
      </trkpt>
      <trkpt lat="44.14563" lon="5.88668">
        <ele>612</ele>
        <time>2022-09-22T14:14:52Z</time>
      </trkpt>
      <trkpt lat="44.14563" lon="5.88668">
        <ele>612</ele>
        <time>2022-09-22T14:14:53Z</time>
      </trkpt>
      <trkpt lat="44.14564" lon="5.88667">
        <ele>612</ele>
        <time>2022-09-22T14:14:54Z</time>
      </trkpt>
      <trkpt lat="44.14565" lon="5.88666">
        <ele>611</ele>
        <time>2022-09-22T14:14:55Z</time>
      </trkpt>
      <trkpt lat="44.14566" lon="5.88666">
        <ele>611</ele>
        <time>2022-09-22T14:14:56Z</time>
      </trkpt>
      <trkpt lat="44.14566" lon="5.88665">
        <ele>611</ele>
        <time>2022-09-22T14:14:57Z</time>
      </trkpt>
      <trkpt lat="44.14567" lon="5.88664">
        <ele>611</ele>
        <time>2022-09-22T14:14:58Z</time>
      </trkpt>
      <trkpt lat="44.14568" lon="5.88664">
        <ele>611</ele>
        <time>2022-09-22T14:14:59Z</time>
      </trkpt>
      <trkpt lat="44.14569" lon="5.88663">
        <ele>610</ele>
        <time>2022-09-22T14:15:00Z</time>
      </trkpt>
      <trkpt lat="44.1457" lon="5.88663">
        <ele>610</ele>
        <time>2022-09-22T14:15:01Z</time>
      </trkpt>
      <trkpt lat="44.1457" lon="5.88662">
        <ele>610</ele>
        <time>2022-09-22T14:15:02Z</time>
      </trkpt>
      <trkpt lat="44.14571" lon="5.88662">
        <ele>610</ele>
        <time>2022-09-22T14:15:03Z</time>
      </trkpt>
      <trkpt lat="44.14572" lon="5.88661">
        <ele>610</ele>
        <time>2022-09-22T14:15:04Z</time>
      </trkpt>
      <trkpt lat="44.14572" lon="5.8866">
        <ele>610</ele>
        <time>2022-09-22T14:15:05Z</time>
      </trkpt>
      <trkpt lat="44.14573" lon="5.88659">
        <ele>610</ele>
        <time>2022-09-22T14:15:06Z</time>
      </trkpt>
      <trkpt lat="44.14574" lon="5.88658">
        <ele>610</ele>
        <time>2022-09-22T14:15:07Z</time>
      </trkpt>
      <trkpt lat="44.14575" lon="5.88657">
        <ele>610</ele>
        <time>2022-09-22T14:15:08Z</time>
      </trkpt>
      <trkpt lat="44.14575" lon="5.88656">
        <ele>610</ele>
        <time>2022-09-22T14:15:09Z</time>
      </trkpt>
      <trkpt lat="44.14576" lon="5.88655">
        <ele>609</ele>
        <time>2022-09-22T14:15:10Z</time>
      </trkpt>
      <trkpt lat="44.14576" lon="5.88653">
        <ele>609</ele>
        <time>2022-09-22T14:15:11Z</time>
      </trkpt>
      <trkpt lat="44.14577" lon="5.88652">
        <ele>609</ele>
        <time>2022-09-22T14:15:12Z</time>
      </trkpt>
      <trkpt lat="44.14578" lon="5.88651">
        <ele>609</ele>
        <time>2022-09-22T14:15:13Z</time>
      </trkpt>
      <trkpt lat="44.14578" lon="5.8865">
        <ele>609</ele>
        <time>2022-09-22T14:15:14Z</time>
      </trkpt>
      <trkpt lat="44.14579" lon="5.88648">
        <ele>609</ele>
        <time>2022-09-22T14:15:15Z</time>
      </trkpt>
      <trkpt lat="44.1458" lon="5.88648">
        <ele>609</ele>
        <time>2022-09-22T14:15:16Z</time>
      </trkpt>
      <trkpt lat="44.14581" lon="5.88647">
        <ele>609</ele>
        <time>2022-09-22T14:15:17Z</time>
      </trkpt>
      <trkpt lat="44.14581" lon="5.88646">
        <ele>609</ele>
        <time>2022-09-22T14:15:18Z</time>
      </trkpt>
      <trkpt lat="44.14582" lon="5.88646">
        <ele>609</ele>
        <time>2022-09-22T14:15:19Z</time>
      </trkpt>
      <trkpt lat="44.14583" lon="5.88645">
        <ele>608</ele>
        <time>2022-09-22T14:15:20Z</time>
      </trkpt>
      <trkpt lat="44.14584" lon="5.88644">
        <ele>608</ele>
        <time>2022-09-22T14:15:21Z</time>
      </trkpt>
      <trkpt lat="44.14585" lon="5.88643">
        <ele>608</ele>
        <time>2022-09-22T14:15:22Z</time>
      </trkpt>
      <trkpt lat="44.14586" lon="5.88643">
        <ele>608</ele>
        <time>2022-09-22T14:15:23Z</time>
      </trkpt>
      <trkpt lat="44.14587" lon="5.88642">
        <ele>608</ele>
        <time>2022-09-22T14:15:24Z</time>
      </trkpt>
      <trkpt lat="44.14587" lon="5.88641">
        <ele>608</ele>
        <time>2022-09-22T14:15:25Z</time>
      </trkpt>
      <trkpt lat="44.14588" lon="5.8864">
        <ele>608</ele>
        <time>2022-09-22T14:15:26Z</time>
      </trkpt>
      <trkpt lat="44.14589" lon="5.88639">
        <ele>608</ele>
        <time>2022-09-22T14:15:27Z</time>
      </trkpt>
      <trkpt lat="44.1459" lon="5.88638">
        <ele>608</ele>
        <time>2022-09-22T14:15:28Z</time>
      </trkpt>
      <trkpt lat="44.14591" lon="5.88637">
        <ele>608</ele>
        <time>2022-09-22T14:15:29Z</time>
      </trkpt>
      <trkpt lat="44.14592" lon="5.88636">
        <ele>607</ele>
        <time>2022-09-22T14:15:30Z</time>
      </trkpt>
      <trkpt lat="44.14592" lon="5.88635">
        <ele>607</ele>
        <time>2022-09-22T14:15:31Z</time>
      </trkpt>
      <trkpt lat="44.14593" lon="5.88635">
        <ele>607</ele>
        <time>2022-09-22T14:15:32Z</time>
      </trkpt>
      <trkpt lat="44.14594" lon="5.88634">
        <ele>607</ele>
        <time>2022-09-22T14:15:33Z</time>
      </trkpt>
      <trkpt lat="44.14594" lon="5.88633">
        <ele>607</ele>
        <time>2022-09-22T14:15:34Z</time>
      </trkpt>
      <trkpt lat="44.14595" lon="5.88633">
        <ele>606</ele>
        <time>2022-09-22T14:15:35Z</time>
      </trkpt>
      <trkpt lat="44.14596" lon="5.88632">
        <ele>606</ele>
        <time>2022-09-22T14:15:36Z</time>
      </trkpt>
      <trkpt lat="44.14596" lon="5.88631">
        <ele>606</ele>
        <time>2022-09-22T14:15:37Z</time>
      </trkpt>
      <trkpt lat="44.14597" lon="5.8863">
        <ele>606</ele>
        <time>2022-09-22T14:15:38Z</time>
      </trkpt>
      <trkpt lat="44.14598" lon="5.8863">
        <ele>606</ele>
        <time>2022-09-22T14:15:39Z</time>
      </trkpt>
      <trkpt lat="44.14599" lon="5.88629">
        <ele>606</ele>
        <time>2022-09-22T14:15:40Z</time>
      </trkpt>
      <trkpt lat="44.14599" lon="5.88628">
        <ele>606</ele>
        <time>2022-09-22T14:15:41Z</time>
      </trkpt>
      <trkpt lat="44.146" lon="5.88627">
        <ele>606</ele>
        <time>2022-09-22T14:15:42Z</time>
      </trkpt>
      <trkpt lat="44.14601" lon="5.88626">
        <ele>606</ele>
        <time>2022-09-22T14:15:43Z</time>
      </trkpt>
      <trkpt lat="44.14601" lon="5.88625">
        <ele>606</ele>
        <time>2022-09-22T14:15:44Z</time>
      </trkpt>
      <trkpt lat="44.14602" lon="5.88625">
        <ele>606</ele>
        <time>2022-09-22T14:15:45Z</time>
      </trkpt>
      <trkpt lat="44.14602" lon="5.88624">
        <ele>606</ele>
        <time>2022-09-22T14:15:46Z</time>
      </trkpt>
      <trkpt lat="44.14603" lon="5.88623">
        <ele>606</ele>
        <time>2022-09-22T14:15:47Z</time>
      </trkpt>
      <trkpt lat="44.14604" lon="5.88623">
        <ele>606</ele>
        <time>2022-09-22T14:15:48Z</time>
      </trkpt>
      <trkpt lat="44.14604" lon="5.88623">
        <ele>606</ele>
        <time>2022-09-22T14:15:49Z</time>
      </trkpt>
      <trkpt lat="44.14605" lon="5.88623">
        <ele>605</ele>
        <time>2022-09-22T14:15:50Z</time>
      </trkpt>
      <trkpt lat="44.14606" lon="5.88622">
        <ele>605</ele>
        <time>2022-09-22T14:15:51Z</time>
      </trkpt>
      <trkpt lat="44.14607" lon="5.88622">
        <ele>605</ele>
        <time>2022-09-22T14:15:52Z</time>
      </trkpt>
      <trkpt lat="44.14607" lon="5.88621">
        <ele>605</ele>
        <time>2022-09-22T14:15:53Z</time>
      </trkpt>
      <trkpt lat="44.14608" lon="5.88621">
        <ele>605</ele>
        <time>2022-09-22T14:15:54Z</time>
      </trkpt>
      <trkpt lat="44.14609" lon="5.8862">
        <ele>605</ele>
        <time>2022-09-22T14:15:55Z</time>
      </trkpt>
      <trkpt lat="44.1461" lon="5.8862">
        <ele>605</ele>
        <time>2022-09-22T14:15:56Z</time>
      </trkpt>
      <trkpt lat="44.14611" lon="5.8862">
        <ele>605</ele>
        <time>2022-09-22T14:15:57Z</time>
      </trkpt>
      <trkpt lat="44.14612" lon="5.88619">
        <ele>605</ele>
        <time>2022-09-22T14:15:58Z</time>
      </trkpt>
      <trkpt lat="44.14613" lon="5.88619">
        <ele>605</ele>
        <time>2022-09-22T14:15:59Z</time>
      </trkpt>
      <trkpt lat="44.14614" lon="5.88618">
        <ele>604</ele>
        <time>2022-09-22T14:16:00Z</time>
      </trkpt>
      <trkpt lat="44.14615" lon="5.88618">
        <ele>604</ele>
        <time>2022-09-22T14:16:01Z</time>
      </trkpt>
      <trkpt lat="44.14616" lon="5.88616">
        <ele>604</ele>
        <time>2022-09-22T14:16:26Z</time>
      </trkpt>
      <trkpt lat="44.14617" lon="5.88616">
        <ele>604</ele>
        <time>2022-09-22T14:16:27Z</time>
      </trkpt>
      <trkpt lat="44.14618" lon="5.88615">
        <ele>604</ele>
        <time>2022-09-22T14:16:28Z</time>
      </trkpt>
      <trkpt lat="44.14619" lon="5.88614">
        <ele>604</ele>
        <time>2022-09-22T14:16:29Z</time>
      </trkpt>
      <trkpt lat="44.14619" lon="5.88614">
        <ele>603</ele>
        <time>2022-09-22T14:16:30Z</time>
      </trkpt>
      <trkpt lat="44.1462" lon="5.88613">
        <ele>603</ele>
        <time>2022-09-22T14:16:31Z</time>
      </trkpt>
      <trkpt lat="44.14621" lon="5.88612">
        <ele>603</ele>
        <time>2022-09-22T14:16:32Z</time>
      </trkpt>
      <trkpt lat="44.14621" lon="5.88611">
        <ele>603</ele>
        <time>2022-09-22T14:16:33Z</time>
      </trkpt>
      <trkpt lat="44.14622" lon="5.8861">
        <ele>603</ele>
        <time>2022-09-22T14:16:34Z</time>
      </trkpt>
      <trkpt lat="44.14622" lon="5.88609">
        <ele>603</ele>
        <time>2022-09-22T14:16:35Z</time>
      </trkpt>
      <trkpt lat="44.14623" lon="5.88608">
        <ele>603</ele>
        <time>2022-09-22T14:16:36Z</time>
      </trkpt>
      <trkpt lat="44.14624" lon="5.88607">
        <ele>603</ele>
        <time>2022-09-22T14:16:37Z</time>
      </trkpt>
      <trkpt lat="44.14625" lon="5.88606">
        <ele>603</ele>
        <time>2022-09-22T14:16:38Z</time>
      </trkpt>
      <trkpt lat="44.14625" lon="5.88605">
        <ele>603</ele>
        <time>2022-09-22T14:16:39Z</time>
      </trkpt>
      <trkpt lat="44.14626" lon="5.88604">
        <ele>603</ele>
        <time>2022-09-22T14:16:40Z</time>
      </trkpt>
      <trkpt lat="44.14626" lon="5.88603">
        <ele>603</ele>
        <time>2022-09-22T14:16:41Z</time>
      </trkpt>
      <trkpt lat="44.14627" lon="5.88601">
        <ele>603</ele>
        <time>2022-09-22T14:16:42Z</time>
      </trkpt>
      <trkpt lat="44.14628" lon="5.886">
        <ele>603</ele>
        <time>2022-09-22T14:16:43Z</time>
      </trkpt>
      <trkpt lat="44.14628" lon="5.88599">
        <ele>603</ele>
        <time>2022-09-22T14:16:44Z</time>
      </trkpt>
      <trkpt lat="44.14629" lon="5.88598">
        <ele>603</ele>
        <time>2022-09-22T14:16:45Z</time>
      </trkpt>
      <trkpt lat="44.1463" lon="5.88597">
        <ele>603</ele>
        <time>2022-09-22T14:16:46Z</time>
      </trkpt>
      <trkpt lat="44.14631" lon="5.88596">
        <ele>603</ele>
        <time>2022-09-22T14:16:47Z</time>
      </trkpt>
      <trkpt lat="44.14632" lon="5.88595">
        <ele>603</ele>
        <time>2022-09-22T14:16:48Z</time>
      </trkpt>
      <trkpt lat="44.14633" lon="5.88594">
        <ele>603</ele>
        <time>2022-09-22T14:16:49Z</time>
      </trkpt>
      <trkpt lat="44.14634" lon="5.88593">
        <ele>602</ele>
        <time>2022-09-22T14:16:50Z</time>
      </trkpt>
      <trkpt lat="44.14634" lon="5.88592">
        <ele>602</ele>
        <time>2022-09-22T14:16:51Z</time>
      </trkpt>
      <trkpt lat="44.14635" lon="5.88591">
        <ele>602</ele>
        <time>2022-09-22T14:16:52Z</time>
      </trkpt>
      <trkpt lat="44.14636" lon="5.8859">
        <ele>602</ele>
        <time>2022-09-22T14:16:53Z</time>
      </trkpt>
      <trkpt lat="44.14637" lon="5.88589">
        <ele>602</ele>
        <time>2022-09-22T14:16:54Z</time>
      </trkpt>
      <trkpt lat="44.14638" lon="5.88588">
        <ele>602</ele>
        <time>2022-09-22T14:16:55Z</time>
      </trkpt>
      <trkpt lat="44.14638" lon="5.88587">
        <ele>602</ele>
        <time>2022-09-22T14:16:56Z</time>
      </trkpt>
      <trkpt lat="44.14639" lon="5.88585">
        <ele>602</ele>
        <time>2022-09-22T14:16:57Z</time>
      </trkpt>
      <trkpt lat="44.1464" lon="5.88584">
        <ele>602</ele>
        <time>2022-09-22T14:16:58Z</time>
      </trkpt>
      <trkpt lat="44.1464" lon="5.88583">
        <ele>602</ele>
        <time>2022-09-22T14:16:59Z</time>
      </trkpt>
      <trkpt lat="44.14641" lon="5.88582">
        <ele>602</ele>
        <time>2022-09-22T14:17:00Z</time>
      </trkpt>
      <trkpt lat="44.14642" lon="5.88581">
        <ele>602</ele>
        <time>2022-09-22T14:17:01Z</time>
      </trkpt>
      <trkpt lat="44.14642" lon="5.8858">
        <ele>602</ele>
        <time>2022-09-22T14:17:02Z</time>
      </trkpt>
      <trkpt lat="44.14643" lon="5.88578">
        <ele>602</ele>
        <time>2022-09-22T14:17:03Z</time>
      </trkpt>
      <trkpt lat="44.14644" lon="5.88577">
        <ele>602</ele>
        <time>2022-09-22T14:17:04Z</time>
      </trkpt>
      <trkpt lat="44.14644" lon="5.88576">
        <ele>601</ele>
        <time>2022-09-22T14:17:05Z</time>
      </trkpt>
      <trkpt lat="44.14645" lon="5.88575">
        <ele>601</ele>
        <time>2022-09-22T14:17:06Z</time>
      </trkpt>
      <trkpt lat="44.14646" lon="5.88574">
        <ele>601</ele>
        <time>2022-09-22T14:17:07Z</time>
      </trkpt>
      <trkpt lat="44.14646" lon="5.88573">
        <ele>601</ele>
        <time>2022-09-22T14:17:08Z</time>
      </trkpt>
      <trkpt lat="44.14647" lon="5.88572">
        <ele>601</ele>
        <time>2022-09-22T14:17:09Z</time>
      </trkpt>
      <trkpt lat="44.14648" lon="5.88571">
        <ele>601</ele>
        <time>2022-09-22T14:17:10Z</time>
      </trkpt>
      <trkpt lat="44.14649" lon="5.88569">
        <ele>601</ele>
        <time>2022-09-22T14:17:11Z</time>
      </trkpt>
      <trkpt lat="44.14649" lon="5.88568">
        <ele>601</ele>
        <time>2022-09-22T14:17:12Z</time>
      </trkpt>
      <trkpt lat="44.1465" lon="5.88567">
        <ele>601</ele>
        <time>2022-09-22T14:17:13Z</time>
      </trkpt>
      <trkpt lat="44.14651" lon="5.88566">
        <ele>601</ele>
        <time>2022-09-22T14:17:14Z</time>
      </trkpt>
      <trkpt lat="44.14651" lon="5.88565">
        <ele>601</ele>
        <time>2022-09-22T14:17:15Z</time>
      </trkpt>
      <trkpt lat="44.14652" lon="5.88564">
        <ele>601</ele>
        <time>2022-09-22T14:17:16Z</time>
      </trkpt>
      <trkpt lat="44.14652" lon="5.88562">
        <ele>601</ele>
        <time>2022-09-22T14:17:17Z</time>
      </trkpt>
      <trkpt lat="44.14653" lon="5.88561">
        <ele>601</ele>
        <time>2022-09-22T14:17:18Z</time>
      </trkpt>
      <trkpt lat="44.14654" lon="5.88559">
        <ele>601</ele>
        <time>2022-09-22T14:17:19Z</time>
      </trkpt>
      <trkpt lat="44.14654" lon="5.88558">
        <ele>601</ele>
        <time>2022-09-22T14:17:20Z</time>
      </trkpt>
      <trkpt lat="44.14655" lon="5.88556">
        <ele>601</ele>
        <time>2022-09-22T14:17:21Z</time>
      </trkpt>
      <trkpt lat="44.14656" lon="5.88555">
        <ele>601</ele>
        <time>2022-09-22T14:17:22Z</time>
      </trkpt>
      <trkpt lat="44.14656" lon="5.88554">
        <ele>601</ele>
        <time>2022-09-22T14:17:23Z</time>
      </trkpt>
      <trkpt lat="44.14657" lon="5.88552">
        <ele>601</ele>
        <time>2022-09-22T14:17:24Z</time>
      </trkpt>
      <trkpt lat="44.14658" lon="5.88551">
        <ele>601</ele>
        <time>2022-09-22T14:17:25Z</time>
      </trkpt>
      <trkpt lat="44.14659" lon="5.8855">
        <ele>601</ele>
        <time>2022-09-22T14:17:26Z</time>
      </trkpt>
      <trkpt lat="44.14659" lon="5.88548">
        <ele>601</ele>
        <time>2022-09-22T14:17:27Z</time>
      </trkpt>
      <trkpt lat="44.1466" lon="5.88547">
        <ele>601</ele>
        <time>2022-09-22T14:17:28Z</time>
      </trkpt>
      <trkpt lat="44.1466" lon="5.88546">
        <ele>601</ele>
        <time>2022-09-22T14:17:29Z</time>
      </trkpt>
      <trkpt lat="44.14661" lon="5.88545">
        <ele>601</ele>
        <time>2022-09-22T14:17:30Z</time>
      </trkpt>
      <trkpt lat="44.14661" lon="5.88543">
        <ele>601</ele>
        <time>2022-09-22T14:17:31Z</time>
      </trkpt>
      <trkpt lat="44.14661" lon="5.88542">
        <ele>601</ele>
        <time>2022-09-22T14:17:32Z</time>
      </trkpt>
      <trkpt lat="44.14662" lon="5.88541">
        <ele>601</ele>
        <time>2022-09-22T14:17:33Z</time>
      </trkpt>
      <trkpt lat="44.14662" lon="5.8854">
        <ele>601</ele>
        <time>2022-09-22T14:17:34Z</time>
      </trkpt>
      <trkpt lat="44.14663" lon="5.88538">
        <ele>600</ele>
        <time>2022-09-22T14:17:35Z</time>
      </trkpt>
      <trkpt lat="44.14663" lon="5.88537">
        <ele>600</ele>
        <time>2022-09-22T14:17:36Z</time>
      </trkpt>
      <trkpt lat="44.14664" lon="5.88536">
        <ele>600</ele>
        <time>2022-09-22T14:17:37Z</time>
      </trkpt>
      <trkpt lat="44.14664" lon="5.88534">
        <ele>600</ele>
        <time>2022-09-22T14:17:38Z</time>
      </trkpt>
      <trkpt lat="44.14665" lon="5.88533">
        <ele>600</ele>
        <time>2022-09-22T14:17:39Z</time>
      </trkpt>
      <trkpt lat="44.14665" lon="5.88532">
        <ele>600</ele>
        <time>2022-09-22T14:17:40Z</time>
      </trkpt>
      <trkpt lat="44.14666" lon="5.8853">
        <ele>600</ele>
        <time>2022-09-22T14:17:41Z</time>
      </trkpt>
      <trkpt lat="44.14666" lon="5.88529">
        <ele>600</ele>
        <time>2022-09-22T14:17:42Z</time>
      </trkpt>
      <trkpt lat="44.14666" lon="5.88528">
        <ele>600</ele>
        <time>2022-09-22T14:17:43Z</time>
      </trkpt>
      <trkpt lat="44.14667" lon="5.88526">
        <ele>601</ele>
        <time>2022-09-22T14:17:44Z</time>
      </trkpt>
      <trkpt lat="44.14667" lon="5.88525">
        <ele>601</ele>
        <time>2022-09-22T14:17:45Z</time>
      </trkpt>
      <trkpt lat="44.14668" lon="5.88524">
        <ele>601</ele>
        <time>2022-09-22T14:17:46Z</time>
      </trkpt>
      <trkpt lat="44.14668" lon="5.88523">
        <ele>601</ele>
        <time>2022-09-22T14:17:47Z</time>
      </trkpt>
      <trkpt lat="44.14669" lon="5.88522">
        <ele>601</ele>
        <time>2022-09-22T14:17:48Z</time>
      </trkpt>
      <trkpt lat="44.14669" lon="5.8852">
        <ele>601</ele>
        <time>2022-09-22T14:17:49Z</time>
      </trkpt>
      <trkpt lat="44.14669" lon="5.88519">
        <ele>601</ele>
        <time>2022-09-22T14:17:50Z</time>
      </trkpt>
      <trkpt lat="44.1467" lon="5.88517">
        <ele>601</ele>
        <time>2022-09-22T14:17:51Z</time>
      </trkpt>
      <trkpt lat="44.1467" lon="5.88516">
        <ele>601</ele>
        <time>2022-09-22T14:17:52Z</time>
      </trkpt>
      <trkpt lat="44.1467" lon="5.88514">
        <ele>601</ele>
        <time>2022-09-22T14:17:53Z</time>
      </trkpt>
      <trkpt lat="44.14671" lon="5.88513">
        <ele>601</ele>
        <time>2022-09-22T14:17:54Z</time>
      </trkpt>
      <trkpt lat="44.14671" lon="5.88511">
        <ele>601</ele>
        <time>2022-09-22T14:17:55Z</time>
      </trkpt>
      <trkpt lat="44.14672" lon="5.8851">
        <ele>601</ele>
        <time>2022-09-22T14:17:56Z</time>
      </trkpt>
      <trkpt lat="44.14672" lon="5.88508">
        <ele>601</ele>
        <time>2022-09-22T14:17:57Z</time>
      </trkpt>
      <trkpt lat="44.14672" lon="5.88507">
        <ele>601</ele>
        <time>2022-09-22T14:17:58Z</time>
      </trkpt>
      <trkpt lat="44.14673" lon="5.88505">
        <ele>601</ele>
        <time>2022-09-22T14:17:59Z</time>
      </trkpt>
      <trkpt lat="44.14673" lon="5.88504">
        <ele>601</ele>
        <time>2022-09-22T14:18:00Z</time>
      </trkpt>
      <trkpt lat="44.14673" lon="5.88502">
        <ele>601</ele>
        <time>2022-09-22T14:18:01Z</time>
      </trkpt>
      <trkpt lat="44.14673" lon="5.88501">
        <ele>601</ele>
        <time>2022-09-22T14:18:02Z</time>
      </trkpt>
      <trkpt lat="44.14674" lon="5.88499">
        <ele>601</ele>
        <time>2022-09-22T14:18:03Z</time>
      </trkpt>
      <trkpt lat="44.14674" lon="5.88498">
        <ele>601</ele>
        <time>2022-09-22T14:18:04Z</time>
      </trkpt>
      <trkpt lat="44.14674" lon="5.88496">
        <ele>600</ele>
        <time>2022-09-22T14:18:05Z</time>
      </trkpt>
      <trkpt lat="44.14674" lon="5.88495">
        <ele>600</ele>
        <time>2022-09-22T14:18:06Z</time>
      </trkpt>
      <trkpt lat="44.14675" lon="5.88493">
        <ele>600</ele>
        <time>2022-09-22T14:18:07Z</time>
      </trkpt>
      <trkpt lat="44.14675" lon="5.88492">
        <ele>600</ele>
        <time>2022-09-22T14:18:08Z</time>
      </trkpt>
      <trkpt lat="44.14675" lon="5.8849">
        <ele>600</ele>
        <time>2022-09-22T14:18:09Z</time>
      </trkpt>
      <trkpt lat="44.14675" lon="5.88488">
        <ele>600</ele>
        <time>2022-09-22T14:18:10Z</time>
      </trkpt>
      <trkpt lat="44.14675" lon="5.88487">
        <ele>600</ele>
        <time>2022-09-22T14:18:11Z</time>
      </trkpt>
      <trkpt lat="44.14676" lon="5.88485">
        <ele>600</ele>
        <time>2022-09-22T14:18:12Z</time>
      </trkpt>
      <trkpt lat="44.14676" lon="5.88483">
        <ele>600</ele>
        <time>2022-09-22T14:18:13Z</time>
      </trkpt>
      <trkpt lat="44.14676" lon="5.88482">
        <ele>601</ele>
        <time>2022-09-22T14:18:14Z</time>
      </trkpt>
      <trkpt lat="44.14677" lon="5.8848">
        <ele>601</ele>
        <time>2022-09-22T14:18:15Z</time>
      </trkpt>
      <trkpt lat="44.14677" lon="5.88478">
        <ele>601</ele>
        <time>2022-09-22T14:18:16Z</time>
      </trkpt>
      <trkpt lat="44.14677" lon="5.88477">
        <ele>601</ele>
        <time>2022-09-22T14:18:17Z</time>
      </trkpt>
      <trkpt lat="44.14678" lon="5.88475">
        <ele>601</ele>
        <time>2022-09-22T14:18:18Z</time>
      </trkpt>
      <trkpt lat="44.14678" lon="5.88474">
        <ele>601</ele>
        <time>2022-09-22T14:18:19Z</time>
      </trkpt>
      <trkpt lat="44.14678" lon="5.88473">
        <ele>601</ele>
        <time>2022-09-22T14:18:20Z</time>
      </trkpt>
      <trkpt lat="44.14678" lon="5.88471">
        <ele>601</ele>
        <time>2022-09-22T14:18:21Z</time>
      </trkpt>
      <trkpt lat="44.14679" lon="5.8847">
        <ele>601</ele>
        <time>2022-09-22T14:18:22Z</time>
      </trkpt>
      <trkpt lat="44.14679" lon="5.88469">
        <ele>601</ele>
        <time>2022-09-22T14:18:23Z</time>
      </trkpt>
      <trkpt lat="44.14679" lon="5.88467">
        <ele>601</ele>
        <time>2022-09-22T14:18:24Z</time>
      </trkpt>
      <trkpt lat="44.14679" lon="5.88466">
        <ele>601</ele>
        <time>2022-09-22T14:18:25Z</time>
      </trkpt>
      <trkpt lat="44.14679" lon="5.88464">
        <ele>601</ele>
        <time>2022-09-22T14:18:26Z</time>
      </trkpt>
      <trkpt lat="44.1468" lon="5.88463">
        <ele>601</ele>
        <time>2022-09-22T14:18:27Z</time>
      </trkpt>
      <trkpt lat="44.1468" lon="5.88461">
        <ele>601</ele>
        <time>2022-09-22T14:18:28Z</time>
      </trkpt>
      <trkpt lat="44.1468" lon="5.8846">
        <ele>601</ele>
        <time>2022-09-22T14:18:29Z</time>
      </trkpt>
      <trkpt lat="44.14681" lon="5.88458">
        <ele>601</ele>
        <time>2022-09-22T14:18:30Z</time>
      </trkpt>
      <trkpt lat="44.14681" lon="5.88456">
        <ele>601</ele>
        <time>2022-09-22T14:18:31Z</time>
      </trkpt>
      <trkpt lat="44.14681" lon="5.88454">
        <ele>601</ele>
        <time>2022-09-22T14:18:32Z</time>
      </trkpt>
      <trkpt lat="44.14682" lon="5.88453">
        <ele>601</ele>
        <time>2022-09-22T14:18:33Z</time>
      </trkpt>
      <trkpt lat="44.14682" lon="5.88451">
        <ele>601</ele>
        <time>2022-09-22T14:18:34Z</time>
      </trkpt>
      <trkpt lat="44.14683" lon="5.8845">
        <ele>601</ele>
        <time>2022-09-22T14:18:35Z</time>
      </trkpt>
      <trkpt lat="44.14683" lon="5.88448">
        <ele>601</ele>
        <time>2022-09-22T14:18:36Z</time>
      </trkpt>
      <trkpt lat="44.14684" lon="5.88447">
        <ele>601</ele>
        <time>2022-09-22T14:18:37Z</time>
      </trkpt>
      <trkpt lat="44.14685" lon="5.88445">
        <ele>601</ele>
        <time>2022-09-22T14:18:38Z</time>
      </trkpt>
      <trkpt lat="44.14685" lon="5.88444">
        <ele>601</ele>
        <time>2022-09-22T14:18:39Z</time>
      </trkpt>
      <trkpt lat="44.14686" lon="5.88443">
        <ele>601</ele>
        <time>2022-09-22T14:18:40Z</time>
      </trkpt>
      <trkpt lat="44.14686" lon="5.88442">
        <ele>601</ele>
        <time>2022-09-22T14:18:41Z</time>
      </trkpt>
      <trkpt lat="44.14687" lon="5.88441">
        <ele>601</ele>
        <time>2022-09-22T14:18:42Z</time>
      </trkpt>
      <trkpt lat="44.14688" lon="5.88439">
        <ele>601</ele>
        <time>2022-09-22T14:18:43Z</time>
      </trkpt>
      <trkpt lat="44.14688" lon="5.88438">
        <ele>601</ele>
        <time>2022-09-22T14:18:44Z</time>
      </trkpt>
      <trkpt lat="44.14689" lon="5.88437">
        <ele>601</ele>
        <time>2022-09-22T14:18:45Z</time>
      </trkpt>
      <trkpt lat="44.1469" lon="5.88436">
        <ele>601</ele>
        <time>2022-09-22T14:18:46Z</time>
      </trkpt>
      <trkpt lat="44.1469" lon="5.88435">
        <ele>601</ele>
        <time>2022-09-22T14:18:47Z</time>
      </trkpt>
      <trkpt lat="44.14691" lon="5.88433">
        <ele>601</ele>
        <time>2022-09-22T14:18:48Z</time>
      </trkpt>
      <trkpt lat="44.14692" lon="5.88432">
        <ele>601</ele>
        <time>2022-09-22T14:18:49Z</time>
      </trkpt>
      <trkpt lat="44.14692" lon="5.88431">
        <ele>600</ele>
        <time>2022-09-22T14:18:50Z</time>
      </trkpt>
      <trkpt lat="44.14693" lon="5.8843">
        <ele>600</ele>
        <time>2022-09-22T14:18:58Z</time>
      </trkpt>
      <trkpt lat="44.14694" lon="5.88429">
        <ele>601</ele>
        <time>2022-09-22T14:18:59Z</time>
      </trkpt>
      <trkpt lat="44.14694" lon="5.88428">
        <ele>600</ele>
        <time>2022-09-22T14:19:00Z</time>
      </trkpt>
      <trkpt lat="44.14695" lon="5.88427">
        <ele>600</ele>
        <time>2022-09-22T14:19:01Z</time>
      </trkpt>
      <trkpt lat="44.14695" lon="5.88426">
        <ele>600</ele>
        <time>2022-09-22T14:19:02Z</time>
      </trkpt>
      <trkpt lat="44.14695" lon="5.88425">
        <ele>600</ele>
        <time>2022-09-22T14:19:03Z</time>
      </trkpt>
      <trkpt lat="44.14696" lon="5.88424">
        <ele>600</ele>
        <time>2022-09-22T14:19:04Z</time>
      </trkpt>
      <trkpt lat="44.14696" lon="5.88423">
        <ele>600</ele>
        <time>2022-09-22T14:19:05Z</time>
      </trkpt>
      <trkpt lat="44.14697" lon="5.88422">
        <ele>600</ele>
        <time>2022-09-22T14:19:06Z</time>
      </trkpt>
      <trkpt lat="44.14697" lon="5.8842">
        <ele>601</ele>
        <time>2022-09-22T14:19:23Z</time>
      </trkpt>
      <trkpt lat="44.14698" lon="5.88419">
        <ele>601</ele>
        <time>2022-09-22T14:19:24Z</time>
      </trkpt>
      <trkpt lat="44.14698" lon="5.88418">
        <ele>601</ele>
        <time>2022-09-22T14:19:25Z</time>
      </trkpt>
      <trkpt lat="44.14698" lon="5.88417">
        <ele>601</ele>
        <time>2022-09-22T14:19:26Z</time>
      </trkpt>
      <trkpt lat="44.14698" lon="5.88416">
        <ele>601</ele>
        <time>2022-09-22T14:19:27Z</time>
      </trkpt>
      <trkpt lat="44.14699" lon="5.88415">
        <ele>601</ele>
        <time>2022-09-22T14:19:28Z</time>
      </trkpt>
      <trkpt lat="44.14699" lon="5.88414">
        <ele>601</ele>
        <time>2022-09-22T14:19:29Z</time>
      </trkpt>
      <trkpt lat="44.147" lon="5.88413">
        <ele>600</ele>
        <time>2022-09-22T14:19:30Z</time>
      </trkpt>
      <trkpt lat="44.14701" lon="5.88412">
        <ele>600</ele>
        <time>2022-09-22T14:19:31Z</time>
      </trkpt>
      <trkpt lat="44.14702" lon="5.8841">
        <ele>600</ele>
        <time>2022-09-22T14:19:32Z</time>
      </trkpt>
      <trkpt lat="44.14703" lon="5.88409">
        <ele>600</ele>
        <time>2022-09-22T14:19:33Z</time>
      </trkpt>
      <trkpt lat="44.14704" lon="5.88408">
        <ele>600</ele>
        <time>2022-09-22T14:19:34Z</time>
      </trkpt>
      <trkpt lat="44.14705" lon="5.88407">
        <ele>600</ele>
        <time>2022-09-22T14:19:35Z</time>
      </trkpt>
      <trkpt lat="44.14706" lon="5.88406">
        <ele>600</ele>
        <time>2022-09-22T14:19:36Z</time>
      </trkpt>
      <trkpt lat="44.14707" lon="5.88404">
        <ele>600</ele>
        <time>2022-09-22T14:19:37Z</time>
      </trkpt>
      <trkpt lat="44.14708" lon="5.88403">
        <ele>600</ele>
        <time>2022-09-22T14:19:38Z</time>
      </trkpt>
      <trkpt lat="44.14708" lon="5.88402">
        <ele>601</ele>
        <time>2022-09-22T14:19:39Z</time>
      </trkpt>
      <trkpt lat="44.14709" lon="5.88401">
        <ele>600</ele>
        <time>2022-09-22T14:19:40Z</time>
      </trkpt>
      <trkpt lat="44.1471" lon="5.884">
        <ele>600</ele>
        <time>2022-09-22T14:19:41Z</time>
      </trkpt>
      <trkpt lat="44.14711" lon="5.88399">
        <ele>600</ele>
        <time>2022-09-22T14:19:42Z</time>
      </trkpt>
      <trkpt lat="44.14711" lon="5.88397">
        <ele>600</ele>
        <time>2022-09-22T14:19:43Z</time>
      </trkpt>
      <trkpt lat="44.14712" lon="5.88396">
        <ele>600</ele>
        <time>2022-09-22T14:19:44Z</time>
      </trkpt>
      <trkpt lat="44.14713" lon="5.88395">
        <ele>600</ele>
        <time>2022-09-22T14:19:45Z</time>
      </trkpt>
      <trkpt lat="44.14714" lon="5.88393">
        <ele>600</ele>
        <time>2022-09-22T14:19:46Z</time>
      </trkpt>
      <trkpt lat="44.14714" lon="5.88392">
        <ele>600</ele>
        <time>2022-09-22T14:19:47Z</time>
      </trkpt>
      <trkpt lat="44.14715" lon="5.88391">
        <ele>600</ele>
        <time>2022-09-22T14:19:48Z</time>
      </trkpt>
      <trkpt lat="44.14716" lon="5.8839">
        <ele>600</ele>
        <time>2022-09-22T14:19:49Z</time>
      </trkpt>
      <trkpt lat="44.14716" lon="5.88389">
        <ele>600</ele>
        <time>2022-09-22T14:19:50Z</time>
      </trkpt>
      <trkpt lat="44.14717" lon="5.88388">
        <ele>600</ele>
        <time>2022-09-22T14:19:51Z</time>
      </trkpt>
      <trkpt lat="44.14718" lon="5.88387">
        <ele>600</ele>
        <time>2022-09-22T14:19:52Z</time>
      </trkpt>
      <trkpt lat="44.14719" lon="5.88386">
        <ele>600</ele>
        <time>2022-09-22T14:19:53Z</time>
      </trkpt>
      <trkpt lat="44.14719" lon="5.88384">
        <ele>600</ele>
        <time>2022-09-22T14:19:54Z</time>
      </trkpt>
      <trkpt lat="44.1472" lon="5.88383">
        <ele>600</ele>
        <time>2022-09-22T14:19:55Z</time>
      </trkpt>
      <trkpt lat="44.14721" lon="5.88382">
        <ele>600</ele>
        <time>2022-09-22T14:19:56Z</time>
      </trkpt>
      <trkpt lat="44.14722" lon="5.88381">
        <ele>600</ele>
        <time>2022-09-22T14:19:57Z</time>
      </trkpt>
      <trkpt lat="44.14722" lon="5.8838">
        <ele>600</ele>
        <time>2022-09-22T14:19:58Z</time>
      </trkpt>
      <trkpt lat="44.14723" lon="5.88378">
        <ele>600</ele>
        <time>2022-09-22T14:19:59Z</time>
      </trkpt>
      <trkpt lat="44.14723" lon="5.88377">
        <ele>600</ele>
        <time>2022-09-22T14:20:00Z</time>
      </trkpt>
      <trkpt lat="44.14723" lon="5.88376">
        <ele>600</ele>
        <time>2022-09-22T14:20:01Z</time>
      </trkpt>
      <trkpt lat="44.14723" lon="5.88374">
        <ele>600</ele>
        <time>2022-09-22T14:20:02Z</time>
      </trkpt>
      <trkpt lat="44.14724" lon="5.88373">
        <ele>600</ele>
        <time>2022-09-22T14:20:03Z</time>
      </trkpt>
      <trkpt lat="44.14724" lon="5.88372">
        <ele>600</ele>
        <time>2022-09-22T14:20:04Z</time>
      </trkpt>
      <trkpt lat="44.14724" lon="5.8837">
        <ele>599</ele>
        <time>2022-09-22T14:20:05Z</time>
      </trkpt>
      <trkpt lat="44.14724" lon="5.88369">
        <ele>599</ele>
        <time>2022-09-22T14:20:06Z</time>
      </trkpt>
      <trkpt lat="44.14724" lon="5.88368">
        <ele>599</ele>
        <time>2022-09-22T14:20:07Z</time>
      </trkpt>
      <trkpt lat="44.14725" lon="5.88366">
        <ele>599</ele>
        <time>2022-09-22T14:20:08Z</time>
      </trkpt>
      <trkpt lat="44.14725" lon="5.88365">
        <ele>599</ele>
        <time>2022-09-22T14:20:09Z</time>
      </trkpt>
      <trkpt lat="44.14726" lon="5.88363">
        <ele>599</ele>
        <time>2022-09-22T14:20:10Z</time>
      </trkpt>
      <trkpt lat="44.14727" lon="5.88362">
        <ele>599</ele>
        <time>2022-09-22T14:20:11Z</time>
      </trkpt>
      <trkpt lat="44.14727" lon="5.8836">
        <ele>599</ele>
        <time>2022-09-22T14:20:12Z</time>
      </trkpt>
      <trkpt lat="44.14728" lon="5.88359">
        <ele>599</ele>
        <time>2022-09-22T14:20:13Z</time>
      </trkpt>
      <trkpt lat="44.14728" lon="5.88357">
        <ele>599</ele>
        <time>2022-09-22T14:20:14Z</time>
      </trkpt>
      <trkpt lat="44.14729" lon="5.88355">
        <ele>599</ele>
        <time>2022-09-22T14:20:15Z</time>
      </trkpt>
      <trkpt lat="44.14729" lon="5.88354">
        <ele>599</ele>
        <time>2022-09-22T14:20:16Z</time>
      </trkpt>
      <trkpt lat="44.14729" lon="5.88352">
        <ele>599</ele>
        <time>2022-09-22T14:20:17Z</time>
      </trkpt>
      <trkpt lat="44.14729" lon="5.88351">
        <ele>599</ele>
        <time>2022-09-22T14:20:18Z</time>
      </trkpt>
      <trkpt lat="44.1473" lon="5.8835">
        <ele>599</ele>
        <time>2022-09-22T14:20:19Z</time>
      </trkpt>
      <trkpt lat="44.1473" lon="5.88348">
        <ele>599</ele>
        <time>2022-09-22T14:20:20Z</time>
      </trkpt>
      <trkpt lat="44.1473" lon="5.88347">
        <ele>599</ele>
        <time>2022-09-22T14:20:21Z</time>
      </trkpt>
      <trkpt lat="44.14731" lon="5.88346">
        <ele>599</ele>
        <time>2022-09-22T14:20:22Z</time>
      </trkpt>
      <trkpt lat="44.14731" lon="5.88345">
        <ele>599</ele>
        <time>2022-09-22T14:20:23Z</time>
      </trkpt>
      <trkpt lat="44.14731" lon="5.88344">
        <ele>599</ele>
        <time>2022-09-22T14:20:24Z</time>
      </trkpt>
      <trkpt lat="44.14732" lon="5.88343">
        <ele>599</ele>
        <time>2022-09-22T14:20:25Z</time>
      </trkpt>
      <trkpt lat="44.14732" lon="5.88342">
        <ele>599</ele>
        <time>2022-09-22T14:20:26Z</time>
      </trkpt>
      <trkpt lat="44.14732" lon="5.8834">
        <ele>599</ele>
        <time>2022-09-22T14:20:27Z</time>
      </trkpt>
      <trkpt lat="44.14732" lon="5.88339">
        <ele>599</ele>
        <time>2022-09-22T14:20:28Z</time>
      </trkpt>
      <trkpt lat="44.14732" lon="5.88338">
        <ele>599</ele>
        <time>2022-09-22T14:20:29Z</time>
      </trkpt>
      <trkpt lat="44.14732" lon="5.88337">
        <ele>598</ele>
        <time>2022-09-22T14:20:30Z</time>
      </trkpt>
      <trkpt lat="44.14732" lon="5.88336">
        <ele>598</ele>
        <time>2022-09-22T14:20:31Z</time>
      </trkpt>
      <trkpt lat="44.14732" lon="5.88335">
        <ele>598</ele>
        <time>2022-09-22T14:20:32Z</time>
      </trkpt>
      <trkpt lat="44.14732" lon="5.88334">
        <ele>598</ele>
        <time>2022-09-22T14:20:33Z</time>
      </trkpt>
      <trkpt lat="44.14733" lon="5.88333">
        <ele>598</ele>
        <time>2022-09-22T14:20:34Z</time>
      </trkpt>
      <trkpt lat="44.14733" lon="5.88332">
        <ele>598</ele>
        <time>2022-09-22T14:20:35Z</time>
      </trkpt>
      <trkpt lat="44.14733" lon="5.88331">
        <ele>598</ele>
        <time>2022-09-22T14:20:36Z</time>
      </trkpt>
      <trkpt lat="44.14733" lon="5.8833">
        <ele>598</ele>
        <time>2022-09-22T14:20:37Z</time>
      </trkpt>
      <trkpt lat="44.14734" lon="5.8833">
        <ele>598</ele>
        <time>2022-09-22T14:20:38Z</time>
      </trkpt>
      <trkpt lat="44.14734" lon="5.88329">
        <ele>598</ele>
        <time>2022-09-22T14:20:39Z</time>
      </trkpt>
      <trkpt lat="44.14734" lon="5.88327">
        <ele>598</ele>
        <time>2022-09-22T14:20:40Z</time>
      </trkpt>
      <trkpt lat="44.14735" lon="5.88326">
        <ele>598</ele>
        <time>2022-09-22T14:20:41Z</time>
      </trkpt>
      <trkpt lat="44.14735" lon="5.88325">
        <ele>598</ele>
        <time>2022-09-22T14:20:42Z</time>
      </trkpt>
      <trkpt lat="44.14735" lon="5.88324">
        <ele>598</ele>
        <time>2022-09-22T14:20:43Z</time>
      </trkpt>
      <trkpt lat="44.14736" lon="5.88323">
        <ele>598</ele>
        <time>2022-09-22T14:20:44Z</time>
      </trkpt>
      <trkpt lat="44.14736" lon="5.88322">
        <ele>597</ele>
        <time>2022-09-22T14:20:45Z</time>
      </trkpt>
      <trkpt lat="44.14737" lon="5.88321">
        <ele>597</ele>
        <time>2022-09-22T14:20:46Z</time>
      </trkpt>
      <trkpt lat="44.14737" lon="5.88319">
        <ele>597</ele>
        <time>2022-09-22T14:20:47Z</time>
      </trkpt>
      <trkpt lat="44.14738" lon="5.88318">
        <ele>597</ele>
        <time>2022-09-22T14:20:48Z</time>
      </trkpt>
      <trkpt lat="44.14738" lon="5.88317">
        <ele>597</ele>
        <time>2022-09-22T14:20:49Z</time>
      </trkpt>
      <trkpt lat="44.14739" lon="5.88316">
        <ele>597</ele>
        <time>2022-09-22T14:20:50Z</time>
      </trkpt>
      <trkpt lat="44.14739" lon="5.88315">
        <ele>597</ele>
        <time>2022-09-22T14:20:51Z</time>
      </trkpt>
      <trkpt lat="44.14739" lon="5.88314">
        <ele>597</ele>
        <time>2022-09-22T14:20:52Z</time>
      </trkpt>
      <trkpt lat="44.1474" lon="5.88313">
        <ele>597</ele>
        <time>2022-09-22T14:20:53Z</time>
      </trkpt>
      <trkpt lat="44.1474" lon="5.88311">
        <ele>597</ele>
        <time>2022-09-22T14:20:54Z</time>
      </trkpt>
      <trkpt lat="44.14741" lon="5.8831">
        <ele>596</ele>
        <time>2022-09-22T14:20:55Z</time>
      </trkpt>
      <trkpt lat="44.14741" lon="5.88309">
        <ele>596</ele>
        <time>2022-09-22T14:20:56Z</time>
      </trkpt>
      <trkpt lat="44.14741" lon="5.88308">
        <ele>596</ele>
        <time>2022-09-22T14:20:57Z</time>
      </trkpt>
      <trkpt lat="44.14741" lon="5.88306">
        <ele>596</ele>
        <time>2022-09-22T14:20:58Z</time>
      </trkpt>
      <trkpt lat="44.14741" lon="5.88305">
        <ele>596</ele>
        <time>2022-09-22T14:20:59Z</time>
      </trkpt>
      <trkpt lat="44.14742" lon="5.88304">
        <ele>596</ele>
        <time>2022-09-22T14:21:00Z</time>
      </trkpt>
      <trkpt lat="44.14742" lon="5.88302">
        <ele>596</ele>
        <time>2022-09-22T14:21:01Z</time>
      </trkpt>
      <trkpt lat="44.14742" lon="5.88301">
        <ele>596</ele>
        <time>2022-09-22T14:21:02Z</time>
      </trkpt>
      <trkpt lat="44.14742" lon="5.88299">
        <ele>596</ele>
        <time>2022-09-22T14:21:03Z</time>
      </trkpt>
      <trkpt lat="44.14742" lon="5.88298">
        <ele>596</ele>
        <time>2022-09-22T14:21:04Z</time>
      </trkpt>
      <trkpt lat="44.14742" lon="5.88297">
        <ele>596</ele>
        <time>2022-09-22T14:21:05Z</time>
      </trkpt>
      <trkpt lat="44.14743" lon="5.88295">
        <ele>596</ele>
        <time>2022-09-22T14:21:06Z</time>
      </trkpt>
      <trkpt lat="44.14743" lon="5.88294">
        <ele>596</ele>
        <time>2022-09-22T14:21:07Z</time>
      </trkpt>
      <trkpt lat="44.14743" lon="5.88293">
        <ele>596</ele>
        <time>2022-09-22T14:21:08Z</time>
      </trkpt>
      <trkpt lat="44.14743" lon="5.88292">
        <ele>596</ele>
        <time>2022-09-22T14:21:09Z</time>
      </trkpt>
      <trkpt lat="44.14743" lon="5.8829">
        <ele>596</ele>
        <time>2022-09-22T14:21:10Z</time>
      </trkpt>
      <trkpt lat="44.14744" lon="5.88289">
        <ele>596</ele>
        <time>2022-09-22T14:21:11Z</time>
      </trkpt>
      <trkpt lat="44.14744" lon="5.88287">
        <ele>596</ele>
        <time>2022-09-22T14:21:12Z</time>
      </trkpt>
      <trkpt lat="44.14744" lon="5.88286">
        <ele>596</ele>
        <time>2022-09-22T14:21:13Z</time>
      </trkpt>
      <trkpt lat="44.14744" lon="5.88284">
        <ele>596</ele>
        <time>2022-09-22T14:21:14Z</time>
      </trkpt>
      <trkpt lat="44.14745" lon="5.88283">
        <ele>596</ele>
        <time>2022-09-22T14:21:15Z</time>
      </trkpt>
      <trkpt lat="44.14745" lon="5.88281">
        <ele>596</ele>
        <time>2022-09-22T14:21:16Z</time>
      </trkpt>
      <trkpt lat="44.14745" lon="5.8828">
        <ele>596</ele>
        <time>2022-09-22T14:21:17Z</time>
      </trkpt>
      <trkpt lat="44.14745" lon="5.88278">
        <ele>596</ele>
        <time>2022-09-22T14:21:18Z</time>
      </trkpt>
      <trkpt lat="44.14746" lon="5.88277">
        <ele>596</ele>
        <time>2022-09-22T14:21:19Z</time>
      </trkpt>
      <trkpt lat="44.14746" lon="5.88275">
        <ele>595</ele>
        <time>2022-09-22T14:21:20Z</time>
      </trkpt>
      <trkpt lat="44.14747" lon="5.88274">
        <ele>595</ele>
        <time>2022-09-22T14:21:21Z</time>
      </trkpt>
      <trkpt lat="44.14747" lon="5.88272">
        <ele>595</ele>
        <time>2022-09-22T14:21:22Z</time>
      </trkpt>
      <trkpt lat="44.14747" lon="5.8827">
        <ele>595</ele>
        <time>2022-09-22T14:21:23Z</time>
      </trkpt>
      <trkpt lat="44.14748" lon="5.88269">
        <ele>595</ele>
        <time>2022-09-22T14:21:24Z</time>
      </trkpt>
      <trkpt lat="44.14748" lon="5.88268">
        <ele>595</ele>
        <time>2022-09-22T14:21:25Z</time>
      </trkpt>
      <trkpt lat="44.14749" lon="5.88266">
        <ele>595</ele>
        <time>2022-09-22T14:21:26Z</time>
      </trkpt>
      <trkpt lat="44.14749" lon="5.88265">
        <ele>595</ele>
        <time>2022-09-22T14:21:27Z</time>
      </trkpt>
      <trkpt lat="44.1475" lon="5.88264">
        <ele>595</ele>
        <time>2022-09-22T14:21:28Z</time>
      </trkpt>
      <trkpt lat="44.1475" lon="5.88262">
        <ele>595</ele>
        <time>2022-09-22T14:21:29Z</time>
      </trkpt>
      <trkpt lat="44.14751" lon="5.88261">
        <ele>595</ele>
        <time>2022-09-22T14:21:30Z</time>
      </trkpt>
      <trkpt lat="44.14751" lon="5.8826">
        <ele>595</ele>
        <time>2022-09-22T14:21:31Z</time>
      </trkpt>
      <trkpt lat="44.14751" lon="5.88258">
        <ele>595</ele>
        <time>2022-09-22T14:21:32Z</time>
      </trkpt>
      <trkpt lat="44.14752" lon="5.88257">
        <ele>595</ele>
        <time>2022-09-22T14:21:33Z</time>
      </trkpt>
      <trkpt lat="44.14752" lon="5.88256">
        <ele>595</ele>
        <time>2022-09-22T14:21:34Z</time>
      </trkpt>
      <trkpt lat="44.14752" lon="5.88255">
        <ele>595</ele>
        <time>2022-09-22T14:21:35Z</time>
      </trkpt>
      <trkpt lat="44.14753" lon="5.88254">
        <ele>595</ele>
        <time>2022-09-22T14:21:36Z</time>
      </trkpt>
      <trkpt lat="44.14753" lon="5.88254">
        <ele>595</ele>
        <time>2022-09-22T14:21:37Z</time>
      </trkpt>
      <trkpt lat="44.14753" lon="5.88254">
        <ele>595</ele>
        <time>2022-09-22T14:21:38Z</time>
      </trkpt>
      <trkpt lat="44.14753" lon="5.88253">
        <ele>595</ele>
        <time>2022-09-22T14:21:39Z</time>
      </trkpt>
      <trkpt lat="44.14753" lon="5.88252">
        <ele>595</ele>
        <time>2022-09-22T14:21:40Z</time>
      </trkpt>
      <trkpt lat="44.14754" lon="5.88251">
        <ele>595</ele>
        <time>2022-09-22T14:21:41Z</time>
      </trkpt>
      <trkpt lat="44.14754" lon="5.8825">
        <ele>595</ele>
        <time>2022-09-22T14:21:42Z</time>
      </trkpt>
      <trkpt lat="44.14754" lon="5.88249">
        <ele>595</ele>
        <time>2022-09-22T14:21:43Z</time>
      </trkpt>
      <trkpt lat="44.14754" lon="5.88248">
        <ele>594</ele>
        <time>2022-09-22T14:21:51Z</time>
      </trkpt>
      <trkpt lat="44.14755" lon="5.88248">
        <ele>594</ele>
        <time>2022-09-22T14:21:52Z</time>
      </trkpt>
      <trkpt lat="44.14755" lon="5.88247">
        <ele>594</ele>
        <time>2022-09-22T14:21:53Z</time>
      </trkpt>
      <trkpt lat="44.14755" lon="5.88246">
        <ele>594</ele>
        <time>2022-09-22T14:21:54Z</time>
      </trkpt>
      <trkpt lat="44.14755" lon="5.88245">
        <ele>594</ele>
        <time>2022-09-22T14:21:55Z</time>
      </trkpt>
      <trkpt lat="44.14756" lon="5.88245">
        <ele>594</ele>
        <time>2022-09-22T14:21:56Z</time>
      </trkpt>
      <trkpt lat="44.14756" lon="5.88244">
        <ele>594</ele>
        <time>2022-09-22T14:21:57Z</time>
      </trkpt>
      <trkpt lat="44.14756" lon="5.88243">
        <ele>594</ele>
        <time>2022-09-22T14:21:58Z</time>
      </trkpt>
      <trkpt lat="44.14756" lon="5.88241">
        <ele>594</ele>
        <time>2022-09-22T14:22:08Z</time>
      </trkpt>
      <trkpt lat="44.14756" lon="5.8824">
        <ele>594</ele>
        <time>2022-09-22T14:22:09Z</time>
      </trkpt>
      <trkpt lat="44.14757" lon="5.88238">
        <ele>593</ele>
        <time>2022-09-22T14:22:10Z</time>
      </trkpt>
      <trkpt lat="44.14757" lon="5.88237">
        <ele>593</ele>
        <time>2022-09-22T14:22:11Z</time>
      </trkpt>
      <trkpt lat="44.14757" lon="5.88237">
        <ele>593</ele>
        <time>2022-09-22T14:22:12Z</time>
      </trkpt>
      <trkpt lat="44.14758" lon="5.88236">
        <ele>593</ele>
        <time>2022-09-22T14:22:13Z</time>
      </trkpt>
      <trkpt lat="44.14758" lon="5.88235">
        <ele>593</ele>
        <time>2022-09-22T14:22:14Z</time>
      </trkpt>
      <trkpt lat="44.14758" lon="5.88233">
        <ele>593</ele>
        <time>2022-09-22T14:22:15Z</time>
      </trkpt>
      <trkpt lat="44.14758" lon="5.88232">
        <ele>593</ele>
        <time>2022-09-22T14:22:16Z</time>
      </trkpt>
      <trkpt lat="44.14758" lon="5.88231">
        <ele>593</ele>
        <time>2022-09-22T14:22:17Z</time>
      </trkpt>
      <trkpt lat="44.14757" lon="5.8823">
        <ele>593</ele>
        <time>2022-09-22T14:22:18Z</time>
      </trkpt>
      <trkpt lat="44.14757" lon="5.88229">
        <ele>593</ele>
        <time>2022-09-22T14:22:19Z</time>
      </trkpt>
      <trkpt lat="44.14757" lon="5.88228">
        <ele>592</ele>
        <time>2022-09-22T14:22:20Z</time>
      </trkpt>
      <trkpt lat="44.14756" lon="5.88227">
        <ele>592</ele>
        <time>2022-09-22T14:22:21Z</time>
      </trkpt>
      <trkpt lat="44.14756" lon="5.88226">
        <ele>592</ele>
        <time>2022-09-22T14:22:22Z</time>
      </trkpt>
      <trkpt lat="44.14755" lon="5.88226">
        <ele>592</ele>
        <time>2022-09-22T14:22:23Z</time>
      </trkpt>
      <trkpt lat="44.14755" lon="5.88225">
        <ele>592</ele>
        <time>2022-09-22T14:22:24Z</time>
      </trkpt>
      <trkpt lat="44.14754" lon="5.88224">
        <ele>591</ele>
        <time>2022-09-22T14:22:25Z</time>
      </trkpt>
      <trkpt lat="44.14754" lon="5.88223">
        <ele>591</ele>
        <time>2022-09-22T14:22:26Z</time>
      </trkpt>
      <trkpt lat="44.14753" lon="5.88222">
        <ele>591</ele>
        <time>2022-09-22T14:22:27Z</time>
      </trkpt>
      <trkpt lat="44.14752" lon="5.88221">
        <ele>591</ele>
        <time>2022-09-22T14:22:28Z</time>
      </trkpt>
      <trkpt lat="44.14752" lon="5.88219">
        <ele>591</ele>
        <time>2022-09-22T14:22:29Z</time>
      </trkpt>
      <trkpt lat="44.1475" lon="5.88218">
        <ele>590</ele>
        <time>2022-09-22T14:22:39Z</time>
      </trkpt>
      <trkpt lat="44.1475" lon="5.88217">
        <ele>590</ele>
        <time>2022-09-22T14:22:40Z</time>
      </trkpt>
      <trkpt lat="44.14749" lon="5.88217">
        <ele>590</ele>
        <time>2022-09-22T14:22:41Z</time>
      </trkpt>
      <trkpt lat="44.14749" lon="5.88216">
        <ele>590</ele>
        <time>2022-09-22T14:22:42Z</time>
      </trkpt>
      <trkpt lat="44.14749" lon="5.88215">
        <ele>590</ele>
        <time>2022-09-22T14:22:43Z</time>
      </trkpt>
      <trkpt lat="44.14749" lon="5.88215">
        <ele>590</ele>
        <time>2022-09-22T14:22:44Z</time>
      </trkpt>
      <trkpt lat="44.14749" lon="5.88214">
        <ele>589</ele>
        <time>2022-09-22T14:22:45Z</time>
      </trkpt>
      <trkpt lat="44.1475" lon="5.88213">
        <ele>589</ele>
        <time>2022-09-22T14:22:46Z</time>
      </trkpt>
      <trkpt lat="44.1475" lon="5.88212">
        <ele>589</ele>
        <time>2022-09-22T14:22:47Z</time>
      </trkpt>
      <trkpt lat="44.14751" lon="5.88211">
        <ele>589</ele>
        <time>2022-09-22T14:22:48Z</time>
      </trkpt>
      <trkpt lat="44.14752" lon="5.8821">
        <ele>589</ele>
        <time>2022-09-22T14:22:49Z</time>
      </trkpt>
      <trkpt lat="44.14753" lon="5.88209">
        <ele>589</ele>
        <time>2022-09-22T14:22:50Z</time>
      </trkpt>
      <trkpt lat="44.14754" lon="5.88209">
        <ele>589</ele>
        <time>2022-09-22T14:22:51Z</time>
      </trkpt>
      <trkpt lat="44.14755" lon="5.88208">
        <ele>589</ele>
        <time>2022-09-22T14:22:52Z</time>
      </trkpt>
      <trkpt lat="44.14756" lon="5.88207">
        <ele>589</ele>
        <time>2022-09-22T14:22:53Z</time>
      </trkpt>
      <trkpt lat="44.14756" lon="5.88207">
        <ele>589</ele>
        <time>2022-09-22T14:22:54Z</time>
      </trkpt>
      <trkpt lat="44.14757" lon="5.88206">
        <ele>589</ele>
        <time>2022-09-22T14:22:55Z</time>
      </trkpt>
      <trkpt lat="44.14757" lon="5.88206">
        <ele>589</ele>
        <time>2022-09-22T14:22:56Z</time>
      </trkpt>
      <trkpt lat="44.14758" lon="5.88205">
        <ele>589</ele>
        <time>2022-09-22T14:22:57Z</time>
      </trkpt>
      <trkpt lat="44.14759" lon="5.88205">
        <ele>589</ele>
        <time>2022-09-22T14:22:58Z</time>
      </trkpt>
      <trkpt lat="44.1476" lon="5.88204">
        <ele>589</ele>
        <time>2022-09-22T14:22:59Z</time>
      </trkpt>
      <trkpt lat="44.14761" lon="5.88204">
        <ele>588</ele>
        <time>2022-09-22T14:23:00Z</time>
      </trkpt>
      <trkpt lat="44.14762" lon="5.88203">
        <ele>588</ele>
        <time>2022-09-22T14:23:01Z</time>
      </trkpt>
      <trkpt lat="44.14764" lon="5.88203">
        <ele>588</ele>
        <time>2022-09-22T14:23:02Z</time>
      </trkpt>
      <trkpt lat="44.14765" lon="5.88203">
        <ele>588</ele>
        <time>2022-09-22T14:23:03Z</time>
      </trkpt>
      <trkpt lat="44.14766" lon="5.88203">
        <ele>588</ele>
        <time>2022-09-22T14:23:04Z</time>
      </trkpt>
      <trkpt lat="44.14766" lon="5.88202">
        <ele>587</ele>
        <time>2022-09-22T14:23:05Z</time>
      </trkpt>
      <trkpt lat="44.14767" lon="5.88202">
        <ele>587</ele>
        <time>2022-09-22T14:23:06Z</time>
      </trkpt>
      <trkpt lat="44.14767" lon="5.88202">
        <ele>587</ele>
        <time>2022-09-22T14:23:07Z</time>
      </trkpt>
      <trkpt lat="44.14768" lon="5.88202">
        <ele>587</ele>
        <time>2022-09-22T14:23:08Z</time>
      </trkpt>
      <trkpt lat="44.14768" lon="5.88201">
        <ele>587</ele>
        <time>2022-09-22T14:23:09Z</time>
      </trkpt>
      <trkpt lat="44.14768" lon="5.882">
        <ele>587</ele>
        <time>2022-09-22T14:23:10Z</time>
      </trkpt>
      <trkpt lat="44.14769" lon="5.88199">
        <ele>587</ele>
        <time>2022-09-22T14:23:11Z</time>
      </trkpt>
      <trkpt lat="44.14769" lon="5.88198">
        <ele>587</ele>
        <time>2022-09-22T14:23:12Z</time>
      </trkpt>
      <trkpt lat="44.14769" lon="5.88196">
        <ele>587</ele>
        <time>2022-09-22T14:23:13Z</time>
      </trkpt>
      <trkpt lat="44.1477" lon="5.88195">
        <ele>587</ele>
        <time>2022-09-22T14:23:14Z</time>
      </trkpt>
      <trkpt lat="44.1477" lon="5.88193">
        <ele>586</ele>
        <time>2022-09-22T14:23:15Z</time>
      </trkpt>
      <trkpt lat="44.1477" lon="5.88192">
        <ele>586</ele>
        <time>2022-09-22T14:23:16Z</time>
      </trkpt>
      <trkpt lat="44.14771" lon="5.8819">
        <ele>586</ele>
        <time>2022-09-22T14:23:17Z</time>
      </trkpt>
      <trkpt lat="44.14771" lon="5.88189">
        <ele>586</ele>
        <time>2022-09-22T14:23:18Z</time>
      </trkpt>
      <trkpt lat="44.14771" lon="5.88187">
        <ele>586</ele>
        <time>2022-09-22T14:23:19Z</time>
      </trkpt>
      <trkpt lat="44.14772" lon="5.88186">
        <ele>586</ele>
        <time>2022-09-22T14:23:20Z</time>
      </trkpt>
      <trkpt lat="44.14772" lon="5.88184">
        <ele>586</ele>
        <time>2022-09-22T14:23:21Z</time>
      </trkpt>
      <trkpt lat="44.14772" lon="5.88183">
        <ele>586</ele>
        <time>2022-09-22T14:23:22Z</time>
      </trkpt>
      <trkpt lat="44.14773" lon="5.88182">
        <ele>586</ele>
        <time>2022-09-22T14:23:23Z</time>
      </trkpt>
      <trkpt lat="44.14773" lon="5.8818">
        <ele>586</ele>
        <time>2022-09-22T14:23:24Z</time>
      </trkpt>
      <trkpt lat="44.14773" lon="5.88179">
        <ele>585</ele>
        <time>2022-09-22T14:23:25Z</time>
      </trkpt>
      <trkpt lat="44.14774" lon="5.88178">
        <ele>585</ele>
        <time>2022-09-22T14:23:26Z</time>
      </trkpt>
      <trkpt lat="44.14774" lon="5.88176">
        <ele>584</ele>
        <time>2022-09-22T14:23:27Z</time>
      </trkpt>
      <trkpt lat="44.14774" lon="5.88175">
        <ele>584</ele>
        <time>2022-09-22T14:23:28Z</time>
      </trkpt>
      <trkpt lat="44.14774" lon="5.88174">
        <ele>584</ele>
        <time>2022-09-22T14:23:29Z</time>
      </trkpt>
      <trkpt lat="44.14774" lon="5.88172">
        <ele>584</ele>
        <time>2022-09-22T14:23:30Z</time>
      </trkpt>
      <trkpt lat="44.14774" lon="5.88171">
        <ele>584</ele>
        <time>2022-09-22T14:23:31Z</time>
      </trkpt>
      <trkpt lat="44.14775" lon="5.8817">
        <ele>584</ele>
        <time>2022-09-22T14:23:32Z</time>
      </trkpt>
      <trkpt lat="44.14775" lon="5.88169">
        <ele>584</ele>
        <time>2022-09-22T14:23:33Z</time>
      </trkpt>
      <trkpt lat="44.14775" lon="5.88168">
        <ele>584</ele>
        <time>2022-09-22T14:23:34Z</time>
      </trkpt>
      <trkpt lat="44.14776" lon="5.88166">
        <ele>584</ele>
        <time>2022-09-22T14:23:35Z</time>
      </trkpt>
      <trkpt lat="44.14776" lon="5.88165">
        <ele>584</ele>
        <time>2022-09-22T14:23:36Z</time>
      </trkpt>
      <trkpt lat="44.14777" lon="5.88164">
        <ele>584</ele>
        <time>2022-09-22T14:23:37Z</time>
      </trkpt>
      <trkpt lat="44.14777" lon="5.88162">
        <ele>584</ele>
        <time>2022-09-22T14:23:38Z</time>
      </trkpt>
      <trkpt lat="44.14777" lon="5.88161">
        <ele>584</ele>
        <time>2022-09-22T14:23:39Z</time>
      </trkpt>
      <trkpt lat="44.14778" lon="5.8816">
        <ele>583</ele>
        <time>2022-09-22T14:23:40Z</time>
      </trkpt>
      <trkpt lat="44.14778" lon="5.88159">
        <ele>583</ele>
        <time>2022-09-22T14:23:41Z</time>
      </trkpt>
      <trkpt lat="44.14778" lon="5.88158">
        <ele>583</ele>
        <time>2022-09-22T14:23:42Z</time>
      </trkpt>
      <trkpt lat="44.14778" lon="5.88157">
        <ele>583</ele>
        <time>2022-09-22T14:23:43Z</time>
      </trkpt>
      <trkpt lat="44.14778" lon="5.88155">
        <ele>583</ele>
        <time>2022-09-22T14:23:44Z</time>
      </trkpt>
      <trkpt lat="44.14778" lon="5.88154">
        <ele>583</ele>
        <time>2022-09-22T14:23:45Z</time>
      </trkpt>
      <trkpt lat="44.14777" lon="5.88153">
        <ele>583</ele>
        <time>2022-09-22T14:23:46Z</time>
      </trkpt>
      <trkpt lat="44.14777" lon="5.88152">
        <ele>583</ele>
        <time>2022-09-22T14:23:47Z</time>
      </trkpt>
      <trkpt lat="44.14777" lon="5.88151">
        <ele>583</ele>
        <time>2022-09-22T14:23:48Z</time>
      </trkpt>
      <trkpt lat="44.14777" lon="5.88149">
        <ele>583</ele>
        <time>2022-09-22T14:23:49Z</time>
      </trkpt>
      <trkpt lat="44.14777" lon="5.88148">
        <ele>583</ele>
        <time>2022-09-22T14:23:50Z</time>
      </trkpt>
      <trkpt lat="44.14777" lon="5.88147">
        <ele>583</ele>
        <time>2022-09-22T14:23:51Z</time>
      </trkpt>
      <trkpt lat="44.14776" lon="5.88145">
        <ele>583</ele>
        <time>2022-09-22T14:23:52Z</time>
      </trkpt>
      <trkpt lat="44.14776" lon="5.88143">
        <ele>583</ele>
        <time>2022-09-22T14:23:53Z</time>
      </trkpt>
      <trkpt lat="44.14776" lon="5.88142">
        <ele>583</ele>
        <time>2022-09-22T14:23:54Z</time>
      </trkpt>
      <trkpt lat="44.14776" lon="5.8814">
        <ele>583</ele>
        <time>2022-09-22T14:23:55Z</time>
      </trkpt>
      <trkpt lat="44.14776" lon="5.88138">
        <ele>583</ele>
        <time>2022-09-22T14:23:56Z</time>
      </trkpt>
      <trkpt lat="44.14776" lon="5.88136">
        <ele>583</ele>
        <time>2022-09-22T14:23:57Z</time>
      </trkpt>
      <trkpt lat="44.14776" lon="5.88134">
        <ele>583</ele>
        <time>2022-09-22T14:23:58Z</time>
      </trkpt>
      <trkpt lat="44.14776" lon="5.88133">
        <ele>583</ele>
        <time>2022-09-22T14:23:59Z</time>
      </trkpt>
      <trkpt lat="44.14776" lon="5.88131">
        <ele>582</ele>
        <time>2022-09-22T14:24:00Z</time>
      </trkpt>
      <trkpt lat="44.14776" lon="5.8813">
        <ele>582</ele>
        <time>2022-09-22T14:24:01Z</time>
      </trkpt>
      <trkpt lat="44.14776" lon="5.88128">
        <ele>582</ele>
        <time>2022-09-22T14:24:02Z</time>
      </trkpt>
      <trkpt lat="44.14777" lon="5.88127">
        <ele>582</ele>
        <time>2022-09-22T14:24:03Z</time>
      </trkpt>
      <trkpt lat="44.14777" lon="5.88125">
        <ele>582</ele>
        <time>2022-09-22T14:24:04Z</time>
      </trkpt>
      <trkpt lat="44.14778" lon="5.88123">
        <ele>582</ele>
        <time>2022-09-22T14:24:05Z</time>
      </trkpt>
      <trkpt lat="44.14779" lon="5.88121">
        <ele>582</ele>
        <time>2022-09-22T14:24:06Z</time>
      </trkpt>
      <trkpt lat="44.1478" lon="5.8812">
        <ele>582</ele>
        <time>2022-09-22T14:24:07Z</time>
      </trkpt>
      <trkpt lat="44.1478" lon="5.88118">
        <ele>582</ele>
        <time>2022-09-22T14:24:08Z</time>
      </trkpt>
      <trkpt lat="44.14782" lon="5.88117">
        <ele>582</ele>
        <time>2022-09-22T14:24:16Z</time>
      </trkpt>
      <trkpt lat="44.14784" lon="5.88116">
        <ele>582</ele>
        <time>2022-09-22T14:24:17Z</time>
      </trkpt>
      <trkpt lat="44.14785" lon="5.88116">
        <ele>582</ele>
        <time>2022-09-22T14:24:18Z</time>
      </trkpt>
      <trkpt lat="44.14787" lon="5.88116">
        <ele>582</ele>
        <time>2022-09-22T14:24:29Z</time>
      </trkpt>
      <trkpt lat="44.14788" lon="5.88115">
        <ele>582</ele>
        <time>2022-09-22T14:24:30Z</time>
      </trkpt>
      <trkpt lat="44.14789" lon="5.88115">
        <ele>582</ele>
        <time>2022-09-22T14:24:31Z</time>
      </trkpt>
      <trkpt lat="44.14789" lon="5.88115">
        <ele>583</ele>
        <time>2022-09-22T14:25:04Z</time>
      </trkpt>
      <trkpt lat="44.14788" lon="5.88115">
        <ele>583</ele>
        <time>2022-09-22T14:25:05Z</time>
      </trkpt>
      <trkpt lat="44.14788" lon="5.88115">
        <ele>583</ele>
        <time>2022-09-22T14:25:06Z</time>
      </trkpt>
      <trkpt lat="44.14786" lon="5.88114">
        <ele>582</ele>
        <time>2022-09-22T14:25:36Z</time>
      </trkpt>
      <trkpt lat="44.14785" lon="5.88113">
        <ele>582</ele>
        <time>2022-09-22T14:25:37Z</time>
      </trkpt>
      <trkpt lat="44.14784" lon="5.88112">
        <ele>582</ele>
        <time>2022-09-22T14:25:38Z</time>
      </trkpt>
      <trkpt lat="44.14784" lon="5.88111">
        <ele>582</ele>
        <time>2022-09-22T14:25:39Z</time>
      </trkpt>
      <trkpt lat="44.14784" lon="5.8811">
        <ele>582</ele>
        <time>2022-09-22T14:25:40Z</time>
      </trkpt>
      <trkpt lat="44.14784" lon="5.88109">
        <ele>582</ele>
        <time>2022-09-22T14:25:41Z</time>
      </trkpt>
      <trkpt lat="44.14784" lon="5.88108">
        <ele>582</ele>
        <time>2022-09-22T14:25:42Z</time>
      </trkpt>
      <trkpt lat="44.14784" lon="5.88107">
        <ele>582</ele>
        <time>2022-09-22T14:25:43Z</time>
      </trkpt>
      <trkpt lat="44.14784" lon="5.88105">
        <ele>582</ele>
        <time>2022-09-22T14:25:44Z</time>
      </trkpt>
      <trkpt lat="44.14784" lon="5.88104">
        <ele>582</ele>
        <time>2022-09-22T14:25:45Z</time>
      </trkpt>
      <trkpt lat="44.14784" lon="5.88102">
        <ele>582</ele>
        <time>2022-09-22T14:25:46Z</time>
      </trkpt>
      <trkpt lat="44.14784" lon="5.88101">
        <ele>582</ele>
        <time>2022-09-22T14:25:47Z</time>
      </trkpt>
      <trkpt lat="44.14784" lon="5.88099">
        <ele>582</ele>
        <time>2022-09-22T14:25:48Z</time>
      </trkpt>
      <trkpt lat="44.14784" lon="5.88098">
        <ele>582</ele>
        <time>2022-09-22T14:25:49Z</time>
      </trkpt>
      <trkpt lat="44.14784" lon="5.88097">
        <ele>582</ele>
        <time>2022-09-22T14:25:50Z</time>
      </trkpt>
      <trkpt lat="44.14784" lon="5.88095">
        <ele>582</ele>
        <time>2022-09-22T14:25:51Z</time>
      </trkpt>
      <trkpt lat="44.14784" lon="5.88094">
        <ele>582</ele>
        <time>2022-09-22T14:25:52Z</time>
      </trkpt>
      <trkpt lat="44.14783" lon="5.88093">
        <ele>582</ele>
        <time>2022-09-22T14:25:53Z</time>
      </trkpt>
      <trkpt lat="44.14783" lon="5.88091">
        <ele>582</ele>
        <time>2022-09-22T14:25:54Z</time>
      </trkpt>
      <trkpt lat="44.14783" lon="5.8809">
        <ele>581</ele>
        <time>2022-09-22T14:25:55Z</time>
      </trkpt>
      <trkpt lat="44.14783" lon="5.88088">
        <ele>581</ele>
        <time>2022-09-22T14:25:56Z</time>
      </trkpt>
      <trkpt lat="44.14783" lon="5.88086">
        <ele>581</ele>
        <time>2022-09-22T14:25:57Z</time>
      </trkpt>
      <trkpt lat="44.14783" lon="5.88085">
        <ele>581</ele>
        <time>2022-09-22T14:25:58Z</time>
      </trkpt>
      <trkpt lat="44.14783" lon="5.88083">
        <ele>581</ele>
        <time>2022-09-22T14:25:59Z</time>
      </trkpt>
      <trkpt lat="44.14783" lon="5.88081">
        <ele>581</ele>
        <time>2022-09-22T14:26:00Z</time>
      </trkpt>
      <trkpt lat="44.14783" lon="5.8808">
        <ele>581</ele>
        <time>2022-09-22T14:26:01Z</time>
      </trkpt>
      <trkpt lat="44.14783" lon="5.88078">
        <ele>581</ele>
        <time>2022-09-22T14:26:02Z</time>
      </trkpt>
      <trkpt lat="44.14783" lon="5.88077">
        <ele>581</ele>
        <time>2022-09-22T14:26:03Z</time>
      </trkpt>
      <trkpt lat="44.14783" lon="5.88076">
        <ele>581</ele>
        <time>2022-09-22T14:26:04Z</time>
      </trkpt>
      <trkpt lat="44.14783" lon="5.88075">
        <ele>581</ele>
        <time>2022-09-22T14:26:05Z</time>
      </trkpt>
      <trkpt lat="44.14784" lon="5.88073">
        <ele>581</ele>
        <time>2022-09-22T14:26:06Z</time>
      </trkpt>
      <trkpt lat="44.14784" lon="5.88072">
        <ele>581</ele>
        <time>2022-09-22T14:26:07Z</time>
      </trkpt>
      <trkpt lat="44.14784" lon="5.8807">
        <ele>581</ele>
        <time>2022-09-22T14:26:08Z</time>
      </trkpt>
      <trkpt lat="44.14785" lon="5.88069">
        <ele>581</ele>
        <time>2022-09-22T14:26:09Z</time>
      </trkpt>
      <trkpt lat="44.14785" lon="5.88067">
        <ele>581</ele>
        <time>2022-09-22T14:26:10Z</time>
      </trkpt>
      <trkpt lat="44.14785" lon="5.88066">
        <ele>581</ele>
        <time>2022-09-22T14:26:11Z</time>
      </trkpt>
      <trkpt lat="44.14786" lon="5.88064">
        <ele>581</ele>
        <time>2022-09-22T14:26:12Z</time>
      </trkpt>
      <trkpt lat="44.14786" lon="5.88062">
        <ele>581</ele>
        <time>2022-09-22T14:26:13Z</time>
      </trkpt>
      <trkpt lat="44.14786" lon="5.88061">
        <ele>581</ele>
        <time>2022-09-22T14:26:14Z</time>
      </trkpt>
      <trkpt lat="44.14786" lon="5.88059">
        <ele>581</ele>
        <time>2022-09-22T14:26:15Z</time>
      </trkpt>
      <trkpt lat="44.14786" lon="5.88058">
        <ele>581</ele>
        <time>2022-09-22T14:26:16Z</time>
      </trkpt>
      <trkpt lat="44.14786" lon="5.88056">
        <ele>581</ele>
        <time>2022-09-22T14:26:17Z</time>
      </trkpt>
      <trkpt lat="44.14785" lon="5.88054">
        <ele>581</ele>
        <time>2022-09-22T14:26:18Z</time>
      </trkpt>
      <trkpt lat="44.14785" lon="5.88053">
        <ele>581</ele>
        <time>2022-09-22T14:26:19Z</time>
      </trkpt>
      <trkpt lat="44.14785" lon="5.88052">
        <ele>580</ele>
        <time>2022-09-22T14:26:20Z</time>
      </trkpt>
      <trkpt lat="44.14785" lon="5.8805">
        <ele>580</ele>
        <time>2022-09-22T14:26:21Z</time>
      </trkpt>
      <trkpt lat="44.14786" lon="5.88048">
        <ele>580</ele>
        <time>2022-09-22T14:26:22Z</time>
      </trkpt>
      <trkpt lat="44.14786" lon="5.88047">
        <ele>580</ele>
        <time>2022-09-22T14:26:23Z</time>
      </trkpt>
      <trkpt lat="44.14786" lon="5.88045">
        <ele>580</ele>
        <time>2022-09-22T14:26:24Z</time>
      </trkpt>
      <trkpt lat="44.14786" lon="5.88044">
        <ele>580</ele>
        <time>2022-09-22T14:26:25Z</time>
      </trkpt>
      <trkpt lat="44.14786" lon="5.88043">
        <ele>580</ele>
        <time>2022-09-22T14:26:26Z</time>
      </trkpt>
      <trkpt lat="44.14787" lon="5.88041">
        <ele>580</ele>
        <time>2022-09-22T14:26:27Z</time>
      </trkpt>
      <trkpt lat="44.14787" lon="5.8804">
        <ele>580</ele>
        <time>2022-09-22T14:26:28Z</time>
      </trkpt>
      <trkpt lat="44.14788" lon="5.88038">
        <ele>580</ele>
        <time>2022-09-22T14:26:29Z</time>
      </trkpt>
      <trkpt lat="44.14788" lon="5.88037">
        <ele>580</ele>
        <time>2022-09-22T14:26:30Z</time>
      </trkpt>
      <trkpt lat="44.14789" lon="5.88035">
        <ele>580</ele>
        <time>2022-09-22T14:26:31Z</time>
      </trkpt>
      <trkpt lat="44.14789" lon="5.88034">
        <ele>580</ele>
        <time>2022-09-22T14:26:32Z</time>
      </trkpt>
      <trkpt lat="44.14789" lon="5.88033">
        <ele>580</ele>
        <time>2022-09-22T14:26:33Z</time>
      </trkpt>
      <trkpt lat="44.14789" lon="5.88032">
        <ele>580</ele>
        <time>2022-09-22T14:26:34Z</time>
      </trkpt>
      <trkpt lat="44.14789" lon="5.88032">
        <ele>580</ele>
        <time>2022-09-22T14:26:35Z</time>
      </trkpt>
      <trkpt lat="44.1479" lon="5.88031">
        <ele>580</ele>
        <time>2022-09-22T14:26:36Z</time>
      </trkpt>
      <trkpt lat="44.1479" lon="5.8803">
        <ele>580</ele>
        <time>2022-09-22T14:26:37Z</time>
      </trkpt>
      <trkpt lat="44.1479" lon="5.88029">
        <ele>580</ele>
        <time>2022-09-22T14:26:38Z</time>
      </trkpt>
      <trkpt lat="44.1479" lon="5.88028">
        <ele>580</ele>
        <time>2022-09-22T14:26:39Z</time>
      </trkpt>
      <trkpt lat="44.1479" lon="5.88028">
        <ele>580</ele>
        <time>2022-09-22T14:26:40Z</time>
      </trkpt>
      <trkpt lat="44.1479" lon="5.88026">
        <ele>580</ele>
        <time>2022-09-22T14:26:41Z</time>
      </trkpt>
      <trkpt lat="44.14791" lon="5.88025">
        <ele>580</ele>
        <time>2022-09-22T14:26:42Z</time>
      </trkpt>
      <trkpt lat="44.14791" lon="5.88024">
        <ele>580</ele>
        <time>2022-09-22T14:26:43Z</time>
      </trkpt>
      <trkpt lat="44.14791" lon="5.88023">
        <ele>580</ele>
        <time>2022-09-22T14:26:44Z</time>
      </trkpt>
      <trkpt lat="44.14792" lon="5.88021">
        <ele>580</ele>
        <time>2022-09-22T14:26:45Z</time>
      </trkpt>
      <trkpt lat="44.14792" lon="5.8802">
        <ele>580</ele>
        <time>2022-09-22T14:26:46Z</time>
      </trkpt>
      <trkpt lat="44.14792" lon="5.88019">
        <ele>580</ele>
        <time>2022-09-22T14:26:47Z</time>
      </trkpt>
      <trkpt lat="44.14793" lon="5.88017">
        <ele>580</ele>
        <time>2022-09-22T14:26:48Z</time>
      </trkpt>
      <trkpt lat="44.14793" lon="5.88016">
        <ele>580</ele>
        <time>2022-09-22T14:26:49Z</time>
      </trkpt>
      <trkpt lat="44.14793" lon="5.88015">
        <ele>580</ele>
        <time>2022-09-22T14:26:50Z</time>
      </trkpt>
      <trkpt lat="44.14794" lon="5.88013">
        <ele>580</ele>
        <time>2022-09-22T14:26:51Z</time>
      </trkpt>
      <trkpt lat="44.14795" lon="5.88012">
        <ele>580</ele>
        <time>2022-09-22T14:26:52Z</time>
      </trkpt>
      <trkpt lat="44.14796" lon="5.88011">
        <ele>580</ele>
        <time>2022-09-22T14:26:53Z</time>
      </trkpt>
      <trkpt lat="44.14796" lon="5.8801">
        <ele>580</ele>
        <time>2022-09-22T14:26:54Z</time>
      </trkpt>
      <trkpt lat="44.14797" lon="5.88009">
        <ele>580</ele>
        <time>2022-09-22T14:26:55Z</time>
      </trkpt>
      <trkpt lat="44.14798" lon="5.88008">
        <ele>580</ele>
        <time>2022-09-22T14:26:56Z</time>
      </trkpt>
      <trkpt lat="44.14798" lon="5.88007">
        <ele>580</ele>
        <time>2022-09-22T14:26:57Z</time>
      </trkpt>
      <trkpt lat="44.14799" lon="5.88006">
        <ele>580</ele>
        <time>2022-09-22T14:26:58Z</time>
      </trkpt>
      <trkpt lat="44.148" lon="5.88005">
        <ele>580</ele>
        <time>2022-09-22T14:26:59Z</time>
      </trkpt>
      <trkpt lat="44.14801" lon="5.88004">
        <ele>579</ele>
        <time>2022-09-22T14:27:00Z</time>
      </trkpt>
      <trkpt lat="44.14801" lon="5.88003">
        <ele>579</ele>
        <time>2022-09-22T14:27:01Z</time>
      </trkpt>
      <trkpt lat="44.14802" lon="5.88002">
        <ele>579</ele>
        <time>2022-09-22T14:27:02Z</time>
      </trkpt>
      <trkpt lat="44.14803" lon="5.88001">
        <ele>579</ele>
        <time>2022-09-22T14:27:03Z</time>
      </trkpt>
      <trkpt lat="44.14803" lon="5.88">
        <ele>579</ele>
        <time>2022-09-22T14:27:04Z</time>
      </trkpt>
      <trkpt lat="44.14804" lon="5.87999">
        <ele>579</ele>
        <time>2022-09-22T14:27:05Z</time>
      </trkpt>
      <trkpt lat="44.14805" lon="5.87998">
        <ele>579</ele>
        <time>2022-09-22T14:27:06Z</time>
      </trkpt>
      <trkpt lat="44.14805" lon="5.87997">
        <ele>579</ele>
        <time>2022-09-22T14:27:07Z</time>
      </trkpt>
      <trkpt lat="44.14806" lon="5.87996">
        <ele>579</ele>
        <time>2022-09-22T14:27:08Z</time>
      </trkpt>
      <trkpt lat="44.14806" lon="5.87995">
        <ele>579</ele>
        <time>2022-09-22T14:27:09Z</time>
      </trkpt>
      <trkpt lat="44.14807" lon="5.87994">
        <ele>579</ele>
        <time>2022-09-22T14:27:10Z</time>
      </trkpt>
      <trkpt lat="44.14807" lon="5.87993">
        <ele>579</ele>
        <time>2022-09-22T14:27:11Z</time>
      </trkpt>
      <trkpt lat="44.14808" lon="5.87992">
        <ele>579</ele>
        <time>2022-09-22T14:27:12Z</time>
      </trkpt>
      <trkpt lat="44.14809" lon="5.87991">
        <ele>579</ele>
        <time>2022-09-22T14:27:13Z</time>
      </trkpt>
      <trkpt lat="44.14809" lon="5.87989">
        <ele>579</ele>
        <time>2022-09-22T14:27:14Z</time>
      </trkpt>
      <trkpt lat="44.1481" lon="5.87989">
        <ele>579</ele>
        <time>2022-09-22T14:27:15Z</time>
      </trkpt>
      <trkpt lat="44.1481" lon="5.87988">
        <ele>579</ele>
        <time>2022-09-22T14:27:16Z</time>
      </trkpt>
      <trkpt lat="44.1481" lon="5.87987">
        <ele>579</ele>
        <time>2022-09-22T14:27:17Z</time>
      </trkpt>
      <trkpt lat="44.14811" lon="5.87987">
        <ele>579</ele>
        <time>2022-09-22T14:27:18Z</time>
      </trkpt>
      <trkpt lat="44.14811" lon="5.87986">
        <ele>579</ele>
        <time>2022-09-22T14:27:19Z</time>
      </trkpt>
      <trkpt lat="44.14812" lon="5.87985">
        <ele>579</ele>
        <time>2022-09-22T14:27:20Z</time>
      </trkpt>
      <trkpt lat="44.14812" lon="5.87984">
        <ele>579</ele>
        <time>2022-09-22T14:27:21Z</time>
      </trkpt>
      <trkpt lat="44.14813" lon="5.87984">
        <ele>579</ele>
        <time>2022-09-22T14:27:22Z</time>
      </trkpt>
      <trkpt lat="44.14813" lon="5.87983">
        <ele>579</ele>
        <time>2022-09-22T14:27:23Z</time>
      </trkpt>
      <trkpt lat="44.14814" lon="5.87982">
        <ele>579</ele>
        <time>2022-09-22T14:27:24Z</time>
      </trkpt>
      <trkpt lat="44.14814" lon="5.87981">
        <ele>579</ele>
        <time>2022-09-22T14:27:25Z</time>
      </trkpt>
      <trkpt lat="44.14815" lon="5.8798">
        <ele>579</ele>
        <time>2022-09-22T14:27:26Z</time>
      </trkpt>
      <trkpt lat="44.14816" lon="5.87979">
        <ele>579</ele>
        <time>2022-09-22T14:27:27Z</time>
      </trkpt>
      <trkpt lat="44.14816" lon="5.87978">
        <ele>579</ele>
        <time>2022-09-22T14:27:28Z</time>
      </trkpt>
      <trkpt lat="44.14817" lon="5.87977">
        <ele>579</ele>
        <time>2022-09-22T14:27:29Z</time>
      </trkpt>
      <trkpt lat="44.14817" lon="5.87976">
        <ele>579</ele>
        <time>2022-09-22T14:27:30Z</time>
      </trkpt>
      <trkpt lat="44.14817" lon="5.87975">
        <ele>579</ele>
        <time>2022-09-22T14:27:31Z</time>
      </trkpt>
      <trkpt lat="44.14818" lon="5.87973">
        <ele>579</ele>
        <time>2022-09-22T14:27:32Z</time>
      </trkpt>
      <trkpt lat="44.14819" lon="5.87972">
        <ele>579</ele>
        <time>2022-09-22T14:27:33Z</time>
      </trkpt>
      <trkpt lat="44.14819" lon="5.87971">
        <ele>579</ele>
        <time>2022-09-22T14:27:34Z</time>
      </trkpt>
      <trkpt lat="44.1482" lon="5.8797">
        <ele>579</ele>
        <time>2022-09-22T14:27:35Z</time>
      </trkpt>
      <trkpt lat="44.1482" lon="5.87969">
        <ele>579</ele>
        <time>2022-09-22T14:27:36Z</time>
      </trkpt>
      <trkpt lat="44.14821" lon="5.87968">
        <ele>579</ele>
        <time>2022-09-22T14:27:37Z</time>
      </trkpt>
      <trkpt lat="44.14822" lon="5.87967">
        <ele>579</ele>
        <time>2022-09-22T14:27:38Z</time>
      </trkpt>
      <trkpt lat="44.14822" lon="5.87966">
        <ele>579</ele>
        <time>2022-09-22T14:27:39Z</time>
      </trkpt>
      <trkpt lat="44.14823" lon="5.87965">
        <ele>579</ele>
        <time>2022-09-22T14:27:40Z</time>
      </trkpt>
      <trkpt lat="44.14823" lon="5.87963">
        <ele>579</ele>
        <time>2022-09-22T14:27:41Z</time>
      </trkpt>
      <trkpt lat="44.14824" lon="5.87962">
        <ele>579</ele>
        <time>2022-09-22T14:27:42Z</time>
      </trkpt>
      <trkpt lat="44.14825" lon="5.87961">
        <ele>579</ele>
        <time>2022-09-22T14:27:43Z</time>
      </trkpt>
      <trkpt lat="44.14825" lon="5.87959">
        <ele>579</ele>
        <time>2022-09-22T14:27:44Z</time>
      </trkpt>
      <trkpt lat="44.14826" lon="5.87958">
        <ele>578</ele>
        <time>2022-09-22T14:27:45Z</time>
      </trkpt>
      <trkpt lat="44.14826" lon="5.87957">
        <ele>578</ele>
        <time>2022-09-22T14:27:46Z</time>
      </trkpt>
      <trkpt lat="44.14827" lon="5.87956">
        <ele>578</ele>
        <time>2022-09-22T14:27:47Z</time>
      </trkpt>
      <trkpt lat="44.14827" lon="5.87955">
        <ele>578</ele>
        <time>2022-09-22T14:27:48Z</time>
      </trkpt>
      <trkpt lat="44.14828" lon="5.87954">
        <ele>578</ele>
        <time>2022-09-22T14:27:49Z</time>
      </trkpt>
      <trkpt lat="44.14828" lon="5.87953">
        <ele>578</ele>
        <time>2022-09-22T14:27:50Z</time>
      </trkpt>
      <trkpt lat="44.14829" lon="5.87952">
        <ele>578</ele>
        <time>2022-09-22T14:27:51Z</time>
      </trkpt>
      <trkpt lat="44.14829" lon="5.87951">
        <ele>578</ele>
        <time>2022-09-22T14:27:52Z</time>
      </trkpt>
      <trkpt lat="44.1483" lon="5.87949">
        <ele>578</ele>
        <time>2022-09-22T14:27:53Z</time>
      </trkpt>
      <trkpt lat="44.1483" lon="5.87948">
        <ele>578</ele>
        <time>2022-09-22T14:27:54Z</time>
      </trkpt>
      <trkpt lat="44.14831" lon="5.87948">
        <ele>578</ele>
        <time>2022-09-22T14:27:55Z</time>
      </trkpt>
      <trkpt lat="44.14831" lon="5.87947">
        <ele>578</ele>
        <time>2022-09-22T14:27:56Z</time>
      </trkpt>
      <trkpt lat="44.14832" lon="5.87946">
        <ele>578</ele>
        <time>2022-09-22T14:27:57Z</time>
      </trkpt>
      <trkpt lat="44.14832" lon="5.87945">
        <ele>578</ele>
        <time>2022-09-22T14:27:58Z</time>
      </trkpt>
      <trkpt lat="44.14833" lon="5.87944">
        <ele>578</ele>
        <time>2022-09-22T14:27:59Z</time>
      </trkpt>
      <trkpt lat="44.14834" lon="5.87943">
        <ele>578</ele>
        <time>2022-09-22T14:28:00Z</time>
      </trkpt>
      <trkpt lat="44.14834" lon="5.87942">
        <ele>578</ele>
        <time>2022-09-22T14:28:01Z</time>
      </trkpt>
      <trkpt lat="44.14835" lon="5.8794">
        <ele>578</ele>
        <time>2022-09-22T14:28:02Z</time>
      </trkpt>
      <trkpt lat="44.14835" lon="5.87939">
        <ele>578</ele>
        <time>2022-09-22T14:28:03Z</time>
      </trkpt>
      <trkpt lat="44.14836" lon="5.87938">
        <ele>578</ele>
        <time>2022-09-22T14:28:04Z</time>
      </trkpt>
      <trkpt lat="44.14836" lon="5.87937">
        <ele>578</ele>
        <time>2022-09-22T14:28:05Z</time>
      </trkpt>
      <trkpt lat="44.14837" lon="5.87936">
        <ele>578</ele>
        <time>2022-09-22T14:28:06Z</time>
      </trkpt>
      <trkpt lat="44.14837" lon="5.87936">
        <ele>578</ele>
        <time>2022-09-22T14:28:07Z</time>
      </trkpt>
      <trkpt lat="44.14837" lon="5.87936">
        <ele>578</ele>
        <time>2022-09-22T14:28:08Z</time>
      </trkpt>
      <trkpt lat="44.14837" lon="5.87935">
        <ele>578</ele>
        <time>2022-09-22T14:28:09Z</time>
      </trkpt>
      <trkpt lat="44.14837" lon="5.87935">
        <ele>578</ele>
        <time>2022-09-22T14:28:10Z</time>
      </trkpt>
      <trkpt lat="44.14837" lon="5.87935">
        <ele>578</ele>
        <time>2022-09-22T14:28:11Z</time>
      </trkpt>
      <trkpt lat="44.14838" lon="5.87934">
        <ele>578</ele>
        <time>2022-09-22T14:28:12Z</time>
      </trkpt>
      <trkpt lat="44.14838" lon="5.87933">
        <ele>578</ele>
        <time>2022-09-22T14:28:13Z</time>
      </trkpt>
      <trkpt lat="44.14839" lon="5.87932">
        <ele>578</ele>
        <time>2022-09-22T14:28:14Z</time>
      </trkpt>
      <trkpt lat="44.14839" lon="5.87932">
        <ele>577</ele>
        <time>2022-09-22T14:28:15Z</time>
      </trkpt>
      <trkpt lat="44.1484" lon="5.87931">
        <ele>577</ele>
        <time>2022-09-22T14:28:16Z</time>
      </trkpt>
      <trkpt lat="44.1484" lon="5.8793">
        <ele>577</ele>
        <time>2022-09-22T14:28:17Z</time>
      </trkpt>
      <trkpt lat="44.14841" lon="5.87928">
        <ele>577</ele>
        <time>2022-09-22T14:28:18Z</time>
      </trkpt>
      <trkpt lat="44.14841" lon="5.87927">
        <ele>577</ele>
        <time>2022-09-22T14:28:19Z</time>
      </trkpt>
      <trkpt lat="44.14842" lon="5.87926">
        <ele>577</ele>
        <time>2022-09-22T14:28:20Z</time>
      </trkpt>
      <trkpt lat="44.14843" lon="5.87925">
        <ele>577</ele>
        <time>2022-09-22T14:28:21Z</time>
      </trkpt>
      <trkpt lat="44.14843" lon="5.87923">
        <ele>577</ele>
        <time>2022-09-22T14:28:22Z</time>
      </trkpt>
      <trkpt lat="44.14844" lon="5.87922">
        <ele>577</ele>
        <time>2022-09-22T14:28:23Z</time>
      </trkpt>
      <trkpt lat="44.14845" lon="5.87921">
        <ele>577</ele>
        <time>2022-09-22T14:28:24Z</time>
      </trkpt>
      <trkpt lat="44.14845" lon="5.87919">
        <ele>576</ele>
        <time>2022-09-22T14:28:25Z</time>
      </trkpt>
      <trkpt lat="44.14846" lon="5.87918">
        <ele>576</ele>
        <time>2022-09-22T14:28:26Z</time>
      </trkpt>
      <trkpt lat="44.14847" lon="5.87917">
        <ele>576</ele>
        <time>2022-09-22T14:28:27Z</time>
      </trkpt>
      <trkpt lat="44.14848" lon="5.87916">
        <ele>576</ele>
        <time>2022-09-22T14:28:28Z</time>
      </trkpt>
      <trkpt lat="44.14848" lon="5.87915">
        <ele>576</ele>
        <time>2022-09-22T14:28:29Z</time>
      </trkpt>
      <trkpt lat="44.14849" lon="5.87914">
        <ele>576</ele>
        <time>2022-09-22T14:28:30Z</time>
      </trkpt>
      <trkpt lat="44.1485" lon="5.87912">
        <ele>576</ele>
        <time>2022-09-22T14:28:31Z</time>
      </trkpt>
      <trkpt lat="44.14851" lon="5.87911">
        <ele>576</ele>
        <time>2022-09-22T14:28:32Z</time>
      </trkpt>
      <trkpt lat="44.14851" lon="5.8791">
        <ele>576</ele>
        <time>2022-09-22T14:28:33Z</time>
      </trkpt>
      <trkpt lat="44.14852" lon="5.87909">
        <ele>576</ele>
        <time>2022-09-22T14:28:34Z</time>
      </trkpt>
      <trkpt lat="44.14853" lon="5.87907">
        <ele>576</ele>
        <time>2022-09-22T14:28:35Z</time>
      </trkpt>
      <trkpt lat="44.14853" lon="5.87906">
        <ele>576</ele>
        <time>2022-09-22T14:28:36Z</time>
      </trkpt>
      <trkpt lat="44.14854" lon="5.87905">
        <ele>576</ele>
        <time>2022-09-22T14:28:37Z</time>
      </trkpt>
      <trkpt lat="44.14854" lon="5.87904">
        <ele>576</ele>
        <time>2022-09-22T14:28:38Z</time>
      </trkpt>
      <trkpt lat="44.14855" lon="5.87903">
        <ele>576</ele>
        <time>2022-09-22T14:28:39Z</time>
      </trkpt>
      <trkpt lat="44.14855" lon="5.87901">
        <ele>576</ele>
        <time>2022-09-22T14:28:40Z</time>
      </trkpt>
      <trkpt lat="44.14856" lon="5.879">
        <ele>576</ele>
        <time>2022-09-22T14:28:41Z</time>
      </trkpt>
      <trkpt lat="44.14856" lon="5.87899">
        <ele>576</ele>
        <time>2022-09-22T14:28:42Z</time>
      </trkpt>
      <trkpt lat="44.14857" lon="5.87898">
        <ele>576</ele>
        <time>2022-09-22T14:28:43Z</time>
      </trkpt>
      <trkpt lat="44.14857" lon="5.87896">
        <ele>576</ele>
        <time>2022-09-22T14:28:44Z</time>
      </trkpt>
      <trkpt lat="44.14858" lon="5.87895">
        <ele>575</ele>
        <time>2022-09-22T14:28:45Z</time>
      </trkpt>
      <trkpt lat="44.14858" lon="5.87894">
        <ele>575</ele>
        <time>2022-09-22T14:28:46Z</time>
      </trkpt>
      <trkpt lat="44.14859" lon="5.87893">
        <ele>575</ele>
        <time>2022-09-22T14:28:47Z</time>
      </trkpt>
      <trkpt lat="44.14859" lon="5.87892">
        <ele>575</ele>
        <time>2022-09-22T14:28:48Z</time>
      </trkpt>
      <trkpt lat="44.1486" lon="5.87891">
        <ele>575</ele>
        <time>2022-09-22T14:28:49Z</time>
      </trkpt>
      <trkpt lat="44.1486" lon="5.87889">
        <ele>575</ele>
        <time>2022-09-22T14:28:50Z</time>
      </trkpt>
      <trkpt lat="44.14861" lon="5.87888">
        <ele>575</ele>
        <time>2022-09-22T14:28:51Z</time>
      </trkpt>
      <trkpt lat="44.14862" lon="5.87887">
        <ele>575</ele>
        <time>2022-09-22T14:28:52Z</time>
      </trkpt>
      <trkpt lat="44.14862" lon="5.87886">
        <ele>575</ele>
        <time>2022-09-22T14:28:53Z</time>
      </trkpt>
      <trkpt lat="44.14863" lon="5.87884">
        <ele>575</ele>
        <time>2022-09-22T14:28:54Z</time>
      </trkpt>
      <trkpt lat="44.14863" lon="5.87883">
        <ele>575</ele>
        <time>2022-09-22T14:28:55Z</time>
      </trkpt>
      <trkpt lat="44.14864" lon="5.87882">
        <ele>575</ele>
        <time>2022-09-22T14:28:56Z</time>
      </trkpt>
      <trkpt lat="44.14865" lon="5.8788">
        <ele>575</ele>
        <time>2022-09-22T14:28:57Z</time>
      </trkpt>
      <trkpt lat="44.14865" lon="5.87879">
        <ele>575</ele>
        <time>2022-09-22T14:28:58Z</time>
      </trkpt>
      <trkpt lat="44.14866" lon="5.87878">
        <ele>575</ele>
        <time>2022-09-22T14:28:59Z</time>
      </trkpt>
      <trkpt lat="44.14867" lon="5.87877">
        <ele>574</ele>
        <time>2022-09-22T14:29:00Z</time>
      </trkpt>
      <trkpt lat="44.14867" lon="5.87875">
        <ele>574</ele>
        <time>2022-09-22T14:29:01Z</time>
      </trkpt>
      <trkpt lat="44.14868" lon="5.87874">
        <ele>574</ele>
        <time>2022-09-22T14:29:02Z</time>
      </trkpt>
      <trkpt lat="44.14869" lon="5.87873">
        <ele>574</ele>
        <time>2022-09-22T14:29:03Z</time>
      </trkpt>
      <trkpt lat="44.14869" lon="5.87872">
        <ele>574</ele>
        <time>2022-09-22T14:29:04Z</time>
      </trkpt>
      <trkpt lat="44.1487" lon="5.8787">
        <ele>574</ele>
        <time>2022-09-22T14:29:05Z</time>
      </trkpt>
      <trkpt lat="44.14871" lon="5.87869">
        <ele>574</ele>
        <time>2022-09-22T14:29:06Z</time>
      </trkpt>
      <trkpt lat="44.14871" lon="5.87868">
        <ele>574</ele>
        <time>2022-09-22T14:29:07Z</time>
      </trkpt>
      <trkpt lat="44.14872" lon="5.87867">
        <ele>574</ele>
        <time>2022-09-22T14:29:08Z</time>
      </trkpt>
      <trkpt lat="44.14872" lon="5.87866">
        <ele>574</ele>
        <time>2022-09-22T14:29:09Z</time>
      </trkpt>
      <trkpt lat="44.14873" lon="5.87865">
        <ele>574</ele>
        <time>2022-09-22T14:29:10Z</time>
      </trkpt>
      <trkpt lat="44.14873" lon="5.87863">
        <ele>574</ele>
        <time>2022-09-22T14:29:11Z</time>
      </trkpt>
      <trkpt lat="44.14874" lon="5.87862">
        <ele>574</ele>
        <time>2022-09-22T14:29:12Z</time>
      </trkpt>
      <trkpt lat="44.14875" lon="5.87861">
        <ele>574</ele>
        <time>2022-09-22T14:29:13Z</time>
      </trkpt>
      <trkpt lat="44.14875" lon="5.8786">
        <ele>574</ele>
        <time>2022-09-22T14:29:14Z</time>
      </trkpt>
      <trkpt lat="44.14876" lon="5.87859">
        <ele>573</ele>
        <time>2022-09-22T14:29:15Z</time>
      </trkpt>
      <trkpt lat="44.14876" lon="5.87858">
        <ele>573</ele>
        <time>2022-09-22T14:29:16Z</time>
      </trkpt>
      <trkpt lat="44.14877" lon="5.87857">
        <ele>573</ele>
        <time>2022-09-22T14:29:17Z</time>
      </trkpt>
      <trkpt lat="44.14877" lon="5.87856">
        <ele>573</ele>
        <time>2022-09-22T14:29:18Z</time>
      </trkpt>
      <trkpt lat="44.14877" lon="5.87855">
        <ele>573</ele>
        <time>2022-09-22T14:29:19Z</time>
      </trkpt>
      <trkpt lat="44.14878" lon="5.87854">
        <ele>573</ele>
        <time>2022-09-22T14:29:20Z</time>
      </trkpt>
      <trkpt lat="44.14878" lon="5.87853">
        <ele>573</ele>
        <time>2022-09-22T14:29:21Z</time>
      </trkpt>
      <trkpt lat="44.14879" lon="5.87852">
        <ele>573</ele>
        <time>2022-09-22T14:29:22Z</time>
      </trkpt>
      <trkpt lat="44.14879" lon="5.87851">
        <ele>573</ele>
        <time>2022-09-22T14:29:23Z</time>
      </trkpt>
      <trkpt lat="44.1488" lon="5.8785">
        <ele>573</ele>
        <time>2022-09-22T14:29:24Z</time>
      </trkpt>
      <trkpt lat="44.14881" lon="5.87849">
        <ele>573</ele>
        <time>2022-09-22T14:29:25Z</time>
      </trkpt>
      <trkpt lat="44.14881" lon="5.87848">
        <ele>573</ele>
        <time>2022-09-22T14:29:26Z</time>
      </trkpt>
      <trkpt lat="44.14882" lon="5.87847">
        <ele>573</ele>
        <time>2022-09-22T14:29:27Z</time>
      </trkpt>
      <trkpt lat="44.14882" lon="5.87846">
        <ele>573</ele>
        <time>2022-09-22T14:29:28Z</time>
      </trkpt>
      <trkpt lat="44.14883" lon="5.87845">
        <ele>573</ele>
        <time>2022-09-22T14:29:29Z</time>
      </trkpt>
      <trkpt lat="44.14883" lon="5.87844">
        <ele>572</ele>
        <time>2022-09-22T14:29:30Z</time>
      </trkpt>
      <trkpt lat="44.14884" lon="5.87843">
        <ele>572</ele>
        <time>2022-09-22T14:29:31Z</time>
      </trkpt>
      <trkpt lat="44.14884" lon="5.87842">
        <ele>572</ele>
        <time>2022-09-22T14:29:32Z</time>
      </trkpt>
      <trkpt lat="44.14885" lon="5.8784">
        <ele>572</ele>
        <time>2022-09-22T14:29:33Z</time>
      </trkpt>
      <trkpt lat="44.14886" lon="5.87839">
        <ele>572</ele>
        <time>2022-09-22T14:29:34Z</time>
      </trkpt>
      <trkpt lat="44.14887" lon="5.87838">
        <ele>572</ele>
        <time>2022-09-22T14:29:35Z</time>
      </trkpt>
      <trkpt lat="44.14888" lon="5.87837">
        <ele>572</ele>
        <time>2022-09-22T14:29:36Z</time>
      </trkpt>
      <trkpt lat="44.14888" lon="5.87836">
        <ele>572</ele>
        <time>2022-09-22T14:29:37Z</time>
      </trkpt>
      <trkpt lat="44.14889" lon="5.87834">
        <ele>572</ele>
        <time>2022-09-22T14:29:38Z</time>
      </trkpt>
      <trkpt lat="44.1489" lon="5.87833">
        <ele>572</ele>
        <time>2022-09-22T14:29:39Z</time>
      </trkpt>
      <trkpt lat="44.14891" lon="5.87832">
        <ele>572</ele>
        <time>2022-09-22T14:29:40Z</time>
      </trkpt>
      <trkpt lat="44.14891" lon="5.8783">
        <ele>572</ele>
        <time>2022-09-22T14:29:41Z</time>
      </trkpt>
      <trkpt lat="44.14892" lon="5.87829">
        <ele>572</ele>
        <time>2022-09-22T14:29:42Z</time>
      </trkpt>
      <trkpt lat="44.14893" lon="5.87827">
        <ele>572</ele>
        <time>2022-09-22T14:29:43Z</time>
      </trkpt>
      <trkpt lat="44.14893" lon="5.87826">
        <ele>572</ele>
        <time>2022-09-22T14:29:44Z</time>
      </trkpt>
      <trkpt lat="44.14894" lon="5.87825">
        <ele>572</ele>
        <time>2022-09-22T14:29:45Z</time>
      </trkpt>
      <trkpt lat="44.14895" lon="5.87823">
        <ele>572</ele>
        <time>2022-09-22T14:29:46Z</time>
      </trkpt>
      <trkpt lat="44.14896" lon="5.87822">
        <ele>572</ele>
        <time>2022-09-22T14:29:47Z</time>
      </trkpt>
      <trkpt lat="44.14896" lon="5.87821">
        <ele>572</ele>
        <time>2022-09-22T14:29:48Z</time>
      </trkpt>
      <trkpt lat="44.14897" lon="5.8782">
        <ele>572</ele>
        <time>2022-09-22T14:29:49Z</time>
      </trkpt>
      <trkpt lat="44.14898" lon="5.87818">
        <ele>572</ele>
        <time>2022-09-22T14:29:50Z</time>
      </trkpt>
      <trkpt lat="44.14898" lon="5.87817">
        <ele>572</ele>
        <time>2022-09-22T14:29:51Z</time>
      </trkpt>
      <trkpt lat="44.14899" lon="5.87816">
        <ele>572</ele>
        <time>2022-09-22T14:29:52Z</time>
      </trkpt>
      <trkpt lat="44.14899" lon="5.87815">
        <ele>572</ele>
        <time>2022-09-22T14:29:53Z</time>
      </trkpt>
      <trkpt lat="44.149" lon="5.87813">
        <ele>572</ele>
        <time>2022-09-22T14:29:54Z</time>
      </trkpt>
      <trkpt lat="44.14901" lon="5.87812">
        <ele>572</ele>
        <time>2022-09-22T14:29:55Z</time>
      </trkpt>
      <trkpt lat="44.14901" lon="5.87811">
        <ele>572</ele>
        <time>2022-09-22T14:29:56Z</time>
      </trkpt>
      <trkpt lat="44.14902" lon="5.8781">
        <ele>572</ele>
        <time>2022-09-22T14:29:57Z</time>
      </trkpt>
      <trkpt lat="44.14903" lon="5.87809">
        <ele>572</ele>
        <time>2022-09-22T14:29:58Z</time>
      </trkpt>
      <trkpt lat="44.14904" lon="5.87808">
        <ele>572</ele>
        <time>2022-09-22T14:29:59Z</time>
      </trkpt>
      <trkpt lat="44.14904" lon="5.87807">
        <ele>572</ele>
        <time>2022-09-22T14:30:00Z</time>
      </trkpt>
      <trkpt lat="44.14905" lon="5.87806">
        <ele>572</ele>
        <time>2022-09-22T14:30:01Z</time>
      </trkpt>
      <trkpt lat="44.14906" lon="5.87805">
        <ele>572</ele>
        <time>2022-09-22T14:30:02Z</time>
      </trkpt>
      <trkpt lat="44.14906" lon="5.87805">
        <ele>572</ele>
        <time>2022-09-22T14:30:03Z</time>
      </trkpt>
      <trkpt lat="44.14907" lon="5.87804">
        <ele>571</ele>
        <time>2022-09-22T14:30:09Z</time>
      </trkpt>
      <trkpt lat="44.14908" lon="5.87803">
        <ele>571</ele>
        <time>2022-09-22T14:30:10Z</time>
      </trkpt>
      <trkpt lat="44.14908" lon="5.87802">
        <ele>571</ele>
        <time>2022-09-22T14:30:11Z</time>
      </trkpt>
      <trkpt lat="44.14908" lon="5.87802">
        <ele>571</ele>
        <time>2022-09-22T14:30:12Z</time>
      </trkpt>
      <trkpt lat="44.14909" lon="5.87801">
        <ele>571</ele>
        <time>2022-09-22T14:30:13Z</time>
      </trkpt>
      <trkpt lat="44.14909" lon="5.878">
        <ele>571</ele>
        <time>2022-09-22T14:30:14Z</time>
      </trkpt>
      <trkpt lat="44.14909" lon="5.87799">
        <ele>571</ele>
        <time>2022-09-22T14:30:15Z</time>
      </trkpt>
      <trkpt lat="44.1491" lon="5.87798">
        <ele>571</ele>
        <time>2022-09-22T14:30:16Z</time>
      </trkpt>
      <trkpt lat="44.1491" lon="5.87797">
        <ele>571</ele>
        <time>2022-09-22T14:30:17Z</time>
      </trkpt>
      <trkpt lat="44.1491" lon="5.87795">
        <ele>571</ele>
        <time>2022-09-22T14:30:59Z</time>
      </trkpt>
      <trkpt lat="44.14911" lon="5.87793">
        <ele>571</ele>
        <time>2022-09-22T14:31:00Z</time>
      </trkpt>
      <trkpt lat="44.14911" lon="5.87792">
        <ele>571</ele>
        <time>2022-09-22T14:31:01Z</time>
      </trkpt>
      <trkpt lat="44.14911" lon="5.87791">
        <ele>571</ele>
        <time>2022-09-22T14:31:02Z</time>
      </trkpt>
      <trkpt lat="44.14912" lon="5.8779">
        <ele>571</ele>
        <time>2022-09-22T14:31:03Z</time>
      </trkpt>
      <trkpt lat="44.14912" lon="5.8779">
        <ele>571</ele>
        <time>2022-09-22T14:31:04Z</time>
      </trkpt>
      <trkpt lat="44.14913" lon="5.87789">
        <ele>570</ele>
        <time>2022-09-22T14:31:05Z</time>
      </trkpt>
      <trkpt lat="44.14913" lon="5.87788">
        <ele>570</ele>
        <time>2022-09-22T14:31:06Z</time>
      </trkpt>
      <trkpt lat="44.14914" lon="5.87787">
        <ele>570</ele>
        <time>2022-09-22T14:31:07Z</time>
      </trkpt>
      <trkpt lat="44.14914" lon="5.87786">
        <ele>570</ele>
        <time>2022-09-22T14:31:08Z</time>
      </trkpt>
      <trkpt lat="44.14915" lon="5.87785">
        <ele>570</ele>
        <time>2022-09-22T14:31:09Z</time>
      </trkpt>
      <trkpt lat="44.14916" lon="5.87784">
        <ele>570</ele>
        <time>2022-09-22T14:31:10Z</time>
      </trkpt>
      <trkpt lat="44.14916" lon="5.87783">
        <ele>570</ele>
        <time>2022-09-22T14:31:11Z</time>
      </trkpt>
      <trkpt lat="44.14917" lon="5.87782">
        <ele>570</ele>
        <time>2022-09-22T14:31:12Z</time>
      </trkpt>
      <trkpt lat="44.14917" lon="5.87781">
        <ele>570</ele>
        <time>2022-09-22T14:31:13Z</time>
      </trkpt>
      <trkpt lat="44.14918" lon="5.8778">
        <ele>570</ele>
        <time>2022-09-22T14:31:14Z</time>
      </trkpt>
      <trkpt lat="44.14919" lon="5.87779">
        <ele>570</ele>
        <time>2022-09-22T14:31:15Z</time>
      </trkpt>
      <trkpt lat="44.14919" lon="5.87779">
        <ele>570</ele>
        <time>2022-09-22T14:31:16Z</time>
      </trkpt>
      <trkpt lat="44.1492" lon="5.87778">
        <ele>570</ele>
        <time>2022-09-22T14:31:17Z</time>
      </trkpt>
      <trkpt lat="44.1492" lon="5.87777">
        <ele>570</ele>
        <time>2022-09-22T14:31:24Z</time>
      </trkpt>
      <trkpt lat="44.14921" lon="5.87776">
        <ele>570</ele>
        <time>2022-09-22T14:31:25Z</time>
      </trkpt>
      <trkpt lat="44.14921" lon="5.87775">
        <ele>570</ele>
        <time>2022-09-22T14:31:26Z</time>
      </trkpt>
      <trkpt lat="44.14922" lon="5.87774">
        <ele>570</ele>
        <time>2022-09-22T14:31:27Z</time>
      </trkpt>
      <trkpt lat="44.14922" lon="5.87773">
        <ele>570</ele>
        <time>2022-09-22T14:31:28Z</time>
      </trkpt>
      <trkpt lat="44.14923" lon="5.87773">
        <ele>570</ele>
        <time>2022-09-22T14:31:29Z</time>
      </trkpt>
      <trkpt lat="44.14924" lon="5.87772">
        <ele>570</ele>
        <time>2022-09-22T14:31:30Z</time>
      </trkpt>
      <trkpt lat="44.14924" lon="5.8777">
        <ele>570</ele>
        <time>2022-09-22T14:31:31Z</time>
      </trkpt>
      <trkpt lat="44.14925" lon="5.87769">
        <ele>570</ele>
        <time>2022-09-22T14:31:32Z</time>
      </trkpt>
      <trkpt lat="44.14926" lon="5.87768">
        <ele>570</ele>
        <time>2022-09-22T14:31:33Z</time>
      </trkpt>
      <trkpt lat="44.14927" lon="5.87767">
        <ele>570</ele>
        <time>2022-09-22T14:31:34Z</time>
      </trkpt>
      <trkpt lat="44.14928" lon="5.87766">
        <ele>570</ele>
        <time>2022-09-22T14:31:35Z</time>
      </trkpt>
      <trkpt lat="44.14928" lon="5.87765">
        <ele>570</ele>
        <time>2022-09-22T14:31:36Z</time>
      </trkpt>
      <trkpt lat="44.14929" lon="5.87764">
        <ele>570</ele>
        <time>2022-09-22T14:31:37Z</time>
      </trkpt>
      <trkpt lat="44.14929" lon="5.87763">
        <ele>570</ele>
        <time>2022-09-22T14:31:38Z</time>
      </trkpt>
      <trkpt lat="44.1493" lon="5.87762">
        <ele>570</ele>
        <time>2022-09-22T14:31:39Z</time>
      </trkpt>
      <trkpt lat="44.14931" lon="5.87761">
        <ele>569</ele>
        <time>2022-09-22T14:31:40Z</time>
      </trkpt>
      <trkpt lat="44.14931" lon="5.8776">
        <ele>569</ele>
        <time>2022-09-22T14:31:41Z</time>
      </trkpt>
      <trkpt lat="44.14932" lon="5.87759">
        <ele>569</ele>
        <time>2022-09-22T14:31:42Z</time>
      </trkpt>
      <trkpt lat="44.14933" lon="5.87758">
        <ele>569</ele>
        <time>2022-09-22T14:31:43Z</time>
      </trkpt>
      <trkpt lat="44.14933" lon="5.87757">
        <ele>569</ele>
        <time>2022-09-22T14:31:44Z</time>
      </trkpt>
      <trkpt lat="44.14934" lon="5.87756">
        <ele>569</ele>
        <time>2022-09-22T14:31:45Z</time>
      </trkpt>
      <trkpt lat="44.14935" lon="5.87755">
        <ele>569</ele>
        <time>2022-09-22T14:31:46Z</time>
      </trkpt>
      <trkpt lat="44.14935" lon="5.87754">
        <ele>569</ele>
        <time>2022-09-22T14:31:47Z</time>
      </trkpt>
      <trkpt lat="44.14936" lon="5.87754">
        <ele>569</ele>
        <time>2022-09-22T14:31:48Z</time>
      </trkpt>
      <trkpt lat="44.14937" lon="5.87753">
        <ele>569</ele>
        <time>2022-09-22T14:31:49Z</time>
      </trkpt>
      <trkpt lat="44.14937" lon="5.87752">
        <ele>569</ele>
        <time>2022-09-22T14:31:50Z</time>
      </trkpt>
      <trkpt lat="44.14938" lon="5.87751">
        <ele>569</ele>
        <time>2022-09-22T14:31:51Z</time>
      </trkpt>
      <trkpt lat="44.14939" lon="5.87751">
        <ele>569</ele>
        <time>2022-09-22T14:31:52Z</time>
      </trkpt>
      <trkpt lat="44.1494" lon="5.8775">
        <ele>569</ele>
        <time>2022-09-22T14:31:53Z</time>
      </trkpt>
      <trkpt lat="44.1494" lon="5.87749">
        <ele>569</ele>
        <time>2022-09-22T14:31:54Z</time>
      </trkpt>
      <trkpt lat="44.14941" lon="5.87748">
        <ele>569</ele>
        <time>2022-09-22T14:31:55Z</time>
      </trkpt>
      <trkpt lat="44.14942" lon="5.87746">
        <ele>569</ele>
        <time>2022-09-22T14:31:56Z</time>
      </trkpt>
      <trkpt lat="44.14943" lon="5.87746">
        <ele>569</ele>
        <time>2022-09-22T14:31:57Z</time>
      </trkpt>
      <trkpt lat="44.14943" lon="5.87745">
        <ele>569</ele>
        <time>2022-09-22T14:31:58Z</time>
      </trkpt>
      <trkpt lat="44.14944" lon="5.87744">
        <ele>569</ele>
        <time>2022-09-22T14:31:59Z</time>
      </trkpt>
      <trkpt lat="44.14944" lon="5.87743">
        <ele>569</ele>
        <time>2022-09-22T14:32:00Z</time>
      </trkpt>
      <trkpt lat="44.14945" lon="5.87742">
        <ele>569</ele>
        <time>2022-09-22T14:32:01Z</time>
      </trkpt>
      <trkpt lat="44.14945" lon="5.87741">
        <ele>569</ele>
        <time>2022-09-22T14:32:02Z</time>
      </trkpt>
      <trkpt lat="44.14945" lon="5.87741">
        <ele>569</ele>
        <time>2022-09-22T14:32:03Z</time>
      </trkpt>
      <trkpt lat="44.14944" lon="5.8774">
        <ele>569</ele>
        <time>2022-09-22T14:32:04Z</time>
      </trkpt>
      <trkpt lat="44.14944" lon="5.8774">
        <ele>568</ele>
        <time>2022-09-22T14:32:05Z</time>
      </trkpt>
      <trkpt lat="44.14943" lon="5.87739">
        <ele>568</ele>
        <time>2022-09-22T14:32:06Z</time>
      </trkpt>
      <trkpt lat="44.14942" lon="5.87738">
        <ele>568</ele>
        <time>2022-09-22T14:32:07Z</time>
      </trkpt>
      <trkpt lat="44.14942" lon="5.87737">
        <ele>568</ele>
        <time>2022-09-22T14:32:08Z</time>
      </trkpt>
      <trkpt lat="44.14942" lon="5.87736">
        <ele>568</ele>
        <time>2022-09-22T14:32:09Z</time>
      </trkpt>
      <trkpt lat="44.14941" lon="5.87734">
        <ele>568</ele>
        <time>2022-09-22T14:32:10Z</time>
      </trkpt>
      <trkpt lat="44.14941" lon="5.87732">
        <ele>568</ele>
        <time>2022-09-22T14:32:11Z</time>
      </trkpt>
      <trkpt lat="44.14941" lon="5.87731">
        <ele>568</ele>
        <time>2022-09-22T14:32:12Z</time>
      </trkpt>
      <trkpt lat="44.1494" lon="5.87728">
        <ele>568</ele>
        <time>2022-09-22T14:32:13Z</time>
      </trkpt>
      <trkpt lat="44.1494" lon="5.87726">
        <ele>568</ele>
        <time>2022-09-22T14:32:14Z</time>
      </trkpt>
    </trkseg>
  </trk>
</gpx>